<?xml version="1.0" encoding="UTF-8" standalone="no" ?>
<gpx xmlns="http://www.topografix.com/GPX/1/1" xmlns:xsi="http://www.w3.org/2001/XMLSchema-instance" xsi:schemaLocation="http://www.topografix.com/GPX/1/1 http://www.topografix.com/GPX/1/1/gpx.xsd" version="1.1" creator="VisuGPX - https://www.visugpx.com">
  <metadata>
    <name>teruel</name>
  </metadata>
  <wpt lat="42.25533" lon="-1.48842">
    <ele>419.3</ele>
    <name><![CDATA[Vue Panoramique a 360 degres]]></name>
  </wpt>
  <wpt lat="41.7822" lon="-1.69984">
    <ele>778.5</ele>
    <name><![CDATA[ALCALA DE MONCAYO]]></name>
  </wpt>
  <wpt lat="40.5453" lon="-1.03018">
    <ele>1023.3</ele>
    <name><![CDATA[ALFAMBRA]]></name>
  </wpt>
  <wpt lat="40.68562" lon="-1.16286">
    <ele>1228.8</ele>
    <name><![CDATA[ARGENTE]]></name>
  </wpt>
  <wpt lat="42.58339" lon="-1.76401">
    <ele>395.2</ele>
    <name><![CDATA[ARTAJONA]]></name>
  </wpt>
  <wpt lat="40.83548" lon="-1.19012">
    <ele>1116.5</ele>
    <name><![CDATA[BAÑÓN]]></name>
  </wpt>
  <wpt lat="41.01678" lon="-1.33952">
    <ele>811.4</ele>
    <name><![CDATA[BURBAGUENA]]></name>
  </wpt>
  <wpt lat="41.03564" lon="-1.35279">
    <ele>799.5</ele>
    <name><![CDATA[BÁGUENA]]></name>
  </wpt>
  <wpt lat="40.91039" lon="-1.2965">
    <ele>897.7</ele>
    <name><![CDATA[CALAMOCHA]]></name>
  </wpt>
  <wpt lat="41.34406" lon="-1.65261">
    <ele>532</ele>
    <name><![CDATA[CALATAYUD]]></name>
  </wpt>
  <wpt lat="40.64112" lon="-1.13623">
    <ele>1226.7</ele>
    <name><![CDATA[CAMAÑAS]]></name>
  </wpt>
  <wpt lat="41.99863" lon="-1.67165">
    <ele>345.3</ele>
    <name><![CDATA[CASCANTE]]></name>
  </wpt>
  <wpt lat="42.77887" lon="-1.6875">
    <ele>443.3</ele>
    <name><![CDATA[CIZUR MAYOR]]></name>
  </wpt>
  <wpt lat="42.78512" lon="-1.67921">
    <ele>450.4</ele>
    <name><![CDATA[CIZUR MENOR]]></name>
  </wpt>
  <wpt lat="41.10872" lon="-1.41897">
    <ele>752.8</ele>
    <name><![CDATA[DAROCA]]></name>
  </wpt>
  <trk>
    <name><![CDATA[Camino de la Vera cruz de Caravaca En moto trail Tramo 3 TER...  398kms]]></name>
    <extensions>
      <line xmlns="http://www.topografix.com/GPX/gpx_style/0/2">
        <color>a20b0b</color>
        <width>4</width>
      </line>
    </extensions>
    <trkseg>
      <trkpt lat="40.34792" lon="-1.11854">
        <ele>913.451</ele>
        <time>2013-05-10T17:26:28Z</time>
      </trkpt>
      <trkpt lat="40.34832" lon="-1.11959">
        <ele>915.301</ele>
        <time>2013-05-10T17:26:19Z</time>
      </trkpt>
      <trkpt lat="40.34865" lon="-1.1205">
        <ele>918.711</ele>
        <time>2013-05-10T17:26:10Z</time>
      </trkpt>
      <trkpt lat="40.34911" lon="-1.12181">
        <ele>920.608</ele>
        <time>2013-05-10T17:25:55Z</time>
      </trkpt>
      <trkpt lat="40.34944" lon="-1.12276">
        <ele>922.526</ele>
        <time>2013-05-10T17:25:44Z</time>
      </trkpt>
      <trkpt lat="40.34966" lon="-1.12345">
        <ele>924.967</ele>
        <time>2013-05-10T17:25:35Z</time>
      </trkpt>
      <trkpt lat="40.34968" lon="-1.12351">
        <ele>924.939</ele>
        <time>2013-05-10T17:25:34Z</time>
      </trkpt>
      <trkpt lat="40.34976" lon="-1.1236">
        <ele>924.934</ele>
        <time>2013-05-10T17:25:14Z</time>
      </trkpt>
      <trkpt lat="40.34976" lon="-1.12358">
        <ele>925.481</ele>
        <time>2013-05-10T17:25:04Z</time>
      </trkpt>
      <trkpt lat="40.34988" lon="-1.12378">
        <ele>926.958</ele>
        <time>2013-05-10T17:24:56Z</time>
      </trkpt>
      <trkpt lat="40.34998" lon="-1.1241">
        <ele>929.756</ele>
        <time>2013-05-10T17:24:48Z</time>
      </trkpt>
      <trkpt lat="40.35018" lon="-1.1243">
        <ele>933.199</ele>
        <time>2013-05-10T17:24:41Z</time>
      </trkpt>
      <trkpt lat="40.35022" lon="-1.12432">
        <ele>933.199</ele>
        <time>2013-05-10T17:24:40Z</time>
      </trkpt>
      <trkpt lat="40.35034" lon="-1.12444">
        <ele>934.507</ele>
        <time>2013-05-10T17:24:36Z</time>
      </trkpt>
      <trkpt lat="40.35053" lon="-1.12487">
        <ele>936.527</ele>
        <time>2013-05-10T17:24:26Z</time>
      </trkpt>
      <trkpt lat="40.3506" lon="-1.12502">
        <ele>936.508</ele>
        <time>2013-05-10T17:23:59Z</time>
      </trkpt>
      <trkpt lat="40.3506" lon="-1.12501">
        <ele>936.54</ele>
        <time>2013-05-10T17:23:47Z</time>
      </trkpt>
      <trkpt lat="40.3506" lon="-1.12502">
        <ele>936.511</ele>
        <time>2013-05-10T17:23:31Z</time>
      </trkpt>
      <trkpt lat="40.35064" lon="-1.12506">
        <ele>936.953</ele>
        <time>2013-05-10T17:23:22Z</time>
      </trkpt>
      <trkpt lat="40.35083" lon="-1.12516">
        <ele>937.988</ele>
        <time>2013-05-10T17:23:15Z</time>
      </trkpt>
      <trkpt lat="40.35087" lon="-1.12517">
        <ele>938.495</ele>
        <time>2013-05-10T17:23:14Z</time>
      </trkpt>
      <trkpt lat="40.35101" lon="-1.12519">
        <ele>938.482</ele>
        <time>2013-05-10T17:23:11Z</time>
      </trkpt>
      <trkpt lat="40.35127" lon="-1.12518">
        <ele>939.41</ele>
        <time>2013-05-10T17:23:05Z</time>
      </trkpt>
      <trkpt lat="40.35182" lon="-1.12521">
        <ele>941.353</ele>
        <time>2013-05-10T17:22:55Z</time>
      </trkpt>
      <trkpt lat="40.35194" lon="-1.12523">
        <ele>942.287</ele>
        <time>2013-05-10T17:22:53Z</time>
      </trkpt>
      <trkpt lat="40.35199" lon="-1.12523">
        <ele>942.242</ele>
        <time>2013-05-10T17:22:52Z</time>
      </trkpt>
      <trkpt lat="40.35238" lon="-1.12528">
        <ele>945.126</ele>
        <time>2013-05-10T17:22:45Z</time>
      </trkpt>
      <trkpt lat="40.35268" lon="-1.12546">
        <ele>948.508</ele>
        <time>2013-05-10T17:22:40Z</time>
      </trkpt>
      <trkpt lat="40.35294" lon="-1.12573">
        <ele>951.839</ele>
        <time>2013-05-10T17:22:35Z</time>
      </trkpt>
      <trkpt lat="40.35321" lon="-1.12599">
        <ele>955.22</ele>
        <time>2013-05-10T17:22:28Z</time>
      </trkpt>
      <trkpt lat="40.35345" lon="-1.12611">
        <ele>957.112</ele>
        <time>2013-05-10T17:22:22Z</time>
      </trkpt>
      <trkpt lat="40.35362" lon="-1.1262">
        <ele>957.167</ele>
        <time>2013-05-10T17:22:19Z</time>
      </trkpt>
      <trkpt lat="40.35427" lon="-1.12671">
        <ele>957.674</ele>
        <time>2013-05-10T17:22:08Z</time>
      </trkpt>
      <trkpt lat="40.35506" lon="-1.12738">
        <ele>959.551</ele>
        <time>2013-05-10T17:21:57Z</time>
      </trkpt>
      <trkpt lat="40.35567" lon="-1.12767">
        <ele>962.929</ele>
        <time>2013-05-10T17:21:49Z</time>
      </trkpt>
      <trkpt lat="40.35573" lon="-1.1277">
        <ele>963.952</ele>
        <time>2013-05-10T17:21:48Z</time>
      </trkpt>
      <trkpt lat="40.35579" lon="-1.12773">
        <ele>963.997</ele>
        <time>2013-05-10T17:21:47Z</time>
      </trkpt>
      <trkpt lat="40.3564" lon="-1.12833">
        <ele>965.823</ele>
        <time>2013-05-10T17:21:32Z</time>
      </trkpt>
      <trkpt lat="40.35693" lon="-1.12885">
        <ele>965.825</ele>
        <time>2013-05-10T17:21:18Z</time>
      </trkpt>
      <trkpt lat="40.35738" lon="-1.12903">
        <ele>965.808</ele>
        <time>2013-05-10T17:21:07Z</time>
      </trkpt>
      <trkpt lat="40.35773" lon="-1.12915">
        <ele>965.82</ele>
        <time>2013-05-10T17:20:58Z</time>
      </trkpt>
      <trkpt lat="40.35814" lon="-1.12936">
        <ele>966.731</ele>
        <time>2013-05-10T17:20:48Z</time>
      </trkpt>
      <trkpt lat="40.3585" lon="-1.12956">
        <ele>966.773</ele>
        <time>2013-05-10T17:20:38Z</time>
      </trkpt>
      <trkpt lat="40.35876" lon="-1.12969">
        <ele>966.378</ele>
        <time>2013-05-10T17:20:27Z</time>
      </trkpt>
      <trkpt lat="40.35894" lon="-1.12975">
        <ele>964.375</ele>
        <time>2013-05-10T17:20:16Z</time>
      </trkpt>
      <trkpt lat="40.3591" lon="-1.12981">
        <ele>962.952</ele>
        <time>2013-05-10T17:20:07Z</time>
      </trkpt>
      <trkpt lat="40.35913" lon="-1.12982">
        <ele>962.96</ele>
        <time>2013-05-10T17:20:06Z</time>
      </trkpt>
      <trkpt lat="40.35916" lon="-1.12984">
        <ele>962.493</ele>
        <time>2013-05-10T17:20:05Z</time>
      </trkpt>
      <trkpt lat="40.35919" lon="-1.12986">
        <ele>962.468</ele>
        <time>2013-05-10T17:20:04Z</time>
      </trkpt>
      <trkpt lat="40.35922" lon="-1.12989">
        <ele>961.942</ele>
        <time>2013-05-10T17:20:03Z</time>
      </trkpt>
      <trkpt lat="40.35925" lon="-1.12994">
        <ele>961.926</ele>
        <time>2013-05-10T17:20:02Z</time>
      </trkpt>
      <trkpt lat="40.35935" lon="-1.13004">
        <ele>932.408</ele>
        <time>2016-03-07T19:54:43Z</time>
      </trkpt>
      <trkpt lat="40.36208" lon="-1.12836">
        <ele>927.757</ele>
        <time>2016-03-07T19:55:03Z</time>
      </trkpt>
      <trkpt lat="40.36632" lon="-1.12706">
        <ele>916.228</ele>
        <time>2016-03-07T19:55:23Z</time>
      </trkpt>
      <trkpt lat="40.36828" lon="-1.12469">
        <ele>910.08</ele>
        <time>2016-03-07T19:55:43Z</time>
      </trkpt>
      <trkpt lat="40.36954" lon="-1.11982">
        <ele>914.315</ele>
        <time>2016-03-07T19:56:03Z</time>
      </trkpt>
      <trkpt lat="40.37284" lon="-1.11402">
        <ele>917.272</ele>
        <time>2016-03-07T19:56:23Z</time>
      </trkpt>
      <trkpt lat="40.37628" lon="-1.10833">
        <ele>916.439</ele>
        <time>2016-03-07T19:56:43Z</time>
      </trkpt>
      <trkpt lat="40.3768" lon="-1.10519">
        <ele>914.397</ele>
        <time>2016-03-07T19:57:03Z</time>
      </trkpt>
      <trkpt lat="40.37651" lon="-1.0995">
        <ele>917.16</ele>
        <time>2016-03-07T19:57:23Z</time>
      </trkpt>
      <trkpt lat="40.37687" lon="-1.09736">
        <ele>916.218</ele>
        <time>2016-03-07T19:57:43Z</time>
      </trkpt>
      <trkpt lat="40.37872" lon="-1.09251">
        <ele>915.298</ele>
        <time>2016-03-07T19:58:03Z</time>
      </trkpt>
      <trkpt lat="40.37873" lon="-1.09227">
        <ele>945.617</ele>
        <time>2013-05-10T16:43:45Z</time>
      </trkpt>
      <trkpt lat="40.37894" lon="-1.09237">
        <ele>947.008</ele>
        <time>2013-05-10T16:43:39Z</time>
      </trkpt>
      <trkpt lat="40.37898" lon="-1.0924">
        <ele>947.062</ele>
        <time>2013-05-10T16:43:38Z</time>
      </trkpt>
      <trkpt lat="40.37915" lon="-1.09254">
        <ele>950.493</ele>
        <time>2013-05-10T16:43:33Z</time>
      </trkpt>
      <trkpt lat="40.37935" lon="-1.0927">
        <ele>954.385</ele>
        <time>2013-05-10T16:43:27Z</time>
      </trkpt>
      <trkpt lat="40.37939" lon="-1.09273">
        <ele>954.33</ele>
        <time>2013-05-10T16:43:26Z</time>
      </trkpt>
      <trkpt lat="40.37942" lon="-1.09275">
        <ele>955.237</ele>
        <time>2013-05-10T16:43:25Z</time>
      </trkpt>
      <trkpt lat="40.37945" lon="-1.09276">
        <ele>955.224</ele>
        <time>2013-05-10T16:43:24Z</time>
      </trkpt>
      <trkpt lat="40.37947" lon="-1.09276">
        <ele>955.242</ele>
        <time>2013-05-10T16:43:23Z</time>
      </trkpt>
      <trkpt lat="40.37948" lon="-1.09275">
        <ele>955.215</ele>
        <time>2013-05-10T16:43:22Z</time>
      </trkpt>
      <trkpt lat="40.3795" lon="-1.09275">
        <ele>955.261</ele>
        <time>2013-05-10T16:43:16Z</time>
      </trkpt>
      <trkpt lat="40.37951" lon="-1.09275">
        <ele>955.721</ele>
        <time>2013-05-10T16:43:07Z</time>
      </trkpt>
      <trkpt lat="40.37968" lon="-1.09259">
        <ele>955.713</ele>
        <time>2013-05-10T16:42:56Z</time>
      </trkpt>
      <trkpt lat="40.37968" lon="-1.09257">
        <ele>955.708</ele>
        <time>2013-05-10T16:42:44Z</time>
      </trkpt>
      <trkpt lat="40.37968" lon="-1.09254">
        <ele>955.797</ele>
        <time>2013-05-10T16:42:37Z</time>
      </trkpt>
      <trkpt lat="40.37967" lon="-1.09254">
        <ele>955.728</ele>
        <time>2013-05-10T16:42:36Z</time>
      </trkpt>
      <trkpt lat="40.37956" lon="-1.09276">
        <ele>955.77</ele>
        <time>2013-05-10T16:42:28Z</time>
      </trkpt>
      <trkpt lat="40.37955" lon="-1.09279">
        <ele>955.755</ele>
        <time>2013-05-10T16:42:27Z</time>
      </trkpt>
      <trkpt lat="40.37954" lon="-1.09281">
        <ele>955.772</ele>
        <time>2013-05-10T16:42:26Z</time>
      </trkpt>
      <trkpt lat="40.37954" lon="-1.09282">
        <ele>955.739</ele>
        <time>2013-05-10T16:42:25Z</time>
      </trkpt>
      <trkpt lat="40.37952" lon="-1.09283">
        <ele>955.787</ele>
        <time>2013-05-10T16:42:24Z</time>
      </trkpt>
      <trkpt lat="40.37952" lon="-1.0928">
        <ele>955.78</ele>
        <time>2013-05-10T16:42:19Z</time>
      </trkpt>
      <trkpt lat="40.37952" lon="-1.09279">
        <ele>955.715</ele>
        <time>2013-05-10T16:41:53Z</time>
      </trkpt>
      <trkpt lat="40.37954" lon="-1.09278">
        <ele>955.765</ele>
        <time>2013-05-10T16:41:52Z</time>
      </trkpt>
      <trkpt lat="40.37955" lon="-1.09277">
        <ele>955.711</ele>
        <time>2013-05-10T16:41:51Z</time>
      </trkpt>
      <trkpt lat="40.37957" lon="-1.09276">
        <ele>955.708</ele>
        <time>2013-05-10T16:41:50Z</time>
      </trkpt>
      <trkpt lat="40.37959" lon="-1.09274">
        <ele>955.722</ele>
        <time>2013-05-10T16:41:49Z</time>
      </trkpt>
      <trkpt lat="40.37961" lon="-1.09272">
        <ele>955.713</ele>
        <time>2013-05-10T16:41:48Z</time>
      </trkpt>
      <trkpt lat="40.37963" lon="-1.09271">
        <ele>955.775</ele>
        <time>2013-05-10T16:41:47Z</time>
      </trkpt>
      <trkpt lat="40.37965" lon="-1.0927">
        <ele>955.78</ele>
        <time>2013-05-10T16:41:46Z</time>
      </trkpt>
      <trkpt lat="40.37967" lon="-1.0927">
        <ele>955.747</ele>
        <time>2013-05-10T16:41:45Z</time>
      </trkpt>
      <trkpt lat="40.38008" lon="-1.09286">
        <ele>956.734</ele>
        <time>2013-05-10T16:41:34Z</time>
      </trkpt>
      <trkpt lat="40.38027" lon="-1.09289">
        <ele>957.182</ele>
        <time>2013-05-10T16:41:30Z</time>
      </trkpt>
      <trkpt lat="40.3805" lon="-1.09285">
        <ele>958.145</ele>
        <time>2013-05-10T16:41:25Z</time>
      </trkpt>
      <trkpt lat="40.38054" lon="-1.09283">
        <ele>958.198</ele>
        <time>2013-05-10T16:41:24Z</time>
      </trkpt>
      <trkpt lat="40.38072" lon="-1.09278">
        <ele>959.115</ele>
        <time>2013-05-10T16:41:20Z</time>
      </trkpt>
      <trkpt lat="40.38088" lon="-1.09279">
        <ele>959.126</ele>
        <time>2013-05-10T16:41:16Z</time>
      </trkpt>
      <trkpt lat="40.38091" lon="-1.0928">
        <ele>959.508</ele>
        <time>2013-05-10T16:41:15Z</time>
      </trkpt>
      <trkpt lat="40.38136" lon="-1.09271">
        <ele>956.79</ele>
        <time>2013-05-10T16:41:02Z</time>
      </trkpt>
      <trkpt lat="40.38151" lon="-1.0926">
        <ele>955.291</ele>
        <time>2013-05-10T16:40:58Z</time>
      </trkpt>
      <trkpt lat="40.38166" lon="-1.09247">
        <ele>953.813</ele>
        <time>2013-05-10T16:40:55Z</time>
      </trkpt>
      <trkpt lat="40.38222" lon="-1.09214">
        <ele>954.318</ele>
        <time>2013-05-10T16:40:47Z</time>
      </trkpt>
      <trkpt lat="40.38253" lon="-1.09209">
        <ele>955.785</ele>
        <time>2013-05-10T16:40:43Z</time>
      </trkpt>
      <trkpt lat="40.38285" lon="-1.09213">
        <ele>957.182</ele>
        <time>2013-05-10T16:40:39Z</time>
      </trkpt>
      <trkpt lat="40.38299" lon="-1.09217">
        <ele>958.61</ele>
        <time>2013-05-10T16:40:37Z</time>
      </trkpt>
      <trkpt lat="40.38318" lon="-1.09232">
        <ele>961.023</ele>
        <time>2013-05-10T16:40:33Z</time>
      </trkpt>
      <trkpt lat="40.38324" lon="-1.09251">
        <ele>962.454</ele>
        <time>2013-05-10T16:40:30Z</time>
      </trkpt>
      <trkpt lat="40.38325" lon="-1.09259">
        <ele>963.456</ele>
        <time>2013-05-10T16:40:29Z</time>
      </trkpt>
      <trkpt lat="40.38327" lon="-1.09305">
        <ele>967.711</ele>
        <time>2013-05-10T16:40:23Z</time>
      </trkpt>
      <trkpt lat="40.38331" lon="-1.09322">
        <ele>969.608</ele>
        <time>2013-05-10T16:40:20Z</time>
      </trkpt>
      <trkpt lat="40.38363" lon="-1.0934">
        <ele>972.546</ele>
        <time>2013-05-10T16:40:13Z</time>
      </trkpt>
      <trkpt lat="40.38378" lon="-1.09358">
        <ele>974.037</ele>
        <time>2013-05-10T16:40:09Z</time>
      </trkpt>
      <trkpt lat="40.38387" lon="-1.09366">
        <ele>975.479</ele>
        <time>2013-05-10T16:40:04Z</time>
      </trkpt>
      <trkpt lat="40.38388" lon="-1.09369">
        <ele>975.434</ele>
        <time>2013-05-10T16:39:24Z</time>
      </trkpt>
      <trkpt lat="40.38389" lon="-1.09371">
        <ele>975.431</ele>
        <time>2013-05-10T16:38:56Z</time>
      </trkpt>
      <trkpt lat="40.38389" lon="-1.09368">
        <ele>975.498</ele>
        <time>2013-05-10T16:38:46Z</time>
      </trkpt>
      <trkpt lat="40.38398" lon="-1.09374">
        <ele>975.416</ele>
        <time>2013-05-10T16:38:37Z</time>
      </trkpt>
      <trkpt lat="40.3842" lon="-1.09382">
        <ele>974.099</ele>
        <time>2013-05-10T16:38:25Z</time>
      </trkpt>
      <trkpt lat="40.38446" lon="-1.09382">
        <ele>972.531</ele>
        <time>2013-05-10T16:38:11Z</time>
      </trkpt>
      <trkpt lat="40.38463" lon="-1.09363">
        <ele>971.661</ele>
        <time>2013-05-10T16:38:00Z</time>
      </trkpt>
      <trkpt lat="40.38474" lon="-1.09339">
        <ele>969.207</ele>
        <time>2013-05-10T16:37:48Z</time>
      </trkpt>
      <trkpt lat="40.385" lon="-1.09322">
        <ele>967.208</ele>
        <time>2013-05-10T16:37:34Z</time>
      </trkpt>
      <trkpt lat="40.38528" lon="-1.09305">
        <ele>964.874</ele>
        <time>2013-05-10T16:37:19Z</time>
      </trkpt>
      <trkpt lat="40.38563" lon="-1.09294">
        <ele>964.815</ele>
        <time>2013-05-10T16:37:06Z</time>
      </trkpt>
      <trkpt lat="40.38587" lon="-1.09304">
        <ele>962.427</ele>
        <time>2013-05-10T16:36:52Z</time>
      </trkpt>
      <trkpt lat="40.3861" lon="-1.09323">
        <ele>960.532</ele>
        <time>2013-05-10T16:36:41Z</time>
      </trkpt>
      <trkpt lat="40.38644" lon="-1.0934">
        <ele>960.089</ele>
        <time>2013-05-10T16:36:30Z</time>
      </trkpt>
      <trkpt lat="40.38671" lon="-1.09359">
        <ele>960.036</ele>
        <time>2013-05-10T16:36:20Z</time>
      </trkpt>
      <trkpt lat="40.38676" lon="-1.09361">
        <ele>960.084</ele>
        <time>2013-05-10T16:36:19Z</time>
      </trkpt>
      <trkpt lat="40.3868" lon="-1.09361">
        <ele>960.067</ele>
        <time>2013-05-10T16:36:18Z</time>
      </trkpt>
      <trkpt lat="40.38685" lon="-1.09362">
        <ele>960.036</ele>
        <time>2013-05-10T16:36:17Z</time>
      </trkpt>
      <trkpt lat="40.38689" lon="-1.09361">
        <ele>960.017</ele>
        <time>2013-05-10T16:36:16Z</time>
      </trkpt>
      <trkpt lat="40.38694" lon="-1.09358">
        <ele>960.018</ele>
        <time>2013-05-10T16:36:15Z</time>
      </trkpt>
      <trkpt lat="40.387" lon="-1.09349">
        <ele>960.008</ele>
        <time>2013-05-10T16:36:13Z</time>
      </trkpt>
      <trkpt lat="40.38702" lon="-1.09344">
        <ele>960.044</ele>
        <time>2013-05-10T16:36:12Z</time>
      </trkpt>
      <trkpt lat="40.38704" lon="-1.09338">
        <ele>960.035</ele>
        <time>2013-05-10T16:36:11Z</time>
      </trkpt>
      <trkpt lat="40.38703" lon="-1.09321">
        <ele>960.057</ele>
        <time>2013-05-10T16:36:08Z</time>
      </trkpt>
      <trkpt lat="40.38703" lon="-1.09315">
        <ele>960.042</ele>
        <time>2013-05-10T16:36:07Z</time>
      </trkpt>
      <trkpt lat="40.38709" lon="-1.09297">
        <ele>960.059</ele>
        <time>2013-05-10T16:36:03Z</time>
      </trkpt>
      <trkpt lat="40.38733" lon="-1.09252">
        <ele>959.196</ele>
        <time>2013-05-10T16:35:50Z</time>
      </trkpt>
      <trkpt lat="40.3875" lon="-1.09221">
        <ele>957.114</ele>
        <time>2013-05-10T16:35:41Z</time>
      </trkpt>
      <trkpt lat="40.38758" lon="-1.09207">
        <ele>956.747</ele>
        <time>2013-05-10T16:35:38Z</time>
      </trkpt>
      <trkpt lat="40.3876" lon="-1.09203">
        <ele>956.724</ele>
        <time>2013-05-10T16:35:37Z</time>
      </trkpt>
      <trkpt lat="40.38763" lon="-1.09198">
        <ele>955.704</ele>
        <time>2013-05-10T16:35:36Z</time>
      </trkpt>
      <trkpt lat="40.38766" lon="-1.09194">
        <ele>955.714</ele>
        <time>2013-05-10T16:35:35Z</time>
      </trkpt>
      <trkpt lat="40.3877" lon="-1.09191">
        <ele>955.708</ele>
        <time>2013-05-10T16:35:34Z</time>
      </trkpt>
      <trkpt lat="40.38808" lon="-1.09159">
        <ele>955.753</ele>
        <time>2013-05-10T16:35:25Z</time>
      </trkpt>
      <trkpt lat="40.38827" lon="-1.09146">
        <ele>955.784</ele>
        <time>2013-05-10T16:35:21Z</time>
      </trkpt>
      <trkpt lat="40.38832" lon="-1.09143">
        <ele>955.786</ele>
        <time>2013-05-10T16:35:20Z</time>
      </trkpt>
      <trkpt lat="40.38837" lon="-1.09138">
        <ele>955.771</ele>
        <time>2013-05-10T16:35:19Z</time>
      </trkpt>
      <trkpt lat="40.38875" lon="-1.09085">
        <ele>956.228</ele>
        <time>2013-05-10T16:35:10Z</time>
      </trkpt>
      <trkpt lat="40.38939" lon="-1.09019">
        <ele>958.165</ele>
        <time>2013-05-10T16:34:55Z</time>
      </trkpt>
      <trkpt lat="40.38994" lon="-1.08969">
        <ele>957.683</ele>
        <time>2013-05-10T16:34:41Z</time>
      </trkpt>
      <trkpt lat="40.39048" lon="-1.08927">
        <ele>956.756</ele>
        <time>2013-05-10T16:34:27Z</time>
      </trkpt>
      <trkpt lat="40.39061" lon="-1.08919">
        <ele>955.292</ele>
        <time>2013-05-10T16:34:24Z</time>
      </trkpt>
      <trkpt lat="40.39066" lon="-1.08917">
        <ele>955.273</ele>
        <time>2013-05-10T16:34:23Z</time>
      </trkpt>
      <trkpt lat="40.39072" lon="-1.08915">
        <ele>955.22</ele>
        <time>2013-05-10T16:34:22Z</time>
      </trkpt>
      <trkpt lat="40.39077" lon="-1.08913">
        <ele>955.208</ele>
        <time>2013-05-10T16:34:21Z</time>
      </trkpt>
      <trkpt lat="40.39083" lon="-1.08912">
        <ele>955.24</ele>
        <time>2013-05-10T16:34:20Z</time>
      </trkpt>
      <trkpt lat="40.39088" lon="-1.0891">
        <ele>955.261</ele>
        <time>2013-05-10T16:34:19Z</time>
      </trkpt>
      <trkpt lat="40.39126" lon="-1.08883">
        <ele>955.723</ele>
        <time>2013-05-10T16:34:11Z</time>
      </trkpt>
      <trkpt lat="40.39132" lon="-1.08879">
        <ele>955.738</ele>
        <time>2013-05-10T16:34:10Z</time>
      </trkpt>
      <trkpt lat="40.39161" lon="-1.08851">
        <ele>957.155</ele>
        <time>2013-05-10T16:34:04Z</time>
      </trkpt>
      <trkpt lat="40.39223" lon="-1.08819">
        <ele>958.172</ele>
        <time>2013-05-10T16:33:52Z</time>
      </trkpt>
      <trkpt lat="40.39248" lon="-1.08812">
        <ele>958.17</ele>
        <time>2013-05-10T16:33:47Z</time>
      </trkpt>
      <trkpt lat="40.39317" lon="-1.0879">
        <ele>958.153</ele>
        <time>2013-05-10T16:33:34Z</time>
      </trkpt>
      <trkpt lat="40.39373" lon="-1.08773">
        <ele>958.692</ele>
        <time>2013-05-10T16:33:23Z</time>
      </trkpt>
      <trkpt lat="40.39436" lon="-1.08745">
        <ele>959.573</ele>
        <time>2013-05-10T16:33:09Z</time>
      </trkpt>
      <trkpt lat="40.39512" lon="-1.087">
        <ele>961.02</ele>
        <time>2013-05-10T16:32:53Z</time>
      </trkpt>
      <trkpt lat="40.39569" lon="-1.08655">
        <ele>961.908</ele>
        <time>2013-05-10T16:32:40Z</time>
      </trkpt>
      <trkpt lat="40.39612" lon="-1.08622">
        <ele>961.91</ele>
        <time>2013-05-10T16:32:27Z</time>
      </trkpt>
      <trkpt lat="40.39637" lon="-1.08605">
        <ele>961.991</ele>
        <time>2013-05-10T16:32:17Z</time>
      </trkpt>
      <trkpt lat="40.39654" lon="-1.08577">
        <ele>960.513</ele>
        <time>2013-05-10T16:32:04Z</time>
      </trkpt>
      <trkpt lat="40.39669" lon="-1.0855">
        <ele>958.698</ele>
        <time>2013-05-10T16:31:52Z</time>
      </trkpt>
      <trkpt lat="40.3969" lon="-1.08536">
        <ele>956.265</ele>
        <time>2013-05-10T16:31:40Z</time>
      </trkpt>
      <trkpt lat="40.39697" lon="-1.08511">
        <ele>954.772</ele>
        <time>2013-05-10T16:31:30Z</time>
      </trkpt>
      <trkpt lat="40.39696" lon="-1.08505">
        <ele>954.71</ele>
        <time>2013-05-10T16:31:28Z</time>
      </trkpt>
      <trkpt lat="40.39694" lon="-1.08498">
        <ele>955.223</ele>
        <time>2013-05-10T16:31:16Z</time>
      </trkpt>
      <trkpt lat="40.39699" lon="-1.08491">
        <ele>956.737</ele>
        <time>2013-05-10T16:31:10Z</time>
      </trkpt>
      <trkpt lat="40.39753" lon="-1.08481">
        <ele>956.749</ele>
        <time>2013-05-10T16:30:57Z</time>
      </trkpt>
      <trkpt lat="40.3979" lon="-1.08472">
        <ele>956.713</ele>
        <time>2013-05-10T16:30:47Z</time>
      </trkpt>
      <trkpt lat="40.3982" lon="-1.0846">
        <ele>956.708</ele>
        <time>2013-05-10T16:30:38Z</time>
      </trkpt>
      <trkpt lat="40.39849" lon="-1.08444">
        <ele>956.234</ele>
        <time>2013-05-10T16:30:28Z</time>
      </trkpt>
      <trkpt lat="40.39847" lon="-1.08416">
        <ele>954.755</ele>
        <time>2013-05-10T16:30:20Z</time>
      </trkpt>
      <trkpt lat="40.39829" lon="-1.08356">
        <ele>951.897</ele>
        <time>2013-05-10T16:30:04Z</time>
      </trkpt>
      <trkpt lat="40.39833" lon="-1.08331">
        <ele>951.842</ele>
        <time>2013-05-10T16:29:59Z</time>
      </trkpt>
      <trkpt lat="40.39859" lon="-1.08286">
        <ele>951.879</ele>
        <time>2013-05-10T16:29:50Z</time>
      </trkpt>
      <trkpt lat="40.39875" lon="-1.08261">
        <ele>951.876</ele>
        <time>2013-05-10T16:29:45Z</time>
      </trkpt>
      <trkpt lat="40.39897" lon="-1.08212">
        <ele>951.874</ele>
        <time>2013-05-10T16:29:36Z</time>
      </trkpt>
      <trkpt lat="40.39929" lon="-1.08171">
        <ele>951.827</ele>
        <time>2013-05-10T16:29:27Z</time>
      </trkpt>
      <trkpt lat="40.39942" lon="-1.08161">
        <ele>951.818</ele>
        <time>2013-05-10T16:29:24Z</time>
      </trkpt>
      <trkpt lat="40.39973" lon="-1.08145">
        <ele>952.398</ele>
        <time>2013-05-10T16:29:17Z</time>
      </trkpt>
      <trkpt lat="40.39991" lon="-1.08132">
        <ele>952.317</ele>
        <time>2013-05-10T16:29:13Z</time>
      </trkpt>
      <trkpt lat="40.40003" lon="-1.08116">
        <ele>952.808</ele>
        <time>2013-05-10T16:29:10Z</time>
      </trkpt>
      <trkpt lat="40.40013" lon="-1.08098">
        <ele>952.882</ele>
        <time>2013-05-10T16:29:07Z</time>
      </trkpt>
      <trkpt lat="40.40053" lon="-1.08053">
        <ele>953.843</ele>
        <time>2013-05-10T16:28:58Z</time>
      </trkpt>
      <trkpt lat="40.401" lon="-1.08012">
        <ele>954.775</ele>
        <time>2013-05-10T16:28:47Z</time>
      </trkpt>
      <trkpt lat="40.40113" lon="-1.07987">
        <ele>954.78</ele>
        <time>2013-05-10T16:28:41Z</time>
      </trkpt>
      <trkpt lat="40.40108" lon="-1.07969">
        <ele>954.717</ele>
        <time>2013-05-10T16:28:38Z</time>
      </trkpt>
      <trkpt lat="40.40085" lon="-1.07881">
        <ele>954.784</ele>
        <time>2013-05-10T16:28:23Z</time>
      </trkpt>
      <trkpt lat="40.40065" lon="-1.07803">
        <ele>954.762</ele>
        <time>2013-05-10T16:28:10Z</time>
      </trkpt>
      <trkpt lat="40.40051" lon="-1.07749">
        <ele>954.755</ele>
        <time>2013-05-10T16:28:01Z</time>
      </trkpt>
      <trkpt lat="40.40053" lon="-1.07706">
        <ele>954.737</ele>
        <time>2013-05-10T16:27:54Z</time>
      </trkpt>
      <trkpt lat="40.4008" lon="-1.07661">
        <ele>954.749</ele>
        <time>2013-05-10T16:27:44Z</time>
      </trkpt>
      <trkpt lat="40.401" lon="-1.07595">
        <ele>954.713</ele>
        <time>2013-05-10T16:27:34Z</time>
      </trkpt>
      <trkpt lat="40.401" lon="-1.07581">
        <ele>954.708</ele>
        <time>2013-05-10T16:27:32Z</time>
      </trkpt>
      <trkpt lat="40.40104" lon="-1.07554">
        <ele>954.794</ele>
        <time>2013-05-10T16:27:28Z</time>
      </trkpt>
      <trkpt lat="40.40116" lon="-1.07528">
        <ele>955.275</ele>
        <time>2013-05-10T16:27:24Z</time>
      </trkpt>
      <trkpt lat="40.40144" lon="-1.07486">
        <ele>955.757</ele>
        <time>2013-05-10T16:27:17Z</time>
      </trkpt>
      <trkpt lat="40.40153" lon="-1.07475">
        <ele>955.732</ele>
        <time>2013-05-10T16:27:15Z</time>
      </trkpt>
      <trkpt lat="40.40196" lon="-1.07419">
        <ele>956.229</ele>
        <time>2013-05-10T16:27:05Z</time>
      </trkpt>
      <trkpt lat="40.40222" lon="-1.07405">
        <ele>956.256</ele>
        <time>2013-05-10T16:27:00Z</time>
      </trkpt>
      <trkpt lat="40.4025" lon="-1.07404">
        <ele>956.234</ele>
        <time>2013-05-10T16:26:55Z</time>
      </trkpt>
      <trkpt lat="40.40292" lon="-1.07412">
        <ele>956.237</ele>
        <time>2013-05-10T16:26:47Z</time>
      </trkpt>
      <trkpt lat="40.40309" lon="-1.07409">
        <ele>956.268</ele>
        <time>2013-05-10T16:26:44Z</time>
      </trkpt>
      <trkpt lat="40.40384" lon="-1.07389">
        <ele>956.742</ele>
        <time>2013-05-10T16:26:31Z</time>
      </trkpt>
      <trkpt lat="40.40444" lon="-1.07404">
        <ele>956.726</ele>
        <time>2013-05-10T16:26:20Z</time>
      </trkpt>
      <trkpt lat="40.40464" lon="-1.07404">
        <ele>956.708</ele>
        <time>2013-05-10T16:26:16Z</time>
      </trkpt>
      <trkpt lat="40.40489" lon="-1.07393">
        <ele>956.797</ele>
        <time>2013-05-10T16:26:11Z</time>
      </trkpt>
      <trkpt lat="40.40509" lon="-1.07394">
        <ele>956.788</ele>
        <time>2013-05-10T16:26:07Z</time>
      </trkpt>
      <trkpt lat="40.40525" lon="-1.07401">
        <ele>956.73</ele>
        <time>2013-05-10T16:26:03Z</time>
      </trkpt>
      <trkpt lat="40.40537" lon="-1.0741">
        <ele>956.755</ele>
        <time>2013-05-10T16:26:00Z</time>
      </trkpt>
      <trkpt lat="40.40545" lon="-1.07417">
        <ele>956.722</ele>
        <time>2013-05-10T16:25:58Z</time>
      </trkpt>
      <trkpt lat="40.40549" lon="-1.0742">
        <ele>956.729</ele>
        <time>2013-05-10T16:25:57Z</time>
      </trkpt>
      <trkpt lat="40.40576" lon="-1.07432">
        <ele>957.157</ele>
        <time>2013-05-10T16:25:50Z</time>
      </trkpt>
      <trkpt lat="40.40584" lon="-1.07434">
        <ele>957.18</ele>
        <time>2013-05-10T16:25:39Z</time>
      </trkpt>
      <trkpt lat="40.40585" lon="-1.07434">
        <ele>957.194</ele>
        <time>2013-05-10T16:25:30Z</time>
      </trkpt>
      <trkpt lat="40.40587" lon="-1.07435">
        <ele>957.157</ele>
        <time>2013-05-10T16:25:29Z</time>
      </trkpt>
      <trkpt lat="40.40591" lon="-1.07437">
        <ele>957.122</ele>
        <time>2013-05-10T16:25:28Z</time>
      </trkpt>
      <trkpt lat="40.40604" lon="-1.07438">
        <ele>957.108</ele>
        <time>2013-05-10T16:25:25Z</time>
      </trkpt>
      <trkpt lat="40.4063" lon="-1.0744">
        <ele>957.17</ele>
        <time>2013-05-10T16:25:20Z</time>
      </trkpt>
      <trkpt lat="40.40635" lon="-1.07441">
        <ele>957.651</ele>
        <time>2013-05-10T16:25:19Z</time>
      </trkpt>
      <trkpt lat="40.4064" lon="-1.07443">
        <ele>957.683</ele>
        <time>2013-05-10T16:25:18Z</time>
      </trkpt>
      <trkpt lat="40.40655" lon="-1.0745">
        <ele>960.018</ele>
        <time>2013-05-10T16:25:14Z</time>
      </trkpt>
      <trkpt lat="40.40657" lon="-1.07451">
        <ele>960.585</ele>
        <time>2013-05-10T16:25:13Z</time>
      </trkpt>
      <trkpt lat="40.40659" lon="-1.07452">
        <ele>960.552</ele>
        <time>2013-05-10T16:25:12Z</time>
      </trkpt>
      <trkpt lat="40.40661" lon="-1.07452">
        <ele>960.53</ele>
        <time>2013-05-10T16:25:11Z</time>
      </trkpt>
      <trkpt lat="40.40663" lon="-1.0745">
        <ele>960.513</ele>
        <time>2013-05-10T16:25:10Z</time>
      </trkpt>
      <trkpt lat="40.40662" lon="-1.07404">
        <ele>960.513</ele>
        <time>2013-05-10T16:25:00Z</time>
      </trkpt>
      <trkpt lat="40.40647" lon="-1.0737">
        <ele>960.543</ele>
        <time>2013-05-10T16:24:51Z</time>
      </trkpt>
      <trkpt lat="40.40645" lon="-1.07367">
        <ele>960.507</ele>
        <time>2013-05-10T16:24:50Z</time>
      </trkpt>
      <trkpt lat="40.40643" lon="-1.07366">
        <ele>959.108</ele>
        <time>2013-05-10T16:24:49Z</time>
      </trkpt>
      <trkpt lat="40.40641" lon="-1.07365">
        <ele>959.192</ele>
        <time>2013-05-10T16:24:48Z</time>
      </trkpt>
      <trkpt lat="40.40639" lon="-1.07363">
        <ele>959.113</ele>
        <time>2013-05-10T16:24:47Z</time>
      </trkpt>
      <trkpt lat="40.40638" lon="-1.07361">
        <ele>959.125</ele>
        <time>2013-05-10T16:24:46Z</time>
      </trkpt>
      <trkpt lat="40.40638" lon="-1.07359">
        <ele>959.13</ele>
        <time>2013-05-10T16:24:45Z</time>
      </trkpt>
      <trkpt lat="40.40639" lon="-1.07356">
        <ele>959.187</ele>
        <time>2013-05-10T16:24:44Z</time>
      </trkpt>
      <trkpt lat="40.40641" lon="-1.07354">
        <ele>959.194</ele>
        <time>2013-05-10T16:24:43Z</time>
      </trkpt>
      <trkpt lat="40.40645" lon="-1.07352">
        <ele>959.182</ele>
        <time>2013-05-10T16:24:42Z</time>
      </trkpt>
      <trkpt lat="40.40649" lon="-1.07351">
        <ele>959.125</ele>
        <time>2013-05-10T16:24:41Z</time>
      </trkpt>
      <trkpt lat="40.4066" lon="-1.07353">
        <ele>959.593</ele>
        <time>2013-05-10T16:24:39Z</time>
      </trkpt>
      <trkpt lat="40.40708" lon="-1.07346">
        <ele>961.065</ele>
        <time>2013-05-10T16:24:30Z</time>
      </trkpt>
      <trkpt lat="40.40751" lon="-1.07337">
        <ele>961.921</ele>
        <time>2013-05-10T16:24:20Z</time>
      </trkpt>
      <trkpt lat="40.40755" lon="-1.07337">
        <ele>961.908</ele>
        <time>2013-05-10T16:24:19Z</time>
      </trkpt>
      <trkpt lat="40.40777" lon="-1.07346">
        <ele>961.96</ele>
        <time>2013-05-10T16:24:13Z</time>
      </trkpt>
      <trkpt lat="40.408" lon="-1.07378">
        <ele>961.951</ele>
        <time>2013-05-10T16:24:04Z</time>
      </trkpt>
      <trkpt lat="40.40826" lon="-1.07403">
        <ele>961.923</ele>
        <time>2013-05-10T16:23:54Z</time>
      </trkpt>
      <trkpt lat="40.4083" lon="-1.07405">
        <ele>961.918</ele>
        <time>2013-05-10T16:23:53Z</time>
      </trkpt>
      <trkpt lat="40.40834" lon="-1.07406">
        <ele>961.995</ele>
        <time>2013-05-10T16:23:52Z</time>
      </trkpt>
      <trkpt lat="40.40843" lon="-1.07407">
        <ele>961.972</ele>
        <time>2013-05-10T16:23:50Z</time>
      </trkpt>
      <trkpt lat="40.40889" lon="-1.07408">
        <ele>963.94</ele>
        <time>2013-05-10T16:23:40Z</time>
      </trkpt>
      <trkpt lat="40.40893" lon="-1.07408">
        <ele>963.473</ele>
        <time>2013-05-10T16:23:39Z</time>
      </trkpt>
      <trkpt lat="40.40897" lon="-1.07408">
        <ele>963.421</ele>
        <time>2013-05-10T16:23:38Z</time>
      </trkpt>
      <trkpt lat="40.40911" lon="-1.07406">
        <ele>961.541</ele>
        <time>2013-05-10T16:23:35Z</time>
      </trkpt>
      <trkpt lat="40.40955" lon="-1.0741">
        <ele>961.505</ele>
        <time>2013-05-10T16:23:26Z</time>
      </trkpt>
      <trkpt lat="40.40984" lon="-1.07426">
        <ele>961.508</ele>
        <time>2013-05-10T16:23:20Z</time>
      </trkpt>
      <trkpt lat="40.41044" lon="-1.07444">
        <ele>963.483</ele>
        <time>2013-05-10T16:23:11Z</time>
      </trkpt>
      <trkpt lat="40.41103" lon="-1.07454">
        <ele>965.864</ele>
        <time>2013-05-10T16:23:02Z</time>
      </trkpt>
      <trkpt lat="40.41122" lon="-1.07461">
        <ele>965.886</ele>
        <time>2013-05-10T16:22:58Z</time>
      </trkpt>
      <trkpt lat="40.41171" lon="-1.07459">
        <ele>965.841</ele>
        <time>2013-05-10T16:22:48Z</time>
      </trkpt>
      <trkpt lat="40.41182" lon="-1.07458">
        <ele>965.898</ele>
        <time>2013-05-10T16:22:46Z</time>
      </trkpt>
      <trkpt lat="40.41237" lon="-1.07442">
        <ele>965.865</ele>
        <time>2013-05-10T16:22:36Z</time>
      </trkpt>
      <trkpt lat="40.41254" lon="-1.07424">
        <ele>966.313</ele>
        <time>2013-05-10T16:22:32Z</time>
      </trkpt>
      <trkpt lat="40.41287" lon="-1.07403">
        <ele>966.786</ele>
        <time>2013-05-10T16:22:26Z</time>
      </trkpt>
      <trkpt lat="40.41358" lon="-1.07367">
        <ele>966.744</ele>
        <time>2013-05-10T16:22:13Z</time>
      </trkpt>
      <trkpt lat="40.4139" lon="-1.0736">
        <ele>966.705</ele>
        <time>2013-05-10T16:22:07Z</time>
      </trkpt>
      <trkpt lat="40.41412" lon="-1.07359">
        <ele>966.715</ele>
        <time>2013-05-10T16:22:03Z</time>
      </trkpt>
      <trkpt lat="40.41423" lon="-1.0736">
        <ele>966.708</ele>
        <time>2013-05-10T16:22:01Z</time>
      </trkpt>
      <trkpt lat="40.41434" lon="-1.07361">
        <ele>966.755</ele>
        <time>2013-05-10T16:21:59Z</time>
      </trkpt>
      <trkpt lat="40.41482" lon="-1.07362">
        <ele>966.756</ele>
        <time>2013-05-10T16:21:50Z</time>
      </trkpt>
      <trkpt lat="40.41501" lon="-1.07368">
        <ele>966.718</ele>
        <time>2013-05-10T16:21:46Z</time>
      </trkpt>
      <trkpt lat="40.41524" lon="-1.07395">
        <ele>966.753</ele>
        <time>2013-05-10T16:21:40Z</time>
      </trkpt>
      <trkpt lat="40.41552" lon="-1.07418">
        <ele>966.79</ele>
        <time>2013-05-10T16:21:34Z</time>
      </trkpt>
      <trkpt lat="40.41562" lon="-1.07421">
        <ele>966.767</ele>
        <time>2013-05-10T16:21:32Z</time>
      </trkpt>
      <trkpt lat="40.41585" lon="-1.07424">
        <ele>967.275</ele>
        <time>2013-05-10T16:21:28Z</time>
      </trkpt>
      <trkpt lat="40.41611" lon="-1.07433">
        <ele>967.228</ele>
        <time>2013-05-10T16:21:23Z</time>
      </trkpt>
      <trkpt lat="40.41627" lon="-1.07435">
        <ele>967.735</ele>
        <time>2013-05-10T16:21:20Z</time>
      </trkpt>
      <trkpt lat="40.41638" lon="-1.07437">
        <ele>967.786</ele>
        <time>2013-05-10T16:21:18Z</time>
      </trkpt>
      <trkpt lat="40.41648" lon="-1.0744">
        <ele>967.714</ele>
        <time>2013-05-10T16:21:16Z</time>
      </trkpt>
      <trkpt lat="40.41692" lon="-1.07456">
        <ele>967.708</ele>
        <time>2013-05-10T16:21:08Z</time>
      </trkpt>
      <trkpt lat="40.41721" lon="-1.07473">
        <ele>967.734</ele>
        <time>2013-05-10T16:21:00Z</time>
      </trkpt>
      <trkpt lat="40.41726" lon="-1.07482">
        <ele>967.795</ele>
        <time>2013-05-10T16:20:57Z</time>
      </trkpt>
      <trkpt lat="40.41742" lon="-1.07507">
        <ele>968.277</ele>
        <time>2013-05-10T16:20:50Z</time>
      </trkpt>
      <trkpt lat="40.41802" lon="-1.07519">
        <ele>970.142</ele>
        <time>2013-05-10T16:20:40Z</time>
      </trkpt>
      <trkpt lat="40.41814" lon="-1.07518">
        <ele>970.149</ele>
        <time>2013-05-10T16:20:38Z</time>
      </trkpt>
      <trkpt lat="40.41866" lon="-1.07521">
        <ele>971.176</ele>
        <time>2013-05-10T16:20:28Z</time>
      </trkpt>
      <trkpt lat="40.41928" lon="-1.07522">
        <ele>971.114</ele>
        <time>2013-05-10T16:20:15Z</time>
      </trkpt>
      <trkpt lat="40.41983" lon="-1.07521">
        <ele>971.167</ele>
        <time>2013-05-10T16:20:03Z</time>
      </trkpt>
      <trkpt lat="40.42021" lon="-1.07525">
        <ele>971.169</ele>
        <time>2013-05-10T16:19:53Z</time>
      </trkpt>
      <trkpt lat="40.4203" lon="-1.07528">
        <ele>971.104</ele>
        <time>2013-05-10T16:19:51Z</time>
      </trkpt>
      <trkpt lat="40.42072" lon="-1.07531">
        <ele>971.124</ele>
        <time>2013-05-10T16:19:42Z</time>
      </trkpt>
      <trkpt lat="40.42087" lon="-1.07527">
        <ele>971.108</ele>
        <time>2013-05-10T16:19:38Z</time>
      </trkpt>
      <trkpt lat="40.42126" lon="-1.0751">
        <ele>970.187</ele>
        <time>2013-05-10T16:19:27Z</time>
      </trkpt>
      <trkpt lat="40.4216" lon="-1.07506">
        <ele>968.798</ele>
        <time>2013-05-10T16:19:18Z</time>
      </trkpt>
      <trkpt lat="40.42175" lon="-1.07511">
        <ele>968.72</ele>
        <time>2013-05-10T16:19:14Z</time>
      </trkpt>
      <trkpt lat="40.42225" lon="-1.0751">
        <ele>969.265</ele>
        <time>2013-05-10T16:19:02Z</time>
      </trkpt>
      <trkpt lat="40.42274" lon="-1.07508">
        <ele>969.292</ele>
        <time>2013-05-10T16:18:49Z</time>
      </trkpt>
      <trkpt lat="40.423" lon="-1.0751">
        <ele>969.629</ele>
        <time>2013-05-10T16:18:41Z</time>
      </trkpt>
      <trkpt lat="40.42324" lon="-1.07521">
        <ele>969.647</ele>
        <time>2013-05-10T16:18:33Z</time>
      </trkpt>
      <trkpt lat="40.42333" lon="-1.07522">
        <ele>969.68</ele>
        <time>2013-05-10T16:18:23Z</time>
      </trkpt>
      <trkpt lat="40.42335" lon="-1.07515">
        <ele>969.618</ele>
        <time>2013-05-10T16:17:46Z</time>
      </trkpt>
      <trkpt lat="40.42331" lon="-1.07516">
        <ele>969.698</ele>
        <time>2013-05-10T16:17:28Z</time>
      </trkpt>
      <trkpt lat="40.42335" lon="-1.07517">
        <ele>969.617</ele>
        <time>2013-05-10T16:17:13Z</time>
      </trkpt>
      <trkpt lat="40.42364" lon="-1.07515">
        <ele>970.108</ele>
        <time>2013-05-10T16:17:03Z</time>
      </trkpt>
      <trkpt lat="40.42388" lon="-1.07519">
        <ele>970.692</ele>
        <time>2013-05-10T16:16:55Z</time>
      </trkpt>
      <trkpt lat="40.4241" lon="-1.07534">
        <ele>970.653</ele>
        <time>2013-05-10T16:16:44Z</time>
      </trkpt>
      <trkpt lat="40.42416" lon="-1.0754">
        <ele>970.655</ele>
        <time>2013-05-10T16:16:35Z</time>
      </trkpt>
      <trkpt lat="40.4242" lon="-1.07546">
        <ele>970.67</ele>
        <time>2013-05-10T16:16:32Z</time>
      </trkpt>
      <trkpt lat="40.42422" lon="-1.0757">
        <ele>971.657</ele>
        <time>2013-05-10T16:16:21Z</time>
      </trkpt>
      <trkpt lat="40.42421" lon="-1.07572">
        <ele>971.694</ele>
        <time>2013-05-10T16:16:20Z</time>
      </trkpt>
      <trkpt lat="40.42421" lon="-1.07574">
        <ele>971.632</ele>
        <time>2013-05-10T16:16:19Z</time>
      </trkpt>
      <trkpt lat="40.42421" lon="-1.07576">
        <ele>971.685</ele>
        <time>2013-05-10T16:16:18Z</time>
      </trkpt>
      <trkpt lat="40.4242" lon="-1.07578">
        <ele>971.697</ele>
        <time>2013-05-10T16:16:17Z</time>
      </trkpt>
      <trkpt lat="40.4242" lon="-1.0758">
        <ele>971.623</ele>
        <time>2013-05-10T16:16:16Z</time>
      </trkpt>
      <trkpt lat="40.4242" lon="-1.07583">
        <ele>971.625</ele>
        <time>2013-05-10T16:16:15Z</time>
      </trkpt>
      <trkpt lat="40.42445" lon="-1.07601">
        <ele>971.608</ele>
        <time>2013-05-10T16:16:07Z</time>
      </trkpt>
      <trkpt lat="40.42453" lon="-1.07606">
        <ele>972.01</ele>
        <time>2013-05-10T16:16:05Z</time>
      </trkpt>
      <trkpt lat="40.42492" lon="-1.07617">
        <ele>972.051</ele>
        <time>2013-05-10T16:15:58Z</time>
      </trkpt>
      <trkpt lat="40.42606" lon="-1.07651">
        <ele>974.433</ele>
        <time>2013-05-10T16:15:44Z</time>
      </trkpt>
      <trkpt lat="40.42671" lon="-1.07656">
        <ele>977.368</ele>
        <time>2013-05-10T16:15:36Z</time>
      </trkpt>
      <trkpt lat="40.42745" lon="-1.07617">
        <ele>980.225</ele>
        <time>2013-05-10T16:15:25Z</time>
      </trkpt>
      <trkpt lat="40.42812" lon="-1.0758">
        <ele>982.632</ele>
        <time>2013-05-10T16:15:15Z</time>
      </trkpt>
      <trkpt lat="40.42841" lon="-1.07572">
        <ele>984.11</ele>
        <time>2013-05-10T16:15:10Z</time>
      </trkpt>
      <trkpt lat="40.42903" lon="-1.07542">
        <ele>984.143</ele>
        <time>2013-05-10T16:14:58Z</time>
      </trkpt>
      <trkpt lat="40.42949" lon="-1.07483">
        <ele>984.172</ele>
        <time>2013-05-10T16:14:45Z</time>
      </trkpt>
      <trkpt lat="40.42997" lon="-1.07396">
        <ele>982.613</ele>
        <time>2013-05-10T16:14:29Z</time>
      </trkpt>
      <trkpt lat="40.43052" lon="-1.07324">
        <ele>981.614</ele>
        <time>2013-05-10T16:14:15Z</time>
      </trkpt>
      <trkpt lat="40.43135" lon="-1.07243">
        <ele>980.708</ele>
        <time>2013-05-10T16:13:56Z</time>
      </trkpt>
      <trkpt lat="40.43212" lon="-1.07167">
        <ele>980.758</ele>
        <time>2013-05-10T16:13:38Z</time>
      </trkpt>
      <trkpt lat="40.43282" lon="-1.071">
        <ele>980.779</ele>
        <time>2013-05-10T16:13:21Z</time>
      </trkpt>
      <trkpt lat="40.43332" lon="-1.07051">
        <ele>980.761</ele>
        <time>2013-05-10T16:13:07Z</time>
      </trkpt>
      <trkpt lat="40.43377" lon="-1.07008">
        <ele>980.756</ele>
        <time>2013-05-10T16:12:53Z</time>
      </trkpt>
      <trkpt lat="40.43439" lon="-1.06948">
        <ele>981.623</ele>
        <time>2013-05-10T16:12:38Z</time>
      </trkpt>
      <trkpt lat="40.43506" lon="-1.06883">
        <ele>982.17</ele>
        <time>2013-05-10T16:12:23Z</time>
      </trkpt>
      <trkpt lat="40.43572" lon="-1.06821">
        <ele>982.638</ele>
        <time>2013-05-10T16:12:10Z</time>
      </trkpt>
      <trkpt lat="40.43684" lon="-1.06721">
        <ele>982.691</ele>
        <time>2013-05-10T16:11:52Z</time>
      </trkpt>
      <trkpt lat="40.43799" lon="-1.0662">
        <ele>982.661</ele>
        <time>2013-05-10T16:11:35Z</time>
      </trkpt>
      <trkpt lat="40.43916" lon="-1.06518">
        <ele>983.621</ele>
        <time>2013-05-10T16:11:20Z</time>
      </trkpt>
      <trkpt lat="40.44057" lon="-1.06396">
        <ele>986.913</ele>
        <time>2013-05-10T16:11:03Z</time>
      </trkpt>
      <trkpt lat="40.44137" lon="-1.06326">
        <ele>990.308</ele>
        <time>2013-05-10T16:10:53Z</time>
      </trkpt>
      <trkpt lat="40.44206" lon="-1.06265">
        <ele>993.787</ele>
        <time>2013-05-10T16:10:43Z</time>
      </trkpt>
      <trkpt lat="40.44247" lon="-1.0623">
        <ele>994.698</ele>
        <time>2013-05-10T16:10:36Z</time>
      </trkpt>
      <trkpt lat="40.44324" lon="-1.06161">
        <ele>994.67</ele>
        <time>2013-05-10T16:10:21Z</time>
      </trkpt>
      <trkpt lat="40.44405" lon="-1.06091">
        <ele>993.295</ele>
        <time>2013-05-10T16:10:04Z</time>
      </trkpt>
      <trkpt lat="40.44458" lon="-1.06045">
        <ele>992.212</ele>
        <time>2013-05-10T16:09:54Z</time>
      </trkpt>
      <trkpt lat="40.44542" lon="-1.05971">
        <ele>992.269</ele>
        <time>2013-05-10T16:09:40Z</time>
      </trkpt>
      <trkpt lat="40.44626" lon="-1.05898">
        <ele>993.297</ele>
        <time>2013-05-10T16:09:27Z</time>
      </trkpt>
      <trkpt lat="40.44724" lon="-1.05813">
        <ele>995.19</ele>
        <time>2013-05-10T16:09:11Z</time>
      </trkpt>
      <trkpt lat="40.44831" lon="-1.05739">
        <ele>996.149</ele>
        <time>2013-05-10T16:08:54Z</time>
      </trkpt>
      <trkpt lat="40.44933" lon="-1.05696">
        <ele>997.002</ele>
        <time>2013-05-10T16:08:39Z</time>
      </trkpt>
      <trkpt lat="40.45033" lon="-1.05683">
        <ele>998.522</ele>
        <time>2013-05-10T16:08:24Z</time>
      </trkpt>
      <trkpt lat="40.45122" lon="-1.05688">
        <ele>999.008</ele>
        <time>2013-05-10T16:08:09Z</time>
      </trkpt>
      <trkpt lat="40.4519" lon="-1.0571">
        <ele>999.015</ele>
        <time>2013-05-10T16:07:56Z</time>
      </trkpt>
      <trkpt lat="40.45227" lon="-1.05728">
        <ele>999.426</ele>
        <time>2013-05-10T16:07:46Z</time>
      </trkpt>
      <trkpt lat="40.45259" lon="-1.05747">
        <ele>999.448</ele>
        <time>2013-05-10T16:07:32Z</time>
      </trkpt>
      <trkpt lat="40.45264" lon="-1.05749">
        <ele>999.483</ele>
        <time>2013-05-10T16:07:14Z</time>
      </trkpt>
      <trkpt lat="40.45263" lon="-1.05748">
        <ele>999.94</ele>
        <time>2013-05-10T16:06:23Z</time>
      </trkpt>
      <trkpt lat="40.45273" lon="-1.05751">
        <ele>999.947</ele>
        <time>2013-05-10T16:06:13Z</time>
      </trkpt>
      <trkpt lat="40.45304" lon="-1.05759">
        <ele>1000.465</ele>
        <time>2013-05-10T16:06:00Z</time>
      </trkpt>
      <trkpt lat="40.45347" lon="-1.05774">
        <ele>1000.998</ele>
        <time>2013-05-10T16:05:43Z</time>
      </trkpt>
      <trkpt lat="40.45377" lon="-1.05776">
        <ele>1000.953</ele>
        <time>2013-05-10T16:05:30Z</time>
      </trkpt>
      <trkpt lat="40.45394" lon="-1.05774">
        <ele>1000.904</ele>
        <time>2013-05-10T16:05:21Z</time>
      </trkpt>
      <trkpt lat="40.45396" lon="-1.05774">
        <ele>1000.914</ele>
        <time>2013-05-10T16:05:20Z</time>
      </trkpt>
      <trkpt lat="40.45397" lon="-1.05776">
        <ele>1000.908</ele>
        <time>2013-05-10T16:05:15Z</time>
      </trkpt>
      <trkpt lat="40.45416" lon="-1.05773">
        <ele>1001.456</ele>
        <time>2013-05-10T16:05:08Z</time>
      </trkpt>
      <trkpt lat="40.45421" lon="-1.05772">
        <ele>1001.447</ele>
        <time>2013-05-10T16:05:07Z</time>
      </trkpt>
      <trkpt lat="40.4549" lon="-1.05743">
        <ele>1001.889</ele>
        <time>2013-05-10T16:04:55Z</time>
      </trkpt>
      <trkpt lat="40.45543" lon="-1.05692">
        <ele>1002.394</ele>
        <time>2013-05-10T16:04:45Z</time>
      </trkpt>
      <trkpt lat="40.45596" lon="-1.05597">
        <ele>1003.361</ele>
        <time>2013-05-10T16:04:32Z</time>
      </trkpt>
      <trkpt lat="40.45625" lon="-1.0553">
        <ele>1004.788</ele>
        <time>2013-05-10T16:04:21Z</time>
      </trkpt>
      <trkpt lat="40.45633" lon="-1.05514">
        <ele>1005.246</ele>
        <time>2013-05-10T16:04:08Z</time>
      </trkpt>
      <trkpt lat="40.45637" lon="-1.05504">
        <ele>1005.749</ele>
        <time>2013-05-10T16:04:02Z</time>
      </trkpt>
      <trkpt lat="40.45669" lon="-1.05425">
        <ele>1009.086</ele>
        <time>2013-05-10T16:03:53Z</time>
      </trkpt>
      <trkpt lat="40.45705" lon="-1.05338">
        <ele>1011.96</ele>
        <time>2013-05-10T16:03:42Z</time>
      </trkpt>
      <trkpt lat="40.45738" lon="-1.05266">
        <ele>1013.426</ele>
        <time>2013-05-10T16:03:29Z</time>
      </trkpt>
      <trkpt lat="40.45764" lon="-1.05224">
        <ele>1014.308</ele>
        <time>2013-05-10T16:03:19Z</time>
      </trkpt>
      <trkpt lat="40.4582" lon="-1.05153">
        <ele>1015.329</ele>
        <time>2013-05-10T16:03:03Z</time>
      </trkpt>
      <trkpt lat="40.4587" lon="-1.05106">
        <ele>1015.36</ele>
        <time>2013-05-10T16:02:51Z</time>
      </trkpt>
      <trkpt lat="40.4594" lon="-1.05053">
        <ele>1014.362</ele>
        <time>2013-05-10T16:02:33Z</time>
      </trkpt>
      <trkpt lat="40.45999" lon="-1.05011">
        <ele>1012.997</ele>
        <time>2013-05-10T16:02:17Z</time>
      </trkpt>
      <trkpt lat="40.46056" lon="-1.0497">
        <ele>1010.514</ele>
        <time>2013-05-10T16:02:00Z</time>
      </trkpt>
      <trkpt lat="40.46129" lon="-1.04921">
        <ele>1009.041</ele>
        <time>2013-05-10T16:01:41Z</time>
      </trkpt>
      <trkpt lat="40.46202" lon="-1.0487">
        <ele>1007.689</ele>
        <time>2013-05-10T16:01:23Z</time>
      </trkpt>
      <trkpt lat="40.46246" lon="-1.04836">
        <ele>1007.612</ele>
        <time>2013-05-10T16:01:10Z</time>
      </trkpt>
      <trkpt lat="40.46276" lon="-1.04809">
        <ele>1007.168</ele>
        <time>2013-05-10T16:00:57Z</time>
      </trkpt>
      <trkpt lat="40.46278" lon="-1.04807">
        <ele>1007.142</ele>
        <time>2013-05-10T16:00:56Z</time>
      </trkpt>
      <trkpt lat="40.46279" lon="-1.04804">
        <ele>1007.126</ele>
        <time>2013-05-10T16:00:55Z</time>
      </trkpt>
      <trkpt lat="40.4628" lon="-1.04802">
        <ele>1007.108</ele>
        <time>2013-05-10T16:00:54Z</time>
      </trkpt>
      <trkpt lat="40.46281" lon="-1.04798">
        <ele>1007.137</ele>
        <time>2013-05-10T16:00:53Z</time>
      </trkpt>
      <trkpt lat="40.46281" lon="-1.04795">
        <ele>1007.168</ele>
        <time>2013-05-10T16:00:52Z</time>
      </trkpt>
      <trkpt lat="40.46283" lon="-1.04784">
        <ele>1006.62</ele>
        <time>2013-05-10T16:00:47Z</time>
      </trkpt>
      <trkpt lat="40.463" lon="-1.0476">
        <ele>1005.235</ele>
        <time>2013-05-10T16:00:34Z</time>
      </trkpt>
      <trkpt lat="40.46318" lon="-1.0474">
        <ele>1004.752</ele>
        <time>2013-05-10T16:00:21Z</time>
      </trkpt>
      <trkpt lat="40.46323" lon="-1.04731">
        <ele>1003.879</ele>
        <time>2013-05-10T16:00:15Z</time>
      </trkpt>
      <trkpt lat="40.46319" lon="-1.04717">
        <ele>1002.387</ele>
        <time>2013-05-10T16:00:07Z</time>
      </trkpt>
      <trkpt lat="40.46316" lon="-1.04714">
        <ele>1002.38</ele>
        <time>2013-05-10T16:00:05Z</time>
      </trkpt>
      <trkpt lat="40.46303" lon="-1.04693">
        <ele>1000.927</ele>
        <time>2013-05-10T15:59:52Z</time>
      </trkpt>
      <trkpt lat="40.4629" lon="-1.04673">
        <ele>999.068</ele>
        <time>2013-05-10T15:59:39Z</time>
      </trkpt>
      <trkpt lat="40.46276" lon="-1.04653">
        <ele>997.014</ele>
        <time>2013-05-10T15:59:27Z</time>
      </trkpt>
      <trkpt lat="40.46268" lon="-1.04633">
        <ele>996.108</ele>
        <time>2013-05-10T15:59:16Z</time>
      </trkpt>
      <trkpt lat="40.46268" lon="-1.04631">
        <ele>996.143</ele>
        <time>2013-05-10T15:59:15Z</time>
      </trkpt>
      <trkpt lat="40.46271" lon="-1.04615">
        <ele>996.184</ele>
        <time>2013-05-10T15:59:06Z</time>
      </trkpt>
      <trkpt lat="40.46276" lon="-1.04594">
        <ele>996.516</ele>
        <time>2013-05-10T15:58:57Z</time>
      </trkpt>
      <trkpt lat="40.46294" lon="-1.04535">
        <ele>997.061</ele>
        <time>2013-05-10T15:58:47Z</time>
      </trkpt>
      <trkpt lat="40.46323" lon="-1.04498">
        <ele>997.038</ele>
        <time>2013-05-10T15:58:40Z</time>
      </trkpt>
      <trkpt lat="40.4634" lon="-1.0449">
        <ele>998.035</ele>
        <time>2013-05-10T15:58:37Z</time>
      </trkpt>
      <trkpt lat="40.4636" lon="-1.04483">
        <ele>999.053</ele>
        <time>2013-05-10T15:58:34Z</time>
      </trkpt>
      <trkpt lat="40.46372" lon="-1.04477">
        <ele>1000.476</ele>
        <time>2013-05-10T15:58:32Z</time>
      </trkpt>
      <trkpt lat="40.46395" lon="-1.04467">
        <ele>1000.479</ele>
        <time>2013-05-10T15:58:27Z</time>
      </trkpt>
      <trkpt lat="40.46399" lon="-1.04465">
        <ele>1000.405</ele>
        <time>2013-05-10T15:58:26Z</time>
      </trkpt>
      <trkpt lat="40.46407" lon="-1.04419">
        <ele>999.925</ele>
        <time>2013-05-10T15:58:17Z</time>
      </trkpt>
      <trkpt lat="40.46407" lon="-1.04397">
        <ele>999.908</ele>
        <time>2013-05-10T15:58:13Z</time>
      </trkpt>
      <trkpt lat="40.46406" lon="-1.04386">
        <ele>999.468</ele>
        <time>2013-05-10T15:58:11Z</time>
      </trkpt>
      <trkpt lat="40.46404" lon="-1.04381">
        <ele>999.449</ele>
        <time>2013-05-10T15:58:10Z</time>
      </trkpt>
      <trkpt lat="40.46378" lon="-1.04331">
        <ele>998.041</ele>
        <time>2013-05-10T15:57:58Z</time>
      </trkpt>
      <trkpt lat="40.46363" lon="-1.04309">
        <ele>998.066</ele>
        <time>2013-05-10T15:57:53Z</time>
      </trkpt>
      <trkpt lat="40.4634" lon="-1.04297">
        <ele>998.573</ele>
        <time>2013-05-10T15:57:48Z</time>
      </trkpt>
      <trkpt lat="40.46317" lon="-1.04254">
        <ele>999.08</ele>
        <time>2013-05-10T15:57:40Z</time>
      </trkpt>
      <trkpt lat="40.46315" lon="-1.04242">
        <ele>999.068</ele>
        <time>2013-05-10T15:57:38Z</time>
      </trkpt>
      <trkpt lat="40.46318" lon="-1.04216">
        <ele>999.041</ele>
        <time>2013-05-10T15:57:34Z</time>
      </trkpt>
      <trkpt lat="40.46333" lon="-1.04148">
        <ele>999.419</ele>
        <time>2013-05-10T15:57:23Z</time>
      </trkpt>
      <trkpt lat="40.46337" lon="-1.04136">
        <ele>999.909</ele>
        <time>2013-05-10T15:57:21Z</time>
      </trkpt>
      <trkpt lat="40.46349" lon="-1.04087">
        <ele>999.919</ele>
        <time>2013-05-10T15:57:13Z</time>
      </trkpt>
      <trkpt lat="40.46348" lon="-1.0408">
        <ele>999.908</ele>
        <time>2013-05-10T15:57:12Z</time>
      </trkpt>
      <trkpt lat="40.46342" lon="-1.04018">
        <ele>1000.492</ele>
        <time>2013-05-10T15:57:02Z</time>
      </trkpt>
      <trkpt lat="40.46353" lon="-1.03973">
        <ele>1000.413</ele>
        <time>2013-05-10T15:56:54Z</time>
      </trkpt>
      <trkpt lat="40.46362" lon="-1.03957">
        <ele>1001.465</ele>
        <time>2013-05-10T15:56:51Z</time>
      </trkpt>
      <trkpt lat="40.46389" lon="-1.03921">
        <ele>1001.45</ele>
        <time>2013-05-10T15:56:43Z</time>
      </trkpt>
      <trkpt lat="40.46401" lon="-1.03906">
        <ele>1001.427</ele>
        <time>2013-05-10T15:56:39Z</time>
      </trkpt>
      <trkpt lat="40.46417" lon="-1.03892">
        <ele>1001.424</ele>
        <time>2013-05-10T15:56:35Z</time>
      </trkpt>
      <trkpt lat="40.46461" lon="-1.03856">
        <ele>1001.452</ele>
        <time>2013-05-10T15:56:25Z</time>
      </trkpt>
      <trkpt lat="40.46475" lon="-1.03852">
        <ele>1001.475</ele>
        <time>2013-05-10T15:56:22Z</time>
      </trkpt>
      <trkpt lat="40.46507" lon="-1.03846">
        <ele>1001.461</ele>
        <time>2013-05-10T15:56:15Z</time>
      </trkpt>
      <trkpt lat="40.46553" lon="-1.0382">
        <ele>1001.421</ele>
        <time>2013-05-10T15:56:04Z</time>
      </trkpt>
      <trkpt lat="40.46587" lon="-1.03822">
        <ele>1001.413</ele>
        <time>2013-05-10T15:55:54Z</time>
      </trkpt>
      <trkpt lat="40.46597" lon="-1.03826">
        <ele>1001.408</ele>
        <time>2013-05-10T15:55:50Z</time>
      </trkpt>
      <trkpt lat="40.46641" lon="-1.03833">
        <ele>1002.347</ele>
        <time>2013-05-10T15:55:38Z</time>
      </trkpt>
      <trkpt lat="40.46665" lon="-1.03835">
        <ele>1002.378</ele>
        <time>2013-05-10T15:55:32Z</time>
      </trkpt>
      <trkpt lat="40.46673" lon="-1.03835">
        <ele>1002.38</ele>
        <time>2013-05-10T15:55:30Z</time>
      </trkpt>
      <trkpt lat="40.46714" lon="-1.03844">
        <ele>1002.355</ele>
        <time>2013-05-10T15:55:20Z</time>
      </trkpt>
      <trkpt lat="40.46736" lon="-1.03853">
        <ele>1003.372</ele>
        <time>2013-05-10T15:55:14Z</time>
      </trkpt>
      <trkpt lat="40.46748" lon="-1.03873">
        <ele>1004.249</ele>
        <time>2013-05-10T15:55:10Z</time>
      </trkpt>
      <trkpt lat="40.46756" lon="-1.0389">
        <ele>1004.757</ele>
        <time>2013-05-10T15:55:07Z</time>
      </trkpt>
      <trkpt lat="40.46789" lon="-1.03943">
        <ele>1008.17</ele>
        <time>2013-05-10T15:54:56Z</time>
      </trkpt>
      <trkpt lat="40.4679" lon="-1.03948">
        <ele>1008.119</ele>
        <time>2013-05-10T15:54:55Z</time>
      </trkpt>
      <trkpt lat="40.46803" lon="-1.03986">
        <ele>1010.009</ele>
        <time>2013-05-10T15:54:46Z</time>
      </trkpt>
      <trkpt lat="40.46806" lon="-1.03991">
        <ele>1010.019</ele>
        <time>2013-05-10T15:54:44Z</time>
      </trkpt>
      <trkpt lat="40.46807" lon="-1.03992">
        <ele>1010.008</ele>
        <time>2013-05-10T15:54:43Z</time>
      </trkpt>
      <trkpt lat="40.46809" lon="-1.03993">
        <ele>1010.032</ele>
        <time>2013-05-10T15:54:42Z</time>
      </trkpt>
      <trkpt lat="40.4681" lon="-1.03992">
        <ele>1010.023</ele>
        <time>2013-05-10T15:54:22Z</time>
      </trkpt>
      <trkpt lat="40.46815" lon="-1.03988">
        <ele>1010.525</ele>
        <time>2013-05-10T15:54:14Z</time>
      </trkpt>
      <trkpt lat="40.46855" lon="-1.03962">
        <ele>1011.49</ele>
        <time>2013-05-10T15:54:02Z</time>
      </trkpt>
      <trkpt lat="40.46859" lon="-1.0396">
        <ele>1011.987</ele>
        <time>2013-05-10T15:54:01Z</time>
      </trkpt>
      <trkpt lat="40.46929" lon="-1.03916">
        <ele>1012.924</ele>
        <time>2013-05-10T15:53:47Z</time>
      </trkpt>
      <trkpt lat="40.46995" lon="-1.03873">
        <ele>1012.982</ele>
        <time>2013-05-10T15:53:34Z</time>
      </trkpt>
      <trkpt lat="40.47095" lon="-1.03806">
        <ele>1012.925</ele>
        <time>2013-05-10T15:53:17Z</time>
      </trkpt>
      <trkpt lat="40.47221" lon="-1.03723">
        <ele>1013.432</ele>
        <time>2013-05-10T15:52:57Z</time>
      </trkpt>
      <trkpt lat="40.47364" lon="-1.03627">
        <ele>1013.492</ele>
        <time>2013-05-10T15:52:35Z</time>
      </trkpt>
      <trkpt lat="40.47458" lon="-1.03586">
        <ele>1013.411</ele>
        <time>2013-05-10T15:52:21Z</time>
      </trkpt>
      <trkpt lat="40.47464" lon="-1.03584">
        <ele>1013.408</ele>
        <time>2013-05-10T15:52:20Z</time>
      </trkpt>
      <trkpt lat="40.4752" lon="-1.03589">
        <ele>1013.974</ele>
        <time>2013-05-10T15:52:12Z</time>
      </trkpt>
      <trkpt lat="40.47594" lon="-1.03624">
        <ele>1014.875</ele>
        <time>2013-05-10T15:52:01Z</time>
      </trkpt>
      <trkpt lat="40.47662" lon="-1.03694">
        <ele>1016.327</ele>
        <time>2013-05-10T15:51:49Z</time>
      </trkpt>
      <trkpt lat="40.47731" lon="-1.03772">
        <ele>1018.242</ele>
        <time>2013-05-10T15:51:35Z</time>
      </trkpt>
      <trkpt lat="40.47783" lon="-1.0383">
        <ele>1018.779</ele>
        <time>2013-05-10T15:51:23Z</time>
      </trkpt>
      <trkpt lat="40.47842" lon="-1.03893">
        <ele>1020.696</ele>
        <time>2013-05-10T15:51:09Z</time>
      </trkpt>
      <trkpt lat="40.47914" lon="-1.03939">
        <ele>1020.654</ele>
        <time>2013-05-10T15:50:54Z</time>
      </trkpt>
      <trkpt lat="40.47967" lon="-1.03952">
        <ele>1020.687</ele>
        <time>2013-05-10T15:50:42Z</time>
      </trkpt>
      <trkpt lat="40.4801" lon="-1.03952">
        <ele>1020.661</ele>
        <time>2013-05-10T15:50:29Z</time>
      </trkpt>
      <trkpt lat="40.48012" lon="-1.03952">
        <ele>1020.621</ele>
        <time>2013-05-10T15:50:28Z</time>
      </trkpt>
      <trkpt lat="40.48015" lon="-1.03952">
        <ele>1020.613</ele>
        <time>2013-05-10T15:50:27Z</time>
      </trkpt>
      <trkpt lat="40.48017" lon="-1.03951">
        <ele>1020.608</ele>
        <time>2013-05-10T15:50:26Z</time>
      </trkpt>
      <trkpt lat="40.48019" lon="-1.0395">
        <ele>1020.697</ele>
        <time>2013-05-10T15:50:25Z</time>
      </trkpt>
      <trkpt lat="40.48022" lon="-1.03948">
        <ele>1020.618</ele>
        <time>2013-05-10T15:50:24Z</time>
      </trkpt>
      <trkpt lat="40.48023" lon="-1.03946">
        <ele>1020.14</ele>
        <time>2013-05-10T15:50:23Z</time>
      </trkpt>
      <trkpt lat="40.48024" lon="-1.03942">
        <ele>1020.135</ele>
        <time>2013-05-10T15:50:22Z</time>
      </trkpt>
      <trkpt lat="40.48031" lon="-1.03932">
        <ele>1020.152</ele>
        <time>2013-05-10T15:50:14Z</time>
      </trkpt>
      <trkpt lat="40.48033" lon="-1.03931">
        <ele>1020.149</ele>
        <time>2013-05-10T15:50:12Z</time>
      </trkpt>
      <trkpt lat="40.48036" lon="-1.03921">
        <ele>1018.797</ele>
        <time>2013-05-10T15:50:00Z</time>
      </trkpt>
      <trkpt lat="40.48038" lon="-1.03917">
        <ele>1017.74</ele>
        <time>2013-05-10T15:49:50Z</time>
      </trkpt>
      <trkpt lat="40.48041" lon="-1.0391">
        <ele>1016.361</ele>
        <time>2013-05-10T15:49:37Z</time>
      </trkpt>
      <trkpt lat="40.48041" lon="-1.03907">
        <ele>1015.821</ele>
        <time>2013-05-10T15:49:29Z</time>
      </trkpt>
      <trkpt lat="40.4804" lon="-1.03901">
        <ele>1015.313</ele>
        <time>2013-05-10T15:49:19Z</time>
      </trkpt>
      <trkpt lat="40.48031" lon="-1.03897">
        <ele>1015.308</ele>
        <time>2013-05-10T15:49:09Z</time>
      </trkpt>
      <trkpt lat="40.48027" lon="-1.03896">
        <ele>1015.377</ele>
        <time>2013-05-10T15:48:59Z</time>
      </trkpt>
      <trkpt lat="40.48015" lon="-1.03891">
        <ele>1014.868</ele>
        <time>2013-05-10T15:48:44Z</time>
      </trkpt>
      <trkpt lat="40.48014" lon="-1.03889">
        <ele>1014.83</ele>
        <time>2013-05-10T15:48:41Z</time>
      </trkpt>
      <trkpt lat="40.48009" lon="-1.03885">
        <ele>1013.485</ele>
        <time>2013-05-10T15:48:30Z</time>
      </trkpt>
      <trkpt lat="40.48007" lon="-1.03876">
        <ele>1011.472</ele>
        <time>2013-05-10T15:48:17Z</time>
      </trkpt>
      <trkpt lat="40.48003" lon="-1.03863">
        <ele>1010.569</ele>
        <time>2013-05-10T15:48:06Z</time>
      </trkpt>
      <trkpt lat="40.47999" lon="-1.03848">
        <ele>1010.527</ele>
        <time>2013-05-10T15:47:55Z</time>
      </trkpt>
      <trkpt lat="40.47999" lon="-1.03835">
        <ele>1010.53</ele>
        <time>2013-05-10T15:47:45Z</time>
      </trkpt>
      <trkpt lat="40.48" lon="-1.03833">
        <ele>1010.526</ele>
        <time>2013-05-10T15:47:33Z</time>
      </trkpt>
      <trkpt lat="40.47999" lon="-1.03814">
        <ele>1010.547</ele>
        <time>2013-05-10T15:47:20Z</time>
      </trkpt>
      <trkpt lat="40.47994" lon="-1.03799">
        <ele>1010.511</ele>
        <time>2013-05-10T15:47:06Z</time>
      </trkpt>
      <trkpt lat="40.47991" lon="-1.03792">
        <ele>1010.508</ele>
        <time>2013-05-10T15:46:49Z</time>
      </trkpt>
      <trkpt lat="40.47989" lon="-1.03788">
        <ele>1010.583</ele>
        <time>2013-05-10T15:46:36Z</time>
      </trkpt>
      <trkpt lat="40.47988" lon="-1.03786">
        <ele>1010.594</ele>
        <time>2013-05-10T15:46:32Z</time>
      </trkpt>
      <trkpt lat="40.48001" lon="-1.03768">
        <ele>1009.556</ele>
        <time>2013-05-10T15:33:43Z</time>
      </trkpt>
      <trkpt lat="40.48018" lon="-1.03761">
        <ele>1010.081</ele>
        <time>2013-05-10T15:33:36Z</time>
      </trkpt>
      <trkpt lat="40.48042" lon="-1.03747">
        <ele>1010.018</ele>
        <time>2013-05-10T15:33:28Z</time>
      </trkpt>
      <trkpt lat="40.48075" lon="-1.03693">
        <ele>1010.065</ele>
        <time>2013-05-10T15:33:15Z</time>
      </trkpt>
      <trkpt lat="40.48093" lon="-1.03649">
        <ele>1010.023</ele>
        <time>2013-05-10T15:33:05Z</time>
      </trkpt>
      <trkpt lat="40.48114" lon="-1.03609">
        <ele>1010.056</ele>
        <time>2013-05-10T15:32:55Z</time>
      </trkpt>
      <trkpt lat="40.48138" lon="-1.03552">
        <ele>1010.032</ele>
        <time>2013-05-10T15:32:42Z</time>
      </trkpt>
      <trkpt lat="40.48143" lon="-1.03504">
        <ele>1010.092</ele>
        <time>2013-05-10T15:32:32Z</time>
      </trkpt>
      <trkpt lat="40.48154" lon="-1.03445">
        <ele>1010.511</ele>
        <time>2013-05-10T15:32:20Z</time>
      </trkpt>
      <trkpt lat="40.48158" lon="-1.0339">
        <ele>1010.508</ele>
        <time>2013-05-10T15:32:08Z</time>
      </trkpt>
      <trkpt lat="40.48149" lon="-1.03335">
        <ele>1011.424</ele>
        <time>2013-05-10T15:31:56Z</time>
      </trkpt>
      <trkpt lat="40.48138" lon="-1.03292">
        <ele>1011.485</ele>
        <time>2013-05-10T15:31:44Z</time>
      </trkpt>
      <trkpt lat="40.48137" lon="-1.03282">
        <ele>1011.457</ele>
        <time>2013-05-10T15:31:39Z</time>
      </trkpt>
      <trkpt lat="40.48155" lon="-1.03265">
        <ele>1011.082</ele>
        <time>2013-05-10T15:08:36Z</time>
      </trkpt>
      <trkpt lat="40.4816" lon="-1.03262">
        <ele>1010.599</ele>
        <time>2013-05-10T15:08:35Z</time>
      </trkpt>
      <trkpt lat="40.48165" lon="-1.0326">
        <ele>1010.566</ele>
        <time>2013-05-10T15:08:34Z</time>
      </trkpt>
      <trkpt lat="40.4817" lon="-1.03259">
        <ele>1010.594</ele>
        <time>2013-05-10T15:08:33Z</time>
      </trkpt>
      <trkpt lat="40.48175" lon="-1.03259">
        <ele>1010.567</ele>
        <time>2013-05-10T15:08:32Z</time>
      </trkpt>
      <trkpt lat="40.48242" lon="-1.03293">
        <ele>1013.411</ele>
        <time>2013-05-10T15:08:22Z</time>
      </trkpt>
      <trkpt lat="40.48249" lon="-1.03296">
        <ele>1013.421</ele>
        <time>2013-05-10T15:08:21Z</time>
      </trkpt>
      <trkpt lat="40.48269" lon="-1.03305">
        <ele>1016.703</ele>
        <time>2013-05-10T15:08:16Z</time>
      </trkpt>
      <trkpt lat="40.48281" lon="-1.03323">
        <ele>1019.608</ele>
        <time>2013-05-10T15:08:10Z</time>
      </trkpt>
      <trkpt lat="40.48282" lon="-1.03326">
        <ele>1019.692</ele>
        <time>2013-05-10T15:08:09Z</time>
      </trkpt>
      <trkpt lat="40.48283" lon="-1.03328">
        <ele>1019.623</ele>
        <time>2013-05-10T15:08:08Z</time>
      </trkpt>
      <trkpt lat="40.48285" lon="-1.0333">
        <ele>1020.145</ele>
        <time>2013-05-10T15:08:07Z</time>
      </trkpt>
      <trkpt lat="40.48286" lon="-1.03331">
        <ele>1020.16</ele>
        <time>2013-05-10T15:08:06Z</time>
      </trkpt>
      <trkpt lat="40.48296" lon="-1.03332">
        <ele>1021.147</ele>
        <time>2013-05-10T15:08:01Z</time>
      </trkpt>
      <trkpt lat="40.48299" lon="-1.03332">
        <ele>1022.094</ele>
        <time>2013-05-10T15:08:00Z</time>
      </trkpt>
      <trkpt lat="40.48302" lon="-1.03332">
        <ele>1022.022</ele>
        <time>2013-05-10T15:07:59Z</time>
      </trkpt>
      <trkpt lat="40.48304" lon="-1.03333">
        <ele>1022.565</ele>
        <time>2013-05-10T15:07:58Z</time>
      </trkpt>
      <trkpt lat="40.48314" lon="-1.03316">
        <ele>1023.996</ele>
        <time>2013-05-10T15:07:31Z</time>
      </trkpt>
      <trkpt lat="40.48315" lon="-1.03312">
        <ele>1023.931</ele>
        <time>2013-05-10T15:07:30Z</time>
      </trkpt>
      <trkpt lat="40.48316" lon="-1.03309">
        <ele>1023.924</ele>
        <time>2013-05-10T15:07:29Z</time>
      </trkpt>
      <trkpt lat="40.48317" lon="-1.03306">
        <ele>1023.908</ele>
        <time>2013-05-10T15:07:28Z</time>
      </trkpt>
      <trkpt lat="40.48319" lon="-1.03304">
        <ele>1023.95</ele>
        <time>2013-05-10T15:07:27Z</time>
      </trkpt>
      <trkpt lat="40.4832" lon="-1.03302">
        <ele>1023.981</ele>
        <time>2013-05-10T15:07:26Z</time>
      </trkpt>
      <trkpt lat="40.48321" lon="-1.033">
        <ele>1023.933</ele>
        <time>2013-05-10T15:07:25Z</time>
      </trkpt>
      <trkpt lat="40.48327" lon="-1.03292">
        <ele>1023.978</ele>
        <time>2013-05-10T15:05:23Z</time>
      </trkpt>
      <trkpt lat="40.48338" lon="-1.03278">
        <ele>1023.585</ele>
        <time>2013-05-10T15:05:14Z</time>
      </trkpt>
      <trkpt lat="40.48372" lon="-1.03264">
        <ele>1022.562</ele>
        <time>2013-05-10T15:05:00Z</time>
      </trkpt>
      <trkpt lat="40.48392" lon="-1.03252">
        <ele>1021.55</ele>
        <time>2013-05-10T15:04:49Z</time>
      </trkpt>
      <trkpt lat="40.48414" lon="-1.0324">
        <ele>1020.193</ele>
        <time>2013-05-10T15:04:36Z</time>
      </trkpt>
      <trkpt lat="40.48421" lon="-1.03236">
        <ele>1019.622</ele>
        <time>2013-05-10T15:04:30Z</time>
      </trkpt>
      <trkpt lat="40.48424" lon="-1.03234">
        <ele>1019.662</ele>
        <time>2013-05-10T15:04:10Z</time>
      </trkpt>
      <trkpt lat="40.48422" lon="-1.03237">
        <ele>1019.608</ele>
        <time>2013-05-10T15:03:52Z</time>
      </trkpt>
      <trkpt lat="40.4842" lon="-1.03237">
        <ele>1019.608</ele>
        <time>2013-05-10T15:03:37Z</time>
      </trkpt>
      <trkpt lat="40.48423" lon="-1.03233">
        <ele>1019.623</ele>
        <time>2013-05-10T15:03:27Z</time>
      </trkpt>
      <trkpt lat="40.48423" lon="-1.0323">
        <ele>1019.154</ele>
        <time>2013-05-10T15:03:25Z</time>
      </trkpt>
      <trkpt lat="40.4842" lon="-1.03216">
        <ele>1018.716</ele>
        <time>2013-05-10T15:03:17Z</time>
      </trkpt>
      <trkpt lat="40.48419" lon="-1.03196">
        <ele>1016.791</ele>
        <time>2013-05-10T15:03:07Z</time>
      </trkpt>
      <trkpt lat="40.48415" lon="-1.03165">
        <ele>1014.398</ele>
        <time>2013-05-10T15:02:53Z</time>
      </trkpt>
      <trkpt lat="40.48418" lon="-1.03157">
        <ele>1014.325</ele>
        <time>2013-05-10T15:02:50Z</time>
      </trkpt>
      <trkpt lat="40.48435" lon="-1.03115">
        <ele>1013.433</ele>
        <time>2013-05-10T15:02:39Z</time>
      </trkpt>
      <trkpt lat="40.48453" lon="-1.03063">
        <ele>1013.416</ele>
        <time>2013-05-10T15:02:28Z</time>
      </trkpt>
      <trkpt lat="40.4847" lon="-1.03009">
        <ele>1013.494</ele>
        <time>2013-05-10T15:02:17Z</time>
      </trkpt>
      <trkpt lat="40.48498" lon="-1.02967">
        <ele>1013.957</ele>
        <time>2013-05-10T15:02:06Z</time>
      </trkpt>
      <trkpt lat="40.48519" lon="-1.02942">
        <ele>1013.922</ele>
        <time>2013-05-10T15:02:00Z</time>
      </trkpt>
      <trkpt lat="40.48541" lon="-1.02926">
        <ele>1013.908</ele>
        <time>2013-05-10T15:01:52Z</time>
      </trkpt>
      <trkpt lat="40.48567" lon="-1.02907">
        <ele>1013.95</ele>
        <time>2013-05-10T15:01:43Z</time>
      </trkpt>
      <trkpt lat="40.48572" lon="-1.02899">
        <ele>1013.981</ele>
        <time>2013-05-10T15:01:31Z</time>
      </trkpt>
      <trkpt lat="40.48573" lon="-1.02896">
        <ele>1013.973</ele>
        <time>2013-05-10T15:01:11Z</time>
      </trkpt>
      <trkpt lat="40.48588" lon="-1.02859">
        <ele>1013.988</ele>
        <time>2013-05-10T15:01:02Z</time>
      </trkpt>
      <trkpt lat="40.48599" lon="-1.02806">
        <ele>1014.385</ele>
        <time>2013-05-10T15:00:53Z</time>
      </trkpt>
      <trkpt lat="40.48619" lon="-1.02777">
        <ele>1014.342</ele>
        <time>2013-05-10T15:00:47Z</time>
      </trkpt>
      <trkpt lat="40.48645" lon="-1.02754">
        <ele>1014.36</ele>
        <time>2013-05-10T15:00:41Z</time>
      </trkpt>
      <trkpt lat="40.48664" lon="-1.02733">
        <ele>1014.813</ele>
        <time>2013-05-10T15:00:36Z</time>
      </trkpt>
      <trkpt lat="40.4867" lon="-1.02723">
        <ele>1014.895</ele>
        <time>2013-05-10T15:00:34Z</time>
      </trkpt>
      <trkpt lat="40.48678" lon="-1.02693">
        <ele>1014.849</ele>
        <time>2013-05-10T15:00:29Z</time>
      </trkpt>
      <trkpt lat="40.48676" lon="-1.02674">
        <ele>1014.823</ele>
        <time>2013-05-10T15:00:26Z</time>
      </trkpt>
      <trkpt lat="40.4867" lon="-1.02604">
        <ele>1014.808</ele>
        <time>2013-05-10T15:00:15Z</time>
      </trkpt>
      <trkpt lat="40.48659" lon="-1.0251">
        <ele>1015.87</ele>
        <time>2013-05-10T15:00:01Z</time>
      </trkpt>
      <trkpt lat="40.48668" lon="-1.0246">
        <ele>1016.311</ele>
        <time>2013-05-10T14:59:54Z</time>
      </trkpt>
      <trkpt lat="40.48687" lon="-1.02404">
        <ele>1017.283</ele>
        <time>2013-05-10T14:59:46Z</time>
      </trkpt>
      <trkpt lat="40.48713" lon="-1.02382">
        <ele>1017.268</ele>
        <time>2013-05-10T14:59:40Z</time>
      </trkpt>
      <trkpt lat="40.48722" lon="-1.02377">
        <ele>1017.285</ele>
        <time>2013-05-10T14:59:38Z</time>
      </trkpt>
      <trkpt lat="40.48739" lon="-1.02372">
        <ele>1017.242</ele>
        <time>2013-05-10T14:59:34Z</time>
      </trkpt>
      <trkpt lat="40.48759" lon="-1.02373">
        <ele>1017.21</ele>
        <time>2013-05-10T14:59:30Z</time>
      </trkpt>
      <trkpt lat="40.48785" lon="-1.02367">
        <ele>1017.283</ele>
        <time>2013-05-10T14:59:25Z</time>
      </trkpt>
      <trkpt lat="40.48796" lon="-1.02363">
        <ele>1017.258</ele>
        <time>2013-05-10T14:59:23Z</time>
      </trkpt>
      <trkpt lat="40.48801" lon="-1.02362">
        <ele>1017.252</ele>
        <time>2013-05-10T14:59:22Z</time>
      </trkpt>
      <trkpt lat="40.48874" lon="-1.02345">
        <ele>1017.217</ele>
        <time>2013-05-10T14:59:08Z</time>
      </trkpt>
      <trkpt lat="40.48897" lon="-1.02319">
        <ele>1017.708</ele>
        <time>2013-05-10T14:59:02Z</time>
      </trkpt>
      <trkpt lat="40.48902" lon="-1.02307">
        <ele>1017.736</ele>
        <time>2013-05-10T14:59:00Z</time>
      </trkpt>
      <trkpt lat="40.48915" lon="-1.0228">
        <ele>1018.247</ele>
        <time>2013-05-10T14:58:55Z</time>
      </trkpt>
      <trkpt lat="40.48942" lon="-1.02251">
        <ele>1018.229</ele>
        <time>2013-05-10T14:58:46Z</time>
      </trkpt>
      <trkpt lat="40.48957" lon="-1.02243">
        <ele>1018.234</ele>
        <time>2013-05-10T14:58:42Z</time>
      </trkpt>
      <trkpt lat="40.48993" lon="-1.02224">
        <ele>1018.761</ele>
        <time>2013-05-10T14:58:33Z</time>
      </trkpt>
      <trkpt lat="40.4903" lon="-1.02203">
        <ele>1018.728</ele>
        <time>2013-05-10T14:58:24Z</time>
      </trkpt>
      <trkpt lat="40.49067" lon="-1.02192">
        <ele>1019.186</ele>
        <time>2013-05-10T14:58:15Z</time>
      </trkpt>
      <trkpt lat="40.49117" lon="-1.02203">
        <ele>1019.689</ele>
        <time>2013-05-10T14:58:04Z</time>
      </trkpt>
      <trkpt lat="40.49131" lon="-1.02203">
        <ele>1019.617</ele>
        <time>2013-05-10T14:58:01Z</time>
      </trkpt>
      <trkpt lat="40.49142" lon="-1.02201">
        <ele>1019.687</ele>
        <time>2013-05-10T14:57:58Z</time>
      </trkpt>
      <trkpt lat="40.49186" lon="-1.02205">
        <ele>1019.615</ele>
        <time>2013-05-10T14:57:47Z</time>
      </trkpt>
      <trkpt lat="40.49202" lon="-1.02203">
        <ele>1020.108</ele>
        <time>2013-05-10T14:57:44Z</time>
      </trkpt>
      <trkpt lat="40.49212" lon="-1.022">
        <ele>1020.152</ele>
        <time>2013-05-10T14:57:42Z</time>
      </trkpt>
      <trkpt lat="40.49221" lon="-1.02199">
        <ele>1020.163</ele>
        <time>2013-05-10T14:57:40Z</time>
      </trkpt>
      <trkpt lat="40.49256" lon="-1.02212">
        <ele>1020.145</ele>
        <time>2013-05-10T14:57:32Z</time>
      </trkpt>
      <trkpt lat="40.49274" lon="-1.02231">
        <ele>1020.18</ele>
        <time>2013-05-10T14:57:27Z</time>
      </trkpt>
      <trkpt lat="40.4932" lon="-1.02272">
        <ele>1020.127</ele>
        <time>2013-05-10T14:57:14Z</time>
      </trkpt>
      <trkpt lat="40.49334" lon="-1.02287">
        <ele>1020.154</ele>
        <time>2013-05-10T14:57:10Z</time>
      </trkpt>
      <trkpt lat="40.49369" lon="-1.0233">
        <ele>1020.652</ele>
        <time>2013-05-10T14:56:59Z</time>
      </trkpt>
      <trkpt lat="40.49378" lon="-1.02348">
        <ele>1020.685</ele>
        <time>2013-05-10T14:56:55Z</time>
      </trkpt>
      <trkpt lat="40.49383" lon="-1.02365">
        <ele>1020.652</ele>
        <time>2013-05-10T14:56:52Z</time>
      </trkpt>
      <trkpt lat="40.49389" lon="-1.02382">
        <ele>1020.653</ele>
        <time>2013-05-10T14:56:49Z</time>
      </trkpt>
      <trkpt lat="40.494" lon="-1.02406">
        <ele>1020.608</ele>
        <time>2013-05-10T14:56:44Z</time>
      </trkpt>
      <trkpt lat="40.49406" lon="-1.02415">
        <ele>1020.608</ele>
        <time>2013-05-10T14:56:42Z</time>
      </trkpt>
      <trkpt lat="40.49425" lon="-1.0244">
        <ele>1021.156</ele>
        <time>2013-05-10T14:56:36Z</time>
      </trkpt>
      <trkpt lat="40.49435" lon="-1.02452">
        <ele>1021.157</ele>
        <time>2013-05-10T14:56:33Z</time>
      </trkpt>
      <trkpt lat="40.49453" lon="-1.02463">
        <ele>1021.119</ele>
        <time>2013-05-10T14:56:29Z</time>
      </trkpt>
      <trkpt lat="40.49461" lon="-1.02466">
        <ele>1021.134</ele>
        <time>2013-05-10T14:56:27Z</time>
      </trkpt>
      <trkpt lat="40.49479" lon="-1.02471">
        <ele>1021.131</ele>
        <time>2013-05-10T14:56:23Z</time>
      </trkpt>
      <trkpt lat="40.49487" lon="-1.02475">
        <ele>1021.178</ele>
        <time>2013-05-10T14:56:21Z</time>
      </trkpt>
      <trkpt lat="40.49509" lon="-1.02492">
        <ele>1021.576</ele>
        <time>2013-05-10T14:56:16Z</time>
      </trkpt>
      <trkpt lat="40.49527" lon="-1.02515">
        <ele>1021.529</ele>
        <time>2013-05-10T14:56:11Z</time>
      </trkpt>
      <trkpt lat="40.49534" lon="-1.02535">
        <ele>1022.023</ele>
        <time>2013-05-10T14:56:07Z</time>
      </trkpt>
      <trkpt lat="40.49538" lon="-1.02555">
        <ele>1022.083</ele>
        <time>2013-05-10T14:56:03Z</time>
      </trkpt>
      <trkpt lat="40.4954" lon="-1.02559">
        <ele>1022.011</ele>
        <time>2013-05-10T14:56:02Z</time>
      </trkpt>
      <trkpt lat="40.49543" lon="-1.02561">
        <ele>1022.008</ele>
        <time>2013-05-10T14:56:01Z</time>
      </trkpt>
      <trkpt lat="40.49547" lon="-1.02563">
        <ele>1022.043</ele>
        <time>2013-05-10T14:56:00Z</time>
      </trkpt>
      <trkpt lat="40.49551" lon="-1.02563">
        <ele>1022.074</ele>
        <time>2013-05-10T14:55:59Z</time>
      </trkpt>
      <trkpt lat="40.49554" lon="-1.02563">
        <ele>1022.016</ele>
        <time>2013-05-10T14:55:58Z</time>
      </trkpt>
      <trkpt lat="40.49558" lon="-1.02562">
        <ele>1022.041</ele>
        <time>2013-05-10T14:55:57Z</time>
      </trkpt>
      <trkpt lat="40.49588" lon="-1.02551">
        <ele>1022.018</ele>
        <time>2013-05-10T14:55:50Z</time>
      </trkpt>
      <trkpt lat="40.49651" lon="-1.0255">
        <ele>1022.085</ele>
        <time>2013-05-10T14:55:36Z</time>
      </trkpt>
      <trkpt lat="40.49663" lon="-1.02546">
        <ele>1022.583</ele>
        <time>2013-05-10T14:55:33Z</time>
      </trkpt>
      <trkpt lat="40.4968" lon="-1.02547">
        <ele>1023.056</ele>
        <time>2013-05-10T14:55:29Z</time>
      </trkpt>
      <trkpt lat="40.49708" lon="-1.02564">
        <ele>1023.079</ele>
        <time>2013-05-10T14:55:22Z</time>
      </trkpt>
      <trkpt lat="40.49748" lon="-1.02581">
        <ele>1023.005</ele>
        <time>2013-05-10T14:55:11Z</time>
      </trkpt>
      <trkpt lat="40.49763" lon="-1.0259">
        <ele>1023.525</ele>
        <time>2013-05-10T14:55:07Z</time>
      </trkpt>
      <trkpt lat="40.49798" lon="-1.02634">
        <ele>1023.908</ele>
        <time>2013-05-10T14:54:58Z</time>
      </trkpt>
      <trkpt lat="40.49812" lon="-1.02647">
        <ele>1026.388</ele>
        <time>2013-05-10T14:54:55Z</time>
      </trkpt>
      <trkpt lat="40.49823" lon="-1.02656">
        <ele>1026.399</ele>
        <time>2013-05-10T14:54:44Z</time>
      </trkpt>
      <trkpt lat="40.49826" lon="-1.02657">
        <ele>1026.361</ele>
        <time>2013-05-10T14:54:35Z</time>
      </trkpt>
      <trkpt lat="40.49828" lon="-1.02658">
        <ele>1024.996</ele>
        <time>2013-05-10T14:54:34Z</time>
      </trkpt>
      <trkpt lat="40.49831" lon="-1.02659">
        <ele>1024.923</ele>
        <time>2013-05-10T14:54:33Z</time>
      </trkpt>
      <trkpt lat="40.49841" lon="-1.02659">
        <ele>1024.92</ele>
        <time>2013-05-10T14:54:31Z</time>
      </trkpt>
      <trkpt lat="40.49847" lon="-1.0266">
        <ele>1024.988</ele>
        <time>2013-05-10T14:54:30Z</time>
      </trkpt>
      <trkpt lat="40.4987" lon="-1.02667">
        <ele>1024.941</ele>
        <time>2013-05-10T14:54:26Z</time>
      </trkpt>
      <trkpt lat="40.49919" lon="-1.0268">
        <ele>1027.369</ele>
        <time>2013-05-10T14:54:17Z</time>
      </trkpt>
      <trkpt lat="40.49945" lon="-1.02685">
        <ele>1029.204</ele>
        <time>2013-05-10T14:54:08Z</time>
      </trkpt>
      <trkpt lat="40.49991" lon="-1.02691">
        <ele>1030.224</ele>
        <time>2013-05-10T14:53:56Z</time>
      </trkpt>
      <trkpt lat="40.50047" lon="-1.02698">
        <ele>1031.608</ele>
        <time>2013-05-10T14:53:45Z</time>
      </trkpt>
      <trkpt lat="40.50052" lon="-1.02698">
        <ele>1031.627</ele>
        <time>2013-05-10T14:53:44Z</time>
      </trkpt>
      <trkpt lat="40.50057" lon="-1.02696">
        <ele>1031.688</ele>
        <time>2013-05-10T14:53:43Z</time>
      </trkpt>
      <trkpt lat="40.50071" lon="-1.02689">
        <ele>1032.61</ele>
        <time>2013-05-10T14:53:40Z</time>
      </trkpt>
      <trkpt lat="40.50087" lon="-1.02675">
        <ele>1032.665</ele>
        <time>2013-05-10T14:53:36Z</time>
      </trkpt>
      <trkpt lat="40.50124" lon="-1.02634">
        <ele>1033.692</ele>
        <time>2013-05-10T14:53:23Z</time>
      </trkpt>
      <trkpt lat="40.50159" lon="-1.02588">
        <ele>1033.179</ele>
        <time>2013-05-10T14:53:09Z</time>
      </trkpt>
      <trkpt lat="40.50201" lon="-1.02531">
        <ele>1031.687</ele>
        <time>2013-05-10T14:52:54Z</time>
      </trkpt>
      <trkpt lat="40.50215" lon="-1.02513">
        <ele>1031.66</ele>
        <time>2013-05-10T14:52:49Z</time>
      </trkpt>
      <trkpt lat="40.50218" lon="-1.02509">
        <ele>1031.693</ele>
        <time>2013-05-10T14:52:48Z</time>
      </trkpt>
      <trkpt lat="40.50234" lon="-1.0248">
        <ele>1031.265</ele>
        <time>2013-05-10T14:52:41Z</time>
      </trkpt>
      <trkpt lat="40.50236" lon="-1.02476">
        <ele>1031.221</ele>
        <time>2013-05-10T14:52:40Z</time>
      </trkpt>
      <trkpt lat="40.50238" lon="-1.02471">
        <ele>1031.208</ele>
        <time>2013-05-10T14:52:39Z</time>
      </trkpt>
      <trkpt lat="40.50251" lon="-1.02435">
        <ele>1030.25</ele>
        <time>2013-05-10T14:52:32Z</time>
      </trkpt>
      <trkpt lat="40.50282" lon="-1.0238">
        <ele>1029.231</ele>
        <time>2013-05-10T14:52:21Z</time>
      </trkpt>
      <trkpt lat="40.503" lon="-1.02364">
        <ele>1029.223</ele>
        <time>2013-05-10T14:52:17Z</time>
      </trkpt>
      <trkpt lat="40.50368" lon="-1.02321">
        <ele>1029.238</ele>
        <time>2013-05-10T14:52:04Z</time>
      </trkpt>
      <trkpt lat="40.50373" lon="-1.02319">
        <ele>1029.275</ele>
        <time>2013-05-10T14:52:03Z</time>
      </trkpt>
      <trkpt lat="40.50427" lon="-1.02314">
        <ele>1029.232</ele>
        <time>2013-05-10T14:51:52Z</time>
      </trkpt>
      <trkpt lat="40.50481" lon="-1.02327">
        <ele>1029.28</ele>
        <time>2013-05-10T14:51:40Z</time>
      </trkpt>
      <trkpt lat="40.50491" lon="-1.0233">
        <ele>1029.283</ele>
        <time>2013-05-10T14:51:38Z</time>
      </trkpt>
      <trkpt lat="40.5053" lon="-1.02329">
        <ele>1029.291</ele>
        <time>2013-05-10T14:51:31Z</time>
      </trkpt>
      <trkpt lat="40.5055" lon="-1.0232">
        <ele>1029.281</ele>
        <time>2013-05-10T14:51:27Z</time>
      </trkpt>
      <trkpt lat="40.5062" lon="-1.02288">
        <ele>1029.219</ele>
        <time>2013-05-10T14:51:13Z</time>
      </trkpt>
      <trkpt lat="40.5068" lon="-1.02245">
        <ele>1029.208</ele>
        <time>2013-05-10T14:51:00Z</time>
      </trkpt>
      <trkpt lat="40.50729" lon="-1.02188">
        <ele>1029.74</ele>
        <time>2013-05-10T14:50:48Z</time>
      </trkpt>
      <trkpt lat="40.50776" lon="-1.02106">
        <ele>1029.741</ele>
        <time>2013-05-10T14:50:34Z</time>
      </trkpt>
      <trkpt lat="40.50786" lon="-1.0209">
        <ele>1030.213</ele>
        <time>2013-05-10T14:50:31Z</time>
      </trkpt>
      <trkpt lat="40.5082" lon="-1.02029">
        <ele>1030.268</ele>
        <time>2013-05-10T14:50:21Z</time>
      </trkpt>
      <trkpt lat="40.50824" lon="-1.02023">
        <ele>1030.775</ele>
        <time>2013-05-10T14:50:20Z</time>
      </trkpt>
      <trkpt lat="40.50828" lon="-1.02017">
        <ele>1030.762</ele>
        <time>2013-05-10T14:50:19Z</time>
      </trkpt>
      <trkpt lat="40.50833" lon="-1.02012">
        <ele>1030.76</ele>
        <time>2013-05-10T14:50:18Z</time>
      </trkpt>
      <trkpt lat="40.50838" lon="-1.02007">
        <ele>1030.743</ele>
        <time>2013-05-10T14:50:17Z</time>
      </trkpt>
      <trkpt lat="40.50843" lon="-1.02004">
        <ele>1030.715</ele>
        <time>2013-05-10T14:50:16Z</time>
      </trkpt>
      <trkpt lat="40.50849" lon="-1.02002">
        <ele>1030.765</ele>
        <time>2013-05-10T14:50:15Z</time>
      </trkpt>
      <trkpt lat="40.50854" lon="-1.02">
        <ele>1030.711</ele>
        <time>2013-05-10T14:50:14Z</time>
      </trkpt>
      <trkpt lat="40.50876" lon="-1.01999">
        <ele>1030.708</ele>
        <time>2013-05-10T14:50:10Z</time>
      </trkpt>
      <trkpt lat="40.50956" lon="-1.02004">
        <ele>1030.722</ele>
        <time>2013-05-10T14:49:56Z</time>
      </trkpt>
      <trkpt lat="40.51046" lon="-1.02006">
        <ele>1030.793</ele>
        <time>2013-05-10T14:49:41Z</time>
      </trkpt>
      <trkpt lat="40.51124" lon="-1.02008">
        <ele>1031.695</ele>
        <time>2013-05-10T14:49:28Z</time>
      </trkpt>
      <trkpt lat="40.51201" lon="-1.02006">
        <ele>1032.15</ele>
        <time>2013-05-10T14:49:13Z</time>
      </trkpt>
      <trkpt lat="40.51282" lon="-1.01995">
        <ele>1033.117</ele>
        <time>2013-05-10T14:48:58Z</time>
      </trkpt>
      <trkpt lat="40.51336" lon="-1.01974">
        <ele>1034.054</ele>
        <time>2013-05-10T14:48:47Z</time>
      </trkpt>
      <trkpt lat="40.51371" lon="-1.01958">
        <ele>1034.062</ele>
        <time>2013-05-10T14:48:40Z</time>
      </trkpt>
      <trkpt lat="40.51426" lon="-1.01935">
        <ele>1035.055</ele>
        <time>2013-05-10T14:48:28Z</time>
      </trkpt>
      <trkpt lat="40.51465" lon="-1.0193">
        <ele>1035.093</ele>
        <time>2013-05-10T14:48:18Z</time>
      </trkpt>
      <trkpt lat="40.51496" lon="-1.0193">
        <ele>1035.065</ele>
        <time>2013-05-10T14:48:07Z</time>
      </trkpt>
      <trkpt lat="40.51498" lon="-1.01929">
        <ele>1035.021</ele>
        <time>2013-05-10T14:48:06Z</time>
      </trkpt>
      <trkpt lat="40.51501" lon="-1.01929">
        <ele>1035.008</ele>
        <time>2013-05-10T14:48:05Z</time>
      </trkpt>
      <trkpt lat="40.51503" lon="-1.01928">
        <ele>1035.08</ele>
        <time>2013-05-10T14:48:04Z</time>
      </trkpt>
      <trkpt lat="40.51504" lon="-1.01928">
        <ele>1035.031</ele>
        <time>2013-05-10T14:48:03Z</time>
      </trkpt>
      <trkpt lat="40.51505" lon="-1.01927">
        <ele>1035.043</ele>
        <time>2013-05-10T14:48:02Z</time>
      </trkpt>
      <trkpt lat="40.51505" lon="-1.01925">
        <ele>1035.028</ele>
        <time>2013-05-10T14:47:45Z</time>
      </trkpt>
      <trkpt lat="40.51506" lon="-1.01929">
        <ele>1035.025</ele>
        <time>2013-05-10T14:47:15Z</time>
      </trkpt>
      <trkpt lat="40.51506" lon="-1.01927">
        <ele>1035.082</ele>
        <time>2013-05-10T14:46:51Z</time>
      </trkpt>
      <trkpt lat="40.51507" lon="-1.01924">
        <ele>1035.08</ele>
        <time>2013-05-10T14:46:43Z</time>
      </trkpt>
      <trkpt lat="40.51503" lon="-1.0192">
        <ele>1035.073</ele>
        <time>2013-05-10T14:46:32Z</time>
      </trkpt>
      <trkpt lat="40.51502" lon="-1.01917">
        <ele>1035.054</ele>
        <time>2013-05-10T14:46:22Z</time>
      </trkpt>
      <trkpt lat="40.51502" lon="-1.01914">
        <ele>1035.056</ele>
        <time>2013-05-10T14:45:42Z</time>
      </trkpt>
      <trkpt lat="40.51503" lon="-1.01915">
        <ele>1035.011</ele>
        <time>2013-05-10T14:45:13Z</time>
      </trkpt>
      <trkpt lat="40.51503" lon="-1.01917">
        <ele>1035.008</ele>
        <time>2013-05-10T14:44:45Z</time>
      </trkpt>
      <trkpt lat="40.51503" lon="-1.01916">
        <ele>1034.066</ele>
        <time>2013-05-10T14:43:42Z</time>
      </trkpt>
      <trkpt lat="40.51502" lon="-1.01914">
        <ele>1034.037</ele>
        <time>2013-05-10T14:42:41Z</time>
      </trkpt>
      <trkpt lat="40.51502" lon="-1.01915">
        <ele>1034.019</ele>
        <time>2013-05-10T14:41:49Z</time>
      </trkpt>
      <trkpt lat="40.51502" lon="-1.01917">
        <ele>1034.024</ele>
        <time>2013-05-10T14:41:26Z</time>
      </trkpt>
      <trkpt lat="40.51502" lon="-1.01915">
        <ele>1034.071</ele>
        <time>2013-05-10T14:41:12Z</time>
      </trkpt>
      <trkpt lat="40.51509" lon="-1.01919">
        <ele>1033.678</ele>
        <time>2013-05-10T14:41:02Z</time>
      </trkpt>
      <trkpt lat="40.51537" lon="-1.01929">
        <ele>1032.196</ele>
        <time>2013-05-10T14:40:47Z</time>
      </trkpt>
      <trkpt lat="40.51557" lon="-1.01934">
        <ele>1030.769</ele>
        <time>2013-05-10T14:40:37Z</time>
      </trkpt>
      <trkpt lat="40.51565" lon="-1.01929">
        <ele>1029.766</ele>
        <time>2013-05-10T14:40:33Z</time>
      </trkpt>
      <trkpt lat="40.51588" lon="-1.01925">
        <ele>1029.729</ele>
        <time>2013-05-10T14:40:21Z</time>
      </trkpt>
      <trkpt lat="40.51606" lon="-1.01928">
        <ele>1029.721</ele>
        <time>2013-05-10T14:40:09Z</time>
      </trkpt>
      <trkpt lat="40.51611" lon="-1.0193">
        <ele>1029.708</ele>
        <time>2013-05-10T14:39:58Z</time>
      </trkpt>
      <trkpt lat="40.51613" lon="-1.01931">
        <ele>1029.777</ele>
        <time>2013-05-10T14:39:27Z</time>
      </trkpt>
      <trkpt lat="40.51613" lon="-1.01932">
        <ele>1029.768</ele>
        <time>2013-05-10T14:38:42Z</time>
      </trkpt>
      <trkpt lat="40.51618" lon="-1.01931">
        <ele>1029.75</ele>
        <time>2013-05-10T14:38:31Z</time>
      </trkpt>
      <trkpt lat="40.51622" lon="-1.0193">
        <ele>1029.795</ele>
        <time>2013-05-10T14:38:22Z</time>
      </trkpt>
      <trkpt lat="40.51624" lon="-1.0193">
        <ele>1029.752</ele>
        <time>2013-05-10T14:38:15Z</time>
      </trkpt>
      <trkpt lat="40.51627" lon="-1.01929">
        <ele>1029.759</ele>
        <time>2013-05-10T14:38:07Z</time>
      </trkpt>
      <trkpt lat="40.51629" lon="-1.01929">
        <ele>1029.727</ele>
        <time>2013-05-10T14:37:58Z</time>
      </trkpt>
      <trkpt lat="40.51631" lon="-1.01928">
        <ele>1029.76</ele>
        <time>2013-05-10T14:37:45Z</time>
      </trkpt>
      <trkpt lat="40.51633" lon="-1.01928">
        <ele>1029.711</ele>
        <time>2013-05-10T14:37:33Z</time>
      </trkpt>
      <trkpt lat="40.51635" lon="-1.01927">
        <ele>1029.721</ele>
        <time>2013-05-10T14:37:22Z</time>
      </trkpt>
      <trkpt lat="40.51637" lon="-1.01926">
        <ele>1029.703</ele>
        <time>2013-05-10T14:37:11Z</time>
      </trkpt>
      <trkpt lat="40.5164" lon="-1.01925">
        <ele>1029.708</ele>
        <time>2013-05-10T14:36:59Z</time>
      </trkpt>
      <trkpt lat="40.51643" lon="-1.01924">
        <ele>1029.712</ele>
        <time>2013-05-10T14:36:48Z</time>
      </trkpt>
      <trkpt lat="40.51645" lon="-1.01924">
        <ele>1029.793</ele>
        <time>2013-05-10T14:36:34Z</time>
      </trkpt>
      <trkpt lat="40.51648" lon="-1.01922">
        <ele>1029.765</ele>
        <time>2013-05-10T14:35:44Z</time>
      </trkpt>
      <trkpt lat="40.51647" lon="-1.01923">
        <ele>1030.29</ele>
        <time>2013-05-10T14:34:52Z</time>
      </trkpt>
      <trkpt lat="40.51646" lon="-1.01925">
        <ele>1030.297</ele>
        <time>2013-05-10T14:34:31Z</time>
      </trkpt>
      <trkpt lat="40.51646" lon="-1.01923">
        <ele>1030.724</ele>
        <time>2013-05-10T14:34:09Z</time>
      </trkpt>
      <trkpt lat="40.51647" lon="-1.01925">
        <ele>1030.772</ele>
        <time>2013-05-10T14:33:49Z</time>
      </trkpt>
      <trkpt lat="40.51652" lon="-1.01924">
        <ele>1030.795</ele>
        <time>2013-05-10T14:33:41Z</time>
      </trkpt>
      <trkpt lat="40.51692" lon="-1.01909">
        <ele>1031.254</ele>
        <time>2013-05-10T14:33:30Z</time>
      </trkpt>
      <trkpt lat="40.51717" lon="-1.01911">
        <ele>1032.156</ele>
        <time>2013-05-10T14:33:25Z</time>
      </trkpt>
      <trkpt lat="40.51732" lon="-1.0192">
        <ele>1032.111</ele>
        <time>2013-05-10T14:33:21Z</time>
      </trkpt>
      <trkpt lat="40.5178" lon="-1.01962">
        <ele>1032.108</ele>
        <time>2013-05-10T14:33:08Z</time>
      </trkpt>
      <trkpt lat="40.51787" lon="-1.01967">
        <ele>1032.186</ele>
        <time>2013-05-10T14:33:06Z</time>
      </trkpt>
      <trkpt lat="40.51837" lon="-1.01985">
        <ele>1032.147</ele>
        <time>2013-05-10T14:32:54Z</time>
      </trkpt>
      <trkpt lat="40.51881" lon="-1.01994">
        <ele>1032.119</ele>
        <time>2013-05-10T14:32:40Z</time>
      </trkpt>
      <trkpt lat="40.5193" lon="-1.01996">
        <ele>1032.194</ele>
        <time>2013-05-10T14:32:26Z</time>
      </trkpt>
      <trkpt lat="40.51948" lon="-1.01996">
        <ele>1032.161</ele>
        <time>2013-05-10T14:32:17Z</time>
      </trkpt>
      <trkpt lat="40.51949" lon="-1.01996">
        <ele>1032.148</ele>
        <time>2013-05-10T14:32:09Z</time>
      </trkpt>
      <trkpt lat="40.51947" lon="-1.01996">
        <ele>1032.136</ele>
        <time>2013-05-10T14:31:17Z</time>
      </trkpt>
      <trkpt lat="40.51948" lon="-1.01999">
        <ele>1032.129</ele>
        <time>2013-05-10T14:31:05Z</time>
      </trkpt>
      <trkpt lat="40.51958" lon="-1.01997">
        <ele>1032.117</ele>
        <time>2013-05-10T14:30:56Z</time>
      </trkpt>
      <trkpt lat="40.51957" lon="-1.01968">
        <ele>1032.187</ele>
        <time>2013-05-10T14:30:50Z</time>
      </trkpt>
      <trkpt lat="40.51958" lon="-1.01883">
        <ele>1032.615</ele>
        <time>2013-05-10T14:30:37Z</time>
      </trkpt>
      <trkpt lat="40.51958" lon="-1.01789">
        <ele>1032.608</ele>
        <time>2013-05-10T14:30:24Z</time>
      </trkpt>
      <trkpt lat="40.51954" lon="-1.01694">
        <ele>1033.632</ele>
        <time>2013-05-10T14:30:14Z</time>
      </trkpt>
      <trkpt lat="40.51949" lon="-1.01641">
        <ele>1035.553</ele>
        <time>2013-05-10T14:30:08Z</time>
      </trkpt>
      <trkpt lat="40.51948" lon="-1.01626">
        <ele>1036.415</ele>
        <time>2013-05-10T14:30:06Z</time>
      </trkpt>
      <trkpt lat="40.51946" lon="-1.01612">
        <ele>1036.91</ele>
        <time>2013-05-10T14:30:04Z</time>
      </trkpt>
      <trkpt lat="40.51946" lon="-1.01593">
        <ele>1037.967</ele>
        <time>2013-05-10T14:30:01Z</time>
      </trkpt>
      <trkpt lat="40.51967" lon="-1.0155">
        <ele>1040.314</ele>
        <time>2013-05-10T14:29:52Z</time>
      </trkpt>
      <trkpt lat="40.51996" lon="-1.01537">
        <ele>1039.372</ele>
        <time>2013-05-10T14:29:44Z</time>
      </trkpt>
      <trkpt lat="40.52045" lon="-1.01517">
        <ele>1038.895</ele>
        <time>2013-05-10T14:29:32Z</time>
      </trkpt>
      <trkpt lat="40.52061" lon="-1.01512">
        <ele>1038.862</ele>
        <time>2013-05-10T14:29:28Z</time>
      </trkpt>
      <trkpt lat="40.52098" lon="-1.01546">
        <ele>1038.883</ele>
        <time>2013-05-10T14:29:17Z</time>
      </trkpt>
      <trkpt lat="40.5212" lon="-1.01547">
        <ele>1038.811</ele>
        <time>2013-05-10T14:29:11Z</time>
      </trkpt>
      <trkpt lat="40.52143" lon="-1.0155">
        <ele>1038.808</ele>
        <time>2013-05-10T14:29:06Z</time>
      </trkpt>
      <trkpt lat="40.52183" lon="-1.01588">
        <ele>1038.897</ele>
        <time>2013-05-10T14:28:55Z</time>
      </trkpt>
      <trkpt lat="40.5219" lon="-1.01595">
        <ele>1039.838</ele>
        <time>2013-05-10T14:28:53Z</time>
      </trkpt>
      <trkpt lat="40.5222" lon="-1.01612">
        <ele>1038.87</ele>
        <time>2013-05-10T14:28:44Z</time>
      </trkpt>
      <trkpt lat="40.52256" lon="-1.01586">
        <ele>1037.415</ele>
        <time>2013-05-10T14:28:33Z</time>
      </trkpt>
      <trkpt lat="40.52272" lon="-1.01574">
        <ele>1037.472</ele>
        <time>2013-05-10T14:28:29Z</time>
      </trkpt>
      <trkpt lat="40.52289" lon="-1.01568">
        <ele>1037.429</ele>
        <time>2013-05-10T14:28:25Z</time>
      </trkpt>
      <trkpt lat="40.52298" lon="-1.01566">
        <ele>1037.467</ele>
        <time>2013-05-10T14:28:23Z</time>
      </trkpt>
      <trkpt lat="40.52337" lon="-1.01567">
        <ele>1037.48</ele>
        <time>2013-05-10T14:28:14Z</time>
      </trkpt>
      <trkpt lat="40.52356" lon="-1.01569">
        <ele>1037.423</ele>
        <time>2013-05-10T14:28:09Z</time>
      </trkpt>
      <trkpt lat="40.52423" lon="-1.01571">
        <ele>1037.983</ele>
        <time>2013-05-10T14:27:55Z</time>
      </trkpt>
      <trkpt lat="40.52441" lon="-1.01567">
        <ele>1037.911</ele>
        <time>2013-05-10T14:27:51Z</time>
      </trkpt>
      <trkpt lat="40.52452" lon="-1.01568">
        <ele>1037.908</ele>
        <time>2013-05-10T14:27:48Z</time>
      </trkpt>
      <trkpt lat="40.52511" lon="-1.01574">
        <ele>1038.843</ele>
        <time>2013-05-10T14:27:36Z</time>
      </trkpt>
      <trkpt lat="40.52564" lon="-1.01565">
        <ele>1038.894</ele>
        <time>2013-05-10T14:27:25Z</time>
      </trkpt>
      <trkpt lat="40.52592" lon="-1.01541">
        <ele>1038.896</ele>
        <time>2013-05-10T14:27:18Z</time>
      </trkpt>
      <trkpt lat="40.52607" lon="-1.01535">
        <ele>1038.821</ele>
        <time>2013-05-10T14:27:15Z</time>
      </trkpt>
      <trkpt lat="40.52626" lon="-1.01534">
        <ele>1039.368</ele>
        <time>2013-05-10T14:27:12Z</time>
      </trkpt>
      <trkpt lat="40.52644" lon="-1.01535">
        <ele>1040.825</ele>
        <time>2013-05-10T14:27:09Z</time>
      </trkpt>
      <trkpt lat="40.52685" lon="-1.01529">
        <ele>1040.833</ele>
        <time>2013-05-10T14:27:01Z</time>
      </trkpt>
      <trkpt lat="40.52698" lon="-1.01514">
        <ele>1040.876</ele>
        <time>2013-05-10T14:26:57Z</time>
      </trkpt>
      <trkpt lat="40.52706" lon="-1.01497">
        <ele>1039.365</ele>
        <time>2013-05-10T14:26:54Z</time>
      </trkpt>
      <trkpt lat="40.52729" lon="-1.01468">
        <ele>1039.368</ele>
        <time>2013-05-10T14:26:48Z</time>
      </trkpt>
      <trkpt lat="40.52743" lon="-1.0146">
        <ele>1039.314</ele>
        <time>2013-05-10T14:26:45Z</time>
      </trkpt>
      <trkpt lat="40.52826" lon="-1.01443">
        <ele>1039.308</ele>
        <time>2013-05-10T14:26:29Z</time>
      </trkpt>
      <trkpt lat="40.5288" lon="-1.01448">
        <ele>1039.347</ele>
        <time>2013-05-10T14:26:19Z</time>
      </trkpt>
      <trkpt lat="40.52932" lon="-1.01442">
        <ele>1039.358</ele>
        <time>2013-05-10T14:26:08Z</time>
      </trkpt>
      <trkpt lat="40.52955" lon="-1.01447">
        <ele>1039.34</ele>
        <time>2013-05-10T14:26:04Z</time>
      </trkpt>
      <trkpt lat="40.52983" lon="-1.01462">
        <ele>1039.835</ele>
        <time>2013-05-10T14:25:59Z</time>
      </trkpt>
      <trkpt lat="40.53013" lon="-1.01474">
        <ele>1041.342</ele>
        <time>2013-05-10T14:25:53Z</time>
      </trkpt>
      <trkpt lat="40.53021" lon="-1.01475">
        <ele>1041.329</ele>
        <time>2013-05-10T14:25:51Z</time>
      </trkpt>
      <trkpt lat="40.53053" lon="-1.01469">
        <ele>1039.877</ele>
        <time>2013-05-10T14:25:42Z</time>
      </trkpt>
      <trkpt lat="40.53109" lon="-1.01443">
        <ele>1038.88</ele>
        <time>2013-05-10T14:25:31Z</time>
      </trkpt>
      <trkpt lat="40.53162" lon="-1.01445">
        <ele>1038.855</ele>
        <time>2013-05-10T14:25:22Z</time>
      </trkpt>
      <trkpt lat="40.53191" lon="-1.01456">
        <ele>1038.807</ele>
        <time>2013-05-10T14:25:17Z</time>
      </trkpt>
      <trkpt lat="40.53261" lon="-1.01486">
        <ele>1039.317</ele>
        <time>2013-05-10T14:25:05Z</time>
      </trkpt>
      <trkpt lat="40.53332" lon="-1.01533">
        <ele>1039.308</ele>
        <time>2013-05-10T14:24:52Z</time>
      </trkpt>
      <trkpt lat="40.53409" lon="-1.01594">
        <ele>1039.326</ele>
        <time>2013-05-10T14:24:37Z</time>
      </trkpt>
      <trkpt lat="40.5346" lon="-1.01642">
        <ele>1039.327</ele>
        <time>2013-05-10T14:24:27Z</time>
      </trkpt>
      <trkpt lat="40.53529" lon="-1.01712">
        <ele>1039.369</ele>
        <time>2013-05-10T14:24:12Z</time>
      </trkpt>
      <trkpt lat="40.53552" lon="-1.01737">
        <ele>1039.384</ele>
        <time>2013-05-10T14:24:07Z</time>
      </trkpt>
      <trkpt lat="40.53607" lon="-1.01795">
        <ele>1039.391</ele>
        <time>2013-05-10T14:23:55Z</time>
      </trkpt>
      <trkpt lat="40.53677" lon="-1.01855">
        <ele>1040.378</ele>
        <time>2013-05-10T14:23:42Z</time>
      </trkpt>
      <trkpt lat="40.53727" lon="-1.01914">
        <ele>1040.876</ele>
        <time>2013-05-10T14:23:31Z</time>
      </trkpt>
      <trkpt lat="40.53791" lon="-1.01972">
        <ele>1040.869</ele>
        <time>2013-05-10T14:23:16Z</time>
      </trkpt>
      <trkpt lat="40.53847" lon="-1.02016">
        <ele>1040.883</ele>
        <time>2013-05-10T14:23:02Z</time>
      </trkpt>
      <trkpt lat="40.53865" lon="-1.02032">
        <ele>1041.325</ele>
        <time>2013-05-10T14:22:58Z</time>
      </trkpt>
      <trkpt lat="40.53884" lon="-1.02051">
        <ele>1042.717</ele>
        <time>2013-05-10T14:22:53Z</time>
      </trkpt>
      <trkpt lat="40.53923" lon="-1.02104">
        <ele>1042.708</ele>
        <time>2013-05-10T14:22:39Z</time>
      </trkpt>
      <trkpt lat="40.53954" lon="-1.0215">
        <ele>1041.729</ele>
        <time>2013-05-10T14:22:27Z</time>
      </trkpt>
      <trkpt lat="40.54002" lon="-1.02189">
        <ele>1041.79</ele>
        <time>2013-05-10T14:22:14Z</time>
      </trkpt>
      <trkpt lat="40.54064" lon="-1.02211">
        <ele>1040.332</ele>
        <time>2013-05-10T14:21:58Z</time>
      </trkpt>
      <trkpt lat="40.54136" lon="-1.02239">
        <ele>1038.877</ele>
        <time>2013-05-10T14:21:41Z</time>
      </trkpt>
      <trkpt lat="40.54153" lon="-1.02248">
        <ele>1038.864</ele>
        <time>2013-05-10T14:21:37Z</time>
      </trkpt>
      <trkpt lat="40.54205" lon="-1.02267">
        <ele>1038.851</ele>
        <time>2013-05-10T14:21:25Z</time>
      </trkpt>
      <trkpt lat="40.54253" lon="-1.02295">
        <ele>1038.819</ele>
        <time>2013-05-10T14:21:13Z</time>
      </trkpt>
      <trkpt lat="40.54262" lon="-1.02297">
        <ele>1038.822</ele>
        <time>2013-05-10T14:21:11Z</time>
      </trkpt>
      <trkpt lat="40.54307" lon="-1.02306">
        <ele>1038.854</ele>
        <time>2013-05-10T14:21:00Z</time>
      </trkpt>
      <trkpt lat="40.54358" lon="-1.02328">
        <ele>1038.856</ele>
        <time>2013-05-10T14:20:47Z</time>
      </trkpt>
      <trkpt lat="40.54378" lon="-1.02346">
        <ele>1038.811</ele>
        <time>2013-05-10T14:20:41Z</time>
      </trkpt>
      <trkpt lat="40.54412" lon="-1.02419">
        <ele>1038.808</ele>
        <time>2013-05-10T14:20:25Z</time>
      </trkpt>
      <trkpt lat="40.54414" lon="-1.02425">
        <ele>1038.886</ele>
        <time>2013-05-10T14:20:24Z</time>
      </trkpt>
      <trkpt lat="40.54423" lon="-1.02471">
        <ele>1038.897</ele>
        <time>2013-05-10T14:20:16Z</time>
      </trkpt>
      <trkpt lat="40.54434" lon="-1.02535">
        <ele>1038.869</ele>
        <time>2013-05-10T14:20:04Z</time>
      </trkpt>
      <trkpt lat="40.54439" lon="-1.02587">
        <ele>1038.864</ele>
        <time>2013-05-10T14:19:53Z</time>
      </trkpt>
      <trkpt lat="40.54441" lon="-1.02625">
        <ele>1038.891</ele>
        <time>2013-05-10T14:19:44Z</time>
      </trkpt>
      <trkpt lat="40.54446" lon="-1.02674">
        <ele>1039.358</ele>
        <time>2013-05-10T14:19:32Z</time>
      </trkpt>
      <trkpt lat="40.5445" lon="-1.02712">
        <ele>1039.336</ele>
        <time>2013-05-10T14:19:23Z</time>
      </trkpt>
      <trkpt lat="40.54466" lon="-1.02756">
        <ele>1040.329</ele>
        <time>2013-05-10T14:19:12Z</time>
      </trkpt>
      <trkpt lat="40.54487" lon="-1.02778">
        <ele>1040.893</ele>
        <time>2013-05-10T14:19:01Z</time>
      </trkpt>
      <trkpt lat="40.54489" lon="-1.02779">
        <ele>1040.865</ele>
        <time>2013-05-10T14:19:00Z</time>
      </trkpt>
      <trkpt lat="40.5449" lon="-1.0278">
        <ele>1040.821</ele>
        <time>2013-05-10T14:18:59Z</time>
      </trkpt>
      <trkpt lat="40.54491" lon="-1.02781">
        <ele>1040.808</ele>
        <time>2013-05-10T14:18:58Z</time>
      </trkpt>
      <trkpt lat="40.54493" lon="-1.02782">
        <ele>1040.85</ele>
        <time>2013-05-10T14:18:57Z</time>
      </trkpt>
      <trkpt lat="40.54494" lon="-1.02783">
        <ele>1040.831</ele>
        <time>2013-05-10T14:18:56Z</time>
      </trkpt>
      <trkpt lat="40.54495" lon="-1.02784">
        <ele>1040.823</ele>
        <time>2013-05-10T14:18:55Z</time>
      </trkpt>
      <trkpt lat="40.54496" lon="-1.02785">
        <ele>1040.878</ele>
        <time>2013-05-10T14:18:54Z</time>
      </trkpt>
      <trkpt lat="40.54497" lon="-1.02787">
        <ele>1040.825</ele>
        <time>2013-05-10T14:18:27Z</time>
      </trkpt>
      <trkpt lat="40.54498" lon="-1.02786">
        <ele>1040.842</ele>
        <time>2013-05-10T14:17:50Z</time>
      </trkpt>
      <trkpt lat="40.54501" lon="-1.02786">
        <ele>1040.88</ele>
        <time>2013-05-10T14:17:20Z</time>
      </trkpt>
      <trkpt lat="40.54502" lon="-1.02787">
        <ele>1040.893</ele>
        <time>2013-05-10T14:17:19Z</time>
      </trkpt>
      <trkpt lat="40.54504" lon="-1.02787">
        <ele>1040.853</ele>
        <time>2013-05-10T14:17:18Z</time>
      </trkpt>
      <trkpt lat="40.54506" lon="-1.02787">
        <ele>1040.804</ele>
        <time>2013-05-10T14:17:17Z</time>
      </trkpt>
      <trkpt lat="40.54508" lon="-1.02788">
        <ele>1040.814</ele>
        <time>2013-05-10T14:17:16Z</time>
      </trkpt>
      <trkpt lat="40.5451" lon="-1.02788">
        <ele>1040.808</ele>
        <time>2013-05-10T14:17:15Z</time>
      </trkpt>
      <trkpt lat="40.54512" lon="-1.02788">
        <ele>1040.846</ele>
        <time>2013-05-10T14:17:14Z</time>
      </trkpt>
      <trkpt lat="40.54515" lon="-1.02788">
        <ele>1040.827</ele>
        <time>2013-05-10T14:17:13Z</time>
      </trkpt>
      <trkpt lat="40.54517" lon="-1.02789">
        <ele>1040.839</ele>
        <time>2013-05-10T14:17:12Z</time>
      </trkpt>
      <trkpt lat="40.5452" lon="-1.0279">
        <ele>1040.864</ele>
        <time>2013-05-10T14:17:11Z</time>
      </trkpt>
      <trkpt lat="40.54522" lon="-1.02791">
        <ele>1040.851</ele>
        <time>2013-05-10T14:17:10Z</time>
      </trkpt>
      <trkpt lat="40.54524" lon="-1.02792">
        <ele>1040.868</ele>
        <time>2013-05-10T14:17:09Z</time>
      </trkpt>
      <trkpt lat="40.54526" lon="-1.02793">
        <ele>1040.826</ele>
        <time>2013-05-10T14:17:08Z</time>
      </trkpt>
      <trkpt lat="40.54528" lon="-1.02793">
        <ele>1040.819</ele>
        <time>2013-05-10T14:17:07Z</time>
      </trkpt>
      <trkpt lat="40.54529" lon="-1.02794">
        <ele>1040.835</ele>
        <time>2013-05-10T14:17:06Z</time>
      </trkpt>
      <trkpt lat="40.54531" lon="-1.02794">
        <ele>1041.386</ele>
        <time>2013-05-10T14:16:47Z</time>
      </trkpt>
      <trkpt lat="40.54532" lon="-1.02794">
        <ele>1041.314</ele>
        <time>2013-05-10T14:16:46Z</time>
      </trkpt>
      <trkpt lat="40.54534" lon="-1.02795">
        <ele>1041.308</ele>
        <time>2013-05-10T14:16:45Z</time>
      </trkpt>
      <trkpt lat="40.54536" lon="-1.02797">
        <ele>1041.784</ele>
        <time>2013-05-10T14:16:44Z</time>
      </trkpt>
      <trkpt lat="40.54538" lon="-1.028">
        <ele>1041.765</ele>
        <time>2013-05-10T14:16:43Z</time>
      </trkpt>
      <trkpt lat="40.54539" lon="-1.0282">
        <ele>1041.727</ele>
        <time>2013-05-10T14:16:38Z</time>
      </trkpt>
      <trkpt lat="40.54535" lon="-1.02874">
        <ele>1042.272</ele>
        <time>2013-05-10T14:16:27Z</time>
      </trkpt>
      <trkpt lat="40.54535" lon="-1.0288">
        <ele>1042.219</ele>
        <time>2013-05-10T14:16:26Z</time>
      </trkpt>
      <trkpt lat="40.54531" lon="-1.02916">
        <ele>1041.766</ele>
        <time>2013-05-10T14:16:20Z</time>
      </trkpt>
      <trkpt lat="40.54531" lon="-1.02967">
        <ele>1042.284</ele>
        <time>2013-05-10T14:16:10Z</time>
      </trkpt>
      <trkpt lat="40.54532" lon="-1.02978">
        <ele>1042.747</ele>
        <time>2013-05-10T14:16:08Z</time>
      </trkpt>
      <trkpt lat="40.54532" lon="-1.02988">
        <ele>1042.722</ele>
        <time>2013-05-10T14:16:06Z</time>
      </trkpt>
      <trkpt lat="40.54538" lon="-1.03019">
        <ele>1043.262</ele>
        <time>2013-05-10T14:15:58Z</time>
      </trkpt>
      <trkpt lat="40.54538" lon="-1.0302">
        <ele>1043.708</ele>
        <time>2013-05-10T14:15:57Z</time>
      </trkpt>
      <trkpt lat="40.54537" lon="-1.03022">
        <ele>1043.708</ele>
        <time>2013-05-10T14:15:55Z</time>
      </trkpt>
      <trkpt lat="40.54536" lon="-1.03024">
        <ele>1044.683</ele>
        <time>2013-05-10T14:15:54Z</time>
      </trkpt>
      <trkpt lat="40.54536" lon="-1.03027">
        <ele>1044.614</ele>
        <time>2013-05-10T14:15:53Z</time>
      </trkpt>
      <trkpt lat="40.54535" lon="-1.0303">
        <ele>1044.616</ele>
        <time>2013-05-10T14:15:52Z</time>
      </trkpt>
      <trkpt lat="40.54535" lon="-1.03033">
        <ele>1044.651</ele>
        <time>2013-05-10T14:15:51Z</time>
      </trkpt>
      <trkpt lat="40.54535" lon="-1.03035">
        <ele>1044.668</ele>
        <time>2013-05-10T14:15:50Z</time>
      </trkpt>
      <trkpt lat="40.54537" lon="-1.03038">
        <ele>1044.685</ele>
        <time>2013-05-10T14:15:12Z</time>
      </trkpt>
      <trkpt lat="40.54536" lon="-1.03038">
        <ele>1045.113</ele>
        <time>2013-05-10T14:14:53Z</time>
      </trkpt>
      <trkpt lat="40.54542" lon="-1.03065">
        <ele>1045.176</ele>
        <time>2013-05-10T14:14:42Z</time>
      </trkpt>
      <trkpt lat="40.54551" lon="-1.03098">
        <ele>1046.142</ele>
        <time>2013-05-10T14:14:29Z</time>
      </trkpt>
      <trkpt lat="40.54559" lon="-1.03136">
        <ele>1048.522</ele>
        <time>2013-05-10T14:14:19Z</time>
      </trkpt>
      <trkpt lat="40.54559" lon="-1.03141">
        <ele>1048.914</ele>
        <time>2013-05-10T14:14:18Z</time>
      </trkpt>
      <trkpt lat="40.54561" lon="-1.03183">
        <ele>1050.908</ele>
        <time>2013-05-10T14:14:08Z</time>
      </trkpt>
      <trkpt lat="40.5456" lon="-1.03186">
        <ele>1050.925</ele>
        <time>2013-05-10T14:14:07Z</time>
      </trkpt>
      <trkpt lat="40.54561" lon="-1.03188">
        <ele>1050.916</ele>
        <time>2013-05-10T14:14:06Z</time>
      </trkpt>
      <trkpt lat="40.54574" lon="-1.03188">
        <ele>1050.968</ele>
        <time>2013-05-10T14:14:00Z</time>
      </trkpt>
      <trkpt lat="40.54608" lon="-1.03186">
        <ele>1051.343</ele>
        <time>2013-05-10T14:13:51Z</time>
      </trkpt>
      <trkpt lat="40.54632" lon="-1.03188">
        <ele>1051.89</ele>
        <time>2013-05-10T14:13:46Z</time>
      </trkpt>
      <trkpt lat="40.54695" lon="-1.03196">
        <ele>1052.377</ele>
        <time>2013-05-10T14:13:34Z</time>
      </trkpt>
      <trkpt lat="40.54747" lon="-1.03206">
        <ele>1054.285</ele>
        <time>2013-05-10T14:13:22Z</time>
      </trkpt>
      <trkpt lat="40.54804" lon="-1.0322">
        <ele>1054.288</ele>
        <time>2013-05-10T14:13:08Z</time>
      </trkpt>
      <trkpt lat="40.54808" lon="-1.03221">
        <ele>1054.265</ele>
        <time>2013-05-10T14:13:07Z</time>
      </trkpt>
      <trkpt lat="40.54848" lon="-1.03231">
        <ele>1054.268</ele>
        <time>2013-05-10T14:12:55Z</time>
      </trkpt>
      <trkpt lat="40.54885" lon="-1.0324">
        <ele>1054.214</ele>
        <time>2013-05-10T14:12:45Z</time>
      </trkpt>
      <trkpt lat="40.54941" lon="-1.03252">
        <ele>1054.708</ele>
        <time>2013-05-10T14:12:31Z</time>
      </trkpt>
      <trkpt lat="40.54993" lon="-1.03252">
        <ele>1056.237</ele>
        <time>2013-05-10T14:12:16Z</time>
      </trkpt>
      <trkpt lat="40.5502" lon="-1.0325">
        <ele>1057.688</ele>
        <time>2013-05-10T14:12:08Z</time>
      </trkpt>
      <trkpt lat="40.55029" lon="-1.03255">
        <ele>1055.23</ele>
        <time>2013-05-10T14:12:03Z</time>
      </trkpt>
      <trkpt lat="40.5503" lon="-1.03256">
        <ele>1055.275</ele>
        <time>2013-05-10T14:12:02Z</time>
      </trkpt>
      <trkpt lat="40.55032" lon="-1.03256">
        <ele>1055.272</ele>
        <time>2013-05-10T14:11:47Z</time>
      </trkpt>
      <trkpt lat="40.55031" lon="-1.03257">
        <ele>1055.299</ele>
        <time>2013-05-10T14:11:29Z</time>
      </trkpt>
      <trkpt lat="40.55046" lon="-1.03264">
        <ele>1055.797</ele>
        <time>2013-05-10T14:11:22Z</time>
      </trkpt>
      <trkpt lat="40.55084" lon="-1.03274">
        <ele>1057.63</ele>
        <time>2013-05-10T14:11:10Z</time>
      </trkpt>
      <trkpt lat="40.55115" lon="-1.03281">
        <ele>1057.611</ele>
        <time>2013-05-10T14:11:00Z</time>
      </trkpt>
      <trkpt lat="40.55169" lon="-1.0329">
        <ele>1057.621</ele>
        <time>2013-05-10T14:10:48Z</time>
      </trkpt>
      <trkpt lat="40.55178" lon="-1.03292">
        <ele>1057.603</ele>
        <time>2013-05-10T14:10:46Z</time>
      </trkpt>
      <trkpt lat="40.5523" lon="-1.03319">
        <ele>1058.608</ele>
        <time>2013-05-10T14:10:34Z</time>
      </trkpt>
      <trkpt lat="40.55235" lon="-1.03321">
        <ele>1058.672</ele>
        <time>2013-05-10T14:10:33Z</time>
      </trkpt>
      <trkpt lat="40.55239" lon="-1.03322">
        <ele>1058.653</ele>
        <time>2013-05-10T14:10:32Z</time>
      </trkpt>
      <trkpt lat="40.55257" lon="-1.03323">
        <ele>1058.655</ele>
        <time>2013-05-10T14:10:28Z</time>
      </trkpt>
      <trkpt lat="40.553" lon="-1.03324">
        <ele>1058.69</ele>
        <time>2013-05-10T14:10:16Z</time>
      </trkpt>
      <trkpt lat="40.55329" lon="-1.03336">
        <ele>1058.187</ele>
        <time>2013-05-10T14:10:07Z</time>
      </trkpt>
      <trkpt lat="40.55344" lon="-1.03361">
        <ele>1057.164</ele>
        <time>2013-05-10T14:09:58Z</time>
      </trkpt>
      <trkpt lat="40.55364" lon="-1.03412">
        <ele>1056.212</ele>
        <time>2013-05-10T14:09:45Z</time>
      </trkpt>
      <trkpt lat="40.55376" lon="-1.0345">
        <ele>1054.745</ele>
        <time>2013-05-10T14:09:38Z</time>
      </trkpt>
      <trkpt lat="40.55384" lon="-1.03466">
        <ele>1054.759</ele>
        <time>2013-05-10T14:09:35Z</time>
      </trkpt>
      <trkpt lat="40.55424" lon="-1.0351">
        <ele>1054.703</ele>
        <time>2013-05-10T14:09:24Z</time>
      </trkpt>
      <trkpt lat="40.55428" lon="-1.03513">
        <ele>1054.723</ele>
        <time>2013-05-10T14:09:23Z</time>
      </trkpt>
      <trkpt lat="40.55432" lon="-1.03515">
        <ele>1054.708</ele>
        <time>2013-05-10T14:09:22Z</time>
      </trkpt>
      <trkpt lat="40.55437" lon="-1.03518">
        <ele>1054.776</ele>
        <time>2013-05-10T14:09:21Z</time>
      </trkpt>
      <trkpt lat="40.55442" lon="-1.03519">
        <ele>1054.717</ele>
        <time>2013-05-10T14:09:20Z</time>
      </trkpt>
      <trkpt lat="40.55447" lon="-1.03521">
        <ele>1054.719</ele>
        <time>2013-05-10T14:09:19Z</time>
      </trkpt>
      <trkpt lat="40.55452" lon="-1.03522">
        <ele>1054.794</ele>
        <time>2013-05-10T14:09:18Z</time>
      </trkpt>
      <trkpt lat="40.55456" lon="-1.03522">
        <ele>1054.711</ele>
        <time>2013-05-10T14:09:17Z</time>
      </trkpt>
      <trkpt lat="40.55476" lon="-1.0352">
        <ele>1054.778</ele>
        <time>2013-05-10T14:09:13Z</time>
      </trkpt>
      <trkpt lat="40.55489" lon="-1.03515">
        <ele>1054.786</ele>
        <time>2013-05-10T14:09:10Z</time>
      </trkpt>
      <trkpt lat="40.55504" lon="-1.03505">
        <ele>1054.759</ele>
        <time>2013-05-10T14:09:06Z</time>
      </trkpt>
      <trkpt lat="40.55511" lon="-1.03499">
        <ele>1054.751</ele>
        <time>2013-05-10T14:09:04Z</time>
      </trkpt>
      <trkpt lat="40.55551" lon="-1.03454">
        <ele>1054.701</ele>
        <time>2013-05-10T14:08:52Z</time>
      </trkpt>
      <trkpt lat="40.55608" lon="-1.03403">
        <ele>1054.711</ele>
        <time>2013-05-10T14:08:39Z</time>
      </trkpt>
      <trkpt lat="40.55633" lon="-1.0339">
        <ele>1054.708</ele>
        <time>2013-05-10T14:08:34Z</time>
      </trkpt>
      <trkpt lat="40.5565" lon="-1.03386">
        <ele>1055.296</ele>
        <time>2013-05-10T14:08:31Z</time>
      </trkpt>
      <trkpt lat="40.55734" lon="-1.03388">
        <ele>1055.787</ele>
        <time>2013-05-10T14:08:17Z</time>
      </trkpt>
      <trkpt lat="40.55819" lon="-1.03403">
        <ele>1057.129</ele>
        <time>2013-05-10T14:08:04Z</time>
      </trkpt>
      <trkpt lat="40.55839" lon="-1.0341">
        <ele>1057.174</ele>
        <time>2013-05-10T14:08:01Z</time>
      </trkpt>
      <trkpt lat="40.55913" lon="-1.0346">
        <ele>1058.631</ele>
        <time>2013-05-10T14:07:50Z</time>
      </trkpt>
      <trkpt lat="40.55984" lon="-1.03506">
        <ele>1059.528</ele>
        <time>2013-05-10T14:07:40Z</time>
      </trkpt>
      <trkpt lat="40.56051" lon="-1.03583">
        <ele>1061.956</ele>
        <time>2013-05-10T14:07:29Z</time>
      </trkpt>
      <trkpt lat="40.56109" lon="-1.03698">
        <ele>1063.429</ele>
        <time>2013-05-10T14:07:16Z</time>
      </trkpt>
      <trkpt lat="40.56135" lon="-1.03736">
        <ele>1064.319</ele>
        <time>2013-05-10T14:07:11Z</time>
      </trkpt>
      <trkpt lat="40.56141" lon="-1.03742">
        <ele>1064.309</ele>
        <time>2013-05-10T14:07:10Z</time>
      </trkpt>
      <trkpt lat="40.56217" lon="-1.0379">
        <ele>1065.819</ele>
        <time>2013-05-10T14:06:59Z</time>
      </trkpt>
      <trkpt lat="40.56224" lon="-1.03795">
        <ele>1065.808</ele>
        <time>2013-05-10T14:06:58Z</time>
      </trkpt>
      <trkpt lat="40.56281" lon="-1.03873">
        <ele>1067.262</ele>
        <time>2013-05-10T14:06:47Z</time>
      </trkpt>
      <trkpt lat="40.56327" lon="-1.03964">
        <ele>1068.653</ele>
        <time>2013-05-10T14:06:36Z</time>
      </trkpt>
      <trkpt lat="40.56388" lon="-1.04039">
        <ele>1070.125</ele>
        <time>2013-05-10T14:06:25Z</time>
      </trkpt>
      <trkpt lat="40.56395" lon="-1.04045">
        <ele>1070.12</ele>
        <time>2013-05-10T14:06:24Z</time>
      </trkpt>
      <trkpt lat="40.564" lon="-1.04051">
        <ele>1070.687</ele>
        <time>2013-05-10T14:06:23Z</time>
      </trkpt>
      <trkpt lat="40.56406" lon="-1.04058">
        <ele>1070.654</ele>
        <time>2013-05-10T14:06:22Z</time>
      </trkpt>
      <trkpt lat="40.5641" lon="-1.04066">
        <ele>1070.622</ele>
        <time>2013-05-10T14:06:21Z</time>
      </trkpt>
      <trkpt lat="40.56425" lon="-1.041">
        <ele>1071.525</ele>
        <time>2013-05-10T14:06:17Z</time>
      </trkpt>
      <trkpt lat="40.56449" lon="-1.04184">
        <ele>1073.047</ele>
        <time>2013-05-10T14:06:08Z</time>
      </trkpt>
      <trkpt lat="40.56451" lon="-1.04193">
        <ele>1073.029</ele>
        <time>2013-05-10T14:06:07Z</time>
      </trkpt>
      <trkpt lat="40.56453" lon="-1.04201">
        <ele>1073.021</ele>
        <time>2013-05-10T14:06:06Z</time>
      </trkpt>
      <trkpt lat="40.56457" lon="-1.04211">
        <ele>1073.008</ele>
        <time>2013-05-10T14:06:05Z</time>
      </trkpt>
      <trkpt lat="40.56461" lon="-1.0422">
        <ele>1073.535</ele>
        <time>2013-05-10T14:06:04Z</time>
      </trkpt>
      <trkpt lat="40.56497" lon="-1.04275">
        <ele>1074.976</ele>
        <time>2013-05-10T14:05:57Z</time>
      </trkpt>
      <trkpt lat="40.56502" lon="-1.04283">
        <ele>1074.988</ele>
        <time>2013-05-10T14:05:56Z</time>
      </trkpt>
      <trkpt lat="40.56507" lon="-1.04292">
        <ele>1075.473</ele>
        <time>2013-05-10T14:05:55Z</time>
      </trkpt>
      <trkpt lat="40.5651" lon="-1.04301">
        <ele>1075.42</ele>
        <time>2013-05-10T14:05:54Z</time>
      </trkpt>
      <trkpt lat="40.56513" lon="-1.04311">
        <ele>1076.397</ele>
        <time>2013-05-10T14:05:53Z</time>
      </trkpt>
      <trkpt lat="40.56526" lon="-1.04393">
        <ele>1077.335</ele>
        <time>2013-05-10T14:05:43Z</time>
      </trkpt>
      <trkpt lat="40.56574" lon="-1.04482">
        <ele>1078.788</ele>
        <time>2013-05-10T14:05:32Z</time>
      </trkpt>
      <trkpt lat="40.5661" lon="-1.04563">
        <ele>1080.736</ele>
        <time>2013-05-10T14:05:23Z</time>
      </trkpt>
      <trkpt lat="40.56612" lon="-1.04573">
        <ele>1080.717</ele>
        <time>2013-05-10T14:05:22Z</time>
      </trkpt>
      <trkpt lat="40.56615" lon="-1.04583">
        <ele>1081.618</ele>
        <time>2013-05-10T14:05:21Z</time>
      </trkpt>
      <trkpt lat="40.56619" lon="-1.04592">
        <ele>1081.608</ele>
        <time>2013-05-10T14:05:20Z</time>
      </trkpt>
      <trkpt lat="40.56624" lon="-1.04601">
        <ele>1082.194</ele>
        <time>2013-05-10T14:05:19Z</time>
      </trkpt>
      <trkpt lat="40.56629" lon="-1.0461">
        <ele>1083.175</ele>
        <time>2013-05-10T14:05:18Z</time>
      </trkpt>
      <trkpt lat="40.56656" lon="-1.04636">
        <ele>1085.587</ele>
        <time>2013-05-10T14:05:14Z</time>
      </trkpt>
      <trkpt lat="40.5669" lon="-1.04661">
        <ele>1089.322</ele>
        <time>2013-05-10T14:05:10Z</time>
      </trkpt>
      <trkpt lat="40.56698" lon="-1.04667">
        <ele>1090.349</ele>
        <time>2013-05-10T14:05:09Z</time>
      </trkpt>
      <trkpt lat="40.56707" lon="-1.04671">
        <ele>1091.216</ele>
        <time>2013-05-10T14:05:08Z</time>
      </trkpt>
      <trkpt lat="40.56742" lon="-1.04678">
        <ele>1094.684</ele>
        <time>2013-05-10T14:05:04Z</time>
      </trkpt>
      <trkpt lat="40.56779" lon="-1.04683">
        <ele>1098.027</ele>
        <time>2013-05-10T14:05:00Z</time>
      </trkpt>
      <trkpt lat="40.56797" lon="-1.04687">
        <ele>1098.451</ele>
        <time>2013-05-10T14:04:58Z</time>
      </trkpt>
      <trkpt lat="40.56873" lon="-1.04725">
        <ele>1101.801</ele>
        <time>2013-05-10T14:04:49Z</time>
      </trkpt>
      <trkpt lat="40.56903" lon="-1.04743">
        <ele>1103.311</ele>
        <time>2013-05-10T14:04:45Z</time>
      </trkpt>
      <trkpt lat="40.56952" lon="-1.04774">
        <ele>1106.108</ele>
        <time>2013-05-10T14:04:37Z</time>
      </trkpt>
      <trkpt lat="40.56989" lon="-1.04803">
        <ele>1107.656</ele>
        <time>2013-05-10T14:04:27Z</time>
      </trkpt>
      <trkpt lat="40.57036" lon="-1.04845">
        <ele>1108.517</ele>
        <time>2013-05-10T14:04:11Z</time>
      </trkpt>
      <trkpt lat="40.57064" lon="-1.04869">
        <ele>1108.579</ele>
        <time>2013-05-10T14:04:01Z</time>
      </trkpt>
      <trkpt lat="40.57089" lon="-1.0489">
        <ele>1110.034</ele>
        <time>2013-05-10T14:03:50Z</time>
      </trkpt>
      <trkpt lat="40.57099" lon="-1.04898">
        <ele>1110.021</ele>
        <time>2013-05-10T14:03:39Z</time>
      </trkpt>
      <trkpt lat="40.57102" lon="-1.04898">
        <ele>1110.068</ele>
        <time>2013-05-10T14:03:30Z</time>
      </trkpt>
      <trkpt lat="40.57103" lon="-1.04897">
        <ele>1110.066</ele>
        <time>2013-05-10T14:02:31Z</time>
      </trkpt>
      <trkpt lat="40.57104" lon="-1.04897">
        <ele>1110.029</ele>
        <time>2013-05-10T14:02:06Z</time>
      </trkpt>
      <trkpt lat="40.57104" lon="-1.04899">
        <ele>1110.065</ele>
        <time>2013-05-10T14:01:52Z</time>
      </trkpt>
      <trkpt lat="40.5711" lon="-1.04911">
        <ele>1110.068</ele>
        <time>2013-05-10T14:01:40Z</time>
      </trkpt>
      <trkpt lat="40.57125" lon="-1.04923">
        <ele>1110.014</ele>
        <time>2013-05-10T14:01:30Z</time>
      </trkpt>
      <trkpt lat="40.57145" lon="-1.04939">
        <ele>1109.508</ele>
        <time>2013-05-10T14:01:20Z</time>
      </trkpt>
      <trkpt lat="40.57181" lon="-1.04969">
        <ele>1108.147</ele>
        <time>2013-05-10T14:01:10Z</time>
      </trkpt>
      <trkpt lat="40.57236" lon="-1.05013">
        <ele>1108.198</ele>
        <time>2013-05-10T14:00:57Z</time>
      </trkpt>
      <trkpt lat="40.57307" lon="-1.05057">
        <ele>1109.53</ele>
        <time>2013-05-10T14:00:42Z</time>
      </trkpt>
      <trkpt lat="40.57367" lon="-1.05088">
        <ele>1109.565</ele>
        <time>2013-05-10T14:00:29Z</time>
      </trkpt>
      <trkpt lat="40.57428" lon="-1.05122">
        <ele>1109.572</ele>
        <time>2013-05-10T14:00:15Z</time>
      </trkpt>
      <trkpt lat="40.5748" lon="-1.05154">
        <ele>1108.149</ele>
        <time>2013-05-10T14:00:02Z</time>
      </trkpt>
      <trkpt lat="40.57541" lon="-1.05205">
        <ele>1108.147</ele>
        <time>2013-05-10T13:59:47Z</time>
      </trkpt>
      <trkpt lat="40.57599" lon="-1.05238">
        <ele>1108.57</ele>
        <time>2013-05-10T13:59:35Z</time>
      </trkpt>
      <trkpt lat="40.57612" lon="-1.05247">
        <ele>1108.547</ele>
        <time>2013-05-10T13:59:32Z</time>
      </trkpt>
      <trkpt lat="40.57667" lon="-1.05323">
        <ele>1108.529</ele>
        <time>2013-05-10T13:59:16Z</time>
      </trkpt>
      <trkpt lat="40.57702" lon="-1.05384">
        <ele>1108.521</ele>
        <time>2013-05-10T13:59:03Z</time>
      </trkpt>
      <trkpt lat="40.57734" lon="-1.05438">
        <ele>1108.508</ele>
        <time>2013-05-10T13:58:51Z</time>
      </trkpt>
      <trkpt lat="40.57737" lon="-1.05442">
        <ele>1108.585</ele>
        <time>2013-05-10T13:58:50Z</time>
      </trkpt>
      <trkpt lat="40.5774" lon="-1.05446">
        <ele>1108.526</ele>
        <time>2013-05-10T13:58:49Z</time>
      </trkpt>
      <trkpt lat="40.57764" lon="-1.05476">
        <ele>1108.588</ele>
        <time>2013-05-10T13:58:41Z</time>
      </trkpt>
      <trkpt lat="40.57786" lon="-1.05496">
        <ele>1108.563</ele>
        <time>2013-05-10T13:58:35Z</time>
      </trkpt>
      <trkpt lat="40.57825" lon="-1.05524">
        <ele>1108.51</ele>
        <time>2013-05-10T13:58:24Z</time>
      </trkpt>
      <trkpt lat="40.57872" lon="-1.05563">
        <ele>1108.567</ele>
        <time>2013-05-10T13:58:12Z</time>
      </trkpt>
      <trkpt lat="40.57896" lon="-1.05579">
        <ele>1109.035</ele>
        <time>2013-05-10T13:58:07Z</time>
      </trkpt>
      <trkpt lat="40.57955" lon="-1.05617">
        <ele>1110.598</ele>
        <time>2013-05-10T13:57:55Z</time>
      </trkpt>
      <trkpt lat="40.57964" lon="-1.05624">
        <ele>1110.533</ele>
        <time>2013-05-10T13:57:53Z</time>
      </trkpt>
      <trkpt lat="40.58028" lon="-1.05663">
        <ele>1111.423</ele>
        <time>2013-05-10T13:57:40Z</time>
      </trkpt>
      <trkpt lat="40.58044" lon="-1.05672">
        <ele>1110.915</ele>
        <time>2013-05-10T13:57:37Z</time>
      </trkpt>
      <trkpt lat="40.58093" lon="-1.05708">
        <ele>1112.408</ele>
        <time>2013-05-10T13:57:27Z</time>
      </trkpt>
      <trkpt lat="40.58149" lon="-1.05749">
        <ele>1112.924</ele>
        <time>2013-05-10T13:57:15Z</time>
      </trkpt>
      <trkpt lat="40.58219" lon="-1.058">
        <ele>1113.815</ele>
        <time>2013-05-10T13:57:02Z</time>
      </trkpt>
      <trkpt lat="40.58288" lon="-1.05858">
        <ele>1115.397</ele>
        <time>2013-05-10T13:56:49Z</time>
      </trkpt>
      <trkpt lat="40.58349" lon="-1.05919">
        <ele>1116.262</ele>
        <time>2013-05-10T13:56:37Z</time>
      </trkpt>
      <trkpt lat="40.58408" lon="-1.05998">
        <ele>1117.769</ele>
        <time>2013-05-10T13:56:23Z</time>
      </trkpt>
      <trkpt lat="40.5846" lon="-1.06087">
        <ele>1118.276</ele>
        <time>2013-05-10T13:56:07Z</time>
      </trkpt>
      <trkpt lat="40.58499" lon="-1.06177">
        <ele>1119.164</ele>
        <time>2013-05-10T13:55:52Z</time>
      </trkpt>
      <trkpt lat="40.58507" lon="-1.06204">
        <ele>1119.127</ele>
        <time>2013-05-10T13:55:48Z</time>
      </trkpt>
      <trkpt lat="40.58535" lon="-1.06294">
        <ele>1119.665</ele>
        <time>2013-05-10T13:55:36Z</time>
      </trkpt>
      <trkpt lat="40.58572" lon="-1.06403">
        <ele>1121.068</ele>
        <time>2013-05-10T13:55:23Z</time>
      </trkpt>
      <trkpt lat="40.58584" lon="-1.06426">
        <ele>1121.014</ele>
        <time>2013-05-10T13:55:20Z</time>
      </trkpt>
      <trkpt lat="40.58588" lon="-1.06434">
        <ele>1121.008</ele>
        <time>2013-05-10T13:55:19Z</time>
      </trkpt>
      <trkpt lat="40.5861" lon="-1.06469">
        <ele>1121.047</ele>
        <time>2013-05-10T13:55:14Z</time>
      </trkpt>
      <trkpt lat="40.58667" lon="-1.06558">
        <ele>1123.038</ele>
        <time>2013-05-10T13:55:01Z</time>
      </trkpt>
      <trkpt lat="40.58686" lon="-1.06584">
        <ele>1123.06</ele>
        <time>2013-05-10T13:54:57Z</time>
      </trkpt>
      <trkpt lat="40.58739" lon="-1.06648">
        <ele>1124.445</ele>
        <time>2013-05-10T13:54:47Z</time>
      </trkpt>
      <trkpt lat="40.58803" lon="-1.06751">
        <ele>1125.872</ele>
        <time>2013-05-10T13:54:34Z</time>
      </trkpt>
      <trkpt lat="40.58856" lon="-1.06806">
        <ele>1126.399</ele>
        <time>2013-05-10T13:54:26Z</time>
      </trkpt>
      <trkpt lat="40.58932" lon="-1.06871">
        <ele>1128.217</ele>
        <time>2013-05-10T13:54:16Z</time>
      </trkpt>
      <trkpt lat="40.59028" lon="-1.06945">
        <ele>1131.61</ele>
        <time>2013-05-10T13:54:04Z</time>
      </trkpt>
      <trkpt lat="40.59124" lon="-1.0702">
        <ele>1135.013</ele>
        <time>2013-05-10T13:53:51Z</time>
      </trkpt>
      <trkpt lat="40.59214" lon="-1.07112">
        <ele>1137.943</ele>
        <time>2013-05-10T13:53:37Z</time>
      </trkpt>
      <trkpt lat="40.59297" lon="-1.07193">
        <ele>1139.807</ele>
        <time>2013-05-10T13:53:22Z</time>
      </trkpt>
      <trkpt lat="40.59348" lon="-1.07247">
        <ele>1140.308</ele>
        <time>2013-05-10T13:53:09Z</time>
      </trkpt>
      <trkpt lat="40.59394" lon="-1.073">
        <ele>1140.762</ele>
        <time>2013-05-10T13:52:54Z</time>
      </trkpt>
      <trkpt lat="40.59404" lon="-1.07313">
        <ele>1140.723</ele>
        <time>2013-05-10T13:52:51Z</time>
      </trkpt>
      <trkpt lat="40.59455" lon="-1.07375">
        <ele>1140.765</ele>
        <time>2013-05-10T13:52:38Z</time>
      </trkpt>
      <trkpt lat="40.5952" lon="-1.07461">
        <ele>1141.77</ele>
        <time>2013-05-10T13:52:23Z</time>
      </trkpt>
      <trkpt lat="40.59574" lon="-1.07535">
        <ele>1143.657</ele>
        <time>2013-05-10T13:52:11Z</time>
      </trkpt>
      <trkpt lat="40.59612" lon="-1.07613">
        <ele>1144.614</ele>
        <time>2013-05-10T13:52:00Z</time>
      </trkpt>
      <trkpt lat="40.59616" lon="-1.07621">
        <ele>1144.612</ele>
        <time>2013-05-10T13:51:59Z</time>
      </trkpt>
      <trkpt lat="40.59632" lon="-1.07652">
        <ele>1145.165</ele>
        <time>2013-05-10T13:51:55Z</time>
      </trkpt>
      <trkpt lat="40.59637" lon="-1.07659">
        <ele>1145.124</ele>
        <time>2013-05-10T13:51:54Z</time>
      </trkpt>
      <trkpt lat="40.59648" lon="-1.07674">
        <ele>1145.104</ele>
        <time>2013-05-10T13:51:52Z</time>
      </trkpt>
      <trkpt lat="40.59653" lon="-1.07681">
        <ele>1146.014</ele>
        <time>2013-05-10T13:51:51Z</time>
      </trkpt>
      <trkpt lat="40.59659" lon="-1.07687">
        <ele>1146.008</ele>
        <time>2013-05-10T13:51:50Z</time>
      </trkpt>
      <trkpt lat="40.59666" lon="-1.07694">
        <ele>1146.013</ele>
        <time>2013-05-10T13:51:49Z</time>
      </trkpt>
      <trkpt lat="40.59673" lon="-1.07699">
        <ele>1146.014</ele>
        <time>2013-05-10T13:51:48Z</time>
      </trkpt>
      <trkpt lat="40.59681" lon="-1.07703">
        <ele>1146.036</ele>
        <time>2013-05-10T13:51:47Z</time>
      </trkpt>
      <trkpt lat="40.59688" lon="-1.07705">
        <ele>1147.071</ele>
        <time>2013-05-10T13:51:46Z</time>
      </trkpt>
      <trkpt lat="40.59719" lon="-1.07704">
        <ele>1148.038</ele>
        <time>2013-05-10T13:51:42Z</time>
      </trkpt>
      <trkpt lat="40.59746" lon="-1.07709">
        <ele>1148.445</ele>
        <time>2013-05-10T13:51:38Z</time>
      </trkpt>
      <trkpt lat="40.59753" lon="-1.07711">
        <ele>1149.473</ele>
        <time>2013-05-10T13:51:37Z</time>
      </trkpt>
      <trkpt lat="40.59759" lon="-1.07714">
        <ele>1149.416</ele>
        <time>2013-05-10T13:51:36Z</time>
      </trkpt>
      <trkpt lat="40.5977" lon="-1.07721">
        <ele>1149.432</ele>
        <time>2013-05-10T13:51:34Z</time>
      </trkpt>
      <trkpt lat="40.59842" lon="-1.07785">
        <ele>1152.392</ele>
        <time>2013-05-10T13:51:20Z</time>
      </trkpt>
      <trkpt lat="40.59886" lon="-1.07838">
        <ele>1153.211</ele>
        <time>2013-05-10T13:51:08Z</time>
      </trkpt>
      <trkpt lat="40.5993" lon="-1.07885">
        <ele>1153.708</ele>
        <time>2013-05-10T13:50:57Z</time>
      </trkpt>
      <trkpt lat="40.60006" lon="-1.07924">
        <ele>1154.764</ele>
        <time>2013-05-10T13:50:44Z</time>
      </trkpt>
      <trkpt lat="40.60092" lon="-1.07956">
        <ele>1156.155</ele>
        <time>2013-05-10T13:50:32Z</time>
      </trkpt>
      <trkpt lat="40.60172" lon="-1.0797">
        <ele>1159.077</ele>
        <time>2013-05-10T13:50:22Z</time>
      </trkpt>
      <trkpt lat="40.60191" lon="-1.07977">
        <ele>1160.562</ele>
        <time>2013-05-10T13:50:19Z</time>
      </trkpt>
      <trkpt lat="40.6023" lon="-1.08012">
        <ele>1162.439</ele>
        <time>2013-05-10T13:50:10Z</time>
      </trkpt>
      <trkpt lat="40.60263" lon="-1.0804">
        <ele>1162.486</ele>
        <time>2013-05-10T13:50:02Z</time>
      </trkpt>
      <trkpt lat="40.60313" lon="-1.08078">
        <ele>1164.354</ele>
        <time>2013-05-10T13:49:50Z</time>
      </trkpt>
      <trkpt lat="40.60362" lon="-1.0812">
        <ele>1164.317</ele>
        <time>2013-05-10T13:49:37Z</time>
      </trkpt>
      <trkpt lat="40.60407" lon="-1.0815">
        <ele>1166.296</ele>
        <time>2013-05-10T13:49:27Z</time>
      </trkpt>
      <trkpt lat="40.60464" lon="-1.08185">
        <ele>1165.731</ele>
        <time>2013-05-10T13:49:12Z</time>
      </trkpt>
      <trkpt lat="40.60512" lon="-1.08217">
        <ele>1165.324</ele>
        <time>2013-05-10T13:49:00Z</time>
      </trkpt>
      <trkpt lat="40.6057" lon="-1.08257">
        <ele>1164.308</ele>
        <time>2013-05-10T13:48:50Z</time>
      </trkpt>
      <trkpt lat="40.60648" lon="-1.08317">
        <ele>1165.72</ele>
        <time>2013-05-10T13:48:40Z</time>
      </trkpt>
      <trkpt lat="40.60668" lon="-1.08327">
        <ele>1165.751</ele>
        <time>2013-05-10T13:48:38Z</time>
      </trkpt>
      <trkpt lat="40.60711" lon="-1.08344">
        <ele>1167.273</ele>
        <time>2013-05-10T13:48:34Z</time>
      </trkpt>
      <trkpt lat="40.60723" lon="-1.08348">
        <ele>1167.298</ele>
        <time>2013-05-10T13:48:33Z</time>
      </trkpt>
      <trkpt lat="40.60735" lon="-1.08352">
        <ele>1167.265</ele>
        <time>2013-05-10T13:48:32Z</time>
      </trkpt>
      <trkpt lat="40.60746" lon="-1.08358">
        <ele>1167.742</ele>
        <time>2013-05-10T13:48:31Z</time>
      </trkpt>
      <trkpt lat="40.60757" lon="-1.08365">
        <ele>1168.18</ele>
        <time>2013-05-10T13:48:30Z</time>
      </trkpt>
      <trkpt lat="40.60768" lon="-1.08373">
        <ele>1168.683</ele>
        <time>2013-05-10T13:48:29Z</time>
      </trkpt>
      <trkpt lat="40.60778" lon="-1.08383">
        <ele>1169.138</ele>
        <time>2013-05-10T13:48:28Z</time>
      </trkpt>
      <trkpt lat="40.60797" lon="-1.08406">
        <ele>1171.07</ele>
        <time>2013-05-10T13:48:26Z</time>
      </trkpt>
      <trkpt lat="40.60813" lon="-1.08432">
        <ele>1173.017</ele>
        <time>2013-05-10T13:48:24Z</time>
      </trkpt>
      <trkpt lat="40.60843" lon="-1.08486">
        <ele>1176.808</ele>
        <time>2013-05-10T13:48:20Z</time>
      </trkpt>
      <trkpt lat="40.60876" lon="-1.08533">
        <ele>1180.214</ele>
        <time>2013-05-10T13:48:16Z</time>
      </trkpt>
      <trkpt lat="40.60902" lon="-1.08578">
        <ele>1184.065</ele>
        <time>2013-05-10T13:48:12Z</time>
      </trkpt>
      <trkpt lat="40.60907" lon="-1.08589">
        <ele>1184.577</ele>
        <time>2013-05-10T13:48:11Z</time>
      </trkpt>
      <trkpt lat="40.60913" lon="-1.08599">
        <ele>1185.412</ele>
        <time>2013-05-10T13:48:10Z</time>
      </trkpt>
      <trkpt lat="40.60919" lon="-1.08607">
        <ele>1185.429</ele>
        <time>2013-05-10T13:48:09Z</time>
      </trkpt>
      <trkpt lat="40.60927" lon="-1.08614">
        <ele>1185.936</ele>
        <time>2013-05-10T13:48:08Z</time>
      </trkpt>
      <trkpt lat="40.60978" lon="-1.0863">
        <ele>1187.994</ele>
        <time>2013-05-10T13:48:02Z</time>
      </trkpt>
      <trkpt lat="40.60985" lon="-1.08632">
        <ele>1188.397</ele>
        <time>2013-05-10T13:48:01Z</time>
      </trkpt>
      <trkpt lat="40.60992" lon="-1.08636">
        <ele>1189.883</ele>
        <time>2013-05-10T13:48:00Z</time>
      </trkpt>
      <trkpt lat="40.61044" lon="-1.08687">
        <ele>1191.225</ele>
        <time>2013-05-10T13:47:50Z</time>
      </trkpt>
      <trkpt lat="40.611" lon="-1.08752">
        <ele>1191.717</ele>
        <time>2013-05-10T13:47:40Z</time>
      </trkpt>
      <trkpt lat="40.61143" lon="-1.08843">
        <ele>1192.708</ele>
        <time>2013-05-10T13:47:31Z</time>
      </trkpt>
      <trkpt lat="40.61149" lon="-1.08854">
        <ele>1192.739</ele>
        <time>2013-05-10T13:47:30Z</time>
      </trkpt>
      <trkpt lat="40.61157" lon="-1.08864">
        <ele>1193.12</ele>
        <time>2013-05-10T13:47:29Z</time>
      </trkpt>
      <trkpt lat="40.61239" lon="-1.08934">
        <ele>1194.672</ele>
        <time>2013-05-10T13:47:20Z</time>
      </trkpt>
      <trkpt lat="40.6125" lon="-1.08942">
        <ele>1194.627</ele>
        <time>2013-05-10T13:47:19Z</time>
      </trkpt>
      <trkpt lat="40.61326" lon="-1.09004">
        <ele>1197.984</ele>
        <time>2013-05-10T13:47:12Z</time>
      </trkpt>
      <trkpt lat="40.61338" lon="-1.09013">
        <ele>1198.421</ele>
        <time>2013-05-10T13:47:11Z</time>
      </trkpt>
      <trkpt lat="40.61349" lon="-1.09022">
        <ele>1199.459</ele>
        <time>2013-05-10T13:47:10Z</time>
      </trkpt>
      <trkpt lat="40.61359" lon="-1.09032">
        <ele>1200.382</ele>
        <time>2013-05-10T13:47:09Z</time>
      </trkpt>
      <trkpt lat="40.61369" lon="-1.09044">
        <ele>1201.358</ele>
        <time>2013-05-10T13:47:08Z</time>
      </trkpt>
      <trkpt lat="40.61377" lon="-1.09056">
        <ele>1202.352</ele>
        <time>2013-05-10T13:47:07Z</time>
      </trkpt>
      <trkpt lat="40.61402" lon="-1.09107">
        <ele>1206.117</ele>
        <time>2013-05-10T13:47:03Z</time>
      </trkpt>
      <trkpt lat="40.61421" lon="-1.09169">
        <ele>1209.508</ele>
        <time>2013-05-10T13:46:58Z</time>
      </trkpt>
      <trkpt lat="40.6145" lon="-1.09255">
        <ele>1212.826</ele>
        <time>2013-05-10T13:46:48Z</time>
      </trkpt>
      <trkpt lat="40.61453" lon="-1.09262">
        <ele>1212.897</ele>
        <time>2013-05-10T13:46:47Z</time>
      </trkpt>
      <trkpt lat="40.61479" lon="-1.09295">
        <ele>1213.399</ele>
        <time>2013-05-10T13:46:42Z</time>
      </trkpt>
      <trkpt lat="40.61485" lon="-1.09303">
        <ele>1213.394</ele>
        <time>2013-05-10T13:46:41Z</time>
      </trkpt>
      <trkpt lat="40.6153" lon="-1.09382">
        <ele>1214.311</ele>
        <time>2013-05-10T13:46:32Z</time>
      </trkpt>
      <trkpt lat="40.61548" lon="-1.0942">
        <ele>1215.768</ele>
        <time>2013-05-10T13:46:28Z</time>
      </trkpt>
      <trkpt lat="40.61585" lon="-1.09524">
        <ele>1218.656</ele>
        <time>2013-05-10T13:46:16Z</time>
      </trkpt>
      <trkpt lat="40.61589" lon="-1.09532">
        <ele>1218.699</ele>
        <time>2013-05-10T13:46:15Z</time>
      </trkpt>
      <trkpt lat="40.61592" lon="-1.09541">
        <ele>1218.635</ele>
        <time>2013-05-10T13:46:14Z</time>
      </trkpt>
      <trkpt lat="40.61595" lon="-1.09551">
        <ele>1218.686</ele>
        <time>2013-05-10T13:46:13Z</time>
      </trkpt>
      <trkpt lat="40.61597" lon="-1.09561">
        <ele>1218.614</ele>
        <time>2013-05-10T13:46:12Z</time>
      </trkpt>
      <trkpt lat="40.616" lon="-1.09655">
        <ele>1222.008</ele>
        <time>2013-05-10T13:46:03Z</time>
      </trkpt>
      <trkpt lat="40.61601" lon="-1.09663">
        <ele>1222.544</ele>
        <time>2013-05-10T13:46:02Z</time>
      </trkpt>
      <trkpt lat="40.61615" lon="-1.09713">
        <ele>1223.945</ele>
        <time>2013-05-10T13:45:55Z</time>
      </trkpt>
      <trkpt lat="40.61644" lon="-1.09776">
        <ele>1224.457</ele>
        <time>2013-05-10T13:45:43Z</time>
      </trkpt>
      <trkpt lat="40.61654" lon="-1.0979">
        <ele>1224.452</ele>
        <time>2013-05-10T13:45:40Z</time>
      </trkpt>
      <trkpt lat="40.6169" lon="-1.09823">
        <ele>1224.419</ele>
        <time>2013-05-10T13:45:31Z</time>
      </trkpt>
      <trkpt lat="40.61697" lon="-1.0983">
        <ele>1224.436</ele>
        <time>2013-05-10T13:45:29Z</time>
      </trkpt>
      <trkpt lat="40.61742" lon="-1.09884">
        <ele>1224.464</ele>
        <time>2013-05-10T13:45:16Z</time>
      </trkpt>
      <trkpt lat="40.61764" lon="-1.09928">
        <ele>1224.457</ele>
        <time>2013-05-10T13:45:06Z</time>
      </trkpt>
      <trkpt lat="40.61785" lon="-1.09973">
        <ele>1224.487</ele>
        <time>2013-05-10T13:44:56Z</time>
      </trkpt>
      <trkpt lat="40.6181" lon="-1.10018">
        <ele>1224.942</ele>
        <time>2013-05-10T13:44:44Z</time>
      </trkpt>
      <trkpt lat="40.61849" lon="-1.10062">
        <ele>1224.926</ele>
        <time>2013-05-10T13:44:32Z</time>
      </trkpt>
      <trkpt lat="40.61857" lon="-1.1007">
        <ele>1224.908</ele>
        <time>2013-05-10T13:44:30Z</time>
      </trkpt>
      <trkpt lat="40.61905" lon="-1.10114">
        <ele>1225.879</ele>
        <time>2013-05-10T13:44:19Z</time>
      </trkpt>
      <trkpt lat="40.61983" lon="-1.10186">
        <ele>1227.78</ele>
        <time>2013-05-10T13:44:04Z</time>
      </trkpt>
      <trkpt lat="40.62048" lon="-1.10257">
        <ele>1230.112</ele>
        <time>2013-05-10T13:43:51Z</time>
      </trkpt>
      <trkpt lat="40.62052" lon="-1.10263">
        <ele>1230.117</ele>
        <time>2013-05-10T13:43:50Z</time>
      </trkpt>
      <trkpt lat="40.62071" lon="-1.10302">
        <ele>1230.644</ele>
        <time>2013-05-10T13:43:44Z</time>
      </trkpt>
      <trkpt lat="40.62109" lon="-1.1038">
        <ele>1230.681</ele>
        <time>2013-05-10T13:43:32Z</time>
      </trkpt>
      <trkpt lat="40.62168" lon="-1.10482">
        <ele>1232.189</ele>
        <time>2013-05-10T13:43:16Z</time>
      </trkpt>
      <trkpt lat="40.62205" lon="-1.10575">
        <ele>1232.152</ele>
        <time>2013-05-10T13:43:00Z</time>
      </trkpt>
      <trkpt lat="40.62236" lon="-1.10667">
        <ele>1232.618</ele>
        <time>2013-05-10T13:42:44Z</time>
      </trkpt>
      <trkpt lat="40.62256" lon="-1.10712">
        <ele>1233.098</ele>
        <time>2013-05-10T13:42:35Z</time>
      </trkpt>
      <trkpt lat="40.62258" lon="-1.10718">
        <ele>1233.017</ele>
        <time>2013-05-10T13:42:34Z</time>
      </trkpt>
      <trkpt lat="40.62283" lon="-1.10773">
        <ele>1234.008</ele>
        <time>2013-05-10T13:42:24Z</time>
      </trkpt>
      <trkpt lat="40.62317" lon="-1.10849">
        <ele>1235.082</ele>
        <time>2013-05-10T13:42:11Z</time>
      </trkpt>
      <trkpt lat="40.62352" lon="-1.1093">
        <ele>1237.413</ele>
        <time>2013-05-10T13:41:57Z</time>
      </trkpt>
      <trkpt lat="40.62389" lon="-1.10999">
        <ele>1237.875</ele>
        <time>2013-05-10T13:41:43Z</time>
      </trkpt>
      <trkpt lat="40.62409" lon="-1.11026">
        <ele>1239.32</ele>
        <time>2013-05-10T13:41:36Z</time>
      </trkpt>
      <trkpt lat="40.62435" lon="-1.11059">
        <ele>1239.387</ele>
        <time>2013-05-10T13:41:24Z</time>
      </trkpt>
      <trkpt lat="40.62467" lon="-1.11103">
        <ele>1238.314</ele>
        <time>2013-05-10T13:41:10Z</time>
      </trkpt>
      <trkpt lat="40.62492" lon="-1.11146">
        <ele>1237.892</ele>
        <time>2013-05-10T13:40:58Z</time>
      </trkpt>
      <trkpt lat="40.62525" lon="-1.11206">
        <ele>1237.485</ele>
        <time>2013-05-10T13:40:43Z</time>
      </trkpt>
      <trkpt lat="40.62555" lon="-1.11261">
        <ele>1237.475</ele>
        <time>2013-05-10T13:40:29Z</time>
      </trkpt>
      <trkpt lat="40.62585" lon="-1.11342">
        <ele>1236.428</ele>
        <time>2013-05-10T13:40:11Z</time>
      </trkpt>
      <trkpt lat="40.62616" lon="-1.11426">
        <ele>1236.42</ele>
        <time>2013-05-10T13:39:54Z</time>
      </trkpt>
      <trkpt lat="40.62647" lon="-1.11503">
        <ele>1236.908</ele>
        <time>2013-05-10T13:39:39Z</time>
      </trkpt>
      <trkpt lat="40.62669" lon="-1.11575">
        <ele>1237.868</ele>
        <time>2013-05-10T13:39:27Z</time>
      </trkpt>
      <trkpt lat="40.6267" lon="-1.11581">
        <ele>1237.899</ele>
        <time>2013-05-10T13:39:26Z</time>
      </trkpt>
      <trkpt lat="40.62676" lon="-1.11634">
        <ele>1239.311</ele>
        <time>2013-05-10T13:39:17Z</time>
      </trkpt>
      <trkpt lat="40.62677" lon="-1.1164">
        <ele>1239.336</ele>
        <time>2013-05-10T13:39:16Z</time>
      </trkpt>
      <trkpt lat="40.62682" lon="-1.1166">
        <ele>1239.333</ele>
        <time>2013-05-10T13:39:12Z</time>
      </trkpt>
      <trkpt lat="40.62688" lon="-1.11679">
        <ele>1239.87</ele>
        <time>2013-05-10T13:39:08Z</time>
      </trkpt>
      <trkpt lat="40.62704" lon="-1.11728">
        <ele>1240.258</ele>
        <time>2013-05-10T13:38:55Z</time>
      </trkpt>
      <trkpt lat="40.62714" lon="-1.11762">
        <ele>1241.251</ele>
        <time>2013-05-10T13:38:43Z</time>
      </trkpt>
      <trkpt lat="40.62715" lon="-1.11765">
        <ele>1241.236</ele>
        <time>2013-05-10T13:38:42Z</time>
      </trkpt>
      <trkpt lat="40.62716" lon="-1.11767">
        <ele>1241.217</ele>
        <time>2013-05-10T13:38:41Z</time>
      </trkpt>
      <trkpt lat="40.62716" lon="-1.11769">
        <ele>1241.218</ele>
        <time>2013-05-10T13:38:40Z</time>
      </trkpt>
      <trkpt lat="40.62716" lon="-1.11771">
        <ele>1241.208</ele>
        <time>2013-05-10T13:38:39Z</time>
      </trkpt>
      <trkpt lat="40.62723" lon="-1.11786">
        <ele>1241.254</ele>
        <time>2013-05-10T13:38:31Z</time>
      </trkpt>
      <trkpt lat="40.62734" lon="-1.11824">
        <ele>1240.765</ele>
        <time>2013-05-10T13:38:19Z</time>
      </trkpt>
      <trkpt lat="40.62759" lon="-1.11882">
        <ele>1240.287</ele>
        <time>2013-05-10T13:38:04Z</time>
      </trkpt>
      <trkpt lat="40.62777" lon="-1.11927">
        <ele>1239.892</ele>
        <time>2013-05-10T13:37:50Z</time>
      </trkpt>
      <trkpt lat="40.62792" lon="-1.11966">
        <ele>1237.829</ele>
        <time>2013-05-10T13:37:36Z</time>
      </trkpt>
      <trkpt lat="40.62808" lon="-1.12007">
        <ele>1236.496</ele>
        <time>2013-05-10T13:37:23Z</time>
      </trkpt>
      <trkpt lat="40.62828" lon="-1.12046">
        <ele>1235.064</ele>
        <time>2013-05-10T13:37:09Z</time>
      </trkpt>
      <trkpt lat="40.62852" lon="-1.12085">
        <ele>1233.057</ele>
        <time>2013-05-10T13:36:53Z</time>
      </trkpt>
      <trkpt lat="40.62875" lon="-1.12111">
        <ele>1231.687</ele>
        <time>2013-05-10T13:36:40Z</time>
      </trkpt>
      <trkpt lat="40.62905" lon="-1.1214">
        <ele>1229.742</ele>
        <time>2013-05-10T13:36:27Z</time>
      </trkpt>
      <trkpt lat="40.62951" lon="-1.12179">
        <ele>1228.226</ele>
        <time>2013-05-10T13:36:09Z</time>
      </trkpt>
      <trkpt lat="40.62981" lon="-1.12207">
        <ele>1226.808</ele>
        <time>2013-05-10T13:35:55Z</time>
      </trkpt>
      <trkpt lat="40.63008" lon="-1.12231">
        <ele>1225.349</ele>
        <time>2013-05-10T13:35:42Z</time>
      </trkpt>
      <trkpt lat="40.63031" lon="-1.12252">
        <ele>1223.93</ele>
        <time>2013-05-10T13:35:30Z</time>
      </trkpt>
      <trkpt lat="40.63057" lon="-1.1228">
        <ele>1222.052</ele>
        <time>2013-05-10T13:35:16Z</time>
      </trkpt>
      <trkpt lat="40.63086" lon="-1.12312">
        <ele>1221.027</ele>
        <time>2013-05-10T13:35:02Z</time>
      </trkpt>
      <trkpt lat="40.63121" lon="-1.12341">
        <ele>1218.664</ele>
        <time>2013-05-10T13:34:48Z</time>
      </trkpt>
      <trkpt lat="40.63176" lon="-1.12382">
        <ele>1217.291</ele>
        <time>2013-05-10T13:34:31Z</time>
      </trkpt>
      <trkpt lat="40.63219" lon="-1.12425">
        <ele>1216.799</ele>
        <time>2013-05-10T13:34:17Z</time>
      </trkpt>
      <trkpt lat="40.63262" lon="-1.12476">
        <ele>1215.232</ele>
        <time>2013-05-10T13:34:02Z</time>
      </trkpt>
      <trkpt lat="40.63302" lon="-1.12532">
        <ele>1214.889</ele>
        <time>2013-05-10T13:33:48Z</time>
      </trkpt>
      <trkpt lat="40.6335" lon="-1.12608">
        <ele>1213.306</ele>
        <time>2013-05-10T13:33:32Z</time>
      </trkpt>
      <trkpt lat="40.63402" lon="-1.12692">
        <ele>1213.326</ele>
        <time>2013-05-10T13:33:16Z</time>
      </trkpt>
      <trkpt lat="40.63456" lon="-1.12741">
        <ele>1213.308</ele>
        <time>2013-05-10T13:33:04Z</time>
      </trkpt>
      <trkpt lat="40.63461" lon="-1.12745">
        <ele>1213.379</ele>
        <time>2013-05-10T13:33:03Z</time>
      </trkpt>
      <trkpt lat="40.63515" lon="-1.12823">
        <ele>1213.39</ele>
        <time>2013-05-10T13:32:50Z</time>
      </trkpt>
      <trkpt lat="40.63576" lon="-1.12921">
        <ele>1213.362</ele>
        <time>2013-05-10T13:32:36Z</time>
      </trkpt>
      <trkpt lat="40.63672" lon="-1.13067">
        <ele>1215.767</ele>
        <time>2013-05-10T13:32:16Z</time>
      </trkpt>
      <trkpt lat="40.63734" lon="-1.13166">
        <ele>1217.784</ele>
        <time>2013-05-10T13:32:02Z</time>
      </trkpt>
      <trkpt lat="40.63791" lon="-1.13274">
        <ele>1219.171</ele>
        <time>2013-05-10T13:31:46Z</time>
      </trkpt>
      <trkpt lat="40.63833" lon="-1.13346">
        <ele>1220.159</ele>
        <time>2013-05-10T13:31:33Z</time>
      </trkpt>
      <trkpt lat="40.63863" lon="-1.13392">
        <ele>1220.192</ele>
        <time>2013-05-10T13:31:21Z</time>
      </trkpt>
      <trkpt lat="40.63865" lon="-1.13394">
        <ele>1220.176</ele>
        <time>2013-05-10T13:31:20Z</time>
      </trkpt>
      <trkpt lat="40.63867" lon="-1.13397">
        <ele>1220.19</ele>
        <time>2013-05-10T13:31:19Z</time>
      </trkpt>
      <trkpt lat="40.63869" lon="-1.13399">
        <ele>1220.519</ele>
        <time>2013-05-10T13:31:18Z</time>
      </trkpt>
      <trkpt lat="40.63871" lon="-1.13402">
        <ele>1220.508</ele>
        <time>2013-05-10T13:31:17Z</time>
      </trkpt>
      <trkpt lat="40.63871" lon="-1.13405">
        <ele>1220.538</ele>
        <time>2013-05-10T13:31:16Z</time>
      </trkpt>
      <trkpt lat="40.63871" lon="-1.13408">
        <ele>1221.079</ele>
        <time>2013-05-10T13:31:15Z</time>
      </trkpt>
      <trkpt lat="40.63871" lon="-1.13411">
        <ele>1221.091</ele>
        <time>2013-05-10T13:31:14Z</time>
      </trkpt>
      <trkpt lat="40.63871" lon="-1.13412">
        <ele>1221.056</ele>
        <time>2013-05-10T13:31:13Z</time>
      </trkpt>
      <trkpt lat="40.63871" lon="-1.13414">
        <ele>1221.033</ele>
        <time>2013-05-10T13:31:12Z</time>
      </trkpt>
      <trkpt lat="40.63872" lon="-1.13416">
        <ele>1221.02</ele>
        <time>2013-05-10T13:31:04Z</time>
      </trkpt>
      <trkpt lat="40.6387" lon="-1.13416">
        <ele>1221.098</ele>
        <time>2013-05-10T13:30:43Z</time>
      </trkpt>
      <trkpt lat="40.63871" lon="-1.13417">
        <ele>1221.031</ele>
        <time>2013-05-10T13:30:34Z</time>
      </trkpt>
      <trkpt lat="40.63884" lon="-1.13434">
        <ele>1221.572</ele>
        <time>2013-05-10T13:30:27Z</time>
      </trkpt>
      <trkpt lat="40.63899" lon="-1.13468">
        <ele>1221.513</ele>
        <time>2013-05-10T13:30:17Z</time>
      </trkpt>
      <trkpt lat="40.6394" lon="-1.13501">
        <ele>1222.014</ele>
        <time>2013-05-10T13:30:05Z</time>
      </trkpt>
      <trkpt lat="40.63993" lon="-1.13537">
        <ele>1224.408</ele>
        <time>2013-05-10T13:29:54Z</time>
      </trkpt>
      <trkpt lat="40.64036" lon="-1.13569">
        <ele>1227.748</ele>
        <time>2013-05-10T13:29:47Z</time>
      </trkpt>
      <trkpt lat="40.64072" lon="-1.13594">
        <ele>1231.169</ele>
        <time>2013-05-10T13:29:42Z</time>
      </trkpt>
      <trkpt lat="40.64112" lon="-1.13623">
        <ele>1234.571</ele>
        <time>2013-05-10T13:29:36Z</time>
      </trkpt>
      <trkpt lat="40.64149" lon="-1.13654">
        <ele>1237.846</ele>
        <time>2013-05-10T13:29:30Z</time>
      </trkpt>
      <trkpt lat="40.64192" lon="-1.13696">
        <ele>1240.773</ele>
        <time>2013-05-10T13:29:19Z</time>
      </trkpt>
      <trkpt lat="40.64234" lon="-1.13744">
        <ele>1242.63</ele>
        <time>2013-05-10T13:29:07Z</time>
      </trkpt>
      <trkpt lat="40.64256" lon="-1.13769">
        <ele>1244.128</ele>
        <time>2013-05-10T13:29:01Z</time>
      </trkpt>
      <trkpt lat="40.64274" lon="-1.138">
        <ele>1246.091</ele>
        <time>2013-05-10T13:28:52Z</time>
      </trkpt>
      <trkpt lat="40.64288" lon="-1.13821">
        <ele>1247.599</ele>
        <time>2013-05-10T13:28:44Z</time>
      </trkpt>
      <trkpt lat="40.64289" lon="-1.13823">
        <ele>1247.507</ele>
        <time>2013-05-10T13:28:43Z</time>
      </trkpt>
      <trkpt lat="40.6429" lon="-1.13824">
        <ele>1247.527</ele>
        <time>2013-05-10T13:28:41Z</time>
      </trkpt>
      <trkpt lat="40.64291" lon="-1.13824">
        <ele>1247.908</ele>
        <time>2013-05-10T13:28:11Z</time>
      </trkpt>
      <trkpt lat="40.64292" lon="-1.13825">
        <ele>1247.95</ele>
        <time>2013-05-10T13:28:10Z</time>
      </trkpt>
      <trkpt lat="40.64293" lon="-1.13827">
        <ele>1247.931</ele>
        <time>2013-05-10T13:28:09Z</time>
      </trkpt>
      <trkpt lat="40.64294" lon="-1.13829">
        <ele>1248.453</ele>
        <time>2013-05-10T13:28:08Z</time>
      </trkpt>
      <trkpt lat="40.64302" lon="-1.13839">
        <ele>1248.988</ele>
        <time>2013-05-10T13:28:00Z</time>
      </trkpt>
      <trkpt lat="40.64314" lon="-1.13848">
        <ele>1250.395</ele>
        <time>2013-05-10T13:27:54Z</time>
      </trkpt>
      <trkpt lat="40.64316" lon="-1.1385">
        <ele>1250.332</ele>
        <time>2013-05-10T13:27:53Z</time>
      </trkpt>
      <trkpt lat="40.64318" lon="-1.13851">
        <ele>1250.31</ele>
        <time>2013-05-10T13:27:52Z</time>
      </trkpt>
      <trkpt lat="40.64318" lon="-1.13853">
        <ele>1250.383</ele>
        <time>2013-05-10T13:27:51Z</time>
      </trkpt>
      <trkpt lat="40.64319" lon="-1.13855">
        <ele>1250.381</ele>
        <time>2013-05-10T13:27:50Z</time>
      </trkpt>
      <trkpt lat="40.6432" lon="-1.13856">
        <ele>1250.361</ele>
        <time>2013-05-10T13:27:43Z</time>
      </trkpt>
      <trkpt lat="40.64325" lon="-1.1386">
        <ele>1250.317</ele>
        <time>2013-05-10T13:27:20Z</time>
      </trkpt>
      <trkpt lat="40.64324" lon="-1.13866">
        <ele>1250.308</ele>
        <time>2013-05-10T13:27:12Z</time>
      </trkpt>
      <trkpt lat="40.64322" lon="-1.13867">
        <ele>1249.939</ele>
        <time>2013-05-10T13:27:11Z</time>
      </trkpt>
      <trkpt lat="40.64321" lon="-1.13877">
        <ele>1249.98</ele>
        <time>2013-05-10T13:27:06Z</time>
      </trkpt>
      <trkpt lat="40.64321" lon="-1.13879">
        <ele>1249.972</ele>
        <time>2013-05-10T13:27:05Z</time>
      </trkpt>
      <trkpt lat="40.64322" lon="-1.1388">
        <ele>1249.977</ele>
        <time>2013-05-10T13:27:04Z</time>
      </trkpt>
      <trkpt lat="40.64322" lon="-1.13881">
        <ele>1249.464</ele>
        <time>2013-05-10T13:27:03Z</time>
      </trkpt>
      <trkpt lat="40.64323" lon="-1.13883">
        <ele>1249.491</ele>
        <time>2013-05-10T13:27:02Z</time>
      </trkpt>
      <trkpt lat="40.64324" lon="-1.13884">
        <ele>1249.429</ele>
        <time>2013-05-10T13:27:01Z</time>
      </trkpt>
      <trkpt lat="40.64325" lon="-1.13886">
        <ele>1249.482</ele>
        <time>2013-05-10T13:27:00Z</time>
      </trkpt>
      <trkpt lat="40.64325" lon="-1.13887">
        <ele>1249.425</ele>
        <time>2013-05-10T13:26:59Z</time>
      </trkpt>
      <trkpt lat="40.64326" lon="-1.13889">
        <ele>1248.926</ele>
        <time>2013-05-10T13:26:58Z</time>
      </trkpt>
      <trkpt lat="40.64326" lon="-1.1389">
        <ele>1248.908</ele>
        <time>2013-05-10T13:26:57Z</time>
      </trkpt>
      <trkpt lat="40.64338" lon="-1.13905">
        <ele>1247.008</ele>
        <time>2013-05-10T13:26:44Z</time>
      </trkpt>
      <trkpt lat="40.64349" lon="-1.1392">
        <ele>1245.043</ele>
        <time>2013-05-10T13:26:30Z</time>
      </trkpt>
      <trkpt lat="40.64365" lon="-1.13943">
        <ele>1243.644</ele>
        <time>2013-05-10T13:26:17Z</time>
      </trkpt>
      <trkpt lat="40.64386" lon="-1.13969">
        <ele>1242.286</ele>
        <time>2013-05-10T13:26:06Z</time>
      </trkpt>
      <trkpt lat="40.64415" lon="-1.13998">
        <ele>1242.681</ele>
        <time>2013-05-10T13:25:55Z</time>
      </trkpt>
      <trkpt lat="40.64454" lon="-1.14035">
        <ele>1242.698</ele>
        <time>2013-05-10T13:25:44Z</time>
      </trkpt>
      <trkpt lat="40.64469" lon="-1.14052">
        <ele>1243.155</ele>
        <time>2013-05-10T13:25:40Z</time>
      </trkpt>
      <trkpt lat="40.6451" lon="-1.14115">
        <ele>1243.633</ele>
        <time>2013-05-10T13:25:28Z</time>
      </trkpt>
      <trkpt lat="40.64556" lon="-1.14204">
        <ele>1244.116</ele>
        <time>2013-05-10T13:25:15Z</time>
      </trkpt>
      <trkpt lat="40.64622" lon="-1.14324">
        <ele>1246.053</ele>
        <time>2013-05-10T13:25:00Z</time>
      </trkpt>
      <trkpt lat="40.64664" lon="-1.14387">
        <ele>1247.504</ele>
        <time>2013-05-10T13:24:52Z</time>
      </trkpt>
      <trkpt lat="40.64669" lon="-1.14395">
        <ele>1247.514</ele>
        <time>2013-05-10T13:24:51Z</time>
      </trkpt>
      <trkpt lat="40.64674" lon="-1.14402">
        <ele>1247.908</ele>
        <time>2013-05-10T13:24:50Z</time>
      </trkpt>
      <trkpt lat="40.64678" lon="-1.1441">
        <ele>1248.956</ele>
        <time>2013-05-10T13:24:49Z</time>
      </trkpt>
      <trkpt lat="40.64704" lon="-1.14476">
        <ele>1251.367</ele>
        <time>2013-05-10T13:24:41Z</time>
      </trkpt>
      <trkpt lat="40.64751" lon="-1.1458">
        <ele>1252.769</ele>
        <time>2013-05-10T13:24:28Z</time>
      </trkpt>
      <trkpt lat="40.64824" lon="-1.14684">
        <ele>1254.244</ele>
        <time>2013-05-10T13:24:15Z</time>
      </trkpt>
      <trkpt lat="40.64888" lon="-1.14782">
        <ele>1257.571</ele>
        <time>2013-05-10T13:24:04Z</time>
      </trkpt>
      <trkpt lat="40.6495" lon="-1.14867">
        <ele>1260.958</ele>
        <time>2013-05-10T13:23:55Z</time>
      </trkpt>
      <trkpt lat="40.64972" lon="-1.14894">
        <ele>1262.446</ele>
        <time>2013-05-10T13:23:52Z</time>
      </trkpt>
      <trkpt lat="40.65017" lon="-1.14936">
        <ele>1265.269</ele>
        <time>2013-05-10T13:23:46Z</time>
      </trkpt>
      <trkpt lat="40.65025" lon="-1.14943">
        <ele>1265.773</ele>
        <time>2013-05-10T13:23:45Z</time>
      </trkpt>
      <trkpt lat="40.65072" lon="-1.14998">
        <ele>1268.685</ele>
        <time>2013-05-10T13:23:38Z</time>
      </trkpt>
      <trkpt lat="40.65114" lon="-1.15053">
        <ele>1272.013</ele>
        <time>2013-05-10T13:23:30Z</time>
      </trkpt>
      <trkpt lat="40.65135" lon="-1.15073">
        <ele>1273.908</ele>
        <time>2013-05-10T13:23:26Z</time>
      </trkpt>
      <trkpt lat="40.65153" lon="-1.15088">
        <ele>1275.878</ele>
        <time>2013-05-10T13:23:23Z</time>
      </trkpt>
      <trkpt lat="40.65178" lon="-1.15113">
        <ele>1279.259</ele>
        <time>2013-05-10T13:23:19Z</time>
      </trkpt>
      <trkpt lat="40.652" lon="-1.15138">
        <ele>1282.191</ele>
        <time>2013-05-10T13:23:14Z</time>
      </trkpt>
      <trkpt lat="40.6521" lon="-1.15146">
        <ele>1282.536</ele>
        <time>2013-05-10T13:23:10Z</time>
      </trkpt>
      <trkpt lat="40.65212" lon="-1.15148">
        <ele>1282.573</ele>
        <time>2013-05-10T13:22:49Z</time>
      </trkpt>
      <trkpt lat="40.65213" lon="-1.15148">
        <ele>1282.57</ele>
        <time>2013-05-10T13:21:51Z</time>
      </trkpt>
      <trkpt lat="40.65212" lon="-1.15149">
        <ele>1283.528</ele>
        <time>2013-05-10T13:21:21Z</time>
      </trkpt>
      <trkpt lat="40.65212" lon="-1.15148">
        <ele>1282.581</ele>
        <time>2013-05-10T13:20:39Z</time>
      </trkpt>
      <trkpt lat="40.65212" lon="-1.15148">
        <ele>1284.067</ele>
        <time>2013-05-10T13:19:18Z</time>
      </trkpt>
      <trkpt lat="40.65214" lon="-1.15149">
        <ele>1283.081</ele>
        <time>2013-05-10T13:18:59Z</time>
      </trkpt>
      <trkpt lat="40.65213" lon="-1.15149">
        <ele>1283.019</ele>
        <time>2013-05-10T13:18:34Z</time>
      </trkpt>
      <trkpt lat="40.65226" lon="-1.15157">
        <ele>1283.008</ele>
        <time>2013-05-10T13:18:24Z</time>
      </trkpt>
      <trkpt lat="40.65265" lon="-1.15189">
        <ele>1281.627</ele>
        <time>2013-05-10T13:18:09Z</time>
      </trkpt>
      <trkpt lat="40.65305" lon="-1.15216">
        <ele>1281.198</ele>
        <time>2013-05-10T13:17:55Z</time>
      </trkpt>
      <trkpt lat="40.65336" lon="-1.15228">
        <ele>1280.69</ele>
        <time>2013-05-10T13:17:43Z</time>
      </trkpt>
      <trkpt lat="40.65357" lon="-1.15238">
        <ele>1279.755</ele>
        <time>2013-05-10T13:17:34Z</time>
      </trkpt>
      <trkpt lat="40.65375" lon="-1.15272">
        <ele>1279.212</ele>
        <time>2013-05-10T13:17:23Z</time>
      </trkpt>
      <trkpt lat="40.65392" lon="-1.15298">
        <ele>1278.279</ele>
        <time>2013-05-10T13:17:13Z</time>
      </trkpt>
      <trkpt lat="40.65416" lon="-1.15326">
        <ele>1276.817</ele>
        <time>2013-05-10T13:17:02Z</time>
      </trkpt>
      <trkpt lat="40.65425" lon="-1.15366">
        <ele>1276.87</ele>
        <time>2013-05-10T13:16:53Z</time>
      </trkpt>
      <trkpt lat="40.65427" lon="-1.1537">
        <ele>1276.854</ele>
        <time>2013-05-10T13:16:52Z</time>
      </trkpt>
      <trkpt lat="40.6543" lon="-1.15374">
        <ele>1276.856</ele>
        <time>2013-05-10T13:16:51Z</time>
      </trkpt>
      <trkpt lat="40.65451" lon="-1.15391">
        <ele>1276.811</ele>
        <time>2013-05-10T13:16:45Z</time>
      </trkpt>
      <trkpt lat="40.65508" lon="-1.15426">
        <ele>1276.808</ele>
        <time>2013-05-10T13:16:33Z</time>
      </trkpt>
      <trkpt lat="40.65568" lon="-1.15462">
        <ele>1276.856</ele>
        <time>2013-05-10T13:16:19Z</time>
      </trkpt>
      <trkpt lat="40.6562" lon="-1.15495">
        <ele>1276.817</ele>
        <time>2013-05-10T13:16:06Z</time>
      </trkpt>
      <trkpt lat="40.65664" lon="-1.15515">
        <ele>1275.319</ele>
        <time>2013-05-10T13:15:53Z</time>
      </trkpt>
      <trkpt lat="40.65691" lon="-1.1553">
        <ele>1273.964</ele>
        <time>2013-05-10T13:15:46Z</time>
      </trkpt>
      <trkpt lat="40.65747" lon="-1.15569">
        <ele>1273.911</ele>
        <time>2013-05-10T13:15:32Z</time>
      </trkpt>
      <trkpt lat="40.6579" lon="-1.15585">
        <ele>1273.988</ele>
        <time>2013-05-10T13:15:23Z</time>
      </trkpt>
      <trkpt lat="40.65795" lon="-1.15587">
        <ele>1273.916</ele>
        <time>2013-05-10T13:15:22Z</time>
      </trkpt>
      <trkpt lat="40.65849" lon="-1.15613">
        <ele>1273.959</ele>
        <time>2013-05-10T13:15:09Z</time>
      </trkpt>
      <trkpt lat="40.65903" lon="-1.15642">
        <ele>1273.994</ele>
        <time>2013-05-10T13:14:55Z</time>
      </trkpt>
      <trkpt lat="40.65953" lon="-1.15657">
        <ele>1273.957</ele>
        <time>2013-05-10T13:14:43Z</time>
      </trkpt>
      <trkpt lat="40.66021" lon="-1.15677">
        <ele>1274.422</ele>
        <time>2013-05-10T13:14:27Z</time>
      </trkpt>
      <trkpt lat="40.66063" lon="-1.15707">
        <ele>1275.308</ele>
        <time>2013-05-10T13:14:16Z</time>
      </trkpt>
      <trkpt lat="40.66067" lon="-1.15711">
        <ele>1275.39</ele>
        <time>2013-05-10T13:14:15Z</time>
      </trkpt>
      <trkpt lat="40.66088" lon="-1.15728">
        <ele>1276.871</ele>
        <time>2013-05-10T13:14:09Z</time>
      </trkpt>
      <trkpt lat="40.66131" lon="-1.15756">
        <ele>1276.893</ele>
        <time>2013-05-10T13:13:56Z</time>
      </trkpt>
      <trkpt lat="40.66158" lon="-1.15783">
        <ele>1276.358</ele>
        <time>2013-05-10T13:13:46Z</time>
      </trkpt>
      <trkpt lat="40.66178" lon="-1.15809">
        <ele>1276.365</ele>
        <time>2013-05-10T13:13:37Z</time>
      </trkpt>
      <trkpt lat="40.66216" lon="-1.15822">
        <ele>1275.892</ele>
        <time>2013-05-10T13:13:25Z</time>
      </trkpt>
      <trkpt lat="40.66246" lon="-1.15836">
        <ele>1275.36</ele>
        <time>2013-05-10T13:13:14Z</time>
      </trkpt>
      <trkpt lat="40.66285" lon="-1.15854">
        <ele>1274.463</ele>
        <time>2013-05-10T13:12:59Z</time>
      </trkpt>
      <trkpt lat="40.66324" lon="-1.15863">
        <ele>1273.463</ele>
        <time>2013-05-10T13:12:44Z</time>
      </trkpt>
      <trkpt lat="40.66356" lon="-1.15867">
        <ele>1272.044</ele>
        <time>2013-05-10T13:12:30Z</time>
      </trkpt>
      <trkpt lat="40.66387" lon="-1.15885">
        <ele>1270.018</ele>
        <time>2013-05-10T13:12:19Z</time>
      </trkpt>
      <trkpt lat="40.66391" lon="-1.15887">
        <ele>1270.008</ele>
        <time>2013-05-10T13:12:18Z</time>
      </trkpt>
      <trkpt lat="40.66395" lon="-1.15889">
        <ele>1270.077</ele>
        <time>2013-05-10T13:12:17Z</time>
      </trkpt>
      <trkpt lat="40.66399" lon="-1.1589">
        <ele>1270.598</ele>
        <time>2013-05-10T13:12:16Z</time>
      </trkpt>
      <trkpt lat="40.66404" lon="-1.15891">
        <ele>1270.56</ele>
        <time>2013-05-10T13:12:15Z</time>
      </trkpt>
      <trkpt lat="40.66414" lon="-1.15893">
        <ele>1271.035</ele>
        <time>2013-05-10T13:12:13Z</time>
      </trkpt>
      <trkpt lat="40.66418" lon="-1.15896">
        <ele>1271.092</ele>
        <time>2013-05-10T13:12:12Z</time>
      </trkpt>
      <trkpt lat="40.66426" lon="-1.15903">
        <ele>1271.589</ele>
        <time>2013-05-10T13:12:10Z</time>
      </trkpt>
      <trkpt lat="40.6645" lon="-1.1593">
        <ele>1272.977</ele>
        <time>2013-05-10T13:12:01Z</time>
      </trkpt>
      <trkpt lat="40.66466" lon="-1.15953">
        <ele>1272.43</ele>
        <time>2013-05-10T13:11:49Z</time>
      </trkpt>
      <trkpt lat="40.66466" lon="-1.15953">
        <ele>1272.495</ele>
        <time>2013-05-10T13:10:45Z</time>
      </trkpt>
      <trkpt lat="40.66467" lon="-1.15953">
        <ele>1272.449</ele>
        <time>2013-05-10T13:10:21Z</time>
      </trkpt>
      <trkpt lat="40.66468" lon="-1.15954">
        <ele>1272.423</ele>
        <time>2013-05-10T13:10:11Z</time>
      </trkpt>
      <trkpt lat="40.66483" lon="-1.15946">
        <ele>1272.408</ele>
        <time>2013-05-10T13:10:02Z</time>
      </trkpt>
      <trkpt lat="40.66507" lon="-1.15911">
        <ele>1271.58</ele>
        <time>2013-05-10T13:09:46Z</time>
      </trkpt>
      <trkpt lat="40.6653" lon="-1.15879">
        <ele>1270.031</ele>
        <time>2013-05-10T13:09:31Z</time>
      </trkpt>
      <trkpt lat="40.66549" lon="-1.15855">
        <ele>1267.613</ele>
        <time>2013-05-10T13:09:18Z</time>
      </trkpt>
      <trkpt lat="40.66565" lon="-1.15835">
        <ele>1266.718</ele>
        <time>2013-05-10T13:09:06Z</time>
      </trkpt>
      <trkpt lat="40.66584" lon="-1.15817">
        <ele>1264.825</ele>
        <time>2013-05-10T13:08:54Z</time>
      </trkpt>
      <trkpt lat="40.6661" lon="-1.1581">
        <ele>1263.822</ele>
        <time>2013-05-10T13:08:43Z</time>
      </trkpt>
      <trkpt lat="40.66641" lon="-1.15809">
        <ele>1261.98</ele>
        <time>2013-05-10T13:08:29Z</time>
      </trkpt>
      <trkpt lat="40.66676" lon="-1.15813">
        <ele>1259.983</ele>
        <time>2013-05-10T13:08:13Z</time>
      </trkpt>
      <trkpt lat="40.66696" lon="-1.15813">
        <ele>1259.042</ele>
        <time>2013-05-10T13:08:04Z</time>
      </trkpt>
      <trkpt lat="40.66725" lon="-1.15814">
        <ele>1257.122</ele>
        <time>2013-05-10T13:07:52Z</time>
      </trkpt>
      <trkpt lat="40.66749" lon="-1.15816">
        <ele>1255.614</ele>
        <time>2013-05-10T13:07:41Z</time>
      </trkpt>
      <trkpt lat="40.66781" lon="-1.15823">
        <ele>1254.208</ele>
        <time>2013-05-10T13:07:28Z</time>
      </trkpt>
      <trkpt lat="40.66829" lon="-1.15833">
        <ele>1253.255</ele>
        <time>2013-05-10T13:07:12Z</time>
      </trkpt>
      <trkpt lat="40.66867" lon="-1.1584">
        <ele>1252.756</ele>
        <time>2013-05-10T13:06:58Z</time>
      </trkpt>
      <trkpt lat="40.66892" lon="-1.15849">
        <ele>1251.818</ele>
        <time>2013-05-10T13:06:46Z</time>
      </trkpt>
      <trkpt lat="40.66911" lon="-1.15858">
        <ele>1250.383</ele>
        <time>2013-05-10T13:06:35Z</time>
      </trkpt>
      <trkpt lat="40.66937" lon="-1.15871">
        <ele>1248.48</ele>
        <time>2013-05-10T13:06:21Z</time>
      </trkpt>
      <trkpt lat="40.66939" lon="-1.15871">
        <ele>1248.427</ele>
        <time>2013-05-10T13:06:20Z</time>
      </trkpt>
      <trkpt lat="40.66941" lon="-1.15873">
        <ele>1248.465</ele>
        <time>2013-05-10T13:06:19Z</time>
      </trkpt>
      <trkpt lat="40.66955" lon="-1.15882">
        <ele>1248.468</ele>
        <time>2013-05-10T13:06:12Z</time>
      </trkpt>
      <trkpt lat="40.66975" lon="-1.15896">
        <ele>1248.448</ele>
        <time>2013-05-10T13:06:03Z</time>
      </trkpt>
      <trkpt lat="40.66981" lon="-1.15899">
        <ele>1247.961</ele>
        <time>2013-05-10T13:05:59Z</time>
      </trkpt>
      <trkpt lat="40.66998" lon="-1.15905">
        <ele>1247.517</ele>
        <time>2013-05-10T13:05:48Z</time>
      </trkpt>
      <trkpt lat="40.67023" lon="-1.1591">
        <ele>1245.008</ele>
        <time>2013-05-10T13:05:31Z</time>
      </trkpt>
      <trkpt lat="40.67039" lon="-1.15904">
        <ele>1243.625</ele>
        <time>2013-05-10T13:05:18Z</time>
      </trkpt>
      <trkpt lat="40.67051" lon="-1.15888">
        <ele>1242.246</ele>
        <time>2013-05-10T13:05:05Z</time>
      </trkpt>
      <trkpt lat="40.67063" lon="-1.15873">
        <ele>1240.218</ele>
        <time>2013-05-10T13:04:52Z</time>
      </trkpt>
      <trkpt lat="40.67083" lon="-1.15859">
        <ele>1237.843</ele>
        <time>2013-05-10T13:04:35Z</time>
      </trkpt>
      <trkpt lat="40.67084" lon="-1.15858">
        <ele>1237.47</ele>
        <time>2013-05-10T13:04:34Z</time>
      </trkpt>
      <trkpt lat="40.67102" lon="-1.15854">
        <ele>1235.977</ele>
        <time>2013-05-10T13:04:21Z</time>
      </trkpt>
      <trkpt lat="40.6712" lon="-1.15849">
        <ele>1235.015</ele>
        <time>2013-05-10T13:04:09Z</time>
      </trkpt>
      <trkpt lat="40.67135" lon="-1.15847">
        <ele>1232.668</ele>
        <time>2013-05-10T13:03:59Z</time>
      </trkpt>
      <trkpt lat="40.67171" lon="-1.15865">
        <ele>1231.185</ele>
        <time>2013-05-10T13:03:47Z</time>
      </trkpt>
      <trkpt lat="40.67216" lon="-1.15877">
        <ele>1230.689</ele>
        <time>2013-05-10T13:03:36Z</time>
      </trkpt>
      <trkpt lat="40.67244" lon="-1.15877">
        <ele>1229.717</ele>
        <time>2013-05-10T13:03:29Z</time>
      </trkpt>
      <trkpt lat="40.67294" lon="-1.15878">
        <ele>1229.708</ele>
        <time>2013-05-10T13:03:18Z</time>
      </trkpt>
      <trkpt lat="40.67351" lon="-1.15876">
        <ele>1229.779</ele>
        <time>2013-05-10T13:03:08Z</time>
      </trkpt>
      <trkpt lat="40.67401" lon="-1.15878">
        <ele>1233.05</ele>
        <time>2013-05-10T13:03:00Z</time>
      </trkpt>
      <trkpt lat="40.67406" lon="-1.15878">
        <ele>1233.022</ele>
        <time>2013-05-10T13:02:59Z</time>
      </trkpt>
      <trkpt lat="40.6741" lon="-1.15877">
        <ele>1233.037</ele>
        <time>2013-05-10T13:02:58Z</time>
      </trkpt>
      <trkpt lat="40.67446" lon="-1.15875">
        <ele>1232.624</ele>
        <time>2013-05-10T13:02:49Z</time>
      </trkpt>
      <trkpt lat="40.6748" lon="-1.1589">
        <ele>1231.641</ele>
        <time>2013-05-10T13:02:39Z</time>
      </trkpt>
      <trkpt lat="40.67526" lon="-1.15905">
        <ele>1231.199</ele>
        <time>2013-05-10T13:02:26Z</time>
      </trkpt>
      <trkpt lat="40.67579" lon="-1.15927">
        <ele>1229.772</ele>
        <time>2013-05-10T13:02:11Z</time>
      </trkpt>
      <trkpt lat="40.6763" lon="-1.15953">
        <ele>1227.784</ele>
        <time>2013-05-10T13:01:58Z</time>
      </trkpt>
      <trkpt lat="40.67674" lon="-1.15989">
        <ele>1227.707</ele>
        <time>2013-05-10T13:01:48Z</time>
      </trkpt>
      <trkpt lat="40.67679" lon="-1.15993">
        <ele>1227.717</ele>
        <time>2013-05-10T13:01:47Z</time>
      </trkpt>
      <trkpt lat="40.67683" lon="-1.15997">
        <ele>1227.708</ele>
        <time>2013-05-10T13:01:46Z</time>
      </trkpt>
      <trkpt lat="40.67688" lon="-1.16001">
        <ele>1227.719</ele>
        <time>2013-05-10T13:01:45Z</time>
      </trkpt>
      <trkpt lat="40.67692" lon="-1.16006">
        <ele>1227.71</ele>
        <time>2013-05-10T13:01:44Z</time>
      </trkpt>
      <trkpt lat="40.67696" lon="-1.16012">
        <ele>1227.722</ele>
        <time>2013-05-10T13:01:43Z</time>
      </trkpt>
      <trkpt lat="40.677" lon="-1.16018">
        <ele>1227.757</ele>
        <time>2013-05-10T13:01:42Z</time>
      </trkpt>
      <trkpt lat="40.67703" lon="-1.16025">
        <ele>1227.734</ele>
        <time>2013-05-10T13:01:41Z</time>
      </trkpt>
      <trkpt lat="40.67706" lon="-1.16032">
        <ele>1227.791</ele>
        <time>2013-05-10T13:01:40Z</time>
      </trkpt>
      <trkpt lat="40.67709" lon="-1.16038">
        <ele>1228.269</ele>
        <time>2013-05-10T13:01:39Z</time>
      </trkpt>
      <trkpt lat="40.67713" lon="-1.16044">
        <ele>1228.212</ele>
        <time>2013-05-10T13:01:38Z</time>
      </trkpt>
      <trkpt lat="40.67745" lon="-1.16081">
        <ele>1228.218</ele>
        <time>2013-05-10T13:01:31Z</time>
      </trkpt>
      <trkpt lat="40.67749" lon="-1.16085">
        <ele>1228.298</ele>
        <time>2013-05-10T13:01:30Z</time>
      </trkpt>
      <trkpt lat="40.67785" lon="-1.16112">
        <ele>1228.717</ele>
        <time>2013-05-10T13:01:23Z</time>
      </trkpt>
      <trkpt lat="40.6781" lon="-1.16126">
        <ele>1229.208</ele>
        <time>2013-05-10T13:01:18Z</time>
      </trkpt>
      <trkpt lat="40.67819" lon="-1.16133">
        <ele>1229.272</ele>
        <time>2013-05-10T13:01:16Z</time>
      </trkpt>
      <trkpt lat="40.67824" lon="-1.16137">
        <ele>1229.263</ele>
        <time>2013-05-10T13:01:15Z</time>
      </trkpt>
      <trkpt lat="40.67834" lon="-1.16143">
        <ele>1229.775</ele>
        <time>2013-05-10T13:01:13Z</time>
      </trkpt>
      <trkpt lat="40.67871" lon="-1.16169">
        <ele>1229.79</ele>
        <time>2013-05-10T13:01:05Z</time>
      </trkpt>
      <trkpt lat="40.67909" lon="-1.16193">
        <ele>1230.117</ele>
        <time>2013-05-10T13:00:57Z</time>
      </trkpt>
      <trkpt lat="40.67974" lon="-1.16231">
        <ele>1231.124</ele>
        <time>2013-05-10T13:00:45Z</time>
      </trkpt>
      <trkpt lat="40.68044" lon="-1.16282">
        <ele>1230.632</ele>
        <time>2013-05-10T13:00:31Z</time>
      </trkpt>
      <trkpt lat="40.68052" lon="-1.16292">
        <ele>1230.625</ele>
        <time>2013-05-10T13:00:29Z</time>
      </trkpt>
      <trkpt lat="40.68056" lon="-1.16297">
        <ele>1230.641</ele>
        <time>2013-05-10T13:00:28Z</time>
      </trkpt>
      <trkpt lat="40.6806" lon="-1.16302">
        <ele>1230.681</ele>
        <time>2013-05-10T13:00:27Z</time>
      </trkpt>
      <trkpt lat="40.68065" lon="-1.16306">
        <ele>1230.609</ele>
        <time>2013-05-10T13:00:26Z</time>
      </trkpt>
      <trkpt lat="40.68071" lon="-1.16308">
        <ele>1230.608</ele>
        <time>2013-05-10T13:00:25Z</time>
      </trkpt>
      <trkpt lat="40.68095" lon="-1.16312">
        <ele>1231.195</ele>
        <time>2013-05-10T13:00:21Z</time>
      </trkpt>
      <trkpt lat="40.68119" lon="-1.16322">
        <ele>1231.146</ele>
        <time>2013-05-10T13:00:17Z</time>
      </trkpt>
      <trkpt lat="40.68192" lon="-1.16359">
        <ele>1232.668</ele>
        <time>2013-05-10T13:00:03Z</time>
      </trkpt>
      <trkpt lat="40.68252" lon="-1.16389">
        <ele>1233.593</ele>
        <time>2013-05-10T12:59:51Z</time>
      </trkpt>
      <trkpt lat="40.68256" lon="-1.16391">
        <ele>1233.54</ele>
        <time>2013-05-10T12:59:50Z</time>
      </trkpt>
      <trkpt lat="40.68269" lon="-1.16393">
        <ele>1233.517</ele>
        <time>2013-05-10T12:59:47Z</time>
      </trkpt>
      <trkpt lat="40.6831" lon="-1.16396">
        <ele>1234.045</ele>
        <time>2013-05-10T12:59:35Z</time>
      </trkpt>
      <trkpt lat="40.68313" lon="-1.16397">
        <ele>1234.088</ele>
        <time>2013-05-10T12:59:34Z</time>
      </trkpt>
      <trkpt lat="40.68316" lon="-1.16397">
        <ele>1234.074</ele>
        <time>2013-05-10T12:59:33Z</time>
      </trkpt>
      <trkpt lat="40.68318" lon="-1.16397">
        <ele>1234.056</ele>
        <time>2013-05-10T12:59:32Z</time>
      </trkpt>
      <trkpt lat="40.6832" lon="-1.16397">
        <ele>1234.021</ele>
        <time>2013-05-10T12:59:31Z</time>
      </trkpt>
      <trkpt lat="40.68321" lon="-1.16398">
        <ele>1234.008</ele>
        <time>2013-05-10T12:59:30Z</time>
      </trkpt>
      <trkpt lat="40.68323" lon="-1.16398">
        <ele>1234.058</ele>
        <time>2013-05-10T12:59:29Z</time>
      </trkpt>
      <trkpt lat="40.68325" lon="-1.16398">
        <ele>1234.069</ele>
        <time>2013-05-10T12:59:28Z</time>
      </trkpt>
      <trkpt lat="40.68326" lon="-1.16399">
        <ele>1234.021</ele>
        <time>2013-05-10T12:59:23Z</time>
      </trkpt>
      <trkpt lat="40.68347" lon="-1.16393">
        <ele>1234.596</ele>
        <time>2013-05-10T12:59:12Z</time>
      </trkpt>
      <trkpt lat="40.68381" lon="-1.16381">
        <ele>1234.553</ele>
        <time>2013-05-10T12:59:01Z</time>
      </trkpt>
      <trkpt lat="40.68437" lon="-1.16365">
        <ele>1235.05</ele>
        <time>2013-05-10T12:58:50Z</time>
      </trkpt>
      <trkpt lat="40.68493" lon="-1.16331">
        <ele>1235.498</ele>
        <time>2013-05-10T12:58:40Z</time>
      </trkpt>
      <trkpt lat="40.68566" lon="-1.1629">
        <ele>1236.491</ele>
        <time>2013-05-10T12:58:30Z</time>
      </trkpt>
      <trkpt lat="40.68592" lon="-1.16278">
        <ele>1239.845</ele>
        <time>2013-05-10T12:58:26Z</time>
      </trkpt>
      <trkpt lat="40.68597" lon="-1.16277">
        <ele>1240.747</ele>
        <time>2013-05-10T12:58:25Z</time>
      </trkpt>
      <trkpt lat="40.686" lon="-1.16276">
        <ele>1240.711</ele>
        <time>2013-05-10T12:58:24Z</time>
      </trkpt>
      <trkpt lat="40.68602" lon="-1.16276">
        <ele>1241.208</ele>
        <time>2013-05-10T12:58:23Z</time>
      </trkpt>
      <trkpt lat="40.68604" lon="-1.16277">
        <ele>1241.285</ele>
        <time>2013-05-10T12:58:22Z</time>
      </trkpt>
      <trkpt lat="40.68606" lon="-1.16278">
        <ele>1240.716</ele>
        <time>2013-05-10T12:57:51Z</time>
      </trkpt>
      <trkpt lat="40.68632" lon="-1.16261">
        <ele>1243.678</ele>
        <time>2013-05-10T12:57:42Z</time>
      </trkpt>
      <trkpt lat="40.68645" lon="-1.1625">
        <ele>1245.013</ele>
        <time>2013-05-10T12:57:37Z</time>
      </trkpt>
      <trkpt lat="40.68654" lon="-1.16222">
        <ele>1243.16</ele>
        <time>2013-05-10T12:57:25Z</time>
      </trkpt>
      <trkpt lat="40.68665" lon="-1.16199">
        <ele>1243.667</ele>
        <time>2013-05-10T12:57:15Z</time>
      </trkpt>
      <trkpt lat="40.68679" lon="-1.1619">
        <ele>1244.175</ele>
        <time>2013-05-10T12:57:06Z</time>
      </trkpt>
      <trkpt lat="40.6868" lon="-1.16188">
        <ele>1244.128</ele>
        <time>2013-05-10T12:57:05Z</time>
      </trkpt>
      <trkpt lat="40.68696" lon="-1.16181">
        <ele>1245.026</ele>
        <time>2013-05-10T12:56:58Z</time>
      </trkpt>
      <trkpt lat="40.68727" lon="-1.1618">
        <ele>1247.947</ele>
        <time>2013-05-10T12:56:48Z</time>
      </trkpt>
      <trkpt lat="40.6873" lon="-1.16179">
        <ele>1248.411</ele>
        <time>2013-05-10T12:56:47Z</time>
      </trkpt>
      <trkpt lat="40.68732" lon="-1.16179">
        <ele>1248.408</ele>
        <time>2013-05-10T12:56:46Z</time>
      </trkpt>
      <trkpt lat="40.68741" lon="-1.16162">
        <ele>1248.453</ele>
        <time>2013-05-10T12:56:40Z</time>
      </trkpt>
      <trkpt lat="40.68742" lon="-1.1616">
        <ele>1248.444</ele>
        <time>2013-05-10T12:56:39Z</time>
      </trkpt>
      <trkpt lat="40.68743" lon="-1.16158">
        <ele>1248.426</ele>
        <time>2013-05-10T12:56:38Z</time>
      </trkpt>
      <trkpt lat="40.68744" lon="-1.16155">
        <ele>1248.491</ele>
        <time>2013-05-10T12:56:37Z</time>
      </trkpt>
      <trkpt lat="40.68744" lon="-1.16152">
        <ele>1248.428</ele>
        <time>2013-05-10T12:56:36Z</time>
      </trkpt>
      <trkpt lat="40.68745" lon="-1.16149">
        <ele>1248.445</ele>
        <time>2013-05-10T12:56:35Z</time>
      </trkpt>
      <trkpt lat="40.68747" lon="-1.16146">
        <ele>1248.413</ele>
        <time>2013-05-10T12:56:34Z</time>
      </trkpt>
      <trkpt lat="40.68749" lon="-1.16144">
        <ele>1248.476</ele>
        <time>2013-05-10T12:56:33Z</time>
      </trkpt>
      <trkpt lat="40.68752" lon="-1.16144">
        <ele>1248.992</ele>
        <time>2013-05-10T12:56:32Z</time>
      </trkpt>
      <trkpt lat="40.68774" lon="-1.16157">
        <ele>1249.973</ele>
        <time>2013-05-10T12:56:24Z</time>
      </trkpt>
      <trkpt lat="40.68796" lon="-1.16176">
        <ele>1250.32</ele>
        <time>2013-05-10T12:56:14Z</time>
      </trkpt>
      <trkpt lat="40.68816" lon="-1.16179">
        <ele>1249.408</ele>
        <time>2013-05-10T12:56:03Z</time>
      </trkpt>
      <trkpt lat="40.68836" lon="-1.16182">
        <ele>1247.94</ele>
        <time>2013-05-10T12:55:53Z</time>
      </trkpt>
      <trkpt lat="40.68856" lon="-1.16184">
        <ele>1247.591</ele>
        <time>2013-05-10T12:55:42Z</time>
      </trkpt>
      <trkpt lat="40.68861" lon="-1.16183">
        <ele>1247.533</ele>
        <time>2013-05-10T12:55:14Z</time>
      </trkpt>
      <trkpt lat="40.68877" lon="-1.16184">
        <ele>1246.568</ele>
        <time>2013-05-10T12:54:49Z</time>
      </trkpt>
      <trkpt lat="40.68879" lon="-1.16183">
        <ele>1246.525</ele>
        <time>2013-05-10T12:54:48Z</time>
      </trkpt>
      <trkpt lat="40.6888" lon="-1.16183">
        <ele>1245.542</ele>
        <time>2013-05-10T12:54:47Z</time>
      </trkpt>
      <trkpt lat="40.68882" lon="-1.16183">
        <ele>1245.59</ele>
        <time>2013-05-10T12:54:46Z</time>
      </trkpt>
      <trkpt lat="40.68883" lon="-1.16182">
        <ele>1245.563</ele>
        <time>2013-05-10T12:54:45Z</time>
      </trkpt>
      <trkpt lat="40.68884" lon="-1.16181">
        <ele>1244.662</ele>
        <time>2013-05-10T12:54:44Z</time>
      </trkpt>
      <trkpt lat="40.68886" lon="-1.1618">
        <ele>1244.683</ele>
        <time>2013-05-10T12:54:43Z</time>
      </trkpt>
      <trkpt lat="40.68887" lon="-1.1618">
        <ele>1244.611</ele>
        <time>2013-05-10T12:54:42Z</time>
      </trkpt>
      <trkpt lat="40.68889" lon="-1.1618">
        <ele>1244.608</ele>
        <time>2013-05-10T12:54:41Z</time>
      </trkpt>
      <trkpt lat="40.6889" lon="-1.1618">
        <ele>1244.177</ele>
        <time>2013-05-10T12:54:40Z</time>
      </trkpt>
      <trkpt lat="40.68906" lon="-1.16173">
        <ele>1243.188</ele>
        <time>2013-05-10T12:54:30Z</time>
      </trkpt>
      <trkpt lat="40.68908" lon="-1.16172">
        <ele>1243.11</ele>
        <time>2013-05-10T12:54:29Z</time>
      </trkpt>
      <trkpt lat="40.6891" lon="-1.16172">
        <ele>1243.145</ele>
        <time>2013-05-10T12:54:28Z</time>
      </trkpt>
      <trkpt lat="40.68912" lon="-1.16174">
        <ele>1240.792</ele>
        <time>2013-05-10T11:56:00Z</time>
      </trkpt>
      <trkpt lat="40.68947" lon="-1.16199">
        <ele>1240.799</ele>
        <time>2013-05-10T11:55:47Z</time>
      </trkpt>
      <trkpt lat="40.68972" lon="-1.16216">
        <ele>1239.377</ele>
        <time>2013-05-10T11:55:38Z</time>
      </trkpt>
      <trkpt lat="40.69004" lon="-1.16241">
        <ele>1239.34</ele>
        <time>2013-05-10T11:55:27Z</time>
      </trkpt>
      <trkpt lat="40.69026" lon="-1.16279">
        <ele>1240.794</ele>
        <time>2013-05-10T11:55:17Z</time>
      </trkpt>
      <trkpt lat="40.69052" lon="-1.16309">
        <ele>1239.857</ele>
        <time>2013-05-10T11:55:07Z</time>
      </trkpt>
      <trkpt lat="40.69087" lon="-1.16342">
        <ele>1239.822</ele>
        <time>2013-05-10T11:54:55Z</time>
      </trkpt>
      <trkpt lat="40.69134" lon="-1.16385">
        <ele>1239.808</ele>
        <time>2013-05-10T11:54:40Z</time>
      </trkpt>
      <trkpt lat="40.69173" lon="-1.16422">
        <ele>1240.23</ele>
        <time>2013-05-10T11:54:28Z</time>
      </trkpt>
      <trkpt lat="40.69177" lon="-1.16425">
        <ele>1240.271</ele>
        <time>2013-05-10T11:54:27Z</time>
      </trkpt>
      <trkpt lat="40.69216" lon="-1.16462">
        <ele>1240.773</ele>
        <time>2013-05-10T11:54:13Z</time>
      </trkpt>
      <trkpt lat="40.69232" lon="-1.16476">
        <ele>1240.738</ele>
        <time>2013-05-10T11:54:05Z</time>
      </trkpt>
      <trkpt lat="40.69231" lon="-1.16478">
        <ele>1240.725</ele>
        <time>2013-05-10T11:53:45Z</time>
      </trkpt>
      <trkpt lat="40.69238" lon="-1.16482">
        <ele>1240.772</ele>
        <time>2013-05-10T11:53:38Z</time>
      </trkpt>
      <trkpt lat="40.6926" lon="-1.16502">
        <ele>1240.79</ele>
        <time>2013-05-10T11:53:28Z</time>
      </trkpt>
      <trkpt lat="40.69285" lon="-1.16526">
        <ele>1240.773</ele>
        <time>2013-05-10T11:53:18Z</time>
      </trkpt>
      <trkpt lat="40.69317" lon="-1.16542">
        <ele>1240.761</ele>
        <time>2013-05-10T11:53:06Z</time>
      </trkpt>
      <trkpt lat="40.69347" lon="-1.16538">
        <ele>1241.221</ele>
        <time>2013-05-10T11:52:56Z</time>
      </trkpt>
      <trkpt lat="40.69388" lon="-1.16537">
        <ele>1241.713</ele>
        <time>2013-05-10T11:52:43Z</time>
      </trkpt>
      <trkpt lat="40.69411" lon="-1.16537">
        <ele>1241.708</ele>
        <time>2013-05-10T11:52:19Z</time>
      </trkpt>
      <trkpt lat="40.6941" lon="-1.16538">
        <ele>1241.757</ele>
        <time>2013-05-10T11:51:57Z</time>
      </trkpt>
      <trkpt lat="40.69429" lon="-1.16537">
        <ele>1242.228</ele>
        <time>2013-05-10T11:51:50Z</time>
      </trkpt>
      <trkpt lat="40.69486" lon="-1.16543">
        <ele>1242.69</ele>
        <time>2013-05-10T11:51:37Z</time>
      </trkpt>
      <trkpt lat="40.69499" lon="-1.16545">
        <ele>1242.645</ele>
        <time>2013-05-10T11:51:34Z</time>
      </trkpt>
      <trkpt lat="40.69561" lon="-1.1655">
        <ele>1243.132</ele>
        <time>2013-05-10T11:51:21Z</time>
      </trkpt>
      <trkpt lat="40.69589" lon="-1.16549">
        <ele>1243.129</ele>
        <time>2013-05-10T11:51:15Z</time>
      </trkpt>
      <trkpt lat="40.69633" lon="-1.16545">
        <ele>1243.127</ele>
        <time>2013-05-10T11:51:04Z</time>
      </trkpt>
      <trkpt lat="40.6964" lon="-1.16543">
        <ele>1244.62</ele>
        <time>2013-05-10T11:51:02Z</time>
      </trkpt>
      <trkpt lat="40.69679" lon="-1.16541">
        <ele>1243.191</ele>
        <time>2013-05-10T11:50:52Z</time>
      </trkpt>
      <trkpt lat="40.69718" lon="-1.16538">
        <ele>1244.181</ele>
        <time>2013-05-10T11:50:42Z</time>
      </trkpt>
      <trkpt lat="40.69762" lon="-1.16519">
        <ele>1242.219</ele>
        <time>2013-05-10T11:50:28Z</time>
      </trkpt>
      <trkpt lat="40.69804" lon="-1.16512">
        <ele>1243.108</ele>
        <time>2013-05-10T11:50:17Z</time>
      </trkpt>
      <trkpt lat="40.69812" lon="-1.16511">
        <ele>1243.12</ele>
        <time>2013-05-10T11:50:15Z</time>
      </trkpt>
      <trkpt lat="40.69854" lon="-1.16503">
        <ele>1243.161</ele>
        <time>2013-05-10T11:50:05Z</time>
      </trkpt>
      <trkpt lat="40.69904" lon="-1.16494">
        <ele>1243.173</ele>
        <time>2013-05-10T11:49:52Z</time>
      </trkpt>
      <trkpt lat="40.69947" lon="-1.1648">
        <ele>1243.178</ele>
        <time>2013-05-10T11:49:40Z</time>
      </trkpt>
      <trkpt lat="40.69995" lon="-1.16481">
        <ele>1243.155</ele>
        <time>2013-05-10T11:49:30Z</time>
      </trkpt>
      <trkpt lat="40.70046" lon="-1.16508">
        <ele>1243.132</ele>
        <time>2013-05-10T11:49:20Z</time>
      </trkpt>
      <trkpt lat="40.70072" lon="-1.16514">
        <ele>1243.18</ele>
        <time>2013-05-10T11:49:15Z</time>
      </trkpt>
      <trkpt lat="40.70082" lon="-1.16512">
        <ele>1243.193</ele>
        <time>2013-05-10T11:49:13Z</time>
      </trkpt>
      <trkpt lat="40.70107" lon="-1.16506">
        <ele>1243.118</ele>
        <time>2013-05-10T11:49:08Z</time>
      </trkpt>
      <trkpt lat="40.7013" lon="-1.16505">
        <ele>1243.198</ele>
        <time>2013-05-10T11:49:04Z</time>
      </trkpt>
      <trkpt lat="40.70179" lon="-1.16502">
        <ele>1243.617</ele>
        <time>2013-05-10T11:48:56Z</time>
      </trkpt>
      <trkpt lat="40.70211" lon="-1.16493">
        <ele>1245.508</ele>
        <time>2013-05-10T11:48:50Z</time>
      </trkpt>
      <trkpt lat="40.70244" lon="-1.16454">
        <ele>1246.052</ele>
        <time>2013-05-10T11:48:41Z</time>
      </trkpt>
      <trkpt lat="40.7026" lon="-1.16424">
        <ele>1246.563</ele>
        <time>2013-05-10T11:48:36Z</time>
      </trkpt>
      <trkpt lat="40.70308" lon="-1.16348">
        <ele>1247.065</ele>
        <time>2013-05-10T11:48:22Z</time>
      </trkpt>
      <trkpt lat="40.70365" lon="-1.16262">
        <ele>1247.05</ele>
        <time>2013-05-10T11:48:05Z</time>
      </trkpt>
      <trkpt lat="40.70382" lon="-1.16239">
        <ele>1247.047</ele>
        <time>2013-05-10T11:48:00Z</time>
      </trkpt>
      <trkpt lat="40.7043" lon="-1.16185">
        <ele>1247.034</ele>
        <time>2013-05-10T11:47:48Z</time>
      </trkpt>
      <trkpt lat="40.70448" lon="-1.16163">
        <ele>1247.042</ele>
        <time>2013-05-10T11:47:43Z</time>
      </trkpt>
      <trkpt lat="40.70497" lon="-1.16107">
        <ele>1247.015</ele>
        <time>2013-05-10T11:47:31Z</time>
      </trkpt>
      <trkpt lat="40.70506" lon="-1.16098">
        <ele>1247.094</ele>
        <time>2013-05-10T11:47:29Z</time>
      </trkpt>
      <trkpt lat="40.70518" lon="-1.16081">
        <ele>1247.057</ele>
        <time>2013-05-10T11:47:26Z</time>
      </trkpt>
      <trkpt lat="40.7056" lon="-1.16022">
        <ele>1249.922</ele>
        <time>2013-05-10T11:47:16Z</time>
      </trkpt>
      <trkpt lat="40.7059" lon="-1.1598">
        <ele>1249.408</ele>
        <time>2013-05-10T11:47:03Z</time>
      </trkpt>
      <trkpt lat="40.70619" lon="-1.15947">
        <ele>1247.05</ele>
        <time>2013-05-10T11:46:47Z</time>
      </trkpt>
      <trkpt lat="40.70646" lon="-1.1592">
        <ele>1245.021</ele>
        <time>2013-05-10T11:46:34Z</time>
      </trkpt>
      <trkpt lat="40.707" lon="-1.15862">
        <ele>1244.153</ele>
        <time>2013-05-10T11:46:17Z</time>
      </trkpt>
      <trkpt lat="40.70751" lon="-1.15824">
        <ele>1243.148</ele>
        <time>2013-05-10T11:46:02Z</time>
      </trkpt>
      <trkpt lat="40.70769" lon="-1.15807">
        <ele>1243.115</ele>
        <time>2013-05-10T11:45:58Z</time>
      </trkpt>
      <trkpt lat="40.70785" lon="-1.15791">
        <ele>1242.222</ele>
        <time>2013-05-10T11:45:54Z</time>
      </trkpt>
      <trkpt lat="40.70798" lon="-1.15781">
        <ele>1241.21</ele>
        <time>2013-05-10T11:45:51Z</time>
      </trkpt>
      <trkpt lat="40.70875" lon="-1.15736">
        <ele>1241.233</ele>
        <time>2013-05-10T11:45:37Z</time>
      </trkpt>
      <trkpt lat="40.70946" lon="-1.15689">
        <ele>1242.213</ele>
        <time>2013-05-10T11:45:26Z</time>
      </trkpt>
      <trkpt lat="40.7101" lon="-1.15625">
        <ele>1244.143</ele>
        <time>2013-05-10T11:45:15Z</time>
      </trkpt>
      <trkpt lat="40.71028" lon="-1.15605">
        <ele>1245.507</ele>
        <time>2013-05-10T11:45:11Z</time>
      </trkpt>
      <trkpt lat="40.71039" lon="-1.15597">
        <ele>1244.608</ele>
        <time>2013-05-10T11:45:08Z</time>
      </trkpt>
      <trkpt lat="40.71062" lon="-1.15589">
        <ele>1244.112</ele>
        <time>2013-05-10T11:45:03Z</time>
      </trkpt>
      <trkpt lat="40.71094" lon="-1.15584">
        <ele>1242.623</ele>
        <time>2013-05-10T11:44:57Z</time>
      </trkpt>
      <trkpt lat="40.71171" lon="-1.15567">
        <ele>1243.685</ele>
        <time>2013-05-10T11:44:45Z</time>
      </trkpt>
      <trkpt lat="40.71206" lon="-1.15563">
        <ele>1244.16</ele>
        <time>2013-05-10T11:44:40Z</time>
      </trkpt>
      <trkpt lat="40.7125" lon="-1.15577">
        <ele>1244.187</ele>
        <time>2013-05-10T11:44:33Z</time>
      </trkpt>
      <trkpt lat="40.71358" lon="-1.15575">
        <ele>1245.564</ele>
        <time>2013-05-10T11:44:18Z</time>
      </trkpt>
      <trkpt lat="40.71458" lon="-1.15569">
        <ele>1247.082</ele>
        <time>2013-05-10T11:44:02Z</time>
      </trkpt>
      <trkpt lat="40.71518" lon="-1.15574">
        <ele>1247.545</ele>
        <time>2013-05-10T11:43:51Z</time>
      </trkpt>
      <trkpt lat="40.71597" lon="-1.15589">
        <ele>1249.442</ele>
        <time>2013-05-10T11:43:37Z</time>
      </trkpt>
      <trkpt lat="40.7162" lon="-1.15601">
        <ele>1249.922</ele>
        <time>2013-05-10T11:43:32Z</time>
      </trkpt>
      <trkpt lat="40.71623" lon="-1.15606">
        <ele>1250.314</ele>
        <time>2013-05-10T11:43:31Z</time>
      </trkpt>
      <trkpt lat="40.71672" lon="-1.15692">
        <ele>1252.708</ele>
        <time>2013-05-10T11:43:18Z</time>
      </trkpt>
      <trkpt lat="40.71709" lon="-1.15761">
        <ele>1255.195</ele>
        <time>2013-05-10T11:43:07Z</time>
      </trkpt>
      <trkpt lat="40.71718" lon="-1.1579">
        <ele>1256.616</ele>
        <time>2013-05-10T11:43:03Z</time>
      </trkpt>
      <trkpt lat="40.7172" lon="-1.15839">
        <ele>1259.518</ele>
        <time>2013-05-10T11:42:56Z</time>
      </trkpt>
      <trkpt lat="40.71717" lon="-1.15899">
        <ele>1263.343</ele>
        <time>2013-05-10T11:42:46Z</time>
      </trkpt>
      <trkpt lat="40.71715" lon="-1.15917">
        <ele>1264.35</ele>
        <time>2013-05-10T11:42:43Z</time>
      </trkpt>
      <trkpt lat="40.71716" lon="-1.15967">
        <ele>1267.257</ele>
        <time>2013-05-10T11:42:33Z</time>
      </trkpt>
      <trkpt lat="40.71719" lon="-1.15992">
        <ele>1268.645</ele>
        <time>2013-05-10T11:42:28Z</time>
      </trkpt>
      <trkpt lat="40.7172" lon="-1.16006">
        <ele>1268.678</ele>
        <time>2013-05-10T11:42:21Z</time>
      </trkpt>
      <trkpt lat="40.7172" lon="-1.16007">
        <ele>1267.616</ele>
        <time>2013-05-10T11:41:01Z</time>
      </trkpt>
      <trkpt lat="40.71719" lon="-1.16007">
        <ele>1268.176</ele>
        <time>2013-05-10T11:39:26Z</time>
      </trkpt>
      <trkpt lat="40.7172" lon="-1.16007">
        <ele>1268.113</ele>
        <time>2013-05-10T11:39:03Z</time>
      </trkpt>
      <trkpt lat="40.7172" lon="-1.16008">
        <ele>1268.108</ele>
        <time>2013-05-10T11:38:00Z</time>
      </trkpt>
      <trkpt lat="40.7172" lon="-1.16007">
        <ele>1268.112</ele>
        <time>2013-05-10T11:36:42Z</time>
      </trkpt>
      <trkpt lat="40.71719" lon="-1.16008">
        <ele>1268.693</ele>
        <time>2013-05-10T11:35:30Z</time>
      </trkpt>
      <trkpt lat="40.71721" lon="-1.1602">
        <ele>1269.675</ele>
        <time>2013-05-10T11:35:20Z</time>
      </trkpt>
      <trkpt lat="40.71725" lon="-1.16042">
        <ele>1270.54</ele>
        <time>2013-05-10T11:35:08Z</time>
      </trkpt>
      <trkpt lat="40.71732" lon="-1.16058">
        <ele>1271.037</ele>
        <time>2013-05-10T11:34:48Z</time>
      </trkpt>
      <trkpt lat="40.71731" lon="-1.1606">
        <ele>1271.084</ele>
        <time>2013-05-10T11:34:42Z</time>
      </trkpt>
      <trkpt lat="40.71751" lon="-1.16122">
        <ele>1275.322</ele>
        <time>2013-05-10T11:34:34Z</time>
      </trkpt>
      <trkpt lat="40.71773" lon="-1.16161">
        <ele>1278.225</ele>
        <time>2013-05-10T11:34:29Z</time>
      </trkpt>
      <trkpt lat="40.71781" lon="-1.16181">
        <ele>1279.767</ele>
        <time>2013-05-10T11:34:26Z</time>
      </trkpt>
      <trkpt lat="40.71792" lon="-1.16191">
        <ele>1281.181</ele>
        <time>2013-05-10T11:34:22Z</time>
      </trkpt>
      <trkpt lat="40.71822" lon="-1.16181">
        <ele>1281.119</ele>
        <time>2013-05-10T11:34:16Z</time>
      </trkpt>
      <trkpt lat="40.7188" lon="-1.16175">
        <ele>1283.008</ele>
        <time>2013-05-10T11:34:07Z</time>
      </trkpt>
      <trkpt lat="40.71924" lon="-1.16185">
        <ele>1285.447</ele>
        <time>2013-05-10T11:34:00Z</time>
      </trkpt>
      <trkpt lat="40.71945" lon="-1.16196">
        <ele>1286.948</ele>
        <time>2013-05-10T11:33:56Z</time>
      </trkpt>
      <trkpt lat="40.71954" lon="-1.16206">
        <ele>1288.33</ele>
        <time>2013-05-10T11:33:54Z</time>
      </trkpt>
      <trkpt lat="40.71998" lon="-1.16248">
        <ele>1291.735</ele>
        <time>2013-05-10T11:33:44Z</time>
      </trkpt>
      <trkpt lat="40.72027" lon="-1.16264">
        <ele>1292.682</ele>
        <time>2013-05-10T11:33:39Z</time>
      </trkpt>
      <trkpt lat="40.72077" lon="-1.16308">
        <ele>1295.549</ele>
        <time>2013-05-10T11:33:31Z</time>
      </trkpt>
      <trkpt lat="40.72133" lon="-1.16349">
        <ele>1298.967</ele>
        <time>2013-05-10T11:33:24Z</time>
      </trkpt>
      <trkpt lat="40.72207" lon="-1.16414">
        <ele>1302.26</ele>
        <time>2013-05-10T11:33:12Z</time>
      </trkpt>
      <trkpt lat="40.7222" lon="-1.16419">
        <ele>1302.252</ele>
        <time>2013-05-10T11:33:10Z</time>
      </trkpt>
      <trkpt lat="40.72227" lon="-1.1642">
        <ele>1302.253</ele>
        <time>2013-05-10T11:33:09Z</time>
      </trkpt>
      <trkpt lat="40.72255" lon="-1.16427">
        <ele>1306.108</ele>
        <time>2013-05-10T11:33:04Z</time>
      </trkpt>
      <trkpt lat="40.72265" lon="-1.16434">
        <ele>1307.508</ele>
        <time>2013-05-10T11:33:02Z</time>
      </trkpt>
      <trkpt lat="40.72286" lon="-1.16453">
        <ele>1310.966</ele>
        <time>2013-05-10T11:32:58Z</time>
      </trkpt>
      <trkpt lat="40.72297" lon="-1.16462">
        <ele>1311.947</ele>
        <time>2013-05-10T11:32:56Z</time>
      </trkpt>
      <trkpt lat="40.72313" lon="-1.16474">
        <ele>1314.329</ele>
        <time>2013-05-10T11:32:53Z</time>
      </trkpt>
      <trkpt lat="40.7233" lon="-1.16496">
        <ele>1316.234</ele>
        <time>2013-05-10T11:32:49Z</time>
      </trkpt>
      <trkpt lat="40.72347" lon="-1.16533">
        <ele>1318.661</ele>
        <time>2013-05-10T11:32:43Z</time>
      </trkpt>
      <trkpt lat="40.7236" lon="-1.16579">
        <ele>1320.578</ele>
        <time>2013-05-10T11:32:34Z</time>
      </trkpt>
      <trkpt lat="40.72374" lon="-1.16619">
        <ele>1323.946</ele>
        <time>2013-05-10T11:32:27Z</time>
      </trkpt>
      <trkpt lat="40.72377" lon="-1.16625">
        <ele>1323.989</ele>
        <time>2013-05-10T11:32:26Z</time>
      </trkpt>
      <trkpt lat="40.72393" lon="-1.16668">
        <ele>1327.761</ele>
        <time>2013-05-10T11:32:20Z</time>
      </trkpt>
      <trkpt lat="40.72411" lon="-1.16703">
        <ele>1330.621</ele>
        <time>2013-05-10T11:32:15Z</time>
      </trkpt>
      <trkpt lat="40.72415" lon="-1.16709">
        <ele>1331.113</ele>
        <time>2013-05-10T11:32:14Z</time>
      </trkpt>
      <trkpt lat="40.72448" lon="-1.1673">
        <ele>1334.008</ele>
        <time>2013-05-10T11:32:07Z</time>
      </trkpt>
      <trkpt lat="40.72453" lon="-1.1673">
        <ele>1334.917</ele>
        <time>2013-05-10T11:32:06Z</time>
      </trkpt>
      <trkpt lat="40.72464" lon="-1.16731">
        <ele>1335.928</ele>
        <time>2013-05-10T11:32:04Z</time>
      </trkpt>
      <trkpt lat="40.7247" lon="-1.16734">
        <ele>1336.91</ele>
        <time>2013-05-10T11:32:03Z</time>
      </trkpt>
      <trkpt lat="40.72485" lon="-1.1674">
        <ele>1337.825</ele>
        <time>2013-05-10T11:32:00Z</time>
      </trkpt>
      <trkpt lat="40.72513" lon="-1.16757">
        <ele>1341.232</ele>
        <time>2013-05-10T11:31:55Z</time>
      </trkpt>
      <trkpt lat="40.72555" lon="-1.16768">
        <ele>1345.539</ele>
        <time>2013-05-10T11:31:48Z</time>
      </trkpt>
      <trkpt lat="40.72577" lon="-1.16773">
        <ele>1347.927</ele>
        <time>2013-05-10T11:31:45Z</time>
      </trkpt>
      <trkpt lat="40.72606" lon="-1.16788">
        <ele>1351.34</ele>
        <time>2013-05-10T11:31:41Z</time>
      </trkpt>
      <trkpt lat="40.72645" lon="-1.16814">
        <ele>1355.139</ele>
        <time>2013-05-10T11:31:35Z</time>
      </trkpt>
      <trkpt lat="40.72665" lon="-1.16823">
        <ele>1357.001</ele>
        <time>2013-05-10T11:31:32Z</time>
      </trkpt>
      <trkpt lat="40.727" lon="-1.16842">
        <ele>1360.421</ele>
        <time>2013-05-10T11:31:27Z</time>
      </trkpt>
      <trkpt lat="40.72749" lon="-1.16866">
        <ele>1364.708</ele>
        <time>2013-05-10T11:31:20Z</time>
      </trkpt>
      <trkpt lat="40.7276" lon="-1.16876">
        <ele>1366.224</ele>
        <time>2013-05-10T11:31:18Z</time>
      </trkpt>
      <trkpt lat="40.7279" lon="-1.16904">
        <ele>1370.055</ele>
        <time>2013-05-10T11:31:13Z</time>
      </trkpt>
      <trkpt lat="40.7283" lon="-1.16933">
        <ele>1374.357</ele>
        <time>2013-05-10T11:31:06Z</time>
      </trkpt>
      <trkpt lat="40.72846" lon="-1.1695">
        <ele>1376.382</ele>
        <time>2013-05-10T11:31:03Z</time>
      </trkpt>
      <trkpt lat="40.7286" lon="-1.16959">
        <ele>1378.229</ele>
        <time>2013-05-10T11:31:01Z</time>
      </trkpt>
      <trkpt lat="40.72893" lon="-1.16974">
        <ele>1381.176</ele>
        <time>2013-05-10T11:30:57Z</time>
      </trkpt>
      <trkpt lat="40.72927" lon="-1.16985">
        <ele>1384.944</ele>
        <time>2013-05-10T11:30:53Z</time>
      </trkpt>
      <trkpt lat="40.7296" lon="-1.16988">
        <ele>1387.837</ele>
        <time>2013-05-10T11:30:49Z</time>
      </trkpt>
      <trkpt lat="40.73006" lon="-1.1699">
        <ele>1391.235</ele>
        <time>2013-05-10T11:30:42Z</time>
      </trkpt>
      <trkpt lat="40.73022" lon="-1.16991">
        <ele>1392.686</ele>
        <time>2013-05-10T11:30:35Z</time>
      </trkpt>
      <trkpt lat="40.73031" lon="-1.16991">
        <ele>1393.614</ele>
        <time>2013-05-10T11:30:28Z</time>
      </trkpt>
      <trkpt lat="40.73065" lon="-1.16992">
        <ele>1396.908</ele>
        <time>2013-05-10T11:30:18Z</time>
      </trkpt>
      <trkpt lat="40.73098" lon="-1.16997">
        <ele>1399.824</ele>
        <time>2013-05-10T11:30:06Z</time>
      </trkpt>
      <trkpt lat="40.73131" lon="-1.17007">
        <ele>1402.755</ele>
        <time>2013-05-10T11:29:58Z</time>
      </trkpt>
      <trkpt lat="40.73143" lon="-1.17011">
        <ele>1403.227</ele>
        <time>2013-05-10T11:29:31Z</time>
      </trkpt>
      <trkpt lat="40.73144" lon="-1.17012">
        <ele>1403.232</ele>
        <time>2013-05-10T11:28:42Z</time>
      </trkpt>
      <trkpt lat="40.73168" lon="-1.17018">
        <ele>1404.169</ele>
        <time>2013-05-10T11:28:34Z</time>
      </trkpt>
      <trkpt lat="40.73173" lon="-1.17018">
        <ele>1404.666</ele>
        <time>2013-05-10T11:28:33Z</time>
      </trkpt>
      <trkpt lat="40.73237" lon="-1.17009">
        <ele>1406.654</ele>
        <time>2013-05-10T11:28:21Z</time>
      </trkpt>
      <trkpt lat="40.73262" lon="-1.17001">
        <ele>1406.697</ele>
        <time>2013-05-10T11:28:16Z</time>
      </trkpt>
      <trkpt lat="40.73306" lon="-1.16967">
        <ele>1406.633</ele>
        <time>2013-05-10T11:28:07Z</time>
      </trkpt>
      <trkpt lat="40.73389" lon="-1.16906">
        <ele>1406.623</ele>
        <time>2013-05-10T11:27:53Z</time>
      </trkpt>
      <trkpt lat="40.73442" lon="-1.16862">
        <ele>1407.515</ele>
        <time>2013-05-10T11:27:42Z</time>
      </trkpt>
      <trkpt lat="40.73478" lon="-1.16822">
        <ele>1409.908</ele>
        <time>2013-05-10T11:27:31Z</time>
      </trkpt>
      <trkpt lat="40.73521" lon="-1.16813">
        <ele>1409.964</ele>
        <time>2013-05-10T11:27:18Z</time>
      </trkpt>
      <trkpt lat="40.73553" lon="-1.16791">
        <ele>1409.975</ele>
        <time>2013-05-10T11:27:06Z</time>
      </trkpt>
      <trkpt lat="40.73588" lon="-1.16779">
        <ele>1408.567</ele>
        <time>2013-05-10T11:26:54Z</time>
      </trkpt>
      <trkpt lat="40.73621" lon="-1.16759">
        <ele>1406.172</ele>
        <time>2013-05-10T11:26:41Z</time>
      </trkpt>
      <trkpt lat="40.73647" lon="-1.16753">
        <ele>1404.689</ele>
        <time>2013-05-10T11:26:31Z</time>
      </trkpt>
      <trkpt lat="40.73689" lon="-1.16761">
        <ele>1402.226</ele>
        <time>2013-05-10T11:26:15Z</time>
      </trkpt>
      <trkpt lat="40.73734" lon="-1.16759">
        <ele>1400.864</ele>
        <time>2013-05-10T11:25:58Z</time>
      </trkpt>
      <trkpt lat="40.73768" lon="-1.16762">
        <ele>1399.337</ele>
        <time>2013-05-10T11:25:45Z</time>
      </trkpt>
      <trkpt lat="40.73792" lon="-1.1677">
        <ele>1397.981</ele>
        <time>2013-05-10T11:25:35Z</time>
      </trkpt>
      <trkpt lat="40.73827" lon="-1.16789">
        <ele>1395.561</ele>
        <time>2013-05-10T11:25:19Z</time>
      </trkpt>
      <trkpt lat="40.73866" lon="-1.1681">
        <ele>1393.617</ele>
        <time>2013-05-10T11:25:03Z</time>
      </trkpt>
      <trkpt lat="40.73869" lon="-1.16811">
        <ele>1393.608</ele>
        <time>2013-05-10T11:25:02Z</time>
      </trkpt>
      <trkpt lat="40.73914" lon="-1.16845">
        <ele>1392.159</ele>
        <time>2013-05-10T11:24:49Z</time>
      </trkpt>
      <trkpt lat="40.73953" lon="-1.16885">
        <ele>1392.12</ele>
        <time>2013-05-10T11:24:39Z</time>
      </trkpt>
      <trkpt lat="40.74004" lon="-1.16939">
        <ele>1393.672</ele>
        <time>2013-05-10T11:24:28Z</time>
      </trkpt>
      <trkpt lat="40.7401" lon="-1.1695">
        <ele>1394.117</ele>
        <time>2013-05-10T11:24:26Z</time>
      </trkpt>
      <trkpt lat="40.74014" lon="-1.1696">
        <ele>1395.534</ele>
        <time>2013-05-10T11:24:24Z</time>
      </trkpt>
      <trkpt lat="40.74021" lon="-1.16977">
        <ele>1395.551</ele>
        <time>2013-05-10T11:24:20Z</time>
      </trkpt>
      <trkpt lat="40.74035" lon="-1.17024">
        <ele>1395.019</ele>
        <time>2013-05-10T11:24:06Z</time>
      </trkpt>
      <trkpt lat="40.74045" lon="-1.1706">
        <ele>1393.682</ele>
        <time>2013-05-10T11:23:51Z</time>
      </trkpt>
      <trkpt lat="40.74061" lon="-1.17091">
        <ele>1391.244</ele>
        <time>2013-05-10T11:23:36Z</time>
      </trkpt>
      <trkpt lat="40.74077" lon="-1.17117">
        <ele>1389.205</ele>
        <time>2013-05-10T11:23:21Z</time>
      </trkpt>
      <trkpt lat="40.74091" lon="-1.17144">
        <ele>1386.815</ele>
        <time>2013-05-10T11:23:07Z</time>
      </trkpt>
      <trkpt lat="40.741" lon="-1.17168">
        <ele>1384.408</ele>
        <time>2013-05-10T11:22:56Z</time>
      </trkpt>
      <trkpt lat="40.74125" lon="-1.17188">
        <ele>1383.555</ele>
        <time>2013-05-10T11:22:47Z</time>
      </trkpt>
      <trkpt lat="40.74171" lon="-1.17196">
        <ele>1383.516</ele>
        <time>2013-05-10T11:22:35Z</time>
      </trkpt>
      <trkpt lat="40.74192" lon="-1.17208">
        <ele>1383.598</ele>
        <time>2013-05-10T11:22:30Z</time>
      </trkpt>
      <trkpt lat="40.74214" lon="-1.17217">
        <ele>1384.483</ele>
        <time>2013-05-10T11:22:25Z</time>
      </trkpt>
      <trkpt lat="40.74236" lon="-1.17225">
        <ele>1385.49</ele>
        <time>2013-05-10T11:22:20Z</time>
      </trkpt>
      <trkpt lat="40.74254" lon="-1.17241">
        <ele>1386.487</ele>
        <time>2013-05-10T11:22:15Z</time>
      </trkpt>
      <trkpt lat="40.74289" lon="-1.17259">
        <ele>1387.365</ele>
        <time>2013-05-10T11:22:04Z</time>
      </trkpt>
      <trkpt lat="40.743" lon="-1.17266">
        <ele>1387.398</ele>
        <time>2013-05-10T11:21:28Z</time>
      </trkpt>
      <trkpt lat="40.74299" lon="-1.17264">
        <ele>1387.318</ele>
        <time>2013-05-10T11:21:11Z</time>
      </trkpt>
      <trkpt lat="40.74298" lon="-1.17265">
        <ele>1387.398</ele>
        <time>2013-05-10T11:20:44Z</time>
      </trkpt>
      <trkpt lat="40.74301" lon="-1.17263">
        <ele>1387.817</ele>
        <time>2013-05-10T11:20:01Z</time>
      </trkpt>
      <trkpt lat="40.7434" lon="-1.17278">
        <ele>1389.208</ele>
        <time>2013-05-10T11:19:49Z</time>
      </trkpt>
      <trkpt lat="40.74396" lon="-1.17291">
        <ele>1389.282</ele>
        <time>2013-05-10T11:19:36Z</time>
      </trkpt>
      <trkpt lat="40.7445" lon="-1.17329">
        <ele>1389.293</ele>
        <time>2013-05-10T11:19:22Z</time>
      </trkpt>
      <trkpt lat="40.74502" lon="-1.17358">
        <ele>1388.845</ele>
        <time>2013-05-10T11:19:08Z</time>
      </trkpt>
      <trkpt lat="40.74542" lon="-1.17368">
        <ele>1388.35</ele>
        <time>2013-05-10T11:18:56Z</time>
      </trkpt>
      <trkpt lat="40.74567" lon="-1.17369">
        <ele>1388.377</ele>
        <time>2013-05-10T11:18:47Z</time>
      </trkpt>
      <trkpt lat="40.74587" lon="-1.17399">
        <ele>1388.384</ele>
        <time>2013-05-10T11:18:36Z</time>
      </trkpt>
      <trkpt lat="40.74595" lon="-1.17403">
        <ele>1387.312</ele>
        <time>2013-05-10T11:18:32Z</time>
      </trkpt>
      <trkpt lat="40.74636" lon="-1.17391">
        <ele>1386.825</ele>
        <time>2013-05-10T11:18:19Z</time>
      </trkpt>
      <trkpt lat="40.74666" lon="-1.17389">
        <ele>1387.382</ele>
        <time>2013-05-10T11:18:10Z</time>
      </trkpt>
      <trkpt lat="40.74684" lon="-1.17409">
        <ele>1389.243</ele>
        <time>2013-05-10T11:18:01Z</time>
      </trkpt>
      <trkpt lat="40.74702" lon="-1.17419">
        <ele>1389.717</ele>
        <time>2013-05-10T11:17:49Z</time>
      </trkpt>
      <trkpt lat="40.74704" lon="-1.1742">
        <ele>1389.708</ele>
        <time>2013-05-10T11:17:48Z</time>
      </trkpt>
      <trkpt lat="40.74708" lon="-1.17422">
        <ele>1389.799</ele>
        <time>2013-05-10T11:17:19Z</time>
      </trkpt>
      <trkpt lat="40.7474" lon="-1.17429">
        <ele>1390.75</ele>
        <time>2013-05-10T11:17:07Z</time>
      </trkpt>
      <trkpt lat="40.74778" lon="-1.17432">
        <ele>1390.212</ele>
        <time>2013-05-10T11:16:54Z</time>
      </trkpt>
      <trkpt lat="40.74808" lon="-1.17424">
        <ele>1389.267</ele>
        <time>2013-05-10T11:16:43Z</time>
      </trkpt>
      <trkpt lat="40.74842" lon="-1.17411">
        <ele>1387.394</ele>
        <time>2013-05-10T11:16:29Z</time>
      </trkpt>
      <trkpt lat="40.74878" lon="-1.174">
        <ele>1385.951</ele>
        <time>2013-05-10T11:16:15Z</time>
      </trkpt>
      <trkpt lat="40.74902" lon="-1.17387">
        <ele>1384.959</ele>
        <time>2013-05-10T11:16:04Z</time>
      </trkpt>
      <trkpt lat="40.74924" lon="-1.17358">
        <ele>1384.072</ele>
        <time>2013-05-10T11:15:52Z</time>
      </trkpt>
      <trkpt lat="40.74956" lon="-1.1733">
        <ele>1383.021</ele>
        <time>2013-05-10T11:15:37Z</time>
      </trkpt>
      <trkpt lat="40.74963" lon="-1.17314">
        <ele>1382.041</ele>
        <time>2013-05-10T11:15:30Z</time>
      </trkpt>
      <trkpt lat="40.74961" lon="-1.17309">
        <ele>1382.005</ele>
        <time>2013-05-10T11:15:28Z</time>
      </trkpt>
      <trkpt lat="40.74941" lon="-1.17287">
        <ele>1380.608</ele>
        <time>2013-05-10T11:15:16Z</time>
      </trkpt>
      <trkpt lat="40.74911" lon="-1.17252">
        <ele>1379.683</ele>
        <time>2013-05-10T11:15:03Z</time>
      </trkpt>
      <trkpt lat="40.74888" lon="-1.17208">
        <ele>1379.694</ele>
        <time>2013-05-10T11:14:51Z</time>
      </trkpt>
      <trkpt lat="40.7487" lon="-1.17188">
        <ele>1379.666</ele>
        <time>2013-05-10T11:14:42Z</time>
      </trkpt>
      <trkpt lat="40.74873" lon="-1.17167">
        <ele>1378.771</ele>
        <time>2013-05-10T11:13:46Z</time>
      </trkpt>
      <trkpt lat="40.74895" lon="-1.17133">
        <ele>1377.238</ele>
        <time>2013-05-10T11:13:33Z</time>
      </trkpt>
      <trkpt lat="40.74929" lon="-1.17111">
        <ele>1375.835</ele>
        <time>2013-05-10T11:13:18Z</time>
      </trkpt>
      <trkpt lat="40.74957" lon="-1.17094">
        <ele>1374.813</ele>
        <time>2013-05-10T11:13:06Z</time>
      </trkpt>
      <trkpt lat="40.74996" lon="-1.17071">
        <ele>1373.926</ele>
        <time>2013-05-10T11:12:54Z</time>
      </trkpt>
      <trkpt lat="40.7503" lon="-1.17049">
        <ele>1372.969</ele>
        <time>2013-05-10T11:12:41Z</time>
      </trkpt>
      <trkpt lat="40.75047" lon="-1.1702">
        <ele>1371.904</ele>
        <time>2013-05-10T11:12:30Z</time>
      </trkpt>
      <trkpt lat="40.75076" lon="-1.16999">
        <ele>1371.024</ele>
        <time>2013-05-10T11:12:18Z</time>
      </trkpt>
      <trkpt lat="40.7511" lon="-1.16961">
        <ele>1369.108</ele>
        <time>2013-05-10T11:12:05Z</time>
      </trkpt>
      <trkpt lat="40.75146" lon="-1.16946">
        <ele>1369.167</ele>
        <time>2013-05-10T11:11:55Z</time>
      </trkpt>
      <trkpt lat="40.75173" lon="-1.16921">
        <ele>1368.628</ele>
        <time>2013-05-10T11:11:46Z</time>
      </trkpt>
      <trkpt lat="40.75198" lon="-1.16898">
        <ele>1368.64</ele>
        <time>2013-05-10T11:11:36Z</time>
      </trkpt>
      <trkpt lat="40.75221" lon="-1.16896">
        <ele>1367.115</ele>
        <time>2013-05-10T11:11:25Z</time>
      </trkpt>
      <trkpt lat="40.75259" lon="-1.16895">
        <ele>1365.792</ele>
        <time>2013-05-10T11:11:13Z</time>
      </trkpt>
      <trkpt lat="40.75283" lon="-1.16868">
        <ele>1365.779</ele>
        <time>2013-05-10T11:11:03Z</time>
      </trkpt>
      <trkpt lat="40.75309" lon="-1.16825">
        <ele>1364.767</ele>
        <time>2013-05-10T11:10:51Z</time>
      </trkpt>
      <trkpt lat="40.75342" lon="-1.168">
        <ele>1364.75</ele>
        <time>2013-05-10T11:10:40Z</time>
      </trkpt>
      <trkpt lat="40.75375" lon="-1.16773">
        <ele>1364.324</ele>
        <time>2013-05-10T11:10:28Z</time>
      </trkpt>
      <trkpt lat="40.75409" lon="-1.16745">
        <ele>1363.804</ele>
        <time>2013-05-10T11:10:16Z</time>
      </trkpt>
      <trkpt lat="40.75446" lon="-1.16711">
        <ele>1362.314</ele>
        <time>2013-05-10T11:10:02Z</time>
      </trkpt>
      <trkpt lat="40.75478" lon="-1.16684">
        <ele>1361.408</ele>
        <time>2013-05-10T11:09:49Z</time>
      </trkpt>
      <trkpt lat="40.75513" lon="-1.16649">
        <ele>1361.413</ele>
        <time>2013-05-10T11:09:36Z</time>
      </trkpt>
      <trkpt lat="40.75539" lon="-1.16616">
        <ele>1360.954</ele>
        <time>2013-05-10T11:09:24Z</time>
      </trkpt>
      <trkpt lat="40.7556" lon="-1.16572">
        <ele>1359.436</ele>
        <time>2013-05-10T11:09:09Z</time>
      </trkpt>
      <trkpt lat="40.75574" lon="-1.16541">
        <ele>1358.591</ele>
        <time>2013-05-10T11:08:57Z</time>
      </trkpt>
      <trkpt lat="40.75585" lon="-1.16511">
        <ele>1357.558</ele>
        <time>2013-05-10T11:08:45Z</time>
      </trkpt>
      <trkpt lat="40.75607" lon="-1.16481">
        <ele>1356.675</ele>
        <time>2013-05-10T11:08:34Z</time>
      </trkpt>
      <trkpt lat="40.75611" lon="-1.16472">
        <ele>1356.173</ele>
        <time>2013-05-10T11:08:32Z</time>
      </trkpt>
      <trkpt lat="40.75638" lon="-1.16453">
        <ele>1354.676</ele>
        <time>2013-05-10T11:08:26Z</time>
      </trkpt>
      <trkpt lat="40.75651" lon="-1.16453">
        <ele>1355.655</ele>
        <time>2013-05-10T11:08:24Z</time>
      </trkpt>
      <trkpt lat="40.75675" lon="-1.16459">
        <ele>1357.507</ele>
        <time>2013-05-10T11:08:20Z</time>
      </trkpt>
      <trkpt lat="40.75702" lon="-1.16471">
        <ele>1358.517</ele>
        <time>2013-05-10T11:08:16Z</time>
      </trkpt>
      <trkpt lat="40.75771" lon="-1.16497">
        <ele>1361.808</ele>
        <time>2013-05-10T11:08:05Z</time>
      </trkpt>
      <trkpt lat="40.7583" lon="-1.16521">
        <ele>1362.866</ele>
        <time>2013-05-10T11:07:54Z</time>
      </trkpt>
      <trkpt lat="40.75905" lon="-1.16546">
        <ele>1364.397</ele>
        <time>2013-05-10T11:07:41Z</time>
      </trkpt>
      <trkpt lat="40.75972" lon="-1.16568">
        <ele>1365.249</ele>
        <time>2013-05-10T11:07:28Z</time>
      </trkpt>
      <trkpt lat="40.75976" lon="-1.16569">
        <ele>1365.244</ele>
        <time>2013-05-10T11:07:27Z</time>
      </trkpt>
      <trkpt lat="40.7602" lon="-1.16581">
        <ele>1365.721</ele>
        <time>2013-05-10T11:07:15Z</time>
      </trkpt>
      <trkpt lat="40.76061" lon="-1.16604">
        <ele>1366.258</ele>
        <time>2013-05-10T11:07:03Z</time>
      </trkpt>
      <trkpt lat="40.76073" lon="-1.16609">
        <ele>1366.286</ele>
        <time>2013-05-10T11:07:00Z</time>
      </trkpt>
      <trkpt lat="40.76096" lon="-1.1663">
        <ele>1366.789</ele>
        <time>2013-05-10T11:06:54Z</time>
      </trkpt>
      <trkpt lat="40.76112" lon="-1.16643">
        <ele>1367.157</ele>
        <time>2013-05-10T11:06:50Z</time>
      </trkpt>
      <trkpt lat="40.76117" lon="-1.16646">
        <ele>1367.1</ele>
        <time>2013-05-10T11:06:49Z</time>
      </trkpt>
      <trkpt lat="40.76172" lon="-1.16665">
        <ele>1367.12</ele>
        <time>2013-05-10T11:06:39Z</time>
      </trkpt>
      <trkpt lat="40.76203" lon="-1.16681">
        <ele>1367.608</ele>
        <time>2013-05-10T11:06:34Z</time>
      </trkpt>
      <trkpt lat="40.76216" lon="-1.16682">
        <ele>1368.676</ele>
        <time>2013-05-10T11:06:32Z</time>
      </trkpt>
      <trkpt lat="40.76275" lon="-1.16696">
        <ele>1371.537</ele>
        <time>2013-05-10T11:06:22Z</time>
      </trkpt>
      <trkpt lat="40.7629" lon="-1.16705">
        <ele>1371.929</ele>
        <time>2013-05-10T11:06:19Z</time>
      </trkpt>
      <trkpt lat="40.7635" lon="-1.1672">
        <ele>1374.344</ele>
        <time>2013-05-10T11:06:07Z</time>
      </trkpt>
      <trkpt lat="40.76361" lon="-1.16725">
        <ele>1374.851</ele>
        <time>2013-05-10T11:06:05Z</time>
      </trkpt>
      <trkpt lat="40.76382" lon="-1.16739">
        <ele>1375.858</ele>
        <time>2013-05-10T11:06:01Z</time>
      </trkpt>
      <trkpt lat="40.76392" lon="-1.16751">
        <ele>1376.856</ele>
        <time>2013-05-10T11:05:58Z</time>
      </trkpt>
      <trkpt lat="40.76419" lon="-1.16772">
        <ele>1378.719</ele>
        <time>2013-05-10T11:05:49Z</time>
      </trkpt>
      <trkpt lat="40.76447" lon="-1.16782">
        <ele>1380.197</ele>
        <time>2013-05-10T11:05:40Z</time>
      </trkpt>
      <trkpt lat="40.76461" lon="-1.16805">
        <ele>1382.023</ele>
        <time>2013-05-10T11:05:31Z</time>
      </trkpt>
      <trkpt lat="40.76477" lon="-1.16827">
        <ele>1384.025</ele>
        <time>2013-05-10T11:04:59Z</time>
      </trkpt>
      <trkpt lat="40.76476" lon="-1.16828">
        <ele>1384.008</ele>
        <time>2013-05-10T11:04:23Z</time>
      </trkpt>
      <trkpt lat="40.76477" lon="-1.16827">
        <ele>1384.05</ele>
        <time>2013-05-10T11:03:43Z</time>
      </trkpt>
      <trkpt lat="40.76476" lon="-1.16826">
        <ele>1383.071</ele>
        <time>2013-05-10T11:02:24Z</time>
      </trkpt>
      <trkpt lat="40.7648" lon="-1.16831">
        <ele>1383.593</ele>
        <time>2013-05-10T11:02:15Z</time>
      </trkpt>
      <trkpt lat="40.7651" lon="-1.1685">
        <ele>1383.538</ele>
        <time>2013-05-10T11:02:05Z</time>
      </trkpt>
      <trkpt lat="40.76517" lon="-1.16854">
        <ele>1384.045</ele>
        <time>2013-05-10T11:02:03Z</time>
      </trkpt>
      <trkpt lat="40.76551" lon="-1.16878">
        <ele>1384.492</ele>
        <time>2013-05-10T11:01:53Z</time>
      </trkpt>
      <trkpt lat="40.76566" lon="-1.16886">
        <ele>1384.98</ele>
        <time>2013-05-10T11:01:49Z</time>
      </trkpt>
      <trkpt lat="40.76594" lon="-1.1689">
        <ele>1385.983</ele>
        <time>2013-05-10T11:01:42Z</time>
      </trkpt>
      <trkpt lat="40.76602" lon="-1.16889">
        <ele>1386.466</ele>
        <time>2013-05-10T11:01:40Z</time>
      </trkpt>
      <trkpt lat="40.7664" lon="-1.16908">
        <ele>1386.829</ele>
        <time>2013-05-10T11:01:28Z</time>
      </trkpt>
      <trkpt lat="40.76675" lon="-1.16928">
        <ele>1387.821</ele>
        <time>2013-05-10T11:01:17Z</time>
      </trkpt>
      <trkpt lat="40.76704" lon="-1.16947">
        <ele>1388.308</ele>
        <time>2013-05-10T11:01:07Z</time>
      </trkpt>
      <trkpt lat="40.76745" lon="-1.1697">
        <ele>1388.867</ele>
        <time>2013-05-10T11:00:54Z</time>
      </trkpt>
      <trkpt lat="40.76797" lon="-1.1698">
        <ele>1390.228</ele>
        <time>2013-05-10T11:00:39Z</time>
      </trkpt>
      <trkpt lat="40.76828" lon="-1.1698">
        <ele>1390.24</ele>
        <time>2013-05-10T11:00:29Z</time>
      </trkpt>
      <trkpt lat="40.76862" lon="-1.16988">
        <ele>1389.785</ele>
        <time>2013-05-10T11:00:15Z</time>
      </trkpt>
      <trkpt lat="40.76884" lon="-1.16993">
        <ele>1389.282</ele>
        <time>2013-05-10T11:00:04Z</time>
      </trkpt>
      <trkpt lat="40.76905" lon="-1.17">
        <ele>1387.849</ele>
        <time>2013-05-10T10:59:51Z</time>
      </trkpt>
      <trkpt lat="40.76927" lon="-1.17007">
        <ele>1385.927</ele>
        <time>2013-05-10T10:59:37Z</time>
      </trkpt>
      <trkpt lat="40.76949" lon="-1.17006">
        <ele>1384.03</ele>
        <time>2013-05-10T10:59:22Z</time>
      </trkpt>
      <trkpt lat="40.76959" lon="-1.16999">
        <ele>1383.063</ele>
        <time>2013-05-10T10:59:15Z</time>
      </trkpt>
      <trkpt lat="40.76978" lon="-1.16988">
        <ele>1381.144</ele>
        <time>2013-05-10T10:59:01Z</time>
      </trkpt>
      <trkpt lat="40.76994" lon="-1.1698">
        <ele>1379.218</ele>
        <time>2013-05-10T10:58:47Z</time>
      </trkpt>
      <trkpt lat="40.77003" lon="-1.16967">
        <ele>1378.208</ele>
        <time>2013-05-10T10:58:39Z</time>
      </trkpt>
      <trkpt lat="40.77026" lon="-1.16947">
        <ele>1376.887</ele>
        <time>2013-05-10T10:58:27Z</time>
      </trkpt>
      <trkpt lat="40.77052" lon="-1.16934">
        <ele>1375.828</ele>
        <time>2013-05-10T10:58:15Z</time>
      </trkpt>
      <trkpt lat="40.77081" lon="-1.16937">
        <ele>1374.37</ele>
        <time>2013-05-10T10:58:01Z</time>
      </trkpt>
      <trkpt lat="40.77111" lon="-1.16941">
        <ele>1373.475</ele>
        <time>2013-05-10T10:57:48Z</time>
      </trkpt>
      <trkpt lat="40.77143" lon="-1.16936">
        <ele>1372.952</ele>
        <time>2013-05-10T10:57:34Z</time>
      </trkpt>
      <trkpt lat="40.77172" lon="-1.16934">
        <ele>1371.029</ele>
        <time>2013-05-10T10:57:19Z</time>
      </trkpt>
      <trkpt lat="40.77194" lon="-1.1693">
        <ele>1369.597</ele>
        <time>2013-05-10T10:57:07Z</time>
      </trkpt>
      <trkpt lat="40.7722" lon="-1.16923">
        <ele>1367.64</ele>
        <time>2013-05-10T10:56:53Z</time>
      </trkpt>
      <trkpt lat="40.77247" lon="-1.16919">
        <ele>1366.246</ele>
        <time>2013-05-10T10:56:40Z</time>
      </trkpt>
      <trkpt lat="40.77274" lon="-1.16912">
        <ele>1365.288</ele>
        <time>2013-05-10T10:56:28Z</time>
      </trkpt>
      <trkpt lat="40.77306" lon="-1.16911">
        <ele>1364.316</ele>
        <time>2013-05-10T10:56:13Z</time>
      </trkpt>
      <trkpt lat="40.77339" lon="-1.16905">
        <ele>1362.308</ele>
        <time>2013-05-10T10:55:57Z</time>
      </trkpt>
      <trkpt lat="40.77369" lon="-1.16898">
        <ele>1360.915</ele>
        <time>2013-05-10T10:55:41Z</time>
      </trkpt>
      <trkpt lat="40.77392" lon="-1.16892">
        <ele>1359.446</ele>
        <time>2013-05-10T10:55:28Z</time>
      </trkpt>
      <trkpt lat="40.77417" lon="-1.16887">
        <ele>1357.568</ele>
        <time>2013-05-10T10:55:14Z</time>
      </trkpt>
      <trkpt lat="40.7744" lon="-1.16882">
        <ele>1356.183</ele>
        <time>2013-05-10T10:55:02Z</time>
      </trkpt>
      <trkpt lat="40.77467" lon="-1.16875">
        <ele>1354.25</ele>
        <time>2013-05-10T10:54:47Z</time>
      </trkpt>
      <trkpt lat="40.77493" lon="-1.1687">
        <ele>1352.727</ele>
        <time>2013-05-10T10:54:34Z</time>
      </trkpt>
      <trkpt lat="40.77521" lon="-1.16864">
        <ele>1350.365</ele>
        <time>2013-05-10T10:54:20Z</time>
      </trkpt>
      <trkpt lat="40.7755" lon="-1.16858">
        <ele>1349.458</ele>
        <time>2013-05-10T10:54:06Z</time>
      </trkpt>
      <trkpt lat="40.77568" lon="-1.16862">
        <ele>1347.928</ele>
        <time>2013-05-10T10:53:56Z</time>
      </trkpt>
      <trkpt lat="40.77603" lon="-1.16873">
        <ele>1345.589</ele>
        <time>2013-05-10T10:53:42Z</time>
      </trkpt>
      <trkpt lat="40.77615" lon="-1.16868">
        <ele>1346.517</ele>
        <time>2013-05-10T10:53:36Z</time>
      </trkpt>
      <trkpt lat="40.77611" lon="-1.16845">
        <ele>1348.408</ele>
        <time>2013-05-10T10:53:31Z</time>
      </trkpt>
      <trkpt lat="40.77609" lon="-1.16814">
        <ele>1349.433</ele>
        <time>2013-05-10T10:53:27Z</time>
      </trkpt>
      <trkpt lat="40.77615" lon="-1.16783">
        <ele>1351.374</ele>
        <time>2013-05-10T10:53:24Z</time>
      </trkpt>
      <trkpt lat="40.77622" lon="-1.16749">
        <ele>1352.756</ele>
        <time>2013-05-10T10:53:21Z</time>
      </trkpt>
      <trkpt lat="40.77638" lon="-1.16677">
        <ele>1357.061</ele>
        <time>2013-05-10T10:53:14Z</time>
      </trkpt>
      <trkpt lat="40.77651" lon="-1.16643">
        <ele>1359.448</ele>
        <time>2013-05-10T10:53:10Z</time>
      </trkpt>
      <trkpt lat="40.77653" lon="-1.16634">
        <ele>1360.485</ele>
        <time>2013-05-10T10:53:09Z</time>
      </trkpt>
      <trkpt lat="40.77671" lon="-1.16589">
        <ele>1364.753</ele>
        <time>2013-05-10T10:53:02Z</time>
      </trkpt>
      <trkpt lat="40.77684" lon="-1.16565">
        <ele>1367.656</ele>
        <time>2013-05-10T10:52:58Z</time>
      </trkpt>
      <trkpt lat="40.77691" lon="-1.16535">
        <ele>1370.526</ele>
        <time>2013-05-10T10:52:54Z</time>
      </trkpt>
      <trkpt lat="40.77696" lon="-1.16505">
        <ele>1372.947</ele>
        <time>2013-05-10T10:52:50Z</time>
      </trkpt>
      <trkpt lat="40.77703" lon="-1.1647">
        <ele>1376.311</ele>
        <time>2013-05-10T10:52:43Z</time>
      </trkpt>
      <trkpt lat="40.77706" lon="-1.16454">
        <ele>1377.708</ele>
        <time>2013-05-10T10:52:38Z</time>
      </trkpt>
      <trkpt lat="40.77708" lon="-1.16443">
        <ele>1377.763</ele>
        <time>2013-05-10T10:52:06Z</time>
      </trkpt>
      <trkpt lat="40.77708" lon="-1.16445">
        <ele>1377.264</ele>
        <time>2013-05-10T10:51:16Z</time>
      </trkpt>
      <trkpt lat="40.77707" lon="-1.16444">
        <ele>1377.226</ele>
        <time>2013-05-10T10:50:46Z</time>
      </trkpt>
      <trkpt lat="40.77708" lon="-1.16442">
        <ele>1377.221</ele>
        <time>2013-05-10T10:50:12Z</time>
      </trkpt>
      <trkpt lat="40.77708" lon="-1.16441">
        <ele>1377.268</ele>
        <time>2013-05-10T10:49:26Z</time>
      </trkpt>
      <trkpt lat="40.77707" lon="-1.16442">
        <ele>1377.215</ele>
        <time>2013-05-10T10:48:43Z</time>
      </trkpt>
      <trkpt lat="40.77708" lon="-1.16443">
        <ele>1377.263</ele>
        <time>2013-05-10T10:48:19Z</time>
      </trkpt>
      <trkpt lat="40.7771" lon="-1.16426">
        <ele>1378.256</ele>
        <time>2013-05-10T10:48:10Z</time>
      </trkpt>
      <trkpt lat="40.77721" lon="-1.16391">
        <ele>1378.264</ele>
        <time>2013-05-10T10:47:59Z</time>
      </trkpt>
      <trkpt lat="40.77744" lon="-1.16359">
        <ele>1377.206</ele>
        <time>2013-05-10T10:47:47Z</time>
      </trkpt>
      <trkpt lat="40.77765" lon="-1.16343">
        <ele>1376.316</ele>
        <time>2013-05-10T10:47:39Z</time>
      </trkpt>
      <trkpt lat="40.77801" lon="-1.16309">
        <ele>1375.808</ele>
        <time>2013-05-10T10:47:30Z</time>
      </trkpt>
      <trkpt lat="40.77832" lon="-1.1627">
        <ele>1377.777</ele>
        <time>2013-05-10T10:47:22Z</time>
      </trkpt>
      <trkpt lat="40.7785" lon="-1.16231">
        <ele>1377.768</ele>
        <time>2013-05-10T10:47:12Z</time>
      </trkpt>
      <trkpt lat="40.77864" lon="-1.16205">
        <ele>1378.28</ele>
        <time>2013-05-10T10:47:03Z</time>
      </trkpt>
      <trkpt lat="40.7788" lon="-1.1618">
        <ele>1377.275</ele>
        <time>2013-05-10T10:46:52Z</time>
      </trkpt>
      <trkpt lat="40.77884" lon="-1.16155">
        <ele>1376.332</ele>
        <time>2013-05-10T10:46:43Z</time>
      </trkpt>
      <trkpt lat="40.77889" lon="-1.16128">
        <ele>1375.839</ele>
        <time>2013-05-10T10:46:34Z</time>
      </trkpt>
      <trkpt lat="40.77905" lon="-1.16103">
        <ele>1375.357</ele>
        <time>2013-05-10T10:46:24Z</time>
      </trkpt>
      <trkpt lat="40.77919" lon="-1.16083">
        <ele>1375.31</ele>
        <time>2013-05-10T10:46:15Z</time>
      </trkpt>
      <trkpt lat="40.77955" lon="-1.16034">
        <ele>1374.817</ele>
        <time>2013-05-10T10:45:58Z</time>
      </trkpt>
      <trkpt lat="40.77986" lon="-1.15998">
        <ele>1374.387</ele>
        <time>2013-05-10T10:45:44Z</time>
      </trkpt>
      <trkpt lat="40.78014" lon="-1.15967">
        <ele>1373.415</ele>
        <time>2013-05-10T10:45:30Z</time>
      </trkpt>
      <trkpt lat="40.78031" lon="-1.15943">
        <ele>1373.408</ele>
        <time>2013-05-10T10:45:19Z</time>
      </trkpt>
      <trkpt lat="40.78041" lon="-1.15908">
        <ele>1371.942</ele>
        <time>2013-05-10T10:45:08Z</time>
      </trkpt>
      <trkpt lat="40.78046" lon="-1.15871">
        <ele>1371.533</ele>
        <time>2013-05-10T10:44:57Z</time>
      </trkpt>
      <trkpt lat="40.7807" lon="-1.15838">
        <ele>1370.085</ele>
        <time>2013-05-10T10:44:42Z</time>
      </trkpt>
      <trkpt lat="40.78092" lon="-1.15805">
        <ele>1369.59</ele>
        <time>2013-05-10T10:44:28Z</time>
      </trkpt>
      <trkpt lat="40.78111" lon="-1.15781">
        <ele>1369.117</ele>
        <time>2013-05-10T10:44:16Z</time>
      </trkpt>
      <trkpt lat="40.7813" lon="-1.15756">
        <ele>1368.124</ele>
        <time>2013-05-10T10:44:04Z</time>
      </trkpt>
      <trkpt lat="40.78155" lon="-1.15745">
        <ele>1366.212</ele>
        <time>2013-05-10T10:43:50Z</time>
      </trkpt>
      <trkpt lat="40.78177" lon="-1.15733">
        <ele>1365.275</ele>
        <time>2013-05-10T10:43:38Z</time>
      </trkpt>
      <trkpt lat="40.78198" lon="-1.15718">
        <ele>1363.851</ele>
        <time>2013-05-10T10:43:26Z</time>
      </trkpt>
      <trkpt lat="40.78222" lon="-1.15707">
        <ele>1362.301</ele>
        <time>2013-05-10T10:43:13Z</time>
      </trkpt>
      <trkpt lat="40.78244" lon="-1.15697">
        <ele>1360.911</ele>
        <time>2013-05-10T10:43:01Z</time>
      </trkpt>
      <trkpt lat="40.78268" lon="-1.15683">
        <ele>1359.908</ele>
        <time>2013-05-10T10:42:49Z</time>
      </trkpt>
      <trkpt lat="40.78293" lon="-1.15669">
        <ele>1358.586</ele>
        <time>2013-05-10T10:42:36Z</time>
      </trkpt>
      <trkpt lat="40.78322" lon="-1.1565">
        <ele>1357.597</ele>
        <time>2013-05-10T10:42:22Z</time>
      </trkpt>
      <trkpt lat="40.78349" lon="-1.15629">
        <ele>1356.149</ele>
        <time>2013-05-10T10:42:09Z</time>
      </trkpt>
      <trkpt lat="40.78377" lon="-1.1561">
        <ele>1355.184</ele>
        <time>2013-05-10T10:41:56Z</time>
      </trkpt>
      <trkpt lat="40.784" lon="-1.15591">
        <ele>1355.141</ele>
        <time>2013-05-10T10:41:44Z</time>
      </trkpt>
      <trkpt lat="40.78417" lon="-1.15574">
        <ele>1353.738</ele>
        <time>2013-05-10T10:41:36Z</time>
      </trkpt>
      <trkpt lat="40.78428" lon="-1.15537">
        <ele>1353.726</ele>
        <time>2013-05-10T10:41:26Z</time>
      </trkpt>
      <trkpt lat="40.78433" lon="-1.15499">
        <ele>1353.719</ele>
        <time>2013-05-10T10:41:16Z</time>
      </trkpt>
      <trkpt lat="40.78437" lon="-1.15461">
        <ele>1353.747</ele>
        <time>2013-05-10T10:41:05Z</time>
      </trkpt>
      <trkpt lat="40.78438" lon="-1.1543">
        <ele>1353.729</ele>
        <time>2013-05-10T10:40:54Z</time>
      </trkpt>
      <trkpt lat="40.78445" lon="-1.15396">
        <ele>1353.221</ele>
        <time>2013-05-10T10:40:43Z</time>
      </trkpt>
      <trkpt lat="40.78478" lon="-1.15382">
        <ele>1352.208</ele>
        <time>2013-05-10T10:40:29Z</time>
      </trkpt>
      <trkpt lat="40.78508" lon="-1.15384">
        <ele>1351.875</ele>
        <time>2013-05-10T10:40:18Z</time>
      </trkpt>
      <trkpt lat="40.78532" lon="-1.15394">
        <ele>1351.846</ele>
        <time>2013-05-10T10:40:08Z</time>
      </trkpt>
      <trkpt lat="40.78569" lon="-1.15419">
        <ele>1351.368</ele>
        <time>2013-05-10T10:39:54Z</time>
      </trkpt>
      <trkpt lat="40.78597" lon="-1.15446">
        <ele>1351.333</ele>
        <time>2013-05-10T10:39:42Z</time>
      </trkpt>
      <trkpt lat="40.7862" lon="-1.15469">
        <ele>1349.82</ele>
        <time>2013-05-10T10:39:32Z</time>
      </trkpt>
      <trkpt lat="40.78634" lon="-1.15501">
        <ele>1349.467</ele>
        <time>2013-05-10T10:39:23Z</time>
      </trkpt>
      <trkpt lat="40.78641" lon="-1.15536">
        <ele>1350.355</ele>
        <time>2013-05-10T10:39:15Z</time>
      </trkpt>
      <trkpt lat="40.7866" lon="-1.15607">
        <ele>1352.768</ele>
        <time>2013-05-10T10:39:05Z</time>
      </trkpt>
      <trkpt lat="40.78661" lon="-1.15614">
        <ele>1353.766</ele>
        <time>2013-05-10T10:39:04Z</time>
      </trkpt>
      <trkpt lat="40.78665" lon="-1.15638">
        <ele>1354.629</ele>
        <time>2013-05-10T10:39:01Z</time>
      </trkpt>
      <trkpt lat="40.78668" lon="-1.1567">
        <ele>1355.621</ele>
        <time>2013-05-10T10:38:57Z</time>
      </trkpt>
      <trkpt lat="40.7868" lon="-1.15758">
        <ele>1359.408</ele>
        <time>2013-05-10T10:38:47Z</time>
      </trkpt>
      <trkpt lat="40.78697" lon="-1.15851">
        <ele>1362.387</ele>
        <time>2013-05-10T10:38:37Z</time>
      </trkpt>
      <trkpt lat="40.78711" lon="-1.15961">
        <ele>1364.768</ele>
        <time>2013-05-10T10:38:24Z</time>
      </trkpt>
      <trkpt lat="40.78713" lon="-1.15968">
        <ele>1365.21</ele>
        <time>2013-05-10T10:38:23Z</time>
      </trkpt>
      <trkpt lat="40.78726" lon="-1.16014">
        <ele>1366.775</ele>
        <time>2013-05-10T10:38:16Z</time>
      </trkpt>
      <trkpt lat="40.78734" lon="-1.16024">
        <ele>1367.112</ele>
        <time>2013-05-10T10:38:14Z</time>
      </trkpt>
      <trkpt lat="40.78744" lon="-1.16041">
        <ele>1368.189</ele>
        <time>2013-05-10T10:38:11Z</time>
      </trkpt>
      <trkpt lat="40.78753" lon="-1.16063">
        <ele>1368.647</ele>
        <time>2013-05-10T10:38:07Z</time>
      </trkpt>
      <trkpt lat="40.78772" lon="-1.16082">
        <ele>1370.52</ele>
        <time>2013-05-10T10:38:02Z</time>
      </trkpt>
      <trkpt lat="40.78781" lon="-1.16089">
        <ele>1371.594</ele>
        <time>2013-05-10T10:38:00Z</time>
      </trkpt>
      <trkpt lat="40.78802" lon="-1.16119">
        <ele>1373.457</ele>
        <time>2013-05-10T10:37:54Z</time>
      </trkpt>
      <trkpt lat="40.78812" lon="-1.1615">
        <ele>1374.822</ele>
        <time>2013-05-10T10:37:49Z</time>
      </trkpt>
      <trkpt lat="40.78836" lon="-1.16165">
        <ele>1376.808</ele>
        <time>2013-05-10T10:37:43Z</time>
      </trkpt>
      <trkpt lat="40.78853" lon="-1.16181">
        <ele>1378.71</ele>
        <time>2013-05-10T10:37:39Z</time>
      </trkpt>
      <trkpt lat="40.78866" lon="-1.16207">
        <ele>1380.161</ele>
        <time>2013-05-10T10:37:34Z</time>
      </trkpt>
      <trkpt lat="40.78874" lon="-1.16217">
        <ele>1380.633</ele>
        <time>2013-05-10T10:37:31Z</time>
      </trkpt>
      <trkpt lat="40.78887" lon="-1.16253">
        <ele>1380.618</ele>
        <time>2013-05-10T10:37:19Z</time>
      </trkpt>
      <trkpt lat="40.78895" lon="-1.16287">
        <ele>1380.695</ele>
        <time>2013-05-10T10:37:08Z</time>
      </trkpt>
      <trkpt lat="40.78908" lon="-1.16332">
        <ele>1380.642</ele>
        <time>2013-05-10T10:36:57Z</time>
      </trkpt>
      <trkpt lat="40.78928" lon="-1.16377">
        <ele>1380.67</ele>
        <time>2013-05-10T10:36:44Z</time>
      </trkpt>
      <trkpt lat="40.78941" lon="-1.16414">
        <ele>1380.193</ele>
        <time>2013-05-10T10:36:34Z</time>
      </trkpt>
      <trkpt lat="40.78966" lon="-1.16495">
        <ele>1383.554</ele>
        <time>2013-05-10T10:36:25Z</time>
      </trkpt>
      <trkpt lat="40.7899" lon="-1.16562">
        <ele>1386.856</ele>
        <time>2013-05-10T10:36:17Z</time>
      </trkpt>
      <trkpt lat="40.7901" lon="-1.16637">
        <ele>1390.711</ele>
        <time>2013-05-10T10:36:09Z</time>
      </trkpt>
      <trkpt lat="40.79029" lon="-1.16691">
        <ele>1394.508</ele>
        <time>2013-05-10T10:36:02Z</time>
      </trkpt>
      <trkpt lat="40.79044" lon="-1.16745">
        <ele>1397.486</ele>
        <time>2013-05-10T10:35:55Z</time>
      </trkpt>
      <trkpt lat="40.79048" lon="-1.16769">
        <ele>1398.497</ele>
        <time>2013-05-10T10:35:52Z</time>
      </trkpt>
      <trkpt lat="40.79048" lon="-1.16837">
        <ele>1401.729</ele>
        <time>2013-05-10T10:35:43Z</time>
      </trkpt>
      <trkpt lat="40.79051" lon="-1.16905">
        <ele>1403.794</ele>
        <time>2013-05-10T10:35:31Z</time>
      </trkpt>
      <trkpt lat="40.79057" lon="-1.16945">
        <ele>1405.181</ele>
        <time>2013-05-10T10:35:19Z</time>
      </trkpt>
      <trkpt lat="40.7906" lon="-1.16953">
        <ele>1405.648</ele>
        <time>2013-05-10T10:34:36Z</time>
      </trkpt>
      <trkpt lat="40.7906" lon="-1.16955">
        <ele>1405.146</ele>
        <time>2013-05-10T10:34:20Z</time>
      </trkpt>
      <trkpt lat="40.79064" lon="-1.16974">
        <ele>1405.659</ele>
        <time>2013-05-10T10:34:10Z</time>
      </trkpt>
      <trkpt lat="40.79065" lon="-1.16976">
        <ele>1406.613</ele>
        <time>2013-05-10T10:34:02Z</time>
      </trkpt>
      <trkpt lat="40.79065" lon="-1.16977">
        <ele>1406.643</ele>
        <time>2013-05-10T10:33:52Z</time>
      </trkpt>
      <trkpt lat="40.79065" lon="-1.16977">
        <ele>1406.607</ele>
        <time>2013-05-10T10:32:08Z</time>
      </trkpt>
      <trkpt lat="40.79066" lon="-1.16977">
        <ele>1406.608</ele>
        <time>2013-05-10T10:29:59Z</time>
      </trkpt>
      <trkpt lat="40.79066" lon="-1.16977">
        <ele>1405.182</ele>
        <time>2013-05-10T10:27:46Z</time>
      </trkpt>
      <trkpt lat="40.79066" lon="-1.16977">
        <ele>1405.153</ele>
        <time>2013-05-10T10:26:10Z</time>
      </trkpt>
      <trkpt lat="40.79066" lon="-1.16978">
        <ele>1405.115</ele>
        <time>2013-05-10T10:23:37Z</time>
      </trkpt>
      <trkpt lat="40.79067" lon="-1.16978">
        <ele>1405.16</ele>
        <time>2013-05-10T10:21:17Z</time>
      </trkpt>
      <trkpt lat="40.79066" lon="-1.16977">
        <ele>1405.137</ele>
        <time>2013-05-10T10:19:42Z</time>
      </trkpt>
      <trkpt lat="40.79066" lon="-1.16977">
        <ele>1405.184</ele>
        <time>2013-05-10T10:18:08Z</time>
      </trkpt>
      <trkpt lat="40.79067" lon="-1.16976">
        <ele>1405.122</ele>
        <time>2013-05-10T10:16:37Z</time>
      </trkpt>
      <trkpt lat="40.79066" lon="-1.16976">
        <ele>1406.645</ele>
        <time>2013-05-10T10:15:04Z</time>
      </trkpt>
      <trkpt lat="40.79067" lon="-1.16976">
        <ele>1406.149</ele>
        <time>2013-05-10T10:14:40Z</time>
      </trkpt>
      <trkpt lat="40.79066" lon="-1.16977">
        <ele>1406.102</ele>
        <time>2013-05-10T10:12:55Z</time>
      </trkpt>
      <trkpt lat="40.79067" lon="-1.16977">
        <ele>1406.122</ele>
        <time>2013-05-10T10:11:36Z</time>
      </trkpt>
      <trkpt lat="40.79067" lon="-1.16978">
        <ele>1405.608</ele>
        <time>2013-05-10T10:08:52Z</time>
      </trkpt>
      <trkpt lat="40.79067" lon="-1.16977">
        <ele>1405.625</ele>
        <time>2013-05-10T10:06:52Z</time>
      </trkpt>
      <trkpt lat="40.79067" lon="-1.16977">
        <ele>1405.646</ele>
        <time>2013-05-10T10:04:56Z</time>
      </trkpt>
      <trkpt lat="40.79068" lon="-1.16977">
        <ele>1405.158</ele>
        <time>2013-05-10T10:03:25Z</time>
      </trkpt>
      <trkpt lat="40.79067" lon="-1.16977">
        <ele>1405.123</ele>
        <time>2013-05-10T10:02:03Z</time>
      </trkpt>
      <trkpt lat="40.79068" lon="-1.16977">
        <ele>1405.13</ele>
        <time>2013-05-10T10:00:45Z</time>
      </trkpt>
      <trkpt lat="40.79068" lon="-1.16977">
        <ele>1405.157</ele>
        <time>2013-05-10T09:58:50Z</time>
      </trkpt>
      <trkpt lat="40.79067" lon="-1.16976">
        <ele>1405.155</ele>
        <time>2013-05-10T09:58:24Z</time>
      </trkpt>
      <trkpt lat="40.79073" lon="-1.16994">
        <ele>1405.128</ele>
        <time>2013-05-10T09:58:15Z</time>
      </trkpt>
      <trkpt lat="40.79082" lon="-1.17021">
        <ele>1404.665</ele>
        <time>2013-05-10T09:58:03Z</time>
      </trkpt>
      <trkpt lat="40.79097" lon="-1.17056">
        <ele>1404.668</ele>
        <time>2013-05-10T09:57:50Z</time>
      </trkpt>
      <trkpt lat="40.79103" lon="-1.17088">
        <ele>1404.114</ele>
        <time>2013-05-10T09:57:36Z</time>
      </trkpt>
      <trkpt lat="40.79113" lon="-1.17111">
        <ele>1403.208</ele>
        <time>2013-05-10T09:57:23Z</time>
      </trkpt>
      <trkpt lat="40.79119" lon="-1.17136">
        <ele>1402.727</ele>
        <time>2013-05-10T09:57:09Z</time>
      </trkpt>
      <trkpt lat="40.79123" lon="-1.17145">
        <ele>1402.238</ele>
        <time>2013-05-10T09:57:02Z</time>
      </trkpt>
      <trkpt lat="40.79132" lon="-1.17153">
        <ele>1400.35</ele>
        <time>2013-05-10T09:56:52Z</time>
      </trkpt>
      <trkpt lat="40.7915" lon="-1.17158">
        <ele>1397.925</ele>
        <time>2013-05-10T09:56:35Z</time>
      </trkpt>
      <trkpt lat="40.7916" lon="-1.17163">
        <ele>1396.562</ele>
        <time>2013-05-10T09:56:25Z</time>
      </trkpt>
      <trkpt lat="40.79172" lon="-1.17167">
        <ele>1394.199</ele>
        <time>2013-05-10T09:56:12Z</time>
      </trkpt>
      <trkpt lat="40.79186" lon="-1.17172">
        <ele>1392.697</ele>
        <time>2013-05-10T09:55:58Z</time>
      </trkpt>
      <trkpt lat="40.79198" lon="-1.17172">
        <ele>1390.24</ele>
        <time>2013-05-10T09:55:47Z</time>
      </trkpt>
      <trkpt lat="40.79215" lon="-1.17171">
        <ele>1388.845</ele>
        <time>2013-05-10T09:55:33Z</time>
      </trkpt>
      <trkpt lat="40.7922" lon="-1.17172">
        <ele>1387.847</ele>
        <time>2013-05-10T09:55:29Z</time>
      </trkpt>
      <trkpt lat="40.79225" lon="-1.17172">
        <ele>1387.311</ele>
        <time>2013-05-10T09:55:25Z</time>
      </trkpt>
      <trkpt lat="40.79242" lon="-1.17175">
        <ele>1385.408</ele>
        <time>2013-05-10T09:55:11Z</time>
      </trkpt>
      <trkpt lat="40.79251" lon="-1.17184">
        <ele>1384.035</ele>
        <time>2013-05-10T09:55:02Z</time>
      </trkpt>
      <trkpt lat="40.79266" lon="-1.172">
        <ele>1382.046</ele>
        <time>2013-05-10T09:54:47Z</time>
      </trkpt>
      <trkpt lat="40.79271" lon="-1.17204">
        <ele>1381.628</ele>
        <time>2013-05-10T09:54:42Z</time>
      </trkpt>
      <trkpt lat="40.79272" lon="-1.17205">
        <ele>1381.683</ele>
        <time>2013-05-10T09:54:41Z</time>
      </trkpt>
      <trkpt lat="40.79285" lon="-1.17221">
        <ele>1379.69</ele>
        <time>2013-05-10T09:54:27Z</time>
      </trkpt>
      <trkpt lat="40.79294" lon="-1.17238">
        <ele>1378.737</ele>
        <time>2013-05-10T09:54:16Z</time>
      </trkpt>
      <trkpt lat="40.79309" lon="-1.17261">
        <ele>1376.865</ele>
        <time>2013-05-10T09:54:02Z</time>
      </trkpt>
      <trkpt lat="40.79322" lon="-1.1728">
        <ele>1375.828</ele>
        <time>2013-05-10T09:53:51Z</time>
      </trkpt>
      <trkpt lat="40.79347" lon="-1.17298">
        <ele>1374.384</ele>
        <time>2013-05-10T09:53:39Z</time>
      </trkpt>
      <trkpt lat="40.7938" lon="-1.17317">
        <ele>1373.407</ele>
        <time>2013-05-10T09:53:26Z</time>
      </trkpt>
      <trkpt lat="40.79406" lon="-1.17334">
        <ele>1372.917</ele>
        <time>2013-05-10T09:53:16Z</time>
      </trkpt>
      <trkpt lat="40.79409" lon="-1.17333">
        <ele>1372.908</ele>
        <time>2013-05-10T09:53:15Z</time>
      </trkpt>
      <trkpt lat="40.79442" lon="-1.17305">
        <ele>1372.959</ele>
        <time>2013-05-10T09:53:02Z</time>
      </trkpt>
      <trkpt lat="40.7948" lon="-1.17268">
        <ele>1372.49</ele>
        <time>2013-05-10T09:52:49Z</time>
      </trkpt>
      <trkpt lat="40.79516" lon="-1.17232">
        <ele>1370.512</ele>
        <time>2013-05-10T09:52:34Z</time>
      </trkpt>
      <trkpt lat="40.79549" lon="-1.17198">
        <ele>1369.147</ele>
        <time>2013-05-10T09:52:19Z</time>
      </trkpt>
      <trkpt lat="40.79577" lon="-1.17164">
        <ele>1367.684</ele>
        <time>2013-05-10T09:52:04Z</time>
      </trkpt>
      <trkpt lat="40.7959" lon="-1.17165">
        <ele>1367.641</ele>
        <time>2013-05-10T09:51:57Z</time>
      </trkpt>
      <trkpt lat="40.79607" lon="-1.17197">
        <ele>1367.679</ele>
        <time>2013-05-10T09:51:48Z</time>
      </trkpt>
      <trkpt lat="40.79631" lon="-1.17247">
        <ele>1367.612</ele>
        <time>2013-05-10T09:51:36Z</time>
      </trkpt>
      <trkpt lat="40.79654" lon="-1.17301">
        <ele>1367.619</ele>
        <time>2013-05-10T09:51:22Z</time>
      </trkpt>
      <trkpt lat="40.79673" lon="-1.17339">
        <ele>1366.709</ele>
        <time>2013-05-10T09:51:11Z</time>
      </trkpt>
      <trkpt lat="40.79692" lon="-1.17378">
        <ele>1365.719</ele>
        <time>2013-05-10T09:50:58Z</time>
      </trkpt>
      <trkpt lat="40.79708" lon="-1.17405">
        <ele>1364.308</ele>
        <time>2013-05-10T09:50:47Z</time>
      </trkpt>
      <trkpt lat="40.79725" lon="-1.17436">
        <ele>1362.852</ele>
        <time>2013-05-10T09:50:33Z</time>
      </trkpt>
      <trkpt lat="40.79738" lon="-1.1747">
        <ele>1360.493</ele>
        <time>2013-05-10T09:50:18Z</time>
      </trkpt>
      <trkpt lat="40.79743" lon="-1.17495">
        <ele>1358.535</ele>
        <time>2013-05-10T09:50:08Z</time>
      </trkpt>
      <trkpt lat="40.79754" lon="-1.17529">
        <ele>1357.09</ele>
        <time>2013-05-10T09:49:55Z</time>
      </trkpt>
      <trkpt lat="40.79778" lon="-1.17559">
        <ele>1355.167</ele>
        <time>2013-05-10T09:49:40Z</time>
      </trkpt>
      <trkpt lat="40.7979" lon="-1.1757">
        <ele>1354.264</ele>
        <time>2013-05-10T09:49:33Z</time>
      </trkpt>
      <trkpt lat="40.79818" lon="-1.17594">
        <ele>1354.262</ele>
        <time>2013-05-10T09:49:22Z</time>
      </trkpt>
      <trkpt lat="40.79841" lon="-1.17615">
        <ele>1354.645</ele>
        <time>2013-05-10T09:49:16Z</time>
      </trkpt>
      <trkpt lat="40.79854" lon="-1.17627">
        <ele>1355.123</ele>
        <time>2013-05-10T09:49:13Z</time>
      </trkpt>
      <trkpt lat="40.79861" lon="-1.17635">
        <ele>1355.683</ele>
        <time>2013-05-10T09:49:11Z</time>
      </trkpt>
      <trkpt lat="40.79867" lon="-1.17643">
        <ele>1356.111</ele>
        <time>2013-05-10T09:49:09Z</time>
      </trkpt>
      <trkpt lat="40.79873" lon="-1.17653">
        <ele>1357.508</ele>
        <time>2013-05-10T09:49:06Z</time>
      </trkpt>
      <trkpt lat="40.79879" lon="-1.17661">
        <ele>1357.513</ele>
        <time>2013-05-10T09:48:51Z</time>
      </trkpt>
      <trkpt lat="40.79876" lon="-1.17664">
        <ele>1357.564</ele>
        <time>2013-05-10T09:48:26Z</time>
      </trkpt>
      <trkpt lat="40.79877" lon="-1.17668">
        <ele>1357.556</ele>
        <time>2013-05-10T09:48:16Z</time>
      </trkpt>
      <trkpt lat="40.79892" lon="-1.17696">
        <ele>1357.041</ele>
        <time>2013-05-10T09:48:03Z</time>
      </trkpt>
      <trkpt lat="40.79903" lon="-1.17716">
        <ele>1356.618</ele>
        <time>2013-05-10T09:47:54Z</time>
      </trkpt>
      <trkpt lat="40.7992" lon="-1.17744">
        <ele>1355.685</ele>
        <time>2013-05-10T09:47:41Z</time>
      </trkpt>
      <trkpt lat="40.79938" lon="-1.1777">
        <ele>1352.713</ele>
        <time>2013-05-10T09:47:26Z</time>
      </trkpt>
      <trkpt lat="40.79954" lon="-1.17795">
        <ele>1350.356</ele>
        <time>2013-05-10T09:47:13Z</time>
      </trkpt>
      <trkpt lat="40.79969" lon="-1.17822">
        <ele>1348.948</ele>
        <time>2013-05-10T09:47:03Z</time>
      </trkpt>
      <trkpt lat="40.7999" lon="-1.17851">
        <ele>1350.361</ele>
        <time>2013-05-10T09:46:52Z</time>
      </trkpt>
      <trkpt lat="40.80005" lon="-1.17884">
        <ele>1350.317</ele>
        <time>2013-05-10T09:46:42Z</time>
      </trkpt>
      <trkpt lat="40.80017" lon="-1.17908">
        <ele>1349.808</ele>
        <time>2013-05-10T09:46:31Z</time>
      </trkpt>
      <trkpt lat="40.80039" lon="-1.17938">
        <ele>1348.985</ele>
        <time>2013-05-10T09:46:17Z</time>
      </trkpt>
      <trkpt lat="40.80062" lon="-1.17943">
        <ele>1347.486</ele>
        <time>2013-05-10T09:46:05Z</time>
      </trkpt>
      <trkpt lat="40.80088" lon="-1.17941">
        <ele>1346.088</ele>
        <time>2013-05-10T09:45:53Z</time>
      </trkpt>
      <trkpt lat="40.80113" lon="-1.17939">
        <ele>1343.643</ele>
        <time>2013-05-10T09:45:40Z</time>
      </trkpt>
      <trkpt lat="40.80141" lon="-1.17938">
        <ele>1341.25</ele>
        <time>2013-05-10T09:45:25Z</time>
      </trkpt>
      <trkpt lat="40.8017" lon="-1.17939">
        <ele>1338.347</ele>
        <time>2013-05-10T09:45:09Z</time>
      </trkpt>
      <trkpt lat="40.80191" lon="-1.17947">
        <ele>1336.945</ele>
        <time>2013-05-10T09:44:57Z</time>
      </trkpt>
      <trkpt lat="40.80214" lon="-1.17955">
        <ele>1334.518</ele>
        <time>2013-05-10T09:44:43Z</time>
      </trkpt>
      <trkpt lat="40.80234" lon="-1.1796">
        <ele>1333.024</ele>
        <time>2013-05-10T09:44:31Z</time>
      </trkpt>
      <trkpt lat="40.80256" lon="-1.17967">
        <ele>1330.604</ele>
        <time>2013-05-10T09:44:18Z</time>
      </trkpt>
      <trkpt lat="40.80277" lon="-1.17973">
        <ele>1328.714</ele>
        <time>2013-05-10T09:44:05Z</time>
      </trkpt>
      <trkpt lat="40.80302" lon="-1.1798">
        <ele>1326.808</ele>
        <time>2013-05-10T09:43:50Z</time>
      </trkpt>
      <trkpt lat="40.80324" lon="-1.17985">
        <ele>1325.323</ele>
        <time>2013-05-10T09:43:38Z</time>
      </trkpt>
      <trkpt lat="40.80348" lon="-1.17988">
        <ele>1323.924</ele>
        <time>2013-05-10T09:43:25Z</time>
      </trkpt>
      <trkpt lat="40.80354" lon="-1.17989">
        <ele>1322.956</ele>
        <time>2013-05-10T09:43:22Z</time>
      </trkpt>
      <trkpt lat="40.80376" lon="-1.17992">
        <ele>1321.511</ele>
        <time>2013-05-10T09:43:09Z</time>
      </trkpt>
      <trkpt lat="40.80403" lon="-1.17997">
        <ele>1319.678</ele>
        <time>2013-05-10T09:42:52Z</time>
      </trkpt>
      <trkpt lat="40.80425" lon="-1.18001">
        <ele>1318.155</ele>
        <time>2013-05-10T09:42:39Z</time>
      </trkpt>
      <trkpt lat="40.80447" lon="-1.18006">
        <ele>1316.273</ele>
        <time>2013-05-10T09:42:25Z</time>
      </trkpt>
      <trkpt lat="40.80467" lon="-1.18012">
        <ele>1314.366</ele>
        <time>2013-05-10T09:42:11Z</time>
      </trkpt>
      <trkpt lat="40.80487" lon="-1.18017">
        <ele>1311.936</ele>
        <time>2013-05-10T09:41:57Z</time>
      </trkpt>
      <trkpt lat="40.80505" lon="-1.18023">
        <ele>1310.417</ele>
        <time>2013-05-10T09:41:44Z</time>
      </trkpt>
      <trkpt lat="40.80523" lon="-1.18028">
        <ele>1308.518</ele>
        <time>2013-05-10T09:41:31Z</time>
      </trkpt>
      <trkpt lat="40.80524" lon="-1.18028">
        <ele>1308.508</ele>
        <time>2013-05-10T09:41:30Z</time>
      </trkpt>
      <trkpt lat="40.80543" lon="-1.18031">
        <ele>1306.194</ele>
        <time>2013-05-10T09:41:17Z</time>
      </trkpt>
      <trkpt lat="40.80552" lon="-1.18033">
        <ele>1305.185</ele>
        <time>2013-05-10T09:41:09Z</time>
      </trkpt>
      <trkpt lat="40.80574" lon="-1.18038">
        <ele>1302.717</ele>
        <time>2013-05-10T09:40:53Z</time>
      </trkpt>
      <trkpt lat="40.80595" lon="-1.18042">
        <ele>1300.872</ele>
        <time>2013-05-10T09:40:38Z</time>
      </trkpt>
      <trkpt lat="40.80613" lon="-1.18047">
        <ele>1299.439</ele>
        <time>2013-05-10T09:40:24Z</time>
      </trkpt>
      <trkpt lat="40.80627" lon="-1.18052">
        <ele>1297.056</ele>
        <time>2013-05-10T09:40:12Z</time>
      </trkpt>
      <trkpt lat="40.80644" lon="-1.18059">
        <ele>1294.654</ele>
        <time>2013-05-10T09:39:57Z</time>
      </trkpt>
      <trkpt lat="40.80655" lon="-1.18069">
        <ele>1293.117</ele>
        <time>2013-05-10T09:39:45Z</time>
      </trkpt>
      <trkpt lat="40.80668" lon="-1.18077">
        <ele>1291.242</ele>
        <time>2013-05-10T09:39:31Z</time>
      </trkpt>
      <trkpt lat="40.80682" lon="-1.18093">
        <ele>1288.822</ele>
        <time>2013-05-10T09:39:15Z</time>
      </trkpt>
      <trkpt lat="40.80693" lon="-1.18102">
        <ele>1286.914</ele>
        <time>2013-05-10T09:39:03Z</time>
      </trkpt>
      <trkpt lat="40.80694" lon="-1.18103">
        <ele>1286.908</ele>
        <time>2013-05-10T09:39:02Z</time>
      </trkpt>
      <trkpt lat="40.80707" lon="-1.1811">
        <ele>1284.595</ele>
        <time>2013-05-10T09:38:49Z</time>
      </trkpt>
      <trkpt lat="40.8072" lon="-1.18109">
        <ele>1282.516</ele>
        <time>2013-05-10T09:38:38Z</time>
      </trkpt>
      <trkpt lat="40.80737" lon="-1.18114">
        <ele>1280.128</ele>
        <time>2013-05-10T09:38:23Z</time>
      </trkpt>
      <trkpt lat="40.80756" lon="-1.18127">
        <ele>1277.323</ele>
        <time>2013-05-10T09:38:07Z</time>
      </trkpt>
      <trkpt lat="40.80761" lon="-1.18131">
        <ele>1276.85</ele>
        <time>2013-05-10T09:38:03Z</time>
      </trkpt>
      <trkpt lat="40.80773" lon="-1.18139">
        <ele>1273.977</ele>
        <time>2013-05-10T09:37:54Z</time>
      </trkpt>
      <trkpt lat="40.8079" lon="-1.18161">
        <ele>1274.425</ele>
        <time>2013-05-10T09:37:49Z</time>
      </trkpt>
      <trkpt lat="40.80805" lon="-1.18169">
        <ele>1274.428</ele>
        <time>2013-05-10T09:37:46Z</time>
      </trkpt>
      <trkpt lat="40.80825" lon="-1.18174">
        <ele>1274.491</ele>
        <time>2013-05-10T09:37:42Z</time>
      </trkpt>
      <trkpt lat="40.80861" lon="-1.18188">
        <ele>1276.881</ele>
        <time>2013-05-10T09:37:34Z</time>
      </trkpt>
      <trkpt lat="40.80872" lon="-1.18192">
        <ele>1278.219</ele>
        <time>2013-05-10T09:37:31Z</time>
      </trkpt>
      <trkpt lat="40.80876" lon="-1.18195">
        <ele>1278.208</ele>
        <time>2013-05-10T09:37:30Z</time>
      </trkpt>
      <trkpt lat="40.80914" lon="-1.18213">
        <ele>1278.21</ele>
        <time>2013-05-10T09:37:16Z</time>
      </trkpt>
      <trkpt lat="40.80945" lon="-1.18222">
        <ele>1276.811</ele>
        <time>2013-05-10T09:37:04Z</time>
      </trkpt>
      <trkpt lat="40.80963" lon="-1.18238">
        <ele>1276.393</ele>
        <time>2013-05-10T09:36:55Z</time>
      </trkpt>
      <trkpt lat="40.80976" lon="-1.18269">
        <ele>1276.348</ele>
        <time>2013-05-10T09:36:44Z</time>
      </trkpt>
      <trkpt lat="40.80989" lon="-1.18292">
        <ele>1276.395</ele>
        <time>2013-05-10T09:36:35Z</time>
      </trkpt>
      <trkpt lat="40.81021" lon="-1.18306">
        <ele>1276.322</ele>
        <time>2013-05-10T09:36:22Z</time>
      </trkpt>
      <trkpt lat="40.81045" lon="-1.1832">
        <ele>1276.36</ele>
        <time>2013-05-10T09:36:11Z</time>
      </trkpt>
      <trkpt lat="40.81067" lon="-1.18328">
        <ele>1274.943</ele>
        <time>2013-05-10T09:35:58Z</time>
      </trkpt>
      <trkpt lat="40.81088" lon="-1.18319">
        <ele>1273.432</ele>
        <time>2013-05-10T09:35:44Z</time>
      </trkpt>
      <trkpt lat="40.81107" lon="-1.18311">
        <ele>1271.592</ele>
        <time>2013-05-10T09:35:31Z</time>
      </trkpt>
      <trkpt lat="40.81129" lon="-1.18304">
        <ele>1269.111</ele>
        <time>2013-05-10T09:35:18Z</time>
      </trkpt>
      <trkpt lat="40.81132" lon="-1.18303">
        <ele>1268.608</ele>
        <time>2013-05-10T09:35:16Z</time>
      </trkpt>
      <trkpt lat="40.81154" lon="-1.18306">
        <ele>1266.794</ele>
        <time>2013-05-10T09:35:03Z</time>
      </trkpt>
      <trkpt lat="40.81177" lon="-1.18321">
        <ele>1265.235</ele>
        <time>2013-05-10T09:34:50Z</time>
      </trkpt>
      <trkpt lat="40.81203" lon="-1.1834">
        <ele>1263.377</ele>
        <time>2013-05-10T09:34:37Z</time>
      </trkpt>
      <trkpt lat="40.8123" lon="-1.18342">
        <ele>1261.972</ele>
        <time>2013-05-10T09:34:26Z</time>
      </trkpt>
      <trkpt lat="40.8127" lon="-1.18327">
        <ele>1260.919</ele>
        <time>2013-05-10T09:34:11Z</time>
      </trkpt>
      <trkpt lat="40.813" lon="-1.18305">
        <ele>1259.926</ele>
        <time>2013-05-10T09:33:58Z</time>
      </trkpt>
      <trkpt lat="40.81332" lon="-1.18286">
        <ele>1259.524</ele>
        <time>2013-05-10T09:33:45Z</time>
      </trkpt>
      <trkpt lat="40.81367" lon="-1.18267">
        <ele>1258.597</ele>
        <time>2013-05-10T09:33:30Z</time>
      </trkpt>
      <trkpt lat="40.81394" lon="-1.18253">
        <ele>1257.582</ele>
        <time>2013-05-10T09:33:17Z</time>
      </trkpt>
      <trkpt lat="40.81423" lon="-1.18242">
        <ele>1256.143</ele>
        <time>2013-05-10T09:33:03Z</time>
      </trkpt>
      <trkpt lat="40.81441" lon="-1.18232">
        <ele>1256.117</ele>
        <time>2013-05-10T09:32:54Z</time>
      </trkpt>
      <trkpt lat="40.81445" lon="-1.1823">
        <ele>1255.608</ele>
        <time>2013-05-10T09:32:30Z</time>
      </trkpt>
      <trkpt lat="40.81443" lon="-1.18233">
        <ele>1255.629</ele>
        <time>2013-05-10T09:31:45Z</time>
      </trkpt>
      <trkpt lat="40.81446" lon="-1.1823">
        <ele>1255.13</ele>
        <time>2013-05-10T09:31:35Z</time>
      </trkpt>
      <trkpt lat="40.81466" lon="-1.18224">
        <ele>1254.252</ele>
        <time>2013-05-10T09:31:22Z</time>
      </trkpt>
      <trkpt lat="40.81491" lon="-1.18221">
        <ele>1251.347</ele>
        <time>2013-05-10T09:31:05Z</time>
      </trkpt>
      <trkpt lat="40.81508" lon="-1.18219">
        <ele>1249.974</ele>
        <time>2013-05-10T09:30:53Z</time>
      </trkpt>
      <trkpt lat="40.81528" lon="-1.18215">
        <ele>1247.961</ele>
        <time>2013-05-10T09:30:39Z</time>
      </trkpt>
      <trkpt lat="40.81549" lon="-1.18202">
        <ele>1246.019</ele>
        <time>2013-05-10T09:30:24Z</time>
      </trkpt>
      <trkpt lat="40.81569" lon="-1.18199">
        <ele>1243.152</ele>
        <time>2013-05-10T09:30:10Z</time>
      </trkpt>
      <trkpt lat="40.81585" lon="-1.18196">
        <ele>1241.743</ele>
        <time>2013-05-10T09:29:58Z</time>
      </trkpt>
      <trkpt lat="40.81604" lon="-1.18194">
        <ele>1239.364</ele>
        <time>2013-05-10T09:29:43Z</time>
      </trkpt>
      <trkpt lat="40.81621" lon="-1.18192">
        <ele>1236.91</ele>
        <time>2013-05-10T09:29:29Z</time>
      </trkpt>
      <trkpt lat="40.81639" lon="-1.1819">
        <ele>1234.508</ele>
        <time>2013-05-10T09:29:17Z</time>
      </trkpt>
      <trkpt lat="40.8165" lon="-1.1819">
        <ele>1233.595</ele>
        <time>2013-05-10T09:29:10Z</time>
      </trkpt>
      <trkpt lat="40.81667" lon="-1.18192">
        <ele>1231.666</ele>
        <time>2013-05-10T09:28:59Z</time>
      </trkpt>
      <trkpt lat="40.81685" lon="-1.18187">
        <ele>1230.118</ele>
        <time>2013-05-10T09:28:48Z</time>
      </trkpt>
      <trkpt lat="40.8171" lon="-1.18185">
        <ele>1227.733</ele>
        <time>2013-05-10T09:28:33Z</time>
      </trkpt>
      <trkpt lat="40.81734" lon="-1.18187">
        <ele>1225.33</ele>
        <time>2013-05-10T09:28:19Z</time>
      </trkpt>
      <trkpt lat="40.81751" lon="-1.18185">
        <ele>1223.957</ele>
        <time>2013-05-10T09:28:10Z</time>
      </trkpt>
      <trkpt lat="40.81779" lon="-1.18181">
        <ele>1222.565</ele>
        <time>2013-05-10T09:27:57Z</time>
      </trkpt>
      <trkpt lat="40.81801" lon="-1.18181">
        <ele>1221.078</ele>
        <time>2013-05-10T09:27:46Z</time>
      </trkpt>
      <trkpt lat="40.81823" lon="-1.18179">
        <ele>1219.672</ele>
        <time>2013-05-10T09:27:36Z</time>
      </trkpt>
      <trkpt lat="40.81854" lon="-1.18185">
        <ele>1218.113</ele>
        <time>2013-05-10T09:27:22Z</time>
      </trkpt>
      <trkpt lat="40.81884" lon="-1.1818">
        <ele>1216.714</ele>
        <time>2013-05-10T09:27:10Z</time>
      </trkpt>
      <trkpt lat="40.81906" lon="-1.18184">
        <ele>1215.708</ele>
        <time>2013-05-10T09:27:00Z</time>
      </trkpt>
      <trkpt lat="40.81933" lon="-1.18191">
        <ele>1215.278</ele>
        <time>2013-05-10T09:26:50Z</time>
      </trkpt>
      <trkpt lat="40.8196" lon="-1.18201">
        <ele>1214.339</ele>
        <time>2013-05-10T09:26:37Z</time>
      </trkpt>
      <trkpt lat="40.81979" lon="-1.18209">
        <ele>1213.351</ele>
        <time>2013-05-10T09:26:27Z</time>
      </trkpt>
      <trkpt lat="40.82002" lon="-1.18219">
        <ele>1211.416</ele>
        <time>2013-05-10T09:26:14Z</time>
      </trkpt>
      <trkpt lat="40.82021" lon="-1.18229">
        <ele>1210.463</ele>
        <time>2013-05-10T09:26:02Z</time>
      </trkpt>
      <trkpt lat="40.8204" lon="-1.18238">
        <ele>1208.54</ele>
        <time>2013-05-10T09:25:51Z</time>
      </trkpt>
      <trkpt lat="40.82045" lon="-1.18247">
        <ele>1208.038</ele>
        <time>2013-05-10T09:25:46Z</time>
      </trkpt>
      <trkpt lat="40.82037" lon="-1.18269">
        <ele>1206.671</ele>
        <time>2013-05-10T09:25:36Z</time>
      </trkpt>
      <trkpt lat="40.82018" lon="-1.18289">
        <ele>1205.235</ele>
        <time>2013-05-10T09:25:22Z</time>
      </trkpt>
      <trkpt lat="40.81989" lon="-1.18296">
        <ele>1204.286</ele>
        <time>2013-05-10T09:25:08Z</time>
      </trkpt>
      <trkpt lat="40.81961" lon="-1.18302">
        <ele>1203.714</ele>
        <time>2013-05-10T09:24:55Z</time>
      </trkpt>
      <trkpt lat="40.81939" lon="-1.18299">
        <ele>1202.308</ele>
        <time>2013-05-10T09:24:43Z</time>
      </trkpt>
      <trkpt lat="40.81918" lon="-1.18295">
        <ele>1201.374</ele>
        <time>2013-05-10T09:24:31Z</time>
      </trkpt>
      <trkpt lat="40.81898" lon="-1.1829">
        <ele>1199.955</ele>
        <time>2013-05-10T09:24:17Z</time>
      </trkpt>
      <trkpt lat="40.81895" lon="-1.18301">
        <ele>1198.917</ele>
        <time>2013-05-10T09:24:10Z</time>
      </trkpt>
      <trkpt lat="40.81903" lon="-1.18309">
        <ele>1198.432</ele>
        <time>2013-05-10T09:24:03Z</time>
      </trkpt>
      <trkpt lat="40.81919" lon="-1.18318">
        <ele>1196.029</ele>
        <time>2013-05-10T09:23:49Z</time>
      </trkpt>
      <trkpt lat="40.81933" lon="-1.1833">
        <ele>1194.676</ele>
        <time>2013-05-10T09:23:36Z</time>
      </trkpt>
      <trkpt lat="40.81952" lon="-1.18346">
        <ele>1191.734</ele>
        <time>2013-05-10T09:23:19Z</time>
      </trkpt>
      <trkpt lat="40.81966" lon="-1.18355">
        <ele>1190.317</ele>
        <time>2013-05-10T09:23:06Z</time>
      </trkpt>
      <trkpt lat="40.81981" lon="-1.18367">
        <ele>1188.849</ele>
        <time>2013-05-10T09:22:51Z</time>
      </trkpt>
      <trkpt lat="40.81996" lon="-1.18377">
        <ele>1186.402</ele>
        <time>2013-05-10T09:22:38Z</time>
      </trkpt>
      <trkpt lat="40.82011" lon="-1.18384">
        <ele>1184.522</ele>
        <time>2013-05-10T09:22:26Z</time>
      </trkpt>
      <trkpt lat="40.8203" lon="-1.18393">
        <ele>1182.108</ele>
        <time>2013-05-10T09:22:11Z</time>
      </trkpt>
      <trkpt lat="40.82046" lon="-1.184">
        <ele>1180.665</ele>
        <time>2013-05-10T09:21:59Z</time>
      </trkpt>
      <trkpt lat="40.82061" lon="-1.18409">
        <ele>1179.216</ele>
        <time>2013-05-10T09:21:49Z</time>
      </trkpt>
      <trkpt lat="40.82083" lon="-1.18417">
        <ele>1177.858</ele>
        <time>2013-05-10T09:21:35Z</time>
      </trkpt>
      <trkpt lat="40.82104" lon="-1.18417">
        <ele>1175.433</ele>
        <time>2013-05-10T09:21:23Z</time>
      </trkpt>
      <trkpt lat="40.82129" lon="-1.18424">
        <ele>1173.05</ele>
        <time>2013-05-10T09:21:06Z</time>
      </trkpt>
      <trkpt lat="40.82154" lon="-1.18437">
        <ele>1170.127</ele>
        <time>2013-05-10T09:20:49Z</time>
      </trkpt>
      <trkpt lat="40.82179" lon="-1.18455">
        <ele>1167.735</ele>
        <time>2013-05-10T09:20:31Z</time>
      </trkpt>
      <trkpt lat="40.822" lon="-1.18469">
        <ele>1165.328</ele>
        <time>2013-05-10T09:20:16Z</time>
      </trkpt>
      <trkpt lat="40.82225" lon="-1.18482">
        <ele>1162.968</ele>
        <time>2013-05-10T09:19:59Z</time>
      </trkpt>
      <trkpt lat="40.82244" lon="-1.18486">
        <ele>1161.442</ele>
        <time>2013-05-10T09:19:47Z</time>
      </trkpt>
      <trkpt lat="40.82266" lon="-1.1849">
        <ele>1159.026</ele>
        <time>2013-05-10T09:19:32Z</time>
      </trkpt>
      <trkpt lat="40.82281" lon="-1.18491">
        <ele>1157.108</ele>
        <time>2013-05-10T09:19:21Z</time>
      </trkpt>
      <trkpt lat="40.82296" lon="-1.18489">
        <ele>1155.677</ele>
        <time>2013-05-10T09:19:10Z</time>
      </trkpt>
      <trkpt lat="40.82316" lon="-1.1849">
        <ele>1153.268</ele>
        <time>2013-05-10T09:18:56Z</time>
      </trkpt>
      <trkpt lat="40.82335" lon="-1.18494">
        <ele>1150.81</ele>
        <time>2013-05-10T09:18:43Z</time>
      </trkpt>
      <trkpt lat="40.82358" lon="-1.18497">
        <ele>1148.415</ele>
        <time>2013-05-10T09:18:27Z</time>
      </trkpt>
      <trkpt lat="40.82367" lon="-1.185">
        <ele>1148.052</ele>
        <time>2013-05-10T09:18:17Z</time>
      </trkpt>
      <trkpt lat="40.82367" lon="-1.18498">
        <ele>1148.099</ele>
        <time>2013-05-10T09:18:00Z</time>
      </trkpt>
      <trkpt lat="40.82369" lon="-1.18499">
        <ele>1148.097</ele>
        <time>2013-05-10T09:17:21Z</time>
      </trkpt>
      <trkpt lat="40.8237" lon="-1.185">
        <ele>1148.06</ele>
        <time>2013-05-10T09:17:12Z</time>
      </trkpt>
      <trkpt lat="40.82388" lon="-1.18505">
        <ele>1146.017</ele>
        <time>2013-05-10T09:17:00Z</time>
      </trkpt>
      <trkpt lat="40.82409" lon="-1.18529">
        <ele>1145.187</ele>
        <time>2013-05-10T09:16:49Z</time>
      </trkpt>
      <trkpt lat="40.8243" lon="-1.18578">
        <ele>1143.615</ele>
        <time>2013-05-10T09:16:35Z</time>
      </trkpt>
      <trkpt lat="40.8246" lon="-1.18614">
        <ele>1142.708</ele>
        <time>2013-05-10T09:16:21Z</time>
      </trkpt>
      <trkpt lat="40.82502" lon="-1.18641">
        <ele>1141.252</ele>
        <time>2013-05-10T09:16:05Z</time>
      </trkpt>
      <trkpt lat="40.82537" lon="-1.18666">
        <ele>1139.863</ele>
        <time>2013-05-10T09:15:51Z</time>
      </trkpt>
      <trkpt lat="40.82577" lon="-1.18678">
        <ele>1138.855</ele>
        <time>2013-05-10T09:15:37Z</time>
      </trkpt>
      <trkpt lat="40.82614" lon="-1.18689">
        <ele>1137.45</ele>
        <time>2013-05-10T09:15:24Z</time>
      </trkpt>
      <trkpt lat="40.82651" lon="-1.18693">
        <ele>1135.977</ele>
        <time>2013-05-10T09:15:11Z</time>
      </trkpt>
      <trkpt lat="40.82686" lon="-1.18695">
        <ele>1134.574</ele>
        <time>2013-05-10T09:14:58Z</time>
      </trkpt>
      <trkpt lat="40.8271" lon="-1.18694">
        <ele>1134.052</ele>
        <time>2013-05-10T09:14:49Z</time>
      </trkpt>
      <trkpt lat="40.82745" lon="-1.18694">
        <ele>1132.695</ele>
        <time>2013-05-10T09:14:36Z</time>
      </trkpt>
      <trkpt lat="40.8278" lon="-1.187">
        <ele>1131.174</ele>
        <time>2013-05-10T09:14:23Z</time>
      </trkpt>
      <trkpt lat="40.82824" lon="-1.18715">
        <ele>1130.256</ele>
        <time>2013-05-10T09:14:08Z</time>
      </trkpt>
      <trkpt lat="40.82863" lon="-1.18734">
        <ele>1129.221</ele>
        <time>2013-05-10T09:13:53Z</time>
      </trkpt>
      <trkpt lat="40.82893" lon="-1.1875">
        <ele>1127.808</ele>
        <time>2013-05-10T09:13:40Z</time>
      </trkpt>
      <trkpt lat="40.82916" lon="-1.18771">
        <ele>1126.368</ele>
        <time>2013-05-10T09:13:25Z</time>
      </trkpt>
      <trkpt lat="40.82933" lon="-1.18792">
        <ele>1123.999</ele>
        <time>2013-05-10T09:13:12Z</time>
      </trkpt>
      <trkpt lat="40.82951" lon="-1.18817">
        <ele>1122.071</ele>
        <time>2013-05-10T09:12:59Z</time>
      </trkpt>
      <trkpt lat="40.82962" lon="-1.18852">
        <ele>1120.656</ele>
        <time>2013-05-10T09:12:48Z</time>
      </trkpt>
      <trkpt lat="40.82985" lon="-1.18914">
        <ele>1119.143</ele>
        <time>2013-05-10T09:12:32Z</time>
      </trkpt>
      <trkpt lat="40.83009" lon="-1.1897">
        <ele>1117.77</ele>
        <time>2013-05-10T09:12:17Z</time>
      </trkpt>
      <trkpt lat="40.83037" lon="-1.19031">
        <ele>1117.778</ele>
        <time>2013-05-10T09:12:00Z</time>
      </trkpt>
      <trkpt lat="40.83052" lon="-1.19075">
        <ele>1117.721</ele>
        <time>2013-05-10T09:11:49Z</time>
      </trkpt>
      <trkpt lat="40.83066" lon="-1.19136">
        <ele>1118.671</ele>
        <time>2013-05-10T09:11:36Z</time>
      </trkpt>
      <trkpt lat="40.83078" lon="-1.19171">
        <ele>1119.141</ele>
        <time>2013-05-10T09:11:27Z</time>
      </trkpt>
      <trkpt lat="40.83078" lon="-1.19173">
        <ele>1119.115</ele>
        <time>2013-05-10T09:11:26Z</time>
      </trkpt>
      <trkpt lat="40.83079" lon="-1.19175">
        <ele>1119.108</ele>
        <time>2013-05-10T09:11:25Z</time>
      </trkpt>
      <trkpt lat="40.83079" lon="-1.19177">
        <ele>1119.178</ele>
        <time>2013-05-10T09:11:10Z</time>
      </trkpt>
      <trkpt lat="40.83088" lon="-1.19187">
        <ele>1119.629</ele>
        <time>2013-05-10T09:11:00Z</time>
      </trkpt>
      <trkpt lat="40.8309" lon="-1.19188">
        <ele>1119.641</ele>
        <time>2013-05-10T09:10:59Z</time>
      </trkpt>
      <trkpt lat="40.83092" lon="-1.1919">
        <ele>1119.696</ele>
        <time>2013-05-10T09:10:58Z</time>
      </trkpt>
      <trkpt lat="40.83094" lon="-1.19191">
        <ele>1119.693</ele>
        <time>2013-05-10T09:10:57Z</time>
      </trkpt>
      <trkpt lat="40.83101" lon="-1.19189">
        <ele>1120.15</ele>
        <time>2013-05-10T09:10:54Z</time>
      </trkpt>
      <trkpt lat="40.83103" lon="-1.19187">
        <ele>1120.158</ele>
        <time>2013-05-10T09:10:53Z</time>
      </trkpt>
      <trkpt lat="40.83103" lon="-1.19182">
        <ele>1120.181</ele>
        <time>2013-05-10T09:10:51Z</time>
      </trkpt>
      <trkpt lat="40.83097" lon="-1.19166">
        <ele>1121.525</ele>
        <time>2013-05-10T09:10:45Z</time>
      </trkpt>
      <trkpt lat="40.83086" lon="-1.19115">
        <ele>1124.426</ele>
        <time>2013-05-10T09:10:40Z</time>
      </trkpt>
      <trkpt lat="40.83072" lon="-1.19018">
        <ele>1127.808</ele>
        <time>2013-05-10T09:10:32Z</time>
      </trkpt>
      <trkpt lat="40.8307" lon="-1.19006">
        <ele>1127.808</ele>
        <time>2013-05-10T09:10:31Z</time>
      </trkpt>
      <trkpt lat="40.83064" lon="-1.18933">
        <ele>1131.163</ele>
        <time>2013-05-10T09:10:25Z</time>
      </trkpt>
      <trkpt lat="40.83063" lon="-1.18921">
        <ele>1131.134</ele>
        <time>2013-05-10T09:10:24Z</time>
      </trkpt>
      <trkpt lat="40.83063" lon="-1.18909">
        <ele>1131.656</ele>
        <time>2013-05-10T09:10:23Z</time>
      </trkpt>
      <trkpt lat="40.83063" lon="-1.18897">
        <ele>1132.681</ele>
        <time>2013-05-10T09:10:22Z</time>
      </trkpt>
      <trkpt lat="40.83064" lon="-1.18885">
        <ele>1132.648</ele>
        <time>2013-05-10T09:10:21Z</time>
      </trkpt>
      <trkpt lat="40.83066" lon="-1.18874">
        <ele>1133.585</ele>
        <time>2013-05-10T09:10:20Z</time>
      </trkpt>
      <trkpt lat="40.83069" lon="-1.18864">
        <ele>1134.073</ele>
        <time>2013-05-10T09:10:19Z</time>
      </trkpt>
      <trkpt lat="40.83076" lon="-1.18846">
        <ele>1134.596</ele>
        <time>2013-05-10T09:10:17Z</time>
      </trkpt>
      <trkpt lat="40.83105" lon="-1.18783">
        <ele>1137.457</ele>
        <time>2013-05-10T09:10:08Z</time>
      </trkpt>
      <trkpt lat="40.83108" lon="-1.18777">
        <ele>1137.4</ele>
        <time>2013-05-10T09:10:07Z</time>
      </trkpt>
      <trkpt lat="40.83111" lon="-1.18772">
        <ele>1137.92</ele>
        <time>2013-05-10T09:10:06Z</time>
      </trkpt>
      <trkpt lat="40.83114" lon="-1.18768">
        <ele>1137.908</ele>
        <time>2013-05-10T09:10:05Z</time>
      </trkpt>
      <trkpt lat="40.83128" lon="-1.18774">
        <ele>1138.886</ele>
        <time>2013-05-10T09:10:01Z</time>
      </trkpt>
      <trkpt lat="40.83141" lon="-1.18801">
        <ele>1140.367</ele>
        <time>2013-05-10T09:09:56Z</time>
      </trkpt>
      <trkpt lat="40.83154" lon="-1.18826">
        <ele>1141.719</ele>
        <time>2013-05-10T09:09:47Z</time>
      </trkpt>
      <trkpt lat="40.83155" lon="-1.18828">
        <ele>1141.744</ele>
        <time>2013-05-10T09:09:46Z</time>
      </trkpt>
      <trkpt lat="40.83168" lon="-1.18851">
        <ele>1143.111</ele>
        <time>2013-05-10T09:09:35Z</time>
      </trkpt>
      <trkpt lat="40.83185" lon="-1.18867">
        <ele>1142.798</ele>
        <time>2013-05-10T09:09:23Z</time>
      </trkpt>
      <trkpt lat="40.83208" lon="-1.18883">
        <ele>1141.286</ele>
        <time>2013-05-10T09:09:11Z</time>
      </trkpt>
      <trkpt lat="40.8323" lon="-1.18894">
        <ele>1138.399</ele>
        <time>2013-05-10T09:08:58Z</time>
      </trkpt>
      <trkpt lat="40.83255" lon="-1.18908">
        <ele>1135.917</ele>
        <time>2013-05-10T09:08:44Z</time>
      </trkpt>
      <trkpt lat="40.83285" lon="-1.18925">
        <ele>1134.587</ele>
        <time>2013-05-10T09:08:29Z</time>
      </trkpt>
      <trkpt lat="40.83307" lon="-1.18937">
        <ele>1133.515</ele>
        <time>2013-05-10T09:08:18Z</time>
      </trkpt>
      <trkpt lat="40.83335" lon="-1.18954">
        <ele>1130.708</ele>
        <time>2013-05-10T09:08:02Z</time>
      </trkpt>
      <trkpt lat="40.83359" lon="-1.18967">
        <ele>1128.712</ele>
        <time>2013-05-10T09:07:49Z</time>
      </trkpt>
      <trkpt lat="40.83388" lon="-1.18987">
        <ele>1126.353</ele>
        <time>2013-05-10T09:07:33Z</time>
      </trkpt>
      <trkpt lat="40.83422" lon="-1.18992">
        <ele>1123.995</ele>
        <time>2013-05-10T09:07:19Z</time>
      </trkpt>
      <trkpt lat="40.83464" lon="-1.18993">
        <ele>1122.58</ele>
        <time>2013-05-10T09:07:04Z</time>
      </trkpt>
      <trkpt lat="40.83506" lon="-1.19">
        <ele>1121.587</ele>
        <time>2013-05-10T09:06:49Z</time>
      </trkpt>
      <trkpt lat="40.83536" lon="-1.19013">
        <ele>1120.654</ele>
        <time>2013-05-10T09:06:34Z</time>
      </trkpt>
      <trkpt lat="40.83556" lon="-1.19016">
        <ele>1119.152</ele>
        <time>2013-05-10T09:06:21Z</time>
      </trkpt>
      <trkpt lat="40.83571" lon="-1.19014">
        <ele>1118.295</ele>
        <time>2013-05-10T09:06:10Z</time>
      </trkpt>
      <trkpt lat="40.83587" lon="-1.19013">
        <ele>1116.785</ele>
        <time>2013-05-10T09:05:57Z</time>
      </trkpt>
      <trkpt lat="40.83602" lon="-1.19016">
        <ele>1116.289</ele>
        <time>2013-05-10T09:05:46Z</time>
      </trkpt>
      <trkpt lat="40.83604" lon="-1.19016">
        <ele>1116.217</ele>
        <time>2013-05-10T09:05:45Z</time>
      </trkpt>
      <trkpt lat="40.83618" lon="-1.19025">
        <ele>1113.808</ele>
        <time>2013-05-10T09:05:34Z</time>
      </trkpt>
      <trkpt lat="40.83634" lon="-1.19041">
        <ele>1113.389</ele>
        <time>2013-05-10T09:05:23Z</time>
      </trkpt>
      <trkpt lat="40.83636" lon="-1.19046">
        <ele>1113.34</ele>
        <time>2013-05-10T09:05:21Z</time>
      </trkpt>
      <trkpt lat="40.83636" lon="-1.19048">
        <ele>1113.342</ele>
        <time>2013-05-10T09:05:20Z</time>
      </trkpt>
      <trkpt lat="40.83636" lon="-1.1905">
        <ele>1113.377</ele>
        <time>2013-05-10T09:05:19Z</time>
      </trkpt>
      <trkpt lat="40.83648" lon="-1.19047">
        <ele>1115.324</ele>
        <time>2013-05-10T08:59:55Z</time>
      </trkpt>
      <trkpt lat="40.83668" lon="-1.19027">
        <ele>1116.251</ele>
        <time>2013-05-10T08:59:47Z</time>
      </trkpt>
      <trkpt lat="40.8367" lon="-1.19026">
        <ele>1115.819</ele>
        <time>2013-05-10T08:59:31Z</time>
      </trkpt>
      <trkpt lat="40.83675" lon="-1.19015">
        <ele>1116.712</ele>
        <time>2013-05-10T08:59:24Z</time>
      </trkpt>
      <trkpt lat="40.83677" lon="-1.19012">
        <ele>1116.794</ele>
        <time>2013-05-10T08:59:23Z</time>
      </trkpt>
      <trkpt lat="40.83679" lon="-1.19007">
        <ele>1117.257</ele>
        <time>2013-05-10T08:59:22Z</time>
      </trkpt>
      <trkpt lat="40.83686" lon="-1.18992">
        <ele>1118.222</ele>
        <time>2013-05-10T08:59:19Z</time>
      </trkpt>
      <trkpt lat="40.83689" lon="-1.18987">
        <ele>1118.208</ele>
        <time>2013-05-10T08:59:18Z</time>
      </trkpt>
      <trkpt lat="40.83692" lon="-1.18982">
        <ele>1118.28</ele>
        <time>2013-05-10T08:59:17Z</time>
      </trkpt>
      <trkpt lat="40.83696" lon="-1.18978">
        <ele>1118.211</ele>
        <time>2013-05-10T08:59:16Z</time>
      </trkpt>
      <trkpt lat="40.837" lon="-1.18975">
        <ele>1118.683</ele>
        <time>2013-05-10T08:59:15Z</time>
      </trkpt>
      <trkpt lat="40.83706" lon="-1.18973">
        <ele>1118.698</ele>
        <time>2013-05-10T08:59:14Z</time>
      </trkpt>
      <trkpt lat="40.83711" lon="-1.18974">
        <ele>1118.685</ele>
        <time>2013-05-10T08:59:13Z</time>
      </trkpt>
      <trkpt lat="40.83717" lon="-1.18975">
        <ele>1118.682</ele>
        <time>2013-05-10T08:59:12Z</time>
      </trkpt>
      <trkpt lat="40.83722" lon="-1.18977">
        <ele>1119.12</ele>
        <time>2013-05-10T08:59:11Z</time>
      </trkpt>
      <trkpt lat="40.83726" lon="-1.18979">
        <ele>1119.193</ele>
        <time>2013-05-10T08:59:10Z</time>
      </trkpt>
      <trkpt lat="40.83738" lon="-1.18989">
        <ele>1119.621</ele>
        <time>2013-05-10T08:59:07Z</time>
      </trkpt>
      <trkpt lat="40.83765" lon="-1.19014">
        <ele>1122.541</ele>
        <time>2013-05-10T08:58:57Z</time>
      </trkpt>
      <trkpt lat="40.83789" lon="-1.19038">
        <ele>1124.905</ele>
        <time>2013-05-10T08:58:48Z</time>
      </trkpt>
      <trkpt lat="40.83807" lon="-1.19053">
        <ele>1125.808</ele>
        <time>2013-05-10T08:58:41Z</time>
      </trkpt>
      <trkpt lat="40.83821" lon="-1.19065">
        <ele>1125.843</ele>
        <time>2013-05-10T08:58:33Z</time>
      </trkpt>
      <trkpt lat="40.83822" lon="-1.19066">
        <ele>1125.884</ele>
        <time>2013-05-10T08:58:32Z</time>
      </trkpt>
      <trkpt lat="40.83824" lon="-1.19067">
        <ele>1125.886</ele>
        <time>2013-05-10T08:58:31Z</time>
      </trkpt>
      <trkpt lat="40.83828" lon="-1.19072">
        <ele>1125.811</ele>
        <time>2013-05-10T08:58:28Z</time>
      </trkpt>
      <trkpt lat="40.83846" lon="-1.19081">
        <ele>1125.458</ele>
        <time>2013-05-10T08:58:18Z</time>
      </trkpt>
      <trkpt lat="40.83848" lon="-1.19081">
        <ele>1125.495</ele>
        <time>2013-05-10T08:58:17Z</time>
      </trkpt>
      <trkpt lat="40.8385" lon="-1.19081">
        <ele>1125.473</ele>
        <time>2013-05-10T08:58:16Z</time>
      </trkpt>
      <trkpt lat="40.83852" lon="-1.19082">
        <ele>1125.466</ele>
        <time>2013-05-10T08:58:15Z</time>
      </trkpt>
      <trkpt lat="40.83854" lon="-1.19083">
        <ele>1125.457</ele>
        <time>2013-05-10T08:58:14Z</time>
      </trkpt>
      <trkpt lat="40.83856" lon="-1.19084">
        <ele>1124.9</ele>
        <time>2013-05-10T08:58:13Z</time>
      </trkpt>
      <trkpt lat="40.83857" lon="-1.19086">
        <ele>1124.92</ele>
        <time>2013-05-10T08:58:12Z</time>
      </trkpt>
      <trkpt lat="40.83858" lon="-1.19088">
        <ele>1124.908</ele>
        <time>2013-05-10T08:58:11Z</time>
      </trkpt>
      <trkpt lat="40.83859" lon="-1.19112">
        <ele>1122.536</ele>
        <time>2013-05-10T08:58:01Z</time>
      </trkpt>
      <trkpt lat="40.83874" lon="-1.19135">
        <ele>1122.587</ele>
        <time>2013-05-10T08:57:50Z</time>
      </trkpt>
      <trkpt lat="40.83895" lon="-1.19156">
        <ele>1122.539</ele>
        <time>2013-05-10T08:57:40Z</time>
      </trkpt>
      <trkpt lat="40.83897" lon="-1.19158">
        <ele>1122.544</ele>
        <time>2013-05-10T08:57:39Z</time>
      </trkpt>
      <trkpt lat="40.839" lon="-1.1916">
        <ele>1123.011</ele>
        <time>2013-05-10T08:57:38Z</time>
      </trkpt>
      <trkpt lat="40.83903" lon="-1.19161">
        <ele>1123.058</ele>
        <time>2013-05-10T08:57:37Z</time>
      </trkpt>
      <trkpt lat="40.83906" lon="-1.19163">
        <ele>1123.066</ele>
        <time>2013-05-10T08:57:36Z</time>
      </trkpt>
      <trkpt lat="40.83921" lon="-1.19181">
        <ele>1124.489</ele>
        <time>2013-05-10T08:57:29Z</time>
      </trkpt>
      <trkpt lat="40.8393" lon="-1.19187">
        <ele>1125.457</ele>
        <time>2013-05-10T08:57:26Z</time>
      </trkpt>
      <trkpt lat="40.83952" lon="-1.19197">
        <ele>1125.4</ele>
        <time>2013-05-10T08:57:17Z</time>
      </trkpt>
      <trkpt lat="40.83976" lon="-1.19199">
        <ele>1125.42</ele>
        <time>2013-05-10T08:57:05Z</time>
      </trkpt>
      <trkpt lat="40.83986" lon="-1.192">
        <ele>1125.408</ele>
        <time>2013-05-10T08:56:54Z</time>
      </trkpt>
      <trkpt lat="40.83987" lon="-1.19201">
        <ele>1125.486</ele>
        <time>2013-05-10T08:56:34Z</time>
      </trkpt>
      <trkpt lat="40.83991" lon="-1.19199">
        <ele>1124.987</ele>
        <time>2013-05-10T08:56:25Z</time>
      </trkpt>
      <trkpt lat="40.84013" lon="-1.19197">
        <ele>1123.019</ele>
        <time>2013-05-10T08:56:12Z</time>
      </trkpt>
      <trkpt lat="40.84036" lon="-1.19195">
        <ele>1121.524</ele>
        <time>2013-05-10T08:56:00Z</time>
      </trkpt>
      <trkpt lat="40.84069" lon="-1.19183">
        <ele>1121.541</ele>
        <time>2013-05-10T08:55:44Z</time>
      </trkpt>
      <trkpt lat="40.84094" lon="-1.19175">
        <ele>1120.168</ele>
        <time>2013-05-10T08:55:32Z</time>
      </trkpt>
      <trkpt lat="40.84116" lon="-1.19176">
        <ele>1119.166</ele>
        <time>2013-05-10T08:55:21Z</time>
      </trkpt>
      <trkpt lat="40.84135" lon="-1.1917">
        <ele>1119.119</ele>
        <time>2013-05-10T08:55:11Z</time>
      </trkpt>
      <trkpt lat="40.84145" lon="-1.19167">
        <ele>1118.648</ele>
        <time>2013-05-10T08:55:06Z</time>
      </trkpt>
      <trkpt lat="40.84153" lon="-1.19168">
        <ele>1118.261</ele>
        <time>2013-05-10T08:55:02Z</time>
      </trkpt>
      <trkpt lat="40.84182" lon="-1.1918">
        <ele>1115.817</ele>
        <time>2013-05-10T08:54:47Z</time>
      </trkpt>
      <trkpt lat="40.84206" lon="-1.19186">
        <ele>1114.808</ele>
        <time>2013-05-10T08:54:35Z</time>
      </trkpt>
      <trkpt lat="40.84234" lon="-1.19183">
        <ele>1113.865</ele>
        <time>2013-05-10T08:54:21Z</time>
      </trkpt>
      <trkpt lat="40.84259" lon="-1.19172">
        <ele>1113.826</ele>
        <time>2013-05-10T08:54:08Z</time>
      </trkpt>
      <trkpt lat="40.84281" lon="-1.19176">
        <ele>1113.858</ele>
        <time>2013-05-10T08:53:59Z</time>
      </trkpt>
      <trkpt lat="40.84302" lon="-1.19195">
        <ele>1112.973</ele>
        <time>2013-05-10T08:53:46Z</time>
      </trkpt>
      <trkpt lat="40.84318" lon="-1.19217">
        <ele>1111.45</ele>
        <time>2013-05-10T08:53:33Z</time>
      </trkpt>
      <trkpt lat="40.84341" lon="-1.19226">
        <ele>1109.027</ele>
        <time>2013-05-10T08:53:19Z</time>
      </trkpt>
      <trkpt lat="40.84368" lon="-1.19229">
        <ele>1107.625</ele>
        <time>2013-05-10T08:53:06Z</time>
      </trkpt>
      <trkpt lat="40.84401" lon="-1.1924">
        <ele>1107.168</ele>
        <time>2013-05-10T08:52:52Z</time>
      </trkpt>
      <trkpt lat="40.8442" lon="-1.19278">
        <ele>1106.625</ele>
        <time>2013-05-10T08:52:38Z</time>
      </trkpt>
      <trkpt lat="40.84432" lon="-1.19316">
        <ele>1106.126</ele>
        <time>2013-05-10T08:52:25Z</time>
      </trkpt>
      <trkpt lat="40.84436" lon="-1.19341">
        <ele>1105.708</ele>
        <time>2013-05-10T08:52:15Z</time>
      </trkpt>
      <trkpt lat="40.84435" lon="-1.19346">
        <ele>1105.708</ele>
        <time>2013-05-10T08:51:39Z</time>
      </trkpt>
      <trkpt lat="40.84437" lon="-1.19346">
        <ele>1105.793</ele>
        <time>2013-05-10T08:50:52Z</time>
      </trkpt>
      <trkpt lat="40.84438" lon="-1.19355">
        <ele>1105.234</ele>
        <time>2013-05-10T08:50:42Z</time>
      </trkpt>
      <trkpt lat="40.84444" lon="-1.19389">
        <ele>1104.256</ele>
        <time>2013-05-10T08:50:27Z</time>
      </trkpt>
      <trkpt lat="40.84452" lon="-1.19426">
        <ele>1102.821</ele>
        <time>2013-05-10T08:50:10Z</time>
      </trkpt>
      <trkpt lat="40.8446" lon="-1.19456">
        <ele>1101.868</ele>
        <time>2013-05-10T08:49:56Z</time>
      </trkpt>
      <trkpt lat="40.84469" lon="-1.19492">
        <ele>1100.425</ele>
        <time>2013-05-10T08:49:38Z</time>
      </trkpt>
      <trkpt lat="40.84474" lon="-1.19507">
        <ele>1099.443</ele>
        <time>2013-05-10T08:49:30Z</time>
      </trkpt>
      <trkpt lat="40.84475" lon="-1.19513">
        <ele>1098.996</ele>
        <time>2013-05-10T08:49:27Z</time>
      </trkpt>
      <trkpt lat="40.84488" lon="-1.19537">
        <ele>1098.014</ele>
        <time>2013-05-10T08:49:13Z</time>
      </trkpt>
      <trkpt lat="40.84515" lon="-1.19553">
        <ele>1097.054</ele>
        <time>2013-05-10T08:48:57Z</time>
      </trkpt>
      <trkpt lat="40.84533" lon="-1.1956">
        <ele>1096.009</ele>
        <time>2013-05-10T08:48:45Z</time>
      </trkpt>
      <trkpt lat="40.8455" lon="-1.19573">
        <ele>1095.108</ele>
        <time>2013-05-10T08:48:31Z</time>
      </trkpt>
      <trkpt lat="40.84566" lon="-1.19594">
        <ele>1093.272</ele>
        <time>2013-05-10T08:48:16Z</time>
      </trkpt>
      <trkpt lat="40.84576" lon="-1.19614">
        <ele>1092.233</ele>
        <time>2013-05-10T08:48:04Z</time>
      </trkpt>
      <trkpt lat="40.84584" lon="-1.19643">
        <ele>1090.875</ele>
        <time>2013-05-10T08:47:51Z</time>
      </trkpt>
      <trkpt lat="40.84587" lon="-1.19674">
        <ele>1089.84</ele>
        <time>2013-05-10T08:47:37Z</time>
      </trkpt>
      <trkpt lat="40.84597" lon="-1.1971">
        <ele>1088.817</ele>
        <time>2013-05-10T08:47:21Z</time>
      </trkpt>
      <trkpt lat="40.84609" lon="-1.19737">
        <ele>1087.934</ele>
        <time>2013-05-10T08:47:08Z</time>
      </trkpt>
      <trkpt lat="40.84622" lon="-1.19765">
        <ele>1087.432</ele>
        <time>2013-05-10T08:46:55Z</time>
      </trkpt>
      <trkpt lat="40.8463" lon="-1.19794">
        <ele>1086.965</ele>
        <time>2013-05-10T08:46:42Z</time>
      </trkpt>
      <trkpt lat="40.84637" lon="-1.19819">
        <ele>1086.079</ele>
        <time>2013-05-10T08:46:31Z</time>
      </trkpt>
      <trkpt lat="40.84645" lon="-1.19843">
        <ele>1085.005</ele>
        <time>2013-05-10T08:46:19Z</time>
      </trkpt>
      <trkpt lat="40.84658" lon="-1.19871">
        <ele>1083.525</ele>
        <time>2013-05-10T08:46:03Z</time>
      </trkpt>
      <trkpt lat="40.84661" lon="-1.19882">
        <ele>1083.108</ele>
        <time>2013-05-10T08:45:58Z</time>
      </trkpt>
      <trkpt lat="40.84667" lon="-1.19901">
        <ele>1081.648</ele>
        <time>2013-05-10T08:45:48Z</time>
      </trkpt>
      <trkpt lat="40.8467" lon="-1.19911">
        <ele>1081.129</ele>
        <time>2013-05-10T08:45:42Z</time>
      </trkpt>
      <trkpt lat="40.84671" lon="-1.19917">
        <ele>1080.771</ele>
        <time>2013-05-10T08:45:39Z</time>
      </trkpt>
      <trkpt lat="40.84675" lon="-1.19934">
        <ele>1079.776</ele>
        <time>2013-05-10T08:45:29Z</time>
      </trkpt>
      <trkpt lat="40.84679" lon="-1.19943">
        <ele>1079.253</ele>
        <time>2013-05-10T08:45:24Z</time>
      </trkpt>
      <trkpt lat="40.84698" lon="-1.1997">
        <ele>1078.31</ele>
        <time>2013-05-10T08:45:10Z</time>
      </trkpt>
      <trkpt lat="40.84719" lon="-1.19996">
        <ele>1077.388</ele>
        <time>2013-05-10T08:44:57Z</time>
      </trkpt>
      <trkpt lat="40.84744" lon="-1.20026">
        <ele>1076.321</ele>
        <time>2013-05-10T08:44:43Z</time>
      </trkpt>
      <trkpt lat="40.84759" lon="-1.20053">
        <ele>1075.916</ele>
        <time>2013-05-10T08:44:33Z</time>
      </trkpt>
      <trkpt lat="40.84768" lon="-1.20083">
        <ele>1074.476</ele>
        <time>2013-05-10T08:44:21Z</time>
      </trkpt>
      <trkpt lat="40.84787" lon="-1.20111">
        <ele>1073.913</ele>
        <time>2013-05-10T08:44:08Z</time>
      </trkpt>
      <trkpt lat="40.84812" lon="-1.20142">
        <ele>1073.008</ele>
        <time>2013-05-10T08:43:55Z</time>
      </trkpt>
      <trkpt lat="40.8484" lon="-1.20177">
        <ele>1072.572</ele>
        <time>2013-05-10T08:43:41Z</time>
      </trkpt>
      <trkpt lat="40.84857" lon="-1.20203">
        <ele>1072.033</ele>
        <time>2013-05-10T08:43:32Z</time>
      </trkpt>
      <trkpt lat="40.84878" lon="-1.20247">
        <ele>1072.075</ele>
        <time>2013-05-10T08:43:19Z</time>
      </trkpt>
      <trkpt lat="40.84896" lon="-1.20283">
        <ele>1072.07</ele>
        <time>2013-05-10T08:43:08Z</time>
      </trkpt>
      <trkpt lat="40.84921" lon="-1.20316">
        <ele>1072.047</ele>
        <time>2013-05-10T08:42:56Z</time>
      </trkpt>
      <trkpt lat="40.8495" lon="-1.20349">
        <ele>1072.084</ele>
        <time>2013-05-10T08:42:43Z</time>
      </trkpt>
      <trkpt lat="40.84975" lon="-1.20386">
        <ele>1072.092</ele>
        <time>2013-05-10T08:42:32Z</time>
      </trkpt>
      <trkpt lat="40.85004" lon="-1.20423">
        <ele>1072.045</ele>
        <time>2013-05-10T08:42:18Z</time>
      </trkpt>
      <trkpt lat="40.85027" lon="-1.20451">
        <ele>1072.013</ele>
        <time>2013-05-10T08:42:06Z</time>
      </trkpt>
      <trkpt lat="40.85046" lon="-1.2047">
        <ele>1071.143</ele>
        <time>2013-05-10T08:41:54Z</time>
      </trkpt>
      <trkpt lat="40.85069" lon="-1.20485">
        <ele>1070.107</ele>
        <time>2013-05-10T08:41:42Z</time>
      </trkpt>
      <trkpt lat="40.85091" lon="-1.20502">
        <ele>1068.608</ele>
        <time>2013-05-10T08:41:29Z</time>
      </trkpt>
      <trkpt lat="40.85116" lon="-1.20521">
        <ele>1067.792</ele>
        <time>2013-05-10T08:41:14Z</time>
      </trkpt>
      <trkpt lat="40.85132" lon="-1.20541">
        <ele>1066.763</ele>
        <time>2013-05-10T08:41:01Z</time>
      </trkpt>
      <trkpt lat="40.85147" lon="-1.20562">
        <ele>1065.335</ele>
        <time>2013-05-10T08:40:49Z</time>
      </trkpt>
      <trkpt lat="40.85162" lon="-1.20581">
        <ele>1063.86</ele>
        <time>2013-05-10T08:40:37Z</time>
      </trkpt>
      <trkpt lat="40.85175" lon="-1.20589">
        <ele>1062.427</ele>
        <time>2013-05-10T08:40:31Z</time>
      </trkpt>
      <trkpt lat="40.85216" lon="-1.20604">
        <ele>1063.484</ele>
        <time>2013-05-10T08:40:23Z</time>
      </trkpt>
      <trkpt lat="40.85246" lon="-1.20617">
        <ele>1064.812</ele>
        <time>2013-05-10T08:40:14Z</time>
      </trkpt>
      <trkpt lat="40.85277" lon="-1.20618">
        <ele>1064.885</ele>
        <time>2013-05-10T08:40:03Z</time>
      </trkpt>
      <trkpt lat="40.85304" lon="-1.20635">
        <ele>1064.895</ele>
        <time>2013-05-10T08:39:50Z</time>
      </trkpt>
      <trkpt lat="40.85327" lon="-1.20654">
        <ele>1066.249</ele>
        <time>2013-05-10T08:39:38Z</time>
      </trkpt>
      <trkpt lat="40.85355" lon="-1.20678">
        <ele>1066.223</ele>
        <time>2013-05-10T08:39:27Z</time>
      </trkpt>
      <trkpt lat="40.85381" lon="-1.20701">
        <ele>1066.208</ele>
        <time>2013-05-10T08:39:15Z</time>
      </trkpt>
      <trkpt lat="40.85401" lon="-1.20713">
        <ele>1064.84</ele>
        <time>2013-05-10T08:39:02Z</time>
      </trkpt>
      <trkpt lat="40.85422" lon="-1.20727">
        <ele>1063.851</ele>
        <time>2013-05-10T08:38:48Z</time>
      </trkpt>
      <trkpt lat="40.85446" lon="-1.20732">
        <ele>1062.953</ele>
        <time>2013-05-10T08:38:34Z</time>
      </trkpt>
      <trkpt lat="40.85464" lon="-1.20729">
        <ele>1061.958</ele>
        <time>2013-05-10T08:38:22Z</time>
      </trkpt>
      <trkpt lat="40.85491" lon="-1.20725">
        <ele>1060.055</ele>
        <time>2013-05-10T08:38:05Z</time>
      </trkpt>
      <trkpt lat="40.85512" lon="-1.2073">
        <ele>1059.572</ele>
        <time>2013-05-10T08:37:53Z</time>
      </trkpt>
      <trkpt lat="40.85541" lon="-1.20745">
        <ele>1058.62</ele>
        <time>2013-05-10T08:37:37Z</time>
      </trkpt>
      <trkpt lat="40.85567" lon="-1.20758">
        <ele>1057.173</ele>
        <time>2013-05-10T08:37:24Z</time>
      </trkpt>
      <trkpt lat="40.85592" lon="-1.20775">
        <ele>1057.199</ele>
        <time>2013-05-10T08:37:10Z</time>
      </trkpt>
      <trkpt lat="40.85598" lon="-1.20778">
        <ele>1057.107</ele>
        <time>2013-05-10T08:37:06Z</time>
      </trkpt>
      <trkpt lat="40.85613" lon="-1.2078">
        <ele>1057.127</ele>
        <time>2013-05-10T08:36:58Z</time>
      </trkpt>
      <trkpt lat="40.85637" lon="-1.20776">
        <ele>1057.108</ele>
        <time>2013-05-10T08:36:45Z</time>
      </trkpt>
      <trkpt lat="40.85659" lon="-1.20769">
        <ele>1057.11</ele>
        <time>2013-05-10T08:36:34Z</time>
      </trkpt>
      <trkpt lat="40.85695" lon="-1.20759">
        <ele>1057.151</ele>
        <time>2013-05-10T08:36:23Z</time>
      </trkpt>
      <trkpt lat="40.85743" lon="-1.20777">
        <ele>1058.183</ele>
        <time>2013-05-10T08:36:13Z</time>
      </trkpt>
      <trkpt lat="40.85795" lon="-1.20804">
        <ele>1059.098</ele>
        <time>2013-05-10T08:36:03Z</time>
      </trkpt>
      <trkpt lat="40.85812" lon="-1.20819">
        <ele>1061.425</ele>
        <time>2013-05-10T08:35:59Z</time>
      </trkpt>
      <trkpt lat="40.85821" lon="-1.20831">
        <ele>1061.472</ele>
        <time>2013-05-10T08:35:55Z</time>
      </trkpt>
      <trkpt lat="40.85839" lon="-1.20854">
        <ele>1061.02</ele>
        <time>2013-05-10T08:35:40Z</time>
      </trkpt>
      <trkpt lat="40.85861" lon="-1.2088">
        <ele>1060.083</ele>
        <time>2013-05-10T08:35:25Z</time>
      </trkpt>
      <trkpt lat="40.8588" lon="-1.20904">
        <ele>1059.596</ele>
        <time>2013-05-10T08:35:11Z</time>
      </trkpt>
      <trkpt lat="40.85898" lon="-1.20927">
        <ele>1058.631</ele>
        <time>2013-05-10T08:34:58Z</time>
      </trkpt>
      <trkpt lat="40.85915" lon="-1.20949">
        <ele>1058.624</ele>
        <time>2013-05-10T08:34:45Z</time>
      </trkpt>
      <trkpt lat="40.85939" lon="-1.20979">
        <ele>1057.608</ele>
        <time>2013-05-10T08:34:31Z</time>
      </trkpt>
      <trkpt lat="40.85964" lon="-1.21003">
        <ele>1057.13</ele>
        <time>2013-05-10T08:34:18Z</time>
      </trkpt>
      <trkpt lat="40.8599" lon="-1.21021">
        <ele>1056.641</ele>
        <time>2013-05-10T08:34:06Z</time>
      </trkpt>
      <trkpt lat="40.86018" lon="-1.21047">
        <ele>1056.663</ele>
        <time>2013-05-10T08:33:51Z</time>
      </trkpt>
      <trkpt lat="40.8604" lon="-1.2107">
        <ele>1056.638</ele>
        <time>2013-05-10T08:33:39Z</time>
      </trkpt>
      <trkpt lat="40.86065" lon="-1.21095">
        <ele>1056.655</ele>
        <time>2013-05-10T08:33:25Z</time>
      </trkpt>
      <trkpt lat="40.86092" lon="-1.21111">
        <ele>1056.652</ele>
        <time>2013-05-10T08:33:12Z</time>
      </trkpt>
      <trkpt lat="40.86123" lon="-1.21132">
        <ele>1056.65</ele>
        <time>2013-05-10T08:32:59Z</time>
      </trkpt>
      <trkpt lat="40.86169" lon="-1.21154">
        <ele>1056.643</ele>
        <time>2013-05-10T08:32:42Z</time>
      </trkpt>
      <trkpt lat="40.86204" lon="-1.21169">
        <ele>1056.653</ele>
        <time>2013-05-10T08:32:29Z</time>
      </trkpt>
      <trkpt lat="40.86237" lon="-1.21186">
        <ele>1056.604</ele>
        <time>2013-05-10T08:32:16Z</time>
      </trkpt>
      <trkpt lat="40.86275" lon="-1.21221">
        <ele>1056.614</ele>
        <time>2013-05-10T08:32:04Z</time>
      </trkpt>
      <trkpt lat="40.86282" lon="-1.2123">
        <ele>1056.608</ele>
        <time>2013-05-10T08:32:02Z</time>
      </trkpt>
      <trkpt lat="40.86297" lon="-1.21257">
        <ele>1056.646</ele>
        <time>2013-05-10T08:31:57Z</time>
      </trkpt>
      <trkpt lat="40.86304" lon="-1.21277">
        <ele>1057.167</ele>
        <time>2013-05-10T08:31:54Z</time>
      </trkpt>
      <trkpt lat="40.86325" lon="-1.21369">
        <ele>1059.069</ele>
        <time>2013-05-10T08:31:43Z</time>
      </trkpt>
      <trkpt lat="40.86332" lon="-1.21385">
        <ele>1059.564</ele>
        <time>2013-05-10T08:31:41Z</time>
      </trkpt>
      <trkpt lat="40.86345" lon="-1.21403">
        <ele>1061.081</ele>
        <time>2013-05-10T08:31:38Z</time>
      </trkpt>
      <trkpt lat="40.86356" lon="-1.21414">
        <ele>1063.468</ele>
        <time>2013-05-10T08:31:35Z</time>
      </trkpt>
      <trkpt lat="40.86367" lon="-1.21426">
        <ele>1063.426</ele>
        <time>2013-05-10T08:31:26Z</time>
      </trkpt>
      <trkpt lat="40.86372" lon="-1.21433">
        <ele>1062.979</ele>
        <time>2013-05-10T08:31:16Z</time>
      </trkpt>
      <trkpt lat="40.8639" lon="-1.21454">
        <ele>1061.946</ele>
        <time>2013-05-10T08:31:04Z</time>
      </trkpt>
      <trkpt lat="40.86404" lon="-1.21477">
        <ele>1060.588</ele>
        <time>2013-05-10T08:30:52Z</time>
      </trkpt>
      <trkpt lat="40.86424" lon="-1.21506">
        <ele>1059.516</ele>
        <time>2013-05-10T08:30:36Z</time>
      </trkpt>
      <trkpt lat="40.86449" lon="-1.21538">
        <ele>1058.108</ele>
        <time>2013-05-10T08:30:19Z</time>
      </trkpt>
      <trkpt lat="40.86473" lon="-1.21566">
        <ele>1057.195</ele>
        <time>2013-05-10T08:30:03Z</time>
      </trkpt>
      <trkpt lat="40.86494" lon="-1.21591">
        <ele>1056.226</ele>
        <time>2013-05-10T08:29:50Z</time>
      </trkpt>
      <trkpt lat="40.86512" lon="-1.21615">
        <ele>1055.788</ele>
        <time>2013-05-10T08:29:38Z</time>
      </trkpt>
      <trkpt lat="40.86532" lon="-1.21645">
        <ele>1055.283</ele>
        <time>2013-05-10T08:29:24Z</time>
      </trkpt>
      <trkpt lat="40.86545" lon="-1.21678">
        <ele>1054.27</ele>
        <time>2013-05-10T08:29:10Z</time>
      </trkpt>
      <trkpt lat="40.86553" lon="-1.21711">
        <ele>1053.397</ele>
        <time>2013-05-10T08:28:59Z</time>
      </trkpt>
      <trkpt lat="40.86565" lon="-1.21754">
        <ele>1051.855</ele>
        <time>2013-05-10T08:28:43Z</time>
      </trkpt>
      <trkpt lat="40.86578" lon="-1.21779">
        <ele>1050.438</ele>
        <time>2013-05-10T08:28:31Z</time>
      </trkpt>
      <trkpt lat="40.86611" lon="-1.21814">
        <ele>1049.477</ele>
        <time>2013-05-10T08:28:15Z</time>
      </trkpt>
      <trkpt lat="40.8664" lon="-1.21847">
        <ele>1048.961</ele>
        <time>2013-05-10T08:28:01Z</time>
      </trkpt>
      <trkpt lat="40.86661" lon="-1.21882">
        <ele>1048.927</ele>
        <time>2013-05-10T08:27:46Z</time>
      </trkpt>
      <trkpt lat="40.86676" lon="-1.21911">
        <ele>1048.008</ele>
        <time>2013-05-10T08:27:32Z</time>
      </trkpt>
      <trkpt lat="40.86694" lon="-1.21949">
        <ele>1047.598</ele>
        <time>2013-05-10T08:27:17Z</time>
      </trkpt>
      <trkpt lat="40.86711" lon="-1.21978">
        <ele>1047.539</ele>
        <time>2013-05-10T08:27:04Z</time>
      </trkpt>
      <trkpt lat="40.86732" lon="-1.22001">
        <ele>1047.571</ele>
        <time>2013-05-10T08:26:51Z</time>
      </trkpt>
      <trkpt lat="40.86745" lon="-1.22034">
        <ele>1047.556</ele>
        <time>2013-05-10T08:26:41Z</time>
      </trkpt>
      <trkpt lat="40.8676" lon="-1.22056">
        <ele>1047.553</ele>
        <time>2013-05-10T08:26:32Z</time>
      </trkpt>
      <trkpt lat="40.86763" lon="-1.2207">
        <ele>1046.51</ele>
        <time>2013-05-10T08:26:22Z</time>
      </trkpt>
      <trkpt lat="40.86769" lon="-1.22099">
        <ele>1046.118</ele>
        <time>2013-05-10T08:26:09Z</time>
      </trkpt>
      <trkpt lat="40.86773" lon="-1.22112">
        <ele>1045.621</ele>
        <time>2013-05-10T08:26:03Z</time>
      </trkpt>
      <trkpt lat="40.86784" lon="-1.22134">
        <ele>1044.652</ele>
        <time>2013-05-10T08:25:50Z</time>
      </trkpt>
      <trkpt lat="40.86798" lon="-1.22151">
        <ele>1043.753</ele>
        <time>2013-05-10T08:25:40Z</time>
      </trkpt>
      <trkpt lat="40.86829" lon="-1.22183">
        <ele>1042.208</ele>
        <time>2013-05-10T08:25:21Z</time>
      </trkpt>
      <trkpt lat="40.86854" lon="-1.22211">
        <ele>1041.308</ele>
        <time>2013-05-10T08:25:06Z</time>
      </trkpt>
      <trkpt lat="40.86884" lon="-1.22234">
        <ele>1039.826</ele>
        <time>2013-05-10T08:24:50Z</time>
      </trkpt>
      <trkpt lat="40.86925" lon="-1.22253">
        <ele>1038.887</ele>
        <time>2013-05-10T08:24:33Z</time>
      </trkpt>
      <trkpt lat="40.86957" lon="-1.22262">
        <ele>1037.499</ele>
        <time>2013-05-10T08:24:19Z</time>
      </trkpt>
      <trkpt lat="40.86969" lon="-1.22265">
        <ele>1036.424</ele>
        <time>2013-05-10T08:24:14Z</time>
      </trkpt>
      <trkpt lat="40.87" lon="-1.22273">
        <ele>1036.441</ele>
        <time>2013-05-10T08:24:01Z</time>
      </trkpt>
      <trkpt lat="40.8703" lon="-1.22274">
        <ele>1036.418</ele>
        <time>2013-05-10T08:23:51Z</time>
      </trkpt>
      <trkpt lat="40.87084" lon="-1.22283">
        <ele>1037.426</ele>
        <time>2013-05-10T08:23:40Z</time>
      </trkpt>
      <trkpt lat="40.87114" lon="-1.22297">
        <ele>1038.899</ele>
        <time>2013-05-10T08:23:31Z</time>
      </trkpt>
      <trkpt lat="40.87136" lon="-1.22311">
        <ele>1037.481</ele>
        <time>2013-05-10T08:23:18Z</time>
      </trkpt>
      <trkpt lat="40.87144" lon="-1.22316">
        <ele>1036.061</ele>
        <time>2013-05-10T08:23:14Z</time>
      </trkpt>
      <trkpt lat="40.87173" lon="-1.22334">
        <ele>1036.017</ele>
        <time>2013-05-10T08:23:00Z</time>
      </trkpt>
      <trkpt lat="40.87199" lon="-1.2235">
        <ele>1036.008</ele>
        <time>2013-05-10T08:22:47Z</time>
      </trkpt>
      <trkpt lat="40.87251" lon="-1.22397">
        <ele>1036.929</ele>
        <time>2013-05-10T08:22:30Z</time>
      </trkpt>
      <trkpt lat="40.87268" lon="-1.22406">
        <ele>1036.97</ele>
        <time>2013-05-10T08:22:26Z</time>
      </trkpt>
      <trkpt lat="40.87281" lon="-1.2241">
        <ele>1037.432</ele>
        <time>2013-05-10T08:22:23Z</time>
      </trkpt>
      <trkpt lat="40.87297" lon="-1.2242">
        <ele>1038.487</ele>
        <time>2013-05-10T08:22:19Z</time>
      </trkpt>
      <trkpt lat="40.87303" lon="-1.22427">
        <ele>1038.414</ele>
        <time>2013-05-10T08:22:17Z</time>
      </trkpt>
      <trkpt lat="40.87318" lon="-1.22454">
        <ele>1038.441</ele>
        <time>2013-05-10T08:22:05Z</time>
      </trkpt>
      <trkpt lat="40.87332" lon="-1.22488">
        <ele>1037.459</ele>
        <time>2013-05-10T08:21:52Z</time>
      </trkpt>
      <trkpt lat="40.87339" lon="-1.22527">
        <ele>1036.472</ele>
        <time>2013-05-10T08:21:37Z</time>
      </trkpt>
      <trkpt lat="40.87353" lon="-1.2257">
        <ele>1035.036</ele>
        <time>2013-05-10T08:21:21Z</time>
      </trkpt>
      <trkpt lat="40.87368" lon="-1.22602">
        <ele>1033.617</ele>
        <time>2013-05-10T08:21:08Z</time>
      </trkpt>
      <trkpt lat="40.87404" lon="-1.22633">
        <ele>1032.618</ele>
        <time>2013-05-10T08:20:51Z</time>
      </trkpt>
      <trkpt lat="40.87436" lon="-1.22671">
        <ele>1032.108</ele>
        <time>2013-05-10T08:20:35Z</time>
      </trkpt>
      <trkpt lat="40.8746" lon="-1.22709">
        <ele>1032.174</ele>
        <time>2013-05-10T08:20:21Z</time>
      </trkpt>
      <trkpt lat="40.87473" lon="-1.22745">
        <ele>1032.165</ele>
        <time>2013-05-10T08:20:09Z</time>
      </trkpt>
      <trkpt lat="40.87483" lon="-1.22777">
        <ele>1032.127</ele>
        <time>2013-05-10T08:19:57Z</time>
      </trkpt>
      <trkpt lat="40.87486" lon="-1.22784">
        <ele>1032.142</ele>
        <time>2013-05-10T08:19:52Z</time>
      </trkpt>
      <trkpt lat="40.87489" lon="-1.22786">
        <ele>1031.629</ele>
        <time>2013-05-10T08:19:49Z</time>
      </trkpt>
      <trkpt lat="40.87498" lon="-1.22796">
        <ele>1031.686</ele>
        <time>2013-05-10T08:19:39Z</time>
      </trkpt>
      <trkpt lat="40.87498" lon="-1.22797">
        <ele>1031.624</ele>
        <time>2013-05-10T08:19:12Z</time>
      </trkpt>
      <trkpt lat="40.87503" lon="-1.22801">
        <ele>1031.667</ele>
        <time>2013-05-10T08:19:02Z</time>
      </trkpt>
      <trkpt lat="40.87504" lon="-1.22803">
        <ele>1031.681</ele>
        <time>2013-05-10T08:19:01Z</time>
      </trkpt>
      <trkpt lat="40.87516" lon="-1.2283">
        <ele>1031.661</ele>
        <time>2013-05-10T08:18:47Z</time>
      </trkpt>
      <trkpt lat="40.87521" lon="-1.22841">
        <ele>1031.617</ele>
        <time>2013-05-10T08:18:40Z</time>
      </trkpt>
      <trkpt lat="40.87523" lon="-1.22843">
        <ele>1031.608</ele>
        <time>2013-05-10T08:18:37Z</time>
      </trkpt>
      <trkpt lat="40.87523" lon="-1.22846">
        <ele>1031.669</ele>
        <time>2013-05-10T08:18:19Z</time>
      </trkpt>
      <trkpt lat="40.87523" lon="-1.22845">
        <ele>1031.67</ele>
        <time>2013-05-10T08:17:56Z</time>
      </trkpt>
      <trkpt lat="40.87524" lon="-1.22845">
        <ele>1031.622</ele>
        <time>2013-05-10T08:17:21Z</time>
      </trkpt>
      <trkpt lat="40.87523" lon="-1.22845">
        <ele>1031.627</ele>
        <time>2013-05-10T08:16:53Z</time>
      </trkpt>
      <trkpt lat="40.87522" lon="-1.22844">
        <ele>1031.634</ele>
        <time>2013-05-10T08:15:51Z</time>
      </trkpt>
      <trkpt lat="40.87523" lon="-1.22845">
        <ele>1031.651</ele>
        <time>2013-05-10T08:15:22Z</time>
      </trkpt>
      <trkpt lat="40.87522" lon="-1.22845">
        <ele>1031.649</ele>
        <time>2013-05-10T08:14:31Z</time>
      </trkpt>
      <trkpt lat="40.87522" lon="-1.22845">
        <ele>1031.632</ele>
        <time>2013-05-10T08:13:31Z</time>
      </trkpt>
      <trkpt lat="40.87522" lon="-1.22844">
        <ele>1031.687</ele>
        <time>2013-05-10T08:12:58Z</time>
      </trkpt>
      <trkpt lat="40.87523" lon="-1.22846">
        <ele>1031.642</ele>
        <time>2013-05-10T08:12:40Z</time>
      </trkpt>
      <trkpt lat="40.87523" lon="-1.22845">
        <ele>1031.626</ele>
        <time>2013-05-10T08:12:31Z</time>
      </trkpt>
      <trkpt lat="40.87523" lon="-1.22847">
        <ele>1031.608</ele>
        <time>2013-05-10T08:12:12Z</time>
      </trkpt>
      <trkpt lat="40.87523" lon="-1.22848">
        <ele>1031.629</ele>
        <time>2013-05-10T08:10:59Z</time>
      </trkpt>
      <trkpt lat="40.87525" lon="-1.22847">
        <ele>1031.61</ele>
        <time>2013-05-10T08:10:30Z</time>
      </trkpt>
      <trkpt lat="40.87523" lon="-1.22847">
        <ele>1031.612</ele>
        <time>2013-05-10T08:09:42Z</time>
      </trkpt>
      <trkpt lat="40.87523" lon="-1.22846">
        <ele>1031.687</ele>
        <time>2013-05-10T08:09:18Z</time>
      </trkpt>
      <trkpt lat="40.87524" lon="-1.22847">
        <ele>1031.634</ele>
        <time>2013-05-10T08:08:54Z</time>
      </trkpt>
      <trkpt lat="40.87525" lon="-1.22848">
        <ele>1031.611</ele>
        <time>2013-05-10T08:08:29Z</time>
      </trkpt>
      <trkpt lat="40.87523" lon="-1.22848">
        <ele>1031.619</ele>
        <time>2013-05-10T08:08:00Z</time>
      </trkpt>
      <trkpt lat="40.87522" lon="-1.22851">
        <ele>1031.632</ele>
        <time>2013-05-10T08:07:49Z</time>
      </trkpt>
      <trkpt lat="40.87524" lon="-1.22858">
        <ele>1031.277</ele>
        <time>2013-05-10T08:07:46Z</time>
      </trkpt>
      <trkpt lat="40.87537" lon="-1.22896">
        <ele>1030.261</ele>
        <time>2013-05-10T08:07:33Z</time>
      </trkpt>
      <trkpt lat="40.87538" lon="-1.22898">
        <ele>1030.227</ele>
        <time>2013-05-10T08:07:32Z</time>
      </trkpt>
      <trkpt lat="40.8754" lon="-1.229">
        <ele>1030.208</ele>
        <time>2013-05-10T08:07:31Z</time>
      </trkpt>
      <trkpt lat="40.87541" lon="-1.22902">
        <ele>1030.278</ele>
        <time>2013-05-10T08:07:30Z</time>
      </trkpt>
      <trkpt lat="40.87541" lon="-1.22904">
        <ele>1030.239</ele>
        <time>2013-05-10T08:07:29Z</time>
      </trkpt>
      <trkpt lat="40.87548" lon="-1.22918">
        <ele>1029.711</ele>
        <time>2013-05-10T08:07:23Z</time>
      </trkpt>
      <trkpt lat="40.87569" lon="-1.2294">
        <ele>1027.896</ele>
        <time>2013-05-10T08:07:11Z</time>
      </trkpt>
      <trkpt lat="40.87598" lon="-1.22968">
        <ele>1027.353</ele>
        <time>2013-05-10T08:06:58Z</time>
      </trkpt>
      <trkpt lat="40.87616" lon="-1.22996">
        <ele>1026.34</ele>
        <time>2013-05-10T08:06:47Z</time>
      </trkpt>
      <trkpt lat="40.8764" lon="-1.23026">
        <ele>1024.948</ele>
        <time>2013-05-10T08:06:34Z</time>
      </trkpt>
      <trkpt lat="40.87666" lon="-1.23054">
        <ele>1023.971</ele>
        <time>2013-05-10T08:06:22Z</time>
      </trkpt>
      <trkpt lat="40.87685" lon="-1.23086">
        <ele>1023.085</ele>
        <time>2013-05-10T08:06:10Z</time>
      </trkpt>
      <trkpt lat="40.87696" lon="-1.23122">
        <ele>1022.089</ele>
        <time>2013-05-10T08:05:59Z</time>
      </trkpt>
      <trkpt lat="40.87721" lon="-1.23171">
        <ele>1021.117</ele>
        <time>2013-05-10T08:05:44Z</time>
      </trkpt>
      <trkpt lat="40.87732" lon="-1.23215">
        <ele>1020.108</ele>
        <time>2013-05-10T08:05:32Z</time>
      </trkpt>
      <trkpt lat="40.87746" lon="-1.23268">
        <ele>1018.719</ele>
        <time>2013-05-10T08:05:18Z</time>
      </trkpt>
      <trkpt lat="40.8777" lon="-1.23321">
        <ele>1018.78</ele>
        <time>2013-05-10T08:05:04Z</time>
      </trkpt>
      <trkpt lat="40.87791" lon="-1.23375">
        <ele>1018.722</ele>
        <time>2013-05-10T08:04:50Z</time>
      </trkpt>
      <trkpt lat="40.87817" lon="-1.23444">
        <ele>1018.787</ele>
        <time>2013-05-10T08:04:33Z</time>
      </trkpt>
      <trkpt lat="40.87833" lon="-1.23505">
        <ele>1019.174</ele>
        <time>2013-05-10T08:04:20Z</time>
      </trkpt>
      <trkpt lat="40.87846" lon="-1.23586">
        <ele>1021.131</ele>
        <time>2013-05-10T08:04:05Z</time>
      </trkpt>
      <trkpt lat="40.87855" lon="-1.23629">
        <ele>1020.639</ele>
        <time>2013-05-10T08:03:53Z</time>
      </trkpt>
      <trkpt lat="40.87864" lon="-1.23679">
        <ele>1019.162</ele>
        <time>2013-05-10T08:03:38Z</time>
      </trkpt>
      <trkpt lat="40.87865" lon="-1.23733">
        <ele>1017.747</ele>
        <time>2013-05-10T08:03:22Z</time>
      </trkpt>
      <trkpt lat="40.8787" lon="-1.2379">
        <ele>1015.829</ele>
        <time>2013-05-10T08:03:04Z</time>
      </trkpt>
      <trkpt lat="40.87885" lon="-1.23834">
        <ele>1014.321</ele>
        <time>2013-05-10T08:02:48Z</time>
      </trkpt>
      <trkpt lat="40.87903" lon="-1.23866">
        <ele>1013.408</ele>
        <time>2013-05-10T08:02:37Z</time>
      </trkpt>
      <trkpt lat="40.87922" lon="-1.2391">
        <ele>1012.485</ele>
        <time>2013-05-10T08:02:24Z</time>
      </trkpt>
      <trkpt lat="40.8794" lon="-1.23968">
        <ele>1011.436</ele>
        <time>2013-05-10T08:02:09Z</time>
      </trkpt>
      <trkpt lat="40.87961" lon="-1.24021">
        <ele>1011.468</ele>
        <time>2013-05-10T08:01:55Z</time>
      </trkpt>
      <trkpt lat="40.87984" lon="-1.24077">
        <ele>1011.923</ele>
        <time>2013-05-10T08:01:39Z</time>
      </trkpt>
      <trkpt lat="40.87993" lon="-1.24102">
        <ele>1012.96</ele>
        <time>2013-05-10T08:01:30Z</time>
      </trkpt>
      <trkpt lat="40.87993" lon="-1.24104">
        <ele>1012.917</ele>
        <time>2013-05-10T08:01:09Z</time>
      </trkpt>
      <trkpt lat="40.87993" lon="-1.24103">
        <ele>1012.435</ele>
        <time>2013-05-10T08:00:39Z</time>
      </trkpt>
      <trkpt lat="40.88008" lon="-1.24134">
        <ele>1011.058</ele>
        <time>2013-05-10T08:00:25Z</time>
      </trkpt>
      <trkpt lat="40.88013" lon="-1.24179">
        <ele>1009.527</ele>
        <time>2013-05-10T08:00:10Z</time>
      </trkpt>
      <trkpt lat="40.88012" lon="-1.24218">
        <ele>1009.068</ele>
        <time>2013-05-10T07:59:57Z</time>
      </trkpt>
      <trkpt lat="40.88" lon="-1.24241">
        <ele>1008.114</ele>
        <time>2013-05-10T07:59:47Z</time>
      </trkpt>
      <trkpt lat="40.87988" lon="-1.24261">
        <ele>1007.108</ele>
        <time>2013-05-10T07:59:38Z</time>
      </trkpt>
      <trkpt lat="40.87987" lon="-1.24264">
        <ele>1007.163</ele>
        <time>2013-05-10T07:59:37Z</time>
      </trkpt>
      <trkpt lat="40.87986" lon="-1.24266">
        <ele>1006.674</ele>
        <time>2013-05-10T07:59:36Z</time>
      </trkpt>
      <trkpt lat="40.87986" lon="-1.24269">
        <ele>1006.676</ele>
        <time>2013-05-10T07:59:35Z</time>
      </trkpt>
      <trkpt lat="40.87986" lon="-1.24272">
        <ele>1006.631</ele>
        <time>2013-05-10T07:59:34Z</time>
      </trkpt>
      <trkpt lat="40.87993" lon="-1.24298">
        <ele>1004.748</ele>
        <time>2013-05-10T07:59:24Z</time>
      </trkpt>
      <trkpt lat="40.88" lon="-1.24331">
        <ele>1002.845</ele>
        <time>2013-05-10T07:59:11Z</time>
      </trkpt>
      <trkpt lat="40.88012" lon="-1.2438">
        <ele>1000.993</ele>
        <time>2013-05-10T07:58:55Z</time>
      </trkpt>
      <trkpt lat="40.88037" lon="-1.24437">
        <ele>999.496</ele>
        <time>2013-05-10T07:58:37Z</time>
      </trkpt>
      <trkpt lat="40.88061" lon="-1.24491">
        <ele>998.047</ele>
        <time>2013-05-10T07:58:21Z</time>
      </trkpt>
      <trkpt lat="40.88088" lon="-1.24555">
        <ele>997.029</ele>
        <time>2013-05-10T07:58:05Z</time>
      </trkpt>
      <trkpt lat="40.88114" lon="-1.24627">
        <ele>995.621</ele>
        <time>2013-05-10T07:57:49Z</time>
      </trkpt>
      <trkpt lat="40.88145" lon="-1.24697">
        <ele>995.608</ele>
        <time>2013-05-10T07:57:34Z</time>
      </trkpt>
      <trkpt lat="40.88167" lon="-1.24744">
        <ele>995.695</ele>
        <time>2013-05-10T07:57:25Z</time>
      </trkpt>
      <trkpt lat="40.88186" lon="-1.24819">
        <ele>997.076</ele>
        <time>2013-05-10T07:57:15Z</time>
      </trkpt>
      <trkpt lat="40.88195" lon="-1.24849">
        <ele>998.588</ele>
        <time>2013-05-10T07:57:09Z</time>
      </trkpt>
      <trkpt lat="40.8821" lon="-1.24877">
        <ele>997.543</ele>
        <time>2013-05-10T07:56:59Z</time>
      </trkpt>
      <trkpt lat="40.8824" lon="-1.24925">
        <ele>996.51</ele>
        <time>2013-05-10T07:56:43Z</time>
      </trkpt>
      <trkpt lat="40.88261" lon="-1.24963">
        <ele>996.527</ele>
        <time>2013-05-10T07:56:32Z</time>
      </trkpt>
      <trkpt lat="40.88266" lon="-1.25017">
        <ele>995.675</ele>
        <time>2013-05-10T07:56:17Z</time>
      </trkpt>
      <trkpt lat="40.88273" lon="-1.25055">
        <ele>993.268</ele>
        <time>2013-05-10T07:56:04Z</time>
      </trkpt>
      <trkpt lat="40.88286" lon="-1.25098">
        <ele>991.354</ele>
        <time>2013-05-10T07:55:49Z</time>
      </trkpt>
      <trkpt lat="40.88299" lon="-1.25142">
        <ele>990.356</ele>
        <time>2013-05-10T07:55:36Z</time>
      </trkpt>
      <trkpt lat="40.88308" lon="-1.25196">
        <ele>989.811</ele>
        <time>2013-05-10T07:55:23Z</time>
      </trkpt>
      <trkpt lat="40.88317" lon="-1.25251">
        <ele>989.308</ele>
        <time>2013-05-10T07:55:08Z</time>
      </trkpt>
      <trkpt lat="40.88325" lon="-1.25294">
        <ele>989.396</ele>
        <time>2013-05-10T07:54:55Z</time>
      </trkpt>
      <trkpt lat="40.88341" lon="-1.25338">
        <ele>987.937</ele>
        <time>2013-05-10T07:54:40Z</time>
      </trkpt>
      <trkpt lat="40.88369" lon="-1.25379">
        <ele>986.069</ele>
        <time>2013-05-10T07:54:25Z</time>
      </trkpt>
      <trkpt lat="40.88396" lon="-1.25414">
        <ele>985.594</ele>
        <time>2013-05-10T07:54:12Z</time>
      </trkpt>
      <trkpt lat="40.88424" lon="-1.25444">
        <ele>985.041</ele>
        <time>2013-05-10T07:53:59Z</time>
      </trkpt>
      <trkpt lat="40.88459" lon="-1.25482">
        <ele>984.578</ele>
        <time>2013-05-10T07:53:45Z</time>
      </trkpt>
      <trkpt lat="40.88488" lon="-1.2552">
        <ele>984.136</ele>
        <time>2013-05-10T07:53:31Z</time>
      </trkpt>
      <trkpt lat="40.88514" lon="-1.25544">
        <ele>983.129</ele>
        <time>2013-05-10T07:53:19Z</time>
      </trkpt>
      <trkpt lat="40.88545" lon="-1.25572">
        <ele>982.687</ele>
        <time>2013-05-10T07:53:05Z</time>
      </trkpt>
      <trkpt lat="40.88563" lon="-1.25616">
        <ele>982.642</ele>
        <time>2013-05-10T07:52:52Z</time>
      </trkpt>
      <trkpt lat="40.88574" lon="-1.25656">
        <ele>981.626</ele>
        <time>2013-05-10T07:52:39Z</time>
      </trkpt>
      <trkpt lat="40.88575" lon="-1.25659">
        <ele>981.608</ele>
        <time>2013-05-10T07:52:38Z</time>
      </trkpt>
      <trkpt lat="40.88577" lon="-1.25663">
        <ele>981.619</ele>
        <time>2013-05-10T07:52:36Z</time>
      </trkpt>
      <trkpt lat="40.88586" lon="-1.25684">
        <ele>979.28</ele>
        <time>2013-05-10T07:52:26Z</time>
      </trkpt>
      <trkpt lat="40.88605" lon="-1.25716">
        <ele>977.312</ele>
        <time>2013-05-10T07:52:13Z</time>
      </trkpt>
      <trkpt lat="40.88635" lon="-1.25763">
        <ele>976.467</ele>
        <time>2013-05-10T07:51:58Z</time>
      </trkpt>
      <trkpt lat="40.8866" lon="-1.25805">
        <ele>975.984</ele>
        <time>2013-05-10T07:51:46Z</time>
      </trkpt>
      <trkpt lat="40.88686" lon="-1.25858">
        <ele>975.471</ele>
        <time>2013-05-10T07:51:32Z</time>
      </trkpt>
      <trkpt lat="40.88697" lon="-1.25916">
        <ele>975.489</ele>
        <time>2013-05-10T07:51:18Z</time>
      </trkpt>
      <trkpt lat="40.88711" lon="-1.2598">
        <ele>974.412</ele>
        <time>2013-05-10T07:51:00Z</time>
      </trkpt>
      <trkpt lat="40.88722" lon="-1.26027">
        <ele>973.017</ele>
        <time>2013-05-10T07:50:46Z</time>
      </trkpt>
      <trkpt lat="40.88729" lon="-1.26063">
        <ele>973.087</ele>
        <time>2013-05-10T07:50:35Z</time>
      </trkpt>
      <trkpt lat="40.8875" lon="-1.26109">
        <ele>970.115</ele>
        <time>2013-05-10T07:50:19Z</time>
      </trkpt>
      <trkpt lat="40.8878" lon="-1.26139">
        <ele>969.208</ele>
        <time>2013-05-10T07:50:05Z</time>
      </trkpt>
      <trkpt lat="40.88808" lon="-1.26169">
        <ele>967.792</ele>
        <time>2013-05-10T07:49:52Z</time>
      </trkpt>
      <trkpt lat="40.88828" lon="-1.26212">
        <ele>967.243</ele>
        <time>2013-05-10T07:49:39Z</time>
      </trkpt>
      <trkpt lat="40.8885" lon="-1.26267">
        <ele>966.355</ele>
        <time>2013-05-10T07:49:22Z</time>
      </trkpt>
      <trkpt lat="40.88869" lon="-1.2631">
        <ele>964.85</ele>
        <time>2013-05-10T07:49:07Z</time>
      </trkpt>
      <trkpt lat="40.8889" lon="-1.26353">
        <ele>963.917</ele>
        <time>2013-05-10T07:48:53Z</time>
      </trkpt>
      <trkpt lat="40.88911" lon="-1.264">
        <ele>962.984</ele>
        <time>2013-05-10T07:48:40Z</time>
      </trkpt>
      <trkpt lat="40.8893" lon="-1.26451">
        <ele>962.442</ele>
        <time>2013-05-10T07:48:27Z</time>
      </trkpt>
      <trkpt lat="40.88954" lon="-1.265">
        <ele>961.555</ele>
        <time>2013-05-10T07:48:14Z</time>
      </trkpt>
      <trkpt lat="40.88978" lon="-1.26543">
        <ele>960.034</ele>
        <time>2013-05-10T07:48:01Z</time>
      </trkpt>
      <trkpt lat="40.89" lon="-1.26584">
        <ele>959.155</ele>
        <time>2013-05-10T07:47:48Z</time>
      </trkpt>
      <trkpt lat="40.8902" lon="-1.26653">
        <ele>957.11</ele>
        <time>2013-05-10T07:47:30Z</time>
      </trkpt>
      <trkpt lat="40.89032" lon="-1.26698">
        <ele>956.208</ele>
        <time>2013-05-10T07:47:19Z</time>
      </trkpt>
      <trkpt lat="40.89055" lon="-1.26753">
        <ele>955.294</ele>
        <time>2013-05-10T07:47:04Z</time>
      </trkpt>
      <trkpt lat="40.89073" lon="-1.26809">
        <ele>953.815</ele>
        <time>2013-05-10T07:46:50Z</time>
      </trkpt>
      <trkpt lat="40.89101" lon="-1.26865">
        <ele>952.347</ele>
        <time>2013-05-10T07:46:35Z</time>
      </trkpt>
      <trkpt lat="40.89138" lon="-1.26914">
        <ele>951.412</ele>
        <time>2013-05-10T07:46:20Z</time>
      </trkpt>
      <trkpt lat="40.89169" lon="-1.26972">
        <ele>950.439</ele>
        <time>2013-05-10T07:46:05Z</time>
      </trkpt>
      <trkpt lat="40.89193" lon="-1.27029">
        <ele>949.076</ele>
        <time>2013-05-10T07:45:51Z</time>
      </trkpt>
      <trkpt lat="40.8922" lon="-1.27082">
        <ele>948.014</ele>
        <time>2013-05-10T07:45:37Z</time>
      </trkpt>
      <trkpt lat="40.89252" lon="-1.2717">
        <ele>946.617</ele>
        <time>2013-05-10T07:45:17Z</time>
      </trkpt>
      <trkpt lat="40.89282" lon="-1.27227">
        <ele>945.661</ele>
        <time>2013-05-10T07:45:03Z</time>
      </trkpt>
      <trkpt lat="40.89323" lon="-1.27297">
        <ele>944.621</ele>
        <time>2013-05-10T07:44:45Z</time>
      </trkpt>
      <trkpt lat="40.89352" lon="-1.2735">
        <ele>943.713</ele>
        <time>2013-05-10T07:44:31Z</time>
      </trkpt>
      <trkpt lat="40.89384" lon="-1.27401">
        <ele>943.208</ele>
        <time>2013-05-10T07:44:17Z</time>
      </trkpt>
      <trkpt lat="40.8941" lon="-1.2745">
        <ele>942.267</ele>
        <time>2013-05-10T07:44:04Z</time>
      </trkpt>
      <trkpt lat="40.89439" lon="-1.27498">
        <ele>941.898</ele>
        <time>2013-05-10T07:43:50Z</time>
      </trkpt>
      <trkpt lat="40.89467" lon="-1.27536">
        <ele>941.35</ele>
        <time>2013-05-10T07:43:38Z</time>
      </trkpt>
      <trkpt lat="40.89489" lon="-1.27572">
        <ele>939.815</ele>
        <time>2013-05-10T07:43:28Z</time>
      </trkpt>
      <trkpt lat="40.89513" lon="-1.27616">
        <ele>939.852</ele>
        <time>2013-05-10T07:43:16Z</time>
      </trkpt>
      <trkpt lat="40.89543" lon="-1.27662">
        <ele>938.989</ele>
        <time>2013-05-10T07:43:03Z</time>
      </trkpt>
      <trkpt lat="40.89551" lon="-1.27676">
        <ele>937.457</ele>
        <time>2013-05-10T07:42:59Z</time>
      </trkpt>
      <trkpt lat="40.8958" lon="-1.27723">
        <ele>936.96</ele>
        <time>2013-05-10T07:42:46Z</time>
      </trkpt>
      <trkpt lat="40.89605" lon="-1.27773">
        <ele>936.055</ele>
        <time>2013-05-10T07:42:33Z</time>
      </trkpt>
      <trkpt lat="40.89629" lon="-1.27825">
        <ele>935.007</ele>
        <time>2013-05-10T07:42:20Z</time>
      </trkpt>
      <trkpt lat="40.89655" lon="-1.27875">
        <ele>934.517</ele>
        <time>2013-05-10T07:42:07Z</time>
      </trkpt>
      <trkpt lat="40.89687" lon="-1.27933">
        <ele>933.108</ele>
        <time>2013-05-10T07:41:51Z</time>
      </trkpt>
      <trkpt lat="40.89714" lon="-1.27979">
        <ele>931.716</ele>
        <time>2013-05-10T07:41:38Z</time>
      </trkpt>
      <trkpt lat="40.89738" lon="-1.28015">
        <ele>931.237</ele>
        <time>2013-05-10T07:41:27Z</time>
      </trkpt>
      <trkpt lat="40.89764" lon="-1.28051">
        <ele>930.229</ele>
        <time>2013-05-10T07:41:16Z</time>
      </trkpt>
      <trkpt lat="40.89795" lon="-1.281">
        <ele>928.894</ele>
        <time>2013-05-10T07:41:02Z</time>
      </trkpt>
      <trkpt lat="40.89827" lon="-1.2814">
        <ele>928.321</ele>
        <time>2013-05-10T07:40:48Z</time>
      </trkpt>
      <trkpt lat="40.89862" lon="-1.28186">
        <ele>927.318</ele>
        <time>2013-05-10T07:40:31Z</time>
      </trkpt>
      <trkpt lat="40.89892" lon="-1.28223">
        <ele>925.986</ele>
        <time>2013-05-10T07:40:17Z</time>
      </trkpt>
      <trkpt lat="40.89926" lon="-1.28262">
        <ele>925.429</ele>
        <time>2013-05-10T07:40:02Z</time>
      </trkpt>
      <trkpt lat="40.8995" lon="-1.28296">
        <ele>924.972</ele>
        <time>2013-05-10T07:39:50Z</time>
      </trkpt>
      <trkpt lat="40.89974" lon="-1.28333">
        <ele>924.013</ele>
        <time>2013-05-10T07:39:37Z</time>
      </trkpt>
      <trkpt lat="40.89996" lon="-1.28364">
        <ele>924.014</ele>
        <time>2013-05-10T07:39:25Z</time>
      </trkpt>
      <trkpt lat="40.89997" lon="-1.28366">
        <ele>924.008</ele>
        <time>2013-05-10T07:39:24Z</time>
      </trkpt>
      <trkpt lat="40.89999" lon="-1.28368">
        <ele>924.028</ele>
        <time>2013-05-10T07:39:23Z</time>
      </trkpt>
      <trkpt lat="40.9" lon="-1.2837">
        <ele>924.029</ele>
        <time>2013-05-10T07:39:22Z</time>
      </trkpt>
      <trkpt lat="40.90001" lon="-1.28372">
        <ele>924.091</ele>
        <time>2013-05-10T07:39:21Z</time>
      </trkpt>
      <trkpt lat="40.90002" lon="-1.28373">
        <ele>924.046</ele>
        <time>2013-05-10T07:39:20Z</time>
      </trkpt>
      <trkpt lat="40.90002" lon="-1.28375">
        <ele>924.043</ele>
        <time>2013-05-10T07:39:19Z</time>
      </trkpt>
      <trkpt lat="40.90002" lon="-1.28376">
        <ele>924.08</ele>
        <time>2013-05-10T07:39:18Z</time>
      </trkpt>
      <trkpt lat="40.90003" lon="-1.28377">
        <ele>924.088</ele>
        <time>2013-05-10T07:39:17Z</time>
      </trkpt>
      <trkpt lat="40.90004" lon="-1.28378">
        <ele>924.061</ele>
        <time>2013-05-10T07:39:16Z</time>
      </trkpt>
      <trkpt lat="40.90005" lon="-1.28379">
        <ele>924.099</ele>
        <time>2013-05-10T07:39:08Z</time>
      </trkpt>
      <trkpt lat="40.90005" lon="-1.28382">
        <ele>924.007</ele>
        <time>2013-05-10T07:38:36Z</time>
      </trkpt>
      <trkpt lat="40.90004" lon="-1.28382">
        <ele>924.027</ele>
        <time>2013-05-10T07:38:20Z</time>
      </trkpt>
      <trkpt lat="40.90003" lon="-1.28383">
        <ele>924.008</ele>
        <time>2013-05-10T07:37:18Z</time>
      </trkpt>
      <trkpt lat="40.90004" lon="-1.28384">
        <ele>924.03</ele>
        <time>2013-05-10T07:36:49Z</time>
      </trkpt>
      <trkpt lat="40.90006" lon="-1.28383">
        <ele>924.071</ele>
        <time>2013-05-10T07:36:42Z</time>
      </trkpt>
      <trkpt lat="40.90007" lon="-1.28383">
        <ele>924.073</ele>
        <time>2013-05-10T07:36:41Z</time>
      </trkpt>
      <trkpt lat="40.90009" lon="-1.28387">
        <ele>923.558</ele>
        <time>2013-05-10T07:36:39Z</time>
      </trkpt>
      <trkpt lat="40.90023" lon="-1.28426">
        <ele>922.585</ele>
        <time>2013-05-10T07:36:29Z</time>
      </trkpt>
      <trkpt lat="40.90038" lon="-1.28458">
        <ele>922.062</ele>
        <time>2013-05-10T07:36:21Z</time>
      </trkpt>
      <trkpt lat="40.9008" lon="-1.28523">
        <ele>921.15</ele>
        <time>2013-05-10T07:36:04Z</time>
      </trkpt>
      <trkpt lat="40.90124" lon="-1.28576">
        <ele>920.143</ele>
        <time>2013-05-10T07:35:49Z</time>
      </trkpt>
      <trkpt lat="40.90169" lon="-1.28628">
        <ele>918.742</ele>
        <time>2013-05-10T07:35:34Z</time>
      </trkpt>
      <trkpt lat="40.90171" lon="-1.28632">
        <ele>918.222</ele>
        <time>2013-05-10T07:35:33Z</time>
      </trkpt>
      <trkpt lat="40.90174" lon="-1.28635">
        <ele>918.214</ele>
        <time>2013-05-10T07:35:32Z</time>
      </trkpt>
      <trkpt lat="40.9018" lon="-1.28643">
        <ele>918.208</ele>
        <time>2013-05-10T07:35:30Z</time>
      </trkpt>
      <trkpt lat="40.90222" lon="-1.28697">
        <ele>917.225</ele>
        <time>2013-05-10T07:35:15Z</time>
      </trkpt>
      <trkpt lat="40.90266" lon="-1.28776">
        <ele>915.856</ele>
        <time>2013-05-10T07:34:56Z</time>
      </trkpt>
      <trkpt lat="40.90296" lon="-1.2884">
        <ele>914.888</ele>
        <time>2013-05-10T07:34:41Z</time>
      </trkpt>
      <trkpt lat="40.9033" lon="-1.28895">
        <ele>913.443</ele>
        <time>2013-05-10T07:34:27Z</time>
      </trkpt>
      <trkpt lat="40.90368" lon="-1.28949">
        <ele>912.99</ele>
        <time>2013-05-10T07:34:12Z</time>
      </trkpt>
      <trkpt lat="40.90411" lon="-1.29012">
        <ele>911.547</ele>
        <time>2013-05-10T07:33:55Z</time>
      </trkpt>
      <trkpt lat="40.90452" lon="-1.29055">
        <ele>910.525</ele>
        <time>2013-05-10T07:33:41Z</time>
      </trkpt>
      <trkpt lat="40.90504" lon="-1.29096">
        <ele>909.548</ele>
        <time>2013-05-10T07:33:25Z</time>
      </trkpt>
      <trkpt lat="40.90536" lon="-1.29124">
        <ele>909.129</ele>
        <time>2013-05-10T07:33:15Z</time>
      </trkpt>
      <trkpt lat="40.90578" lon="-1.29167">
        <ele>908.1</ele>
        <time>2013-05-10T07:33:00Z</time>
      </trkpt>
      <trkpt lat="40.90598" lon="-1.29196">
        <ele>907.62</ele>
        <time>2013-05-10T07:32:52Z</time>
      </trkpt>
      <trkpt lat="40.9062" lon="-1.29236">
        <ele>907.108</ele>
        <time>2013-05-10T07:32:41Z</time>
      </trkpt>
      <trkpt lat="40.90644" lon="-1.29278">
        <ele>907.643</ele>
        <time>2013-05-10T07:32:30Z</time>
      </trkpt>
      <trkpt lat="40.90668" lon="-1.2933">
        <ele>906.754</ele>
        <time>2013-05-10T07:32:17Z</time>
      </trkpt>
      <trkpt lat="40.90684" lon="-1.29362">
        <ele>906.276</ele>
        <time>2013-05-10T07:32:07Z</time>
      </trkpt>
      <trkpt lat="40.90713" lon="-1.2941">
        <ele>905.791</ele>
        <time>2013-05-10T07:31:54Z</time>
      </trkpt>
      <trkpt lat="40.90742" lon="-1.29443">
        <ele>905.798</ele>
        <time>2013-05-10T07:31:44Z</time>
      </trkpt>
      <trkpt lat="40.90774" lon="-1.29477">
        <ele>905.235</ele>
        <time>2013-05-10T07:31:33Z</time>
      </trkpt>
      <trkpt lat="40.90825" lon="-1.29522">
        <ele>905.283</ele>
        <time>2013-05-10T07:31:17Z</time>
      </trkpt>
      <trkpt lat="40.90859" lon="-1.29551">
        <ele>904.716</ele>
        <time>2013-05-10T07:31:06Z</time>
      </trkpt>
      <trkpt lat="40.9091" lon="-1.29588">
        <ele>904.312</ele>
        <time>2013-05-10T07:30:50Z</time>
      </trkpt>
      <trkpt lat="40.90951" lon="-1.2961">
        <ele>903.832</ele>
        <time>2013-05-10T07:30:37Z</time>
      </trkpt>
      <trkpt lat="40.90985" lon="-1.29627">
        <ele>902.805</ele>
        <time>2013-05-10T07:30:26Z</time>
      </trkpt>
      <trkpt lat="40.91006" lon="-1.29639">
        <ele>902.308</ele>
        <time>2013-05-10T07:30:19Z</time>
      </trkpt>
      <trkpt lat="40.91039" lon="-1.29657">
        <ele>899.922</ele>
        <time>2013-05-10T07:30:08Z</time>
      </trkpt>
      <trkpt lat="40.9107" lon="-1.2968">
        <ele>899.023</ele>
        <time>2013-05-10T07:29:57Z</time>
      </trkpt>
      <trkpt lat="40.9111" lon="-1.29719">
        <ele>897.125</ele>
        <time>2013-05-10T07:29:42Z</time>
      </trkpt>
      <trkpt lat="40.91155" lon="-1.29755">
        <ele>897.12</ele>
        <time>2013-05-10T07:29:27Z</time>
      </trkpt>
      <trkpt lat="40.91188" lon="-1.2977">
        <ele>897.177</ele>
        <time>2013-05-10T07:29:17Z</time>
      </trkpt>
      <trkpt lat="40.91191" lon="-1.29773">
        <ele>897.114</ele>
        <time>2013-05-10T07:29:16Z</time>
      </trkpt>
      <trkpt lat="40.91194" lon="-1.29775">
        <ele>897.172</ele>
        <time>2013-05-10T07:29:15Z</time>
      </trkpt>
      <trkpt lat="40.91196" lon="-1.29778">
        <ele>897.125</ele>
        <time>2013-05-10T07:29:14Z</time>
      </trkpt>
      <trkpt lat="40.91197" lon="-1.2978">
        <ele>897.143</ele>
        <time>2013-05-10T07:29:13Z</time>
      </trkpt>
      <trkpt lat="40.91206" lon="-1.29788">
        <ele>897.164</ele>
        <time>2013-05-10T07:29:08Z</time>
      </trkpt>
      <trkpt lat="40.91223" lon="-1.29804">
        <ele>897.11</ele>
        <time>2013-05-10T07:28:58Z</time>
      </trkpt>
      <trkpt lat="40.91224" lon="-1.29806">
        <ele>897.108</ele>
        <time>2013-05-10T07:28:51Z</time>
      </trkpt>
      <trkpt lat="40.91224" lon="-1.29805">
        <ele>897.155</ele>
        <time>2013-05-10T07:28:00Z</time>
      </trkpt>
      <trkpt lat="40.91228" lon="-1.29809">
        <ele>897.186</ele>
        <time>2013-05-10T07:27:53Z</time>
      </trkpt>
      <trkpt lat="40.91251" lon="-1.2983">
        <ele>897.148</ele>
        <time>2013-05-10T07:27:44Z</time>
      </trkpt>
      <trkpt lat="40.91256" lon="-1.29835">
        <ele>897.123</ele>
        <time>2013-05-10T07:27:26Z</time>
      </trkpt>
      <trkpt lat="40.91263" lon="-1.29838">
        <ele>897.12</ele>
        <time>2013-05-10T07:27:18Z</time>
      </trkpt>
      <trkpt lat="40.91266" lon="-1.29839">
        <ele>897.157</ele>
        <time>2013-05-10T07:27:17Z</time>
      </trkpt>
      <trkpt lat="40.91268" lon="-1.2984">
        <ele>897.115</ele>
        <time>2013-05-10T07:27:16Z</time>
      </trkpt>
      <trkpt lat="40.91272" lon="-1.29845">
        <ele>897.138</ele>
        <time>2013-05-10T07:27:14Z</time>
      </trkpt>
      <trkpt lat="40.9129" lon="-1.29874">
        <ele>897.147</ele>
        <time>2013-05-10T07:27:04Z</time>
      </trkpt>
      <trkpt lat="40.91291" lon="-1.29877">
        <ele>897.129</ele>
        <time>2013-05-10T07:27:03Z</time>
      </trkpt>
      <trkpt lat="40.91292" lon="-1.29881">
        <ele>897.121</ele>
        <time>2013-05-10T07:27:01Z</time>
      </trkpt>
      <trkpt lat="40.91271" lon="-1.29905">
        <ele>899.008</ele>
        <time>2013-05-10T07:26:49Z</time>
      </trkpt>
      <trkpt lat="40.91255" lon="-1.29924">
        <ele>899.975</ele>
        <time>2013-05-10T07:26:38Z</time>
      </trkpt>
      <trkpt lat="40.91256" lon="-1.29931">
        <ele>899.976</ele>
        <time>2013-05-10T07:26:34Z</time>
      </trkpt>
      <trkpt lat="40.91256" lon="-1.29933">
        <ele>899.968</ele>
        <time>2013-05-10T07:26:33Z</time>
      </trkpt>
      <trkpt lat="40.91258" lon="-1.29934">
        <ele>899.963</ele>
        <time>2013-05-10T07:26:32Z</time>
      </trkpt>
      <trkpt lat="40.91259" lon="-1.29936">
        <ele>899.97</ele>
        <time>2013-05-10T07:26:31Z</time>
      </trkpt>
      <trkpt lat="40.91285" lon="-1.29938">
        <ele>899.537</ele>
        <time>2013-05-10T07:26:21Z</time>
      </trkpt>
      <trkpt lat="40.91325" lon="-1.29939">
        <ele>899.535</ele>
        <time>2013-05-10T07:26:08Z</time>
      </trkpt>
      <trkpt lat="40.91369" lon="-1.29939">
        <ele>898.548</ele>
        <time>2013-05-10T07:25:54Z</time>
      </trkpt>
      <trkpt lat="40.91419" lon="-1.29939">
        <ele>898.537</ele>
        <time>2013-05-10T07:25:40Z</time>
      </trkpt>
      <trkpt lat="40.91453" lon="-1.29941">
        <ele>898.049</ele>
        <time>2013-05-10T07:25:28Z</time>
      </trkpt>
      <trkpt lat="40.91463" lon="-1.29941">
        <ele>898.013</ele>
        <time>2013-05-10T07:25:12Z</time>
      </trkpt>
      <trkpt lat="40.91463" lon="-1.29939">
        <ele>898.008</ele>
        <time>2013-05-10T07:24:46Z</time>
      </trkpt>
      <trkpt lat="40.91462" lon="-1.29942">
        <ele>898.094</ele>
        <time>2013-05-10T07:24:29Z</time>
      </trkpt>
      <trkpt lat="40.91465" lon="-1.29944">
        <ele>898.095</ele>
        <time>2013-05-10T07:24:04Z</time>
      </trkpt>
      <trkpt lat="40.91463" lon="-1.29942">
        <ele>898.057</ele>
        <time>2013-05-10T07:23:37Z</time>
      </trkpt>
      <trkpt lat="40.91479" lon="-1.29942">
        <ele>897.582</ele>
        <time>2013-05-10T07:23:27Z</time>
      </trkpt>
      <trkpt lat="40.91512" lon="-1.29941">
        <ele>897.569</ele>
        <time>2013-05-10T07:23:13Z</time>
      </trkpt>
      <trkpt lat="40.91546" lon="-1.29939">
        <ele>897.176</ele>
        <time>2013-05-10T07:23:00Z</time>
      </trkpt>
      <trkpt lat="40.91591" lon="-1.29944">
        <ele>897.184</ele>
        <time>2013-05-10T07:22:47Z</time>
      </trkpt>
      <trkpt lat="40.91617" lon="-1.29947">
        <ele>896.657</ele>
        <time>2013-05-10T07:22:38Z</time>
      </trkpt>
      <trkpt lat="40.91657" lon="-1.29944">
        <ele>896.163</ele>
        <time>2013-05-10T07:22:24Z</time>
      </trkpt>
      <trkpt lat="40.91689" lon="-1.29936">
        <ele>895.144</ele>
        <time>2013-05-10T07:22:13Z</time>
      </trkpt>
      <trkpt lat="40.91715" lon="-1.29926">
        <ele>894.618</ele>
        <time>2013-05-10T07:22:03Z</time>
      </trkpt>
      <trkpt lat="40.91748" lon="-1.29922">
        <ele>894.208</ele>
        <time>2013-05-10T07:21:51Z</time>
      </trkpt>
      <trkpt lat="40.9175" lon="-1.29922">
        <ele>894.227</ele>
        <time>2013-05-10T07:21:50Z</time>
      </trkpt>
      <trkpt lat="40.91752" lon="-1.29923">
        <ele>894.278</ele>
        <time>2013-05-10T07:21:49Z</time>
      </trkpt>
      <trkpt lat="40.91753" lon="-1.29924">
        <ele>893.73</ele>
        <time>2013-05-10T07:21:48Z</time>
      </trkpt>
      <trkpt lat="40.91754" lon="-1.29926">
        <ele>893.765</ele>
        <time>2013-05-10T07:21:47Z</time>
      </trkpt>
      <trkpt lat="40.91755" lon="-1.29929">
        <ele>893.232</ele>
        <time>2013-05-10T07:21:46Z</time>
      </trkpt>
      <trkpt lat="40.91755" lon="-1.29931">
        <ele>893.229</ele>
        <time>2013-05-10T07:21:45Z</time>
      </trkpt>
      <trkpt lat="40.91756" lon="-1.29932">
        <ele>892.717</ele>
        <time>2013-05-10T07:21:44Z</time>
      </trkpt>
      <trkpt lat="40.91763" lon="-1.29936">
        <ele>892.77</ele>
        <time>2013-05-10T07:21:40Z</time>
      </trkpt>
      <trkpt lat="40.91792" lon="-1.29951">
        <ele>892.745</ele>
        <time>2013-05-10T07:21:30Z</time>
      </trkpt>
      <trkpt lat="40.9183" lon="-1.29969">
        <ele>892.247</ele>
        <time>2013-05-10T07:21:18Z</time>
      </trkpt>
      <trkpt lat="40.91865" lon="-1.29983">
        <ele>891.811</ele>
        <time>2013-05-10T07:21:06Z</time>
      </trkpt>
      <trkpt lat="40.91892" lon="-1.3">
        <ele>890.308</ele>
        <time>2013-05-10T07:20:54Z</time>
      </trkpt>
      <trkpt lat="40.91904" lon="-1.30009">
        <ele>890.375</ele>
        <time>2013-05-10T07:20:46Z</time>
      </trkpt>
      <trkpt lat="40.91906" lon="-1.3001">
        <ele>890.366</ele>
        <time>2013-05-10T07:20:25Z</time>
      </trkpt>
      <trkpt lat="40.91909" lon="-1.30013">
        <ele>890.348</ele>
        <time>2013-05-10T07:20:15Z</time>
      </trkpt>
      <trkpt lat="40.9191" lon="-1.30014">
        <ele>890.343</ele>
        <time>2013-05-10T07:20:14Z</time>
      </trkpt>
      <trkpt lat="40.91912" lon="-1.30015">
        <ele>890.31</ele>
        <time>2013-05-10T07:20:13Z</time>
      </trkpt>
      <trkpt lat="40.91913" lon="-1.30015">
        <ele>890.397</ele>
        <time>2013-05-10T07:20:12Z</time>
      </trkpt>
      <trkpt lat="40.91914" lon="-1.30016">
        <ele>890.315</ele>
        <time>2013-05-10T07:20:11Z</time>
      </trkpt>
      <trkpt lat="40.91915" lon="-1.30017">
        <ele>890.368</ele>
        <time>2013-05-10T07:20:10Z</time>
      </trkpt>
      <trkpt lat="40.91916" lon="-1.30018">
        <ele>890.333</ele>
        <time>2013-05-10T07:20:09Z</time>
      </trkpt>
      <trkpt lat="40.91917" lon="-1.3002">
        <ele>890.323</ele>
        <time>2013-05-10T07:20:08Z</time>
      </trkpt>
      <trkpt lat="40.91918" lon="-1.30021">
        <ele>890.315</ele>
        <time>2013-05-10T07:20:07Z</time>
      </trkpt>
      <trkpt lat="40.9192" lon="-1.30021">
        <ele>890.308</ele>
        <time>2013-05-10T07:20:06Z</time>
      </trkpt>
      <trkpt lat="40.91922" lon="-1.3002">
        <ele>890.384</ele>
        <time>2013-05-10T07:20:05Z</time>
      </trkpt>
      <trkpt lat="40.91924" lon="-1.30021">
        <ele>890.325</ele>
        <time>2013-05-10T07:20:04Z</time>
      </trkpt>
      <trkpt lat="40.91926" lon="-1.30022">
        <ele>890.317</ele>
        <time>2013-05-10T07:20:03Z</time>
      </trkpt>
      <trkpt lat="40.91928" lon="-1.30023">
        <ele>890.392</ele>
        <time>2013-05-10T07:20:02Z</time>
      </trkpt>
      <trkpt lat="40.91932" lon="-1.30025">
        <ele>890.379</ele>
        <time>2013-05-10T07:20:00Z</time>
      </trkpt>
      <trkpt lat="40.91934" lon="-1.30025">
        <ele>890.316</ele>
        <time>2013-05-10T07:19:59Z</time>
      </trkpt>
      <trkpt lat="40.91937" lon="-1.30025">
        <ele>890.394</ele>
        <time>2013-05-10T07:19:58Z</time>
      </trkpt>
      <trkpt lat="40.91939" lon="-1.30024">
        <ele>890.327</ele>
        <time>2013-05-10T07:19:57Z</time>
      </trkpt>
      <trkpt lat="40.91942" lon="-1.30023">
        <ele>890.378</ele>
        <time>2013-05-10T07:19:56Z</time>
      </trkpt>
      <trkpt lat="40.91944" lon="-1.30022">
        <ele>890.333</ele>
        <time>2013-05-10T07:19:55Z</time>
      </trkpt>
      <trkpt lat="40.91946" lon="-1.3002">
        <ele>890.326</ele>
        <time>2013-05-10T07:19:54Z</time>
      </trkpt>
      <trkpt lat="40.91948" lon="-1.30019">
        <ele>890.308</ele>
        <time>2013-05-10T07:19:53Z</time>
      </trkpt>
      <trkpt lat="40.9195" lon="-1.30018">
        <ele>890.368</ele>
        <time>2013-05-10T07:19:52Z</time>
      </trkpt>
      <trkpt lat="40.91953" lon="-1.30017">
        <ele>890.369</ele>
        <time>2013-05-10T07:19:51Z</time>
      </trkpt>
      <trkpt lat="40.91955" lon="-1.30018">
        <ele>890.341</ele>
        <time>2013-05-10T07:19:50Z</time>
      </trkpt>
      <trkpt lat="40.91957" lon="-1.30018">
        <ele>890.336</ele>
        <time>2013-05-10T07:19:49Z</time>
      </trkpt>
      <trkpt lat="40.91959" lon="-1.30018">
        <ele>890.343</ele>
        <time>2013-05-10T07:19:48Z</time>
      </trkpt>
      <trkpt lat="40.91961" lon="-1.30019">
        <ele>890.37</ele>
        <time>2013-05-10T07:19:47Z</time>
      </trkpt>
      <trkpt lat="40.91962" lon="-1.3002">
        <ele>890.338</ele>
        <time>2013-05-10T07:19:46Z</time>
      </trkpt>
      <trkpt lat="40.91967" lon="-1.30021">
        <ele>890.351</ele>
        <time>2013-05-10T07:19:41Z</time>
      </trkpt>
      <trkpt lat="40.91968" lon="-1.3002">
        <ele>890.349</ele>
        <time>2013-05-10T07:19:39Z</time>
      </trkpt>
      <trkpt lat="40.91969" lon="-1.3002">
        <ele>890.302</ele>
        <time>2013-05-10T07:19:37Z</time>
      </trkpt>
      <trkpt lat="40.91969" lon="-1.30021">
        <ele>890.322</ele>
        <time>2013-05-10T07:19:36Z</time>
      </trkpt>
      <trkpt lat="40.91975" lon="-1.30024">
        <ele>899.008</ele>
        <time>2013-05-09T16:20:58Z</time>
      </trkpt>
      <trkpt lat="40.91984" lon="-1.30055">
        <ele>899.035</ele>
        <time>2013-05-09T16:20:48Z</time>
      </trkpt>
      <trkpt lat="40.91997" lon="-1.30087">
        <ele>900.466</ele>
        <time>2013-05-09T16:20:39Z</time>
      </trkpt>
      <trkpt lat="40.91999" lon="-1.3009">
        <ele>900.478</ele>
        <time>2013-05-09T16:20:38Z</time>
      </trkpt>
      <trkpt lat="40.92001" lon="-1.30092">
        <ele>900.443</ele>
        <time>2013-05-09T16:20:37Z</time>
      </trkpt>
      <trkpt lat="40.92002" lon="-1.30094">
        <ele>900.44</ele>
        <time>2013-05-09T16:20:36Z</time>
      </trkpt>
      <trkpt lat="40.92003" lon="-1.30096">
        <ele>900.417</ele>
        <time>2013-05-09T16:20:35Z</time>
      </trkpt>
      <trkpt lat="40.92004" lon="-1.30097">
        <ele>900.435</ele>
        <time>2013-05-09T16:20:34Z</time>
      </trkpt>
      <trkpt lat="40.92005" lon="-1.30098">
        <ele>900.478</ele>
        <time>2013-05-09T16:20:33Z</time>
      </trkpt>
      <trkpt lat="40.92007" lon="-1.30099">
        <ele>900.432</ele>
        <time>2013-05-09T16:20:11Z</time>
      </trkpt>
      <trkpt lat="40.92008" lon="-1.30099">
        <ele>900.492</ele>
        <time>2013-05-09T16:20:10Z</time>
      </trkpt>
      <trkpt lat="40.9201" lon="-1.30099">
        <ele>900.411</ele>
        <time>2013-05-09T16:20:09Z</time>
      </trkpt>
      <trkpt lat="40.92012" lon="-1.30099">
        <ele>900.408</ele>
        <time>2013-05-09T16:20:08Z</time>
      </trkpt>
      <trkpt lat="40.92015" lon="-1.30098">
        <ele>900.464</ele>
        <time>2013-05-09T16:20:07Z</time>
      </trkpt>
      <trkpt lat="40.92017" lon="-1.30099">
        <ele>900.475</ele>
        <time>2013-05-09T16:20:06Z</time>
      </trkpt>
      <trkpt lat="40.92019" lon="-1.301">
        <ele>900.497</ele>
        <time>2013-05-09T16:20:05Z</time>
      </trkpt>
      <trkpt lat="40.92028" lon="-1.30109">
        <ele>900.492</ele>
        <time>2013-05-09T16:19:59Z</time>
      </trkpt>
      <trkpt lat="40.9203" lon="-1.30111">
        <ele>900.469</ele>
        <time>2013-05-09T16:19:58Z</time>
      </trkpt>
      <trkpt lat="40.92041" lon="-1.3014">
        <ele>899.036</ele>
        <time>2013-05-09T16:19:45Z</time>
      </trkpt>
      <trkpt lat="40.92042" lon="-1.30142">
        <ele>899.034</ele>
        <time>2013-05-09T16:19:44Z</time>
      </trkpt>
      <trkpt lat="40.92043" lon="-1.30144">
        <ele>899.077</ele>
        <time>2013-05-09T16:19:43Z</time>
      </trkpt>
      <trkpt lat="40.92057" lon="-1.30147">
        <ele>898.017</ele>
        <time>2013-05-09T16:19:35Z</time>
      </trkpt>
      <trkpt lat="40.92082" lon="-1.30152">
        <ele>896.687</ele>
        <time>2013-05-09T16:19:22Z</time>
      </trkpt>
      <trkpt lat="40.92115" lon="-1.30159">
        <ele>894.215</ele>
        <time>2013-05-09T16:19:09Z</time>
      </trkpt>
      <trkpt lat="40.92142" lon="-1.30156">
        <ele>893.708</ele>
        <time>2013-05-09T16:18:59Z</time>
      </trkpt>
      <trkpt lat="40.92171" lon="-1.3016">
        <ele>893.772</ele>
        <time>2013-05-09T16:18:47Z</time>
      </trkpt>
      <trkpt lat="40.92173" lon="-1.3016">
        <ele>893.723</ele>
        <time>2013-05-09T16:18:46Z</time>
      </trkpt>
      <trkpt lat="40.92175" lon="-1.30159">
        <ele>893.725</ele>
        <time>2013-05-09T16:18:45Z</time>
      </trkpt>
      <trkpt lat="40.92176" lon="-1.30159">
        <ele>893.79</ele>
        <time>2013-05-09T16:18:44Z</time>
      </trkpt>
      <trkpt lat="40.92177" lon="-1.30159">
        <ele>893.797</ele>
        <time>2013-05-09T16:18:43Z</time>
      </trkpt>
      <trkpt lat="40.92178" lon="-1.3016">
        <ele>893.774</ele>
        <time>2013-05-09T16:18:14Z</time>
      </trkpt>
      <trkpt lat="40.92176" lon="-1.30161">
        <ele>893.752</ele>
        <time>2013-05-09T16:17:26Z</time>
      </trkpt>
      <trkpt lat="40.92178" lon="-1.30161">
        <ele>893.725</ele>
        <time>2013-05-09T16:17:14Z</time>
      </trkpt>
      <trkpt lat="40.92179" lon="-1.30162">
        <ele>893.759</ele>
        <time>2013-05-09T16:17:13Z</time>
      </trkpt>
      <trkpt lat="40.92179" lon="-1.30165">
        <ele>893.703</ele>
        <time>2013-05-09T16:17:05Z</time>
      </trkpt>
      <trkpt lat="40.92179" lon="-1.30168">
        <ele>893.723</ele>
        <time>2013-05-09T16:16:49Z</time>
      </trkpt>
      <trkpt lat="40.92179" lon="-1.30171">
        <ele>893.708</ele>
        <time>2013-05-09T16:15:44Z</time>
      </trkpt>
      <trkpt lat="40.92204" lon="-1.30173">
        <ele>893.286</ele>
        <time>2013-05-09T16:15:34Z</time>
      </trkpt>
      <trkpt lat="40.92236" lon="-1.30182">
        <ele>893.267</ele>
        <time>2013-05-09T16:15:23Z</time>
      </trkpt>
      <trkpt lat="40.92276" lon="-1.30191">
        <ele>892.749</ele>
        <time>2013-05-09T16:15:11Z</time>
      </trkpt>
      <trkpt lat="40.92292" lon="-1.30192">
        <ele>892.784</ele>
        <time>2013-05-09T16:15:07Z</time>
      </trkpt>
      <trkpt lat="40.92346" lon="-1.3019">
        <ele>891.881</ele>
        <time>2013-05-09T16:14:54Z</time>
      </trkpt>
      <trkpt lat="40.92405" lon="-1.30189">
        <ele>891.338</ele>
        <time>2013-05-09T16:14:39Z</time>
      </trkpt>
      <trkpt lat="40.92465" lon="-1.30189">
        <ele>889.836</ele>
        <time>2013-05-09T16:14:24Z</time>
      </trkpt>
      <trkpt lat="40.92521" lon="-1.30182">
        <ele>889.849</ele>
        <time>2013-05-09T16:14:10Z</time>
      </trkpt>
      <trkpt lat="40.92525" lon="-1.30181">
        <ele>889.895</ele>
        <time>2013-05-09T16:14:09Z</time>
      </trkpt>
      <trkpt lat="40.92533" lon="-1.3018">
        <ele>889.849</ele>
        <time>2013-05-09T16:14:07Z</time>
      </trkpt>
      <trkpt lat="40.92537" lon="-1.3018">
        <ele>889.823</ele>
        <time>2013-05-09T16:14:06Z</time>
      </trkpt>
      <trkpt lat="40.92553" lon="-1.30176">
        <ele>889.408</ele>
        <time>2013-05-09T16:14:03Z</time>
      </trkpt>
      <trkpt lat="40.92558" lon="-1.30175">
        <ele>889.43</ele>
        <time>2013-05-09T16:14:02Z</time>
      </trkpt>
      <trkpt lat="40.92563" lon="-1.30174">
        <ele>889.491</ele>
        <time>2013-05-09T16:14:01Z</time>
      </trkpt>
      <trkpt lat="40.92622" lon="-1.30181">
        <ele>888.983</ele>
        <time>2013-05-09T16:13:47Z</time>
      </trkpt>
      <trkpt lat="40.9267" lon="-1.30182">
        <ele>888.968</ele>
        <time>2013-05-09T16:13:35Z</time>
      </trkpt>
      <trkpt lat="40.92711" lon="-1.30181">
        <ele>888.995</ele>
        <time>2013-05-09T16:13:25Z</time>
      </trkpt>
      <trkpt lat="40.92771" lon="-1.30181">
        <ele>888.982</ele>
        <time>2013-05-09T16:13:12Z</time>
      </trkpt>
      <trkpt lat="40.92833" lon="-1.30183">
        <ele>888.44</ele>
        <time>2013-05-09T16:12:59Z</time>
      </trkpt>
      <trkpt lat="40.92896" lon="-1.30181">
        <ele>887.953</ele>
        <time>2013-05-09T16:12:45Z</time>
      </trkpt>
      <trkpt lat="40.92967" lon="-1.30171">
        <ele>887.954</ele>
        <time>2013-05-09T16:12:30Z</time>
      </trkpt>
      <trkpt lat="40.92972" lon="-1.3017">
        <ele>887.956</ele>
        <time>2013-05-09T16:12:29Z</time>
      </trkpt>
      <trkpt lat="40.92977" lon="-1.30169">
        <ele>887.911</ele>
        <time>2013-05-09T16:12:28Z</time>
      </trkpt>
      <trkpt lat="40.9301" lon="-1.30164">
        <ele>887.908</ele>
        <time>2013-05-09T16:12:21Z</time>
      </trkpt>
      <trkpt lat="40.93024" lon="-1.30163">
        <ele>887.976</ele>
        <time>2013-05-09T16:12:18Z</time>
      </trkpt>
      <trkpt lat="40.93029" lon="-1.30162">
        <ele>887.937</ele>
        <time>2013-05-09T16:12:17Z</time>
      </trkpt>
      <trkpt lat="40.93038" lon="-1.30161">
        <ele>887.999</ele>
        <time>2013-05-09T16:12:15Z</time>
      </trkpt>
      <trkpt lat="40.93066" lon="-1.3016">
        <ele>887.994</ele>
        <time>2013-05-09T16:12:07Z</time>
      </trkpt>
      <trkpt lat="40.93067" lon="-1.30159">
        <ele>887.921</ele>
        <time>2013-05-09T16:11:45Z</time>
      </trkpt>
      <trkpt lat="40.93086" lon="-1.30154">
        <ele>887.958</ele>
        <time>2013-05-09T16:11:35Z</time>
      </trkpt>
      <trkpt lat="40.93112" lon="-1.30152">
        <ele>887.966</ele>
        <time>2013-05-09T16:11:26Z</time>
      </trkpt>
      <trkpt lat="40.93113" lon="-1.30152">
        <ele>887.929</ele>
        <time>2013-05-09T16:11:25Z</time>
      </trkpt>
      <trkpt lat="40.93114" lon="-1.30152">
        <ele>887.961</ele>
        <time>2013-05-09T16:11:24Z</time>
      </trkpt>
      <trkpt lat="40.93118" lon="-1.30151">
        <ele>887.921</ele>
        <time>2013-05-09T16:11:17Z</time>
      </trkpt>
      <trkpt lat="40.93154" lon="-1.30147">
        <ele>887.913</ele>
        <time>2013-05-09T16:11:07Z</time>
      </trkpt>
      <trkpt lat="40.93207" lon="-1.30138">
        <ele>887.908</ele>
        <time>2013-05-09T16:10:54Z</time>
      </trkpt>
      <trkpt lat="40.93266" lon="-1.30134">
        <ele>887.917</ele>
        <time>2013-05-09T16:10:40Z</time>
      </trkpt>
      <trkpt lat="40.93319" lon="-1.3013">
        <ele>887.918</ele>
        <time>2013-05-09T16:10:27Z</time>
      </trkpt>
      <trkpt lat="40.93337" lon="-1.30133">
        <ele>887.95</ele>
        <time>2013-05-09T16:10:23Z</time>
      </trkpt>
      <trkpt lat="40.93346" lon="-1.30135">
        <ele>887.925</ele>
        <time>2013-05-09T16:10:21Z</time>
      </trkpt>
      <trkpt lat="40.9335" lon="-1.30136">
        <ele>887.992</ele>
        <time>2013-05-09T16:10:20Z</time>
      </trkpt>
      <trkpt lat="40.93387" lon="-1.30143">
        <ele>887.999</ele>
        <time>2013-05-09T16:10:11Z</time>
      </trkpt>
      <trkpt lat="40.93434" lon="-1.30147">
        <ele>887.037</ele>
        <time>2013-05-09T16:10:00Z</time>
      </trkpt>
      <trkpt lat="40.93438" lon="-1.30147">
        <ele>887.06</ele>
        <time>2013-05-09T16:09:59Z</time>
      </trkpt>
      <trkpt lat="40.93483" lon="-1.3015">
        <ele>885.568</ele>
        <time>2013-05-09T16:09:50Z</time>
      </trkpt>
      <trkpt lat="40.93527" lon="-1.30152">
        <ele>885.542</ele>
        <time>2013-05-09T16:09:41Z</time>
      </trkpt>
      <trkpt lat="40.93543" lon="-1.30153">
        <ele>886.026</ele>
        <time>2013-05-09T16:09:38Z</time>
      </trkpt>
      <trkpt lat="40.93547" lon="-1.30154">
        <ele>886.008</ele>
        <time>2013-05-09T16:09:37Z</time>
      </trkpt>
      <trkpt lat="40.93552" lon="-1.30154">
        <ele>886.097</ele>
        <time>2013-05-09T16:09:36Z</time>
      </trkpt>
      <trkpt lat="40.93557" lon="-1.30154">
        <ele>886.098</ele>
        <time>2013-05-09T16:09:35Z</time>
      </trkpt>
      <trkpt lat="40.93562" lon="-1.30156">
        <ele>887.07</ele>
        <time>2013-05-09T16:09:34Z</time>
      </trkpt>
      <trkpt lat="40.93566" lon="-1.3016">
        <ele>887.035</ele>
        <time>2013-05-09T16:09:33Z</time>
      </trkpt>
      <trkpt lat="40.93569" lon="-1.30165">
        <ele>887.052</ele>
        <time>2013-05-09T16:09:32Z</time>
      </trkpt>
      <trkpt lat="40.93581" lon="-1.30184">
        <ele>887.989</ele>
        <time>2013-05-09T16:09:29Z</time>
      </trkpt>
      <trkpt lat="40.93584" lon="-1.3019">
        <ele>887.937</ele>
        <time>2013-05-09T16:09:28Z</time>
      </trkpt>
      <trkpt lat="40.93588" lon="-1.30195">
        <ele>887.97</ele>
        <time>2013-05-09T16:09:27Z</time>
      </trkpt>
      <trkpt lat="40.93591" lon="-1.302">
        <ele>887.994</ele>
        <time>2013-05-09T16:09:26Z</time>
      </trkpt>
      <trkpt lat="40.93595" lon="-1.30202">
        <ele>887.957</ele>
        <time>2013-05-09T16:09:25Z</time>
      </trkpt>
      <trkpt lat="40.936" lon="-1.30204">
        <ele>887.922</ele>
        <time>2013-05-09T16:09:24Z</time>
      </trkpt>
      <trkpt lat="40.93645" lon="-1.30204">
        <ele>887.408</ele>
        <time>2013-05-09T16:09:14Z</time>
      </trkpt>
      <trkpt lat="40.9365" lon="-1.30204">
        <ele>887.44</ele>
        <time>2013-05-09T16:09:13Z</time>
      </trkpt>
      <trkpt lat="40.93654" lon="-1.30205">
        <ele>887.461</ele>
        <time>2013-05-09T16:09:12Z</time>
      </trkpt>
      <trkpt lat="40.93709" lon="-1.30208">
        <ele>886.593</ele>
        <time>2013-05-09T16:09:00Z</time>
      </trkpt>
      <trkpt lat="40.9378" lon="-1.30232">
        <ele>886.078</ele>
        <time>2013-05-09T16:08:45Z</time>
      </trkpt>
      <trkpt lat="40.93848" lon="-1.30249">
        <ele>884.655</ele>
        <time>2013-05-09T16:08:31Z</time>
      </trkpt>
      <trkpt lat="40.93873" lon="-1.30259">
        <ele>884.692</ele>
        <time>2013-05-09T16:08:26Z</time>
      </trkpt>
      <trkpt lat="40.93938" lon="-1.30255">
        <ele>884.69</ele>
        <time>2013-05-09T16:08:13Z</time>
      </trkpt>
      <trkpt lat="40.94009" lon="-1.3026">
        <ele>884.663</ele>
        <time>2013-05-09T16:07:59Z</time>
      </trkpt>
      <trkpt lat="40.9407" lon="-1.3029">
        <ele>885.081</ele>
        <time>2013-05-09T16:07:47Z</time>
      </trkpt>
      <trkpt lat="40.94136" lon="-1.30318">
        <ele>885.061</ele>
        <time>2013-05-09T16:07:34Z</time>
      </trkpt>
      <trkpt lat="40.94194" lon="-1.30353">
        <ele>886.017</ele>
        <time>2013-05-09T16:07:22Z</time>
      </trkpt>
      <trkpt lat="40.94228" lon="-1.30367">
        <ele>886.008</ele>
        <time>2013-05-09T16:07:15Z</time>
      </trkpt>
      <trkpt lat="40.94233" lon="-1.30369">
        <ele>886.049</ele>
        <time>2013-05-09T16:07:14Z</time>
      </trkpt>
      <trkpt lat="40.94276" lon="-1.30402">
        <ele>886.04</ele>
        <time>2013-05-09T16:07:04Z</time>
      </trkpt>
      <trkpt lat="40.94324" lon="-1.30437">
        <ele>886.092</ele>
        <time>2013-05-09T16:06:51Z</time>
      </trkpt>
      <trkpt lat="40.94358" lon="-1.30453">
        <ele>885.077</ele>
        <time>2013-05-09T16:06:41Z</time>
      </trkpt>
      <trkpt lat="40.94362" lon="-1.30453">
        <ele>885.054</ele>
        <time>2013-05-09T16:06:40Z</time>
      </trkpt>
      <trkpt lat="40.94366" lon="-1.30452">
        <ele>885.091</ele>
        <time>2013-05-09T16:06:39Z</time>
      </trkpt>
      <trkpt lat="40.9437" lon="-1.30452">
        <ele>885.099</ele>
        <time>2013-05-09T16:06:38Z</time>
      </trkpt>
      <trkpt lat="40.94374" lon="-1.30452">
        <ele>885.032</ele>
        <time>2013-05-09T16:06:37Z</time>
      </trkpt>
      <trkpt lat="40.94385" lon="-1.30458">
        <ele>884.645</ele>
        <time>2013-05-09T16:06:34Z</time>
      </trkpt>
      <trkpt lat="40.94427" lon="-1.30494">
        <ele>884.147</ele>
        <time>2013-05-09T16:06:21Z</time>
      </trkpt>
      <trkpt lat="40.94461" lon="-1.30533">
        <ele>884.111</ele>
        <time>2013-05-09T16:06:09Z</time>
      </trkpt>
      <trkpt lat="40.94481" lon="-1.30557">
        <ele>884.108</ele>
        <time>2013-05-09T16:06:00Z</time>
      </trkpt>
      <trkpt lat="40.94484" lon="-1.30564">
        <ele>884.195</ele>
        <time>2013-05-09T16:05:14Z</time>
      </trkpt>
      <trkpt lat="40.94484" lon="-1.30562">
        <ele>884.146</ele>
        <time>2013-05-09T16:04:12Z</time>
      </trkpt>
      <trkpt lat="40.94486" lon="-1.30564">
        <ele>884.128</ele>
        <time>2013-05-09T16:02:38Z</time>
      </trkpt>
      <trkpt lat="40.94487" lon="-1.30564">
        <ele>884.143</ele>
        <time>2013-05-09T16:01:55Z</time>
      </trkpt>
      <trkpt lat="40.94487" lon="-1.30564">
        <ele>884.14</ele>
        <time>2013-05-09T16:01:03Z</time>
      </trkpt>
      <trkpt lat="40.94487" lon="-1.30564">
        <ele>883.627</ele>
        <time>2013-05-09T16:00:31Z</time>
      </trkpt>
      <trkpt lat="40.9449" lon="-1.30584">
        <ele>883.145</ele>
        <time>2013-05-09T16:00:23Z</time>
      </trkpt>
      <trkpt lat="40.94487" lon="-1.3061">
        <ele>882.288</ele>
        <time>2013-05-09T16:00:18Z</time>
      </trkpt>
      <trkpt lat="40.94487" lon="-1.30616">
        <ele>882.254</ele>
        <time>2013-05-09T16:00:17Z</time>
      </trkpt>
      <trkpt lat="40.94486" lon="-1.30622">
        <ele>882.256</ele>
        <time>2013-05-09T16:00:16Z</time>
      </trkpt>
      <trkpt lat="40.94487" lon="-1.30628">
        <ele>882.211</ele>
        <time>2013-05-09T16:00:15Z</time>
      </trkpt>
      <trkpt lat="40.94488" lon="-1.30634">
        <ele>882.208</ele>
        <time>2013-05-09T16:00:14Z</time>
      </trkpt>
      <trkpt lat="40.9449" lon="-1.30639">
        <ele>882.226</ele>
        <time>2013-05-09T16:00:13Z</time>
      </trkpt>
      <trkpt lat="40.94492" lon="-1.30645">
        <ele>882.277</ele>
        <time>2013-05-09T16:00:12Z</time>
      </trkpt>
      <trkpt lat="40.94496" lon="-1.30649">
        <ele>882.299</ele>
        <time>2013-05-09T16:00:11Z</time>
      </trkpt>
      <trkpt lat="40.945" lon="-1.30652">
        <ele>882.264</ele>
        <time>2013-05-09T16:00:10Z</time>
      </trkpt>
      <trkpt lat="40.94504" lon="-1.30655">
        <ele>882.291</ele>
        <time>2013-05-09T16:00:09Z</time>
      </trkpt>
      <trkpt lat="40.94553" lon="-1.30687">
        <ele>882.218</ele>
        <time>2013-05-09T15:59:57Z</time>
      </trkpt>
      <trkpt lat="40.94557" lon="-1.30691">
        <ele>882.266</ele>
        <time>2013-05-09T15:59:56Z</time>
      </trkpt>
      <trkpt lat="40.94561" lon="-1.30695">
        <ele>883.119</ele>
        <time>2013-05-09T15:59:55Z</time>
      </trkpt>
      <trkpt lat="40.94571" lon="-1.3071">
        <ele>883.144</ele>
        <time>2013-05-09T15:59:52Z</time>
      </trkpt>
      <trkpt lat="40.94577" lon="-1.30721">
        <ele>883.105</ele>
        <time>2013-05-09T15:59:50Z</time>
      </trkpt>
      <trkpt lat="40.94606" lon="-1.30782">
        <ele>882.615</ele>
        <time>2013-05-09T15:59:37Z</time>
      </trkpt>
      <trkpt lat="40.94608" lon="-1.30787">
        <ele>882.608</ele>
        <time>2013-05-09T15:59:36Z</time>
      </trkpt>
      <trkpt lat="40.94629" lon="-1.30842">
        <ele>882.635</ele>
        <time>2013-05-09T15:59:26Z</time>
      </trkpt>
      <trkpt lat="40.94632" lon="-1.30847">
        <ele>882.636</ele>
        <time>2013-05-09T15:59:25Z</time>
      </trkpt>
      <trkpt lat="40.94637" lon="-1.30857">
        <ele>882.678</ele>
        <time>2013-05-09T15:59:23Z</time>
      </trkpt>
      <trkpt lat="40.94656" lon="-1.3088">
        <ele>880.773</ele>
        <time>2013-05-09T15:59:17Z</time>
      </trkpt>
      <trkpt lat="40.947" lon="-1.30929">
        <ele>881.74</ele>
        <time>2013-05-09T15:59:04Z</time>
      </trkpt>
      <trkpt lat="40.94718" lon="-1.30953">
        <ele>881.767</ele>
        <time>2013-05-09T15:58:59Z</time>
      </trkpt>
      <trkpt lat="40.94731" lon="-1.30968">
        <ele>882.635</ele>
        <time>2013-05-09T15:58:56Z</time>
      </trkpt>
      <trkpt lat="40.94764" lon="-1.30998">
        <ele>884.168</ele>
        <time>2013-05-09T15:58:48Z</time>
      </trkpt>
      <trkpt lat="40.94767" lon="-1.31002">
        <ele>884.169</ele>
        <time>2013-05-09T15:58:47Z</time>
      </trkpt>
      <trkpt lat="40.9477" lon="-1.31007">
        <ele>884.104</ele>
        <time>2013-05-09T15:58:46Z</time>
      </trkpt>
      <trkpt lat="40.94775" lon="-1.31017">
        <ele>884.124</ele>
        <time>2013-05-09T15:58:44Z</time>
      </trkpt>
      <trkpt lat="40.94796" lon="-1.31059">
        <ele>883.108</ele>
        <time>2013-05-09T15:58:33Z</time>
      </trkpt>
      <trkpt lat="40.94845" lon="-1.31097">
        <ele>882.277</ele>
        <time>2013-05-09T15:58:20Z</time>
      </trkpt>
      <trkpt lat="40.94883" lon="-1.31129">
        <ele>880.728</ele>
        <time>2013-05-09T15:58:11Z</time>
      </trkpt>
      <trkpt lat="40.94894" lon="-1.31136">
        <ele>880.76</ele>
        <time>2013-05-09T15:58:08Z</time>
      </trkpt>
      <trkpt lat="40.94897" lon="-1.31139">
        <ele>880.775</ele>
        <time>2013-05-09T15:58:07Z</time>
      </trkpt>
      <trkpt lat="40.949" lon="-1.31141">
        <ele>880.732</ele>
        <time>2013-05-09T15:58:06Z</time>
      </trkpt>
      <trkpt lat="40.94904" lon="-1.31143">
        <ele>880.769</ele>
        <time>2013-05-09T15:58:05Z</time>
      </trkpt>
      <trkpt lat="40.94908" lon="-1.31145">
        <ele>880.767</ele>
        <time>2013-05-09T15:58:04Z</time>
      </trkpt>
      <trkpt lat="40.94912" lon="-1.31147">
        <ele>880.75</ele>
        <time>2013-05-09T15:58:03Z</time>
      </trkpt>
      <trkpt lat="40.94915" lon="-1.31151">
        <ele>880.741</ele>
        <time>2013-05-09T15:58:02Z</time>
      </trkpt>
      <trkpt lat="40.94919" lon="-1.31155">
        <ele>880.781</ele>
        <time>2013-05-09T15:58:01Z</time>
      </trkpt>
      <trkpt lat="40.94925" lon="-1.31163">
        <ele>880.709</ele>
        <time>2013-05-09T15:57:59Z</time>
      </trkpt>
      <trkpt lat="40.94928" lon="-1.31167">
        <ele>880.708</ele>
        <time>2013-05-09T15:57:58Z</time>
      </trkpt>
      <trkpt lat="40.94932" lon="-1.31171">
        <ele>880.755</ele>
        <time>2013-05-09T15:57:57Z</time>
      </trkpt>
      <trkpt lat="40.94936" lon="-1.31175">
        <ele>880.786</ele>
        <time>2013-05-09T15:57:56Z</time>
      </trkpt>
      <trkpt lat="40.94941" lon="-1.31179">
        <ele>880.728</ele>
        <time>2013-05-09T15:57:55Z</time>
      </trkpt>
      <trkpt lat="40.94946" lon="-1.31181">
        <ele>881.273</ele>
        <time>2013-05-09T15:57:54Z</time>
      </trkpt>
      <trkpt lat="40.94951" lon="-1.31183">
        <ele>881.24</ele>
        <time>2013-05-09T15:57:53Z</time>
      </trkpt>
      <trkpt lat="40.94956" lon="-1.31185">
        <ele>881.717</ele>
        <time>2013-05-09T15:57:52Z</time>
      </trkpt>
      <trkpt lat="40.94961" lon="-1.31186">
        <ele>881.745</ele>
        <time>2013-05-09T15:57:51Z</time>
      </trkpt>
      <trkpt lat="40.9499" lon="-1.31185">
        <ele>883.648</ele>
        <time>2013-05-09T15:57:45Z</time>
      </trkpt>
      <trkpt lat="40.95009" lon="-1.31189">
        <ele>883.696</ele>
        <time>2013-05-09T15:57:40Z</time>
      </trkpt>
      <trkpt lat="40.95046" lon="-1.31201">
        <ele>882.631</ele>
        <time>2013-05-09T15:57:30Z</time>
      </trkpt>
      <trkpt lat="40.95082" lon="-1.31209">
        <ele>882.224</ele>
        <time>2013-05-09T15:57:20Z</time>
      </trkpt>
      <trkpt lat="40.95094" lon="-1.31212">
        <ele>882.208</ele>
        <time>2013-05-09T15:57:17Z</time>
      </trkpt>
      <trkpt lat="40.95098" lon="-1.31212">
        <ele>882.28</ele>
        <time>2013-05-09T15:57:16Z</time>
      </trkpt>
      <trkpt lat="40.95102" lon="-1.31212">
        <ele>882.251</ele>
        <time>2013-05-09T15:57:15Z</time>
      </trkpt>
      <trkpt lat="40.95106" lon="-1.31212">
        <ele>882.213</ele>
        <time>2013-05-09T15:57:14Z</time>
      </trkpt>
      <trkpt lat="40.9511" lon="-1.31213">
        <ele>882.268</ele>
        <time>2013-05-09T15:57:13Z</time>
      </trkpt>
      <trkpt lat="40.95123" lon="-1.31216">
        <ele>882.255</ele>
        <time>2013-05-09T15:57:10Z</time>
      </trkpt>
      <trkpt lat="40.95152" lon="-1.31218">
        <ele>882.242</ele>
        <time>2013-05-09T15:57:02Z</time>
      </trkpt>
      <trkpt lat="40.95157" lon="-1.31219">
        <ele>881.73</ele>
        <time>2013-05-09T15:57:01Z</time>
      </trkpt>
      <trkpt lat="40.95178" lon="-1.31229">
        <ele>881.773</ele>
        <time>2013-05-09T15:56:56Z</time>
      </trkpt>
      <trkpt lat="40.95213" lon="-1.31248">
        <ele>881.238</ele>
        <time>2013-05-09T15:56:46Z</time>
      </trkpt>
      <trkpt lat="40.95239" lon="-1.31263">
        <ele>880.77</ele>
        <time>2013-05-09T15:56:39Z</time>
      </trkpt>
      <trkpt lat="40.95243" lon="-1.31264">
        <ele>880.717</ele>
        <time>2013-05-09T15:56:38Z</time>
      </trkpt>
      <trkpt lat="40.95269" lon="-1.31259">
        <ele>880.708</ele>
        <time>2013-05-09T15:56:32Z</time>
      </trkpt>
      <trkpt lat="40.95318" lon="-1.31255">
        <ele>880.714</ele>
        <time>2013-05-09T15:56:21Z</time>
      </trkpt>
      <trkpt lat="40.95356" lon="-1.31271">
        <ele>880.235</ele>
        <time>2013-05-09T15:56:11Z</time>
      </trkpt>
      <trkpt lat="40.95361" lon="-1.31274">
        <ele>880.297</ele>
        <time>2013-05-09T15:56:10Z</time>
      </trkpt>
      <trkpt lat="40.95369" lon="-1.31277">
        <ele>880.242</ele>
        <time>2013-05-09T15:56:08Z</time>
      </trkpt>
      <trkpt lat="40.95405" lon="-1.31282">
        <ele>880.299</ele>
        <time>2013-05-09T15:55:59Z</time>
      </trkpt>
      <trkpt lat="40.95413" lon="-1.31281">
        <ele>880.246</ele>
        <time>2013-05-09T15:55:57Z</time>
      </trkpt>
      <trkpt lat="40.95418" lon="-1.31281">
        <ele>880.224</ele>
        <time>2013-05-09T15:55:56Z</time>
      </trkpt>
      <trkpt lat="40.95422" lon="-1.3128">
        <ele>880.247</ele>
        <time>2013-05-09T15:55:55Z</time>
      </trkpt>
      <trkpt lat="40.95426" lon="-1.31279">
        <ele>880.258</ele>
        <time>2013-05-09T15:55:54Z</time>
      </trkpt>
      <trkpt lat="40.9543" lon="-1.31277">
        <ele>880.252</ele>
        <time>2013-05-09T15:55:53Z</time>
      </trkpt>
      <trkpt lat="40.95445" lon="-1.31272">
        <ele>880.217</ele>
        <time>2013-05-09T15:55:49Z</time>
      </trkpt>
      <trkpt lat="40.95449" lon="-1.31271">
        <ele>880.208</ele>
        <time>2013-05-09T15:55:48Z</time>
      </trkpt>
      <trkpt lat="40.95492" lon="-1.31277">
        <ele>880.246</ele>
        <time>2013-05-09T15:55:38Z</time>
      </trkpt>
      <trkpt lat="40.95515" lon="-1.31275">
        <ele>880.297</ele>
        <time>2013-05-09T15:55:33Z</time>
      </trkpt>
      <trkpt lat="40.95542" lon="-1.31282">
        <ele>879.739</ele>
        <time>2013-05-09T15:55:26Z</time>
      </trkpt>
      <trkpt lat="40.95546" lon="-1.31283">
        <ele>879.784</ele>
        <time>2013-05-09T15:55:25Z</time>
      </trkpt>
      <trkpt lat="40.9557" lon="-1.31284">
        <ele>879.761</ele>
        <time>2013-05-09T15:55:19Z</time>
      </trkpt>
      <trkpt lat="40.95573" lon="-1.31283">
        <ele>879.728</ele>
        <time>2013-05-09T15:55:18Z</time>
      </trkpt>
      <trkpt lat="40.95577" lon="-1.31281">
        <ele>879.756</ele>
        <time>2013-05-09T15:55:17Z</time>
      </trkpt>
      <trkpt lat="40.9558" lon="-1.3128">
        <ele>879.749</ele>
        <time>2013-05-09T15:55:16Z</time>
      </trkpt>
      <trkpt lat="40.95584" lon="-1.31279">
        <ele>879.768</ele>
        <time>2013-05-09T15:55:15Z</time>
      </trkpt>
      <trkpt lat="40.95588" lon="-1.31279">
        <ele>879.742</ele>
        <time>2013-05-09T15:55:14Z</time>
      </trkpt>
      <trkpt lat="40.956" lon="-1.31281">
        <ele>879.726</ele>
        <time>2013-05-09T15:55:11Z</time>
      </trkpt>
      <trkpt lat="40.95653" lon="-1.31308">
        <ele>879.708</ele>
        <time>2013-05-09T15:54:57Z</time>
      </trkpt>
      <trkpt lat="40.95698" lon="-1.31324">
        <ele>878.857</ele>
        <time>2013-05-09T15:54:45Z</time>
      </trkpt>
      <trkpt lat="40.95742" lon="-1.31335">
        <ele>878.828</ele>
        <time>2013-05-09T15:54:33Z</time>
      </trkpt>
      <trkpt lat="40.95746" lon="-1.31335">
        <ele>878.85</ele>
        <time>2013-05-09T15:54:32Z</time>
      </trkpt>
      <trkpt lat="40.95781" lon="-1.31334">
        <ele>878.815</ele>
        <time>2013-05-09T15:54:23Z</time>
      </trkpt>
      <trkpt lat="40.95804" lon="-1.3134">
        <ele>877.812</ele>
        <time>2013-05-09T15:54:17Z</time>
      </trkpt>
      <trkpt lat="40.95848" lon="-1.3135">
        <ele>877.319</ele>
        <time>2013-05-09T15:54:06Z</time>
      </trkpt>
      <trkpt lat="40.95885" lon="-1.31354">
        <ele>877.337</ele>
        <time>2013-05-09T15:53:57Z</time>
      </trkpt>
      <trkpt lat="40.95888" lon="-1.31355">
        <ele>877.35</ele>
        <time>2013-05-09T15:53:56Z</time>
      </trkpt>
      <trkpt lat="40.95892" lon="-1.31356">
        <ele>877.371</ele>
        <time>2013-05-09T15:53:55Z</time>
      </trkpt>
      <trkpt lat="40.95895" lon="-1.31355">
        <ele>877.341</ele>
        <time>2013-05-09T15:53:54Z</time>
      </trkpt>
      <trkpt lat="40.95899" lon="-1.31355">
        <ele>877.315</ele>
        <time>2013-05-09T15:53:53Z</time>
      </trkpt>
      <trkpt lat="40.95903" lon="-1.31355">
        <ele>877.308</ele>
        <time>2013-05-09T15:53:52Z</time>
      </trkpt>
      <trkpt lat="40.95907" lon="-1.31354">
        <ele>877.388</ele>
        <time>2013-05-09T15:53:51Z</time>
      </trkpt>
      <trkpt lat="40.95911" lon="-1.31352">
        <ele>878.869</ele>
        <time>2013-05-09T15:53:50Z</time>
      </trkpt>
      <trkpt lat="40.95915" lon="-1.31349">
        <ele>878.851</ele>
        <time>2013-05-09T15:53:49Z</time>
      </trkpt>
      <trkpt lat="40.95923" lon="-1.31342">
        <ele>878.856</ele>
        <time>2013-05-09T15:53:47Z</time>
      </trkpt>
      <trkpt lat="40.95927" lon="-1.31339">
        <ele>878.873</ele>
        <time>2013-05-09T15:53:46Z</time>
      </trkpt>
      <trkpt lat="40.95931" lon="-1.31336">
        <ele>878.89</ele>
        <time>2013-05-09T15:53:45Z</time>
      </trkpt>
      <trkpt lat="40.95938" lon="-1.31331">
        <ele>878.858</ele>
        <time>2013-05-09T15:53:43Z</time>
      </trkpt>
      <trkpt lat="40.95977" lon="-1.31325">
        <ele>878.851</ele>
        <time>2013-05-09T15:53:32Z</time>
      </trkpt>
      <trkpt lat="40.96017" lon="-1.31336">
        <ele>877.373</ele>
        <time>2013-05-09T15:53:22Z</time>
      </trkpt>
      <trkpt lat="40.96053" lon="-1.31342">
        <ele>877.385</ele>
        <time>2013-05-09T15:53:12Z</time>
      </trkpt>
      <trkpt lat="40.96058" lon="-1.31343">
        <ele>877.313</ele>
        <time>2013-05-09T15:53:11Z</time>
      </trkpt>
      <trkpt lat="40.96062" lon="-1.31343">
        <ele>877.308</ele>
        <time>2013-05-09T15:53:10Z</time>
      </trkpt>
      <trkpt lat="40.96098" lon="-1.31335">
        <ele>877.378</ele>
        <time>2013-05-09T15:53:00Z</time>
      </trkpt>
      <trkpt lat="40.96102" lon="-1.31335">
        <ele>877.399</ele>
        <time>2013-05-09T15:52:59Z</time>
      </trkpt>
      <trkpt lat="40.96151" lon="-1.31318">
        <ele>876.931</ele>
        <time>2013-05-09T15:52:46Z</time>
      </trkpt>
      <trkpt lat="40.96207" lon="-1.31289">
        <ele>874.946</ele>
        <time>2013-05-09T15:52:30Z</time>
      </trkpt>
      <trkpt lat="40.96241" lon="-1.31268">
        <ele>874.953</ele>
        <time>2013-05-09T15:52:20Z</time>
      </trkpt>
      <trkpt lat="40.96287" lon="-1.31273">
        <ele>874.91</ele>
        <time>2013-05-09T15:52:08Z</time>
      </trkpt>
      <trkpt lat="40.96332" lon="-1.31287">
        <ele>874.988</ele>
        <time>2013-05-09T15:51:56Z</time>
      </trkpt>
      <trkpt lat="40.96371" lon="-1.31294">
        <ele>874.981</ele>
        <time>2013-05-09T15:51:46Z</time>
      </trkpt>
      <trkpt lat="40.96383" lon="-1.31296">
        <ele>874.961</ele>
        <time>2013-05-09T15:51:43Z</time>
      </trkpt>
      <trkpt lat="40.9643" lon="-1.31307">
        <ele>874.921</ele>
        <time>2013-05-09T15:51:31Z</time>
      </trkpt>
      <trkpt lat="40.96474" lon="-1.31315">
        <ele>875.413</ele>
        <time>2013-05-09T15:51:20Z</time>
      </trkpt>
      <trkpt lat="40.96478" lon="-1.31316">
        <ele>875.408</ele>
        <time>2013-05-09T15:51:19Z</time>
      </trkpt>
      <trkpt lat="40.96499" lon="-1.31333">
        <ele>875.937</ele>
        <time>2013-05-09T15:51:13Z</time>
      </trkpt>
      <trkpt lat="40.96512" lon="-1.31347">
        <ele>875.998</ele>
        <time>2013-05-09T15:51:03Z</time>
      </trkpt>
      <trkpt lat="40.96514" lon="-1.31349">
        <ele>875.98</ele>
        <time>2013-05-09T15:50:57Z</time>
      </trkpt>
      <trkpt lat="40.96534" lon="-1.31371">
        <ele>875.965</ele>
        <time>2013-05-09T15:50:47Z</time>
      </trkpt>
      <trkpt lat="40.96559" lon="-1.31387">
        <ele>875.982</ele>
        <time>2013-05-09T15:50:36Z</time>
      </trkpt>
      <trkpt lat="40.96593" lon="-1.31402">
        <ele>875.959</ele>
        <time>2013-05-09T15:50:24Z</time>
      </trkpt>
      <trkpt lat="40.96628" lon="-1.31422">
        <ele>877.337</ele>
        <time>2013-05-09T15:50:13Z</time>
      </trkpt>
      <trkpt lat="40.96659" lon="-1.31421">
        <ele>876.41</ele>
        <time>2013-05-09T15:50:02Z</time>
      </trkpt>
      <trkpt lat="40.96693" lon="-1.31415">
        <ele>875.462</ele>
        <time>2013-05-09T15:49:49Z</time>
      </trkpt>
      <trkpt lat="40.96727" lon="-1.31435">
        <ele>873.583</ele>
        <time>2013-05-09T15:49:35Z</time>
      </trkpt>
      <trkpt lat="40.96746" lon="-1.31448">
        <ele>871.111</ele>
        <time>2013-05-09T15:49:26Z</time>
      </trkpt>
      <trkpt lat="40.96788" lon="-1.31453">
        <ele>869.708</ele>
        <time>2013-05-09T15:49:15Z</time>
      </trkpt>
      <trkpt lat="40.96814" lon="-1.31459">
        <ele>869.797</ele>
        <time>2013-05-09T15:49:08Z</time>
      </trkpt>
      <trkpt lat="40.96853" lon="-1.3148">
        <ele>869.748</ele>
        <time>2013-05-09T15:48:56Z</time>
      </trkpt>
      <trkpt lat="40.96897" lon="-1.31499">
        <ele>869.73</ele>
        <time>2013-05-09T15:48:43Z</time>
      </trkpt>
      <trkpt lat="40.96913" lon="-1.31503">
        <ele>871.175</ele>
        <time>2013-05-09T15:48:38Z</time>
      </trkpt>
      <trkpt lat="40.96939" lon="-1.31507">
        <ele>871.122</ele>
        <time>2013-05-09T15:48:29Z</time>
      </trkpt>
      <trkpt lat="40.96962" lon="-1.31506">
        <ele>871.149</ele>
        <time>2013-05-09T15:48:21Z</time>
      </trkpt>
      <trkpt lat="40.9698" lon="-1.31516">
        <ele>871.137</ele>
        <time>2013-05-09T15:48:12Z</time>
      </trkpt>
      <trkpt lat="40.97003" lon="-1.31509">
        <ele>870.14</ele>
        <time>2013-05-09T15:48:02Z</time>
      </trkpt>
      <trkpt lat="40.97039" lon="-1.3151">
        <ele>870.147</ele>
        <time>2013-05-09T15:47:50Z</time>
      </trkpt>
      <trkpt lat="40.97074" lon="-1.31524">
        <ele>869.229</ele>
        <time>2013-05-09T15:47:40Z</time>
      </trkpt>
      <trkpt lat="40.97116" lon="-1.31539">
        <ele>868.721</ele>
        <time>2013-05-09T15:47:27Z</time>
      </trkpt>
      <trkpt lat="40.97161" lon="-1.31551">
        <ele>868.708</ele>
        <time>2013-05-09T15:47:13Z</time>
      </trkpt>
      <trkpt lat="40.97199" lon="-1.31573">
        <ele>867.735</ele>
        <time>2013-05-09T15:47:02Z</time>
      </trkpt>
      <trkpt lat="40.97223" lon="-1.31609">
        <ele>867.766</ele>
        <time>2013-05-09T15:46:51Z</time>
      </trkpt>
      <trkpt lat="40.97235" lon="-1.31647">
        <ele>867.718</ele>
        <time>2013-05-09T15:46:41Z</time>
      </trkpt>
      <trkpt lat="40.97247" lon="-1.31676">
        <ele>867.753</ele>
        <time>2013-05-09T15:46:32Z</time>
      </trkpt>
      <trkpt lat="40.97249" lon="-1.3168">
        <ele>867.76</ele>
        <time>2013-05-09T15:46:31Z</time>
      </trkpt>
      <trkpt lat="40.9725" lon="-1.31684">
        <ele>867.727</ele>
        <time>2013-05-09T15:46:30Z</time>
      </trkpt>
      <trkpt lat="40.97253" lon="-1.31689">
        <ele>867.785</ele>
        <time>2013-05-09T15:46:29Z</time>
      </trkpt>
      <trkpt lat="40.97256" lon="-1.31695">
        <ele>867.778</ele>
        <time>2013-05-09T15:46:28Z</time>
      </trkpt>
      <trkpt lat="40.9726" lon="-1.317">
        <ele>867.763</ele>
        <time>2013-05-09T15:46:27Z</time>
      </trkpt>
      <trkpt lat="40.97264" lon="-1.31705">
        <ele>867.744</ele>
        <time>2013-05-09T15:46:26Z</time>
      </trkpt>
      <trkpt lat="40.97275" lon="-1.31713">
        <ele>868.218</ele>
        <time>2013-05-09T15:46:24Z</time>
      </trkpt>
      <trkpt lat="40.9728" lon="-1.31717">
        <ele>868.208</ele>
        <time>2013-05-09T15:46:23Z</time>
      </trkpt>
      <trkpt lat="40.97286" lon="-1.31719">
        <ele>868.767</ele>
        <time>2013-05-09T15:46:22Z</time>
      </trkpt>
      <trkpt lat="40.973" lon="-1.31717">
        <ele>870.128</ele>
        <time>2013-05-09T15:46:18Z</time>
      </trkpt>
      <trkpt lat="40.9731" lon="-1.31697">
        <ele>869.74</ele>
        <time>2013-05-09T15:46:09Z</time>
      </trkpt>
      <trkpt lat="40.97319" lon="-1.31687">
        <ele>867.765</ele>
        <time>2013-05-09T15:46:02Z</time>
      </trkpt>
      <trkpt lat="40.97348" lon="-1.3167">
        <ele>867.322</ele>
        <time>2013-05-09T15:45:52Z</time>
      </trkpt>
      <trkpt lat="40.97383" lon="-1.31649">
        <ele>866.869</ele>
        <time>2013-05-09T15:45:41Z</time>
      </trkpt>
      <trkpt lat="40.97401" lon="-1.31617">
        <ele>866.367</ele>
        <time>2013-05-09T15:45:32Z</time>
      </trkpt>
      <trkpt lat="40.9741" lon="-1.3157">
        <ele>866.37</ele>
        <time>2013-05-09T15:45:21Z</time>
      </trkpt>
      <trkpt lat="40.97422" lon="-1.31543">
        <ele>866.339</ele>
        <time>2013-05-09T15:45:12Z</time>
      </trkpt>
      <trkpt lat="40.97422" lon="-1.31537">
        <ele>866.301</ele>
        <time>2013-05-09T15:45:01Z</time>
      </trkpt>
      <trkpt lat="40.97425" lon="-1.31537">
        <ele>866.321</ele>
        <time>2013-05-09T15:44:48Z</time>
      </trkpt>
      <trkpt lat="40.97429" lon="-1.31526">
        <ele>865.808</ele>
        <time>2013-05-09T15:44:40Z</time>
      </trkpt>
      <trkpt lat="40.97441" lon="-1.31495">
        <ele>865.334</ele>
        <time>2013-05-09T15:44:31Z</time>
      </trkpt>
      <trkpt lat="40.97458" lon="-1.31441">
        <ele>865.345</ele>
        <time>2013-05-09T15:44:18Z</time>
      </trkpt>
      <trkpt lat="40.97475" lon="-1.31394">
        <ele>865.337</ele>
        <time>2013-05-09T15:44:07Z</time>
      </trkpt>
      <trkpt lat="40.97497" lon="-1.31357">
        <ele>865.342</ele>
        <time>2013-05-09T15:43:55Z</time>
      </trkpt>
      <trkpt lat="40.97522" lon="-1.31322">
        <ele>864.879</ele>
        <time>2013-05-09T15:43:42Z</time>
      </trkpt>
      <trkpt lat="40.97544" lon="-1.31287">
        <ele>864.426</ele>
        <time>2013-05-09T15:43:30Z</time>
      </trkpt>
      <trkpt lat="40.97565" lon="-1.31252">
        <ele>864.414</ele>
        <time>2013-05-09T15:43:20Z</time>
      </trkpt>
      <trkpt lat="40.97585" lon="-1.31218">
        <ele>864.417</ele>
        <time>2013-05-09T15:43:09Z</time>
      </trkpt>
      <trkpt lat="40.97594" lon="-1.31188">
        <ele>863.936</ele>
        <time>2013-05-09T15:43:00Z</time>
      </trkpt>
      <trkpt lat="40.97596" lon="-1.31163">
        <ele>863.917</ele>
        <time>2013-05-09T15:42:52Z</time>
      </trkpt>
      <trkpt lat="40.97596" lon="-1.31147">
        <ele>863.918</ele>
        <time>2013-05-09T15:42:44Z</time>
      </trkpt>
      <trkpt lat="40.97591" lon="-1.31125">
        <ele>863.908</ele>
        <time>2013-05-09T15:42:37Z</time>
      </trkpt>
      <trkpt lat="40.97592" lon="-1.31123">
        <ele>863.914</ele>
        <time>2013-05-09T15:42:15Z</time>
      </trkpt>
      <trkpt lat="40.97593" lon="-1.31097">
        <ele>863.465</ele>
        <time>2013-05-09T15:42:07Z</time>
      </trkpt>
      <trkpt lat="40.97606" lon="-1.31034">
        <ele>863.427</ele>
        <time>2013-05-09T15:41:55Z</time>
      </trkpt>
      <trkpt lat="40.97608" lon="-1.31029">
        <ele>863.432</ele>
        <time>2013-05-09T15:41:54Z</time>
      </trkpt>
      <trkpt lat="40.9761" lon="-1.31025">
        <ele>863.449</ele>
        <time>2013-05-09T15:41:53Z</time>
      </trkpt>
      <trkpt lat="40.97611" lon="-1.3102">
        <ele>863.486</ele>
        <time>2013-05-09T15:41:52Z</time>
      </trkpt>
      <trkpt lat="40.97613" lon="-1.31015">
        <ele>863.434</ele>
        <time>2013-05-09T15:41:51Z</time>
      </trkpt>
      <trkpt lat="40.97615" lon="-1.3101">
        <ele>863.447</ele>
        <time>2013-05-09T15:41:50Z</time>
      </trkpt>
      <trkpt lat="40.97618" lon="-1.30999">
        <ele>863.485</ele>
        <time>2013-05-09T15:41:48Z</time>
      </trkpt>
      <trkpt lat="40.97623" lon="-1.3099">
        <ele>863.489</ele>
        <time>2013-05-09T15:41:46Z</time>
      </trkpt>
      <trkpt lat="40.97626" lon="-1.30986">
        <ele>863.417</ele>
        <time>2013-05-09T15:41:45Z</time>
      </trkpt>
      <trkpt lat="40.97629" lon="-1.30981">
        <ele>863.408</ele>
        <time>2013-05-09T15:41:44Z</time>
      </trkpt>
      <trkpt lat="40.97641" lon="-1.30964">
        <ele>863.499</ele>
        <time>2013-05-09T15:41:40Z</time>
      </trkpt>
      <trkpt lat="40.97644" lon="-1.30959">
        <ele>863.45</ele>
        <time>2013-05-09T15:41:39Z</time>
      </trkpt>
      <trkpt lat="40.97646" lon="-1.30953">
        <ele>863.422</ele>
        <time>2013-05-09T15:41:38Z</time>
      </trkpt>
      <trkpt lat="40.97648" lon="-1.30948">
        <ele>863.447</ele>
        <time>2013-05-09T15:41:37Z</time>
      </trkpt>
      <trkpt lat="40.9765" lon="-1.30942">
        <ele>863.424</ele>
        <time>2013-05-09T15:41:36Z</time>
      </trkpt>
      <trkpt lat="40.97651" lon="-1.30936">
        <ele>863.451</ele>
        <time>2013-05-09T15:41:35Z</time>
      </trkpt>
      <trkpt lat="40.97651" lon="-1.30931">
        <ele>863.429</ele>
        <time>2013-05-09T15:41:34Z</time>
      </trkpt>
      <trkpt lat="40.97651" lon="-1.30926">
        <ele>863.482</ele>
        <time>2013-05-09T15:41:33Z</time>
      </trkpt>
      <trkpt lat="40.97652" lon="-1.3092">
        <ele>863.497</ele>
        <time>2013-05-09T15:41:32Z</time>
      </trkpt>
      <trkpt lat="40.97652" lon="-1.30915">
        <ele>863.423</ele>
        <time>2013-05-09T15:41:31Z</time>
      </trkpt>
      <trkpt lat="40.97653" lon="-1.3091">
        <ele>863.425</ele>
        <time>2013-05-09T15:41:30Z</time>
      </trkpt>
      <trkpt lat="40.97654" lon="-1.30904">
        <ele>863.408</ele>
        <time>2013-05-09T15:41:29Z</time>
      </trkpt>
      <trkpt lat="40.97655" lon="-1.30899">
        <ele>862.98</ele>
        <time>2013-05-09T15:41:28Z</time>
      </trkpt>
      <trkpt lat="40.97656" lon="-1.30894">
        <ele>862.951</ele>
        <time>2013-05-09T15:41:27Z</time>
      </trkpt>
      <trkpt lat="40.97658" lon="-1.30889">
        <ele>862.933</ele>
        <time>2013-05-09T15:41:26Z</time>
      </trkpt>
      <trkpt lat="40.97663" lon="-1.3088">
        <ele>862.958</ele>
        <time>2013-05-09T15:41:24Z</time>
      </trkpt>
      <trkpt lat="40.97666" lon="-1.30875">
        <ele>862.955</ele>
        <time>2013-05-09T15:41:23Z</time>
      </trkpt>
      <trkpt lat="40.97679" lon="-1.30845">
        <ele>862.952</ele>
        <time>2013-05-09T15:41:17Z</time>
      </trkpt>
      <trkpt lat="40.97682" lon="-1.30841">
        <ele>862.93</ele>
        <time>2013-05-09T15:41:16Z</time>
      </trkpt>
      <trkpt lat="40.97684" lon="-1.30837">
        <ele>862.943</ele>
        <time>2013-05-09T15:41:15Z</time>
      </trkpt>
      <trkpt lat="40.97687" lon="-1.30833">
        <ele>862.992</ele>
        <time>2013-05-09T15:41:14Z</time>
      </trkpt>
      <trkpt lat="40.97691" lon="-1.30829">
        <ele>862.973</ele>
        <time>2013-05-09T15:41:13Z</time>
      </trkpt>
      <trkpt lat="40.97694" lon="-1.30826">
        <ele>862.92</ele>
        <time>2013-05-09T15:41:12Z</time>
      </trkpt>
      <trkpt lat="40.97698" lon="-1.30824">
        <ele>862.408</ele>
        <time>2013-05-09T15:41:11Z</time>
      </trkpt>
      <trkpt lat="40.97702" lon="-1.30822">
        <ele>862.44</ele>
        <time>2013-05-09T15:41:10Z</time>
      </trkpt>
      <trkpt lat="40.97739" lon="-1.30815">
        <ele>862.021</ele>
        <time>2013-05-09T15:41:01Z</time>
      </trkpt>
      <trkpt lat="40.97743" lon="-1.30815">
        <ele>862.013</ele>
        <time>2013-05-09T15:41:00Z</time>
      </trkpt>
      <trkpt lat="40.9775" lon="-1.30818">
        <ele>862.088</ele>
        <time>2013-05-09T15:40:58Z</time>
      </trkpt>
      <trkpt lat="40.97799" lon="-1.30847">
        <ele>861.515</ele>
        <time>2013-05-09T15:40:45Z</time>
      </trkpt>
      <trkpt lat="40.9782" lon="-1.30853">
        <ele>861.082</ele>
        <time>2013-05-09T15:40:40Z</time>
      </trkpt>
      <trkpt lat="40.97829" lon="-1.30855">
        <ele>861.02</ele>
        <time>2013-05-09T15:40:38Z</time>
      </trkpt>
      <trkpt lat="40.97863" lon="-1.30868">
        <ele>861.083</ele>
        <time>2013-05-09T15:40:30Z</time>
      </trkpt>
      <trkpt lat="40.97867" lon="-1.3087">
        <ele>861.054</ele>
        <time>2013-05-09T15:40:29Z</time>
      </trkpt>
      <trkpt lat="40.97871" lon="-1.30873">
        <ele>861.056</ele>
        <time>2013-05-09T15:40:28Z</time>
      </trkpt>
      <trkpt lat="40.97912" lon="-1.3092">
        <ele>860.511</ele>
        <time>2013-05-09T15:40:15Z</time>
      </trkpt>
      <trkpt lat="40.97915" lon="-1.30924">
        <ele>860.508</ele>
        <time>2013-05-09T15:40:14Z</time>
      </trkpt>
      <trkpt lat="40.97918" lon="-1.30928">
        <ele>860.536</ele>
        <time>2013-05-09T15:40:13Z</time>
      </trkpt>
      <trkpt lat="40.97921" lon="-1.30931">
        <ele>860.527</ele>
        <time>2013-05-09T15:40:12Z</time>
      </trkpt>
      <trkpt lat="40.97924" lon="-1.30935">
        <ele>860.569</ele>
        <time>2013-05-09T15:40:11Z</time>
      </trkpt>
      <trkpt lat="40.97958" lon="-1.30955">
        <ele>860.574</ele>
        <time>2013-05-09T15:40:02Z</time>
      </trkpt>
      <trkpt lat="40.98002" lon="-1.30951">
        <ele>860.511</ele>
        <time>2013-05-09T15:39:50Z</time>
      </trkpt>
      <trkpt lat="40.98035" lon="-1.3095">
        <ele>860.028</ele>
        <time>2013-05-09T15:39:40Z</time>
      </trkpt>
      <trkpt lat="40.98039" lon="-1.3095">
        <ele>860.056</ele>
        <time>2013-05-09T15:39:39Z</time>
      </trkpt>
      <trkpt lat="40.98059" lon="-1.30951">
        <ele>860.099</ele>
        <time>2013-05-09T15:39:34Z</time>
      </trkpt>
      <trkpt lat="40.98111" lon="-1.30958">
        <ele>859.694</ele>
        <time>2013-05-09T15:39:21Z</time>
      </trkpt>
      <trkpt lat="40.98155" lon="-1.30948">
        <ele>859.157</ele>
        <time>2013-05-09T15:39:10Z</time>
      </trkpt>
      <trkpt lat="40.98185" lon="-1.30937">
        <ele>859.122</ele>
        <time>2013-05-09T15:39:00Z</time>
      </trkpt>
      <trkpt lat="40.98206" lon="-1.30933">
        <ele>859.108</ele>
        <time>2013-05-09T15:38:52Z</time>
      </trkpt>
      <trkpt lat="40.98226" lon="-1.30941">
        <ele>858.69</ele>
        <time>2013-05-09T15:38:41Z</time>
      </trkpt>
      <trkpt lat="40.98239" lon="-1.30948">
        <ele>858.631</ele>
        <time>2013-05-09T15:38:33Z</time>
      </trkpt>
      <trkpt lat="40.98267" lon="-1.30948">
        <ele>858.653</ele>
        <time>2013-05-09T15:38:25Z</time>
      </trkpt>
      <trkpt lat="40.98303" lon="-1.30926">
        <ele>858.118</ele>
        <time>2013-05-09T15:38:14Z</time>
      </trkpt>
      <trkpt lat="40.98348" lon="-1.30917">
        <ele>858.165</ele>
        <time>2013-05-09T15:38:02Z</time>
      </trkpt>
      <trkpt lat="40.98393" lon="-1.30909">
        <ele>858.182</ele>
        <time>2013-05-09T15:37:50Z</time>
      </trkpt>
      <trkpt lat="40.98432" lon="-1.30916">
        <ele>858.15</ele>
        <time>2013-05-09T15:37:39Z</time>
      </trkpt>
      <trkpt lat="40.98477" lon="-1.30925">
        <ele>857.243</ele>
        <time>2013-05-09T15:37:26Z</time>
      </trkpt>
      <trkpt lat="40.98524" lon="-1.30936">
        <ele>856.734</ele>
        <time>2013-05-09T15:37:13Z</time>
      </trkpt>
      <trkpt lat="40.98554" lon="-1.30933">
        <ele>856.255</ele>
        <time>2013-05-09T15:37:04Z</time>
      </trkpt>
      <trkpt lat="40.98562" lon="-1.30931">
        <ele>856.21</ele>
        <time>2013-05-09T15:36:50Z</time>
      </trkpt>
      <trkpt lat="40.98563" lon="-1.30935">
        <ele>856.208</ele>
        <time>2013-05-09T15:36:30Z</time>
      </trkpt>
      <trkpt lat="40.98565" lon="-1.30935">
        <ele>855.764</ele>
        <time>2013-05-09T15:36:20Z</time>
      </trkpt>
      <trkpt lat="40.98567" lon="-1.30934">
        <ele>856.225</ele>
        <time>2013-05-09T15:36:19Z</time>
      </trkpt>
      <trkpt lat="40.98568" lon="-1.30934">
        <ele>856.257</ele>
        <time>2013-05-09T15:36:18Z</time>
      </trkpt>
      <trkpt lat="40.9857" lon="-1.30933">
        <ele>856.262</ele>
        <time>2013-05-09T15:36:17Z</time>
      </trkpt>
      <trkpt lat="40.98586" lon="-1.30933">
        <ele>856.269</ele>
        <time>2013-05-09T15:36:08Z</time>
      </trkpt>
      <trkpt lat="40.98591" lon="-1.30932">
        <ele>856.216</ele>
        <time>2013-05-09T15:36:02Z</time>
      </trkpt>
      <trkpt lat="40.98617" lon="-1.30918">
        <ele>854.854</ele>
        <time>2013-05-09T15:35:52Z</time>
      </trkpt>
      <trkpt lat="40.98658" lon="-1.3091">
        <ele>854.877</ele>
        <time>2013-05-09T15:35:41Z</time>
      </trkpt>
      <trkpt lat="40.98662" lon="-1.3091">
        <ele>854.828</ele>
        <time>2013-05-09T15:35:40Z</time>
      </trkpt>
      <trkpt lat="40.98702" lon="-1.30921">
        <ele>854.889</ele>
        <time>2013-05-09T15:35:28Z</time>
      </trkpt>
      <trkpt lat="40.9873" lon="-1.30942">
        <ele>854.817</ele>
        <time>2013-05-09T15:35:18Z</time>
      </trkpt>
      <trkpt lat="40.98735" lon="-1.30957">
        <ele>854.808</ele>
        <time>2013-05-09T15:35:10Z</time>
      </trkpt>
      <trkpt lat="40.98736" lon="-1.30958">
        <ele>854.813</ele>
        <time>2013-05-09T15:34:44Z</time>
      </trkpt>
      <trkpt lat="40.98737" lon="-1.30963">
        <ele>854.874</ele>
        <time>2013-05-09T15:34:37Z</time>
      </trkpt>
      <trkpt lat="40.9874" lon="-1.31002">
        <ele>855.736</ele>
        <time>2013-05-09T15:34:27Z</time>
      </trkpt>
      <trkpt lat="40.9874" lon="-1.31005">
        <ele>855.711</ele>
        <time>2013-05-09T15:34:26Z</time>
      </trkpt>
      <trkpt lat="40.98741" lon="-1.31007">
        <ele>855.788</ele>
        <time>2013-05-09T15:34:25Z</time>
      </trkpt>
      <trkpt lat="40.98743" lon="-1.31009">
        <ele>855.785</ele>
        <time>2013-05-09T15:34:14Z</time>
      </trkpt>
      <trkpt lat="40.98743" lon="-1.31011">
        <ele>855.793</ele>
        <time>2013-05-09T15:33:58Z</time>
      </trkpt>
      <trkpt lat="40.98743" lon="-1.31013">
        <ele>855.756</ele>
        <time>2013-05-09T15:33:37Z</time>
      </trkpt>
      <trkpt lat="40.98744" lon="-1.31015">
        <ele>855.213</ele>
        <time>2013-05-09T15:32:57Z</time>
      </trkpt>
      <trkpt lat="40.98745" lon="-1.31013">
        <ele>855.243</ele>
        <time>2013-05-09T15:32:45Z</time>
      </trkpt>
      <trkpt lat="40.9875" lon="-1.31022">
        <ele>854.307</ele>
        <time>2013-05-09T15:32:36Z</time>
      </trkpt>
      <trkpt lat="40.98771" lon="-1.3105">
        <ele>853.308</ele>
        <time>2013-05-09T15:32:27Z</time>
      </trkpt>
      <trkpt lat="40.988" lon="-1.31083">
        <ele>853.312</ele>
        <time>2013-05-09T15:32:16Z</time>
      </trkpt>
      <trkpt lat="40.98824" lon="-1.31113">
        <ele>853.333</ele>
        <time>2013-05-09T15:32:07Z</time>
      </trkpt>
      <trkpt lat="40.98844" lon="-1.31144">
        <ele>853.395</ele>
        <time>2013-05-09T15:31:57Z</time>
      </trkpt>
      <trkpt lat="40.98879" lon="-1.31172">
        <ele>851.93</ele>
        <time>2013-05-09T15:31:45Z</time>
      </trkpt>
      <trkpt lat="40.98927" lon="-1.31196">
        <ele>851.477</ele>
        <time>2013-05-09T15:31:32Z</time>
      </trkpt>
      <trkpt lat="40.98948" lon="-1.31231">
        <ele>851.464</ele>
        <time>2013-05-09T15:31:22Z</time>
      </trkpt>
      <trkpt lat="40.98965" lon="-1.31267">
        <ele>851.472</ele>
        <time>2013-05-09T15:31:13Z</time>
      </trkpt>
      <trkpt lat="40.98987" lon="-1.31299">
        <ele>851.475</ele>
        <time>2013-05-09T15:31:04Z</time>
      </trkpt>
      <trkpt lat="40.9902" lon="-1.31322">
        <ele>850.916</ele>
        <time>2013-05-09T15:30:54Z</time>
      </trkpt>
      <trkpt lat="40.99043" lon="-1.31353">
        <ele>850.476</ele>
        <time>2013-05-09T15:30:43Z</time>
      </trkpt>
      <trkpt lat="40.99064" lon="-1.31381">
        <ele>850.413</ele>
        <time>2013-05-09T15:30:33Z</time>
      </trkpt>
      <trkpt lat="40.9908" lon="-1.3141">
        <ele>850.408</ele>
        <time>2013-05-09T15:30:24Z</time>
      </trkpt>
      <trkpt lat="40.9909" lon="-1.31454">
        <ele>849.982</ele>
        <time>2013-05-09T15:30:14Z</time>
      </trkpt>
      <trkpt lat="40.99091" lon="-1.31499">
        <ele>849.513</ele>
        <time>2013-05-09T15:30:03Z</time>
      </trkpt>
      <trkpt lat="40.99088" lon="-1.31544">
        <ele>849.525</ele>
        <time>2013-05-09T15:29:52Z</time>
      </trkpt>
      <trkpt lat="40.99079" lon="-1.31596">
        <ele>849.06</ele>
        <time>2013-05-09T15:29:38Z</time>
      </trkpt>
      <trkpt lat="40.99084" lon="-1.31649">
        <ele>849.077</ele>
        <time>2013-05-09T15:29:25Z</time>
      </trkpt>
      <trkpt lat="40.99089" lon="-1.31681">
        <ele>849.054</ele>
        <time>2013-05-09T15:29:15Z</time>
      </trkpt>
      <trkpt lat="40.99095" lon="-1.31717">
        <ele>849.012</ele>
        <time>2013-05-09T15:29:07Z</time>
      </trkpt>
      <trkpt lat="40.9911" lon="-1.31754">
        <ele>849.015</ele>
        <time>2013-05-09T15:28:59Z</time>
      </trkpt>
      <trkpt lat="40.99113" lon="-1.31758">
        <ele>849.068</ele>
        <time>2013-05-09T15:28:58Z</time>
      </trkpt>
      <trkpt lat="40.99125" lon="-1.31774">
        <ele>849.042</ele>
        <time>2013-05-09T15:28:54Z</time>
      </trkpt>
      <trkpt lat="40.99158" lon="-1.31817">
        <ele>849.026</ele>
        <time>2013-05-09T15:28:43Z</time>
      </trkpt>
      <trkpt lat="40.99186" lon="-1.31855">
        <ele>849.008</ele>
        <time>2013-05-09T15:28:33Z</time>
      </trkpt>
      <trkpt lat="40.9922" lon="-1.31898">
        <ele>848.587</ele>
        <time>2013-05-09T15:28:21Z</time>
      </trkpt>
      <trkpt lat="40.99242" lon="-1.31928">
        <ele>848.548</ele>
        <time>2013-05-09T15:28:11Z</time>
      </trkpt>
      <trkpt lat="40.99267" lon="-1.31958">
        <ele>848.02</ele>
        <time>2013-05-09T15:27:59Z</time>
      </trkpt>
      <trkpt lat="40.99299" lon="-1.31997">
        <ele>848.035</ele>
        <time>2013-05-09T15:27:46Z</time>
      </trkpt>
      <trkpt lat="40.99331" lon="-1.32019">
        <ele>847.162</ele>
        <time>2013-05-09T15:27:34Z</time>
      </trkpt>
      <trkpt lat="40.99375" lon="-1.32033">
        <ele>847.149</ele>
        <time>2013-05-09T15:27:20Z</time>
      </trkpt>
      <trkpt lat="40.99404" lon="-1.32053">
        <ele>847.157</ele>
        <time>2013-05-09T15:27:10Z</time>
      </trkpt>
      <trkpt lat="40.99428" lon="-1.32099">
        <ele>847.19</ele>
        <time>2013-05-09T15:26:56Z</time>
      </trkpt>
      <trkpt lat="40.99445" lon="-1.32136">
        <ele>847.181</ele>
        <time>2013-05-09T15:26:46Z</time>
      </trkpt>
      <trkpt lat="40.99465" lon="-1.32159">
        <ele>847.161</ele>
        <time>2013-05-09T15:26:36Z</time>
      </trkpt>
      <trkpt lat="40.99472" lon="-1.32169">
        <ele>847.117</ele>
        <time>2013-05-09T15:26:21Z</time>
      </trkpt>
      <trkpt lat="40.99473" lon="-1.32172">
        <ele>847.108</ele>
        <time>2013-05-09T15:26:11Z</time>
      </trkpt>
      <trkpt lat="40.99478" lon="-1.32187">
        <ele>847.149</ele>
        <time>2013-05-09T15:26:00Z</time>
      </trkpt>
      <trkpt lat="40.99486" lon="-1.3221">
        <ele>847.14</ele>
        <time>2013-05-09T15:25:51Z</time>
      </trkpt>
      <trkpt lat="40.99487" lon="-1.32213">
        <ele>847.122</ele>
        <time>2013-05-09T15:25:50Z</time>
      </trkpt>
      <trkpt lat="40.99488" lon="-1.32216">
        <ele>847.167</ele>
        <time>2013-05-09T15:25:49Z</time>
      </trkpt>
      <trkpt lat="40.9949" lon="-1.3222">
        <ele>847.174</ele>
        <time>2013-05-09T15:25:48Z</time>
      </trkpt>
      <trkpt lat="40.99491" lon="-1.32224">
        <ele>847.121</ele>
        <time>2013-05-09T15:25:47Z</time>
      </trkpt>
      <trkpt lat="40.99493" lon="-1.32228">
        <ele>847.189</ele>
        <time>2013-05-09T15:25:46Z</time>
      </trkpt>
      <trkpt lat="40.99494" lon="-1.32231">
        <ele>847.142</ele>
        <time>2013-05-09T15:25:45Z</time>
      </trkpt>
      <trkpt lat="40.995" lon="-1.32253">
        <ele>846.674</ele>
        <time>2013-05-09T15:25:38Z</time>
      </trkpt>
      <trkpt lat="40.99524" lon="-1.32282">
        <ele>845.156</ele>
        <time>2013-05-09T15:25:27Z</time>
      </trkpt>
      <trkpt lat="40.99531" lon="-1.32289">
        <ele>845.121</ele>
        <time>2013-05-09T15:25:15Z</time>
      </trkpt>
      <trkpt lat="40.99532" lon="-1.32291">
        <ele>845.108</ele>
        <time>2013-05-09T15:24:58Z</time>
      </trkpt>
      <trkpt lat="40.99533" lon="-1.3229">
        <ele>845.188</ele>
        <time>2013-05-09T15:24:43Z</time>
      </trkpt>
      <trkpt lat="40.99533" lon="-1.32293">
        <ele>845.159</ele>
        <time>2013-05-09T15:24:15Z</time>
      </trkpt>
      <trkpt lat="40.99532" lon="-1.32292">
        <ele>845.131</ele>
        <time>2013-05-09T15:23:58Z</time>
      </trkpt>
      <trkpt lat="40.99537" lon="-1.32301">
        <ele>846.176</ele>
        <time>2013-05-09T15:23:51Z</time>
      </trkpt>
      <trkpt lat="40.99537" lon="-1.32311">
        <ele>847.513</ele>
        <time>2013-05-09T15:23:47Z</time>
      </trkpt>
      <trkpt lat="40.99537" lon="-1.32313">
        <ele>847.54</ele>
        <time>2013-05-09T15:23:46Z</time>
      </trkpt>
      <trkpt lat="40.99538" lon="-1.32315">
        <ele>847.578</ele>
        <time>2013-05-09T15:23:45Z</time>
      </trkpt>
      <trkpt lat="40.99555" lon="-1.32338">
        <ele>847.531</ele>
        <time>2013-05-09T15:23:33Z</time>
      </trkpt>
      <trkpt lat="40.99572" lon="-1.3236">
        <ele>847.576</ele>
        <time>2013-05-09T15:23:22Z</time>
      </trkpt>
      <trkpt lat="40.99589" lon="-1.32379">
        <ele>847.59</ele>
        <time>2013-05-09T15:23:12Z</time>
      </trkpt>
      <trkpt lat="40.9961" lon="-1.324">
        <ele>847.519</ele>
        <time>2013-05-09T15:23:00Z</time>
      </trkpt>
      <trkpt lat="40.99629" lon="-1.32421">
        <ele>847.108</ele>
        <time>2013-05-09T15:22:49Z</time>
      </trkpt>
      <trkpt lat="40.99654" lon="-1.32445">
        <ele>846.638</ele>
        <time>2013-05-09T15:22:36Z</time>
      </trkpt>
      <trkpt lat="40.99671" lon="-1.32465">
        <ele>846.679</ele>
        <time>2013-05-09T15:22:25Z</time>
      </trkpt>
      <trkpt lat="40.99694" lon="-1.32485">
        <ele>846.621</ele>
        <time>2013-05-09T15:22:14Z</time>
      </trkpt>
      <trkpt lat="40.99713" lon="-1.32504">
        <ele>846.656</ele>
        <time>2013-05-09T15:22:03Z</time>
      </trkpt>
      <trkpt lat="40.99735" lon="-1.32523">
        <ele>846.173</ele>
        <time>2013-05-09T15:21:52Z</time>
      </trkpt>
      <trkpt lat="40.99753" lon="-1.32539">
        <ele>846.12</ele>
        <time>2013-05-09T15:21:42Z</time>
      </trkpt>
      <trkpt lat="40.99772" lon="-1.32552">
        <ele>846.128</ele>
        <time>2013-05-09T15:21:33Z</time>
      </trkpt>
      <trkpt lat="40.99793" lon="-1.32569">
        <ele>845.631</ele>
        <time>2013-05-09T15:21:22Z</time>
      </trkpt>
      <trkpt lat="40.99821" lon="-1.32587">
        <ele>845.634</ele>
        <time>2013-05-09T15:21:08Z</time>
      </trkpt>
      <trkpt lat="40.9984" lon="-1.32598">
        <ele>845.655</ele>
        <time>2013-05-09T15:20:58Z</time>
      </trkpt>
      <trkpt lat="40.99852" lon="-1.32605">
        <ele>845.61</ele>
        <time>2013-05-09T15:20:49Z</time>
      </trkpt>
      <trkpt lat="40.99855" lon="-1.32607">
        <ele>845.608</ele>
        <time>2013-05-09T15:20:30Z</time>
      </trkpt>
      <trkpt lat="40.99854" lon="-1.32609">
        <ele>845.664</ele>
        <time>2013-05-09T15:20:02Z</time>
      </trkpt>
      <trkpt lat="40.99853" lon="-1.32608">
        <ele>845.655</ele>
        <time>2013-05-09T15:19:36Z</time>
      </trkpt>
      <trkpt lat="40.99856" lon="-1.32606">
        <ele>845.147</ele>
        <time>2013-05-09T15:19:16Z</time>
      </trkpt>
      <trkpt lat="40.99859" lon="-1.32606">
        <ele>844.792</ele>
        <time>2013-05-09T15:19:04Z</time>
      </trkpt>
      <trkpt lat="40.99861" lon="-1.32605">
        <ele>844.219</ele>
        <time>2013-05-09T15:19:03Z</time>
      </trkpt>
      <trkpt lat="40.99875" lon="-1.32606">
        <ele>843.266</ele>
        <time>2013-05-09T15:18:54Z</time>
      </trkpt>
      <trkpt lat="40.9992" lon="-1.32633">
        <ele>842.334</ele>
        <time>2013-05-09T15:18:39Z</time>
      </trkpt>
      <trkpt lat="40.99977" lon="-1.32667">
        <ele>842.357</ele>
        <time>2013-05-09T15:18:22Z</time>
      </trkpt>
      <trkpt lat="41.00022" lon="-1.32692">
        <ele>842.321</ele>
        <time>2013-05-09T15:18:08Z</time>
      </trkpt>
      <trkpt lat="41.00056" lon="-1.3271">
        <ele>841.841</ele>
        <time>2013-05-09T15:17:58Z</time>
      </trkpt>
      <trkpt lat="41.00098" lon="-1.32698">
        <ele>841.305</ele>
        <time>2013-05-09T15:17:47Z</time>
      </trkpt>
      <trkpt lat="41.0014" lon="-1.32675">
        <ele>841.308</ele>
        <time>2013-05-09T15:17:37Z</time>
      </trkpt>
      <trkpt lat="41.00185" lon="-1.32636">
        <ele>840.313</ele>
        <time>2013-05-09T15:17:23Z</time>
      </trkpt>
      <trkpt lat="41.00221" lon="-1.32625">
        <ele>840.384</ele>
        <time>2013-05-09T15:17:13Z</time>
      </trkpt>
      <trkpt lat="41.00229" lon="-1.32628">
        <ele>839.926</ele>
        <time>2013-05-09T15:17:11Z</time>
      </trkpt>
      <trkpt lat="41.00244" lon="-1.32637">
        <ele>839.941</ele>
        <time>2013-05-09T15:17:07Z</time>
      </trkpt>
      <trkpt lat="41.00285" lon="-1.32641">
        <ele>839.468</ele>
        <time>2013-05-09T15:16:56Z</time>
      </trkpt>
      <trkpt lat="41.00301" lon="-1.32647">
        <ele>839.425</ele>
        <time>2013-05-09T15:16:52Z</time>
      </trkpt>
      <trkpt lat="41.00312" lon="-1.32656">
        <ele>839.493</ele>
        <time>2013-05-09T15:16:49Z</time>
      </trkpt>
      <trkpt lat="41.0032" lon="-1.32674">
        <ele>839.416</ele>
        <time>2013-05-09T15:16:45Z</time>
      </trkpt>
      <trkpt lat="41.00325" lon="-1.32708">
        <ele>838.949</ele>
        <time>2013-05-09T15:16:38Z</time>
      </trkpt>
      <trkpt lat="41.00343" lon="-1.32745">
        <ele>837.902</ele>
        <time>2013-05-09T15:16:29Z</time>
      </trkpt>
      <trkpt lat="41.00382" lon="-1.32777">
        <ele>838.422</ele>
        <time>2013-05-09T15:16:18Z</time>
      </trkpt>
      <trkpt lat="41.00389" lon="-1.32781">
        <ele>838.408</ele>
        <time>2013-05-09T15:16:16Z</time>
      </trkpt>
      <trkpt lat="41.00404" lon="-1.32785">
        <ele>838.465</ele>
        <time>2013-05-09T15:16:12Z</time>
      </trkpt>
      <trkpt lat="41.0042" lon="-1.32783">
        <ele>838.466</ele>
        <time>2013-05-09T15:16:08Z</time>
      </trkpt>
      <trkpt lat="41.00441" lon="-1.32774">
        <ele>838.458</ele>
        <time>2013-05-09T15:16:02Z</time>
      </trkpt>
      <trkpt lat="41.00466" lon="-1.3277">
        <ele>838.413</ele>
        <time>2013-05-09T15:15:55Z</time>
      </trkpt>
      <trkpt lat="41.00518" lon="-1.32736">
        <ele>837.93</ele>
        <time>2013-05-09T15:15:39Z</time>
      </trkpt>
      <trkpt lat="41.00563" lon="-1.32739">
        <ele>837.517</ele>
        <time>2013-05-09T15:15:26Z</time>
      </trkpt>
      <trkpt lat="41.006" lon="-1.3277">
        <ele>837.555</ele>
        <time>2013-05-09T15:15:13Z</time>
      </trkpt>
      <trkpt lat="41.00617" lon="-1.32798">
        <ele>837.598</ele>
        <time>2013-05-09T15:15:02Z</time>
      </trkpt>
      <trkpt lat="41.00619" lon="-1.32805">
        <ele>837.586</ele>
        <time>2013-05-09T15:14:44Z</time>
      </trkpt>
      <trkpt lat="41.0062" lon="-1.32809">
        <ele>837.56</ele>
        <time>2013-05-09T15:14:13Z</time>
      </trkpt>
      <trkpt lat="41.0062" lon="-1.3281">
        <ele>837.026</ele>
        <time>2013-05-09T15:13:30Z</time>
      </trkpt>
      <trkpt lat="41.00621" lon="-1.3281">
        <ele>837.008</ele>
        <time>2013-05-09T15:13:07Z</time>
      </trkpt>
      <trkpt lat="41.00624" lon="-1.32822">
        <ele>837.019</ele>
        <time>2013-05-09T15:12:59Z</time>
      </trkpt>
      <trkpt lat="41.00625" lon="-1.32885">
        <ele>836.57</ele>
        <time>2013-05-09T15:12:46Z</time>
      </trkpt>
      <trkpt lat="41.00628" lon="-1.32908">
        <ele>836.512</ele>
        <time>2013-05-09T15:12:41Z</time>
      </trkpt>
      <trkpt lat="41.00643" lon="-1.32964">
        <ele>836.557</ele>
        <time>2013-05-09T15:12:30Z</time>
      </trkpt>
      <trkpt lat="41.00665" lon="-1.33041">
        <ele>836.544</ele>
        <time>2013-05-09T15:12:16Z</time>
      </trkpt>
      <trkpt lat="41.00688" lon="-1.33112">
        <ele>836.051</ele>
        <time>2013-05-09T15:12:01Z</time>
      </trkpt>
      <trkpt lat="41.00704" lon="-1.33163">
        <ele>835.029</ele>
        <time>2013-05-09T15:11:48Z</time>
      </trkpt>
      <trkpt lat="41.00725" lon="-1.33234">
        <ele>835.082</ele>
        <time>2013-05-09T15:11:33Z</time>
      </trkpt>
      <trkpt lat="41.00728" lon="-1.33249">
        <ele>835.017</ele>
        <time>2013-05-09T15:11:30Z</time>
      </trkpt>
      <trkpt lat="41.00734" lon="-1.33269">
        <ele>835.087</ele>
        <time>2013-05-09T15:11:26Z</time>
      </trkpt>
      <trkpt lat="41.00748" lon="-1.33289">
        <ele>835.015</ele>
        <time>2013-05-09T15:11:20Z</time>
      </trkpt>
      <trkpt lat="41.00777" lon="-1.3332">
        <ele>834.608</ele>
        <time>2013-05-09T15:11:09Z</time>
      </trkpt>
      <trkpt lat="41.0081" lon="-1.33353">
        <ele>834.182</ele>
        <time>2013-05-09T15:10:58Z</time>
      </trkpt>
      <trkpt lat="41.00848" lon="-1.33399">
        <ele>833.683</ele>
        <time>2013-05-09T15:10:43Z</time>
      </trkpt>
      <trkpt lat="41.00879" lon="-1.33434">
        <ele>833.615</ele>
        <time>2013-05-09T15:10:30Z</time>
      </trkpt>
      <trkpt lat="41.00905" lon="-1.33464">
        <ele>832.23</ele>
        <time>2013-05-09T15:10:19Z</time>
      </trkpt>
      <trkpt lat="41.00934" lon="-1.33484">
        <ele>832.287</ele>
        <time>2013-05-09T15:10:09Z</time>
      </trkpt>
      <trkpt lat="41.00949" lon="-1.33497">
        <ele>831.744</ele>
        <time>2013-05-09T15:09:16Z</time>
      </trkpt>
      <trkpt lat="41.00973" lon="-1.33487">
        <ele>831.752</ele>
        <time>2013-05-09T15:09:06Z</time>
      </trkpt>
      <trkpt lat="41.00988" lon="-1.33478">
        <ele>833.155</ele>
        <time>2013-05-09T15:09:01Z</time>
      </trkpt>
      <trkpt lat="41.01028" lon="-1.33476">
        <ele>833.172</ele>
        <time>2013-05-09T15:08:50Z</time>
      </trkpt>
      <trkpt lat="41.0106" lon="-1.33483">
        <ele>832.213</ele>
        <time>2013-05-09T15:08:39Z</time>
      </trkpt>
      <trkpt lat="41.01079" lon="-1.33501">
        <ele>831.714</ele>
        <time>2013-05-09T15:08:30Z</time>
      </trkpt>
      <trkpt lat="41.01098" lon="-1.33528">
        <ele>831.208</ele>
        <time>2013-05-09T15:08:21Z</time>
      </trkpt>
      <trkpt lat="41.01128" lon="-1.33565">
        <ele>830.778</ele>
        <time>2013-05-09T15:08:07Z</time>
      </trkpt>
      <trkpt lat="41.01158" lon="-1.33609">
        <ele>830.719</ele>
        <time>2013-05-09T15:07:52Z</time>
      </trkpt>
      <trkpt lat="41.01185" lon="-1.33624">
        <ele>830.791</ele>
        <time>2013-05-09T15:07:41Z</time>
      </trkpt>
      <trkpt lat="41.01213" lon="-1.33658">
        <ele>830.726</ele>
        <time>2013-05-09T15:07:28Z</time>
      </trkpt>
      <trkpt lat="41.01232" lon="-1.33682">
        <ele>829.823</ele>
        <time>2013-05-09T15:07:15Z</time>
      </trkpt>
      <trkpt lat="41.01239" lon="-1.33692">
        <ele>829.84</ele>
        <time>2013-05-09T15:07:09Z</time>
      </trkpt>
      <trkpt lat="41.01245" lon="-1.337">
        <ele>829.838</ele>
        <time>2013-05-09T15:07:05Z</time>
      </trkpt>
      <trkpt lat="41.01265" lon="-1.33743">
        <ele>829.311</ele>
        <time>2013-05-09T15:06:48Z</time>
      </trkpt>
      <trkpt lat="41.0128" lon="-1.33769">
        <ele>829.396</ele>
        <time>2013-05-09T15:06:37Z</time>
      </trkpt>
      <trkpt lat="41.01295" lon="-1.33791">
        <ele>829.331</ele>
        <time>2013-05-09T15:06:26Z</time>
      </trkpt>
      <trkpt lat="41.01302" lon="-1.33799">
        <ele>829.324</ele>
        <time>2013-05-09T15:06:19Z</time>
      </trkpt>
      <trkpt lat="41.01308" lon="-1.33807">
        <ele>829.308</ele>
        <time>2013-05-09T15:06:12Z</time>
      </trkpt>
      <trkpt lat="41.01321" lon="-1.33823">
        <ele>829.38</ele>
        <time>2013-05-09T15:06:02Z</time>
      </trkpt>
      <trkpt lat="41.01341" lon="-1.33846">
        <ele>829.371</ele>
        <time>2013-05-09T15:05:49Z</time>
      </trkpt>
      <trkpt lat="41.01363" lon="-1.33865">
        <ele>829.323</ele>
        <time>2013-05-09T15:05:37Z</time>
      </trkpt>
      <trkpt lat="41.01384" lon="-1.33883">
        <ele>829.328</ele>
        <time>2013-05-09T15:05:27Z</time>
      </trkpt>
      <trkpt lat="41.014" lon="-1.339">
        <ele>829.365</ele>
        <time>2013-05-09T15:05:16Z</time>
      </trkpt>
      <trkpt lat="41.01407" lon="-1.33904">
        <ele>829.322</ele>
        <time>2013-05-09T15:05:11Z</time>
      </trkpt>
      <trkpt lat="41.01413" lon="-1.33909">
        <ele>829.31</ele>
        <time>2013-05-09T15:04:57Z</time>
      </trkpt>
      <trkpt lat="41.01417" lon="-1.33911">
        <ele>829.343</ele>
        <time>2013-05-09T15:04:48Z</time>
      </trkpt>
      <trkpt lat="41.01429" lon="-1.33916">
        <ele>828.354</ele>
        <time>2013-05-09T15:04:37Z</time>
      </trkpt>
      <trkpt lat="41.01442" lon="-1.33913">
        <ele>827.856</ele>
        <time>2013-05-09T15:04:27Z</time>
      </trkpt>
      <trkpt lat="41.01454" lon="-1.33914">
        <ele>827.811</ele>
        <time>2013-05-09T15:04:17Z</time>
      </trkpt>
      <trkpt lat="41.01475" lon="-1.33913">
        <ele>827.808</ele>
        <time>2013-05-09T15:04:06Z</time>
      </trkpt>
      <trkpt lat="41.01503" lon="-1.33908">
        <ele>827.456</ele>
        <time>2013-05-09T15:03:54Z</time>
      </trkpt>
      <trkpt lat="41.01528" lon="-1.33909">
        <ele>826.987</ele>
        <time>2013-05-09T15:03:44Z</time>
      </trkpt>
      <trkpt lat="41.01554" lon="-1.33911">
        <ele>825.919</ele>
        <time>2013-05-09T15:03:33Z</time>
      </trkpt>
      <trkpt lat="41.01573" lon="-1.33917">
        <ele>825.914</ele>
        <time>2013-05-09T15:03:22Z</time>
      </trkpt>
      <trkpt lat="41.01577" lon="-1.33919">
        <ele>826.971</ele>
        <time>2013-05-09T15:03:00Z</time>
      </trkpt>
      <trkpt lat="41.0158" lon="-1.33919">
        <ele>826.938</ele>
        <time>2013-05-09T15:02:53Z</time>
      </trkpt>
      <trkpt lat="41.01607" lon="-1.33927">
        <ele>826.936</ele>
        <time>2013-05-09T15:02:39Z</time>
      </trkpt>
      <trkpt lat="41.01615" lon="-1.3393">
        <ele>826.969</ele>
        <time>2013-05-09T15:02:33Z</time>
      </trkpt>
      <trkpt lat="41.01617" lon="-1.3393">
        <ele>826.996</ele>
        <time>2013-05-09T15:02:32Z</time>
      </trkpt>
      <trkpt lat="41.01647" lon="-1.3394">
        <ele>826.931</ele>
        <time>2013-05-09T15:02:22Z</time>
      </trkpt>
      <trkpt lat="41.01676" lon="-1.33956">
        <ele>826.924</ele>
        <time>2013-05-09T15:02:11Z</time>
      </trkpt>
      <trkpt lat="41.01681" lon="-1.3396">
        <ele>826.408</ele>
        <time>2013-05-09T15:01:52Z</time>
      </trkpt>
      <trkpt lat="41.01689" lon="-1.33963">
        <ele>826.46</ele>
        <time>2013-05-09T15:01:44Z</time>
      </trkpt>
      <trkpt lat="41.01715" lon="-1.33985">
        <ele>826.411</ele>
        <time>2013-05-09T15:01:32Z</time>
      </trkpt>
      <trkpt lat="41.01746" lon="-1.34023">
        <ele>826.453</ele>
        <time>2013-05-09T15:01:18Z</time>
      </trkpt>
      <trkpt lat="41.01785" lon="-1.34082">
        <ele>826.418</ele>
        <time>2013-05-09T15:01:02Z</time>
      </trkpt>
      <trkpt lat="41.01814" lon="-1.34126">
        <ele>826.465</ele>
        <time>2013-05-09T15:00:50Z</time>
      </trkpt>
      <trkpt lat="41.01844" lon="-1.34165">
        <ele>826.452</ele>
        <time>2013-05-09T15:00:38Z</time>
      </trkpt>
      <trkpt lat="41.01869" lon="-1.34187">
        <ele>826.45</ele>
        <time>2013-05-09T15:00:03Z</time>
      </trkpt>
      <trkpt lat="41.01872" lon="-1.34195">
        <ele>826.473</ele>
        <time>2013-05-09T14:59:55Z</time>
      </trkpt>
      <trkpt lat="41.01895" lon="-1.34223">
        <ele>824.583</ele>
        <time>2013-05-09T14:59:44Z</time>
      </trkpt>
      <trkpt lat="41.01941" lon="-1.34272">
        <ele>824.525</ele>
        <time>2013-05-09T14:59:30Z</time>
      </trkpt>
      <trkpt lat="41.01949" lon="-1.34299">
        <ele>825.017</ele>
        <time>2013-05-09T14:59:25Z</time>
      </trkpt>
      <trkpt lat="41.01944" lon="-1.34319">
        <ele>825.408</ele>
        <time>2013-05-09T14:59:00Z</time>
      </trkpt>
      <trkpt lat="41.01949" lon="-1.34325">
        <ele>825.489</ele>
        <time>2013-05-09T14:58:52Z</time>
      </trkpt>
      <trkpt lat="41.01983" lon="-1.34358">
        <ele>825.48</ele>
        <time>2013-05-09T14:58:40Z</time>
      </trkpt>
      <trkpt lat="41.02027" lon="-1.34421">
        <ele>825.452</ele>
        <time>2013-05-09T14:58:26Z</time>
      </trkpt>
      <trkpt lat="41.02034" lon="-1.34431">
        <ele>825.417</ele>
        <time>2013-05-09T14:58:24Z</time>
      </trkpt>
      <trkpt lat="41.02061" lon="-1.34485">
        <ele>825.494</ele>
        <time>2013-05-09T14:58:14Z</time>
      </trkpt>
      <trkpt lat="41.02082" lon="-1.34535">
        <ele>825.991</ele>
        <time>2013-05-09T14:58:06Z</time>
      </trkpt>
      <trkpt lat="41.02091" lon="-1.34578">
        <ele>827.439</ele>
        <time>2013-05-09T14:58:00Z</time>
      </trkpt>
      <trkpt lat="41.0211" lon="-1.34624">
        <ele>828.382</ele>
        <time>2013-05-09T14:57:52Z</time>
      </trkpt>
      <trkpt lat="41.02127" lon="-1.34648">
        <ele>827.858</ele>
        <time>2013-05-09T14:57:46Z</time>
      </trkpt>
      <trkpt lat="41.02166" lon="-1.34687">
        <ele>827.452</ele>
        <time>2013-05-09T14:57:34Z</time>
      </trkpt>
      <trkpt lat="41.02183" lon="-1.34706">
        <ele>827.417</ele>
        <time>2013-05-09T14:57:28Z</time>
      </trkpt>
      <trkpt lat="41.02214" lon="-1.34714">
        <ele>826.908</ele>
        <time>2013-05-09T14:57:17Z</time>
      </trkpt>
      <trkpt lat="41.02244" lon="-1.34704">
        <ele>825.926</ele>
        <time>2013-05-09T14:57:06Z</time>
      </trkpt>
      <trkpt lat="41.02268" lon="-1.3471">
        <ele>825.947</ele>
        <time>2013-05-09T14:56:57Z</time>
      </trkpt>
      <trkpt lat="41.02295" lon="-1.34739">
        <ele>825.439</ele>
        <time>2013-05-09T14:56:46Z</time>
      </trkpt>
      <trkpt lat="41.02321" lon="-1.34772">
        <ele>825.424</ele>
        <time>2013-05-09T14:56:35Z</time>
      </trkpt>
      <trkpt lat="41.02333" lon="-1.34807">
        <ele>825.491</ele>
        <time>2013-05-09T14:56:24Z</time>
      </trkpt>
      <trkpt lat="41.02348" lon="-1.34846">
        <ele>825.418</ele>
        <time>2013-05-09T14:56:13Z</time>
      </trkpt>
      <trkpt lat="41.02355" lon="-1.3486">
        <ele>824.546</ele>
        <time>2013-05-09T14:56:06Z</time>
      </trkpt>
      <trkpt lat="41.0237" lon="-1.34855">
        <ele>823.549</ele>
        <time>2013-05-09T14:55:58Z</time>
      </trkpt>
      <trkpt lat="41.02385" lon="-1.34833">
        <ele>823.023</ele>
        <time>2013-05-09T14:55:46Z</time>
      </trkpt>
      <trkpt lat="41.02397" lon="-1.34814">
        <ele>822.683</ele>
        <time>2013-05-09T14:55:34Z</time>
      </trkpt>
      <trkpt lat="41.02398" lon="-1.3481">
        <ele>822.611</ele>
        <time>2013-05-09T14:55:26Z</time>
      </trkpt>
      <trkpt lat="41.024" lon="-1.34793">
        <ele>822.608</ele>
        <time>2013-05-09T14:55:15Z</time>
      </trkpt>
      <trkpt lat="41.02409" lon="-1.34766">
        <ele>821.153</ele>
        <time>2013-05-09T14:55:01Z</time>
      </trkpt>
      <trkpt lat="41.02414" lon="-1.3476">
        <ele>821.164</ele>
        <time>2013-05-09T14:54:55Z</time>
      </trkpt>
      <trkpt lat="41.02422" lon="-1.34759">
        <ele>821.196</ele>
        <time>2013-05-09T14:54:49Z</time>
      </trkpt>
      <trkpt lat="41.02426" lon="-1.3476">
        <ele>821.161</ele>
        <time>2013-05-09T14:54:45Z</time>
      </trkpt>
      <trkpt lat="41.02433" lon="-1.34763">
        <ele>821.148</ele>
        <time>2013-05-09T14:54:32Z</time>
      </trkpt>
      <trkpt lat="41.02437" lon="-1.34762">
        <ele>821.195</ele>
        <time>2013-05-09T14:54:19Z</time>
      </trkpt>
      <trkpt lat="41.02441" lon="-1.34761">
        <ele>821.163</ele>
        <time>2013-05-09T14:54:10Z</time>
      </trkpt>
      <trkpt lat="41.02446" lon="-1.34761">
        <ele>820.646</ele>
        <time>2013-05-09T14:53:55Z</time>
      </trkpt>
      <trkpt lat="41.02453" lon="-1.34767">
        <ele>820.151</ele>
        <time>2013-05-09T14:53:43Z</time>
      </trkpt>
      <trkpt lat="41.02455" lon="-1.34769">
        <ele>820.101</ele>
        <time>2013-05-09T14:53:42Z</time>
      </trkpt>
      <trkpt lat="41.02477" lon="-1.34797">
        <ele>820.111</ele>
        <time>2013-05-09T14:53:31Z</time>
      </trkpt>
      <trkpt lat="41.02488" lon="-1.34821">
        <ele>820.108</ele>
        <time>2013-05-09T14:53:22Z</time>
      </trkpt>
      <trkpt lat="41.02507" lon="-1.34843">
        <ele>819.796</ele>
        <time>2013-05-09T14:53:11Z</time>
      </trkpt>
      <trkpt lat="41.02549" lon="-1.34846">
        <ele>819.787</ele>
        <time>2013-05-09T14:52:57Z</time>
      </trkpt>
      <trkpt lat="41.02577" lon="-1.34857">
        <ele>819.769</ele>
        <time>2013-05-09T14:52:47Z</time>
      </trkpt>
      <trkpt lat="41.026" lon="-1.34879">
        <ele>819.254</ele>
        <time>2013-05-09T14:52:37Z</time>
      </trkpt>
      <trkpt lat="41.02624" lon="-1.34912">
        <ele>819.231</ele>
        <time>2013-05-09T14:52:26Z</time>
      </trkpt>
      <trkpt lat="41.02666" lon="-1.34937">
        <ele>818.718</ele>
        <time>2013-05-09T14:52:12Z</time>
      </trkpt>
      <trkpt lat="41.02695" lon="-1.34955">
        <ele>818.786</ele>
        <time>2013-05-09T14:52:01Z</time>
      </trkpt>
      <trkpt lat="41.02713" lon="-1.34971">
        <ele>818.719</ele>
        <time>2013-05-09T14:51:51Z</time>
      </trkpt>
      <trkpt lat="41.02724" lon="-1.34976">
        <ele>818.784</ele>
        <time>2013-05-09T14:51:44Z</time>
      </trkpt>
      <trkpt lat="41.02726" lon="-1.34976">
        <ele>818.707</ele>
        <time>2013-05-09T14:51:43Z</time>
      </trkpt>
      <trkpt lat="41.0274" lon="-1.34975">
        <ele>818.717</ele>
        <time>2013-05-09T14:51:32Z</time>
      </trkpt>
      <trkpt lat="41.02754" lon="-1.3496">
        <ele>818.708</ele>
        <time>2013-05-09T14:51:20Z</time>
      </trkpt>
      <trkpt lat="41.02769" lon="-1.34917">
        <ele>818.759</ele>
        <time>2013-05-09T14:51:05Z</time>
      </trkpt>
      <trkpt lat="41.0278" lon="-1.34902">
        <ele>818.71</ele>
        <time>2013-05-09T14:51:00Z</time>
      </trkpt>
      <trkpt lat="41.02813" lon="-1.34921">
        <ele>818.772</ele>
        <time>2013-05-09T14:50:51Z</time>
      </trkpt>
      <trkpt lat="41.02869" lon="-1.34955">
        <ele>817.387</ele>
        <time>2013-05-09T14:50:36Z</time>
      </trkpt>
      <trkpt lat="41.02922" lon="-1.3498">
        <ele>816.834</ele>
        <time>2013-05-09T14:50:22Z</time>
      </trkpt>
      <trkpt lat="41.02929" lon="-1.34984">
        <ele>816.881</ele>
        <time>2013-05-09T14:50:20Z</time>
      </trkpt>
      <trkpt lat="41.02939" lon="-1.34995">
        <ele>816.839</ele>
        <time>2013-05-09T14:50:17Z</time>
      </trkpt>
      <trkpt lat="41.02951" lon="-1.35012">
        <ele>816.842</ele>
        <time>2013-05-09T14:50:13Z</time>
      </trkpt>
      <trkpt lat="41.02967" lon="-1.35032">
        <ele>816.869</ele>
        <time>2013-05-09T14:50:08Z</time>
      </trkpt>
      <trkpt lat="41.02985" lon="-1.35049">
        <ele>816.304</ele>
        <time>2013-05-09T14:50:03Z</time>
      </trkpt>
      <trkpt lat="41.02998" lon="-1.35065">
        <ele>816.324</ele>
        <time>2013-05-09T14:49:59Z</time>
      </trkpt>
      <trkpt lat="41.03011" lon="-1.35077">
        <ele>816.308</ele>
        <time>2013-05-09T14:49:55Z</time>
      </trkpt>
      <trkpt lat="41.03023" lon="-1.3508">
        <ele>816.387</ele>
        <time>2013-05-09T14:49:52Z</time>
      </trkpt>
      <trkpt lat="41.03056" lon="-1.35082">
        <ele>816.358</ele>
        <time>2013-05-09T14:49:44Z</time>
      </trkpt>
      <trkpt lat="41.03081" lon="-1.35087">
        <ele>815.88</ele>
        <time>2013-05-09T14:49:38Z</time>
      </trkpt>
      <trkpt lat="41.03106" lon="-1.35097">
        <ele>815.815</ele>
        <time>2013-05-09T14:49:32Z</time>
      </trkpt>
      <trkpt lat="41.03125" lon="-1.35106">
        <ele>815.882</ele>
        <time>2013-05-09T14:49:27Z</time>
      </trkpt>
      <trkpt lat="41.03159" lon="-1.35121">
        <ele>815.819</ele>
        <time>2013-05-09T14:49:17Z</time>
      </trkpt>
      <trkpt lat="41.03191" lon="-1.35139">
        <ele>815.857</ele>
        <time>2013-05-09T14:49:06Z</time>
      </trkpt>
      <trkpt lat="41.03223" lon="-1.35153">
        <ele>815.82</ele>
        <time>2013-05-09T14:48:52Z</time>
      </trkpt>
      <trkpt lat="41.03246" lon="-1.35164">
        <ele>814.987</ele>
        <time>2013-05-09T14:48:41Z</time>
      </trkpt>
      <trkpt lat="41.03248" lon="-1.35168">
        <ele>814.942</ele>
        <time>2013-05-09T14:48:39Z</time>
      </trkpt>
      <trkpt lat="41.0325" lon="-1.35172">
        <ele>816.326</ele>
        <time>2013-05-09T14:48:37Z</time>
      </trkpt>
      <trkpt lat="41.03254" lon="-1.35176">
        <ele>815.808</ele>
        <time>2013-05-09T14:48:34Z</time>
      </trkpt>
      <trkpt lat="41.03276" lon="-1.35206">
        <ele>816.339</ele>
        <time>2013-05-09T14:48:24Z</time>
      </trkpt>
      <trkpt lat="41.03288" lon="-1.35223">
        <ele>816.38</ele>
        <time>2013-05-09T14:48:20Z</time>
      </trkpt>
      <trkpt lat="41.03294" lon="-1.3523">
        <ele>816.332</ele>
        <time>2013-05-09T14:48:18Z</time>
      </trkpt>
      <trkpt lat="41.03323" lon="-1.35278">
        <ele>816.367</ele>
        <time>2013-05-09T14:48:06Z</time>
      </trkpt>
      <trkpt lat="41.0333" lon="-1.35329">
        <ele>815.824</ele>
        <time>2013-05-09T14:47:55Z</time>
      </trkpt>
      <trkpt lat="41.03336" lon="-1.35361">
        <ele>816.361</ele>
        <time>2013-05-09T14:47:45Z</time>
      </trkpt>
      <trkpt lat="41.03338" lon="-1.35362">
        <ele>816.379</ele>
        <time>2013-05-09T14:47:38Z</time>
      </trkpt>
      <trkpt lat="41.03339" lon="-1.35364">
        <ele>816.342</ele>
        <time>2013-05-09T14:47:18Z</time>
      </trkpt>
      <trkpt lat="41.03345" lon="-1.35367">
        <ele>816.313</ele>
        <time>2013-05-09T14:47:10Z</time>
      </trkpt>
      <trkpt lat="41.03354" lon="-1.35364">
        <ele>816.343</ele>
        <time>2013-05-09T14:47:05Z</time>
      </trkpt>
      <trkpt lat="41.03373" lon="-1.35357">
        <ele>814.907</ele>
        <time>2013-05-09T14:46:58Z</time>
      </trkpt>
      <trkpt lat="41.03409" lon="-1.35318">
        <ele>814.908</ele>
        <time>2013-05-09T14:46:46Z</time>
      </trkpt>
      <trkpt lat="41.03436" lon="-1.35293">
        <ele>815.382</ele>
        <time>2013-05-09T14:46:38Z</time>
      </trkpt>
      <trkpt lat="41.03445" lon="-1.35295">
        <ele>815.343</ele>
        <time>2013-05-09T14:46:36Z</time>
      </trkpt>
      <trkpt lat="41.03468" lon="-1.35305">
        <ele>815.355</ele>
        <time>2013-05-09T14:46:31Z</time>
      </trkpt>
      <trkpt lat="41.03496" lon="-1.35303">
        <ele>815.84</ele>
        <time>2013-05-09T14:46:25Z</time>
      </trkpt>
      <trkpt lat="41.03512" lon="-1.35286">
        <ele>815.887</ele>
        <time>2013-05-09T14:46:21Z</time>
      </trkpt>
      <trkpt lat="41.03542" lon="-1.35264">
        <ele>816.864</ele>
        <time>2013-05-09T14:46:13Z</time>
      </trkpt>
      <trkpt lat="41.03561" lon="-1.35275">
        <ele>818.742</ele>
        <time>2013-05-09T14:46:07Z</time>
      </trkpt>
      <trkpt lat="41.03574" lon="-1.35283">
        <ele>818.795</ele>
        <time>2013-05-09T14:45:56Z</time>
      </trkpt>
      <trkpt lat="41.0358" lon="-1.35287">
        <ele>818.736</ele>
        <time>2013-05-09T14:45:50Z</time>
      </trkpt>
      <trkpt lat="41.03603" lon="-1.35303">
        <ele>817.317</ele>
        <time>2013-05-09T14:45:40Z</time>
      </trkpt>
      <trkpt lat="41.03636" lon="-1.35319">
        <ele>816.318</ele>
        <time>2013-05-09T14:45:30Z</time>
      </trkpt>
      <trkpt lat="41.03662" lon="-1.35349">
        <ele>816.308</ele>
        <time>2013-05-09T14:45:22Z</time>
      </trkpt>
      <trkpt lat="41.0367" lon="-1.35362">
        <ele>816.364</ele>
        <time>2013-05-09T14:45:19Z</time>
      </trkpt>
      <trkpt lat="41.03695" lon="-1.35396">
        <ele>816.365</ele>
        <time>2013-05-09T14:45:10Z</time>
      </trkpt>
      <trkpt lat="41.03698" lon="-1.35399">
        <ele>816.347</ele>
        <time>2013-05-09T14:45:09Z</time>
      </trkpt>
      <trkpt lat="41.03706" lon="-1.35405">
        <ele>816.322</ele>
        <time>2013-05-09T14:45:07Z</time>
      </trkpt>
      <trkpt lat="41.03722" lon="-1.35414">
        <ele>817.399</ele>
        <time>2013-05-09T14:45:03Z</time>
      </trkpt>
      <trkpt lat="41.03758" lon="-1.35437">
        <ele>817.386</ele>
        <time>2013-05-09T14:44:50Z</time>
      </trkpt>
      <trkpt lat="41.03782" lon="-1.35465">
        <ele>816.844</ele>
        <time>2013-05-09T14:44:38Z</time>
      </trkpt>
      <trkpt lat="41.03806" lon="-1.3549">
        <ele>815.387</ele>
        <time>2013-05-09T14:44:27Z</time>
      </trkpt>
      <trkpt lat="41.03822" lon="-1.3552">
        <ele>815.338</ele>
        <time>2013-05-09T14:44:16Z</time>
      </trkpt>
      <trkpt lat="41.03845" lon="-1.35546">
        <ele>815.37</ele>
        <time>2013-05-09T14:44:05Z</time>
      </trkpt>
      <trkpt lat="41.03866" lon="-1.3556">
        <ele>815.317</ele>
        <time>2013-05-09T14:43:54Z</time>
      </trkpt>
      <trkpt lat="41.03871" lon="-1.35563">
        <ele>815.308</ele>
        <time>2013-05-09T14:43:37Z</time>
      </trkpt>
      <trkpt lat="41.0387" lon="-1.35563">
        <ele>815.324</ele>
        <time>2013-05-09T14:43:10Z</time>
      </trkpt>
      <trkpt lat="41.0387" lon="-1.35567">
        <ele>815.355</ele>
        <time>2013-05-09T14:42:42Z</time>
      </trkpt>
      <trkpt lat="41.03869" lon="-1.3557">
        <ele>815.367</ele>
        <time>2013-05-09T14:42:18Z</time>
      </trkpt>
      <trkpt lat="41.03878" lon="-1.3558">
        <ele>815.372</ele>
        <time>2013-05-09T14:42:10Z</time>
      </trkpt>
      <trkpt lat="41.039" lon="-1.35599">
        <ele>815.379</ele>
        <time>2013-05-09T14:41:58Z</time>
      </trkpt>
      <trkpt lat="41.03924" lon="-1.35621">
        <ele>815.376</ele>
        <time>2013-05-09T14:41:45Z</time>
      </trkpt>
      <trkpt lat="41.0393" lon="-1.35626">
        <ele>815.364</ele>
        <time>2013-05-09T14:41:32Z</time>
      </trkpt>
      <trkpt lat="41.03931" lon="-1.35627">
        <ele>815.377</ele>
        <time>2013-05-09T14:41:12Z</time>
      </trkpt>
      <trkpt lat="41.03947" lon="-1.35639">
        <ele>815.361</ele>
        <time>2013-05-09T14:41:03Z</time>
      </trkpt>
      <trkpt lat="41.03976" lon="-1.35663">
        <ele>815.821</ele>
        <time>2013-05-09T14:40:51Z</time>
      </trkpt>
      <trkpt lat="41.03978" lon="-1.35665">
        <ele>815.813</ele>
        <time>2013-05-09T14:40:50Z</time>
      </trkpt>
      <trkpt lat="41.03981" lon="-1.35666">
        <ele>815.808</ele>
        <time>2013-05-09T14:40:49Z</time>
      </trkpt>
      <trkpt lat="41.03982" lon="-1.35669">
        <ele>815.857</ele>
        <time>2013-05-09T14:40:48Z</time>
      </trkpt>
      <trkpt lat="41.03984" lon="-1.35671">
        <ele>815.858</ele>
        <time>2013-05-09T14:40:47Z</time>
      </trkpt>
      <trkpt lat="41.03986" lon="-1.35673">
        <ele>815.82</ele>
        <time>2013-05-09T14:40:46Z</time>
      </trkpt>
      <trkpt lat="41.03987" lon="-1.35675">
        <ele>815.875</ele>
        <time>2013-05-09T14:40:45Z</time>
      </trkpt>
      <trkpt lat="41.0399" lon="-1.35676">
        <ele>815.882</ele>
        <time>2013-05-09T14:40:44Z</time>
      </trkpt>
      <trkpt lat="41.03992" lon="-1.35677">
        <ele>815.859</ele>
        <time>2013-05-09T14:40:43Z</time>
      </trkpt>
      <trkpt lat="41.03999" lon="-1.35678">
        <ele>816.317</ele>
        <time>2013-05-09T14:40:38Z</time>
      </trkpt>
      <trkpt lat="41.04" lon="-1.35678">
        <ele>816.36</ele>
        <time>2013-05-09T14:40:34Z</time>
      </trkpt>
      <trkpt lat="41.04003" lon="-1.35677">
        <ele>816.361</ele>
        <time>2013-05-09T14:40:16Z</time>
      </trkpt>
      <trkpt lat="41.04002" lon="-1.35677">
        <ele>816.321</ele>
        <time>2013-05-09T14:39:58Z</time>
      </trkpt>
      <trkpt lat="41.04001" lon="-1.35677">
        <ele>816.313</ele>
        <time>2013-05-09T14:39:49Z</time>
      </trkpt>
      <trkpt lat="41.03999" lon="-1.35678">
        <ele>816.308</ele>
        <time>2013-05-09T14:39:48Z</time>
      </trkpt>
      <trkpt lat="41.03998" lon="-1.35681">
        <ele>816.897</ele>
        <time>2013-05-09T14:39:47Z</time>
      </trkpt>
      <trkpt lat="41.03997" lon="-1.35684">
        <ele>816.818</ele>
        <time>2013-05-09T14:39:46Z</time>
      </trkpt>
      <trkpt lat="41.03997" lon="-1.35687">
        <ele>816.86</ele>
        <time>2013-05-09T14:39:45Z</time>
      </trkpt>
      <trkpt lat="41.03996" lon="-1.3569">
        <ele>816.885</ele>
        <time>2013-05-09T14:39:44Z</time>
      </trkpt>
      <trkpt lat="41.03996" lon="-1.35692">
        <ele>816.842</ele>
        <time>2013-05-09T14:39:43Z</time>
      </trkpt>
      <trkpt lat="41.03995" lon="-1.35693">
        <ele>816.889</ele>
        <time>2013-05-09T14:39:42Z</time>
      </trkpt>
      <trkpt lat="41.03996" lon="-1.35694">
        <ele>816.897</ele>
        <time>2013-05-09T14:39:41Z</time>
      </trkpt>
      <trkpt lat="41.03996" lon="-1.35697">
        <ele>816.87</ele>
        <time>2013-05-09T14:39:33Z</time>
      </trkpt>
      <trkpt lat="41.03997" lon="-1.35699">
        <ele>817.378</ele>
        <time>2013-05-09T14:39:26Z</time>
      </trkpt>
      <trkpt lat="41.04" lon="-1.357">
        <ele>817.333</ele>
        <time>2013-05-09T14:39:25Z</time>
      </trkpt>
      <trkpt lat="41.04002" lon="-1.35703">
        <ele>818.726</ele>
        <time>2013-05-09T14:39:24Z</time>
      </trkpt>
      <trkpt lat="41.04005" lon="-1.35707">
        <ele>818.708</ele>
        <time>2013-05-09T14:39:23Z</time>
      </trkpt>
      <trkpt lat="41.04007" lon="-1.3571">
        <ele>818.728</ele>
        <time>2013-05-09T14:39:22Z</time>
      </trkpt>
      <trkpt lat="41.04009" lon="-1.35713">
        <ele>818.789</ele>
        <time>2013-05-09T14:39:21Z</time>
      </trkpt>
      <trkpt lat="41.0401" lon="-1.35715">
        <ele>818.721</ele>
        <time>2013-05-09T14:39:20Z</time>
      </trkpt>
      <trkpt lat="41.04011" lon="-1.35717">
        <ele>818.776</ele>
        <time>2013-05-09T14:39:19Z</time>
      </trkpt>
      <trkpt lat="41.04012" lon="-1.35719">
        <ele>818.743</ele>
        <time>2013-05-09T14:39:18Z</time>
      </trkpt>
      <trkpt lat="41.04012" lon="-1.35722">
        <ele>818.27</ele>
        <time>2013-05-09T14:39:17Z</time>
      </trkpt>
      <trkpt lat="41.0401" lon="-1.35731">
        <ele>818.238</ele>
        <time>2013-05-09T14:39:14Z</time>
      </trkpt>
      <trkpt lat="41.03987" lon="-1.35765">
        <ele>817.351</ele>
        <time>2013-05-09T14:39:03Z</time>
      </trkpt>
      <trkpt lat="41.03971" lon="-1.35793">
        <ele>817.382</ele>
        <time>2013-05-09T14:38:54Z</time>
      </trkpt>
      <trkpt lat="41.03969" lon="-1.35796">
        <ele>817.343</ele>
        <time>2013-05-09T14:38:53Z</time>
      </trkpt>
      <trkpt lat="41.03967" lon="-1.35799">
        <ele>817.317</ele>
        <time>2013-05-09T14:38:52Z</time>
      </trkpt>
      <trkpt lat="41.03965" lon="-1.35802">
        <ele>816.808</ele>
        <time>2013-05-09T14:38:51Z</time>
      </trkpt>
      <trkpt lat="41.03963" lon="-1.35805">
        <ele>816.829</ele>
        <time>2013-05-09T14:38:50Z</time>
      </trkpt>
      <trkpt lat="41.03961" lon="-1.35807">
        <ele>816.84</ele>
        <time>2013-05-09T14:38:49Z</time>
      </trkpt>
      <trkpt lat="41.0396" lon="-1.3581">
        <ele>816.862</ele>
        <time>2013-05-09T14:38:48Z</time>
      </trkpt>
      <trkpt lat="41.03958" lon="-1.35813">
        <ele>816.817</ele>
        <time>2013-05-09T14:38:47Z</time>
      </trkpt>
      <trkpt lat="41.03957" lon="-1.35815">
        <ele>816.854</ele>
        <time>2013-05-09T14:38:46Z</time>
      </trkpt>
      <trkpt lat="41.03955" lon="-1.35817">
        <ele>816.841</ele>
        <time>2013-05-09T14:38:45Z</time>
      </trkpt>
      <trkpt lat="41.03954" lon="-1.35818">
        <ele>816.849</ele>
        <time>2013-05-09T14:38:44Z</time>
      </trkpt>
      <trkpt lat="41.03951" lon="-1.35822">
        <ele>816.892</ele>
        <time>2013-05-09T14:38:26Z</time>
      </trkpt>
      <trkpt lat="41.0395" lon="-1.35825">
        <ele>816.387</ele>
        <time>2013-05-09T14:38:16Z</time>
      </trkpt>
      <trkpt lat="41.0395" lon="-1.35827">
        <ele>816.342</ele>
        <time>2013-05-09T14:38:15Z</time>
      </trkpt>
      <trkpt lat="41.03935" lon="-1.35867">
        <ele>815.326</ele>
        <time>2013-05-09T14:38:03Z</time>
      </trkpt>
      <trkpt lat="41.03915" lon="-1.35916">
        <ele>814.908</ele>
        <time>2013-05-09T14:37:50Z</time>
      </trkpt>
      <trkpt lat="41.03896" lon="-1.35965">
        <ele>813.969</ele>
        <time>2013-05-09T14:37:37Z</time>
      </trkpt>
      <trkpt lat="41.03872" lon="-1.36019">
        <ele>813.48</ele>
        <time>2013-05-09T14:37:22Z</time>
      </trkpt>
      <trkpt lat="41.03845" lon="-1.36061">
        <ele>812.552</ele>
        <time>2013-05-09T14:37:08Z</time>
      </trkpt>
      <trkpt lat="41.03818" lon="-1.36104">
        <ele>812.537</ele>
        <time>2013-05-09T14:36:54Z</time>
      </trkpt>
      <trkpt lat="41.03809" lon="-1.36131">
        <ele>812.574</ele>
        <time>2013-05-09T14:36:46Z</time>
      </trkpt>
      <trkpt lat="41.03804" lon="-1.36169">
        <ele>812.541</ele>
        <time>2013-05-09T14:36:35Z</time>
      </trkpt>
      <trkpt lat="41.03801" lon="-1.36176">
        <ele>812.539</ele>
        <time>2013-05-09T14:36:08Z</time>
      </trkpt>
      <trkpt lat="41.03798" lon="-1.3618">
        <ele>812.592</ele>
        <time>2013-05-09T14:35:59Z</time>
      </trkpt>
      <trkpt lat="41.03775" lon="-1.36211">
        <ele>811.555</ele>
        <time>2013-05-09T14:35:48Z</time>
      </trkpt>
      <trkpt lat="41.03739" lon="-1.36242">
        <ele>812.907</ele>
        <time>2013-05-09T14:35:36Z</time>
      </trkpt>
      <trkpt lat="41.03716" lon="-1.3626">
        <ele>812.917</ele>
        <time>2013-05-09T14:35:24Z</time>
      </trkpt>
      <trkpt lat="41.03715" lon="-1.3626">
        <ele>812.908</ele>
        <time>2013-05-09T14:35:04Z</time>
      </trkpt>
      <trkpt lat="41.03715" lon="-1.36262">
        <ele>811.516</ele>
        <time>2013-05-09T14:34:37Z</time>
      </trkpt>
      <trkpt lat="41.03713" lon="-1.36263">
        <ele>811.557</ele>
        <time>2013-05-09T14:34:12Z</time>
      </trkpt>
      <trkpt lat="41.03715" lon="-1.36261">
        <ele>811.559</ele>
        <time>2013-05-09T14:33:20Z</time>
      </trkpt>
      <trkpt lat="41.03714" lon="-1.36261">
        <ele>811.554</ele>
        <time>2013-05-09T14:32:57Z</time>
      </trkpt>
      <trkpt lat="41.03713" lon="-1.36262">
        <ele>811.591</ele>
        <time>2013-05-09T14:32:39Z</time>
      </trkpt>
      <trkpt lat="41.03715" lon="-1.36261">
        <ele>811.568</ele>
        <time>2013-05-09T14:32:11Z</time>
      </trkpt>
      <trkpt lat="41.03708" lon="-1.36269">
        <ele>812.076</ele>
        <time>2013-05-09T14:32:02Z</time>
      </trkpt>
      <trkpt lat="41.03687" lon="-1.363">
        <ele>811.539</ele>
        <time>2013-05-09T14:31:50Z</time>
      </trkpt>
      <trkpt lat="41.03664" lon="-1.36324">
        <ele>812.922</ele>
        <time>2013-05-09T14:31:40Z</time>
      </trkpt>
      <trkpt lat="41.03637" lon="-1.36348">
        <ele>812.962</ele>
        <time>2013-05-09T14:31:29Z</time>
      </trkpt>
      <trkpt lat="41.03608" lon="-1.36371">
        <ele>812.908</ele>
        <time>2013-05-09T14:31:17Z</time>
      </trkpt>
      <trkpt lat="41.03604" lon="-1.36387">
        <ele>812.908</ele>
        <time>2013-05-09T14:31:10Z</time>
      </trkpt>
      <trkpt lat="41.03608" lon="-1.36392">
        <ele>812.063</ele>
        <time>2013-05-09T14:31:07Z</time>
      </trkpt>
      <trkpt lat="41.03637" lon="-1.36421">
        <ele>810.524</ele>
        <time>2013-05-09T14:30:54Z</time>
      </trkpt>
      <trkpt lat="41.03676" lon="-1.36458">
        <ele>809.626</ele>
        <time>2013-05-09T14:30:40Z</time>
      </trkpt>
      <trkpt lat="41.03721" lon="-1.36489">
        <ele>807.671</ele>
        <time>2013-05-09T14:30:26Z</time>
      </trkpt>
      <trkpt lat="41.03743" lon="-1.36535">
        <ele>807.688</ele>
        <time>2013-05-09T14:30:17Z</time>
      </trkpt>
      <trkpt lat="41.03741" lon="-1.3656">
        <ele>807.615</ele>
        <time>2013-05-09T14:30:13Z</time>
      </trkpt>
      <trkpt lat="41.03739" lon="-1.36565">
        <ele>807.693</ele>
        <time>2013-05-09T14:30:12Z</time>
      </trkpt>
      <trkpt lat="41.03716" lon="-1.36633">
        <ele>807.696</ele>
        <time>2013-05-09T14:30:00Z</time>
      </trkpt>
      <trkpt lat="41.03714" lon="-1.36639">
        <ele>807.671</ele>
        <time>2013-05-09T14:29:59Z</time>
      </trkpt>
      <trkpt lat="41.03718" lon="-1.36673">
        <ele>809.141</ele>
        <time>2013-05-09T14:29:54Z</time>
      </trkpt>
      <trkpt lat="41.03729" lon="-1.36691">
        <ele>809.115</ele>
        <time>2013-05-09T14:29:50Z</time>
      </trkpt>
      <trkpt lat="41.03736" lon="-1.36714">
        <ele>808.108</ele>
        <time>2013-05-09T14:29:46Z</time>
      </trkpt>
      <trkpt lat="41.03762" lon="-1.36772">
        <ele>808.148</ele>
        <time>2013-05-09T14:29:34Z</time>
      </trkpt>
      <trkpt lat="41.0377" lon="-1.36783">
        <ele>807.299</ele>
        <time>2013-05-09T14:29:31Z</time>
      </trkpt>
      <trkpt lat="41.03811" lon="-1.36813">
        <ele>807.261</ele>
        <time>2013-05-09T14:29:20Z</time>
      </trkpt>
      <trkpt lat="41.03833" lon="-1.36817">
        <ele>807.296</ele>
        <time>2013-05-09T14:29:16Z</time>
      </trkpt>
      <trkpt lat="41.03844" lon="-1.36815">
        <ele>807.693</ele>
        <time>2013-05-09T14:29:14Z</time>
      </trkpt>
      <trkpt lat="41.03863" lon="-1.36817">
        <ele>807.62</ele>
        <time>2013-05-09T14:29:10Z</time>
      </trkpt>
      <trkpt lat="41.03871" lon="-1.3682">
        <ele>807.618</ele>
        <time>2013-05-09T14:29:08Z</time>
      </trkpt>
      <trkpt lat="41.03882" lon="-1.36828">
        <ele>807.651</ele>
        <time>2013-05-09T14:29:05Z</time>
      </trkpt>
      <trkpt lat="41.03897" lon="-1.36839">
        <ele>808.662</ele>
        <time>2013-05-09T14:29:01Z</time>
      </trkpt>
      <trkpt lat="41.03926" lon="-1.36866">
        <ele>807.683</ele>
        <time>2013-05-09T14:28:51Z</time>
      </trkpt>
      <trkpt lat="41.03957" lon="-1.36939">
        <ele>806.711</ele>
        <time>2013-05-09T14:28:36Z</time>
      </trkpt>
      <trkpt lat="41.03963" lon="-1.36996">
        <ele>805.208</ele>
        <time>2013-05-09T14:28:26Z</time>
      </trkpt>
      <trkpt lat="41.03967" lon="-1.37007">
        <ele>805.247</ele>
        <time>2013-05-09T14:28:24Z</time>
      </trkpt>
      <trkpt lat="41.04005" lon="-1.37065">
        <ele>805.258</ele>
        <time>2013-05-09T14:28:11Z</time>
      </trkpt>
      <trkpt lat="41.04019" lon="-1.37075">
        <ele>805.28</ele>
        <time>2013-05-09T14:28:08Z</time>
      </trkpt>
      <trkpt lat="41.04028" lon="-1.37079">
        <ele>805.295</ele>
        <time>2013-05-09T14:28:06Z</time>
      </trkpt>
      <trkpt lat="41.04073" lon="-1.37094">
        <ele>807.272</ele>
        <time>2013-05-09T14:27:55Z</time>
      </trkpt>
      <trkpt lat="41.04082" lon="-1.37102">
        <ele>806.779</ele>
        <time>2013-05-09T14:27:52Z</time>
      </trkpt>
      <trkpt lat="41.04123" lon="-1.37147">
        <ele>804.867</ele>
        <time>2013-05-09T14:27:39Z</time>
      </trkpt>
      <trkpt lat="41.04166" lon="-1.37198">
        <ele>804.81</ele>
        <time>2013-05-09T14:27:26Z</time>
      </trkpt>
      <trkpt lat="41.04188" lon="-1.37258">
        <ele>805.272</ele>
        <time>2013-05-09T14:27:16Z</time>
      </trkpt>
      <trkpt lat="41.04195" lon="-1.37269">
        <ele>805.213</ele>
        <time>2013-05-09T14:27:14Z</time>
      </trkpt>
      <trkpt lat="41.04236" lon="-1.37319">
        <ele>805.714</ele>
        <time>2013-05-09T14:27:03Z</time>
      </trkpt>
      <trkpt lat="41.04254" lon="-1.37328">
        <ele>805.708</ele>
        <time>2013-05-09T14:26:59Z</time>
      </trkpt>
      <trkpt lat="41.04275" lon="-1.37329">
        <ele>806.218</ele>
        <time>2013-05-09T14:26:55Z</time>
      </trkpt>
      <trkpt lat="41.04303" lon="-1.37338">
        <ele>807.639</ele>
        <time>2013-05-09T14:26:49Z</time>
      </trkpt>
      <trkpt lat="41.04329" lon="-1.37351">
        <ele>807.251</ele>
        <time>2013-05-09T14:26:39Z</time>
      </trkpt>
      <trkpt lat="41.04359" lon="-1.37365">
        <ele>806.296</ele>
        <time>2013-05-09T14:26:28Z</time>
      </trkpt>
      <trkpt lat="41.04389" lon="-1.37383">
        <ele>805.273</ele>
        <time>2013-05-09T14:26:16Z</time>
      </trkpt>
      <trkpt lat="41.04419" lon="-1.37411">
        <ele>803.82</ele>
        <time>2013-05-09T14:26:05Z</time>
      </trkpt>
      <trkpt lat="41.04453" lon="-1.37446">
        <ele>803.848</ele>
        <time>2013-05-09T14:25:54Z</time>
      </trkpt>
      <trkpt lat="41.04469" lon="-1.37451">
        <ele>803.811</ele>
        <time>2013-05-09T14:25:50Z</time>
      </trkpt>
      <trkpt lat="41.04473" lon="-1.37451">
        <ele>803.831</ele>
        <time>2013-05-09T14:25:49Z</time>
      </trkpt>
      <trkpt lat="41.04493" lon="-1.37452">
        <ele>804.861</ele>
        <time>2013-05-09T14:25:44Z</time>
      </trkpt>
      <trkpt lat="41.04502" lon="-1.37449">
        <ele>803.307</ele>
        <time>2013-05-09T14:25:41Z</time>
      </trkpt>
      <trkpt lat="41.0454" lon="-1.37469">
        <ele>803.308</ele>
        <time>2013-05-09T14:25:30Z</time>
      </trkpt>
      <trkpt lat="41.04586" lon="-1.37481">
        <ele>803.374</ele>
        <time>2013-05-09T14:25:18Z</time>
      </trkpt>
      <trkpt lat="41.04624" lon="-1.37485">
        <ele>804.385</ele>
        <time>2013-05-09T14:25:07Z</time>
      </trkpt>
      <trkpt lat="41.04635" lon="-1.37494">
        <ele>804.897</ele>
        <time>2013-05-09T14:25:03Z</time>
      </trkpt>
      <trkpt lat="41.04635" lon="-1.37497">
        <ele>804.812</ele>
        <time>2013-05-09T14:25:02Z</time>
      </trkpt>
      <trkpt lat="41.04625" lon="-1.37536">
        <ele>806.229</ele>
        <time>2013-05-09T14:24:54Z</time>
      </trkpt>
      <trkpt lat="41.0462" lon="-1.3756">
        <ele>806.736</ele>
        <time>2013-05-09T14:24:50Z</time>
      </trkpt>
      <trkpt lat="41.04611" lon="-1.37583">
        <ele>807.664</ele>
        <time>2013-05-09T14:24:46Z</time>
      </trkpt>
      <trkpt lat="41.0461" lon="-1.37589">
        <ele>808.687</ele>
        <time>2013-05-09T14:24:45Z</time>
      </trkpt>
      <trkpt lat="41.04603" lon="-1.37616">
        <ele>810.547</ele>
        <time>2013-05-09T14:24:41Z</time>
      </trkpt>
      <trkpt lat="41.04599" lon="-1.37642">
        <ele>812.529</ele>
        <time>2013-05-09T14:24:37Z</time>
      </trkpt>
      <trkpt lat="41.04599" lon="-1.3765">
        <ele>812.921</ele>
        <time>2013-05-09T14:24:36Z</time>
      </trkpt>
      <trkpt lat="41.04597" lon="-1.37706">
        <ele>816.308</ele>
        <time>2013-05-09T14:24:30Z</time>
      </trkpt>
      <trkpt lat="41.04594" lon="-1.37752">
        <ele>820.155</ele>
        <time>2013-05-09T14:24:25Z</time>
      </trkpt>
      <trkpt lat="41.04586" lon="-1.378">
        <ele>823.556</ele>
        <time>2013-05-09T14:24:20Z</time>
      </trkpt>
      <trkpt lat="41.04584" lon="-1.3781">
        <ele>823.558</ele>
        <time>2013-05-09T14:24:19Z</time>
      </trkpt>
      <trkpt lat="41.04569" lon="-1.37857">
        <ele>826.963</ele>
        <time>2013-05-09T14:24:14Z</time>
      </trkpt>
      <trkpt lat="41.04559" lon="-1.37895">
        <ele>830.27</ele>
        <time>2013-05-09T14:24:07Z</time>
      </trkpt>
      <trkpt lat="41.04566" lon="-1.37902">
        <ele>831.797</ele>
        <time>2013-05-09T14:24:03Z</time>
      </trkpt>
      <trkpt lat="41.04585" lon="-1.37889">
        <ele>833.685</ele>
        <time>2013-05-09T14:23:56Z</time>
      </trkpt>
      <trkpt lat="41.04587" lon="-1.37885">
        <ele>835.068</ele>
        <time>2013-05-09T14:23:40Z</time>
      </trkpt>
      <trkpt lat="41.04588" lon="-1.37885">
        <ele>835.095</ele>
        <time>2013-05-09T14:23:09Z</time>
      </trkpt>
      <trkpt lat="41.04589" lon="-1.37885">
        <ele>835.049</ele>
        <time>2013-05-09T14:22:44Z</time>
      </trkpt>
      <trkpt lat="41.0459" lon="-1.37885">
        <ele>835.023</ele>
        <time>2013-05-09T14:22:23Z</time>
      </trkpt>
      <trkpt lat="41.0459" lon="-1.37886">
        <ele>834.108</ele>
        <time>2013-05-09T14:22:07Z</time>
      </trkpt>
      <trkpt lat="41.0459" lon="-1.37887">
        <ele>835.07</ele>
        <time>2013-05-09T14:21:39Z</time>
      </trkpt>
      <trkpt lat="41.0459" lon="-1.37886">
        <ele>836.051</ele>
        <time>2013-05-09T14:21:11Z</time>
      </trkpt>
      <trkpt lat="41.0459" lon="-1.37885">
        <ele>837.073</ele>
        <time>2013-05-09T14:20:44Z</time>
      </trkpt>
      <trkpt lat="41.0459" lon="-1.37885">
        <ele>834.688</ele>
        <time>2013-05-09T14:20:10Z</time>
      </trkpt>
      <trkpt lat="41.04592" lon="-1.37885">
        <ele>834.655</ele>
        <time>2013-05-09T14:19:51Z</time>
      </trkpt>
      <trkpt lat="41.04591" lon="-1.37885">
        <ele>836.052</ele>
        <time>2013-05-09T14:19:35Z</time>
      </trkpt>
      <trkpt lat="41.04601" lon="-1.37876">
        <ele>835.51</ele>
        <time>2013-05-09T14:19:26Z</time>
      </trkpt>
      <trkpt lat="41.04621" lon="-1.37862">
        <ele>835.013</ele>
        <time>2013-05-09T14:19:14Z</time>
      </trkpt>
      <trkpt lat="41.04635" lon="-1.37838">
        <ele>833.162</ele>
        <time>2013-05-09T14:19:00Z</time>
      </trkpt>
      <trkpt lat="41.04642" lon="-1.37814">
        <ele>831.783</ele>
        <time>2013-05-09T14:18:47Z</time>
      </trkpt>
      <trkpt lat="41.04657" lon="-1.37794">
        <ele>829.311</ele>
        <time>2013-05-09T14:18:33Z</time>
      </trkpt>
      <trkpt lat="41.04666" lon="-1.37787">
        <ele>828.808</ele>
        <time>2013-05-09T14:18:26Z</time>
      </trkpt>
      <trkpt lat="41.04684" lon="-1.37781">
        <ele>827.857</ele>
        <time>2013-05-09T14:18:14Z</time>
      </trkpt>
      <trkpt lat="41.04703" lon="-1.37783">
        <ele>825.438</ele>
        <time>2013-05-09T14:17:59Z</time>
      </trkpt>
      <trkpt lat="41.04706" lon="-1.37783">
        <ele>825.47</ele>
        <time>2013-05-09T14:17:57Z</time>
      </trkpt>
      <trkpt lat="41.04714" lon="-1.37798">
        <ele>825.065</ele>
        <time>2013-05-09T14:17:46Z</time>
      </trkpt>
      <trkpt lat="41.04712" lon="-1.37805">
        <ele>824.532</ele>
        <time>2013-05-09T14:17:42Z</time>
      </trkpt>
      <trkpt lat="41.0471" lon="-1.37807">
        <ele>824.559</ele>
        <time>2013-05-09T14:17:40Z</time>
      </trkpt>
      <trkpt lat="41.04699" lon="-1.37829">
        <ele>822.657</ele>
        <time>2013-05-09T14:17:23Z</time>
      </trkpt>
      <trkpt lat="41.04698" lon="-1.37833">
        <ele>822.68</ele>
        <time>2013-05-09T14:17:20Z</time>
      </trkpt>
      <trkpt lat="41.04696" lon="-1.37852">
        <ele>820.194</ele>
        <time>2013-05-09T14:17:06Z</time>
      </trkpt>
      <trkpt lat="41.04696" lon="-1.37871">
        <ele>816.857</ele>
        <time>2013-05-09T14:16:53Z</time>
      </trkpt>
      <trkpt lat="41.04696" lon="-1.37883">
        <ele>815.822</ele>
        <time>2013-05-09T14:16:45Z</time>
      </trkpt>
      <trkpt lat="41.04706" lon="-1.37898">
        <ele>815.308</ele>
        <time>2013-05-09T14:16:35Z</time>
      </trkpt>
      <trkpt lat="41.04708" lon="-1.379">
        <ele>815.32</ele>
        <time>2013-05-09T14:16:22Z</time>
      </trkpt>
      <trkpt lat="41.04708" lon="-1.37899">
        <ele>814.971</ele>
        <time>2013-05-09T14:15:10Z</time>
      </trkpt>
      <trkpt lat="41.04707" lon="-1.37899">
        <ele>814.473</ele>
        <time>2013-05-09T14:14:58Z</time>
      </trkpt>
      <trkpt lat="41.04725" lon="-1.37895">
        <ele>814.488</ele>
        <time>2013-05-09T14:14:47Z</time>
      </trkpt>
      <trkpt lat="41.04749" lon="-1.37888">
        <ele>813.935</ele>
        <time>2013-05-09T14:14:34Z</time>
      </trkpt>
      <trkpt lat="41.04767" lon="-1.3789">
        <ele>813.432</ele>
        <time>2013-05-09T14:14:24Z</time>
      </trkpt>
      <trkpt lat="41.04786" lon="-1.37884">
        <ele>812.53</ele>
        <time>2013-05-09T14:14:12Z</time>
      </trkpt>
      <trkpt lat="41.04812" lon="-1.37866">
        <ele>812.553</ele>
        <time>2013-05-09T14:13:58Z</time>
      </trkpt>
      <trkpt lat="41.04845" lon="-1.37876">
        <ele>811.533</ele>
        <time>2013-05-09T14:13:42Z</time>
      </trkpt>
      <trkpt lat="41.04874" lon="-1.37883">
        <ele>810.123</ele>
        <time>2013-05-09T14:13:28Z</time>
      </trkpt>
      <trkpt lat="41.04903" lon="-1.37878">
        <ele>810.115</ele>
        <time>2013-05-09T14:13:14Z</time>
      </trkpt>
      <trkpt lat="41.04945" lon="-1.37868">
        <ele>808.608</ele>
        <time>2013-05-09T14:12:55Z</time>
      </trkpt>
      <trkpt lat="41.04975" lon="-1.37867">
        <ele>808.144</ele>
        <time>2013-05-09T14:12:41Z</time>
      </trkpt>
      <trkpt lat="41.05006" lon="-1.37862">
        <ele>807.285</ele>
        <time>2013-05-09T14:12:26Z</time>
      </trkpt>
      <trkpt lat="41.05027" lon="-1.37857">
        <ele>806.227</ele>
        <time>2013-05-09T14:12:15Z</time>
      </trkpt>
      <trkpt lat="41.05049" lon="-1.37849">
        <ele>805.742</ele>
        <time>2013-05-09T14:12:04Z</time>
      </trkpt>
      <trkpt lat="41.05079" lon="-1.37839">
        <ele>805.289</ele>
        <time>2013-05-09T14:11:49Z</time>
      </trkpt>
      <trkpt lat="41.05098" lon="-1.37841">
        <ele>804.826</ele>
        <time>2013-05-09T14:11:42Z</time>
      </trkpt>
      <trkpt lat="41.05114" lon="-1.37879">
        <ele>804.854</ele>
        <time>2013-05-09T14:11:33Z</time>
      </trkpt>
      <trkpt lat="41.05119" lon="-1.37888">
        <ele>804.897</ele>
        <time>2013-05-09T14:11:31Z</time>
      </trkpt>
      <trkpt lat="41.05138" lon="-1.3791">
        <ele>804.362</ele>
        <time>2013-05-09T14:11:25Z</time>
      </trkpt>
      <trkpt lat="41.05153" lon="-1.37922">
        <ele>802.883</ele>
        <time>2013-05-09T14:11:21Z</time>
      </trkpt>
      <trkpt lat="41.05183" lon="-1.37932">
        <ele>802.811</ele>
        <time>2013-05-09T14:11:14Z</time>
      </trkpt>
      <trkpt lat="41.05204" lon="-1.37946">
        <ele>802.808</ele>
        <time>2013-05-09T14:11:09Z</time>
      </trkpt>
      <trkpt lat="41.05232" lon="-1.37974">
        <ele>803.397</ele>
        <time>2013-05-09T14:11:02Z</time>
      </trkpt>
      <trkpt lat="41.05269" lon="-1.3801">
        <ele>803.828</ele>
        <time>2013-05-09T14:10:53Z</time>
      </trkpt>
      <trkpt lat="41.05293" lon="-1.38028">
        <ele>803.89</ele>
        <time>2013-05-09T14:10:47Z</time>
      </trkpt>
      <trkpt lat="41.05342" lon="-1.38062">
        <ele>803.865</ele>
        <time>2013-05-09T14:10:35Z</time>
      </trkpt>
      <trkpt lat="41.05366" lon="-1.38098">
        <ele>803.892</ele>
        <time>2013-05-09T14:10:27Z</time>
      </trkpt>
      <trkpt lat="41.05386" lon="-1.38129">
        <ele>803.859</ele>
        <time>2013-05-09T14:10:20Z</time>
      </trkpt>
      <trkpt lat="41.05418" lon="-1.38149">
        <ele>804.897</ele>
        <time>2013-05-09T14:10:10Z</time>
      </trkpt>
      <trkpt lat="41.05465" lon="-1.38166">
        <ele>801.99</ele>
        <time>2013-05-09T14:09:58Z</time>
      </trkpt>
      <trkpt lat="41.05526" lon="-1.38209">
        <ele>801.996</ele>
        <time>2013-05-09T14:09:44Z</time>
      </trkpt>
      <trkpt lat="41.05596" lon="-1.38258">
        <ele>801.931</ele>
        <time>2013-05-09T14:09:28Z</time>
      </trkpt>
      <trkpt lat="41.05615" lon="-1.38284">
        <ele>801.924</ele>
        <time>2013-05-09T14:09:22Z</time>
      </trkpt>
      <trkpt lat="41.05622" lon="-1.38293">
        <ele>801.908</ele>
        <time>2013-05-09T14:09:20Z</time>
      </trkpt>
      <trkpt lat="41.05635" lon="-1.38306">
        <ele>803.38</ele>
        <time>2013-05-09T14:09:17Z</time>
      </trkpt>
      <trkpt lat="41.05673" lon="-1.38339">
        <ele>802.861</ele>
        <time>2013-05-09T14:09:07Z</time>
      </trkpt>
      <trkpt lat="41.05703" lon="-1.38379">
        <ele>802.883</ele>
        <time>2013-05-09T14:08:57Z</time>
      </trkpt>
      <trkpt lat="41.05727" lon="-1.38397">
        <ele>802.448</ele>
        <time>2013-05-09T14:08:51Z</time>
      </trkpt>
      <trkpt lat="41.05745" lon="-1.38426">
        <ele>801.415</ele>
        <time>2013-05-09T14:08:44Z</time>
      </trkpt>
      <trkpt lat="41.05772" lon="-1.38453">
        <ele>801.412</ele>
        <time>2013-05-09T14:08:37Z</time>
      </trkpt>
      <trkpt lat="41.05784" lon="-1.38461">
        <ele>801.47</ele>
        <time>2013-05-09T14:08:34Z</time>
      </trkpt>
      <trkpt lat="41.05799" lon="-1.38471">
        <ele>801.463</ele>
        <time>2013-05-09T14:08:30Z</time>
      </trkpt>
      <trkpt lat="41.05842" lon="-1.38496">
        <ele>801.454</ele>
        <time>2013-05-09T14:08:19Z</time>
      </trkpt>
      <trkpt lat="41.0589" lon="-1.38511">
        <ele>801.456</ele>
        <time>2013-05-09T14:08:07Z</time>
      </trkpt>
      <trkpt lat="41.05943" lon="-1.38533">
        <ele>801.411</ele>
        <time>2013-05-09T14:07:53Z</time>
      </trkpt>
      <trkpt lat="41.05959" lon="-1.3854">
        <ele>801.408</ele>
        <time>2013-05-09T14:07:49Z</time>
      </trkpt>
      <trkpt lat="41.05964" lon="-1.38542">
        <ele>801.416</ele>
        <time>2013-05-09T14:07:48Z</time>
      </trkpt>
      <trkpt lat="41.06004" lon="-1.38552">
        <ele>802.887</ele>
        <time>2013-05-09T14:07:39Z</time>
      </trkpt>
      <trkpt lat="41.06035" lon="-1.38541">
        <ele>801.919</ele>
        <time>2013-05-09T14:07:28Z</time>
      </trkpt>
      <trkpt lat="41.0608" lon="-1.38517">
        <ele>800.924</ele>
        <time>2013-05-09T14:07:12Z</time>
      </trkpt>
      <trkpt lat="41.06115" lon="-1.38504">
        <ele>800.011</ele>
        <time>2013-05-09T14:07:00Z</time>
      </trkpt>
      <trkpt lat="41.06156" lon="-1.38499">
        <ele>799.048</ele>
        <time>2013-05-09T14:06:46Z</time>
      </trkpt>
      <trkpt lat="41.06188" lon="-1.38498">
        <ele>798.586</ele>
        <time>2013-05-09T14:06:35Z</time>
      </trkpt>
      <trkpt lat="41.06216" lon="-1.38494">
        <ele>798.539</ele>
        <time>2013-05-09T14:06:26Z</time>
      </trkpt>
      <trkpt lat="41.06249" lon="-1.3849">
        <ele>797.124</ele>
        <time>2013-05-09T14:06:15Z</time>
      </trkpt>
      <trkpt lat="41.06295" lon="-1.38492">
        <ele>795.604</ele>
        <time>2013-05-09T14:06:00Z</time>
      </trkpt>
      <trkpt lat="41.06324" lon="-1.38495">
        <ele>795.214</ele>
        <time>2013-05-09T14:05:50Z</time>
      </trkpt>
      <trkpt lat="41.06359" lon="-1.38489">
        <ele>794.708</ele>
        <time>2013-05-09T14:05:37Z</time>
      </trkpt>
      <trkpt lat="41.06385" lon="-1.38482">
        <ele>794.743</ele>
        <time>2013-05-09T14:05:26Z</time>
      </trkpt>
      <trkpt lat="41.06395" lon="-1.38482">
        <ele>794.724</ele>
        <time>2013-05-09T14:05:06Z</time>
      </trkpt>
      <trkpt lat="41.06396" lon="-1.38482">
        <ele>794.746</ele>
        <time>2013-05-09T14:04:51Z</time>
      </trkpt>
      <trkpt lat="41.06415" lon="-1.38471">
        <ele>794.281</ele>
        <time>2013-05-09T14:04:42Z</time>
      </trkpt>
      <trkpt lat="41.06445" lon="-1.38474">
        <ele>793.728</ele>
        <time>2013-05-09T14:04:30Z</time>
      </trkpt>
      <trkpt lat="41.06461" lon="-1.38476">
        <ele>793.725</ele>
        <time>2013-05-09T14:04:21Z</time>
      </trkpt>
      <trkpt lat="41.06463" lon="-1.38476">
        <ele>792.763</ele>
        <time>2013-05-09T14:03:59Z</time>
      </trkpt>
      <trkpt lat="41.06466" lon="-1.38479">
        <ele>792.736</ele>
        <time>2013-05-09T14:03:51Z</time>
      </trkpt>
      <trkpt lat="41.06478" lon="-1.38505">
        <ele>793.242</ele>
        <time>2013-05-09T14:03:42Z</time>
      </trkpt>
      <trkpt lat="41.06474" lon="-1.38572">
        <ele>794.722</ele>
        <time>2013-05-09T14:03:28Z</time>
      </trkpt>
      <trkpt lat="41.06474" lon="-1.38577">
        <ele>794.714</ele>
        <time>2013-05-09T14:03:27Z</time>
      </trkpt>
      <trkpt lat="41.06474" lon="-1.38582">
        <ele>795.208</ele>
        <time>2013-05-09T14:03:26Z</time>
      </trkpt>
      <trkpt lat="41.06475" lon="-1.38587">
        <ele>795.235</ele>
        <time>2013-05-09T14:03:25Z</time>
      </trkpt>
      <trkpt lat="41.06477" lon="-1.3859">
        <ele>796.136</ele>
        <time>2013-05-09T14:03:24Z</time>
      </trkpt>
      <trkpt lat="41.06478" lon="-1.38592">
        <ele>796.148</ele>
        <time>2013-05-09T14:03:23Z</time>
      </trkpt>
      <trkpt lat="41.0648" lon="-1.38594">
        <ele>796.153</ele>
        <time>2013-05-09T14:03:21Z</time>
      </trkpt>
      <trkpt lat="41.06481" lon="-1.38592">
        <ele>795.29</ele>
        <time>2013-05-09T14:02:58Z</time>
      </trkpt>
      <trkpt lat="41.06481" lon="-1.38592">
        <ele>795.637</ele>
        <time>2013-05-09T14:02:49Z</time>
      </trkpt>
      <trkpt lat="41.06495" lon="-1.38601">
        <ele>794.745</ele>
        <time>2013-05-09T14:02:40Z</time>
      </trkpt>
      <trkpt lat="41.06498" lon="-1.38603">
        <ele>794.738</ele>
        <time>2013-05-09T14:02:39Z</time>
      </trkpt>
      <trkpt lat="41.06527" lon="-1.38621">
        <ele>793.233</ele>
        <time>2013-05-09T14:02:30Z</time>
      </trkpt>
      <trkpt lat="41.06531" lon="-1.38624">
        <ele>793.223</ele>
        <time>2013-05-09T14:02:29Z</time>
      </trkpt>
      <trkpt lat="41.06564" lon="-1.38654">
        <ele>794.715</ele>
        <time>2013-05-09T14:02:22Z</time>
      </trkpt>
      <trkpt lat="41.06569" lon="-1.38659">
        <ele>794.708</ele>
        <time>2013-05-09T14:02:21Z</time>
      </trkpt>
      <trkpt lat="41.06573" lon="-1.38664">
        <ele>795.214</ele>
        <time>2013-05-09T14:02:20Z</time>
      </trkpt>
      <trkpt lat="41.06576" lon="-1.38669">
        <ele>795.255</ele>
        <time>2013-05-09T14:02:19Z</time>
      </trkpt>
      <trkpt lat="41.06578" lon="-1.38675">
        <ele>795.637</ele>
        <time>2013-05-09T14:02:18Z</time>
      </trkpt>
      <trkpt lat="41.06579" lon="-1.38681">
        <ele>796.682</ele>
        <time>2013-05-09T14:02:17Z</time>
      </trkpt>
      <trkpt lat="41.06579" lon="-1.38687">
        <ele>797.189</ele>
        <time>2013-05-09T14:02:16Z</time>
      </trkpt>
      <trkpt lat="41.06577" lon="-1.38692">
        <ele>797.676</ele>
        <time>2013-05-09T14:02:15Z</time>
      </trkpt>
      <trkpt lat="41.06568" lon="-1.38714">
        <ele>798.574</ele>
        <time>2013-05-09T14:02:08Z</time>
      </trkpt>
      <trkpt lat="41.06563" lon="-1.38718">
        <ele>798.597</ele>
        <time>2013-05-09T14:02:00Z</time>
      </trkpt>
      <trkpt lat="41.06556" lon="-1.38727">
        <ele>798.552</ele>
        <time>2013-05-09T14:01:54Z</time>
      </trkpt>
      <trkpt lat="41.06555" lon="-1.38728">
        <ele>798.553</ele>
        <time>2013-05-09T14:01:53Z</time>
      </trkpt>
      <trkpt lat="41.06557" lon="-1.38729">
        <ele>799.008</ele>
        <time>2013-05-09T14:01:37Z</time>
      </trkpt>
      <trkpt lat="41.06556" lon="-1.38727">
        <ele>799.008</ele>
        <time>2013-05-09T14:01:16Z</time>
      </trkpt>
      <trkpt lat="41.06558" lon="-1.38728">
        <ele>799.086</ele>
        <time>2013-05-09T14:01:05Z</time>
      </trkpt>
      <trkpt lat="41.06559" lon="-1.38728">
        <ele>799.027</ele>
        <time>2013-05-09T14:01:04Z</time>
      </trkpt>
      <trkpt lat="41.06568" lon="-1.38717">
        <ele>799.019</ele>
        <time>2013-05-09T14:00:58Z</time>
      </trkpt>
      <trkpt lat="41.06569" lon="-1.38715">
        <ele>799.074</ele>
        <time>2013-05-09T14:00:57Z</time>
      </trkpt>
      <trkpt lat="41.06571" lon="-1.38713">
        <ele>799.011</ele>
        <time>2013-05-09T14:00:56Z</time>
      </trkpt>
      <trkpt lat="41.06577" lon="-1.38709">
        <ele>799.068</ele>
        <time>2013-05-09T14:00:53Z</time>
      </trkpt>
      <trkpt lat="41.06581" lon="-1.38703">
        <ele>799.086</ele>
        <time>2013-05-09T14:00:50Z</time>
      </trkpt>
      <trkpt lat="41.06585" lon="-1.38699">
        <ele>799.539</ele>
        <time>2013-05-09T14:00:32Z</time>
      </trkpt>
      <trkpt lat="41.06587" lon="-1.38698">
        <ele>799.079</ele>
        <time>2013-05-09T14:00:25Z</time>
      </trkpt>
      <trkpt lat="41.06603" lon="-1.38683">
        <ele>800.905</ele>
        <time>2013-05-09T14:00:18Z</time>
      </trkpt>
      <trkpt lat="41.0661" lon="-1.38676">
        <ele>802.425</ele>
        <time>2013-05-09T14:00:13Z</time>
      </trkpt>
      <trkpt lat="41.06617" lon="-1.3867">
        <ele>802.408</ele>
        <time>2013-05-09T13:59:51Z</time>
      </trkpt>
      <trkpt lat="41.0663" lon="-1.38657">
        <ele>801.978</ele>
        <time>2013-05-09T13:59:40Z</time>
      </trkpt>
      <trkpt lat="41.06632" lon="-1.38656">
        <ele>801.959</ele>
        <time>2013-05-09T13:59:39Z</time>
      </trkpt>
      <trkpt lat="41.06634" lon="-1.38654">
        <ele>801.471</ele>
        <time>2013-05-09T13:59:38Z</time>
      </trkpt>
      <trkpt lat="41.06636" lon="-1.38653">
        <ele>800.086</ele>
        <time>2013-05-09T13:59:37Z</time>
      </trkpt>
      <trkpt lat="41.06637" lon="-1.38651">
        <ele>800.073</ele>
        <time>2013-05-09T13:59:36Z</time>
      </trkpt>
      <trkpt lat="41.0664" lon="-1.3865">
        <ele>800.05</ele>
        <time>2013-05-09T13:59:35Z</time>
      </trkpt>
      <trkpt lat="41.06642" lon="-1.38648">
        <ele>800.048</ele>
        <time>2013-05-09T13:59:34Z</time>
      </trkpt>
      <trkpt lat="41.06645" lon="-1.38647">
        <ele>800.031</ele>
        <time>2013-05-09T13:59:33Z</time>
      </trkpt>
      <trkpt lat="41.06647" lon="-1.38645">
        <ele>800.092</ele>
        <time>2013-05-09T13:59:32Z</time>
      </trkpt>
      <trkpt lat="41.0665" lon="-1.38645">
        <ele>800.473</ele>
        <time>2013-05-09T13:59:31Z</time>
      </trkpt>
      <trkpt lat="41.06652" lon="-1.38647">
        <ele>800.42</ele>
        <time>2013-05-09T13:59:30Z</time>
      </trkpt>
      <trkpt lat="41.06656" lon="-1.38651">
        <ele>800.908</ele>
        <time>2013-05-09T13:59:28Z</time>
      </trkpt>
      <trkpt lat="41.06658" lon="-1.38654">
        <ele>801.96</ele>
        <time>2013-05-09T13:59:27Z</time>
      </trkpt>
      <trkpt lat="41.06662" lon="-1.38667">
        <ele>803.861</ele>
        <time>2013-05-09T13:59:23Z</time>
      </trkpt>
      <trkpt lat="41.06666" lon="-1.38691">
        <ele>806.783</ele>
        <time>2013-05-09T13:59:14Z</time>
      </trkpt>
      <trkpt lat="41.06668" lon="-1.38692">
        <ele>807.678</ele>
        <time>2013-05-09T13:59:12Z</time>
      </trkpt>
      <trkpt lat="41.06674" lon="-1.38685">
        <ele>808.125</ele>
        <time>2013-05-09T13:59:09Z</time>
      </trkpt>
      <trkpt lat="41.06676" lon="-1.38682">
        <ele>808.662</ele>
        <time>2013-05-09T13:59:08Z</time>
      </trkpt>
      <trkpt lat="41.06677" lon="-1.38679">
        <ele>808.68</ele>
        <time>2013-05-09T13:59:07Z</time>
      </trkpt>
      <trkpt lat="41.06678" lon="-1.38675">
        <ele>808.633</ele>
        <time>2013-05-09T13:59:06Z</time>
      </trkpt>
      <trkpt lat="41.06679" lon="-1.38671">
        <ele>808.637</ele>
        <time>2013-05-09T13:59:05Z</time>
      </trkpt>
      <trkpt lat="41.06679" lon="-1.38667">
        <ele>808.649</ele>
        <time>2013-05-09T13:59:04Z</time>
      </trkpt>
      <trkpt lat="41.06679" lon="-1.38665">
        <ele>808.613</ele>
        <time>2013-05-09T13:59:03Z</time>
      </trkpt>
      <trkpt lat="41.0668" lon="-1.38662">
        <ele>808.608</ele>
        <time>2013-05-09T13:59:02Z</time>
      </trkpt>
      <trkpt lat="41.0668" lon="-1.3866">
        <ele>808.634</ele>
        <time>2013-05-09T13:59:01Z</time>
      </trkpt>
      <trkpt lat="41.06681" lon="-1.38658">
        <ele>808.625</ele>
        <time>2013-05-09T13:59:00Z</time>
      </trkpt>
      <trkpt lat="41.06682" lon="-1.38655">
        <ele>808.677</ele>
        <time>2013-05-09T13:58:59Z</time>
      </trkpt>
      <trkpt lat="41.06683" lon="-1.38653">
        <ele>808.662</ele>
        <time>2013-05-09T13:58:58Z</time>
      </trkpt>
      <trkpt lat="41.06683" lon="-1.38651">
        <ele>808.639</ele>
        <time>2013-05-09T13:58:57Z</time>
      </trkpt>
      <trkpt lat="41.06684" lon="-1.38649">
        <ele>808.626</ele>
        <time>2013-05-09T13:58:56Z</time>
      </trkpt>
      <trkpt lat="41.06686" lon="-1.38648">
        <ele>808.684</ele>
        <time>2013-05-09T13:58:55Z</time>
      </trkpt>
      <trkpt lat="41.06688" lon="-1.38649">
        <ele>809.137</ele>
        <time>2013-05-09T13:58:54Z</time>
      </trkpt>
      <trkpt lat="41.06696" lon="-1.38654">
        <ele>809.111</ele>
        <time>2013-05-09T13:58:50Z</time>
      </trkpt>
      <trkpt lat="41.06698" lon="-1.38655">
        <ele>809.121</ele>
        <time>2013-05-09T13:58:49Z</time>
      </trkpt>
      <trkpt lat="41.067" lon="-1.38657">
        <ele>809.103</ele>
        <time>2013-05-09T13:58:48Z</time>
      </trkpt>
      <trkpt lat="41.067" lon="-1.3866">
        <ele>809.108</ele>
        <time>2013-05-09T13:58:47Z</time>
      </trkpt>
      <trkpt lat="41.06699" lon="-1.38663">
        <ele>809.672</ele>
        <time>2013-05-09T13:58:46Z</time>
      </trkpt>
      <trkpt lat="41.06699" lon="-1.38666">
        <ele>809.683</ele>
        <time>2013-05-09T13:58:45Z</time>
      </trkpt>
      <trkpt lat="41.06699" lon="-1.38669">
        <ele>809.635</ele>
        <time>2013-05-09T13:58:44Z</time>
      </trkpt>
      <trkpt lat="41.06699" lon="-1.3867">
        <ele>809.68</ele>
        <time>2013-05-09T13:58:43Z</time>
      </trkpt>
      <trkpt lat="41.0672" lon="-1.3868">
        <ele>810.517</ele>
        <time>2013-05-09T13:58:34Z</time>
      </trkpt>
      <trkpt lat="41.06751" lon="-1.38694">
        <ele>812.074</ele>
        <time>2013-05-09T13:58:23Z</time>
      </trkpt>
      <trkpt lat="41.06767" lon="-1.38695">
        <ele>813.422</ele>
        <time>2013-05-09T13:58:17Z</time>
      </trkpt>
      <trkpt lat="41.06769" lon="-1.38694">
        <ele>813.455</ele>
        <time>2013-05-09T13:58:16Z</time>
      </trkpt>
      <trkpt lat="41.0677" lon="-1.38693">
        <ele>813.488</ele>
        <time>2013-05-09T13:58:15Z</time>
      </trkpt>
      <trkpt lat="41.06771" lon="-1.38692">
        <ele>812.924</ele>
        <time>2013-05-09T13:58:14Z</time>
      </trkpt>
      <trkpt lat="41.06772" lon="-1.3869">
        <ele>812.926</ele>
        <time>2013-05-09T13:58:13Z</time>
      </trkpt>
      <trkpt lat="41.06772" lon="-1.38688">
        <ele>812.908</ele>
        <time>2013-05-09T13:58:12Z</time>
      </trkpt>
      <trkpt lat="41.06773" lon="-1.38686">
        <ele>812.939</ele>
        <time>2013-05-09T13:58:11Z</time>
      </trkpt>
      <trkpt lat="41.06773" lon="-1.38684">
        <ele>812.96</ele>
        <time>2013-05-09T13:58:10Z</time>
      </trkpt>
      <trkpt lat="41.06772" lon="-1.38682">
        <ele>812.972</ele>
        <time>2013-05-09T13:58:09Z</time>
      </trkpt>
      <trkpt lat="41.06771" lon="-1.38681">
        <ele>812.527</ele>
        <time>2013-05-09T13:58:08Z</time>
      </trkpt>
      <trkpt lat="41.0677" lon="-1.38679">
        <ele>812.514</ele>
        <time>2013-05-09T13:58:07Z</time>
      </trkpt>
      <trkpt lat="41.0677" lon="-1.38678">
        <ele>812.531</ele>
        <time>2013-05-09T13:58:06Z</time>
      </trkpt>
      <trkpt lat="41.06771" lon="-1.38677">
        <ele>812.589</ele>
        <time>2013-05-09T13:58:05Z</time>
      </trkpt>
      <trkpt lat="41.06772" lon="-1.38676">
        <ele>812.592</ele>
        <time>2013-05-09T13:58:04Z</time>
      </trkpt>
      <trkpt lat="41.06774" lon="-1.38675">
        <ele>812.511</ele>
        <time>2013-05-09T13:58:03Z</time>
      </trkpt>
      <trkpt lat="41.06776" lon="-1.38673">
        <ele>812.521</ele>
        <time>2013-05-09T13:58:02Z</time>
      </trkpt>
      <trkpt lat="41.06778" lon="-1.38672">
        <ele>812.503</ele>
        <time>2013-05-09T13:58:01Z</time>
      </trkpt>
      <trkpt lat="41.0678" lon="-1.38672">
        <ele>812.508</ele>
        <time>2013-05-09T13:58:00Z</time>
      </trkpt>
      <trkpt lat="41.06781" lon="-1.38672">
        <ele>812.542</ele>
        <time>2013-05-09T13:57:59Z</time>
      </trkpt>
      <trkpt lat="41.06783" lon="-1.38672">
        <ele>812.523</ele>
        <time>2013-05-09T13:57:58Z</time>
      </trkpt>
      <trkpt lat="41.06801" lon="-1.3868">
        <ele>812.525</ele>
        <time>2013-05-09T13:57:48Z</time>
      </trkpt>
      <trkpt lat="41.06814" lon="-1.38696">
        <ele>811.56</ele>
        <time>2013-05-09T13:57:36Z</time>
      </trkpt>
      <trkpt lat="41.06824" lon="-1.38719">
        <ele>810.197</ele>
        <time>2013-05-09T13:57:21Z</time>
      </trkpt>
      <trkpt lat="41.06832" lon="-1.38741">
        <ele>807.234</ele>
        <time>2013-05-09T13:57:05Z</time>
      </trkpt>
      <trkpt lat="41.06833" lon="-1.3875">
        <ele>806.792</ele>
        <time>2013-05-09T13:56:59Z</time>
      </trkpt>
      <trkpt lat="41.06835" lon="-1.38762">
        <ele>804.325</ele>
        <time>2013-05-09T13:56:51Z</time>
      </trkpt>
      <trkpt lat="41.06836" lon="-1.38787">
        <ele>802.857</ele>
        <time>2013-05-09T13:56:39Z</time>
      </trkpt>
      <trkpt lat="41.06855" lon="-1.38809">
        <ele>801.9</ele>
        <time>2013-05-09T13:56:30Z</time>
      </trkpt>
      <trkpt lat="41.06885" lon="-1.38798">
        <ele>801.42</ele>
        <time>2013-05-09T13:56:19Z</time>
      </trkpt>
      <trkpt lat="41.06911" lon="-1.38786">
        <ele>800.408</ele>
        <time>2013-05-09T13:56:10Z</time>
      </trkpt>
      <trkpt lat="41.06932" lon="-1.38807">
        <ele>799.536</ele>
        <time>2013-05-09T13:56:02Z</time>
      </trkpt>
      <trkpt lat="41.06947" lon="-1.38817">
        <ele>799.567</ele>
        <time>2013-05-09T13:55:58Z</time>
      </trkpt>
      <trkpt lat="41.06968" lon="-1.38823">
        <ele>799.519</ele>
        <time>2013-05-09T13:55:53Z</time>
      </trkpt>
      <trkpt lat="41.0698" lon="-1.38838">
        <ele>799.514</ele>
        <time>2013-05-09T13:55:49Z</time>
      </trkpt>
      <trkpt lat="41.06995" lon="-1.38863">
        <ele>799.521</ele>
        <time>2013-05-09T13:55:43Z</time>
      </trkpt>
      <trkpt lat="41.07017" lon="-1.38901">
        <ele>799.528</ele>
        <time>2013-05-09T13:55:35Z</time>
      </trkpt>
      <trkpt lat="41.07023" lon="-1.38922">
        <ele>799.576</ele>
        <time>2013-05-09T13:55:31Z</time>
      </trkpt>
      <trkpt lat="41.07024" lon="-1.38942">
        <ele>799.539</ele>
        <time>2013-05-09T13:55:27Z</time>
      </trkpt>
      <trkpt lat="41.07025" lon="-1.38948">
        <ele>799.566</ele>
        <time>2013-05-09T13:55:26Z</time>
      </trkpt>
      <trkpt lat="41.0705" lon="-1.38955">
        <ele>800.029</ele>
        <time>2013-05-09T13:55:20Z</time>
      </trkpt>
      <trkpt lat="41.07063" lon="-1.38949">
        <ele>800.021</ele>
        <time>2013-05-09T13:55:17Z</time>
      </trkpt>
      <trkpt lat="41.07081" lon="-1.38949">
        <ele>800.008</ele>
        <time>2013-05-09T13:55:13Z</time>
      </trkpt>
      <trkpt lat="41.07104" lon="-1.38983">
        <ele>800.067</ele>
        <time>2013-05-09T13:55:05Z</time>
      </trkpt>
      <trkpt lat="41.07106" lon="-1.38994">
        <ele>800.028</ele>
        <time>2013-05-09T13:55:03Z</time>
      </trkpt>
      <trkpt lat="41.07112" lon="-1.39014">
        <ele>800.08</ele>
        <time>2013-05-09T13:54:59Z</time>
      </trkpt>
      <trkpt lat="41.07134" lon="-1.39055">
        <ele>800.055</ele>
        <time>2013-05-09T13:54:51Z</time>
      </trkpt>
      <trkpt lat="41.07148" lon="-1.39082">
        <ele>800.032</ele>
        <time>2013-05-09T13:54:46Z</time>
      </trkpt>
      <trkpt lat="41.07163" lon="-1.39115">
        <ele>800.079</ele>
        <time>2013-05-09T13:54:41Z</time>
      </trkpt>
      <trkpt lat="41.07171" lon="-1.3915">
        <ele>800.997</ele>
        <time>2013-05-09T13:54:36Z</time>
      </trkpt>
      <trkpt lat="41.07178" lon="-1.39179">
        <ele>802.84</ele>
        <time>2013-05-09T13:54:31Z</time>
      </trkpt>
      <trkpt lat="41.07179" lon="-1.39189">
        <ele>802.842</ele>
        <time>2013-05-09T13:54:29Z</time>
      </trkpt>
      <trkpt lat="41.07177" lon="-1.39234">
        <ele>800.922</ele>
        <time>2013-05-09T13:54:16Z</time>
      </trkpt>
      <trkpt lat="41.07183" lon="-1.39267">
        <ele>799.514</ele>
        <time>2013-05-09T13:54:06Z</time>
      </trkpt>
      <trkpt lat="41.07203" lon="-1.39299">
        <ele>799.008</ele>
        <time>2013-05-09T13:53:58Z</time>
      </trkpt>
      <trkpt lat="41.07212" lon="-1.39307">
        <ele>799.035</ele>
        <time>2013-05-09T13:53:56Z</time>
      </trkpt>
      <trkpt lat="41.07247" lon="-1.39333">
        <ele>799.036</ele>
        <time>2013-05-09T13:53:47Z</time>
      </trkpt>
      <trkpt lat="41.0728" lon="-1.39339">
        <ele>798.528</ele>
        <time>2013-05-09T13:53:39Z</time>
      </trkpt>
      <trkpt lat="41.07294" lon="-1.39328">
        <ele>799.533</ele>
        <time>2013-05-09T13:53:36Z</time>
      </trkpt>
      <trkpt lat="41.07323" lon="-1.39295">
        <ele>800.47</ele>
        <time>2013-05-09T13:53:30Z</time>
      </trkpt>
      <trkpt lat="41.0734" lon="-1.39289">
        <ele>802.887</ele>
        <time>2013-05-09T13:53:26Z</time>
      </trkpt>
      <trkpt lat="41.07363" lon="-1.39334">
        <ele>805.295</ele>
        <time>2013-05-09T13:53:14Z</time>
      </trkpt>
      <trkpt lat="41.07381" lon="-1.39364">
        <ele>805.248</ele>
        <time>2013-05-09T13:53:06Z</time>
      </trkpt>
      <trkpt lat="41.07392" lon="-1.39385">
        <ele>804.382</ele>
        <time>2013-05-09T13:52:54Z</time>
      </trkpt>
      <trkpt lat="41.07398" lon="-1.39398">
        <ele>802.843</ele>
        <time>2013-05-09T13:52:45Z</time>
      </trkpt>
      <trkpt lat="41.07408" lon="-1.39419">
        <ele>800.917</ele>
        <time>2013-05-09T13:52:32Z</time>
      </trkpt>
      <trkpt lat="41.07422" lon="-1.39441">
        <ele>798.508</ele>
        <time>2013-05-09T13:52:17Z</time>
      </trkpt>
      <trkpt lat="41.0743" lon="-1.39455">
        <ele>797.149</ele>
        <time>2013-05-09T13:52:05Z</time>
      </trkpt>
      <trkpt lat="41.07429" lon="-1.39455">
        <ele>797.15</ele>
        <time>2013-05-09T13:51:31Z</time>
      </trkpt>
      <trkpt lat="41.07453" lon="-1.39466">
        <ele>798.582</ele>
        <time>2013-05-09T13:51:23Z</time>
      </trkpt>
      <trkpt lat="41.07471" lon="-1.39472">
        <ele>800.497</ele>
        <time>2013-05-09T13:51:20Z</time>
      </trkpt>
      <trkpt lat="41.07477" lon="-1.39472">
        <ele>801.444</ele>
        <time>2013-05-09T13:51:19Z</time>
      </trkpt>
      <trkpt lat="41.07481" lon="-1.39472">
        <ele>801.471</ele>
        <time>2013-05-09T13:51:18Z</time>
      </trkpt>
      <trkpt lat="41.07484" lon="-1.3947">
        <ele>801.969</ele>
        <time>2013-05-09T13:51:17Z</time>
      </trkpt>
      <trkpt lat="41.075" lon="-1.39454">
        <ele>803.392</ele>
        <time>2013-05-09T13:51:10Z</time>
      </trkpt>
      <trkpt lat="41.07535" lon="-1.39446">
        <ele>802.827</ele>
        <time>2013-05-09T13:50:56Z</time>
      </trkpt>
      <trkpt lat="41.07559" lon="-1.39446">
        <ele>802.868</ele>
        <time>2013-05-09T13:50:46Z</time>
      </trkpt>
      <trkpt lat="41.07562" lon="-1.39445">
        <ele>802.814</ele>
        <time>2013-05-09T13:50:45Z</time>
      </trkpt>
      <trkpt lat="41.07564" lon="-1.39444">
        <ele>802.808</ele>
        <time>2013-05-09T13:50:44Z</time>
      </trkpt>
      <trkpt lat="41.07566" lon="-1.39442">
        <ele>802.833</ele>
        <time>2013-05-09T13:50:43Z</time>
      </trkpt>
      <trkpt lat="41.07569" lon="-1.39442">
        <ele>802.874</ele>
        <time>2013-05-09T13:50:42Z</time>
      </trkpt>
      <trkpt lat="41.07572" lon="-1.39442">
        <ele>802.836</ele>
        <time>2013-05-09T13:50:41Z</time>
      </trkpt>
      <trkpt lat="41.07576" lon="-1.39445">
        <ele>802.821</ele>
        <time>2013-05-09T13:50:39Z</time>
      </trkpt>
      <trkpt lat="41.07588" lon="-1.39462">
        <ele>801.948</ele>
        <time>2013-05-09T13:50:28Z</time>
      </trkpt>
      <trkpt lat="41.07599" lon="-1.39479">
        <ele>798.015</ele>
        <time>2013-05-09T13:50:16Z</time>
      </trkpt>
      <trkpt lat="41.07627" lon="-1.39506">
        <ele>797.623</ele>
        <time>2013-05-09T13:50:07Z</time>
      </trkpt>
      <trkpt lat="41.07631" lon="-1.39509">
        <ele>797.616</ele>
        <time>2013-05-09T13:50:06Z</time>
      </trkpt>
      <trkpt lat="41.07642" lon="-1.39513">
        <ele>797.685</ele>
        <time>2013-05-09T13:50:03Z</time>
      </trkpt>
      <trkpt lat="41.07673" lon="-1.39519">
        <ele>797.189</ele>
        <time>2013-05-09T13:49:54Z</time>
      </trkpt>
      <trkpt lat="41.07696" lon="-1.39557">
        <ele>798.517</ele>
        <time>2013-05-09T13:49:43Z</time>
      </trkpt>
      <trkpt lat="41.07708" lon="-1.39606">
        <ele>798.508</ele>
        <time>2013-05-09T13:49:33Z</time>
      </trkpt>
      <trkpt lat="41.07703" lon="-1.39641">
        <ele>796.679</ele>
        <time>2013-05-09T13:49:24Z</time>
      </trkpt>
      <trkpt lat="41.07702" lon="-1.39646">
        <ele>796.68</ele>
        <time>2013-05-09T13:49:23Z</time>
      </trkpt>
      <trkpt lat="41.077" lon="-1.39652">
        <ele>796.612</ele>
        <time>2013-05-09T13:49:22Z</time>
      </trkpt>
      <trkpt lat="41.07699" lon="-1.39658">
        <ele>796.627</ele>
        <time>2013-05-09T13:49:21Z</time>
      </trkpt>
      <trkpt lat="41.07698" lon="-1.39664">
        <ele>796.654</ele>
        <time>2013-05-09T13:49:20Z</time>
      </trkpt>
      <trkpt lat="41.07698" lon="-1.39669">
        <ele>796.641</ele>
        <time>2013-05-09T13:49:19Z</time>
      </trkpt>
      <trkpt lat="41.07699" lon="-1.39675">
        <ele>796.639</ele>
        <time>2013-05-09T13:49:18Z</time>
      </trkpt>
      <trkpt lat="41.077" lon="-1.39681">
        <ele>796.642</ele>
        <time>2013-05-09T13:49:17Z</time>
      </trkpt>
      <trkpt lat="41.07702" lon="-1.39687">
        <ele>796.644</ele>
        <time>2013-05-09T13:49:16Z</time>
      </trkpt>
      <trkpt lat="41.07703" lon="-1.39693">
        <ele>796.605</ele>
        <time>2013-05-09T13:49:15Z</time>
      </trkpt>
      <trkpt lat="41.07704" lon="-1.39699">
        <ele>796.615</ele>
        <time>2013-05-09T13:49:14Z</time>
      </trkpt>
      <trkpt lat="41.07704" lon="-1.39705">
        <ele>798.008</ele>
        <time>2013-05-09T13:49:13Z</time>
      </trkpt>
      <trkpt lat="41.07705" lon="-1.39711">
        <ele>798.085</ele>
        <time>2013-05-09T13:49:12Z</time>
      </trkpt>
      <trkpt lat="41.0771" lon="-1.39733">
        <ele>798.046</ele>
        <time>2013-05-09T13:49:06Z</time>
      </trkpt>
      <trkpt lat="41.07718" lon="-1.39763">
        <ele>796.668</ele>
        <time>2013-05-09T13:48:56Z</time>
      </trkpt>
      <trkpt lat="41.07722" lon="-1.3981">
        <ele>796.673</ele>
        <time>2013-05-09T13:48:44Z</time>
      </trkpt>
      <trkpt lat="41.07742" lon="-1.39837">
        <ele>796.62</ele>
        <time>2013-05-09T13:48:33Z</time>
      </trkpt>
      <trkpt lat="41.07775" lon="-1.39865">
        <ele>796.647</ele>
        <time>2013-05-09T13:48:22Z</time>
      </trkpt>
      <trkpt lat="41.07805" lon="-1.39915">
        <ele>796.165</ele>
        <time>2013-05-09T13:48:10Z</time>
      </trkpt>
      <trkpt lat="41.07807" lon="-1.3992">
        <ele>796.638</ele>
        <time>2013-05-09T13:48:09Z</time>
      </trkpt>
      <trkpt lat="41.07809" lon="-1.39925">
        <ele>796.177</ele>
        <time>2013-05-09T13:48:08Z</time>
      </trkpt>
      <trkpt lat="41.07812" lon="-1.3993">
        <ele>796.661</ele>
        <time>2013-05-09T13:48:07Z</time>
      </trkpt>
      <trkpt lat="41.07813" lon="-1.39935">
        <ele>796.627</ele>
        <time>2013-05-09T13:48:06Z</time>
      </trkpt>
      <trkpt lat="41.07815" lon="-1.39941">
        <ele>796.608</ele>
        <time>2013-05-09T13:48:05Z</time>
      </trkpt>
      <trkpt lat="41.07816" lon="-1.39977">
        <ele>796.618</ele>
        <time>2013-05-09T13:47:59Z</time>
      </trkpt>
      <trkpt lat="41.07816" lon="-1.39983">
        <ele>796.679</ele>
        <time>2013-05-09T13:47:58Z</time>
      </trkpt>
      <trkpt lat="41.07804" lon="-1.40027">
        <ele>796.161</ele>
        <time>2013-05-09T13:47:48Z</time>
      </trkpt>
      <trkpt lat="41.07808" lon="-1.40068">
        <ele>796.186</ele>
        <time>2013-05-09T13:47:39Z</time>
      </trkpt>
      <trkpt lat="41.07809" lon="-1.40071">
        <ele>796.183</ele>
        <time>2013-05-09T13:47:38Z</time>
      </trkpt>
      <trkpt lat="41.0781" lon="-1.40074">
        <ele>796.13</ele>
        <time>2013-05-09T13:47:37Z</time>
      </trkpt>
      <trkpt lat="41.07812" lon="-1.40077">
        <ele>796.138</ele>
        <time>2013-05-09T13:47:36Z</time>
      </trkpt>
      <trkpt lat="41.07814" lon="-1.40079">
        <ele>796.161</ele>
        <time>2013-05-09T13:47:35Z</time>
      </trkpt>
      <trkpt lat="41.07816" lon="-1.40082">
        <ele>796.125</ele>
        <time>2013-05-09T13:47:34Z</time>
      </trkpt>
      <trkpt lat="41.07819" lon="-1.40084">
        <ele>796.126</ele>
        <time>2013-05-09T13:47:33Z</time>
      </trkpt>
      <trkpt lat="41.07822" lon="-1.40085">
        <ele>796.108</ele>
        <time>2013-05-09T13:47:32Z</time>
      </trkpt>
      <trkpt lat="41.07825" lon="-1.40087">
        <ele>796.108</ele>
        <time>2013-05-09T13:47:31Z</time>
      </trkpt>
      <trkpt lat="41.07829" lon="-1.40088">
        <ele>796.143</ele>
        <time>2013-05-09T13:47:30Z</time>
      </trkpt>
      <trkpt lat="41.07832" lon="-1.40088">
        <ele>796.164</ele>
        <time>2013-05-09T13:47:29Z</time>
      </trkpt>
      <trkpt lat="41.07835" lon="-1.40088">
        <ele>796.166</ele>
        <time>2013-05-09T13:47:28Z</time>
      </trkpt>
      <trkpt lat="41.07838" lon="-1.40087">
        <ele>796.141</ele>
        <time>2013-05-09T13:47:27Z</time>
      </trkpt>
      <trkpt lat="41.07842" lon="-1.40087">
        <ele>796.178</ele>
        <time>2013-05-09T13:47:26Z</time>
      </trkpt>
      <trkpt lat="41.0786" lon="-1.40105">
        <ele>795.625</ele>
        <time>2013-05-09T13:47:19Z</time>
      </trkpt>
      <trkpt lat="41.0789" lon="-1.40113">
        <ele>795.663</ele>
        <time>2013-05-09T13:47:09Z</time>
      </trkpt>
      <trkpt lat="41.07893" lon="-1.40114">
        <ele>796.196</ele>
        <time>2013-05-09T13:47:08Z</time>
      </trkpt>
      <trkpt lat="41.07897" lon="-1.40115">
        <ele>796.188</ele>
        <time>2013-05-09T13:47:07Z</time>
      </trkpt>
      <trkpt lat="41.07901" lon="-1.40116">
        <ele>796.124</ele>
        <time>2013-05-09T13:47:06Z</time>
      </trkpt>
      <trkpt lat="41.07904" lon="-1.40119">
        <ele>796.126</ele>
        <time>2013-05-09T13:47:05Z</time>
      </trkpt>
      <trkpt lat="41.07907" lon="-1.40143">
        <ele>795.208</ele>
        <time>2013-05-09T13:46:59Z</time>
      </trkpt>
      <trkpt lat="41.07926" lon="-1.40174">
        <ele>795.689</ele>
        <time>2013-05-09T13:46:50Z</time>
      </trkpt>
      <trkpt lat="41.07928" lon="-1.40177">
        <ele>795.61</ele>
        <time>2013-05-09T13:46:49Z</time>
      </trkpt>
      <trkpt lat="41.07931" lon="-1.4018">
        <ele>795.692</ele>
        <time>2013-05-09T13:46:48Z</time>
      </trkpt>
      <trkpt lat="41.07933" lon="-1.40183">
        <ele>794.787</ele>
        <time>2013-05-09T13:46:47Z</time>
      </trkpt>
      <trkpt lat="41.07936" lon="-1.40185">
        <ele>794.714</ele>
        <time>2013-05-09T13:46:46Z</time>
      </trkpt>
      <trkpt lat="41.07938" lon="-1.40188">
        <ele>794.791</ele>
        <time>2013-05-09T13:46:45Z</time>
      </trkpt>
      <trkpt lat="41.0794" lon="-1.4019">
        <ele>794.729</ele>
        <time>2013-05-09T13:46:44Z</time>
      </trkpt>
      <trkpt lat="41.07941" lon="-1.40193">
        <ele>794.242</ele>
        <time>2013-05-09T13:46:43Z</time>
      </trkpt>
      <trkpt lat="41.07942" lon="-1.40195">
        <ele>794.258</ele>
        <time>2013-05-09T13:46:42Z</time>
      </trkpt>
      <trkpt lat="41.07944" lon="-1.40198">
        <ele>794.252</ele>
        <time>2013-05-09T13:46:41Z</time>
      </trkpt>
      <trkpt lat="41.07945" lon="-1.402">
        <ele>794.217</ele>
        <time>2013-05-09T13:46:40Z</time>
      </trkpt>
      <trkpt lat="41.07946" lon="-1.40203">
        <ele>793.208</ele>
        <time>2013-05-09T13:46:39Z</time>
      </trkpt>
      <trkpt lat="41.07962" lon="-1.40217">
        <ele>793.256</ele>
        <time>2013-05-09T13:46:33Z</time>
      </trkpt>
      <trkpt lat="41.07972" lon="-1.40227">
        <ele>793.227</ele>
        <time>2013-05-09T13:46:30Z</time>
      </trkpt>
      <trkpt lat="41.07998" lon="-1.40264">
        <ele>794.279</ele>
        <time>2013-05-09T13:46:19Z</time>
      </trkpt>
      <trkpt lat="41.08026" lon="-1.40284">
        <ele>794.294</ele>
        <time>2013-05-09T13:46:09Z</time>
      </trkpt>
      <trkpt lat="41.08053" lon="-1.40312">
        <ele>793.221</ele>
        <time>2013-05-09T13:45:58Z</time>
      </trkpt>
      <trkpt lat="41.08074" lon="-1.40343">
        <ele>792.758</ele>
        <time>2013-05-09T13:45:48Z</time>
      </trkpt>
      <trkpt lat="41.08099" lon="-1.40385">
        <ele>792.796</ele>
        <time>2013-05-09T13:45:36Z</time>
      </trkpt>
      <trkpt lat="41.08111" lon="-1.40426">
        <ele>791.399</ele>
        <time>2013-05-09T13:45:25Z</time>
      </trkpt>
      <trkpt lat="41.08125" lon="-1.40474">
        <ele>792.738</ele>
        <time>2013-05-09T13:45:12Z</time>
      </trkpt>
      <trkpt lat="41.08144" lon="-1.40523">
        <ele>791.87</ele>
        <time>2013-05-09T13:44:59Z</time>
      </trkpt>
      <trkpt lat="41.08157" lon="-1.40546">
        <ele>791.817</ele>
        <time>2013-05-09T13:44:52Z</time>
      </trkpt>
      <trkpt lat="41.0816" lon="-1.40551">
        <ele>791.808</ele>
        <time>2013-05-09T13:44:51Z</time>
      </trkpt>
      <trkpt lat="41.08164" lon="-1.40556">
        <ele>791.854</ele>
        <time>2013-05-09T13:44:50Z</time>
      </trkpt>
      <trkpt lat="41.08167" lon="-1.40561">
        <ele>792.385</ele>
        <time>2013-05-09T13:44:49Z</time>
      </trkpt>
      <trkpt lat="41.08169" lon="-1.40567">
        <ele>791.897</ele>
        <time>2013-05-09T13:44:48Z</time>
      </trkpt>
      <trkpt lat="41.08172" lon="-1.40572">
        <ele>791.822</ele>
        <time>2013-05-09T13:44:47Z</time>
      </trkpt>
      <trkpt lat="41.08177" lon="-1.40582">
        <ele>792.379</ele>
        <time>2013-05-09T13:44:45Z</time>
      </trkpt>
      <trkpt lat="41.08179" lon="-1.40588">
        <ele>792.366</ele>
        <time>2013-05-09T13:44:44Z</time>
      </trkpt>
      <trkpt lat="41.08182" lon="-1.40593">
        <ele>792.794</ele>
        <time>2013-05-09T13:44:43Z</time>
      </trkpt>
      <trkpt lat="41.08185" lon="-1.40599">
        <ele>792.787</ele>
        <time>2013-05-09T13:44:42Z</time>
      </trkpt>
      <trkpt lat="41.08186" lon="-1.40605">
        <ele>792.721</ele>
        <time>2013-05-09T13:44:41Z</time>
      </trkpt>
      <trkpt lat="41.08187" lon="-1.40612">
        <ele>792.741</ele>
        <time>2013-05-09T13:44:40Z</time>
      </trkpt>
      <trkpt lat="41.08186" lon="-1.40618">
        <ele>793.205</ele>
        <time>2013-05-09T13:44:39Z</time>
      </trkpt>
      <trkpt lat="41.08177" lon="-1.40647">
        <ele>794.708</ele>
        <time>2013-05-09T13:44:33Z</time>
      </trkpt>
      <trkpt lat="41.08173" lon="-1.40686">
        <ele>794.243</ele>
        <time>2013-05-09T13:44:21Z</time>
      </trkpt>
      <trkpt lat="41.08164" lon="-1.40728">
        <ele>792.794</ele>
        <time>2013-05-09T13:44:08Z</time>
      </trkpt>
      <trkpt lat="41.08147" lon="-1.40757">
        <ele>792.746</ele>
        <time>2013-05-09T13:43:58Z</time>
      </trkpt>
      <trkpt lat="41.08137" lon="-1.40803">
        <ele>792.771</ele>
        <time>2013-05-09T13:43:47Z</time>
      </trkpt>
      <trkpt lat="41.08128" lon="-1.40853">
        <ele>792.798</ele>
        <time>2013-05-09T13:43:34Z</time>
      </trkpt>
      <trkpt lat="41.08125" lon="-1.40886">
        <ele>792.745</ele>
        <time>2013-05-09T13:43:24Z</time>
      </trkpt>
      <trkpt lat="41.08125" lon="-1.40889">
        <ele>792.793</ele>
        <time>2013-05-09T13:43:23Z</time>
      </trkpt>
      <trkpt lat="41.08125" lon="-1.4089">
        <ele>792.716</ele>
        <time>2013-05-09T13:43:22Z</time>
      </trkpt>
      <trkpt lat="41.08124" lon="-1.40892">
        <ele>792.794</ele>
        <time>2013-05-09T13:43:21Z</time>
      </trkpt>
      <trkpt lat="41.08124" lon="-1.40894">
        <ele>792.757</ele>
        <time>2013-05-09T13:43:20Z</time>
      </trkpt>
      <trkpt lat="41.08125" lon="-1.40895">
        <ele>792.722</ele>
        <time>2013-05-09T13:42:44Z</time>
      </trkpt>
      <trkpt lat="41.08124" lon="-1.40895">
        <ele>792.708</ele>
        <time>2013-05-09T13:41:34Z</time>
      </trkpt>
      <trkpt lat="41.08122" lon="-1.40895">
        <ele>792.79</ele>
        <time>2013-05-09T13:41:00Z</time>
      </trkpt>
      <trkpt lat="41.08124" lon="-1.40895">
        <ele>792.721</ele>
        <time>2013-05-09T13:40:25Z</time>
      </trkpt>
      <trkpt lat="41.08123" lon="-1.40895">
        <ele>792.763</ele>
        <time>2013-05-09T13:39:47Z</time>
      </trkpt>
      <trkpt lat="41.08123" lon="-1.40895">
        <ele>792.798</ele>
        <time>2013-05-09T13:38:44Z</time>
      </trkpt>
      <trkpt lat="41.08122" lon="-1.40895">
        <ele>792.385</ele>
        <time>2013-05-09T13:38:08Z</time>
      </trkpt>
      <trkpt lat="41.08121" lon="-1.40896">
        <ele>792.392</ele>
        <time>2013-05-09T13:37:41Z</time>
      </trkpt>
      <trkpt lat="41.08123" lon="-1.40896">
        <ele>792.38</ele>
        <time>2013-05-09T13:37:30Z</time>
      </trkpt>
      <trkpt lat="41.08123" lon="-1.409">
        <ele>792.383</ele>
        <time>2013-05-09T13:37:22Z</time>
      </trkpt>
      <trkpt lat="41.08122" lon="-1.40902">
        <ele>792.315</ele>
        <time>2013-05-09T13:37:21Z</time>
      </trkpt>
      <trkpt lat="41.08122" lon="-1.40904">
        <ele>792.365</ele>
        <time>2013-05-09T13:37:20Z</time>
      </trkpt>
      <trkpt lat="41.08122" lon="-1.40906">
        <ele>792.311</ele>
        <time>2013-05-09T13:37:19Z</time>
      </trkpt>
      <trkpt lat="41.08122" lon="-1.40909">
        <ele>792.308</ele>
        <time>2013-05-09T13:37:18Z</time>
      </trkpt>
      <trkpt lat="41.08122" lon="-1.40912">
        <ele>792.312</ele>
        <time>2013-05-09T13:37:17Z</time>
      </trkpt>
      <trkpt lat="41.08122" lon="-1.40914">
        <ele>792.313</ele>
        <time>2013-05-09T13:37:16Z</time>
      </trkpt>
      <trkpt lat="41.08121" lon="-1.40916">
        <ele>792.325</ele>
        <time>2013-05-09T13:37:15Z</time>
      </trkpt>
      <trkpt lat="41.08121" lon="-1.40918">
        <ele>792.37</ele>
        <time>2013-05-09T13:37:14Z</time>
      </trkpt>
      <trkpt lat="41.08122" lon="-1.4092">
        <ele>792.337</ele>
        <time>2013-05-09T13:37:13Z</time>
      </trkpt>
      <trkpt lat="41.08123" lon="-1.40921">
        <ele>791.874</ele>
        <time>2013-05-09T13:37:12Z</time>
      </trkpt>
      <trkpt lat="41.08124" lon="-1.40922">
        <ele>791.852</ele>
        <time>2013-05-09T13:37:11Z</time>
      </trkpt>
      <trkpt lat="41.08125" lon="-1.40922">
        <ele>791.875</ele>
        <time>2013-05-09T13:37:10Z</time>
      </trkpt>
      <trkpt lat="41.08138" lon="-1.40908">
        <ele>791.364</ele>
        <time>2013-05-09T13:36:59Z</time>
      </trkpt>
      <trkpt lat="41.0815" lon="-1.40884">
        <ele>790.306</ele>
        <time>2013-05-09T13:36:48Z</time>
      </trkpt>
      <trkpt lat="41.08163" lon="-1.40862">
        <ele>789.916</ele>
        <time>2013-05-09T13:36:36Z</time>
      </trkpt>
      <trkpt lat="41.08182" lon="-1.40843">
        <ele>788.908</ele>
        <time>2013-05-09T13:36:21Z</time>
      </trkpt>
      <trkpt lat="41.08203" lon="-1.40826">
        <ele>788.447</ele>
        <time>2013-05-09T13:36:07Z</time>
      </trkpt>
      <trkpt lat="41.08216" lon="-1.40805">
        <ele>787.948</ele>
        <time>2013-05-09T13:35:54Z</time>
      </trkpt>
      <trkpt lat="41.0823" lon="-1.40782">
        <ele>787.52</ele>
        <time>2013-05-09T13:35:40Z</time>
      </trkpt>
      <trkpt lat="41.08239" lon="-1.40759">
        <ele>786.585</ele>
        <time>2013-05-09T13:35:26Z</time>
      </trkpt>
      <trkpt lat="41.08247" lon="-1.40728">
        <ele>785.552</ele>
        <time>2013-05-09T13:35:12Z</time>
      </trkpt>
      <trkpt lat="41.08253" lon="-1.40706">
        <ele>785.199</ele>
        <time>2013-05-09T13:35:01Z</time>
      </trkpt>
      <trkpt lat="41.08269" lon="-1.40678">
        <ele>784.657</ele>
        <time>2013-05-09T13:34:47Z</time>
      </trkpt>
      <trkpt lat="41.08286" lon="-1.40655">
        <ele>784.13</ele>
        <time>2013-05-09T13:34:34Z</time>
      </trkpt>
      <trkpt lat="41.08308" lon="-1.40631">
        <ele>783.674</ele>
        <time>2013-05-09T13:34:18Z</time>
      </trkpt>
      <trkpt lat="41.08327" lon="-1.40608">
        <ele>782.756</ele>
        <time>2013-05-09T13:34:03Z</time>
      </trkpt>
      <trkpt lat="41.08342" lon="-1.40592">
        <ele>782.221</ele>
        <time>2013-05-09T13:33:51Z</time>
      </trkpt>
      <trkpt lat="41.08356" lon="-1.40576">
        <ele>781.708</ele>
        <time>2013-05-09T13:33:41Z</time>
      </trkpt>
      <trkpt lat="41.08378" lon="-1.40554">
        <ele>781.258</ele>
        <time>2013-05-09T13:33:25Z</time>
      </trkpt>
      <trkpt lat="41.08396" lon="-1.40539">
        <ele>781.259</ele>
        <time>2013-05-09T13:33:12Z</time>
      </trkpt>
      <trkpt lat="41.08397" lon="-1.40538">
        <ele>781.251</ele>
        <time>2013-05-09T13:33:11Z</time>
      </trkpt>
      <trkpt lat="41.08398" lon="-1.40537">
        <ele>781.266</ele>
        <time>2013-05-09T13:33:10Z</time>
      </trkpt>
      <trkpt lat="41.08399" lon="-1.40536">
        <ele>781.233</ele>
        <time>2013-05-09T13:33:09Z</time>
      </trkpt>
      <trkpt lat="41.08401" lon="-1.40536">
        <ele>781.25</ele>
        <time>2013-05-09T13:33:08Z</time>
      </trkpt>
      <trkpt lat="41.08402" lon="-1.40536">
        <ele>781.298</ele>
        <time>2013-05-09T13:33:07Z</time>
      </trkpt>
      <trkpt lat="41.08404" lon="-1.40536">
        <ele>781.241</ele>
        <time>2013-05-09T13:33:06Z</time>
      </trkpt>
      <trkpt lat="41.08405" lon="-1.40537">
        <ele>781.244</ele>
        <time>2013-05-09T13:33:05Z</time>
      </trkpt>
      <trkpt lat="41.08417" lon="-1.40555">
        <ele>780.305</ele>
        <time>2013-05-09T13:32:55Z</time>
      </trkpt>
      <trkpt lat="41.08435" lon="-1.40601">
        <ele>778.315</ele>
        <time>2013-05-09T13:32:42Z</time>
      </trkpt>
      <trkpt lat="41.08447" lon="-1.40654">
        <ele>778.308</ele>
        <time>2013-05-09T13:32:30Z</time>
      </trkpt>
      <trkpt lat="41.08464" lon="-1.4068">
        <ele>776.935</ele>
        <time>2013-05-09T13:32:21Z</time>
      </trkpt>
      <trkpt lat="41.085" lon="-1.40711">
        <ele>775.086</ele>
        <time>2013-05-09T13:32:10Z</time>
      </trkpt>
      <trkpt lat="41.08531" lon="-1.40749">
        <ele>775.058</ele>
        <time>2013-05-09T13:31:59Z</time>
      </trkpt>
      <trkpt lat="41.08561" lon="-1.40805">
        <ele>775.063</ele>
        <time>2013-05-09T13:31:46Z</time>
      </trkpt>
      <trkpt lat="41.08566" lon="-1.40816">
        <ele>776.45</ele>
        <time>2013-05-09T13:31:44Z</time>
      </trkpt>
      <trkpt lat="41.08579" lon="-1.40871">
        <ele>776.457</ele>
        <time>2013-05-09T13:31:33Z</time>
      </trkpt>
      <trkpt lat="41.08603" lon="-1.40911">
        <ele>776.475</ele>
        <time>2013-05-09T13:31:22Z</time>
      </trkpt>
      <trkpt lat="41.08651" lon="-1.40941">
        <ele>776.488</ele>
        <time>2013-05-09T13:31:09Z</time>
      </trkpt>
      <trkpt lat="41.08682" lon="-1.40969">
        <ele>774.585</ele>
        <time>2013-05-09T13:30:58Z</time>
      </trkpt>
      <trkpt lat="41.08722" lon="-1.41015">
        <ele>774.589</ele>
        <time>2013-05-09T13:30:45Z</time>
      </trkpt>
      <trkpt lat="41.08741" lon="-1.41034">
        <ele>774.517</ele>
        <time>2013-05-09T13:30:39Z</time>
      </trkpt>
      <trkpt lat="41.08753" lon="-1.41043">
        <ele>774.508</ele>
        <time>2013-05-09T13:30:36Z</time>
      </trkpt>
      <trkpt lat="41.08795" lon="-1.41063">
        <ele>774.529</ele>
        <time>2013-05-09T13:30:26Z</time>
      </trkpt>
      <trkpt lat="41.088" lon="-1.41065">
        <ele>775.03</ele>
        <time>2013-05-09T13:30:25Z</time>
      </trkpt>
      <trkpt lat="41.08855" lon="-1.41092">
        <ele>775.072</ele>
        <time>2013-05-09T13:30:14Z</time>
      </trkpt>
      <trkpt lat="41.0889" lon="-1.41124">
        <ele>776.947</ele>
        <time>2013-05-09T13:30:07Z</time>
      </trkpt>
      <trkpt lat="41.08914" lon="-1.41148">
        <ele>776.994</ele>
        <time>2013-05-09T13:29:58Z</time>
      </trkpt>
      <trkpt lat="41.08946" lon="-1.41182">
        <ele>775.451</ele>
        <time>2013-05-09T13:29:49Z</time>
      </trkpt>
      <trkpt lat="41.08986" lon="-1.41246">
        <ele>776.479</ele>
        <time>2013-05-09T13:29:40Z</time>
      </trkpt>
      <trkpt lat="41.0899" lon="-1.41254">
        <ele>776.992</ele>
        <time>2013-05-09T13:29:39Z</time>
      </trkpt>
      <trkpt lat="41.09006" lon="-1.41279">
        <ele>778.814</ele>
        <time>2013-05-09T13:29:35Z</time>
      </trkpt>
      <trkpt lat="41.09013" lon="-1.41289">
        <ele>779.854</ele>
        <time>2013-05-09T13:29:33Z</time>
      </trkpt>
      <trkpt lat="41.09034" lon="-1.41325">
        <ele>779.809</ele>
        <time>2013-05-09T13:29:23Z</time>
      </trkpt>
      <trkpt lat="41.09061" lon="-1.41368">
        <ele>777.808</ele>
        <time>2013-05-09T13:29:10Z</time>
      </trkpt>
      <trkpt lat="41.09097" lon="-1.41409">
        <ele>777.882</ele>
        <time>2013-05-09T13:28:58Z</time>
      </trkpt>
      <trkpt lat="41.09101" lon="-1.41413">
        <ele>777.833</ele>
        <time>2013-05-09T13:28:57Z</time>
      </trkpt>
      <trkpt lat="41.09125" lon="-1.4144">
        <ele>777.855</ele>
        <time>2013-05-09T13:28:49Z</time>
      </trkpt>
      <trkpt lat="41.09153" lon="-1.41469">
        <ele>777.89</ele>
        <time>2013-05-09T13:28:40Z</time>
      </trkpt>
      <trkpt lat="41.09157" lon="-1.41472">
        <ele>777.887</ele>
        <time>2013-05-09T13:28:39Z</time>
      </trkpt>
      <trkpt lat="41.09165" lon="-1.41475">
        <ele>777.834</ele>
        <time>2013-05-09T13:28:37Z</time>
      </trkpt>
      <trkpt lat="41.09173" lon="-1.41479">
        <ele>778.342</ele>
        <time>2013-05-09T13:28:35Z</time>
      </trkpt>
      <trkpt lat="41.09184" lon="-1.41487">
        <ele>778.385</ele>
        <time>2013-05-09T13:28:32Z</time>
      </trkpt>
      <trkpt lat="41.09188" lon="-1.4149">
        <ele>778.362</ele>
        <time>2013-05-09T13:28:31Z</time>
      </trkpt>
      <trkpt lat="41.0922" lon="-1.41536">
        <ele>778.883</ele>
        <time>2013-05-09T13:28:21Z</time>
      </trkpt>
      <trkpt lat="41.09233" lon="-1.41553">
        <ele>779.311</ele>
        <time>2013-05-09T13:28:17Z</time>
      </trkpt>
      <trkpt lat="41.09265" lon="-1.41573">
        <ele>780.708</ele>
        <time>2013-05-09T13:28:06Z</time>
      </trkpt>
      <trkpt lat="41.0927" lon="-1.41573">
        <ele>780.787</ele>
        <time>2013-05-09T13:27:48Z</time>
      </trkpt>
      <trkpt lat="41.09277" lon="-1.41575">
        <ele>780.718</ele>
        <time>2013-05-09T13:27:41Z</time>
      </trkpt>
      <trkpt lat="41.09309" lon="-1.4158">
        <ele>781.77</ele>
        <time>2013-05-09T13:27:32Z</time>
      </trkpt>
      <trkpt lat="41.09339" lon="-1.41603">
        <ele>779.325</ele>
        <time>2013-05-09T13:27:21Z</time>
      </trkpt>
      <trkpt lat="41.09342" lon="-1.41606">
        <ele>779.382</ele>
        <time>2013-05-09T13:27:20Z</time>
      </trkpt>
      <trkpt lat="41.09344" lon="-1.4161">
        <ele>779.359</ele>
        <time>2013-05-09T13:27:19Z</time>
      </trkpt>
      <trkpt lat="41.09361" lon="-1.4163">
        <ele>779.317</ele>
        <time>2013-05-09T13:27:14Z</time>
      </trkpt>
      <trkpt lat="41.09374" lon="-1.41643">
        <ele>779.32</ele>
        <time>2013-05-09T13:27:11Z</time>
      </trkpt>
      <trkpt lat="41.09379" lon="-1.41647">
        <ele>779.368</ele>
        <time>2013-05-09T13:27:10Z</time>
      </trkpt>
      <trkpt lat="41.09416" lon="-1.41706">
        <ele>780.742</ele>
        <time>2013-05-09T13:27:00Z</time>
      </trkpt>
      <trkpt lat="41.09434" lon="-1.41745">
        <ele>781.226</ele>
        <time>2013-05-09T13:26:52Z</time>
      </trkpt>
      <trkpt lat="41.09441" lon="-1.4175">
        <ele>782.708</ele>
        <time>2013-05-09T13:26:49Z</time>
      </trkpt>
      <trkpt lat="41.09477" lon="-1.41757">
        <ele>780.337</ele>
        <time>2013-05-09T13:26:33Z</time>
      </trkpt>
      <trkpt lat="41.09505" lon="-1.41761">
        <ele>779.828</ele>
        <time>2013-05-09T13:26:22Z</time>
      </trkpt>
      <trkpt lat="41.09547" lon="-1.4175">
        <ele>777.83</ele>
        <time>2013-05-09T13:26:05Z</time>
      </trkpt>
      <trkpt lat="41.09577" lon="-1.41744">
        <ele>776.415</ele>
        <time>2013-05-09T13:25:52Z</time>
      </trkpt>
      <trkpt lat="41.0961" lon="-1.41745">
        <ele>775.092</ele>
        <time>2013-05-09T13:25:39Z</time>
      </trkpt>
      <trkpt lat="41.09645" lon="-1.41752">
        <ele>775.049</ele>
        <time>2013-05-09T13:25:26Z</time>
      </trkpt>
      <trkpt lat="41.09683" lon="-1.41763">
        <ele>773.577</ele>
        <time>2013-05-09T13:25:11Z</time>
      </trkpt>
      <trkpt lat="41.0972" lon="-1.41779">
        <ele>772.16</ele>
        <time>2013-05-09T13:24:55Z</time>
      </trkpt>
      <trkpt lat="41.0975" lon="-1.41786">
        <ele>771.676</ele>
        <time>2013-05-09T13:24:42Z</time>
      </trkpt>
      <trkpt lat="41.09778" lon="-1.41797">
        <ele>770.69</ele>
        <time>2013-05-09T13:24:29Z</time>
      </trkpt>
      <trkpt lat="41.09804" lon="-1.41801">
        <ele>769.719</ele>
        <time>2013-05-09T13:24:17Z</time>
      </trkpt>
      <trkpt lat="41.09821" lon="-1.41803">
        <ele>768.708</ele>
        <time>2013-05-09T13:24:08Z</time>
      </trkpt>
      <trkpt lat="41.09846" lon="-1.41804">
        <ele>767.348</ele>
        <time>2013-05-09T13:23:56Z</time>
      </trkpt>
      <trkpt lat="41.0988" lon="-1.41805">
        <ele>766.329</ele>
        <time>2013-05-09T13:23:44Z</time>
      </trkpt>
      <trkpt lat="41.09924" lon="-1.41826">
        <ele>764.411</ele>
        <time>2013-05-09T13:23:31Z</time>
      </trkpt>
      <trkpt lat="41.09935" lon="-1.41833">
        <ele>764.426</ele>
        <time>2013-05-09T13:23:28Z</time>
      </trkpt>
      <trkpt lat="41.09995" lon="-1.41847">
        <ele>764.433</ele>
        <time>2013-05-09T13:23:13Z</time>
      </trkpt>
      <trkpt lat="41.10003" lon="-1.41849">
        <ele>764.46</ele>
        <time>2013-05-09T13:23:11Z</time>
      </trkpt>
      <trkpt lat="41.10007" lon="-1.41851">
        <ele>764.498</ele>
        <time>2013-05-09T13:23:10Z</time>
      </trkpt>
      <trkpt lat="41.10015" lon="-1.41851">
        <ele>764.481</ele>
        <time>2013-05-09T13:23:08Z</time>
      </trkpt>
      <trkpt lat="41.10053" lon="-1.41864">
        <ele>764.419</ele>
        <time>2013-05-09T13:22:58Z</time>
      </trkpt>
      <trkpt lat="41.10056" lon="-1.41866">
        <ele>764.409</ele>
        <time>2013-05-09T13:22:57Z</time>
      </trkpt>
      <trkpt lat="41.1006" lon="-1.41868">
        <ele>764.919</ele>
        <time>2013-05-09T13:22:56Z</time>
      </trkpt>
      <trkpt lat="41.10063" lon="-1.4187">
        <ele>764.908</ele>
        <time>2013-05-09T13:22:55Z</time>
      </trkpt>
      <trkpt lat="41.10067" lon="-1.41872">
        <ele>764.942</ele>
        <time>2013-05-09T13:22:54Z</time>
      </trkpt>
      <trkpt lat="41.1007" lon="-1.41875">
        <ele>764.933</ele>
        <time>2013-05-09T13:22:53Z</time>
      </trkpt>
      <trkpt lat="41.10089" lon="-1.41897">
        <ele>764.985</ele>
        <time>2013-05-09T13:22:47Z</time>
      </trkpt>
      <trkpt lat="41.10092" lon="-1.41901">
        <ele>764.94</ele>
        <time>2013-05-09T13:22:46Z</time>
      </trkpt>
      <trkpt lat="41.10096" lon="-1.41904">
        <ele>764.967</ele>
        <time>2013-05-09T13:22:45Z</time>
      </trkpt>
      <trkpt lat="41.10139" lon="-1.4194">
        <ele>765.454</ele>
        <time>2013-05-09T13:22:32Z</time>
      </trkpt>
      <trkpt lat="41.10191" lon="-1.41974">
        <ele>765.472</ele>
        <time>2013-05-09T13:22:19Z</time>
      </trkpt>
      <trkpt lat="41.10241" lon="-1.42011">
        <ele>768.765</ele>
        <time>2013-05-09T13:22:07Z</time>
      </trkpt>
      <trkpt lat="41.1026" lon="-1.42027">
        <ele>765.845</ele>
        <time>2013-05-09T13:21:58Z</time>
      </trkpt>
      <trkpt lat="41.1027" lon="-1.42035">
        <ele>767.347</ele>
        <time>2013-05-09T13:21:54Z</time>
      </trkpt>
      <trkpt lat="41.10304" lon="-1.42039">
        <ele>767.311</ele>
        <time>2013-05-09T13:21:42Z</time>
      </trkpt>
      <trkpt lat="41.10335" lon="-1.42044">
        <ele>766.808</ele>
        <time>2013-05-09T13:21:32Z</time>
      </trkpt>
      <trkpt lat="41.10346" lon="-1.4205">
        <ele>765.445</ele>
        <time>2013-05-09T13:21:28Z</time>
      </trkpt>
      <trkpt lat="41.10371" lon="-1.42083">
        <ele>765.446</ele>
        <time>2013-05-09T13:21:16Z</time>
      </trkpt>
      <trkpt lat="41.10406" lon="-1.4213">
        <ele>766.898</ele>
        <time>2013-05-09T13:21:01Z</time>
      </trkpt>
      <trkpt lat="41.10417" lon="-1.42148">
        <ele>765.883</ele>
        <time>2013-05-09T13:20:55Z</time>
      </trkpt>
      <trkpt lat="41.10419" lon="-1.4215">
        <ele>765.85</ele>
        <time>2013-05-09T13:20:54Z</time>
      </trkpt>
      <trkpt lat="41.1042" lon="-1.42151">
        <ele>765.837</ele>
        <time>2013-05-09T13:20:53Z</time>
      </trkpt>
      <trkpt lat="41.10422" lon="-1.42152">
        <ele>765.895</ele>
        <time>2013-05-09T13:20:52Z</time>
      </trkpt>
      <trkpt lat="41.10423" lon="-1.42153">
        <ele>767.318</ele>
        <time>2013-05-09T13:20:51Z</time>
      </trkpt>
      <trkpt lat="41.10425" lon="-1.42153">
        <ele>767.364</ele>
        <time>2013-05-09T13:20:50Z</time>
      </trkpt>
      <trkpt lat="41.10432" lon="-1.42153">
        <ele>767.306</ele>
        <time>2013-05-09T13:20:46Z</time>
      </trkpt>
      <trkpt lat="41.10455" lon="-1.42132">
        <ele>765.416</ele>
        <time>2013-05-09T13:20:32Z</time>
      </trkpt>
      <trkpt lat="41.10477" lon="-1.42112">
        <ele>764.408</ele>
        <time>2013-05-09T13:20:20Z</time>
      </trkpt>
      <trkpt lat="41.10516" lon="-1.42089">
        <ele>763.417</ele>
        <time>2013-05-09T13:20:05Z</time>
      </trkpt>
      <trkpt lat="41.10544" lon="-1.42075">
        <ele>762.058</ele>
        <time>2013-05-09T13:19:57Z</time>
      </trkpt>
      <trkpt lat="41.10588" lon="-1.42051">
        <ele>762.58</ele>
        <time>2013-05-09T13:19:44Z</time>
      </trkpt>
      <trkpt lat="41.1063" lon="-1.42028">
        <ele>762.015</ele>
        <time>2013-05-09T13:19:31Z</time>
      </trkpt>
      <trkpt lat="41.10651" lon="-1.42013">
        <ele>762.032</ele>
        <time>2013-05-09T13:19:22Z</time>
      </trkpt>
      <trkpt lat="41.10652" lon="-1.42012">
        <ele>762.019</ele>
        <time>2013-05-09T13:19:21Z</time>
      </trkpt>
      <trkpt lat="41.10653" lon="-1.42013">
        <ele>762.597</ele>
        <time>2013-05-09T13:18:57Z</time>
      </trkpt>
      <trkpt lat="41.10653" lon="-1.42013">
        <ele>763.97</ele>
        <time>2013-05-09T13:18:22Z</time>
      </trkpt>
      <trkpt lat="41.10652" lon="-1.42013">
        <ele>762.535</ele>
        <time>2013-05-09T13:17:30Z</time>
      </trkpt>
      <trkpt lat="41.1067" lon="-1.42004">
        <ele>763.986</ele>
        <time>2013-05-09T13:17:19Z</time>
      </trkpt>
      <trkpt lat="41.10713" lon="-1.41978">
        <ele>762.914</ele>
        <time>2013-05-09T13:17:05Z</time>
      </trkpt>
      <trkpt lat="41.10723" lon="-1.41972">
        <ele>761.508</ele>
        <time>2013-05-09T13:17:02Z</time>
      </trkpt>
      <trkpt lat="41.10782" lon="-1.41941">
        <ele>762.564</ele>
        <time>2013-05-09T13:16:47Z</time>
      </trkpt>
      <trkpt lat="41.1085" lon="-1.41907">
        <ele>762.535</ele>
        <time>2013-05-09T13:16:31Z</time>
      </trkpt>
      <trkpt lat="41.10854" lon="-1.41905">
        <ele>762.517</ele>
        <time>2013-05-09T13:16:30Z</time>
      </trkpt>
      <trkpt lat="41.10871" lon="-1.41895">
        <ele>762.532</ele>
        <time>2013-05-09T13:16:26Z</time>
      </trkpt>
      <trkpt lat="41.10925" lon="-1.41865">
        <ele>763.919</ele>
        <time>2013-05-09T13:16:14Z</time>
      </trkpt>
      <trkpt lat="41.10988" lon="-1.41826">
        <ele>764.486</ele>
        <time>2013-05-09T13:16:00Z</time>
      </trkpt>
      <trkpt lat="41.11039" lon="-1.418">
        <ele>766.384</ele>
        <time>2013-05-09T13:15:48Z</time>
      </trkpt>
      <trkpt lat="41.11044" lon="-1.41798">
        <ele>766.317</ele>
        <time>2013-05-09T13:15:47Z</time>
      </trkpt>
      <trkpt lat="41.11051" lon="-1.41793">
        <ele>766.378</ele>
        <time>2013-05-09T13:15:45Z</time>
      </trkpt>
      <trkpt lat="41.11071" lon="-1.4178">
        <ele>767.333</ele>
        <time>2013-05-09T13:15:39Z</time>
      </trkpt>
      <trkpt lat="41.111" lon="-1.41764">
        <ele>767.826</ele>
        <time>2013-05-09T13:15:27Z</time>
      </trkpt>
      <trkpt lat="41.11128" lon="-1.41752">
        <ele>768.208</ele>
        <time>2013-05-09T13:15:17Z</time>
      </trkpt>
      <trkpt lat="41.11163" lon="-1.41737">
        <ele>768.728</ele>
        <time>2013-05-09T13:15:06Z</time>
      </trkpt>
      <trkpt lat="41.11189" lon="-1.41726">
        <ele>769.219</ele>
        <time>2013-05-09T13:14:56Z</time>
      </trkpt>
      <trkpt lat="41.11196" lon="-1.41723">
        <ele>770.631</ele>
        <time>2013-05-09T13:14:53Z</time>
      </trkpt>
      <trkpt lat="41.11226" lon="-1.41712">
        <ele>770.696</ele>
        <time>2013-05-09T13:14:41Z</time>
      </trkpt>
      <trkpt lat="41.11233" lon="-1.41709">
        <ele>769.273</ele>
        <time>2013-05-09T13:14:38Z</time>
      </trkpt>
      <trkpt lat="41.11262" lon="-1.41694">
        <ele>769.26</ele>
        <time>2013-05-09T13:14:27Z</time>
      </trkpt>
      <trkpt lat="41.11281" lon="-1.41673">
        <ele>770.298</ele>
        <time>2013-05-09T13:14:18Z</time>
      </trkpt>
      <trkpt lat="41.11308" lon="-1.41648">
        <ele>770.651</ele>
        <time>2013-05-09T13:14:06Z</time>
      </trkpt>
      <trkpt lat="41.11328" lon="-1.4163">
        <ele>771.174</ele>
        <time>2013-05-09T13:13:53Z</time>
      </trkpt>
      <trkpt lat="41.11329" lon="-1.41629">
        <ele>771.156</ele>
        <time>2013-05-09T13:13:52Z</time>
      </trkpt>
      <trkpt lat="41.11331" lon="-1.41625">
        <ele>771.121</ele>
        <time>2013-05-09T13:13:33Z</time>
      </trkpt>
      <trkpt lat="41.11332" lon="-1.41623">
        <ele>771.108</ele>
        <time>2013-05-09T13:12:54Z</time>
      </trkpt>
      <trkpt lat="41.11327" lon="-1.41634">
        <ele>769.738</ele>
        <time>2013-05-09T12:05:32Z</time>
      </trkpt>
      <trkpt lat="41.11314" lon="-1.4165">
        <ele>769.219</ele>
        <time>2013-05-09T12:05:24Z</time>
      </trkpt>
      <trkpt lat="41.11289" lon="-1.41677">
        <ele>768.721</ele>
        <time>2013-05-09T12:05:13Z</time>
      </trkpt>
      <trkpt lat="41.11273" lon="-1.41693">
        <ele>767.886</ele>
        <time>2013-05-09T12:05:06Z</time>
      </trkpt>
      <trkpt lat="41.11269" lon="-1.41696">
        <ele>766.383</ele>
        <time>2013-05-09T12:05:04Z</time>
      </trkpt>
      <trkpt lat="41.11267" lon="-1.41698">
        <ele>766.37</ele>
        <time>2013-05-09T12:05:03Z</time>
      </trkpt>
      <trkpt lat="41.11265" lon="-1.417">
        <ele>766.398</ele>
        <time>2013-05-09T12:05:02Z</time>
      </trkpt>
      <trkpt lat="41.11256" lon="-1.41701">
        <ele>766.871</ele>
        <time>2013-05-09T12:03:21Z</time>
      </trkpt>
      <trkpt lat="41.11254" lon="-1.41701">
        <ele>766.856</ele>
        <time>2013-05-09T12:03:13Z</time>
      </trkpt>
      <trkpt lat="41.11241" lon="-1.41707">
        <ele>766.859</ele>
        <time>2013-05-09T12:03:05Z</time>
      </trkpt>
      <trkpt lat="41.11214" lon="-1.41714">
        <ele>765.814</ele>
        <time>2013-05-09T12:02:55Z</time>
      </trkpt>
      <trkpt lat="41.1117" lon="-1.41732">
        <ele>764.908</ele>
        <time>2013-05-09T12:02:41Z</time>
      </trkpt>
      <trkpt lat="41.11119" lon="-1.41754">
        <ele>763.996</ele>
        <time>2013-05-09T12:02:25Z</time>
      </trkpt>
      <trkpt lat="41.11078" lon="-1.41772">
        <ele>762.997</ele>
        <time>2013-05-09T12:02:12Z</time>
      </trkpt>
      <trkpt lat="41.11042" lon="-1.41796">
        <ele>762.039</ele>
        <time>2013-05-09T12:01:59Z</time>
      </trkpt>
      <trkpt lat="41.11009" lon="-1.41813">
        <ele>760.554</ele>
        <time>2013-05-09T12:01:47Z</time>
      </trkpt>
      <trkpt lat="41.10971" lon="-1.41834">
        <ele>759.651</ele>
        <time>2013-05-09T12:01:32Z</time>
      </trkpt>
      <trkpt lat="41.10969" lon="-1.41836">
        <ele>759.688</ele>
        <time>2013-05-09T12:01:31Z</time>
      </trkpt>
      <trkpt lat="41.10967" lon="-1.41837">
        <ele>759.696</ele>
        <time>2013-05-09T12:01:30Z</time>
      </trkpt>
      <trkpt lat="41.10965" lon="-1.41838">
        <ele>759.679</ele>
        <time>2013-05-09T12:01:29Z</time>
      </trkpt>
      <trkpt lat="41.10963" lon="-1.41839">
        <ele>759.659</ele>
        <time>2013-05-09T12:01:28Z</time>
      </trkpt>
      <trkpt lat="41.10961" lon="-1.4184">
        <ele>759.603</ele>
        <time>2013-05-09T12:01:27Z</time>
      </trkpt>
      <trkpt lat="41.10958" lon="-1.41841">
        <ele>759.623</ele>
        <time>2013-05-09T12:01:24Z</time>
      </trkpt>
      <trkpt lat="41.10959" lon="-1.41834">
        <ele>759.608</ele>
        <time>2013-05-09T12:01:00Z</time>
      </trkpt>
      <trkpt lat="41.10885" lon="-1.41881">
        <ele>758.656</ele>
        <time>2013-05-09T11:59:55Z</time>
      </trkpt>
      <trkpt lat="41.10883" lon="-1.41883">
        <ele>758.617</ele>
        <time>2013-05-09T11:59:54Z</time>
      </trkpt>
      <trkpt lat="41.10881" lon="-1.41886">
        <ele>758.699</ele>
        <time>2013-05-09T11:59:53Z</time>
      </trkpt>
      <trkpt lat="41.1088" lon="-1.41888">
        <ele>758.644</ele>
        <time>2013-05-09T11:59:52Z</time>
      </trkpt>
      <trkpt lat="41.10879" lon="-1.4189">
        <ele>758.621</ele>
        <time>2013-05-09T11:59:51Z</time>
      </trkpt>
      <trkpt lat="41.10878" lon="-1.41893">
        <ele>758.688</ele>
        <time>2013-05-09T11:59:50Z</time>
      </trkpt>
      <trkpt lat="41.10888" lon="-1.41918">
        <ele>757.226</ele>
        <time>2013-05-09T11:59:42Z</time>
      </trkpt>
      <trkpt lat="41.10921" lon="-1.41972">
        <ele>757.219</ele>
        <time>2013-05-09T11:59:30Z</time>
      </trkpt>
      <trkpt lat="41.10965" lon="-1.42032">
        <ele>757.765</ele>
        <time>2013-05-09T11:59:17Z</time>
      </trkpt>
      <trkpt lat="41.10999" lon="-1.42083">
        <ele>759.168</ele>
        <time>2013-05-09T11:59:06Z</time>
      </trkpt>
      <trkpt lat="41.11002" lon="-1.42088">
        <ele>759.114</ele>
        <time>2013-05-09T11:59:05Z</time>
      </trkpt>
      <trkpt lat="41.11005" lon="-1.42092">
        <ele>759.108</ele>
        <time>2013-05-09T11:59:04Z</time>
      </trkpt>
      <trkpt lat="41.11007" lon="-1.42096">
        <ele>759.147</ele>
        <time>2013-05-09T11:59:03Z</time>
      </trkpt>
      <trkpt lat="41.11009" lon="-1.421">
        <ele>759.148</ele>
        <time>2013-05-09T11:59:02Z</time>
      </trkpt>
      <trkpt lat="41.11012" lon="-1.42103">
        <ele>759.16</ele>
        <time>2013-05-09T11:59:01Z</time>
      </trkpt>
      <trkpt lat="41.11014" lon="-1.42105">
        <ele>759.165</ele>
        <time>2013-05-09T11:59:00Z</time>
      </trkpt>
      <trkpt lat="41.11015" lon="-1.42106">
        <ele>759.162</ele>
        <time>2013-05-09T11:58:59Z</time>
      </trkpt>
      <trkpt lat="41.11016" lon="-1.42107">
        <ele>759.169</ele>
        <time>2013-05-09T11:58:58Z</time>
      </trkpt>
      <trkpt lat="41.11017" lon="-1.42109">
        <ele>759.167</ele>
        <time>2013-05-09T11:58:57Z</time>
      </trkpt>
      <trkpt lat="41.11007" lon="-1.42138">
        <ele>759.61</ele>
        <time>2013-05-09T11:58:46Z</time>
      </trkpt>
      <trkpt lat="41.11007" lon="-1.42141">
        <ele>759.627</ele>
        <time>2013-05-09T11:58:45Z</time>
      </trkpt>
      <trkpt lat="41.11011" lon="-1.42143">
        <ele>759.668</ele>
        <time>2013-05-09T11:58:41Z</time>
      </trkpt>
      <trkpt lat="41.11013" lon="-1.42137">
        <ele>759.614</ele>
        <time>2013-05-09T11:58:37Z</time>
      </trkpt>
      <trkpt lat="41.11014" lon="-1.42131">
        <ele>759.608</ele>
        <time>2013-05-09T11:58:34Z</time>
      </trkpt>
      <trkpt lat="41.11029" lon="-1.42134">
        <ele>761.063</ele>
        <time>2013-05-09T11:58:24Z</time>
      </trkpt>
      <trkpt lat="41.11032" lon="-1.42137">
        <ele>761.054</ele>
        <time>2013-05-09T11:58:22Z</time>
      </trkpt>
      <trkpt lat="41.11048" lon="-1.42157">
        <ele>759.116</ele>
        <time>2013-05-09T11:58:12Z</time>
      </trkpt>
      <trkpt lat="41.11076" lon="-1.42196">
        <ele>758.111</ele>
        <time>2013-05-09T11:57:59Z</time>
      </trkpt>
      <trkpt lat="41.11107" lon="-1.42241">
        <ele>757.798</ele>
        <time>2013-05-09T11:57:45Z</time>
      </trkpt>
      <trkpt lat="41.11138" lon="-1.42285">
        <ele>756.715</ele>
        <time>2013-05-09T11:57:31Z</time>
      </trkpt>
      <trkpt lat="41.1116" lon="-1.42309">
        <ele>755.723</ele>
        <time>2013-05-09T11:57:22Z</time>
      </trkpt>
      <trkpt lat="41.11186" lon="-1.42346">
        <ele>754.326</ele>
        <time>2013-05-09T11:57:11Z</time>
      </trkpt>
      <trkpt lat="41.112" lon="-1.42367">
        <ele>754.342</ele>
        <time>2013-05-09T11:57:05Z</time>
      </trkpt>
      <trkpt lat="41.11221" lon="-1.42399">
        <ele>754.322</ele>
        <time>2013-05-09T11:56:56Z</time>
      </trkpt>
      <trkpt lat="41.11242" lon="-1.42435">
        <ele>754.814</ele>
        <time>2013-05-09T11:56:46Z</time>
      </trkpt>
      <trkpt lat="41.11278" lon="-1.42482">
        <ele>754.808</ele>
        <time>2013-05-09T11:56:34Z</time>
      </trkpt>
      <trkpt lat="41.11296" lon="-1.42494">
        <ele>756.785</ele>
        <time>2013-05-09T11:56:29Z</time>
      </trkpt>
      <trkpt lat="41.113" lon="-1.42494">
        <ele>757.256</ele>
        <time>2013-05-09T11:56:28Z</time>
      </trkpt>
      <trkpt lat="41.11323" lon="-1.42493">
        <ele>758.648</ele>
        <time>2013-05-09T11:56:21Z</time>
      </trkpt>
      <trkpt lat="41.11323" lon="-1.42493">
        <ele>758.183</ele>
        <time>2013-05-09T11:55:52Z</time>
      </trkpt>
      <trkpt lat="41.11324" lon="-1.42495">
        <ele>759.18</ele>
        <time>2013-05-09T11:54:42Z</time>
      </trkpt>
      <trkpt lat="41.11324" lon="-1.42493">
        <ele>760.147</ele>
        <time>2013-05-09T11:53:59Z</time>
      </trkpt>
      <trkpt lat="41.11323" lon="-1.42493">
        <ele>758.615</ele>
        <time>2013-05-09T11:52:33Z</time>
      </trkpt>
      <trkpt lat="41.11325" lon="-1.42492">
        <ele>758.698</ele>
        <time>2013-05-09T11:52:10Z</time>
      </trkpt>
      <trkpt lat="41.11324" lon="-1.42491">
        <ele>758.658</ele>
        <time>2013-05-09T11:51:44Z</time>
      </trkpt>
      <trkpt lat="41.11323" lon="-1.42493">
        <ele>758.652</ele>
        <time>2013-05-09T11:51:21Z</time>
      </trkpt>
      <trkpt lat="41.11326" lon="-1.42496">
        <ele>760.117</ele>
        <time>2013-05-09T11:51:13Z</time>
      </trkpt>
      <trkpt lat="41.11332" lon="-1.42498">
        <ele>760.108</ele>
        <time>2013-05-09T11:51:10Z</time>
      </trkpt>
      <trkpt lat="41.11333" lon="-1.42499">
        <ele>760.176</ele>
        <time>2013-05-09T11:51:09Z</time>
      </trkpt>
      <trkpt lat="41.11335" lon="-1.42501">
        <ele>760.577</ele>
        <time>2013-05-09T11:51:08Z</time>
      </trkpt>
      <trkpt lat="41.11337" lon="-1.42523">
        <ele>761.079</ele>
        <time>2013-05-09T11:50:39Z</time>
      </trkpt>
      <trkpt lat="41.1134" lon="-1.42537">
        <ele>762.044</ele>
        <time>2013-05-09T11:50:32Z</time>
      </trkpt>
      <trkpt lat="41.11352" lon="-1.4258">
        <ele>762.511</ele>
        <time>2013-05-09T11:50:22Z</time>
      </trkpt>
      <trkpt lat="41.11368" lon="-1.42617">
        <ele>762.098</ele>
        <time>2013-05-09T11:50:09Z</time>
      </trkpt>
      <trkpt lat="41.11396" lon="-1.42662">
        <ele>760.586</ele>
        <time>2013-05-09T11:49:56Z</time>
      </trkpt>
      <trkpt lat="41.11419" lon="-1.42707">
        <ele>758.179</ele>
        <time>2013-05-09T11:49:44Z</time>
      </trkpt>
      <trkpt lat="41.11435" lon="-1.42751">
        <ele>757.296</ele>
        <time>2013-05-09T11:49:32Z</time>
      </trkpt>
      <trkpt lat="41.11456" lon="-1.42785">
        <ele>755.731</ele>
        <time>2013-05-09T11:49:22Z</time>
      </trkpt>
      <trkpt lat="41.11496" lon="-1.42838">
        <ele>753.324</ele>
        <time>2013-05-09T11:49:12Z</time>
      </trkpt>
      <trkpt lat="41.11547" lon="-1.42942">
        <ele>753.808</ele>
        <time>2013-05-09T11:48:57Z</time>
      </trkpt>
      <trkpt lat="41.1155" lon="-1.42949">
        <ele>753.84</ele>
        <time>2013-05-09T11:48:56Z</time>
      </trkpt>
      <trkpt lat="41.11554" lon="-1.42956">
        <ele>753.871</ele>
        <time>2013-05-09T11:48:55Z</time>
      </trkpt>
      <trkpt lat="41.11557" lon="-1.42963">
        <ele>753.873</ele>
        <time>2013-05-09T11:48:54Z</time>
      </trkpt>
      <trkpt lat="41.11559" lon="-1.42972">
        <ele>754.338</ele>
        <time>2013-05-09T11:48:53Z</time>
      </trkpt>
      <trkpt lat="41.11561" lon="-1.4298">
        <ele>754.345</ele>
        <time>2013-05-09T11:48:52Z</time>
      </trkpt>
      <trkpt lat="41.11572" lon="-1.4305">
        <ele>755.382</ele>
        <time>2013-05-09T11:48:43Z</time>
      </trkpt>
      <trkpt lat="41.11574" lon="-1.43057">
        <ele>755.32</ele>
        <time>2013-05-09T11:48:42Z</time>
      </trkpt>
      <trkpt lat="41.11606" lon="-1.43129">
        <ele>758.123</ele>
        <time>2013-05-09T11:48:30Z</time>
      </trkpt>
      <trkpt lat="41.11633" lon="-1.43185">
        <ele>758.177</ele>
        <time>2013-05-09T11:48:17Z</time>
      </trkpt>
      <trkpt lat="41.11661" lon="-1.43228">
        <ele>756.261</ele>
        <time>2013-05-09T11:48:01Z</time>
      </trkpt>
      <trkpt lat="41.11684" lon="-1.43257">
        <ele>754.327</ele>
        <time>2013-05-09T11:47:47Z</time>
      </trkpt>
      <trkpt lat="41.1171" lon="-1.43276">
        <ele>752.408</ele>
        <time>2013-05-09T11:47:35Z</time>
      </trkpt>
      <trkpt lat="41.11756" lon="-1.43304">
        <ele>751.428</ele>
        <time>2013-05-09T11:47:19Z</time>
      </trkpt>
      <trkpt lat="41.11795" lon="-1.43333">
        <ele>750.079</ele>
        <time>2013-05-09T11:47:07Z</time>
      </trkpt>
      <trkpt lat="41.11824" lon="-1.43363">
        <ele>748.581</ele>
        <time>2013-05-09T11:47:00Z</time>
      </trkpt>
      <trkpt lat="41.11895" lon="-1.43472">
        <ele>750.026</ele>
        <time>2013-05-09T11:46:45Z</time>
      </trkpt>
      <trkpt lat="41.1196" lon="-1.43557">
        <ele>752.483</ele>
        <time>2013-05-09T11:46:34Z</time>
      </trkpt>
      <trkpt lat="41.11993" lon="-1.43615">
        <ele>755.79</ele>
        <time>2013-05-09T11:46:26Z</time>
      </trkpt>
      <trkpt lat="41.12002" lon="-1.43633">
        <ele>757.268</ele>
        <time>2013-05-09T11:46:23Z</time>
      </trkpt>
      <trkpt lat="41.1204" lon="-1.43692">
        <ele>755.761</ele>
        <time>2013-05-09T11:46:09Z</time>
      </trkpt>
      <trkpt lat="41.12076" lon="-1.43733">
        <ele>754.312</ele>
        <time>2013-05-09T11:45:54Z</time>
      </trkpt>
      <trkpt lat="41.12105" lon="-1.43767">
        <ele>752.432</ele>
        <time>2013-05-09T11:45:40Z</time>
      </trkpt>
      <trkpt lat="41.12132" lon="-1.43793">
        <ele>750.505</ele>
        <time>2013-05-09T11:45:27Z</time>
      </trkpt>
      <trkpt lat="41.12171" lon="-1.43818">
        <ele>749.008</ele>
        <time>2013-05-09T11:45:11Z</time>
      </trkpt>
      <trkpt lat="41.12217" lon="-1.43842">
        <ele>746.662</ele>
        <time>2013-05-09T11:44:56Z</time>
      </trkpt>
      <trkpt lat="41.12275" lon="-1.43874">
        <ele>745.233</ele>
        <time>2013-05-09T11:44:43Z</time>
      </trkpt>
      <trkpt lat="41.12333" lon="-1.43905">
        <ele>744.715</ele>
        <time>2013-05-09T11:44:33Z</time>
      </trkpt>
      <trkpt lat="41.1241" lon="-1.43969">
        <ele>744.25</ele>
        <time>2013-05-09T11:44:20Z</time>
      </trkpt>
      <trkpt lat="41.12416" lon="-1.43975">
        <ele>744.287</ele>
        <time>2013-05-09T11:44:19Z</time>
      </trkpt>
      <trkpt lat="41.12459" lon="-1.44034">
        <ele>745.224</ele>
        <time>2013-05-09T11:44:11Z</time>
      </trkpt>
      <trkpt lat="41.12542" lon="-1.44097">
        <ele>747.172</ele>
        <time>2013-05-09T11:43:59Z</time>
      </trkpt>
      <trkpt lat="41.12598" lon="-1.44147">
        <ele>749.045</ele>
        <time>2013-05-09T11:43:51Z</time>
      </trkpt>
      <trkpt lat="41.12659" lon="-1.44229">
        <ele>751.997</ele>
        <time>2013-05-09T11:43:39Z</time>
      </trkpt>
      <trkpt lat="41.12665" lon="-1.44234">
        <ele>751.923</ele>
        <time>2013-05-09T11:43:38Z</time>
      </trkpt>
      <trkpt lat="41.12724" lon="-1.44272">
        <ele>752.925</ele>
        <time>2013-05-09T11:43:27Z</time>
      </trkpt>
      <trkpt lat="41.12774" lon="-1.44293">
        <ele>753.308</ele>
        <time>2013-05-09T11:43:14Z</time>
      </trkpt>
      <trkpt lat="41.1281" lon="-1.44312">
        <ele>752.45</ele>
        <time>2013-05-09T11:43:01Z</time>
      </trkpt>
      <trkpt lat="41.12841" lon="-1.44335">
        <ele>750.061</ele>
        <time>2013-05-09T11:42:47Z</time>
      </trkpt>
      <trkpt lat="41.12879" lon="-1.44345">
        <ele>747.193</ele>
        <time>2013-05-09T11:42:32Z</time>
      </trkpt>
      <trkpt lat="41.12911" lon="-1.44353">
        <ele>745.228</ele>
        <time>2013-05-09T11:42:19Z</time>
      </trkpt>
      <trkpt lat="41.12932" lon="-1.44369">
        <ele>744.285</ele>
        <time>2013-05-09T11:42:12Z</time>
      </trkpt>
      <trkpt lat="41.12979" lon="-1.44416">
        <ele>744.292</ele>
        <time>2013-05-09T11:42:00Z</time>
      </trkpt>
      <trkpt lat="41.13045" lon="-1.44451">
        <ele>745.63</ele>
        <time>2013-05-09T11:41:46Z</time>
      </trkpt>
      <trkpt lat="41.13049" lon="-1.44454">
        <ele>745.663</ele>
        <time>2013-05-09T11:41:45Z</time>
      </trkpt>
      <trkpt lat="41.13061" lon="-1.44463">
        <ele>747.118</ele>
        <time>2013-05-09T11:41:42Z</time>
      </trkpt>
      <trkpt lat="41.13077" lon="-1.44478">
        <ele>747.198</ele>
        <time>2013-05-09T11:41:38Z</time>
      </trkpt>
      <trkpt lat="41.13108" lon="-1.44514">
        <ele>747.117</ele>
        <time>2013-05-09T11:41:27Z</time>
      </trkpt>
      <trkpt lat="41.13134" lon="-1.44544">
        <ele>747.108</ele>
        <time>2013-05-09T11:41:16Z</time>
      </trkpt>
      <trkpt lat="41.13166" lon="-1.44572">
        <ele>745.622</ele>
        <time>2013-05-09T11:41:02Z</time>
      </trkpt>
      <trkpt lat="41.13196" lon="-1.44597">
        <ele>743.773</ele>
        <time>2013-05-09T11:40:47Z</time>
      </trkpt>
      <trkpt lat="41.13221" lon="-1.44622">
        <ele>741.865</ele>
        <time>2013-05-09T11:40:36Z</time>
      </trkpt>
      <trkpt lat="41.1327" lon="-1.44676">
        <ele>739.42</ele>
        <time>2013-05-09T11:40:23Z</time>
      </trkpt>
      <trkpt lat="41.13279" lon="-1.44686">
        <ele>738.477</ele>
        <time>2013-05-09T11:40:21Z</time>
      </trkpt>
      <trkpt lat="41.13362" lon="-1.44748">
        <ele>738.494</ele>
        <time>2013-05-09T11:40:05Z</time>
      </trkpt>
      <trkpt lat="41.13422" lon="-1.44812">
        <ele>738.442</ele>
        <time>2013-05-09T11:39:53Z</time>
      </trkpt>
      <trkpt lat="41.13487" lon="-1.4488">
        <ele>738.975</ele>
        <time>2013-05-09T11:39:41Z</time>
      </trkpt>
      <trkpt lat="41.13575" lon="-1.44943">
        <ele>739.926</ele>
        <time>2013-05-09T11:39:26Z</time>
      </trkpt>
      <trkpt lat="41.13623" lon="-1.44977">
        <ele>742.347</ele>
        <time>2013-05-09T11:39:18Z</time>
      </trkpt>
      <trkpt lat="41.13674" lon="-1.4505">
        <ele>745.611</ele>
        <time>2013-05-09T11:39:07Z</time>
      </trkpt>
      <trkpt lat="41.13721" lon="-1.45122">
        <ele>747.108</ele>
        <time>2013-05-09T11:38:53Z</time>
      </trkpt>
      <trkpt lat="41.13753" lon="-1.45168">
        <ele>747.173</ele>
        <time>2013-05-09T11:38:40Z</time>
      </trkpt>
      <trkpt lat="41.13786" lon="-1.45207">
        <ele>745.644</ele>
        <time>2013-05-09T11:38:23Z</time>
      </trkpt>
      <trkpt lat="41.13807" lon="-1.45232">
        <ele>743.276</ele>
        <time>2013-05-09T11:38:11Z</time>
      </trkpt>
      <trkpt lat="41.13834" lon="-1.45265">
        <ele>741.381</ele>
        <time>2013-05-09T11:37:58Z</time>
      </trkpt>
      <trkpt lat="41.1387" lon="-1.45314">
        <ele>739.458</ele>
        <time>2013-05-09T11:37:42Z</time>
      </trkpt>
      <trkpt lat="41.13905" lon="-1.45365">
        <ele>737.045</ele>
        <time>2013-05-09T11:37:26Z</time>
      </trkpt>
      <trkpt lat="41.13955" lon="-1.45443">
        <ele>737.033</ele>
        <time>2013-05-09T11:37:10Z</time>
      </trkpt>
      <trkpt lat="41.14004" lon="-1.45519">
        <ele>737.066</ele>
        <time>2013-05-09T11:36:55Z</time>
      </trkpt>
      <trkpt lat="41.14045" lon="-1.45575">
        <ele>737.038</ele>
        <time>2013-05-09T11:36:45Z</time>
      </trkpt>
      <trkpt lat="41.14121" lon="-1.45661">
        <ele>738.07</ele>
        <time>2013-05-09T11:36:32Z</time>
      </trkpt>
      <trkpt lat="41.14181" lon="-1.45724">
        <ele>741.317</ele>
        <time>2013-05-09T11:36:22Z</time>
      </trkpt>
      <trkpt lat="41.14186" lon="-1.45729">
        <ele>742.308</ele>
        <time>2013-05-09T11:36:21Z</time>
      </trkpt>
      <trkpt lat="41.14195" lon="-1.4574">
        <ele>742.324</ele>
        <time>2013-05-09T11:36:19Z</time>
      </trkpt>
      <trkpt lat="41.14228" lon="-1.45767">
        <ele>743.745</ele>
        <time>2013-05-09T11:36:11Z</time>
      </trkpt>
      <trkpt lat="41.14276" lon="-1.45792">
        <ele>743.297</ele>
        <time>2013-05-09T11:35:58Z</time>
      </trkpt>
      <trkpt lat="41.14326" lon="-1.45805">
        <ele>742.322</ele>
        <time>2013-05-09T11:35:44Z</time>
      </trkpt>
      <trkpt lat="41.14371" lon="-1.45814">
        <ele>739.959</ele>
        <time>2013-05-09T11:35:33Z</time>
      </trkpt>
      <trkpt lat="41.14418" lon="-1.45843">
        <ele>741.346</ele>
        <time>2013-05-09T11:35:23Z</time>
      </trkpt>
      <trkpt lat="41.14467" lon="-1.45907">
        <ele>741.344</ele>
        <time>2013-05-09T11:35:09Z</time>
      </trkpt>
      <trkpt lat="41.14512" lon="-1.4597">
        <ele>741.337</ele>
        <time>2013-05-09T11:34:54Z</time>
      </trkpt>
      <trkpt lat="41.14544" lon="-1.4601">
        <ele>741.399</ele>
        <time>2013-05-09T11:34:42Z</time>
      </trkpt>
      <trkpt lat="41.14583" lon="-1.4606">
        <ele>740.807</ele>
        <time>2013-05-09T11:34:28Z</time>
      </trkpt>
      <trkpt lat="41.14621" lon="-1.46099">
        <ele>740.427</ele>
        <time>2013-05-09T11:34:16Z</time>
      </trkpt>
      <trkpt lat="41.14657" lon="-1.46135">
        <ele>740.408</ele>
        <time>2013-05-09T11:34:04Z</time>
      </trkpt>
      <trkpt lat="41.1469" lon="-1.46173">
        <ele>739.45</ele>
        <time>2013-05-09T11:33:49Z</time>
      </trkpt>
      <trkpt lat="41.14721" lon="-1.46221">
        <ele>738.011</ele>
        <time>2013-05-09T11:33:33Z</time>
      </trkpt>
      <trkpt lat="41.14753" lon="-1.46271">
        <ele>737.593</ele>
        <time>2013-05-09T11:33:17Z</time>
      </trkpt>
      <trkpt lat="41.14782" lon="-1.46313">
        <ele>737.588</ele>
        <time>2013-05-09T11:33:03Z</time>
      </trkpt>
      <trkpt lat="41.14806" lon="-1.46357">
        <ele>737.065</ele>
        <time>2013-05-09T11:32:50Z</time>
      </trkpt>
      <trkpt lat="41.14822" lon="-1.46401">
        <ele>737.012</ele>
        <time>2013-05-09T11:32:37Z</time>
      </trkpt>
      <trkpt lat="41.14823" lon="-1.46405">
        <ele>737.01</ele>
        <time>2013-05-09T11:32:36Z</time>
      </trkpt>
      <trkpt lat="41.14824" lon="-1.46408">
        <ele>737.073</ele>
        <time>2013-05-09T11:32:35Z</time>
      </trkpt>
      <trkpt lat="41.14825" lon="-1.46411">
        <ele>737.055</ele>
        <time>2013-05-09T11:32:34Z</time>
      </trkpt>
      <trkpt lat="41.14827" lon="-1.46414">
        <ele>737.007</ele>
        <time>2013-05-09T11:32:33Z</time>
      </trkpt>
      <trkpt lat="41.14829" lon="-1.46416">
        <ele>737.017</ele>
        <time>2013-05-09T11:32:32Z</time>
      </trkpt>
      <trkpt lat="41.14831" lon="-1.46418">
        <ele>737.008</ele>
        <time>2013-05-09T11:32:31Z</time>
      </trkpt>
      <trkpt lat="41.14832" lon="-1.46419">
        <ele>737.056</ele>
        <time>2013-05-09T11:32:30Z</time>
      </trkpt>
      <trkpt lat="41.14834" lon="-1.46421">
        <ele>737.047</ele>
        <time>2013-05-09T11:32:29Z</time>
      </trkpt>
      <trkpt lat="41.14837" lon="-1.46424">
        <ele>737.039</ele>
        <time>2013-05-09T11:32:12Z</time>
      </trkpt>
      <trkpt lat="41.14841" lon="-1.46427">
        <ele>737.074</ele>
        <time>2013-05-09T11:32:03Z</time>
      </trkpt>
      <trkpt lat="41.14873" lon="-1.46449">
        <ele>736.521</ele>
        <time>2013-05-09T11:31:51Z</time>
      </trkpt>
      <trkpt lat="41.14906" lon="-1.46466">
        <ele>736.018</ele>
        <time>2013-05-09T11:31:39Z</time>
      </trkpt>
      <trkpt lat="41.14918" lon="-1.46478">
        <ele>734.656</ele>
        <time>2013-05-09T11:31:34Z</time>
      </trkpt>
      <trkpt lat="41.14942" lon="-1.46524">
        <ele>734.619</ele>
        <time>2013-05-09T11:31:24Z</time>
      </trkpt>
      <trkpt lat="41.14945" lon="-1.4653">
        <ele>734.616</ele>
        <time>2013-05-09T11:31:23Z</time>
      </trkpt>
      <trkpt lat="41.14959" lon="-1.46557">
        <ele>735.676</ele>
        <time>2013-05-09T11:31:18Z</time>
      </trkpt>
      <trkpt lat="41.14977" lon="-1.46587">
        <ele>735.613</ele>
        <time>2013-05-09T11:31:10Z</time>
      </trkpt>
      <trkpt lat="41.14988" lon="-1.46602">
        <ele>735.108</ele>
        <time>2013-05-09T11:31:02Z</time>
      </trkpt>
      <trkpt lat="41.14989" lon="-1.46604">
        <ele>735.612</ele>
        <time>2013-05-09T11:31:01Z</time>
      </trkpt>
      <trkpt lat="41.1499" lon="-1.46605">
        <ele>735.183</ele>
        <time>2013-05-09T11:31:00Z</time>
      </trkpt>
      <trkpt lat="41.14992" lon="-1.46607">
        <ele>735.145</ele>
        <time>2013-05-09T11:30:59Z</time>
      </trkpt>
      <trkpt lat="41.14993" lon="-1.46609">
        <ele>735.65</ele>
        <time>2013-05-09T11:30:58Z</time>
      </trkpt>
      <trkpt lat="41.15007" lon="-1.46637">
        <ele>733.187</ele>
        <time>2013-05-09T11:03:39Z</time>
      </trkpt>
      <trkpt lat="41.15013" lon="-1.46651">
        <ele>734.134</ele>
        <time>2013-05-09T11:03:28Z</time>
      </trkpt>
      <trkpt lat="41.15022" lon="-1.46671">
        <ele>736.042</ele>
        <time>2013-05-09T11:03:17Z</time>
      </trkpt>
      <trkpt lat="41.15022" lon="-1.4668">
        <ele>736.065</ele>
        <time>2013-05-09T11:03:08Z</time>
      </trkpt>
      <trkpt lat="41.15023" lon="-1.46682">
        <ele>736.033</ele>
        <time>2013-05-09T11:02:47Z</time>
      </trkpt>
      <trkpt lat="41.15023" lon="-1.46686">
        <ele>736.023</ele>
        <time>2013-05-09T11:02:38Z</time>
      </trkpt>
      <trkpt lat="41.15019" lon="-1.46704">
        <ele>735.115</ele>
        <time>2013-05-09T11:02:27Z</time>
      </trkpt>
      <trkpt lat="41.15018" lon="-1.46706">
        <ele>735.108</ele>
        <time>2013-05-09T11:02:26Z</time>
      </trkpt>
      <trkpt lat="41.15017" lon="-1.46707">
        <ele>734.634</ele>
        <time>2013-05-09T11:02:25Z</time>
      </trkpt>
      <trkpt lat="41.15016" lon="-1.46709">
        <ele>734.615</ele>
        <time>2013-05-09T11:02:24Z</time>
      </trkpt>
      <trkpt lat="41.15015" lon="-1.4671">
        <ele>734.647</ele>
        <time>2013-05-09T11:02:23Z</time>
      </trkpt>
      <trkpt lat="41.15014" lon="-1.46712">
        <ele>734.652</ele>
        <time>2013-05-09T11:02:22Z</time>
      </trkpt>
      <trkpt lat="41.15012" lon="-1.46713">
        <ele>734.119</ele>
        <time>2013-05-09T11:02:21Z</time>
      </trkpt>
      <trkpt lat="41.1501" lon="-1.46716">
        <ele>734.166</ele>
        <time>2013-05-09T11:02:19Z</time>
      </trkpt>
      <trkpt lat="41.15009" lon="-1.46717">
        <ele>733.114</ele>
        <time>2013-05-09T11:02:18Z</time>
      </trkpt>
      <trkpt lat="41.15008" lon="-1.46719">
        <ele>733.137</ele>
        <time>2013-05-09T11:02:17Z</time>
      </trkpt>
      <trkpt lat="41.15007" lon="-1.46721">
        <ele>733.195</ele>
        <time>2013-05-09T11:02:16Z</time>
      </trkpt>
      <trkpt lat="41.15006" lon="-1.46722">
        <ele>733.149</ele>
        <time>2013-05-09T11:02:15Z</time>
      </trkpt>
      <trkpt lat="41.15006" lon="-1.46724">
        <ele>733.123</ele>
        <time>2013-05-09T11:02:14Z</time>
      </trkpt>
      <trkpt lat="41.15007" lon="-1.46725">
        <ele>733.108</ele>
        <time>2013-05-09T11:02:13Z</time>
      </trkpt>
      <trkpt lat="41.15008" lon="-1.46726">
        <ele>733.15</ele>
        <time>2013-05-09T11:02:12Z</time>
      </trkpt>
      <trkpt lat="41.1501" lon="-1.46727">
        <ele>733.111</ele>
        <time>2013-05-09T11:02:11Z</time>
      </trkpt>
      <trkpt lat="41.15012" lon="-1.46726">
        <ele>733.113</ele>
        <time>2013-05-09T11:02:10Z</time>
      </trkpt>
      <trkpt lat="41.15016" lon="-1.46722">
        <ele>733.638</ele>
        <time>2013-05-09T11:02:07Z</time>
      </trkpt>
      <trkpt lat="41.15023" lon="-1.46715">
        <ele>734.185</ele>
        <time>2013-05-09T11:01:55Z</time>
      </trkpt>
      <trkpt lat="41.15033" lon="-1.46697">
        <ele>735.192</ele>
        <time>2013-05-09T11:01:44Z</time>
      </trkpt>
      <trkpt lat="41.15035" lon="-1.46696">
        <ele>735.19</ele>
        <time>2013-05-09T11:01:43Z</time>
      </trkpt>
      <trkpt lat="41.15036" lon="-1.46695">
        <ele>735.133</ele>
        <time>2013-05-09T11:01:42Z</time>
      </trkpt>
      <trkpt lat="41.15037" lon="-1.46694">
        <ele>735.158</ele>
        <time>2013-05-09T11:01:41Z</time>
      </trkpt>
      <trkpt lat="41.15038" lon="-1.46694">
        <ele>735.152</ele>
        <time>2013-05-09T11:01:40Z</time>
      </trkpt>
      <trkpt lat="41.15039" lon="-1.46693">
        <ele>735.117</ele>
        <time>2013-05-09T11:01:39Z</time>
      </trkpt>
      <trkpt lat="41.15039" lon="-1.46692">
        <ele>735.108</ele>
        <time>2013-05-09T11:01:38Z</time>
      </trkpt>
      <trkpt lat="41.15041" lon="-1.46692">
        <ele>735.156</ele>
        <time>2013-05-09T11:01:36Z</time>
      </trkpt>
      <trkpt lat="41.15048" lon="-1.46693">
        <ele>735.627</ele>
        <time>2013-05-09T11:01:32Z</time>
      </trkpt>
      <trkpt lat="41.15064" lon="-1.46716">
        <ele>737.019</ele>
        <time>2013-05-09T11:01:23Z</time>
      </trkpt>
      <trkpt lat="41.15066" lon="-1.46718">
        <ele>737.034</ele>
        <time>2013-05-09T11:01:16Z</time>
      </trkpt>
      <trkpt lat="41.15065" lon="-1.46719">
        <ele>737.031</ele>
        <time>2013-05-09T11:00:56Z</time>
      </trkpt>
      <trkpt lat="41.15078" lon="-1.46734">
        <ele>738.418</ele>
        <time>2013-05-09T11:00:48Z</time>
      </trkpt>
      <trkpt lat="41.1508" lon="-1.46737">
        <ele>738.426</ele>
        <time>2013-05-09T11:00:47Z</time>
      </trkpt>
      <trkpt lat="41.15082" lon="-1.46739">
        <ele>738.929</ele>
        <time>2013-05-09T11:00:46Z</time>
      </trkpt>
      <trkpt lat="41.15085" lon="-1.4674">
        <ele>738.989</ele>
        <time>2013-05-09T11:00:45Z</time>
      </trkpt>
      <trkpt lat="41.15087" lon="-1.46742">
        <ele>738.906</ele>
        <time>2013-05-09T11:00:44Z</time>
      </trkpt>
      <trkpt lat="41.15088" lon="-1.46743">
        <ele>738.926</ele>
        <time>2013-05-09T11:00:43Z</time>
      </trkpt>
      <trkpt lat="41.15089" lon="-1.46743">
        <ele>738.908</ele>
        <time>2013-05-09T11:00:05Z</time>
      </trkpt>
      <trkpt lat="41.1509" lon="-1.46743">
        <ele>738.969</ele>
        <time>2013-05-09T10:59:56Z</time>
      </trkpt>
      <trkpt lat="41.15091" lon="-1.46744">
        <ele>738.93</ele>
        <time>2013-05-09T10:59:55Z</time>
      </trkpt>
      <trkpt lat="41.15094" lon="-1.46748">
        <ele>738.992</ele>
        <time>2013-05-09T10:59:51Z</time>
      </trkpt>
      <trkpt lat="41.15108" lon="-1.46761">
        <ele>739.957</ele>
        <time>2013-05-09T10:59:42Z</time>
      </trkpt>
      <trkpt lat="41.15116" lon="-1.46766">
        <ele>741.874</ele>
        <time>2013-05-09T10:59:38Z</time>
      </trkpt>
      <trkpt lat="41.15127" lon="-1.46772">
        <ele>744.721</ele>
        <time>2013-05-09T10:59:33Z</time>
      </trkpt>
      <trkpt lat="41.15145" lon="-1.46776">
        <ele>745.679</ele>
        <time>2013-05-09T10:59:23Z</time>
      </trkpt>
      <trkpt lat="41.15182" lon="-1.46794">
        <ele>746.612</ele>
        <time>2013-05-09T10:59:11Z</time>
      </trkpt>
      <trkpt lat="41.152" lon="-1.46797">
        <ele>746.644</ele>
        <time>2013-05-09T10:59:04Z</time>
      </trkpt>
      <trkpt lat="41.1523" lon="-1.46811">
        <ele>748.005</ele>
        <time>2013-05-09T10:58:55Z</time>
      </trkpt>
      <trkpt lat="41.15268" lon="-1.46829">
        <ele>749.515</ele>
        <time>2013-05-09T10:58:45Z</time>
      </trkpt>
      <trkpt lat="41.15277" lon="-1.46835">
        <ele>750.008</ele>
        <time>2013-05-09T10:58:43Z</time>
      </trkpt>
      <trkpt lat="41.15304" lon="-1.46865">
        <ele>752.425</ele>
        <time>2013-05-09T10:58:35Z</time>
      </trkpt>
      <trkpt lat="41.15325" lon="-1.46871">
        <ele>753.816</ele>
        <time>2013-05-09T10:58:26Z</time>
      </trkpt>
      <trkpt lat="41.15352" lon="-1.46862">
        <ele>754.328</ele>
        <time>2013-05-09T10:58:14Z</time>
      </trkpt>
      <trkpt lat="41.15377" lon="-1.46871">
        <ele>753.383</ele>
        <time>2013-05-09T10:58:02Z</time>
      </trkpt>
      <trkpt lat="41.15386" lon="-1.46894">
        <ele>753.34</ele>
        <time>2013-05-09T10:57:55Z</time>
      </trkpt>
      <trkpt lat="41.15383" lon="-1.469">
        <ele>753.347</ele>
        <time>2013-05-09T10:57:53Z</time>
      </trkpt>
      <trkpt lat="41.15371" lon="-1.46933">
        <ele>751.965</ele>
        <time>2013-05-09T10:57:40Z</time>
      </trkpt>
      <trkpt lat="41.15376" lon="-1.46965">
        <ele>749.068</ele>
        <time>2013-05-09T10:57:28Z</time>
      </trkpt>
      <trkpt lat="41.1539" lon="-1.46992">
        <ele>747.666</ele>
        <time>2013-05-09T10:57:16Z</time>
      </trkpt>
      <trkpt lat="41.15397" lon="-1.47019">
        <ele>745.229</ele>
        <time>2013-05-09T10:57:03Z</time>
      </trkpt>
      <trkpt lat="41.15399" lon="-1.47046">
        <ele>742.821</ele>
        <time>2013-05-09T10:56:52Z</time>
      </trkpt>
      <trkpt lat="41.15397" lon="-1.47075">
        <ele>742.808</ele>
        <time>2013-05-09T10:56:42Z</time>
      </trkpt>
      <trkpt lat="41.15402" lon="-1.47099">
        <ele>743.277</ele>
        <time>2013-05-09T10:56:33Z</time>
      </trkpt>
      <trkpt lat="41.15402" lon="-1.471">
        <ele>743.278</ele>
        <time>2013-05-09T10:56:29Z</time>
      </trkpt>
      <trkpt lat="41.15402" lon="-1.47102">
        <ele>744.29</ele>
        <time>2013-05-09T10:56:10Z</time>
      </trkpt>
      <trkpt lat="41.15403" lon="-1.471">
        <ele>743.285</ele>
        <time>2013-05-09T10:55:59Z</time>
      </trkpt>
      <trkpt lat="41.15417" lon="-1.47124">
        <ele>742.812</ele>
        <time>2013-05-09T10:55:46Z</time>
      </trkpt>
      <trkpt lat="41.15434" lon="-1.47149">
        <ele>741.889</ele>
        <time>2013-05-09T10:55:32Z</time>
      </trkpt>
      <trkpt lat="41.15449" lon="-1.47175">
        <ele>739.967</ele>
        <time>2013-05-09T10:55:17Z</time>
      </trkpt>
      <trkpt lat="41.15454" lon="-1.47199">
        <ele>738.93</ele>
        <time>2013-05-09T10:55:05Z</time>
      </trkpt>
      <trkpt lat="41.15462" lon="-1.47218">
        <ele>737.589</ele>
        <time>2013-05-09T10:54:52Z</time>
      </trkpt>
      <trkpt lat="41.15477" lon="-1.47229">
        <ele>736.006</ele>
        <time>2013-05-09T10:54:39Z</time>
      </trkpt>
      <trkpt lat="41.15486" lon="-1.47219">
        <ele>734.626</ele>
        <time>2013-05-09T10:54:31Z</time>
      </trkpt>
      <trkpt lat="41.15497" lon="-1.47221">
        <ele>733.608</ele>
        <time>2013-05-09T10:54:25Z</time>
      </trkpt>
      <trkpt lat="41.15498" lon="-1.47223">
        <ele>733.659</ele>
        <time>2013-05-09T10:54:24Z</time>
      </trkpt>
      <trkpt lat="41.15482" lon="-1.47255">
        <ele>732.77</ele>
        <time>2013-05-09T10:54:11Z</time>
      </trkpt>
      <trkpt lat="41.15462" lon="-1.47293">
        <ele>731.222</ele>
        <time>2013-05-09T10:53:56Z</time>
      </trkpt>
      <trkpt lat="41.15443" lon="-1.47318">
        <ele>730.747</ele>
        <time>2013-05-09T10:53:45Z</time>
      </trkpt>
      <trkpt lat="41.15415" lon="-1.47346">
        <ele>729.394</ele>
        <time>2013-05-09T10:53:30Z</time>
      </trkpt>
      <trkpt lat="41.15411" lon="-1.4735">
        <ele>729.321</ele>
        <time>2013-05-09T10:53:28Z</time>
      </trkpt>
      <trkpt lat="41.15402" lon="-1.47368">
        <ele>729.889</ele>
        <time>2013-05-09T10:53:23Z</time>
      </trkpt>
      <trkpt lat="41.15403" lon="-1.47373">
        <ele>730.392</ele>
        <time>2013-05-09T10:53:22Z</time>
      </trkpt>
      <trkpt lat="41.15404" lon="-1.47377">
        <ele>730.326</ele>
        <time>2013-05-09T10:53:21Z</time>
      </trkpt>
      <trkpt lat="41.15405" lon="-1.47379">
        <ele>730.347</ele>
        <time>2013-05-09T10:53:20Z</time>
      </trkpt>
      <trkpt lat="41.15407" lon="-1.4739">
        <ele>731.711</ele>
        <time>2013-05-09T10:53:14Z</time>
      </trkpt>
      <trkpt lat="41.15405" lon="-1.47389">
        <ele>731.708</ele>
        <time>2013-05-09T10:53:13Z</time>
      </trkpt>
      <trkpt lat="41.15404" lon="-1.47389">
        <ele>731.723</ele>
        <time>2013-05-09T10:53:12Z</time>
      </trkpt>
      <trkpt lat="41.15403" lon="-1.47389">
        <ele>731.784</ele>
        <time>2013-05-09T10:53:11Z</time>
      </trkpt>
      <trkpt lat="41.15402" lon="-1.47389">
        <ele>731.796</ele>
        <time>2013-05-09T10:53:10Z</time>
      </trkpt>
      <trkpt lat="41.154" lon="-1.47388">
        <ele>731.751</ele>
        <time>2013-05-09T10:53:09Z</time>
      </trkpt>
      <trkpt lat="41.15399" lon="-1.47389">
        <ele>731.728</ele>
        <time>2013-05-09T10:53:08Z</time>
      </trkpt>
      <trkpt lat="41.15399" lon="-1.4739">
        <ele>731.745</ele>
        <time>2013-05-09T10:53:07Z</time>
      </trkpt>
      <trkpt lat="41.15401" lon="-1.47394">
        <ele>731.783</ele>
        <time>2013-05-09T10:53:05Z</time>
      </trkpt>
      <trkpt lat="41.15423" lon="-1.47415">
        <ele>731.286</ele>
        <time>2013-05-09T10:52:55Z</time>
      </trkpt>
      <trkpt lat="41.15466" lon="-1.4746">
        <ele>729.396</ele>
        <time>2013-05-09T10:52:42Z</time>
      </trkpt>
      <trkpt lat="41.15469" lon="-1.47465">
        <ele>729.331</ele>
        <time>2013-05-09T10:52:41Z</time>
      </trkpt>
      <trkpt lat="41.15496" lon="-1.47518">
        <ele>729.324</ele>
        <time>2013-05-09T10:52:32Z</time>
      </trkpt>
      <trkpt lat="41.15541" lon="-1.47587">
        <ele>730.308</ele>
        <time>2013-05-09T10:52:20Z</time>
      </trkpt>
      <trkpt lat="41.15545" lon="-1.47593">
        <ele>730.35</ele>
        <time>2013-05-09T10:52:19Z</time>
      </trkpt>
      <trkpt lat="41.15548" lon="-1.47598">
        <ele>731.751</ele>
        <time>2013-05-09T10:52:18Z</time>
      </trkpt>
      <trkpt lat="41.15563" lon="-1.47612">
        <ele>731.783</ele>
        <time>2013-05-09T10:52:14Z</time>
      </trkpt>
      <trkpt lat="41.15597" lon="-1.47646">
        <ele>730.348</ele>
        <time>2013-05-09T10:52:02Z</time>
      </trkpt>
      <trkpt lat="41.15629" lon="-1.47682">
        <ele>730.345</ele>
        <time>2013-05-09T10:51:49Z</time>
      </trkpt>
      <trkpt lat="41.15661" lon="-1.47718">
        <ele>729.382</ele>
        <time>2013-05-09T10:51:39Z</time>
      </trkpt>
      <trkpt lat="41.157" lon="-1.47771">
        <ele>731.25</ele>
        <time>2013-05-09T10:51:23Z</time>
      </trkpt>
      <trkpt lat="41.15734" lon="-1.47803">
        <ele>730.753</ele>
        <time>2013-05-09T10:51:09Z</time>
      </trkpt>
      <trkpt lat="41.15763" lon="-1.47832">
        <ele>730.794</ele>
        <time>2013-05-09T10:50:56Z</time>
      </trkpt>
      <trkpt lat="41.1579" lon="-1.47867">
        <ele>730.757</ele>
        <time>2013-05-09T10:50:43Z</time>
      </trkpt>
      <trkpt lat="41.15791" lon="-1.4787">
        <ele>730.722</ele>
        <time>2013-05-09T10:50:42Z</time>
      </trkpt>
      <trkpt lat="41.15792" lon="-1.47872">
        <ele>730.708</ele>
        <time>2013-05-09T10:50:41Z</time>
      </trkpt>
      <trkpt lat="41.15798" lon="-1.47885">
        <ele>729.84</ele>
        <time>2013-05-09T10:50:35Z</time>
      </trkpt>
      <trkpt lat="41.15807" lon="-1.47927">
        <ele>727.991</ele>
        <time>2013-05-09T10:50:21Z</time>
      </trkpt>
      <trkpt lat="41.15813" lon="-1.47962">
        <ele>725.523</ele>
        <time>2013-05-09T10:50:08Z</time>
      </trkpt>
      <trkpt lat="41.15813" lon="-1.48008">
        <ele>723.538</ele>
        <time>2013-05-09T10:49:51Z</time>
      </trkpt>
      <trkpt lat="41.15814" lon="-1.48036">
        <ele>721.625</ele>
        <time>2013-05-09T10:49:38Z</time>
      </trkpt>
      <trkpt lat="41.15817" lon="-1.48061">
        <ele>719.762</ele>
        <time>2013-05-09T10:49:26Z</time>
      </trkpt>
      <trkpt lat="41.15819" lon="-1.48088">
        <ele>717.85</ele>
        <time>2013-05-09T10:49:15Z</time>
      </trkpt>
      <trkpt lat="41.15826" lon="-1.48142">
        <ele>716.373</ele>
        <time>2013-05-09T10:49:01Z</time>
      </trkpt>
      <trkpt lat="41.15829" lon="-1.48163">
        <ele>714.952</ele>
        <time>2013-05-09T10:48:56Z</time>
      </trkpt>
      <trkpt lat="41.15837" lon="-1.48206">
        <ele>714.953</ele>
        <time>2013-05-09T10:48:45Z</time>
      </trkpt>
      <trkpt lat="41.15837" lon="-1.48209">
        <ele>714.908</ele>
        <time>2013-05-09T10:48:44Z</time>
      </trkpt>
      <trkpt lat="41.15837" lon="-1.48212">
        <ele>714.908</ele>
        <time>2013-05-09T10:48:43Z</time>
      </trkpt>
      <trkpt lat="41.15837" lon="-1.48214">
        <ele>714.996</ele>
        <time>2013-05-09T10:48:42Z</time>
      </trkpt>
      <trkpt lat="41.15836" lon="-1.48216">
        <ele>714.917</ele>
        <time>2013-05-09T10:48:41Z</time>
      </trkpt>
      <trkpt lat="41.15836" lon="-1.48218">
        <ele>714.929</ele>
        <time>2013-05-09T10:48:40Z</time>
      </trkpt>
      <trkpt lat="41.15835" lon="-1.48219">
        <ele>714.974</ele>
        <time>2013-05-09T10:48:39Z</time>
      </trkpt>
      <trkpt lat="41.15835" lon="-1.48222">
        <ele>714.961</ele>
        <time>2013-05-09T10:48:36Z</time>
      </trkpt>
      <trkpt lat="41.15834" lon="-1.4822">
        <ele>714.938</ele>
        <time>2013-05-09T10:48:19Z</time>
      </trkpt>
      <trkpt lat="41.15835" lon="-1.48194">
        <ele>715.466</ele>
        <time>2013-05-09T10:48:09Z</time>
      </trkpt>
      <trkpt lat="41.15835" lon="-1.48191">
        <ele>715.429</ele>
        <time>2013-05-09T10:48:08Z</time>
      </trkpt>
      <trkpt lat="41.15834" lon="-1.48187">
        <ele>715.497</ele>
        <time>2013-05-09T10:48:07Z</time>
      </trkpt>
      <trkpt lat="41.15834" lon="-1.48184">
        <ele>715.423</ele>
        <time>2013-05-09T10:48:06Z</time>
      </trkpt>
      <trkpt lat="41.15833" lon="-1.48181">
        <ele>715.425</ele>
        <time>2013-05-09T10:48:05Z</time>
      </trkpt>
      <trkpt lat="41.15832" lon="-1.48179">
        <ele>715.408</ele>
        <time>2013-05-09T10:48:04Z</time>
      </trkpt>
      <trkpt lat="41.15827" lon="-1.48176">
        <ele>715.43</ele>
        <time>2013-05-09T10:47:56Z</time>
      </trkpt>
      <trkpt lat="41.15825" lon="-1.48176">
        <ele>715.481</ele>
        <time>2013-05-09T10:47:40Z</time>
      </trkpt>
      <trkpt lat="41.15827" lon="-1.48173">
        <ele>715.413</ele>
        <time>2013-05-09T10:47:27Z</time>
      </trkpt>
      <trkpt lat="41.15829" lon="-1.48172">
        <ele>715.418</ele>
        <time>2013-05-09T10:47:18Z</time>
      </trkpt>
      <trkpt lat="41.15832" lon="-1.48169">
        <ele>715.485</ele>
        <time>2013-05-09T10:47:14Z</time>
      </trkpt>
      <trkpt lat="41.15832" lon="-1.48169">
        <ele>715.482</ele>
        <time>2013-05-09T10:47:13Z</time>
      </trkpt>
      <trkpt lat="41.15831" lon="-1.48169">
        <ele>715.41</ele>
        <time>2013-05-09T10:46:57Z</time>
      </trkpt>
      <trkpt lat="41.15831" lon="-1.48172">
        <ele>715.843</ele>
        <time>2013-05-09T10:46:46Z</time>
      </trkpt>
      <trkpt lat="41.15832" lon="-1.48173">
        <ele>715.862</ele>
        <time>2013-05-09T10:46:45Z</time>
      </trkpt>
      <trkpt lat="41.15832" lon="-1.48175">
        <ele>715.883</ele>
        <time>2013-05-09T10:46:44Z</time>
      </trkpt>
      <trkpt lat="41.15833" lon="-1.48177">
        <ele>715.811</ele>
        <time>2013-05-09T10:46:43Z</time>
      </trkpt>
      <trkpt lat="41.15834" lon="-1.48179">
        <ele>715.808</ele>
        <time>2013-05-09T10:46:42Z</time>
      </trkpt>
      <trkpt lat="41.15834" lon="-1.48181">
        <ele>715.887</ele>
        <time>2013-05-09T10:46:41Z</time>
      </trkpt>
      <trkpt lat="41.15834" lon="-1.48184">
        <ele>715.858</ele>
        <time>2013-05-09T10:46:40Z</time>
      </trkpt>
      <trkpt lat="41.15835" lon="-1.48187">
        <ele>715.88</ele>
        <time>2013-05-09T10:46:38Z</time>
      </trkpt>
      <trkpt lat="41.15835" lon="-1.48189">
        <ele>715.825</ele>
        <time>2013-05-09T10:46:37Z</time>
      </trkpt>
      <trkpt lat="41.15842" lon="-1.48201">
        <ele>715.852</ele>
        <time>2013-05-09T10:46:30Z</time>
      </trkpt>
      <trkpt lat="41.15843" lon="-1.48203">
        <ele>715.829</ele>
        <time>2013-05-09T10:46:29Z</time>
      </trkpt>
      <trkpt lat="41.15844" lon="-1.48204">
        <ele>715.897</ele>
        <time>2013-05-09T10:46:28Z</time>
      </trkpt>
      <trkpt lat="41.15846" lon="-1.48205">
        <ele>715.85</ele>
        <time>2013-05-09T10:46:27Z</time>
      </trkpt>
      <trkpt lat="41.15847" lon="-1.48205">
        <ele>715.867</ele>
        <time>2013-05-09T10:46:26Z</time>
      </trkpt>
      <trkpt lat="41.15849" lon="-1.48205">
        <ele>715.881</ele>
        <time>2013-05-09T10:46:25Z</time>
      </trkpt>
      <trkpt lat="41.1585" lon="-1.48206">
        <ele>715.819</ele>
        <time>2013-05-09T10:46:24Z</time>
      </trkpt>
      <trkpt lat="41.15851" lon="-1.48206">
        <ele>715.808</ele>
        <time>2013-05-09T10:46:23Z</time>
      </trkpt>
      <trkpt lat="41.15853" lon="-1.48207">
        <ele>715.877</ele>
        <time>2013-05-09T10:46:22Z</time>
      </trkpt>
      <trkpt lat="41.15864" lon="-1.48217">
        <ele>715.878</ele>
        <time>2013-05-09T10:46:14Z</time>
      </trkpt>
      <trkpt lat="41.15879" lon="-1.48231">
        <ele>715.82</ele>
        <time>2013-05-09T10:46:05Z</time>
      </trkpt>
      <trkpt lat="41.15894" lon="-1.48252">
        <ele>715.885</ele>
        <time>2013-05-09T10:45:56Z</time>
      </trkpt>
      <trkpt lat="41.1591" lon="-1.48287">
        <ele>716.382</ele>
        <time>2013-05-09T10:45:48Z</time>
      </trkpt>
      <trkpt lat="41.15932" lon="-1.48332">
        <ele>716.389</ele>
        <time>2013-05-09T10:45:38Z</time>
      </trkpt>
      <trkpt lat="41.15936" lon="-1.48336">
        <ele>716.317</ele>
        <time>2013-05-09T10:45:37Z</time>
      </trkpt>
      <trkpt lat="41.15939" lon="-1.4834">
        <ele>716.34</ele>
        <time>2013-05-09T10:45:36Z</time>
      </trkpt>
      <trkpt lat="41.15946" lon="-1.48349">
        <ele>716.396</ele>
        <time>2013-05-09T10:45:34Z</time>
      </trkpt>
      <trkpt lat="41.15957" lon="-1.4836">
        <ele>716.831</ele>
        <time>2013-05-09T10:45:31Z</time>
      </trkpt>
      <trkpt lat="41.15983" lon="-1.48403">
        <ele>717.324</ele>
        <time>2013-05-09T10:45:23Z</time>
      </trkpt>
      <trkpt lat="41.15987" lon="-1.48409">
        <ele>717.308</ele>
        <time>2013-05-09T10:45:22Z</time>
      </trkpt>
      <trkpt lat="41.15995" lon="-1.4843">
        <ele>718.77</ele>
        <time>2013-05-09T10:45:19Z</time>
      </trkpt>
      <trkpt lat="41.15998" lon="-1.48438">
        <ele>718.791</ele>
        <time>2013-05-09T10:45:18Z</time>
      </trkpt>
      <trkpt lat="41.16026" lon="-1.48516">
        <ele>721.693</ele>
        <time>2013-05-09T10:45:06Z</time>
      </trkpt>
      <trkpt lat="41.16056" lon="-1.48569">
        <ele>722.638</ele>
        <time>2013-05-09T10:44:55Z</time>
      </trkpt>
      <trkpt lat="41.16064" lon="-1.48579">
        <ele>724.045</ele>
        <time>2013-05-09T10:44:52Z</time>
      </trkpt>
      <trkpt lat="41.16069" lon="-1.48587">
        <ele>723.142</ele>
        <time>2013-05-09T10:44:11Z</time>
      </trkpt>
      <trkpt lat="41.16069" lon="-1.4859">
        <ele>723.18</ele>
        <time>2013-05-09T10:43:53Z</time>
      </trkpt>
      <trkpt lat="41.16073" lon="-1.48598">
        <ele>723.123</ele>
        <time>2013-05-09T10:43:44Z</time>
      </trkpt>
      <trkpt lat="41.16085" lon="-1.48617">
        <ele>723.184</ele>
        <time>2013-05-09T10:43:35Z</time>
      </trkpt>
      <trkpt lat="41.16093" lon="-1.48626">
        <ele>723.507</ele>
        <time>2013-05-09T10:43:30Z</time>
      </trkpt>
      <trkpt lat="41.16123" lon="-1.48646">
        <ele>721.617</ele>
        <time>2013-05-09T10:43:16Z</time>
      </trkpt>
      <trkpt lat="41.16147" lon="-1.48663">
        <ele>721.108</ele>
        <time>2013-05-09T10:43:05Z</time>
      </trkpt>
      <trkpt lat="41.16169" lon="-1.48681">
        <ele>720.779</ele>
        <time>2013-05-09T10:42:56Z</time>
      </trkpt>
      <trkpt lat="41.16199" lon="-1.48707">
        <ele>718.77</ele>
        <time>2013-05-09T10:42:43Z</time>
      </trkpt>
      <trkpt lat="41.16206" lon="-1.48713">
        <ele>717.392</ele>
        <time>2013-05-09T10:42:40Z</time>
      </trkpt>
      <trkpt lat="41.16233" lon="-1.48741">
        <ele>717.897</ele>
        <time>2013-05-09T10:42:30Z</time>
      </trkpt>
      <trkpt lat="41.16251" lon="-1.48761">
        <ele>719.254</ele>
        <time>2013-05-09T10:42:24Z</time>
      </trkpt>
      <trkpt lat="41.16279" lon="-1.48789">
        <ele>719.291</ele>
        <time>2013-05-09T10:42:12Z</time>
      </trkpt>
      <trkpt lat="41.16297" lon="-1.4882">
        <ele>716.839</ele>
        <time>2013-05-09T10:41:58Z</time>
      </trkpt>
      <trkpt lat="41.16303" lon="-1.48854">
        <ele>715.832</ele>
        <time>2013-05-09T10:41:46Z</time>
      </trkpt>
      <trkpt lat="41.16316" lon="-1.48893">
        <ele>713.985</ele>
        <time>2013-05-09T10:41:37Z</time>
      </trkpt>
      <trkpt lat="41.16322" lon="-1.48904">
        <ele>712.589</ele>
        <time>2013-05-09T10:41:35Z</time>
      </trkpt>
      <trkpt lat="41.1633" lon="-1.48914">
        <ele>712.517</ele>
        <time>2013-05-09T10:41:33Z</time>
      </trkpt>
      <trkpt lat="41.16353" lon="-1.48957">
        <ele>713.008</ele>
        <time>2013-05-09T10:41:27Z</time>
      </trkpt>
      <trkpt lat="41.16355" lon="-1.48977">
        <ele>713.919</ele>
        <time>2013-05-09T10:41:25Z</time>
      </trkpt>
      <trkpt lat="41.16354" lon="-1.49006">
        <ele>716.34</ele>
        <time>2013-05-09T10:41:22Z</time>
      </trkpt>
      <trkpt lat="41.16366" lon="-1.49035">
        <ele>716.822</ele>
        <time>2013-05-09T10:41:18Z</time>
      </trkpt>
      <trkpt lat="41.16393" lon="-1.49059">
        <ele>718.237</ele>
        <time>2013-05-09T10:41:13Z</time>
      </trkpt>
      <trkpt lat="41.16403" lon="-1.49065">
        <ele>718.234</ele>
        <time>2013-05-09T10:41:11Z</time>
      </trkpt>
      <trkpt lat="41.16461" lon="-1.49091">
        <ele>719.281</ele>
        <time>2013-05-09T10:41:00Z</time>
      </trkpt>
      <trkpt lat="41.16478" lon="-1.49109">
        <ele>720.799</ele>
        <time>2013-05-09T10:40:56Z</time>
      </trkpt>
      <trkpt lat="41.16482" lon="-1.49119">
        <ele>721.142</ele>
        <time>2013-05-09T10:40:54Z</time>
      </trkpt>
      <trkpt lat="41.16496" lon="-1.49159">
        <ele>722.153</ele>
        <time>2013-05-09T10:40:44Z</time>
      </trkpt>
      <trkpt lat="41.16502" lon="-1.49198">
        <ele>721.104</ele>
        <time>2013-05-09T10:40:32Z</time>
      </trkpt>
      <trkpt lat="41.16508" lon="-1.49247">
        <ele>720.714</ele>
        <time>2013-05-09T10:40:20Z</time>
      </trkpt>
      <trkpt lat="41.16513" lon="-1.49283">
        <ele>720.708</ele>
        <time>2013-05-09T10:40:11Z</time>
      </trkpt>
      <trkpt lat="41.16516" lon="-1.49287">
        <ele>720.216</ele>
        <time>2013-05-09T10:39:50Z</time>
      </trkpt>
      <trkpt lat="41.16514" lon="-1.49286">
        <ele>720.217</ele>
        <time>2013-05-09T10:39:21Z</time>
      </trkpt>
      <trkpt lat="41.16513" lon="-1.49289">
        <ele>720.259</ele>
        <time>2013-05-09T10:39:01Z</time>
      </trkpt>
      <trkpt lat="41.16516" lon="-1.49308">
        <ele>720.284</ele>
        <time>2013-05-09T10:38:53Z</time>
      </trkpt>
      <trkpt lat="41.16524" lon="-1.49345">
        <ele>720.741</ele>
        <time>2013-05-09T10:38:43Z</time>
      </trkpt>
      <trkpt lat="41.16537" lon="-1.49394">
        <ele>719.738</ele>
        <time>2013-05-09T10:38:29Z</time>
      </trkpt>
      <trkpt lat="41.16541" lon="-1.49431">
        <ele>718.766</ele>
        <time>2013-05-09T10:38:18Z</time>
      </trkpt>
      <trkpt lat="41.16543" lon="-1.49463">
        <ele>717.879</ele>
        <time>2013-05-09T10:38:08Z</time>
      </trkpt>
      <trkpt lat="41.16551" lon="-1.49504">
        <ele>716.828</ele>
        <time>2013-05-09T10:37:54Z</time>
      </trkpt>
      <trkpt lat="41.16566" lon="-1.49551">
        <ele>714.989</ele>
        <time>2013-05-09T10:37:39Z</time>
      </trkpt>
      <trkpt lat="41.16575" lon="-1.49588">
        <ele>713.017</ele>
        <time>2013-05-09T10:37:27Z</time>
      </trkpt>
      <trkpt lat="41.16587" lon="-1.4963">
        <ele>711.508</ele>
        <time>2013-05-09T10:37:14Z</time>
      </trkpt>
      <trkpt lat="41.16599" lon="-1.49648">
        <ele>711.083</ele>
        <time>2013-05-09T10:37:07Z</time>
      </trkpt>
      <trkpt lat="41.1661" lon="-1.49665">
        <ele>710.654</ele>
        <time>2013-05-09T10:37:00Z</time>
      </trkpt>
      <trkpt lat="41.1662" lon="-1.49676">
        <ele>709.616</ele>
        <time>2013-05-09T10:36:55Z</time>
      </trkpt>
      <trkpt lat="41.16648" lon="-1.49709">
        <ele>709.611</ele>
        <time>2013-05-09T10:36:44Z</time>
      </trkpt>
      <trkpt lat="41.16664" lon="-1.49725">
        <ele>710.698</ele>
        <time>2013-05-09T10:36:39Z</time>
      </trkpt>
      <trkpt lat="41.16691" lon="-1.49745">
        <ele>712.085</ele>
        <time>2013-05-09T10:36:32Z</time>
      </trkpt>
      <trkpt lat="41.16711" lon="-1.49753">
        <ele>712.093</ele>
        <time>2013-05-09T10:36:27Z</time>
      </trkpt>
      <trkpt lat="41.16725" lon="-1.49755">
        <ele>712.066</ele>
        <time>2013-05-09T10:36:23Z</time>
      </trkpt>
      <trkpt lat="41.16764" lon="-1.49751">
        <ele>711.068</ele>
        <time>2013-05-09T10:36:11Z</time>
      </trkpt>
      <trkpt lat="41.16789" lon="-1.4975">
        <ele>711.042</ele>
        <time>2013-05-09T10:36:04Z</time>
      </trkpt>
      <trkpt lat="41.16812" lon="-1.49735">
        <ele>711.026</ele>
        <time>2013-05-09T10:35:57Z</time>
      </trkpt>
      <trkpt lat="41.16838" lon="-1.49717">
        <ele>709.108</ele>
        <time>2013-05-09T10:35:47Z</time>
      </trkpt>
      <trkpt lat="41.16888" lon="-1.49676">
        <ele>709.127</ele>
        <time>2013-05-09T10:35:36Z</time>
      </trkpt>
      <trkpt lat="41.16908" lon="-1.49666">
        <ele>710.168</ele>
        <time>2013-05-09T10:35:32Z</time>
      </trkpt>
      <trkpt lat="41.16922" lon="-1.49659">
        <ele>711.53</ele>
        <time>2013-05-09T10:35:29Z</time>
      </trkpt>
      <trkpt lat="41.16926" lon="-1.49658">
        <ele>711.595</ele>
        <time>2013-05-09T10:35:28Z</time>
      </trkpt>
      <trkpt lat="41.1696" lon="-1.49655">
        <ele>711.572</ele>
        <time>2013-05-09T10:35:18Z</time>
      </trkpt>
      <trkpt lat="41.16993" lon="-1.49657">
        <ele>710.689</ele>
        <time>2013-05-09T10:35:08Z</time>
      </trkpt>
      <trkpt lat="41.17008" lon="-1.49658">
        <ele>710.117</ele>
        <time>2013-05-09T10:35:04Z</time>
      </trkpt>
      <trkpt lat="41.17041" lon="-1.49677">
        <ele>709.62</ele>
        <time>2013-05-09T10:34:52Z</time>
      </trkpt>
      <trkpt lat="41.17063" lon="-1.49697">
        <ele>709.148</ele>
        <time>2013-05-09T10:34:43Z</time>
      </trkpt>
      <trkpt lat="41.17069" lon="-1.49707">
        <ele>708.261</ele>
        <time>2013-05-09T10:34:39Z</time>
      </trkpt>
      <trkpt lat="41.17088" lon="-1.4974">
        <ele>709.117</ele>
        <time>2013-05-09T10:34:30Z</time>
      </trkpt>
      <trkpt lat="41.17091" lon="-1.49744">
        <ele>709.108</ele>
        <time>2013-05-09T10:34:29Z</time>
      </trkpt>
      <trkpt lat="41.17118" lon="-1.49787">
        <ele>708.655</ele>
        <time>2013-05-09T10:34:16Z</time>
      </trkpt>
      <trkpt lat="41.17129" lon="-1.49802">
        <ele>707.716</ele>
        <time>2013-05-09T10:34:11Z</time>
      </trkpt>
      <trkpt lat="41.17132" lon="-1.49807">
        <ele>708.258</ele>
        <time>2013-05-09T10:34:10Z</time>
      </trkpt>
      <trkpt lat="41.17137" lon="-1.49828">
        <ele>710.113</ele>
        <time>2013-05-09T10:34:07Z</time>
      </trkpt>
      <trkpt lat="41.17139" lon="-1.49845">
        <ele>710.11</ele>
        <time>2013-05-09T10:34:01Z</time>
      </trkpt>
      <trkpt lat="41.17139" lon="-1.4985">
        <ele>710.127</ele>
        <time>2013-05-09T10:33:51Z</time>
      </trkpt>
      <trkpt lat="41.17141" lon="-1.49852">
        <ele>710.175</ele>
        <time>2013-05-09T10:33:36Z</time>
      </trkpt>
      <trkpt lat="41.17141" lon="-1.49852">
        <ele>710.148</ele>
        <time>2013-05-09T10:32:53Z</time>
      </trkpt>
      <trkpt lat="41.17142" lon="-1.49852">
        <ele>710.198</ele>
        <time>2013-05-09T10:32:27Z</time>
      </trkpt>
      <trkpt lat="41.1714" lon="-1.49851">
        <ele>710.115</ele>
        <time>2013-05-09T10:32:10Z</time>
      </trkpt>
      <trkpt lat="41.1714" lon="-1.49854">
        <ele>710.126</ele>
        <time>2013-05-09T10:31:57Z</time>
      </trkpt>
      <trkpt lat="41.17141" lon="-1.49852">
        <ele>710.108</ele>
        <time>2013-05-09T10:31:36Z</time>
      </trkpt>
      <trkpt lat="41.1714" lon="-1.49849">
        <ele>710.18</ele>
        <time>2013-05-09T10:31:22Z</time>
      </trkpt>
      <trkpt lat="41.17144" lon="-1.4987">
        <ele>709.671</ele>
        <time>2013-05-09T10:31:10Z</time>
      </trkpt>
      <trkpt lat="41.17145" lon="-1.49879">
        <ele>709.173</ele>
        <time>2013-05-09T10:31:05Z</time>
      </trkpt>
      <trkpt lat="41.17148" lon="-1.49898">
        <ele>706.768</ele>
        <time>2013-05-09T10:30:55Z</time>
      </trkpt>
      <trkpt lat="41.17149" lon="-1.49926">
        <ele>706.785</ele>
        <time>2013-05-09T10:30:42Z</time>
      </trkpt>
      <trkpt lat="41.17149" lon="-1.49936">
        <ele>706.772</ele>
        <time>2013-05-09T10:30:38Z</time>
      </trkpt>
      <trkpt lat="41.17148" lon="-1.4995">
        <ele>708.27</ele>
        <time>2013-05-09T10:30:30Z</time>
      </trkpt>
      <trkpt lat="41.17147" lon="-1.4995">
        <ele>708.233</ele>
        <time>2013-05-09T10:30:19Z</time>
      </trkpt>
      <trkpt lat="41.17146" lon="-1.49953">
        <ele>708.295</ele>
        <time>2013-05-09T10:30:10Z</time>
      </trkpt>
      <trkpt lat="41.17148" lon="-1.49978">
        <ele>708.249</ele>
        <time>2013-05-09T10:29:59Z</time>
      </trkpt>
      <trkpt lat="41.17149" lon="-1.5001">
        <ele>706.223</ele>
        <time>2013-05-09T10:29:44Z</time>
      </trkpt>
      <trkpt lat="41.17149" lon="-1.50018">
        <ele>706.208</ele>
        <time>2013-05-09T10:29:40Z</time>
      </trkpt>
      <trkpt lat="41.17149" lon="-1.50032">
        <ele>704.87</ele>
        <time>2013-05-09T10:29:32Z</time>
      </trkpt>
      <trkpt lat="41.17151" lon="-1.50056">
        <ele>703.851</ele>
        <time>2013-05-09T10:29:20Z</time>
      </trkpt>
      <trkpt lat="41.17151" lon="-1.50076">
        <ele>703.853</ele>
        <time>2013-05-09T10:29:09Z</time>
      </trkpt>
      <trkpt lat="41.1715" lon="-1.50087">
        <ele>703.828</ele>
        <time>2013-05-09T10:29:03Z</time>
      </trkpt>
      <trkpt lat="41.1715" lon="-1.50096">
        <ele>703.855</ele>
        <time>2013-05-09T10:28:58Z</time>
      </trkpt>
      <trkpt lat="41.17149" lon="-1.50112">
        <ele>703.812</ele>
        <time>2013-05-09T10:28:50Z</time>
      </trkpt>
      <trkpt lat="41.17151" lon="-1.50121">
        <ele>703.88</ele>
        <time>2013-05-09T10:28:46Z</time>
      </trkpt>
      <trkpt lat="41.17151" lon="-1.50132">
        <ele>703.853</ele>
        <time>2013-05-09T10:28:41Z</time>
      </trkpt>
      <trkpt lat="41.17153" lon="-1.50146">
        <ele>705.384</ele>
        <time>2013-05-09T10:28:35Z</time>
      </trkpt>
      <trkpt lat="41.17151" lon="-1.50149">
        <ele>705.307</ele>
        <time>2013-05-09T10:28:16Z</time>
      </trkpt>
      <trkpt lat="41.17152" lon="-1.50152">
        <ele>705.317</ele>
        <time>2013-05-09T10:28:00Z</time>
      </trkpt>
      <trkpt lat="41.17152" lon="-1.50163">
        <ele>705.308</ele>
        <time>2013-05-09T10:27:47Z</time>
      </trkpt>
      <trkpt lat="41.17152" lon="-1.50167">
        <ele>704.849</ele>
        <time>2013-05-09T10:27:45Z</time>
      </trkpt>
      <trkpt lat="41.17151" lon="-1.50172">
        <ele>704.33</ele>
        <time>2013-05-09T10:27:36Z</time>
      </trkpt>
      <trkpt lat="41.1715" lon="-1.50173">
        <ele>703.842</ele>
        <time>2013-05-09T10:27:35Z</time>
      </trkpt>
      <trkpt lat="41.17146" lon="-1.50186">
        <ele>702.477</ele>
        <time>2013-05-09T10:27:25Z</time>
      </trkpt>
      <trkpt lat="41.17145" lon="-1.50196">
        <ele>702.424</ele>
        <time>2013-05-09T10:27:20Z</time>
      </trkpt>
      <trkpt lat="41.17142" lon="-1.50207">
        <ele>702.421</ele>
        <time>2013-05-09T10:27:09Z</time>
      </trkpt>
      <trkpt lat="41.1714" lon="-1.5022">
        <ele>702.429</ele>
        <time>2013-05-09T10:27:00Z</time>
      </trkpt>
      <trkpt lat="41.17139" lon="-1.50227">
        <ele>702.482</ele>
        <time>2013-05-09T10:26:45Z</time>
      </trkpt>
      <trkpt lat="41.1714" lon="-1.50228">
        <ele>702.475</ele>
        <time>2013-05-09T10:26:28Z</time>
      </trkpt>
      <trkpt lat="41.17139" lon="-1.50233">
        <ele>702.428</ele>
        <time>2013-05-09T10:26:19Z</time>
      </trkpt>
      <trkpt lat="41.17138" lon="-1.50238">
        <ele>702.42</ele>
        <time>2013-05-09T10:26:16Z</time>
      </trkpt>
      <trkpt lat="41.17137" lon="-1.50262">
        <ele>702.408</ele>
        <time>2013-05-09T10:26:04Z</time>
      </trkpt>
      <trkpt lat="41.17136" lon="-1.50269">
        <ele>702.468</ele>
        <time>2013-05-09T10:25:37Z</time>
      </trkpt>
      <trkpt lat="41.17134" lon="-1.50273">
        <ele>702.479</ele>
        <time>2013-05-09T10:25:21Z</time>
      </trkpt>
      <trkpt lat="41.17134" lon="-1.50277">
        <ele>702.431</ele>
        <time>2013-05-09T10:25:08Z</time>
      </trkpt>
      <trkpt lat="41.17137" lon="-1.50278">
        <ele>702.446</ele>
        <time>2013-05-09T10:24:51Z</time>
      </trkpt>
      <trkpt lat="41.17137" lon="-1.50305">
        <ele>702.923</ele>
        <time>2013-05-09T10:24:39Z</time>
      </trkpt>
      <trkpt lat="41.17139" lon="-1.50325">
        <ele>703.82</ele>
        <time>2013-05-09T10:24:31Z</time>
      </trkpt>
      <trkpt lat="41.17138" lon="-1.50344">
        <ele>704.838</ele>
        <time>2013-05-09T10:24:24Z</time>
      </trkpt>
      <trkpt lat="41.17138" lon="-1.50361">
        <ele>706.261</ele>
        <time>2013-05-09T10:23:56Z</time>
      </trkpt>
      <trkpt lat="41.17138" lon="-1.50368">
        <ele>706.298</ele>
        <time>2013-05-09T10:23:47Z</time>
      </trkpt>
      <trkpt lat="41.17138" lon="-1.50376">
        <ele>706.215</ele>
        <time>2013-05-09T10:23:43Z</time>
      </trkpt>
      <trkpt lat="41.17134" lon="-1.50398">
        <ele>705.326</ele>
        <time>2013-05-09T10:23:33Z</time>
      </trkpt>
      <trkpt lat="41.17129" lon="-1.50423">
        <ele>703.308</ele>
        <time>2013-05-09T10:23:21Z</time>
      </trkpt>
      <trkpt lat="41.17124" lon="-1.50445">
        <ele>703.82</ele>
        <time>2013-05-09T10:23:12Z</time>
      </trkpt>
      <trkpt lat="41.17126" lon="-1.50468">
        <ele>706.271</ele>
        <time>2013-05-09T10:23:03Z</time>
      </trkpt>
      <trkpt lat="41.17133" lon="-1.50498">
        <ele>707.223</ele>
        <time>2013-05-09T10:22:54Z</time>
      </trkpt>
      <trkpt lat="41.17145" lon="-1.50515">
        <ele>708.618</ele>
        <time>2013-05-09T10:22:46Z</time>
      </trkpt>
      <trkpt lat="41.17159" lon="-1.5053">
        <ele>708.635</ele>
        <time>2013-05-09T10:22:39Z</time>
      </trkpt>
      <trkpt lat="41.17194" lon="-1.50543">
        <ele>708.662</ele>
        <time>2013-05-09T10:22:27Z</time>
      </trkpt>
      <trkpt lat="41.1722" lon="-1.50543">
        <ele>708.67</ele>
        <time>2013-05-09T10:22:17Z</time>
      </trkpt>
      <trkpt lat="41.17246" lon="-1.50538">
        <ele>706.743</ele>
        <time>2013-05-09T10:22:05Z</time>
      </trkpt>
      <trkpt lat="41.17276" lon="-1.50524">
        <ele>705.868</ele>
        <time>2013-05-09T10:21:53Z</time>
      </trkpt>
      <trkpt lat="41.17296" lon="-1.50512">
        <ele>705.842</ele>
        <time>2013-05-09T10:21:44Z</time>
      </trkpt>
      <trkpt lat="41.17313" lon="-1.505">
        <ele>704.826</ele>
        <time>2013-05-09T10:21:35Z</time>
      </trkpt>
      <trkpt lat="41.17335" lon="-1.50495">
        <ele>703.808</ele>
        <time>2013-05-09T10:21:26Z</time>
      </trkpt>
      <trkpt lat="41.17349" lon="-1.5049">
        <ele>704.327</ele>
        <time>2013-05-09T10:21:23Z</time>
      </trkpt>
      <trkpt lat="41.17361" lon="-1.50489">
        <ele>704.888</ele>
        <time>2013-05-09T10:21:20Z</time>
      </trkpt>
      <trkpt lat="41.1738" lon="-1.50494">
        <ele>705.83</ele>
        <time>2013-05-09T10:21:12Z</time>
      </trkpt>
      <trkpt lat="41.17388" lon="-1.50497">
        <ele>707.215</ele>
        <time>2013-05-09T10:21:08Z</time>
      </trkpt>
      <trkpt lat="41.17398" lon="-1.50502">
        <ele>706.782</ele>
        <time>2013-05-09T10:20:56Z</time>
      </trkpt>
      <trkpt lat="41.17406" lon="-1.50511">
        <ele>706.249</ele>
        <time>2013-05-09T10:20:45Z</time>
      </trkpt>
      <trkpt lat="41.17416" lon="-1.5053">
        <ele>705.827</ele>
        <time>2013-05-09T10:20:36Z</time>
      </trkpt>
      <trkpt lat="41.17433" lon="-1.50546">
        <ele>705.34</ele>
        <time>2013-05-09T10:20:26Z</time>
      </trkpt>
      <trkpt lat="41.1745" lon="-1.50562">
        <ele>704.833</ele>
        <time>2013-05-09T10:20:17Z</time>
      </trkpt>
      <trkpt lat="41.17465" lon="-1.50574">
        <ele>703.823</ele>
        <time>2013-05-09T10:20:08Z</time>
      </trkpt>
      <trkpt lat="41.17466" lon="-1.50575">
        <ele>703.815</ele>
        <time>2013-05-09T10:20:07Z</time>
      </trkpt>
      <trkpt lat="41.1748" lon="-1.50597">
        <ele>704.808</ele>
        <time>2013-05-09T10:19:58Z</time>
      </trkpt>
      <trkpt lat="41.17485" lon="-1.50608">
        <ele>704.394</ele>
        <time>2013-05-09T10:19:51Z</time>
      </trkpt>
      <trkpt lat="41.1749" lon="-1.50617">
        <ele>703.815</ele>
        <time>2013-05-09T10:19:45Z</time>
      </trkpt>
      <trkpt lat="41.17491" lon="-1.50618">
        <ele>703.877</ele>
        <time>2013-05-09T10:19:44Z</time>
      </trkpt>
      <trkpt lat="41.17497" lon="-1.50632">
        <ele>703.382</ele>
        <time>2013-05-09T10:19:33Z</time>
      </trkpt>
      <trkpt lat="41.17498" lon="-1.50637">
        <ele>703.329</ele>
        <time>2013-05-09T10:19:30Z</time>
      </trkpt>
      <trkpt lat="41.17502" lon="-1.50648">
        <ele>702.466</ele>
        <time>2013-05-09T10:19:23Z</time>
      </trkpt>
      <trkpt lat="41.17508" lon="-1.50666">
        <ele>701.934</ele>
        <time>2013-05-09T10:19:10Z</time>
      </trkpt>
      <trkpt lat="41.17508" lon="-1.5069">
        <ele>700.057</ele>
        <time>2013-05-09T10:18:55Z</time>
      </trkpt>
      <trkpt lat="41.17508" lon="-1.50704">
        <ele>698.598</ele>
        <time>2013-05-09T10:18:45Z</time>
      </trkpt>
      <trkpt lat="41.17512" lon="-1.50726">
        <ele>698.515</ele>
        <time>2013-05-09T10:18:28Z</time>
      </trkpt>
      <trkpt lat="41.17513" lon="-1.50728">
        <ele>698.526</ele>
        <time>2013-05-09T10:18:04Z</time>
      </trkpt>
      <trkpt lat="41.1752" lon="-1.50748">
        <ele>698.508</ele>
        <time>2013-05-09T10:17:54Z</time>
      </trkpt>
      <trkpt lat="41.17524" lon="-1.50782">
        <ele>698.11</ele>
        <time>2013-05-09T10:17:41Z</time>
      </trkpt>
      <trkpt lat="41.17525" lon="-1.50801">
        <ele>696.631</ele>
        <time>2013-05-09T10:17:35Z</time>
      </trkpt>
      <trkpt lat="41.17522" lon="-1.50828">
        <ele>696.663</ele>
        <time>2013-05-09T10:17:24Z</time>
      </trkpt>
      <trkpt lat="41.17522" lon="-1.50852">
        <ele>696.618</ele>
        <time>2013-05-09T10:17:13Z</time>
      </trkpt>
      <trkpt lat="41.17521" lon="-1.50862">
        <ele>698.115</ele>
        <time>2013-05-09T10:17:00Z</time>
      </trkpt>
      <trkpt lat="41.17521" lon="-1.50867">
        <ele>698.162</ele>
        <time>2013-05-09T10:16:48Z</time>
      </trkpt>
      <trkpt lat="41.17526" lon="-1.50889">
        <ele>698.14</ele>
        <time>2013-05-09T10:16:36Z</time>
      </trkpt>
      <trkpt lat="41.17527" lon="-1.50896">
        <ele>698.143</ele>
        <time>2013-05-09T10:16:20Z</time>
      </trkpt>
      <trkpt lat="41.17529" lon="-1.50894">
        <ele>698.196</ele>
        <time>2013-05-09T10:16:03Z</time>
      </trkpt>
      <trkpt lat="41.17531" lon="-1.50894">
        <ele>698.131</ele>
        <time>2013-05-09T10:15:42Z</time>
      </trkpt>
      <trkpt lat="41.17529" lon="-1.50896">
        <ele>696.624</ele>
        <time>2013-05-09T10:15:08Z</time>
      </trkpt>
      <trkpt lat="41.17531" lon="-1.509">
        <ele>696.608</ele>
        <time>2013-05-09T10:14:58Z</time>
      </trkpt>
      <trkpt lat="41.17553" lon="-1.50915">
        <ele>697.12</ele>
        <time>2013-05-09T10:14:47Z</time>
      </trkpt>
      <trkpt lat="41.17566" lon="-1.50918">
        <ele>697.181</ele>
        <time>2013-05-09T10:14:43Z</time>
      </trkpt>
      <trkpt lat="41.17574" lon="-1.50915">
        <ele>697.153</ele>
        <time>2013-05-09T10:14:40Z</time>
      </trkpt>
      <trkpt lat="41.17595" lon="-1.50897">
        <ele>697.188</ele>
        <time>2013-05-09T10:14:31Z</time>
      </trkpt>
      <trkpt lat="41.17614" lon="-1.50888">
        <ele>697.175</ele>
        <time>2013-05-09T10:14:23Z</time>
      </trkpt>
      <trkpt lat="41.17634" lon="-1.50882">
        <ele>699.042</ele>
        <time>2013-05-09T10:14:13Z</time>
      </trkpt>
      <trkpt lat="41.17634" lon="-1.50883">
        <ele>699.03</ele>
        <time>2013-05-09T10:14:02Z</time>
      </trkpt>
      <trkpt lat="41.17645" lon="-1.50875">
        <ele>699.043</ele>
        <time>2013-05-09T10:13:54Z</time>
      </trkpt>
      <trkpt lat="41.17669" lon="-1.50858">
        <ele>698.587</ele>
        <time>2013-05-09T10:13:44Z</time>
      </trkpt>
      <trkpt lat="41.1768" lon="-1.50844">
        <ele>698.542</ele>
        <time>2013-05-09T10:13:39Z</time>
      </trkpt>
      <trkpt lat="41.17683" lon="-1.50843">
        <ele>698.526</ele>
        <time>2013-05-09T10:13:38Z</time>
      </trkpt>
      <trkpt lat="41.17711" lon="-1.50834">
        <ele>697.608</ele>
        <time>2013-05-09T10:13:28Z</time>
      </trkpt>
      <trkpt lat="41.17753" lon="-1.50816">
        <ele>699.029</ele>
        <time>2013-05-09T10:13:18Z</time>
      </trkpt>
      <trkpt lat="41.17768" lon="-1.50807">
        <ele>700.56</ele>
        <time>2013-05-09T10:13:14Z</time>
      </trkpt>
      <trkpt lat="41.17784" lon="-1.50801">
        <ele>700.092</ele>
        <time>2013-05-09T10:13:06Z</time>
      </trkpt>
      <trkpt lat="41.17804" lon="-1.50804">
        <ele>697.657</ele>
        <time>2013-05-09T10:12:55Z</time>
      </trkpt>
      <trkpt lat="41.17815" lon="-1.50803">
        <ele>696.154</ele>
        <time>2013-05-09T10:12:50Z</time>
      </trkpt>
      <trkpt lat="41.17855" lon="-1.50799">
        <ele>697.131</ele>
        <time>2013-05-09T10:12:40Z</time>
      </trkpt>
      <trkpt lat="41.17903" lon="-1.50817">
        <ele>697.629</ele>
        <time>2013-05-09T10:12:28Z</time>
      </trkpt>
      <trkpt lat="41.17927" lon="-1.50828">
        <ele>697.692</ele>
        <time>2013-05-09T10:12:22Z</time>
      </trkpt>
      <trkpt lat="41.1797" lon="-1.50838">
        <ele>699.516</ele>
        <time>2013-05-09T10:12:14Z</time>
      </trkpt>
      <trkpt lat="41.17978" lon="-1.50844">
        <ele>700.576</ele>
        <time>2013-05-09T10:12:12Z</time>
      </trkpt>
      <trkpt lat="41.17989" lon="-1.5085">
        <ele>701.413</ele>
        <time>2013-05-09T10:12:07Z</time>
      </trkpt>
      <trkpt lat="41.18002" lon="-1.50878">
        <ele>700.508</ele>
        <time>2013-05-09T10:11:55Z</time>
      </trkpt>
      <trkpt lat="41.18002" lon="-1.50886">
        <ele>700.562</ele>
        <time>2013-05-09T10:11:44Z</time>
      </trkpt>
      <trkpt lat="41.18001" lon="-1.50887">
        <ele>700.543</ele>
        <time>2013-05-09T10:11:34Z</time>
      </trkpt>
      <trkpt lat="41.18001" lon="-1.50886">
        <ele>700.545</ele>
        <time>2013-05-09T10:10:56Z</time>
      </trkpt>
      <trkpt lat="41.18001" lon="-1.50887">
        <ele>700.58</ele>
        <time>2013-05-09T10:09:52Z</time>
      </trkpt>
      <trkpt lat="41.18002" lon="-1.50891">
        <ele>700.557</ele>
        <time>2013-05-09T10:09:42Z</time>
      </trkpt>
      <trkpt lat="41.17999" lon="-1.50906">
        <ele>700.594</ele>
        <time>2013-05-09T10:09:35Z</time>
      </trkpt>
      <trkpt lat="41.18003" lon="-1.50939">
        <ele>698.512</ele>
        <time>2013-05-09T10:09:23Z</time>
      </trkpt>
      <trkpt lat="41.18006" lon="-1.50968">
        <ele>696.695</ele>
        <time>2013-05-09T10:09:12Z</time>
      </trkpt>
      <trkpt lat="41.17996" lon="-1.51007">
        <ele>695.253</ele>
        <time>2013-05-09T10:09:03Z</time>
      </trkpt>
      <trkpt lat="41.17987" lon="-1.51024">
        <ele>695.704</ele>
        <time>2013-05-09T10:09:00Z</time>
      </trkpt>
      <trkpt lat="41.17981" lon="-1.51035">
        <ele>696.114</ele>
        <time>2013-05-09T10:08:58Z</time>
      </trkpt>
      <trkpt lat="41.1796" lon="-1.51052">
        <ele>696.108</ele>
        <time>2013-05-09T10:08:53Z</time>
      </trkpt>
      <trkpt lat="41.17936" lon="-1.51077">
        <ele>698.516</ele>
        <time>2013-05-09T10:08:47Z</time>
      </trkpt>
      <trkpt lat="41.17928" lon="-1.51083">
        <ele>699.567</ele>
        <time>2013-05-09T10:08:45Z</time>
      </trkpt>
      <trkpt lat="41.17919" lon="-1.51093">
        <ele>700.589</ele>
        <time>2013-05-09T10:08:41Z</time>
      </trkpt>
      <trkpt lat="41.17927" lon="-1.51123">
        <ele>698.144</ele>
        <time>2013-05-09T10:08:27Z</time>
      </trkpt>
      <trkpt lat="41.1793" lon="-1.51131">
        <ele>697.681</ele>
        <time>2013-05-09T10:08:23Z</time>
      </trkpt>
      <trkpt lat="41.17935" lon="-1.5114">
        <ele>696.668</ele>
        <time>2013-05-09T10:08:17Z</time>
      </trkpt>
      <trkpt lat="41.17951" lon="-1.51144">
        <ele>694.766</ele>
        <time>2013-05-09T10:08:07Z</time>
      </trkpt>
      <trkpt lat="41.17958" lon="-1.51143">
        <ele>693.339</ele>
        <time>2013-05-09T10:08:04Z</time>
      </trkpt>
      <trkpt lat="41.18002" lon="-1.51123">
        <ele>693.354</ele>
        <time>2013-05-09T10:07:51Z</time>
      </trkpt>
      <trkpt lat="41.18063" lon="-1.51101">
        <ele>694.756</ele>
        <time>2013-05-09T10:07:39Z</time>
      </trkpt>
      <trkpt lat="41.18073" lon="-1.51101">
        <ele>695.211</ele>
        <time>2013-05-09T10:07:37Z</time>
      </trkpt>
      <trkpt lat="41.18109" lon="-1.5111">
        <ele>696.608</ele>
        <time>2013-05-09T10:07:27Z</time>
      </trkpt>
      <trkpt lat="41.18136" lon="-1.51128">
        <ele>695.236</ele>
        <time>2013-05-09T10:07:16Z</time>
      </trkpt>
      <trkpt lat="41.18157" lon="-1.51161">
        <ele>694.787</ele>
        <time>2013-05-09T10:07:05Z</time>
      </trkpt>
      <trkpt lat="41.18168" lon="-1.51193">
        <ele>694.719</ele>
        <time>2013-05-09T10:06:57Z</time>
      </trkpt>
      <trkpt lat="41.18158" lon="-1.51221">
        <ele>692.374</ele>
        <time>2013-05-09T10:06:47Z</time>
      </trkpt>
      <trkpt lat="41.18152" lon="-1.51255">
        <ele>692.311</ele>
        <time>2013-05-09T10:06:39Z</time>
      </trkpt>
      <trkpt lat="41.1816" lon="-1.51273">
        <ele>693.728</ele>
        <time>2013-05-09T10:06:35Z</time>
      </trkpt>
      <trkpt lat="41.18175" lon="-1.51281">
        <ele>693.716</ele>
        <time>2013-05-09T10:06:30Z</time>
      </trkpt>
      <trkpt lat="41.18203" lon="-1.5129">
        <ele>692.399</ele>
        <time>2013-05-09T10:06:22Z</time>
      </trkpt>
      <trkpt lat="41.18241" lon="-1.51283">
        <ele>692.392</ele>
        <time>2013-05-09T10:06:12Z</time>
      </trkpt>
      <trkpt lat="41.18248" lon="-1.51279">
        <ele>692.373</ele>
        <time>2013-05-09T10:06:10Z</time>
      </trkpt>
      <trkpt lat="41.18264" lon="-1.51242">
        <ele>692.32</ele>
        <time>2013-05-09T10:06:00Z</time>
      </trkpt>
      <trkpt lat="41.18272" lon="-1.51194">
        <ele>692.808</ele>
        <time>2013-05-09T10:05:51Z</time>
      </trkpt>
      <trkpt lat="41.18272" lon="-1.51163">
        <ele>694.23</ele>
        <time>2013-05-09T10:05:44Z</time>
      </trkpt>
      <trkpt lat="41.18274" lon="-1.51105">
        <ele>693.751</ele>
        <time>2013-05-09T10:05:31Z</time>
      </trkpt>
      <trkpt lat="41.18276" lon="-1.51093">
        <ele>692.313</ele>
        <time>2013-05-09T10:05:28Z</time>
      </trkpt>
      <trkpt lat="41.1829" lon="-1.51032">
        <ele>692.318</ele>
        <time>2013-05-09T10:05:16Z</time>
      </trkpt>
      <trkpt lat="41.18294" lon="-1.50995">
        <ele>692.835</ele>
        <time>2013-05-09T10:05:10Z</time>
      </trkpt>
      <trkpt lat="41.18294" lon="-1.50981">
        <ele>692.852</ele>
        <time>2013-05-09T10:05:08Z</time>
      </trkpt>
      <trkpt lat="41.18298" lon="-1.50937">
        <ele>695.27</ele>
        <time>2013-05-09T10:05:01Z</time>
      </trkpt>
      <trkpt lat="41.18295" lon="-1.50922">
        <ele>696.693</ele>
        <time>2013-05-09T10:04:58Z</time>
      </trkpt>
      <trkpt lat="41.18292" lon="-1.50901">
        <ele>698.191</ele>
        <time>2013-05-09T10:04:52Z</time>
      </trkpt>
      <trkpt lat="41.18293" lon="-1.5089">
        <ele>698.181</ele>
        <time>2013-05-09T10:04:43Z</time>
      </trkpt>
      <trkpt lat="41.18294" lon="-1.50889">
        <ele>698.119</ele>
        <time>2013-05-09T10:04:31Z</time>
      </trkpt>
      <trkpt lat="41.18294" lon="-1.50891">
        <ele>698.108</ele>
        <time>2013-05-09T10:04:19Z</time>
      </trkpt>
      <trkpt lat="41.18293" lon="-1.5089">
        <ele>698.14</ele>
        <time>2013-05-09T10:04:02Z</time>
      </trkpt>
      <trkpt lat="41.18292" lon="-1.50886">
        <ele>698.141</ele>
        <time>2013-05-09T10:03:45Z</time>
      </trkpt>
      <trkpt lat="41.18292" lon="-1.5089">
        <ele>698.163</ele>
        <time>2013-05-09T10:03:05Z</time>
      </trkpt>
      <trkpt lat="41.18291" lon="-1.50888">
        <ele>698.178</ele>
        <time>2013-05-09T10:02:50Z</time>
      </trkpt>
      <trkpt lat="41.18293" lon="-1.50888">
        <ele>698.175</ele>
        <time>2013-05-09T10:02:29Z</time>
      </trkpt>
      <trkpt lat="41.18293" lon="-1.50869">
        <ele>698.112</ele>
        <time>2013-05-09T10:02:18Z</time>
      </trkpt>
      <trkpt lat="41.18304" lon="-1.50857">
        <ele>697.64</ele>
        <time>2013-05-09T10:02:11Z</time>
      </trkpt>
      <trkpt lat="41.1832" lon="-1.50849">
        <ele>695.733</ele>
        <time>2013-05-09T10:02:00Z</time>
      </trkpt>
      <trkpt lat="41.18329" lon="-1.50838">
        <ele>694.213</ele>
        <time>2013-05-09T10:01:50Z</time>
      </trkpt>
      <trkpt lat="41.18334" lon="-1.5082">
        <ele>692.843</ele>
        <time>2013-05-09T10:01:41Z</time>
      </trkpt>
      <trkpt lat="41.18346" lon="-1.50776">
        <ele>692.307</ele>
        <time>2013-05-09T10:01:30Z</time>
      </trkpt>
      <trkpt lat="41.18371" lon="-1.5073">
        <ele>691.308</ele>
        <time>2013-05-09T10:01:17Z</time>
      </trkpt>
      <trkpt lat="41.18402" lon="-1.50684">
        <ele>691.322</ele>
        <time>2013-05-09T10:01:06Z</time>
      </trkpt>
      <trkpt lat="41.18413" lon="-1.50677">
        <ele>691.343</ele>
        <time>2013-05-09T10:01:03Z</time>
      </trkpt>
      <trkpt lat="41.18443" lon="-1.50659">
        <ele>689.975</ele>
        <time>2013-05-09T10:00:53Z</time>
      </trkpt>
      <trkpt lat="41.18492" lon="-1.50628">
        <ele>691.31</ele>
        <time>2013-05-09T10:00:40Z</time>
      </trkpt>
      <trkpt lat="41.18536" lon="-1.50597">
        <ele>690.837</ele>
        <time>2013-05-09T10:00:25Z</time>
      </trkpt>
      <trkpt lat="41.18565" lon="-1.50568">
        <ele>688.954</ele>
        <time>2013-05-09T10:00:12Z</time>
      </trkpt>
      <trkpt lat="41.18584" lon="-1.50547">
        <ele>687.592</ele>
        <time>2013-05-09T10:00:04Z</time>
      </trkpt>
      <trkpt lat="41.18619" lon="-1.50536">
        <ele>688.965</ele>
        <time>2013-05-09T09:59:55Z</time>
      </trkpt>
      <trkpt lat="41.18627" lon="-1.50538">
        <ele>688.967</ele>
        <time>2013-05-09T09:59:53Z</time>
      </trkpt>
      <trkpt lat="41.18658" lon="-1.50544">
        <ele>688.981</ele>
        <time>2013-05-09T09:59:43Z</time>
      </trkpt>
      <trkpt lat="41.18683" lon="-1.50541">
        <ele>687.519</ele>
        <time>2013-05-09T09:59:29Z</time>
      </trkpt>
      <trkpt lat="41.187" lon="-1.50544">
        <ele>686.008</ele>
        <time>2013-05-09T09:59:18Z</time>
      </trkpt>
      <trkpt lat="41.18719" lon="-1.50553">
        <ele>683.617</ele>
        <time>2013-05-09T09:59:06Z</time>
      </trkpt>
      <trkpt lat="41.18739" lon="-1.50569">
        <ele>681.748</ele>
        <time>2013-05-09T09:58:53Z</time>
      </trkpt>
      <trkpt lat="41.18763" lon="-1.50593">
        <ele>679.34</ele>
        <time>2013-05-09T09:58:39Z</time>
      </trkpt>
      <trkpt lat="41.18785" lon="-1.50611">
        <ele>678.435</ele>
        <time>2013-05-09T09:58:29Z</time>
      </trkpt>
      <trkpt lat="41.18813" lon="-1.5064">
        <ele>678.472</ele>
        <time>2013-05-09T09:58:17Z</time>
      </trkpt>
      <trkpt lat="41.18825" lon="-1.50664">
        <ele>678.469</ele>
        <time>2013-05-09T09:58:04Z</time>
      </trkpt>
      <trkpt lat="41.18827" lon="-1.50666">
        <ele>678.437</ele>
        <time>2013-05-09T09:57:55Z</time>
      </trkpt>
      <trkpt lat="41.18842" lon="-1.50694">
        <ele>678.47</ele>
        <time>2013-05-09T09:57:46Z</time>
      </trkpt>
      <trkpt lat="41.18873" lon="-1.50709">
        <ele>678.425</ele>
        <time>2013-05-09T09:57:35Z</time>
      </trkpt>
      <trkpt lat="41.18885" lon="-1.50709">
        <ele>678.426</ele>
        <time>2013-05-09T09:57:31Z</time>
      </trkpt>
      <trkpt lat="41.1889" lon="-1.50713">
        <ele>678.808</ele>
        <time>2013-05-09T09:57:29Z</time>
      </trkpt>
      <trkpt lat="41.18925" lon="-1.50732">
        <ele>680.308</ele>
        <time>2013-05-09T09:57:18Z</time>
      </trkpt>
      <trkpt lat="41.18953" lon="-1.50746">
        <ele>679.853</ele>
        <time>2013-05-09T09:57:09Z</time>
      </trkpt>
      <trkpt lat="41.1899" lon="-1.50782">
        <ele>677.974</ele>
        <time>2013-05-09T09:56:54Z</time>
      </trkpt>
      <trkpt lat="41.19013" lon="-1.50819">
        <ele>677.926</ele>
        <time>2013-05-09T09:56:42Z</time>
      </trkpt>
      <trkpt lat="41.19045" lon="-1.50843">
        <ele>677.951</ele>
        <time>2013-05-09T09:56:30Z</time>
      </trkpt>
      <trkpt lat="41.19065" lon="-1.50859">
        <ele>678.488</ele>
        <time>2013-05-09T09:56:21Z</time>
      </trkpt>
      <trkpt lat="41.19066" lon="-1.50859">
        <ele>678.415</ele>
        <time>2013-05-09T09:56:01Z</time>
      </trkpt>
      <trkpt lat="41.19078" lon="-1.50868">
        <ele>678.833</ele>
        <time>2013-05-09T09:55:54Z</time>
      </trkpt>
      <trkpt lat="41.19099" lon="-1.50885">
        <ele>679.876</ele>
        <time>2013-05-09T09:55:44Z</time>
      </trkpt>
      <trkpt lat="41.19108" lon="-1.50906">
        <ele>677.463</ele>
        <time>2013-05-09T09:55:35Z</time>
      </trkpt>
      <trkpt lat="41.19112" lon="-1.50917">
        <ele>677.444</ele>
        <time>2013-05-09T09:55:30Z</time>
      </trkpt>
      <trkpt lat="41.19113" lon="-1.50917">
        <ele>677.418</ele>
        <time>2013-05-09T09:55:10Z</time>
      </trkpt>
      <trkpt lat="41.19131" lon="-1.50943">
        <ele>675.908</ele>
        <time>2013-05-09T09:55:00Z</time>
      </trkpt>
      <trkpt lat="41.19163" lon="-1.50982">
        <ele>675.097</ele>
        <time>2013-05-09T09:54:47Z</time>
      </trkpt>
      <trkpt lat="41.19198" lon="-1.51008">
        <ele>675.028</ele>
        <time>2013-05-09T09:54:35Z</time>
      </trkpt>
      <trkpt lat="41.19229" lon="-1.51028">
        <ele>675.59</ele>
        <time>2013-05-09T09:54:25Z</time>
      </trkpt>
      <trkpt lat="41.19263" lon="-1.51044">
        <ele>675.565</ele>
        <time>2013-05-09T09:54:14Z</time>
      </trkpt>
      <trkpt lat="41.19293" lon="-1.51056">
        <ele>675.922</ele>
        <time>2013-05-09T09:54:02Z</time>
      </trkpt>
      <trkpt lat="41.19304" lon="-1.51064">
        <ele>676.959</ele>
        <time>2013-05-09T09:53:40Z</time>
      </trkpt>
      <trkpt lat="41.19305" lon="-1.51064">
        <ele>676.927</ele>
        <time>2013-05-09T09:53:26Z</time>
      </trkpt>
      <trkpt lat="41.19306" lon="-1.51064">
        <ele>676.94</ele>
        <time>2013-05-09T09:52:51Z</time>
      </trkpt>
      <trkpt lat="41.19306" lon="-1.51065">
        <ele>676.919</ele>
        <time>2013-05-09T09:52:27Z</time>
      </trkpt>
      <trkpt lat="41.19312" lon="-1.51069">
        <ele>677.409</ele>
        <time>2013-05-09T09:52:19Z</time>
      </trkpt>
      <trkpt lat="41.19337" lon="-1.51089">
        <ele>675.919</ele>
        <time>2013-05-09T09:52:06Z</time>
      </trkpt>
      <trkpt lat="41.19355" lon="-1.51103">
        <ele>675.508</ele>
        <time>2013-05-09T09:51:55Z</time>
      </trkpt>
      <trkpt lat="41.19359" lon="-1.51107">
        <ele>675.072</ele>
        <time>2013-05-09T09:51:51Z</time>
      </trkpt>
      <trkpt lat="41.19358" lon="-1.51112">
        <ele>675.043</ele>
        <time>2013-05-09T09:51:48Z</time>
      </trkpt>
      <trkpt lat="41.19348" lon="-1.51139">
        <ele>674.015</ele>
        <time>2013-05-09T09:51:37Z</time>
      </trkpt>
      <trkpt lat="41.19337" lon="-1.51185">
        <ele>674.06</ele>
        <time>2013-05-09T09:51:23Z</time>
      </trkpt>
      <trkpt lat="41.19329" lon="-1.51222">
        <ele>674.097</ele>
        <time>2013-05-09T09:51:12Z</time>
      </trkpt>
      <trkpt lat="41.19313" lon="-1.51242">
        <ele>674.014</ele>
        <time>2013-05-09T09:51:03Z</time>
      </trkpt>
      <trkpt lat="41.19308" lon="-1.51252">
        <ele>674.052</ele>
        <time>2013-05-09T09:50:22Z</time>
      </trkpt>
      <trkpt lat="41.19308" lon="-1.51251">
        <ele>674.035</ele>
        <time>2013-05-09T09:49:53Z</time>
      </trkpt>
      <trkpt lat="41.19307" lon="-1.51252">
        <ele>674.024</ele>
        <time>2013-05-09T09:48:40Z</time>
      </trkpt>
      <trkpt lat="41.19307" lon="-1.5125">
        <ele>674.004</ele>
        <time>2013-05-09T09:48:27Z</time>
      </trkpt>
      <trkpt lat="41.193" lon="-1.51257">
        <ele>674.014</ele>
        <time>2013-05-09T09:48:17Z</time>
      </trkpt>
      <trkpt lat="41.19292" lon="-1.51257">
        <ele>674.008</ele>
        <time>2013-05-09T09:48:14Z</time>
      </trkpt>
      <trkpt lat="41.19262" lon="-1.51267">
        <ele>674.053</ele>
        <time>2013-05-09T09:48:06Z</time>
      </trkpt>
      <trkpt lat="41.1924" lon="-1.51303">
        <ele>675.584</ele>
        <time>2013-05-09T09:47:59Z</time>
      </trkpt>
      <trkpt lat="41.19237" lon="-1.51307">
        <ele>675.986</ele>
        <time>2013-05-09T09:47:58Z</time>
      </trkpt>
      <trkpt lat="41.19226" lon="-1.51327">
        <ele>678.831</ele>
        <time>2013-05-09T09:47:52Z</time>
      </trkpt>
      <trkpt lat="41.1923" lon="-1.51336">
        <ele>680.848</ele>
        <time>2013-05-09T09:47:49Z</time>
      </trkpt>
      <trkpt lat="41.19251" lon="-1.51352">
        <ele>682.775</ele>
        <time>2013-05-09T09:47:39Z</time>
      </trkpt>
      <trkpt lat="41.19281" lon="-1.51376">
        <ele>680.363</ele>
        <time>2013-05-09T09:47:27Z</time>
      </trkpt>
      <trkpt lat="41.19309" lon="-1.51402">
        <ele>679.826</ele>
        <time>2013-05-09T09:47:18Z</time>
      </trkpt>
      <trkpt lat="41.19316" lon="-1.5141">
        <ele>680.812</ele>
        <time>2013-05-09T09:47:16Z</time>
      </trkpt>
      <trkpt lat="41.19336" lon="-1.51423">
        <ele>680.332</ele>
        <time>2013-05-09T09:47:09Z</time>
      </trkpt>
      <trkpt lat="41.19362" lon="-1.51441">
        <ele>679.305</ele>
        <time>2013-05-09T09:47:00Z</time>
      </trkpt>
      <trkpt lat="41.1939" lon="-1.51464">
        <ele>678.808</ele>
        <time>2013-05-09T09:46:49Z</time>
      </trkpt>
      <trkpt lat="41.19421" lon="-1.51487">
        <ele>676.442</ele>
        <time>2013-05-09T09:46:36Z</time>
      </trkpt>
      <trkpt lat="41.19454" lon="-1.51509">
        <ele>676.483</ele>
        <time>2013-05-09T09:46:25Z</time>
      </trkpt>
      <trkpt lat="41.19481" lon="-1.51527">
        <ele>676.485</ele>
        <time>2013-05-09T09:46:16Z</time>
      </trkpt>
      <trkpt lat="41.1952" lon="-1.51556">
        <ele>675.94</ele>
        <time>2013-05-09T09:46:02Z</time>
      </trkpt>
      <trkpt lat="41.1955" lon="-1.51577">
        <ele>675.557</ele>
        <time>2013-05-09T09:45:51Z</time>
      </trkpt>
      <trkpt lat="41.19555" lon="-1.51582">
        <ele>674.064</ele>
        <time>2013-05-09T09:45:49Z</time>
      </trkpt>
      <trkpt lat="41.19563" lon="-1.51592">
        <ele>675.022</ele>
        <time>2013-05-09T09:45:47Z</time>
      </trkpt>
      <trkpt lat="41.19573" lon="-1.516">
        <ele>676.475</ele>
        <time>2013-05-09T09:45:45Z</time>
      </trkpt>
      <trkpt lat="41.19584" lon="-1.51606">
        <ele>677.411</ele>
        <time>2013-05-09T09:45:38Z</time>
      </trkpt>
      <trkpt lat="41.19584" lon="-1.51607">
        <ele>677.421</ele>
        <time>2013-05-09T09:45:01Z</time>
      </trkpt>
      <trkpt lat="41.19584" lon="-1.51606">
        <ele>677.403</ele>
        <time>2013-05-09T09:44:07Z</time>
      </trkpt>
      <trkpt lat="41.19599" lon="-1.51627">
        <ele>678.808</ele>
        <time>2013-05-09T09:43:59Z</time>
      </trkpt>
      <trkpt lat="41.19625" lon="-1.51665">
        <ele>682.242</ele>
        <time>2013-05-09T09:43:52Z</time>
      </trkpt>
      <trkpt lat="41.19646" lon="-1.51683">
        <ele>682.223</ele>
        <time>2013-05-09T09:43:44Z</time>
      </trkpt>
      <trkpt lat="41.19662" lon="-1.51694">
        <ele>680.335</ele>
        <time>2013-05-09T09:43:34Z</time>
      </trkpt>
      <trkpt lat="41.19684" lon="-1.51712">
        <ele>678.84</ele>
        <time>2013-05-09T09:43:25Z</time>
      </trkpt>
      <trkpt lat="41.19695" lon="-1.51714">
        <ele>677.917</ele>
        <time>2013-05-09T09:43:22Z</time>
      </trkpt>
      <trkpt lat="41.19717" lon="-1.5173">
        <ele>677.454</ele>
        <time>2013-05-09T09:43:18Z</time>
      </trkpt>
      <trkpt lat="41.19739" lon="-1.5175">
        <ele>680.872</ele>
        <time>2013-05-09T09:43:14Z</time>
      </trkpt>
      <trkpt lat="41.19753" lon="-1.51755">
        <ele>683.675</ele>
        <time>2013-05-09T09:43:11Z</time>
      </trkpt>
      <trkpt lat="41.1976" lon="-1.51759">
        <ele>683.676</ele>
        <time>2013-05-09T09:43:09Z</time>
      </trkpt>
      <trkpt lat="41.19785" lon="-1.51773">
        <ele>683.29</ele>
        <time>2013-05-09T09:42:57Z</time>
      </trkpt>
      <trkpt lat="41.19804" lon="-1.51786">
        <ele>681.219</ele>
        <time>2013-05-09T09:42:46Z</time>
      </trkpt>
      <trkpt lat="41.1982" lon="-1.51802">
        <ele>679.308</ele>
        <time>2013-05-09T09:42:36Z</time>
      </trkpt>
      <trkpt lat="41.19824" lon="-1.51812">
        <ele>679.358</ele>
        <time>2013-05-09T09:42:32Z</time>
      </trkpt>
      <trkpt lat="41.19819" lon="-1.51834">
        <ele>678.869</ele>
        <time>2013-05-09T09:42:24Z</time>
      </trkpt>
      <trkpt lat="41.19807" lon="-1.51857">
        <ele>678.891</ele>
        <time>2013-05-09T09:42:12Z</time>
      </trkpt>
      <trkpt lat="41.19808" lon="-1.51857">
        <ele>678.856</ele>
        <time>2013-05-09T09:41:48Z</time>
      </trkpt>
      <trkpt lat="41.19806" lon="-1.51857">
        <ele>678.893</ele>
        <time>2013-05-09T09:41:25Z</time>
      </trkpt>
      <trkpt lat="41.198" lon="-1.51873">
        <ele>677.96</ele>
        <time>2013-05-09T09:41:15Z</time>
      </trkpt>
      <trkpt lat="41.19804" lon="-1.51879">
        <ele>677.418</ele>
        <time>2013-05-09T09:41:11Z</time>
      </trkpt>
      <trkpt lat="41.19813" lon="-1.51874">
        <ele>676.971</ele>
        <time>2013-05-09T09:41:06Z</time>
      </trkpt>
      <trkpt lat="41.19829" lon="-1.51863">
        <ele>675.032</ele>
        <time>2013-05-09T09:40:55Z</time>
      </trkpt>
      <trkpt lat="41.19837" lon="-1.51858">
        <ele>675.092</ele>
        <time>2013-05-09T09:40:50Z</time>
      </trkpt>
      <trkpt lat="41.1984" lon="-1.51858">
        <ele>675.011</ele>
        <time>2013-05-09T09:40:48Z</time>
      </trkpt>
      <trkpt lat="41.19845" lon="-1.5186">
        <ele>675.008</ele>
        <time>2013-05-09T09:40:44Z</time>
      </trkpt>
      <trkpt lat="41.19892" lon="-1.51864">
        <ele>675.084</ele>
        <time>2013-05-09T09:40:34Z</time>
      </trkpt>
      <trkpt lat="41.19924" lon="-1.51867">
        <ele>677.965</ele>
        <time>2013-05-09T09:40:28Z</time>
      </trkpt>
      <trkpt lat="41.19932" lon="-1.51874">
        <ele>678.897</ele>
        <time>2013-05-09T09:40:26Z</time>
      </trkpt>
      <trkpt lat="41.19939" lon="-1.51884">
        <ele>679.882</ele>
        <time>2013-05-09T09:40:24Z</time>
      </trkpt>
      <trkpt lat="41.19971" lon="-1.51933">
        <ele>683.299</ele>
        <time>2013-05-09T09:40:16Z</time>
      </trkpt>
      <trkpt lat="41.19985" lon="-1.51981">
        <ele>684.136</ele>
        <time>2013-05-09T09:40:08Z</time>
      </trkpt>
      <trkpt lat="41.20001" lon="-1.52008">
        <ele>685.174</ele>
        <time>2013-05-09T09:40:03Z</time>
      </trkpt>
      <trkpt lat="41.2001" lon="-1.52013">
        <ele>685.677</ele>
        <time>2013-05-09T09:40:01Z</time>
      </trkpt>
      <trkpt lat="41.20031" lon="-1.5203">
        <ele>685.696</ele>
        <time>2013-05-09T09:39:55Z</time>
      </trkpt>
      <trkpt lat="41.20038" lon="-1.52039">
        <ele>686.031</ele>
        <time>2013-05-09T09:39:53Z</time>
      </trkpt>
      <trkpt lat="41.20045" lon="-1.52047">
        <ele>686.024</ele>
        <time>2013-05-09T09:39:51Z</time>
      </trkpt>
      <trkpt lat="41.20063" lon="-1.52063">
        <ele>686.008</ele>
        <time>2013-05-09T09:39:46Z</time>
      </trkpt>
      <trkpt lat="41.2007" lon="-1.52072">
        <ele>686.53</ele>
        <time>2013-05-09T09:39:44Z</time>
      </trkpt>
      <trkpt lat="41.20074" lon="-1.52081">
        <ele>686.551</ele>
        <time>2013-05-09T09:39:42Z</time>
      </trkpt>
      <trkpt lat="41.20091" lon="-1.5213">
        <ele>687.593</ele>
        <time>2013-05-09T09:39:31Z</time>
      </trkpt>
      <trkpt lat="41.20115" lon="-1.52164">
        <ele>687.588</ele>
        <time>2013-05-09T09:39:21Z</time>
      </trkpt>
      <trkpt lat="41.20142" lon="-1.52187">
        <ele>687.065</ele>
        <time>2013-05-09T09:39:09Z</time>
      </trkpt>
      <trkpt lat="41.20165" lon="-1.52204">
        <ele>685.632</ele>
        <time>2013-05-09T09:38:56Z</time>
      </trkpt>
      <trkpt lat="41.20187" lon="-1.52214">
        <ele>685.11</ele>
        <time>2013-05-09T09:38:45Z</time>
      </trkpt>
      <trkpt lat="41.20189" lon="-1.52215">
        <ele>685.123</ele>
        <time>2013-05-09T09:38:21Z</time>
      </trkpt>
      <trkpt lat="41.20196" lon="-1.52219">
        <ele>685.179</ele>
        <time>2013-05-09T09:38:12Z</time>
      </trkpt>
      <trkpt lat="41.20226" lon="-1.5224">
        <ele>683.605</ele>
        <time>2013-05-09T09:37:58Z</time>
      </trkpt>
      <trkpt lat="41.20261" lon="-1.52249">
        <ele>682.725</ele>
        <time>2013-05-09T09:37:45Z</time>
      </trkpt>
      <trkpt lat="41.20305" lon="-1.52254">
        <ele>683.208</ele>
        <time>2013-05-09T09:37:33Z</time>
      </trkpt>
      <trkpt lat="41.20321" lon="-1.5226">
        <ele>684.198</ele>
        <time>2013-05-09T09:37:28Z</time>
      </trkpt>
      <trkpt lat="41.20331" lon="-1.52263">
        <ele>684.159</ele>
        <time>2013-05-09T09:37:16Z</time>
      </trkpt>
      <trkpt lat="41.20331" lon="-1.52265">
        <ele>684.121</ele>
        <time>2013-05-09T09:37:04Z</time>
      </trkpt>
      <trkpt lat="41.20343" lon="-1.52268">
        <ele>683.666</ele>
        <time>2013-05-09T09:36:53Z</time>
      </trkpt>
      <trkpt lat="41.20352" lon="-1.52253">
        <ele>682.783</ele>
        <time>2013-05-09T09:36:44Z</time>
      </trkpt>
      <trkpt lat="41.20361" lon="-1.52239">
        <ele>681.26</ele>
        <time>2013-05-09T09:36:36Z</time>
      </trkpt>
      <trkpt lat="41.20378" lon="-1.52221">
        <ele>679.378</ele>
        <time>2013-05-09T09:36:22Z</time>
      </trkpt>
      <trkpt lat="41.20386" lon="-1.52213">
        <ele>678.881</ele>
        <time>2013-05-09T09:36:15Z</time>
      </trkpt>
      <trkpt lat="41.20395" lon="-1.52196">
        <ele>677.468</ele>
        <time>2013-05-09T09:36:05Z</time>
      </trkpt>
      <trkpt lat="41.20407" lon="-1.52181">
        <ele>676.442</ele>
        <time>2013-05-09T09:35:55Z</time>
      </trkpt>
      <trkpt lat="41.20427" lon="-1.52171">
        <ele>674.026</ele>
        <time>2013-05-09T09:35:42Z</time>
      </trkpt>
      <trkpt lat="41.20447" lon="-1.52156">
        <ele>672.608</ele>
        <time>2013-05-09T09:35:29Z</time>
      </trkpt>
      <trkpt lat="41.20466" lon="-1.52144">
        <ele>671.127</ele>
        <time>2013-05-09T09:35:17Z</time>
      </trkpt>
      <trkpt lat="41.20491" lon="-1.52137">
        <ele>669.278</ele>
        <time>2013-05-09T09:35:03Z</time>
      </trkpt>
      <trkpt lat="41.20516" lon="-1.52135">
        <ele>667.86</ele>
        <time>2013-05-09T09:34:48Z</time>
      </trkpt>
      <trkpt lat="41.20534" lon="-1.52133">
        <ele>666.895</ele>
        <time>2013-05-09T09:34:36Z</time>
      </trkpt>
      <trkpt lat="41.20539" lon="-1.52132">
        <ele>666.312</ele>
        <time>2013-05-09T09:34:32Z</time>
      </trkpt>
      <trkpt lat="41.20547" lon="-1.52127">
        <ele>666.369</ele>
        <time>2013-05-09T09:34:23Z</time>
      </trkpt>
      <trkpt lat="41.20551" lon="-1.52124">
        <ele>664.977</ele>
        <time>2013-05-09T09:34:19Z</time>
      </trkpt>
      <trkpt lat="41.20556" lon="-1.52117">
        <ele>664.92</ele>
        <time>2013-05-09T09:34:10Z</time>
      </trkpt>
      <trkpt lat="41.20556" lon="-1.52116">
        <ele>664.921</ele>
        <time>2013-05-09T09:34:02Z</time>
      </trkpt>
      <trkpt lat="41.20558" lon="-1.52117">
        <ele>664.941</ele>
        <time>2013-05-09T09:33:52Z</time>
      </trkpt>
      <trkpt lat="41.20559" lon="-1.52117">
        <ele>664.905</ele>
        <time>2013-05-09T09:33:24Z</time>
      </trkpt>
      <trkpt lat="41.20559" lon="-1.52116">
        <ele>664.908</ele>
        <time>2013-05-09T09:32:55Z</time>
      </trkpt>
      <trkpt lat="41.2056" lon="-1.52115">
        <ele>664.933</ele>
        <time>2013-05-09T09:32:30Z</time>
      </trkpt>
      <trkpt lat="41.20559" lon="-1.52116">
        <ele>664.944</ele>
        <time>2013-05-09T09:31:34Z</time>
      </trkpt>
      <trkpt lat="41.20559" lon="-1.52116">
        <ele>664.986</ele>
        <time>2013-05-09T09:30:05Z</time>
      </trkpt>
      <trkpt lat="41.20559" lon="-1.52115">
        <ele>664.951</ele>
        <time>2013-05-09T09:29:35Z</time>
      </trkpt>
      <trkpt lat="41.20559" lon="-1.52116">
        <ele>665.918</ele>
        <time>2013-05-09T09:28:58Z</time>
      </trkpt>
      <trkpt lat="41.2056" lon="-1.52118">
        <ele>665.955</ele>
        <time>2013-05-09T09:28:09Z</time>
      </trkpt>
      <trkpt lat="41.2056" lon="-1.52116">
        <ele>665.973</ele>
        <time>2013-05-09T09:27:06Z</time>
      </trkpt>
      <trkpt lat="41.20559" lon="-1.52118">
        <ele>665.426</ele>
        <time>2013-05-09T09:26:41Z</time>
      </trkpt>
      <trkpt lat="41.2056" lon="-1.52117">
        <ele>665.498</ele>
        <time>2013-05-09T09:26:16Z</time>
      </trkpt>
      <trkpt lat="41.2056" lon="-1.52118">
        <ele>665.415</ele>
        <time>2013-05-09T09:25:40Z</time>
      </trkpt>
      <trkpt lat="41.20558" lon="-1.52117">
        <ele>664.926</ele>
        <time>2013-05-09T09:25:05Z</time>
      </trkpt>
      <trkpt lat="41.2056" lon="-1.52116">
        <ele>664.908</ele>
        <time>2013-05-09T09:24:35Z</time>
      </trkpt>
      <trkpt lat="41.20558" lon="-1.52115">
        <ele>664.99</ele>
        <time>2013-05-09T09:24:21Z</time>
      </trkpt>
      <trkpt lat="41.20569" lon="-1.5213">
        <ele>664.991</ele>
        <time>2013-05-09T09:24:12Z</time>
      </trkpt>
      <trkpt lat="41.20601" lon="-1.52184">
        <ele>664.433</ele>
        <time>2013-05-09T09:23:59Z</time>
      </trkpt>
      <trkpt lat="41.20622" lon="-1.5223">
        <ele>663.958</ele>
        <time>2013-05-09T09:23:46Z</time>
      </trkpt>
      <trkpt lat="41.20629" lon="-1.52244">
        <ele>663.965</ele>
        <time>2013-05-09T09:23:39Z</time>
      </trkpt>
      <trkpt lat="41.2063" lon="-1.52245">
        <ele>663.972</ele>
        <time>2013-05-09T09:23:32Z</time>
      </trkpt>
      <trkpt lat="41.20633" lon="-1.52252">
        <ele>663.93</ele>
        <time>2013-05-09T09:23:23Z</time>
      </trkpt>
      <trkpt lat="41.20634" lon="-1.52252">
        <ele>663.993</ele>
        <time>2013-05-09T09:22:51Z</time>
      </trkpt>
      <trkpt lat="41.2064" lon="-1.52267">
        <ele>663.938</ele>
        <time>2013-05-09T09:22:44Z</time>
      </trkpt>
      <trkpt lat="41.20645" lon="-1.52277">
        <ele>663.57</ele>
        <time>2013-05-09T09:22:42Z</time>
      </trkpt>
      <trkpt lat="41.20683" lon="-1.52333">
        <ele>663.517</ele>
        <time>2013-05-09T09:22:31Z</time>
      </trkpt>
      <trkpt lat="41.20733" lon="-1.52393">
        <ele>663.008</ele>
        <time>2013-05-09T09:22:19Z</time>
      </trkpt>
      <trkpt lat="41.20795" lon="-1.52444">
        <ele>662.574</ele>
        <time>2013-05-09T09:22:05Z</time>
      </trkpt>
      <trkpt lat="41.20861" lon="-1.5248">
        <ele>661.585</ele>
        <time>2013-05-09T09:21:51Z</time>
      </trkpt>
      <trkpt lat="41.20879" lon="-1.52494">
        <ele>661.587</ele>
        <time>2013-05-09T09:21:47Z</time>
      </trkpt>
      <trkpt lat="41.20888" lon="-1.52501">
        <ele>661.542</ele>
        <time>2013-05-09T09:21:45Z</time>
      </trkpt>
      <trkpt lat="41.20941" lon="-1.5257">
        <ele>661.519</ele>
        <time>2013-05-09T09:21:32Z</time>
      </trkpt>
      <trkpt lat="41.21004" lon="-1.52646">
        <ele>661.036</ele>
        <time>2013-05-09T09:21:17Z</time>
      </trkpt>
      <trkpt lat="41.21036" lon="-1.52684">
        <ele>660.614</ele>
        <time>2013-05-09T09:21:10Z</time>
      </trkpt>
      <trkpt lat="41.2104" lon="-1.52689">
        <ele>660.637</ele>
        <time>2013-05-09T09:21:09Z</time>
      </trkpt>
      <trkpt lat="41.21089" lon="-1.52739">
        <ele>660.695</ele>
        <time>2013-05-09T09:20:58Z</time>
      </trkpt>
      <trkpt lat="41.21154" lon="-1.5278">
        <ele>660.149</ele>
        <time>2013-05-09T09:20:45Z</time>
      </trkpt>
      <trkpt lat="41.2123" lon="-1.52829">
        <ele>659.623</ele>
        <time>2013-05-09T09:20:30Z</time>
      </trkpt>
      <trkpt lat="41.21294" lon="-1.52864">
        <ele>659.108</ele>
        <time>2013-05-09T09:20:18Z</time>
      </trkpt>
      <trkpt lat="41.21308" lon="-1.52866">
        <ele>659.14</ele>
        <time>2013-05-09T09:20:15Z</time>
      </trkpt>
      <trkpt lat="41.21343" lon="-1.52857">
        <ele>659.141</ele>
        <time>2013-05-09T09:20:08Z</time>
      </trkpt>
      <trkpt lat="41.21405" lon="-1.52836">
        <ele>659.183</ele>
        <time>2013-05-09T09:19:56Z</time>
      </trkpt>
      <trkpt lat="41.21459" lon="-1.52818">
        <ele>658.658</ele>
        <time>2013-05-09T09:19:43Z</time>
      </trkpt>
      <trkpt lat="41.21507" lon="-1.52801">
        <ele>658.215</ele>
        <time>2013-05-09T09:19:30Z</time>
      </trkpt>
      <trkpt lat="41.21549" lon="-1.52791">
        <ele>657.792</ele>
        <time>2013-05-09T09:19:19Z</time>
      </trkpt>
      <trkpt lat="41.2157" lon="-1.52805">
        <ele>656.23</ele>
        <time>2013-05-09T09:19:11Z</time>
      </trkpt>
      <trkpt lat="41.2159" lon="-1.52843">
        <ele>656.233</ele>
        <time>2013-05-09T09:19:01Z</time>
      </trkpt>
      <trkpt lat="41.216" lon="-1.52884">
        <ele>656.249</ele>
        <time>2013-05-09T09:18:50Z</time>
      </trkpt>
      <trkpt lat="41.21598" lon="-1.52922">
        <ele>656.202</ele>
        <time>2013-05-09T09:18:38Z</time>
      </trkpt>
      <trkpt lat="41.21594" lon="-1.52926">
        <ele>656.222</ele>
        <time>2013-05-09T09:18:34Z</time>
      </trkpt>
      <trkpt lat="41.21613" lon="-1.52936">
        <ele>656.208</ele>
        <time>2013-05-09T09:18:25Z</time>
      </trkpt>
      <trkpt lat="41.21637" lon="-1.52954">
        <ele>656.265</ele>
        <time>2013-05-09T09:18:15Z</time>
      </trkpt>
      <trkpt lat="41.21648" lon="-1.52952">
        <ele>656.276</ele>
        <time>2013-05-09T09:18:10Z</time>
      </trkpt>
      <trkpt lat="41.21652" lon="-1.52955">
        <ele>656.228</ele>
        <time>2013-05-09T09:18:06Z</time>
      </trkpt>
      <trkpt lat="41.21653" lon="-1.52955">
        <ele>656.253</ele>
        <time>2013-05-09T09:18:05Z</time>
      </trkpt>
      <trkpt lat="41.21665" lon="-1.52949">
        <ele>656.22</ele>
        <time>2013-05-09T09:17:42Z</time>
      </trkpt>
      <trkpt lat="41.21665" lon="-1.52952">
        <ele>656.227</ele>
        <time>2013-05-09T09:17:19Z</time>
      </trkpt>
      <trkpt lat="41.21676" lon="-1.52968">
        <ele>656.285</ele>
        <time>2013-05-09T09:17:12Z</time>
      </trkpt>
      <trkpt lat="41.2168" lon="-1.5298">
        <ele>656.288</ele>
        <time>2013-05-09T09:17:10Z</time>
      </trkpt>
      <trkpt lat="41.21694" lon="-1.53024">
        <ele>655.868</ele>
        <time>2013-05-09T09:17:02Z</time>
      </trkpt>
      <trkpt lat="41.21725" lon="-1.53092">
        <ele>654.842</ele>
        <time>2013-05-09T09:16:50Z</time>
      </trkpt>
      <trkpt lat="41.21762" lon="-1.53167">
        <ele>654.326</ele>
        <time>2013-05-09T09:16:36Z</time>
      </trkpt>
      <trkpt lat="41.21803" lon="-1.53246">
        <ele>652.908</ele>
        <time>2013-05-09T09:16:21Z</time>
      </trkpt>
      <trkpt lat="41.21834" lon="-1.5333">
        <ele>651.497</ele>
        <time>2013-05-09T09:16:06Z</time>
      </trkpt>
      <trkpt lat="41.21852" lon="-1.53381">
        <ele>651.068</ele>
        <time>2013-05-09T09:15:56Z</time>
      </trkpt>
      <trkpt lat="41.21882" lon="-1.53452">
        <ele>650.54</ele>
        <time>2013-05-09T09:15:42Z</time>
      </trkpt>
      <trkpt lat="41.21887" lon="-1.53462">
        <ele>650.555</ele>
        <time>2013-05-09T09:15:40Z</time>
      </trkpt>
      <trkpt lat="41.2192" lon="-1.53517">
        <ele>650.062</ele>
        <time>2013-05-09T09:15:28Z</time>
      </trkpt>
      <trkpt lat="41.21925" lon="-1.53528">
        <ele>650.089</ele>
        <time>2013-05-09T09:15:26Z</time>
      </trkpt>
      <trkpt lat="41.21951" lon="-1.53553">
        <ele>650.037</ele>
        <time>2013-05-09T09:15:19Z</time>
      </trkpt>
      <trkpt lat="41.21991" lon="-1.53564">
        <ele>650.03</ele>
        <time>2013-05-09T09:15:10Z</time>
      </trkpt>
      <trkpt lat="41.22049" lon="-1.53589">
        <ele>649.592</ele>
        <time>2013-05-09T09:14:56Z</time>
      </trkpt>
      <trkpt lat="41.22101" lon="-1.53632">
        <ele>649.073</ele>
        <time>2013-05-09T09:14:42Z</time>
      </trkpt>
      <trkpt lat="41.22145" lon="-1.53685">
        <ele>648.62</ele>
        <time>2013-05-09T09:14:28Z</time>
      </trkpt>
      <trkpt lat="41.22185" lon="-1.53743">
        <ele>648.108</ele>
        <time>2013-05-09T09:14:14Z</time>
      </trkpt>
      <trkpt lat="41.22197" lon="-1.53752">
        <ele>648.11</ele>
        <time>2013-05-09T09:14:11Z</time>
      </trkpt>
      <trkpt lat="41.22251" lon="-1.5379">
        <ele>647.641</ele>
        <time>2013-05-09T09:13:57Z</time>
      </trkpt>
      <trkpt lat="41.22292" lon="-1.53836">
        <ele>647.663</ele>
        <time>2013-05-09T09:13:44Z</time>
      </trkpt>
      <trkpt lat="41.223" lon="-1.5384">
        <ele>647.668</ele>
        <time>2013-05-09T09:13:42Z</time>
      </trkpt>
      <trkpt lat="41.22312" lon="-1.53845">
        <ele>647.135</ele>
        <time>2013-05-09T09:13:39Z</time>
      </trkpt>
      <trkpt lat="41.22355" lon="-1.5387">
        <ele>647.122</ele>
        <time>2013-05-09T09:13:28Z</time>
      </trkpt>
      <trkpt lat="41.22376" lon="-1.53906">
        <ele>646.67</ele>
        <time>2013-05-09T09:13:20Z</time>
      </trkpt>
      <trkpt lat="41.22413" lon="-1.53958">
        <ele>646.683</ele>
        <time>2013-05-09T09:13:08Z</time>
      </trkpt>
      <trkpt lat="41.22421" lon="-1.5397">
        <ele>646.671</ele>
        <time>2013-05-09T09:13:05Z</time>
      </trkpt>
      <trkpt lat="41.22446" lon="-1.5401">
        <ele>646.641</ele>
        <time>2013-05-09T09:12:56Z</time>
      </trkpt>
      <trkpt lat="41.2245" lon="-1.54019">
        <ele>646.615</ele>
        <time>2013-05-09T09:12:54Z</time>
      </trkpt>
      <trkpt lat="41.22455" lon="-1.54029">
        <ele>646.608</ele>
        <time>2013-05-09T09:12:52Z</time>
      </trkpt>
      <trkpt lat="41.22468" lon="-1.54043">
        <ele>646.658</ele>
        <time>2013-05-09T09:12:48Z</time>
      </trkpt>
      <trkpt lat="41.22501" lon="-1.54103">
        <ele>646.129</ele>
        <time>2013-05-09T09:12:34Z</time>
      </trkpt>
      <trkpt lat="41.22537" lon="-1.54168">
        <ele>645.791</ele>
        <time>2013-05-09T09:12:19Z</time>
      </trkpt>
      <trkpt lat="41.22576" lon="-1.54236">
        <ele>645.236</ele>
        <time>2013-05-09T09:12:03Z</time>
      </trkpt>
      <trkpt lat="41.22609" lon="-1.54294">
        <ele>644.713</ele>
        <time>2013-05-09T09:11:49Z</time>
      </trkpt>
      <trkpt lat="41.2264" lon="-1.54352">
        <ele>644.21</ele>
        <time>2013-05-09T09:11:35Z</time>
      </trkpt>
      <trkpt lat="41.22668" lon="-1.54396">
        <ele>644.238</ele>
        <time>2013-05-09T09:11:23Z</time>
      </trkpt>
      <trkpt lat="41.22707" lon="-1.54424">
        <ele>644.241</ele>
        <time>2013-05-09T09:11:10Z</time>
      </trkpt>
      <trkpt lat="41.22756" lon="-1.54435">
        <ele>644.234</ele>
        <time>2013-05-09T09:10:54Z</time>
      </trkpt>
      <trkpt lat="41.22785" lon="-1.54429">
        <ele>644.255</ele>
        <time>2013-05-09T09:10:43Z</time>
      </trkpt>
      <trkpt lat="41.22795" lon="-1.54428">
        <ele>644.21</ele>
        <time>2013-05-09T09:10:38Z</time>
      </trkpt>
      <trkpt lat="41.22811" lon="-1.5443">
        <ele>644.208</ele>
        <time>2013-05-09T09:10:30Z</time>
      </trkpt>
      <trkpt lat="41.22814" lon="-1.54433">
        <ele>644.294</ele>
        <time>2013-05-09T09:10:05Z</time>
      </trkpt>
      <trkpt lat="41.22815" lon="-1.54436">
        <ele>643.745</ele>
        <time>2013-05-09T09:09:36Z</time>
      </trkpt>
      <trkpt lat="41.22814" lon="-1.54435">
        <ele>643.787</ele>
        <time>2013-05-09T09:09:05Z</time>
      </trkpt>
      <trkpt lat="41.22814" lon="-1.54434">
        <ele>643.362</ele>
        <time>2013-05-09T09:08:26Z</time>
      </trkpt>
      <trkpt lat="41.22813" lon="-1.54432">
        <ele>643.329</ele>
        <time>2013-05-09T09:08:11Z</time>
      </trkpt>
      <trkpt lat="41.22817" lon="-1.54433">
        <ele>643.336</ele>
        <time>2013-05-09T09:08:00Z</time>
      </trkpt>
      <trkpt lat="41.22818" lon="-1.54434">
        <ele>643.334</ele>
        <time>2013-05-09T09:07:39Z</time>
      </trkpt>
      <trkpt lat="41.22819" lon="-1.54437">
        <ele>643.387</ele>
        <time>2013-05-09T09:07:30Z</time>
      </trkpt>
      <trkpt lat="41.22822" lon="-1.54448">
        <ele>643.394</ele>
        <time>2013-05-09T09:07:26Z</time>
      </trkpt>
      <trkpt lat="41.22833" lon="-1.54493">
        <ele>642.857</ele>
        <time>2013-05-09T09:07:13Z</time>
      </trkpt>
      <trkpt lat="41.22839" lon="-1.54501">
        <ele>642.322</ele>
        <time>2013-05-09T09:06:55Z</time>
      </trkpt>
      <trkpt lat="41.22841" lon="-1.54508">
        <ele>642.308</ele>
        <time>2013-05-09T09:06:48Z</time>
      </trkpt>
      <trkpt lat="41.22868" lon="-1.54564">
        <ele>641.83</ele>
        <time>2013-05-09T09:06:36Z</time>
      </trkpt>
      <trkpt lat="41.22875" lon="-1.54572">
        <ele>641.851</ele>
        <time>2013-05-09T09:06:34Z</time>
      </trkpt>
      <trkpt lat="41.22925" lon="-1.5462">
        <ele>641.853</ele>
        <time>2013-05-09T09:06:21Z</time>
      </trkpt>
      <trkpt lat="41.22943" lon="-1.54641">
        <ele>641.878</ele>
        <time>2013-05-09T09:06:16Z</time>
      </trkpt>
      <trkpt lat="41.22983" lon="-1.54689">
        <ele>641.835</ele>
        <time>2013-05-09T09:06:04Z</time>
      </trkpt>
      <trkpt lat="41.22992" lon="-1.54699">
        <ele>641.882</ele>
        <time>2013-05-09T09:06:01Z</time>
      </trkpt>
      <trkpt lat="41.23036" lon="-1.54736">
        <ele>641.89</ele>
        <time>2013-05-09T09:05:49Z</time>
      </trkpt>
      <trkpt lat="41.23081" lon="-1.54782">
        <ele>641.833</ele>
        <time>2013-05-09T09:05:36Z</time>
      </trkpt>
      <trkpt lat="41.23119" lon="-1.54816">
        <ele>641.856</ele>
        <time>2013-05-09T09:05:25Z</time>
      </trkpt>
      <trkpt lat="41.23141" lon="-1.54837">
        <ele>641.859</ele>
        <time>2013-05-09T09:05:14Z</time>
      </trkpt>
      <trkpt lat="41.23142" lon="-1.54837">
        <ele>641.814</ele>
        <time>2013-05-09T09:04:43Z</time>
      </trkpt>
      <trkpt lat="41.23141" lon="-1.54837">
        <ele>641.808</ele>
        <time>2013-05-09T09:04:28Z</time>
      </trkpt>
      <trkpt lat="41.2316" lon="-1.54855">
        <ele>641.846</ele>
        <time>2013-05-09T09:04:19Z</time>
      </trkpt>
      <trkpt lat="41.2321" lon="-1.54903">
        <ele>641.897</ele>
        <time>2013-05-09T09:04:05Z</time>
      </trkpt>
      <trkpt lat="41.23259" lon="-1.54952">
        <ele>641.849</ele>
        <time>2013-05-09T09:03:51Z</time>
      </trkpt>
      <trkpt lat="41.23265" lon="-1.54959">
        <ele>641.884</ele>
        <time>2013-05-09T09:03:49Z</time>
      </trkpt>
      <trkpt lat="41.23275" lon="-1.54969">
        <ele>641.851</ele>
        <time>2013-05-09T09:03:46Z</time>
      </trkpt>
      <trkpt lat="41.23307" lon="-1.55003">
        <ele>641.858</ele>
        <time>2013-05-09T09:03:36Z</time>
      </trkpt>
      <trkpt lat="41.23319" lon="-1.55014">
        <ele>640.986</ele>
        <time>2013-05-09T09:03:31Z</time>
      </trkpt>
      <trkpt lat="41.23325" lon="-1.55039">
        <ele>642.349</ele>
        <time>2013-05-09T09:03:25Z</time>
      </trkpt>
      <trkpt lat="41.23328" lon="-1.55045">
        <ele>642.895</ele>
        <time>2013-05-09T09:03:23Z</time>
      </trkpt>
      <trkpt lat="41.2338" lon="-1.55095">
        <ele>642.349</ele>
        <time>2013-05-09T09:03:06Z</time>
      </trkpt>
      <trkpt lat="41.23396" lon="-1.55112">
        <ele>640.923</ele>
        <time>2013-05-09T09:03:01Z</time>
      </trkpt>
      <trkpt lat="41.23403" lon="-1.55127">
        <ele>640.908</ele>
        <time>2013-05-09T09:02:58Z</time>
      </trkpt>
      <trkpt lat="41.23409" lon="-1.55143">
        <ele>640.93</ele>
        <time>2013-05-09T09:02:55Z</time>
      </trkpt>
      <trkpt lat="41.23417" lon="-1.55156">
        <ele>640.951</ele>
        <time>2013-05-09T09:02:52Z</time>
      </trkpt>
      <trkpt lat="41.23421" lon="-1.55165">
        <ele>640.973</ele>
        <time>2013-05-09T09:02:50Z</time>
      </trkpt>
      <trkpt lat="41.23443" lon="-1.55224">
        <ele>640.918</ele>
        <time>2013-05-09T09:02:38Z</time>
      </trkpt>
      <trkpt lat="41.23456" lon="-1.55273">
        <ele>640.915</ele>
        <time>2013-05-09T09:02:29Z</time>
      </trkpt>
      <trkpt lat="41.23456" lon="-1.55313">
        <ele>642.322</ele>
        <time>2013-05-09T09:02:24Z</time>
      </trkpt>
      <trkpt lat="41.23453" lon="-1.55333">
        <ele>643.38</ele>
        <time>2013-05-09T09:02:21Z</time>
      </trkpt>
      <trkpt lat="41.23459" lon="-1.55357">
        <ele>643.383</ele>
        <time>2013-05-09T09:02:17Z</time>
      </trkpt>
      <trkpt lat="41.23464" lon="-1.55369">
        <ele>643.326</ele>
        <time>2013-05-09T09:02:15Z</time>
      </trkpt>
      <trkpt lat="41.23477" lon="-1.55391">
        <ele>643.747</ele>
        <time>2013-05-09T09:02:11Z</time>
      </trkpt>
      <trkpt lat="41.23486" lon="-1.55408">
        <ele>644.211</ele>
        <time>2013-05-09T09:02:08Z</time>
      </trkpt>
      <trkpt lat="41.2349" lon="-1.5542">
        <ele>645.708</ele>
        <time>2013-05-09T09:02:06Z</time>
      </trkpt>
      <trkpt lat="41.23513" lon="-1.55467">
        <ele>645.753</ele>
        <time>2013-05-09T09:01:54Z</time>
      </trkpt>
      <trkpt lat="41.23528" lon="-1.55498">
        <ele>644.744</ele>
        <time>2013-05-09T09:01:43Z</time>
      </trkpt>
      <trkpt lat="41.2354" lon="-1.5553">
        <ele>643.386</ele>
        <time>2013-05-09T09:01:33Z</time>
      </trkpt>
      <trkpt lat="41.23547" lon="-1.5559">
        <ele>642.821</ele>
        <time>2013-05-09T09:01:21Z</time>
      </trkpt>
      <trkpt lat="41.23548" lon="-1.55639">
        <ele>642.838</ele>
        <time>2013-05-09T09:01:11Z</time>
      </trkpt>
      <trkpt lat="41.23548" lon="-1.55697">
        <ele>642.855</ele>
        <time>2013-05-09T09:01:00Z</time>
      </trkpt>
      <trkpt lat="41.23547" lon="-1.55721">
        <ele>642.813</ele>
        <time>2013-05-09T09:00:56Z</time>
      </trkpt>
      <trkpt lat="41.2355" lon="-1.55763">
        <ele>642.856</ele>
        <time>2013-05-09T09:00:47Z</time>
      </trkpt>
      <trkpt lat="41.23556" lon="-1.55827">
        <ele>642.828</ele>
        <time>2013-05-09T09:00:35Z</time>
      </trkpt>
      <trkpt lat="41.23568" lon="-1.55898">
        <ele>642.889</ele>
        <time>2013-05-09T09:00:22Z</time>
      </trkpt>
      <trkpt lat="41.23572" lon="-1.55931">
        <ele>642.817</ele>
        <time>2013-05-09T09:00:16Z</time>
      </trkpt>
      <trkpt lat="41.23586" lon="-1.55984">
        <ele>642.808</ele>
        <time>2013-05-09T09:00:04Z</time>
      </trkpt>
      <trkpt lat="41.23599" lon="-1.56013">
        <ele>642.393</ele>
        <time>2013-05-09T08:59:57Z</time>
      </trkpt>
      <trkpt lat="41.2362" lon="-1.56065">
        <ele>641.364</ele>
        <time>2013-05-09T08:59:44Z</time>
      </trkpt>
      <trkpt lat="41.23634" lon="-1.5611">
        <ele>639.936</ele>
        <time>2013-05-09T08:59:33Z</time>
      </trkpt>
      <trkpt lat="41.23652" lon="-1.56184">
        <ele>639.951</ele>
        <time>2013-05-09T08:59:18Z</time>
      </trkpt>
      <trkpt lat="41.23654" lon="-1.56195">
        <ele>639.928</ele>
        <time>2013-05-09T08:59:16Z</time>
      </trkpt>
      <trkpt lat="41.23665" lon="-1.56239">
        <ele>639.985</ele>
        <time>2013-05-09T08:59:07Z</time>
      </trkpt>
      <trkpt lat="41.23686" lon="-1.56301">
        <ele>639.983</ele>
        <time>2013-05-09T08:58:53Z</time>
      </trkpt>
      <trkpt lat="41.23711" lon="-1.56372">
        <ele>639.996</ele>
        <time>2013-05-09T08:58:40Z</time>
      </trkpt>
      <trkpt lat="41.23727" lon="-1.56436">
        <ele>639.926</ele>
        <time>2013-05-09T08:58:28Z</time>
      </trkpt>
      <trkpt lat="41.23739" lon="-1.56506">
        <ele>639.947</ele>
        <time>2013-05-09T08:58:15Z</time>
      </trkpt>
      <trkpt lat="41.23751" lon="-1.56551">
        <ele>639.911</ele>
        <time>2013-05-09T08:58:07Z</time>
      </trkpt>
      <trkpt lat="41.23766" lon="-1.56612">
        <ele>640.908</ele>
        <time>2013-05-09T08:57:55Z</time>
      </trkpt>
      <trkpt lat="41.23769" lon="-1.56651">
        <ele>640.983</ele>
        <time>2013-05-09T08:57:47Z</time>
      </trkpt>
      <trkpt lat="41.23792" lon="-1.56684">
        <ele>639.964</ele>
        <time>2013-05-09T08:57:38Z</time>
      </trkpt>
      <trkpt lat="41.23808" lon="-1.56703">
        <ele>640.946</ele>
        <time>2013-05-09T08:57:33Z</time>
      </trkpt>
      <trkpt lat="41.23838" lon="-1.56754">
        <ele>640.941</ele>
        <time>2013-05-09T08:57:21Z</time>
      </trkpt>
      <trkpt lat="41.23865" lon="-1.56823">
        <ele>640.968</ele>
        <time>2013-05-09T08:57:07Z</time>
      </trkpt>
      <trkpt lat="41.23881" lon="-1.56875">
        <ele>640.435</ele>
        <time>2013-05-09T08:56:57Z</time>
      </trkpt>
      <trkpt lat="41.23896" lon="-1.56951">
        <ele>640.433</ele>
        <time>2013-05-09T08:56:42Z</time>
      </trkpt>
      <trkpt lat="41.23898" lon="-1.56972">
        <ele>640.426</ele>
        <time>2013-05-09T08:56:38Z</time>
      </trkpt>
      <trkpt lat="41.23916" lon="-1.57021">
        <ele>640.448</ele>
        <time>2013-05-09T08:56:27Z</time>
      </trkpt>
      <trkpt lat="41.23941" lon="-1.5706">
        <ele>639.461</ele>
        <time>2013-05-09T08:56:16Z</time>
      </trkpt>
      <trkpt lat="41.23949" lon="-1.57078">
        <ele>638.517</ele>
        <time>2013-05-09T08:56:11Z</time>
      </trkpt>
      <trkpt lat="41.23972" lon="-1.57089">
        <ele>637.508</ele>
        <time>2013-05-09T08:56:03Z</time>
      </trkpt>
      <trkpt lat="41.23996" lon="-1.57119">
        <ele>637.595</ele>
        <time>2013-05-09T08:55:55Z</time>
      </trkpt>
      <trkpt lat="41.2401" lon="-1.57151">
        <ele>638.026</ele>
        <time>2013-05-09T08:55:49Z</time>
      </trkpt>
      <trkpt lat="41.24012" lon="-1.57162">
        <ele>638.098</ele>
        <time>2013-05-09T08:55:47Z</time>
      </trkpt>
      <trkpt lat="41.24019" lon="-1.57179">
        <ele>638.053</ele>
        <time>2013-05-09T08:55:44Z</time>
      </trkpt>
      <trkpt lat="41.24025" lon="-1.57189">
        <ele>639.43</ele>
        <time>2013-05-09T08:55:42Z</time>
      </trkpt>
      <trkpt lat="41.24053" lon="-1.57226">
        <ele>639.427</ele>
        <time>2013-05-09T08:55:33Z</time>
      </trkpt>
      <trkpt lat="41.24064" lon="-1.57276">
        <ele>639.485</ele>
        <time>2013-05-09T08:55:22Z</time>
      </trkpt>
      <trkpt lat="41.24075" lon="-1.57313">
        <ele>639.498</ele>
        <time>2013-05-09T08:55:13Z</time>
      </trkpt>
      <trkpt lat="41.24093" lon="-1.57365">
        <ele>639.415</ele>
        <time>2013-05-09T08:55:01Z</time>
      </trkpt>
      <trkpt lat="41.24112" lon="-1.57418">
        <ele>638.965</ele>
        <time>2013-05-09T08:54:47Z</time>
      </trkpt>
      <trkpt lat="41.24131" lon="-1.57467">
        <ele>637.011</ele>
        <time>2013-05-09T08:54:32Z</time>
      </trkpt>
      <trkpt lat="41.24153" lon="-1.57515">
        <ele>636.108</ele>
        <time>2013-05-09T08:54:18Z</time>
      </trkpt>
      <trkpt lat="41.24176" lon="-1.57565">
        <ele>636.142</ele>
        <time>2013-05-09T08:54:06Z</time>
      </trkpt>
      <trkpt lat="41.24202" lon="-1.57626">
        <ele>637.013</ele>
        <time>2013-05-09T08:53:54Z</time>
      </trkpt>
      <trkpt lat="41.24211" lon="-1.57678">
        <ele>637.055</ele>
        <time>2013-05-09T08:53:43Z</time>
      </trkpt>
      <trkpt lat="41.24227" lon="-1.57727">
        <ele>637.02</ele>
        <time>2013-05-09T08:53:32Z</time>
      </trkpt>
      <trkpt lat="41.24249" lon="-1.5778">
        <ele>637.087</ele>
        <time>2013-05-09T08:53:20Z</time>
      </trkpt>
      <trkpt lat="41.24263" lon="-1.57824">
        <ele>637.074</ele>
        <time>2013-05-09T08:53:10Z</time>
      </trkpt>
      <trkpt lat="41.24274" lon="-1.57867">
        <ele>636.562</ele>
        <time>2013-05-09T08:52:59Z</time>
      </trkpt>
      <trkpt lat="41.24283" lon="-1.57913">
        <ele>635.165</ele>
        <time>2013-05-09T08:52:46Z</time>
      </trkpt>
      <trkpt lat="41.2428" lon="-1.57958">
        <ele>633.767</ele>
        <time>2013-05-09T08:52:35Z</time>
      </trkpt>
      <trkpt lat="41.24269" lon="-1.5801">
        <ele>633.781</ele>
        <time>2013-05-09T08:52:23Z</time>
      </trkpt>
      <trkpt lat="41.24277" lon="-1.58043">
        <ele>632.719</ele>
        <time>2013-05-09T08:52:13Z</time>
      </trkpt>
      <trkpt lat="41.24294" lon="-1.5807">
        <ele>632.208</ele>
        <time>2013-05-09T08:51:59Z</time>
      </trkpt>
      <trkpt lat="41.24307" lon="-1.58082">
        <ele>631.277</ele>
        <time>2013-05-09T08:51:50Z</time>
      </trkpt>
      <trkpt lat="41.24309" lon="-1.58084">
        <ele>631.238</ele>
        <time>2013-05-09T08:51:49Z</time>
      </trkpt>
      <trkpt lat="41.2431" lon="-1.58085">
        <ele>631.26</ele>
        <time>2013-05-09T08:51:48Z</time>
      </trkpt>
      <trkpt lat="41.2431" lon="-1.58087">
        <ele>631.245</ele>
        <time>2013-05-09T08:51:47Z</time>
      </trkpt>
      <trkpt lat="41.24311" lon="-1.58088">
        <ele>631.262</ele>
        <time>2013-05-09T08:51:46Z</time>
      </trkpt>
      <trkpt lat="41.24312" lon="-1.58089">
        <ele>631.259</ele>
        <time>2013-05-09T08:51:45Z</time>
      </trkpt>
      <trkpt lat="41.24315" lon="-1.5809">
        <ele>631.237</ele>
        <time>2013-05-09T08:51:06Z</time>
      </trkpt>
      <trkpt lat="41.24322" lon="-1.58088">
        <ele>631.24</ele>
        <time>2013-05-09T08:50:58Z</time>
      </trkpt>
      <trkpt lat="41.24357" lon="-1.58089">
        <ele>631.798</ele>
        <time>2013-05-09T08:50:47Z</time>
      </trkpt>
      <trkpt lat="41.24396" lon="-1.58099">
        <ele>633.215</ele>
        <time>2013-05-09T08:50:35Z</time>
      </trkpt>
      <trkpt lat="41.24444" lon="-1.58108">
        <ele>633.226</ele>
        <time>2013-05-09T08:50:25Z</time>
      </trkpt>
      <trkpt lat="41.2445" lon="-1.5811">
        <ele>633.208</ele>
        <time>2013-05-09T08:50:24Z</time>
      </trkpt>
      <trkpt lat="41.24455" lon="-1.58112">
        <ele>633.28</ele>
        <time>2013-05-09T08:50:23Z</time>
      </trkpt>
      <trkpt lat="41.24461" lon="-1.58115">
        <ele>633.221</ele>
        <time>2013-05-09T08:50:22Z</time>
      </trkpt>
      <trkpt lat="41.24466" lon="-1.58119">
        <ele>633.223</ele>
        <time>2013-05-09T08:50:21Z</time>
      </trkpt>
      <trkpt lat="41.24471" lon="-1.58123">
        <ele>633.228</ele>
        <time>2013-05-09T08:50:20Z</time>
      </trkpt>
      <trkpt lat="41.24474" lon="-1.5813">
        <ele>633.235</ele>
        <time>2013-05-09T08:50:19Z</time>
      </trkpt>
      <trkpt lat="41.24477" lon="-1.58136">
        <ele>633.242</ele>
        <time>2013-05-09T08:50:18Z</time>
      </trkpt>
      <trkpt lat="41.24484" lon="-1.58191">
        <ele>633.27</ele>
        <time>2013-05-09T08:50:10Z</time>
      </trkpt>
      <trkpt lat="41.24485" lon="-1.58197">
        <ele>633.283</ele>
        <time>2013-05-09T08:50:09Z</time>
      </trkpt>
      <trkpt lat="41.24508" lon="-1.58268">
        <ele>633.223</ele>
        <time>2013-05-09T08:49:57Z</time>
      </trkpt>
      <trkpt lat="41.24542" lon="-1.58351">
        <ele>633.283</ele>
        <time>2013-05-09T08:49:42Z</time>
      </trkpt>
      <trkpt lat="41.24571" lon="-1.58384">
        <ele>633.211</ele>
        <time>2013-05-09T08:49:32Z</time>
      </trkpt>
      <trkpt lat="41.24597" lon="-1.58398">
        <ele>633.208</ele>
        <time>2013-05-09T08:49:23Z</time>
      </trkpt>
      <trkpt lat="41.2462" lon="-1.58438">
        <ele>633.233</ele>
        <time>2013-05-09T08:49:12Z</time>
      </trkpt>
      <trkpt lat="41.24638" lon="-1.58475">
        <ele>633.274</ele>
        <time>2013-05-09T08:49:01Z</time>
      </trkpt>
      <trkpt lat="41.24658" lon="-1.5849">
        <ele>631.726</ele>
        <time>2013-05-09T08:48:52Z</time>
      </trkpt>
      <trkpt lat="41.2466" lon="-1.5849">
        <ele>631.781</ele>
        <time>2013-05-09T08:48:51Z</time>
      </trkpt>
      <trkpt lat="41.24661" lon="-1.5849">
        <ele>631.718</ele>
        <time>2013-05-09T08:48:50Z</time>
      </trkpt>
      <trkpt lat="41.24664" lon="-1.58491">
        <ele>631.755</ele>
        <time>2013-05-09T08:48:19Z</time>
      </trkpt>
      <trkpt lat="41.24676" lon="-1.58509">
        <ele>630.343</ele>
        <time>2013-05-09T08:48:07Z</time>
      </trkpt>
      <trkpt lat="41.24683" lon="-1.58535">
        <ele>628.826</ele>
        <time>2013-05-09T08:47:57Z</time>
      </trkpt>
      <trkpt lat="41.24696" lon="-1.58572">
        <ele>626.937</ele>
        <time>2013-05-09T08:47:42Z</time>
      </trkpt>
      <trkpt lat="41.24704" lon="-1.58591">
        <ele>626.949</ele>
        <time>2013-05-09T08:47:32Z</time>
      </trkpt>
      <trkpt lat="41.24708" lon="-1.58598">
        <ele>626.913</ele>
        <time>2013-05-09T08:47:23Z</time>
      </trkpt>
      <trkpt lat="41.24708" lon="-1.586">
        <ele>626.908</ele>
        <time>2013-05-09T08:47:22Z</time>
      </trkpt>
      <trkpt lat="41.24692" lon="-1.58626">
        <ele>626.924</ele>
        <time>2013-05-09T08:47:12Z</time>
      </trkpt>
      <trkpt lat="41.2469" lon="-1.58628">
        <ele>626.925</ele>
        <time>2013-05-09T08:47:11Z</time>
      </trkpt>
      <trkpt lat="41.24689" lon="-1.5863">
        <ele>626.937</ele>
        <time>2013-05-09T08:47:10Z</time>
      </trkpt>
      <trkpt lat="41.24687" lon="-1.58632">
        <ele>626.942</ele>
        <time>2013-05-09T08:47:09Z</time>
      </trkpt>
      <trkpt lat="41.24687" lon="-1.58634">
        <ele>626.929</ele>
        <time>2013-05-09T08:47:08Z</time>
      </trkpt>
      <trkpt lat="41.24687" lon="-1.58635">
        <ele>626.916</ele>
        <time>2013-05-09T08:47:07Z</time>
      </trkpt>
      <trkpt lat="41.24701" lon="-1.58645">
        <ele>626.934</ele>
        <time>2013-05-09T08:46:55Z</time>
      </trkpt>
      <trkpt lat="41.24723" lon="-1.58661">
        <ele>626.917</ele>
        <time>2013-05-09T08:46:42Z</time>
      </trkpt>
      <trkpt lat="41.24741" lon="-1.58672">
        <ele>626.445</ele>
        <time>2013-05-09T08:46:32Z</time>
      </trkpt>
      <trkpt lat="41.24758" lon="-1.58686">
        <ele>625.047</ele>
        <time>2013-05-09T08:46:20Z</time>
      </trkpt>
      <trkpt lat="41.24777" lon="-1.58699">
        <ele>625.011</ele>
        <time>2013-05-09T08:46:08Z</time>
      </trkpt>
      <trkpt lat="41.24783" lon="-1.58712">
        <ele>625.008</ele>
        <time>2013-05-09T08:45:39Z</time>
      </trkpt>
      <trkpt lat="41.24782" lon="-1.58714">
        <ele>625.025</ele>
        <time>2013-05-09T08:45:14Z</time>
      </trkpt>
      <trkpt lat="41.2478" lon="-1.58716">
        <ele>625.066</ele>
        <time>2013-05-09T08:45:00Z</time>
      </trkpt>
      <trkpt lat="41.24778" lon="-1.58718">
        <ele>625.048</ele>
        <time>2013-05-09T08:44:45Z</time>
      </trkpt>
      <trkpt lat="41.24777" lon="-1.58718">
        <ele>625.013</ele>
        <time>2013-05-09T08:44:22Z</time>
      </trkpt>
      <trkpt lat="41.24779" lon="-1.58717">
        <ele>625.04</ele>
        <time>2013-05-09T08:43:47Z</time>
      </trkpt>
      <trkpt lat="41.24781" lon="-1.58715">
        <ele>625.087</ele>
        <time>2013-05-09T08:43:22Z</time>
      </trkpt>
      <trkpt lat="41.24782" lon="-1.58714">
        <ele>625.055</ele>
        <time>2013-05-09T08:42:57Z</time>
      </trkpt>
      <trkpt lat="41.2478" lon="-1.58712">
        <ele>625.018</ele>
        <time>2013-05-09T08:42:40Z</time>
      </trkpt>
      <trkpt lat="41.2478" lon="-1.58714">
        <ele>625.064</ele>
        <time>2013-05-09T08:42:22Z</time>
      </trkpt>
      <trkpt lat="41.24778" lon="-1.58715">
        <ele>625.006</ele>
        <time>2013-05-09T08:42:04Z</time>
      </trkpt>
      <trkpt lat="41.24779" lon="-1.58718">
        <ele>625.016</ele>
        <time>2013-05-09T08:41:41Z</time>
      </trkpt>
      <trkpt lat="41.24779" lon="-1.58716">
        <ele>625.008</ele>
        <time>2013-05-09T08:40:33Z</time>
      </trkpt>
      <trkpt lat="41.24782" lon="-1.58715">
        <ele>625.077</ele>
        <time>2013-05-09T08:40:24Z</time>
      </trkpt>
      <trkpt lat="41.24785" lon="-1.58719">
        <ele>625.098</ele>
        <time>2013-05-09T08:40:16Z</time>
      </trkpt>
      <trkpt lat="41.24791" lon="-1.58725">
        <ele>626.02</ele>
        <time>2013-05-09T08:39:21Z</time>
      </trkpt>
      <trkpt lat="41.24791" lon="-1.58728">
        <ele>626.055</ele>
        <time>2013-05-09T08:39:12Z</time>
      </trkpt>
      <trkpt lat="41.24792" lon="-1.5873">
        <ele>626.022</ele>
        <time>2013-05-09T08:39:11Z</time>
      </trkpt>
      <trkpt lat="41.24793" lon="-1.58731">
        <ele>626.099</ele>
        <time>2013-05-09T08:39:10Z</time>
      </trkpt>
      <trkpt lat="41.24794" lon="-1.58732">
        <ele>626.047</ele>
        <time>2013-05-09T08:39:09Z</time>
      </trkpt>
      <trkpt lat="41.24795" lon="-1.58733">
        <ele>626.07</ele>
        <time>2013-05-09T08:39:08Z</time>
      </trkpt>
      <trkpt lat="41.24796" lon="-1.58734">
        <ele>626.062</ele>
        <time>2013-05-09T08:39:07Z</time>
      </trkpt>
      <trkpt lat="41.24798" lon="-1.58735">
        <ele>626.083</ele>
        <time>2013-05-09T08:39:06Z</time>
      </trkpt>
      <trkpt lat="41.24799" lon="-1.58734">
        <ele>626.011</ele>
        <time>2013-05-09T08:39:05Z</time>
      </trkpt>
      <trkpt lat="41.248" lon="-1.58733">
        <ele>626.008</ele>
        <time>2013-05-09T08:39:04Z</time>
      </trkpt>
      <trkpt lat="41.24802" lon="-1.58733">
        <ele>626.077</ele>
        <time>2013-05-09T08:39:03Z</time>
      </trkpt>
      <trkpt lat="41.24804" lon="-1.58733">
        <ele>626.018</ele>
        <time>2013-05-09T08:39:02Z</time>
      </trkpt>
      <trkpt lat="41.24827" lon="-1.5876">
        <ele>628.45</ele>
        <time>2013-05-09T08:38:52Z</time>
      </trkpt>
      <trkpt lat="41.24843" lon="-1.58775">
        <ele>629.355</ele>
        <time>2013-05-09T08:38:45Z</time>
      </trkpt>
      <trkpt lat="41.24845" lon="-1.58776">
        <ele>629.312</ele>
        <time>2013-05-09T08:38:44Z</time>
      </trkpt>
      <trkpt lat="41.24846" lon="-1.58778">
        <ele>629.389</ele>
        <time>2013-05-09T08:38:43Z</time>
      </trkpt>
      <trkpt lat="41.24848" lon="-1.58779">
        <ele>629.387</ele>
        <time>2013-05-09T08:38:42Z</time>
      </trkpt>
      <trkpt lat="41.24849" lon="-1.5878">
        <ele>629.39</ele>
        <time>2013-05-09T08:38:41Z</time>
      </trkpt>
      <trkpt lat="41.24851" lon="-1.58781">
        <ele>629.333</ele>
        <time>2013-05-09T08:38:30Z</time>
      </trkpt>
      <trkpt lat="41.24852" lon="-1.58782">
        <ele>629.323</ele>
        <time>2013-05-09T08:38:20Z</time>
      </trkpt>
      <trkpt lat="41.24873" lon="-1.58798">
        <ele>628.815</ele>
        <time>2013-05-09T08:38:08Z</time>
      </trkpt>
      <trkpt lat="41.24898" lon="-1.58823">
        <ele>628.408</ele>
        <time>2013-05-09T08:37:54Z</time>
      </trkpt>
      <trkpt lat="41.24911" lon="-1.58855">
        <ele>627.934</ele>
        <time>2013-05-09T08:37:42Z</time>
      </trkpt>
      <trkpt lat="41.24918" lon="-1.58892">
        <ele>626.015</ele>
        <time>2013-05-09T08:37:28Z</time>
      </trkpt>
      <trkpt lat="41.2492" lon="-1.58922">
        <ele>624.017</ele>
        <time>2013-05-09T08:37:17Z</time>
      </trkpt>
      <trkpt lat="41.24914" lon="-1.58956">
        <ele>623.172</ele>
        <time>2013-05-09T08:37:06Z</time>
      </trkpt>
      <trkpt lat="41.24918" lon="-1.58998">
        <ele>622.689</ele>
        <time>2013-05-09T08:36:54Z</time>
      </trkpt>
      <trkpt lat="41.24928" lon="-1.59034">
        <ele>622.646</ele>
        <time>2013-05-09T08:36:44Z</time>
      </trkpt>
      <trkpt lat="41.24943" lon="-1.59061">
        <ele>622.694</ele>
        <time>2013-05-09T08:36:36Z</time>
      </trkpt>
      <trkpt lat="41.24969" lon="-1.5907">
        <ele>622.647</ele>
        <time>2013-05-09T08:36:26Z</time>
      </trkpt>
      <trkpt lat="41.24997" lon="-1.59076">
        <ele>622.638</ele>
        <time>2013-05-09T08:36:15Z</time>
      </trkpt>
      <trkpt lat="41.25017" lon="-1.59078">
        <ele>622.17</ele>
        <time>2013-05-09T08:36:03Z</time>
      </trkpt>
      <trkpt lat="41.25026" lon="-1.59073">
        <ele>620.717</ele>
        <time>2013-05-09T08:35:55Z</time>
      </trkpt>
      <trkpt lat="41.25038" lon="-1.59073">
        <ele>617.808</ele>
        <time>2013-05-09T08:35:45Z</time>
      </trkpt>
      <trkpt lat="41.25053" lon="-1.59084">
        <ele>617.824</ele>
        <time>2013-05-09T08:35:37Z</time>
      </trkpt>
      <trkpt lat="41.25049" lon="-1.59113">
        <ele>618.345</ele>
        <time>2013-05-09T08:35:31Z</time>
      </trkpt>
      <trkpt lat="41.2505" lon="-1.59142">
        <ele>618.357</ele>
        <time>2013-05-09T08:35:26Z</time>
      </trkpt>
      <trkpt lat="41.25052" lon="-1.59148">
        <ele>618.382</ele>
        <time>2013-05-09T08:35:25Z</time>
      </trkpt>
      <trkpt lat="41.25079" lon="-1.59154">
        <ele>618.839</ele>
        <time>2013-05-09T08:35:19Z</time>
      </trkpt>
      <trkpt lat="41.25084" lon="-1.59151">
        <ele>618.876</ele>
        <time>2013-05-09T08:35:18Z</time>
      </trkpt>
      <trkpt lat="41.25105" lon="-1.59138">
        <ele>620.224</ele>
        <time>2013-05-09T08:35:12Z</time>
      </trkpt>
      <trkpt lat="41.25132" lon="-1.59133">
        <ele>620.297</ele>
        <time>2013-05-09T08:35:03Z</time>
      </trkpt>
      <trkpt lat="41.25162" lon="-1.59155">
        <ele>618.834</ele>
        <time>2013-05-09T08:34:50Z</time>
      </trkpt>
      <trkpt lat="41.25181" lon="-1.59167">
        <ele>618.855</ele>
        <time>2013-05-09T08:34:38Z</time>
      </trkpt>
      <trkpt lat="41.25182" lon="-1.59167">
        <ele>618.81</ele>
        <time>2013-05-09T08:34:13Z</time>
      </trkpt>
      <trkpt lat="41.25185" lon="-1.59168">
        <ele>618.808</ele>
        <time>2013-05-09T08:34:07Z</time>
      </trkpt>
      <trkpt lat="41.25219" lon="-1.59179">
        <ele>618.874</ele>
        <time>2013-05-09T08:33:57Z</time>
      </trkpt>
      <trkpt lat="41.25251" lon="-1.59206">
        <ele>618.835</ele>
        <time>2013-05-09T08:33:46Z</time>
      </trkpt>
      <trkpt lat="41.25282" lon="-1.59236">
        <ele>618.887</ele>
        <time>2013-05-09T08:33:36Z</time>
      </trkpt>
      <trkpt lat="41.25289" lon="-1.59249">
        <ele>618.892</ele>
        <time>2013-05-09T08:33:33Z</time>
      </trkpt>
      <trkpt lat="41.25312" lon="-1.59273">
        <ele>618.889</ele>
        <time>2013-05-09T08:33:24Z</time>
      </trkpt>
      <trkpt lat="41.2532" lon="-1.59276">
        <ele>617.356</ele>
        <time>2013-05-09T08:33:21Z</time>
      </trkpt>
      <trkpt lat="41.2536" lon="-1.59303">
        <ele>617.374</ele>
        <time>2013-05-09T08:33:08Z</time>
      </trkpt>
      <trkpt lat="41.25392" lon="-1.59321">
        <ele>617.317</ele>
        <time>2013-05-09T08:32:58Z</time>
      </trkpt>
      <trkpt lat="41.25434" lon="-1.59339">
        <ele>617.842</ele>
        <time>2013-05-09T08:32:46Z</time>
      </trkpt>
      <trkpt lat="41.25478" lon="-1.59367">
        <ele>618.822</ele>
        <time>2013-05-09T08:32:33Z</time>
      </trkpt>
      <trkpt lat="41.25526" lon="-1.59407">
        <ele>619.214</ele>
        <time>2013-05-09T08:32:19Z</time>
      </trkpt>
      <trkpt lat="41.25568" lon="-1.59434">
        <ele>617.308</ele>
        <time>2013-05-09T08:32:06Z</time>
      </trkpt>
      <trkpt lat="41.25601" lon="-1.59448">
        <ele>617.385</ele>
        <time>2013-05-09T08:31:56Z</time>
      </trkpt>
      <trkpt lat="41.25617" lon="-1.59459">
        <ele>617.316</ele>
        <time>2013-05-09T08:31:50Z</time>
      </trkpt>
      <trkpt lat="41.2563" lon="-1.59498">
        <ele>618.828</ele>
        <time>2013-05-09T08:31:41Z</time>
      </trkpt>
      <trkpt lat="41.25655" lon="-1.59525">
        <ele>618.843</ele>
        <time>2013-05-09T08:31:31Z</time>
      </trkpt>
      <trkpt lat="41.25686" lon="-1.59537">
        <ele>617.84</ele>
        <time>2013-05-09T08:31:20Z</time>
      </trkpt>
      <trkpt lat="41.25708" lon="-1.59574">
        <ele>617.817</ele>
        <time>2013-05-09T08:31:09Z</time>
      </trkpt>
      <trkpt lat="41.25706" lon="-1.59615">
        <ele>617.855</ele>
        <time>2013-05-09T08:30:58Z</time>
      </trkpt>
      <trkpt lat="41.25705" lon="-1.59629">
        <ele>617.878</ele>
        <time>2013-05-09T08:30:55Z</time>
      </trkpt>
      <trkpt lat="41.25703" lon="-1.59666">
        <ele>617.825</ele>
        <time>2013-05-09T08:30:46Z</time>
      </trkpt>
      <trkpt lat="41.25716" lon="-1.59693">
        <ele>617.826</ele>
        <time>2013-05-09T08:30:37Z</time>
      </trkpt>
      <trkpt lat="41.2573" lon="-1.59712">
        <ele>616.808</ele>
        <time>2013-05-09T08:30:29Z</time>
      </trkpt>
      <trkpt lat="41.2575" lon="-1.59731">
        <ele>616.308</ele>
        <time>2013-05-09T08:30:18Z</time>
      </trkpt>
      <trkpt lat="41.25764" lon="-1.59703">
        <ele>616.313</ele>
        <time>2013-05-09T08:30:08Z</time>
      </trkpt>
      <trkpt lat="41.25782" lon="-1.59677">
        <ele>614.924</ele>
        <time>2013-05-09T08:29:58Z</time>
      </trkpt>
      <trkpt lat="41.25806" lon="-1.59654">
        <ele>614.436</ele>
        <time>2013-05-09T08:29:47Z</time>
      </trkpt>
      <trkpt lat="41.2583" lon="-1.59656">
        <ele>613.011</ele>
        <time>2013-05-09T08:29:37Z</time>
      </trkpt>
      <trkpt lat="41.25861" lon="-1.59681">
        <ele>612.088</ele>
        <time>2013-05-09T08:29:23Z</time>
      </trkpt>
      <trkpt lat="41.25896" lon="-1.59726">
        <ele>611.145</ele>
        <time>2013-05-09T08:29:09Z</time>
      </trkpt>
      <trkpt lat="41.25917" lon="-1.59764">
        <ele>611.173</ele>
        <time>2013-05-09T08:28:59Z</time>
      </trkpt>
      <trkpt lat="41.25924" lon="-1.59777">
        <ele>609.616</ele>
        <time>2013-05-09T08:28:55Z</time>
      </trkpt>
      <trkpt lat="41.25955" lon="-1.59805">
        <ele>609.646</ele>
        <time>2013-05-09T08:28:44Z</time>
      </trkpt>
      <trkpt lat="41.25988" lon="-1.59853">
        <ele>609.688</ele>
        <time>2013-05-09T08:28:33Z</time>
      </trkpt>
      <trkpt lat="41.26" lon="-1.59888">
        <ele>611.516</ele>
        <time>2013-05-09T08:28:27Z</time>
      </trkpt>
      <trkpt lat="41.26005" lon="-1.59899">
        <ele>611.508</ele>
        <time>2013-05-09T08:28:25Z</time>
      </trkpt>
      <trkpt lat="41.26017" lon="-1.59918">
        <ele>611.565</ele>
        <time>2013-05-09T08:28:20Z</time>
      </trkpt>
      <trkpt lat="41.2604" lon="-1.59948">
        <ele>611.126</ele>
        <time>2013-05-09T08:28:09Z</time>
      </trkpt>
      <trkpt lat="41.26064" lon="-1.59979">
        <ele>611.138</ele>
        <time>2013-05-09T08:27:59Z</time>
      </trkpt>
      <trkpt lat="41.26088" lon="-1.60022">
        <ele>610.113</ele>
        <time>2013-05-09T08:27:46Z</time>
      </trkpt>
      <trkpt lat="41.26108" lon="-1.60053">
        <ele>608.23</ele>
        <time>2013-05-09T08:27:35Z</time>
      </trkpt>
      <trkpt lat="41.26116" lon="-1.60095">
        <ele>607.727</ele>
        <time>2013-05-09T08:27:24Z</time>
      </trkpt>
      <trkpt lat="41.26135" lon="-1.60123">
        <ele>607.755</ele>
        <time>2013-05-09T08:27:14Z</time>
      </trkpt>
      <trkpt lat="41.26153" lon="-1.60134">
        <ele>607.218</ele>
        <time>2013-05-09T08:27:03Z</time>
      </trkpt>
      <trkpt lat="41.26169" lon="-1.60137">
        <ele>604.384</ele>
        <time>2013-05-09T08:26:50Z</time>
      </trkpt>
      <trkpt lat="41.26197" lon="-1.60153">
        <ele>602.407</ele>
        <time>2013-05-09T08:26:36Z</time>
      </trkpt>
      <trkpt lat="41.26217" lon="-1.60183">
        <ele>601.417</ele>
        <time>2013-05-09T08:26:26Z</time>
      </trkpt>
      <trkpt lat="41.26227" lon="-1.60224">
        <ele>601.408</ele>
        <time>2013-05-09T08:26:15Z</time>
      </trkpt>
      <trkpt lat="41.26244" lon="-1.60262">
        <ele>601.059</ele>
        <time>2013-05-09T08:26:03Z</time>
      </trkpt>
      <trkpt lat="41.26251" lon="-1.60274">
        <ele>601.09</ele>
        <time>2013-05-09T08:25:54Z</time>
      </trkpt>
      <trkpt lat="41.26253" lon="-1.60274">
        <ele>601.092</ele>
        <time>2013-05-09T08:25:08Z</time>
      </trkpt>
      <trkpt lat="41.26252" lon="-1.60273">
        <ele>601.057</ele>
        <time>2013-05-09T08:24:45Z</time>
      </trkpt>
      <trkpt lat="41.26251" lon="-1.60274">
        <ele>600.564</ele>
        <time>2013-05-09T08:24:25Z</time>
      </trkpt>
      <trkpt lat="41.26252" lon="-1.60275">
        <ele>600.561</ele>
        <time>2013-05-09T08:24:06Z</time>
      </trkpt>
      <trkpt lat="41.26253" lon="-1.60275">
        <ele>600.569</ele>
        <time>2013-05-09T08:23:22Z</time>
      </trkpt>
      <trkpt lat="41.26252" lon="-1.60277">
        <ele>600.082</ele>
        <time>2013-05-09T08:23:03Z</time>
      </trkpt>
      <trkpt lat="41.26253" lon="-1.60276">
        <ele>600.025</ele>
        <time>2013-05-09T08:22:39Z</time>
      </trkpt>
      <trkpt lat="41.26252" lon="-1.60275">
        <ele>600.026</ele>
        <time>2013-05-09T08:22:10Z</time>
      </trkpt>
      <trkpt lat="41.26252" lon="-1.60274">
        <ele>599.508</ele>
        <time>2013-05-09T08:21:51Z</time>
      </trkpt>
      <trkpt lat="41.26252" lon="-1.60275">
        <ele>599.508</ele>
        <time>2013-05-09T08:21:20Z</time>
      </trkpt>
      <trkpt lat="41.26257" lon="-1.60278">
        <ele>599.523</ele>
        <time>2013-05-09T08:21:10Z</time>
      </trkpt>
      <trkpt lat="41.26281" lon="-1.60278">
        <ele>598.184</ele>
        <time>2013-05-09T08:20:57Z</time>
      </trkpt>
      <trkpt lat="41.26295" lon="-1.60272">
        <ele>598.136</ele>
        <time>2013-05-09T08:20:46Z</time>
      </trkpt>
      <trkpt lat="41.26304" lon="-1.60263">
        <ele>598.161</ele>
        <time>2013-05-09T08:20:32Z</time>
      </trkpt>
      <trkpt lat="41.26309" lon="-1.60271">
        <ele>599.528</ele>
        <time>2013-05-09T08:20:23Z</time>
      </trkpt>
      <trkpt lat="41.26316" lon="-1.60285">
        <ele>599.525</ele>
        <time>2013-05-09T08:20:14Z</time>
      </trkpt>
      <trkpt lat="41.26317" lon="-1.60286">
        <ele>599.013</ele>
        <time>2013-05-09T08:19:56Z</time>
      </trkpt>
      <trkpt lat="41.26316" lon="-1.60286">
        <ele>599.046</ele>
        <time>2013-05-09T08:19:24Z</time>
      </trkpt>
      <trkpt lat="41.26327" lon="-1.60304">
        <ele>598.673</ele>
        <time>2013-05-09T08:19:14Z</time>
      </trkpt>
      <trkpt lat="41.26352" lon="-1.60336">
        <ele>598.185</ele>
        <time>2013-05-09T08:19:02Z</time>
      </trkpt>
      <trkpt lat="41.26371" lon="-1.60363">
        <ele>597.613</ele>
        <time>2013-05-09T08:18:52Z</time>
      </trkpt>
      <trkpt lat="41.26392" lon="-1.60393">
        <ele>597.108</ele>
        <time>2013-05-09T08:18:41Z</time>
      </trkpt>
      <trkpt lat="41.26417" lon="-1.60426">
        <ele>597.178</ele>
        <time>2013-05-09T08:18:29Z</time>
      </trkpt>
      <trkpt lat="41.26447" lon="-1.60467">
        <ele>596.249</ele>
        <time>2013-05-09T08:18:14Z</time>
      </trkpt>
      <trkpt lat="41.26478" lon="-1.60504">
        <ele>595.741</ele>
        <time>2013-05-09T08:17:59Z</time>
      </trkpt>
      <trkpt lat="41.26512" lon="-1.60542">
        <ele>595.276</ele>
        <time>2013-05-09T08:17:43Z</time>
      </trkpt>
      <trkpt lat="41.26545" lon="-1.60576">
        <ele>594.743</ele>
        <time>2013-05-09T08:17:29Z</time>
      </trkpt>
      <trkpt lat="41.26581" lon="-1.60608">
        <ele>594.22</ele>
        <time>2013-05-09T08:17:14Z</time>
      </trkpt>
      <trkpt lat="41.26611" lon="-1.60633">
        <ele>593.838</ele>
        <time>2013-05-09T08:17:02Z</time>
      </trkpt>
      <trkpt lat="41.26646" lon="-1.6066">
        <ele>593.371</ele>
        <time>2013-05-09T08:16:48Z</time>
      </trkpt>
      <trkpt lat="41.26683" lon="-1.60691">
        <ele>592.822</ele>
        <time>2013-05-09T08:16:33Z</time>
      </trkpt>
      <trkpt lat="41.26727" lon="-1.60727">
        <ele>592.362</ele>
        <time>2013-05-09T08:16:15Z</time>
      </trkpt>
      <trkpt lat="41.26764" lon="-1.60757">
        <ele>591.808</ele>
        <time>2013-05-09T08:16:01Z</time>
      </trkpt>
      <trkpt lat="41.26806" lon="-1.60791">
        <ele>591.808</ele>
        <time>2013-05-09T08:15:45Z</time>
      </trkpt>
      <trkpt lat="41.26835" lon="-1.60815">
        <ele>590.413</ele>
        <time>2013-05-09T08:15:33Z</time>
      </trkpt>
      <trkpt lat="41.26857" lon="-1.60844">
        <ele>590.444</ele>
        <time>2013-05-09T08:15:22Z</time>
      </trkpt>
      <trkpt lat="41.26886" lon="-1.60864">
        <ele>590.486</ele>
        <time>2013-05-09T08:15:13Z</time>
      </trkpt>
      <trkpt lat="41.26912" lon="-1.60884">
        <ele>590.471</ele>
        <time>2013-05-09T08:15:06Z</time>
      </trkpt>
      <trkpt lat="41.26941" lon="-1.60908">
        <ele>590.498</ele>
        <time>2013-05-09T08:14:58Z</time>
      </trkpt>
      <trkpt lat="41.26986" lon="-1.60945">
        <ele>590.425</ele>
        <time>2013-05-09T08:14:46Z</time>
      </trkpt>
      <trkpt lat="41.27039" lon="-1.60989">
        <ele>590.473</ele>
        <time>2013-05-09T08:14:33Z</time>
      </trkpt>
      <trkpt lat="41.27098" lon="-1.61037">
        <ele>590.936</ele>
        <time>2013-05-09T08:14:18Z</time>
      </trkpt>
      <trkpt lat="41.27125" lon="-1.61053">
        <ele>591.814</ele>
        <time>2013-05-09T08:14:12Z</time>
      </trkpt>
      <trkpt lat="41.27132" lon="-1.61058">
        <ele>591.854</ele>
        <time>2013-05-09T08:14:10Z</time>
      </trkpt>
      <trkpt lat="41.27146" lon="-1.61071">
        <ele>592.309</ele>
        <time>2013-05-09T08:14:06Z</time>
      </trkpt>
      <trkpt lat="41.27183" lon="-1.61096">
        <ele>592.308</ele>
        <time>2013-05-09T08:13:55Z</time>
      </trkpt>
      <trkpt lat="41.27216" lon="-1.61123">
        <ele>593.832</ele>
        <time>2013-05-09T08:13:45Z</time>
      </trkpt>
      <trkpt lat="41.27257" lon="-1.61157">
        <ele>593.883</ele>
        <time>2013-05-09T08:13:33Z</time>
      </trkpt>
      <trkpt lat="41.27278" lon="-1.61167">
        <ele>593.845</ele>
        <time>2013-05-09T08:13:25Z</time>
      </trkpt>
      <trkpt lat="41.2728" lon="-1.61166">
        <ele>593.35</ele>
        <time>2013-05-09T08:12:46Z</time>
      </trkpt>
      <trkpt lat="41.27279" lon="-1.61167">
        <ele>593.317</ele>
        <time>2013-05-09T08:11:42Z</time>
      </trkpt>
      <trkpt lat="41.27294" lon="-1.61178">
        <ele>593.384</ele>
        <time>2013-05-09T08:11:33Z</time>
      </trkpt>
      <trkpt lat="41.27333" lon="-1.61215">
        <ele>593.372</ele>
        <time>2013-05-09T08:11:20Z</time>
      </trkpt>
      <trkpt lat="41.27368" lon="-1.61249">
        <ele>592.865</ele>
        <time>2013-05-09T08:11:08Z</time>
      </trkpt>
      <trkpt lat="41.27397" lon="-1.61279">
        <ele>592.883</ele>
        <time>2013-05-09T08:10:56Z</time>
      </trkpt>
      <trkpt lat="41.27411" lon="-1.61294">
        <ele>592.825</ele>
        <time>2013-05-09T08:10:46Z</time>
      </trkpt>
      <trkpt lat="41.2744" lon="-1.61329">
        <ele>592.817</ele>
        <time>2013-05-09T08:10:35Z</time>
      </trkpt>
      <trkpt lat="41.27474" lon="-1.6137">
        <ele>592.808</ele>
        <time>2013-05-09T08:10:22Z</time>
      </trkpt>
      <trkpt lat="41.27498" lon="-1.614">
        <ele>592.879</ele>
        <time>2013-05-09T08:10:12Z</time>
      </trkpt>
      <trkpt lat="41.27517" lon="-1.61434">
        <ele>592.89</ele>
        <time>2013-05-09T08:10:02Z</time>
      </trkpt>
      <trkpt lat="41.27536" lon="-1.61469">
        <ele>592.872</ele>
        <time>2013-05-09T08:09:51Z</time>
      </trkpt>
      <trkpt lat="41.27553" lon="-1.61495">
        <ele>592.837</ele>
        <time>2013-05-09T08:09:39Z</time>
      </trkpt>
      <trkpt lat="41.27564" lon="-1.61517">
        <ele>592.844</ele>
        <time>2013-05-09T08:09:29Z</time>
      </trkpt>
      <trkpt lat="41.27575" lon="-1.61524">
        <ele>592.841</ele>
        <time>2013-05-09T08:09:14Z</time>
      </trkpt>
      <trkpt lat="41.27576" lon="-1.61525">
        <ele>592.869</ele>
        <time>2013-05-09T08:09:03Z</time>
      </trkpt>
      <trkpt lat="41.27578" lon="-1.61529">
        <ele>592.862</ele>
        <time>2013-05-09T08:08:51Z</time>
      </trkpt>
      <trkpt lat="41.27583" lon="-1.61554">
        <ele>592.843</ele>
        <time>2013-05-09T08:08:43Z</time>
      </trkpt>
      <trkpt lat="41.27587" lon="-1.61567">
        <ele>592.864</ele>
        <time>2013-05-09T08:08:34Z</time>
      </trkpt>
      <trkpt lat="41.27593" lon="-1.61578">
        <ele>592.31</ele>
        <time>2013-05-09T08:08:25Z</time>
      </trkpt>
      <trkpt lat="41.27605" lon="-1.6162">
        <ele>591.808</ele>
        <time>2013-05-09T08:08:12Z</time>
      </trkpt>
      <trkpt lat="41.27628" lon="-1.61651">
        <ele>592.395</ele>
        <time>2013-05-09T08:08:00Z</time>
      </trkpt>
      <trkpt lat="41.27653" lon="-1.61671">
        <ele>591.896</ele>
        <time>2013-05-09T08:07:47Z</time>
      </trkpt>
      <trkpt lat="41.27655" lon="-1.61672">
        <ele>591.848</ele>
        <time>2013-05-09T08:07:46Z</time>
      </trkpt>
      <trkpt lat="41.27657" lon="-1.61681">
        <ele>591.813</ele>
        <time>2013-05-09T08:07:42Z</time>
      </trkpt>
      <trkpt lat="41.27656" lon="-1.61683">
        <ele>591.87</ele>
        <time>2013-05-09T08:07:41Z</time>
      </trkpt>
      <trkpt lat="41.27634" lon="-1.61681">
        <ele>591.817</ele>
        <time>2013-05-09T08:07:33Z</time>
      </trkpt>
      <trkpt lat="41.27632" lon="-1.61681">
        <ele>591.875</ele>
        <time>2013-05-09T08:07:32Z</time>
      </trkpt>
      <trkpt lat="41.27631" lon="-1.61681">
        <ele>591.838</ele>
        <time>2013-05-09T08:07:31Z</time>
      </trkpt>
      <trkpt lat="41.27629" lon="-1.61682">
        <ele>591.854</ele>
        <time>2013-05-09T08:07:30Z</time>
      </trkpt>
      <trkpt lat="41.27622" lon="-1.6169">
        <ele>591.856</ele>
        <time>2013-05-09T08:07:18Z</time>
      </trkpt>
      <trkpt lat="41.27623" lon="-1.61694">
        <ele>591.811</ele>
        <time>2013-05-09T08:07:08Z</time>
      </trkpt>
      <trkpt lat="41.27632" lon="-1.61703">
        <ele>591.808</ele>
        <time>2013-05-09T08:07:03Z</time>
      </trkpt>
      <trkpt lat="41.27647" lon="-1.61727">
        <ele>591.456</ele>
        <time>2013-05-09T08:06:51Z</time>
      </trkpt>
      <trkpt lat="41.27658" lon="-1.61748">
        <ele>590.417</ele>
        <time>2013-05-09T08:06:41Z</time>
      </trkpt>
      <trkpt lat="41.27665" lon="-1.61759">
        <ele>590.429</ele>
        <time>2013-05-09T08:06:31Z</time>
      </trkpt>
      <trkpt lat="41.27665" lon="-1.61761">
        <ele>590.484</ele>
        <time>2013-05-09T08:05:50Z</time>
      </trkpt>
      <trkpt lat="41.27674" lon="-1.6177">
        <ele>590.491</ele>
        <time>2013-05-09T08:05:42Z</time>
      </trkpt>
      <trkpt lat="41.27696" lon="-1.61801">
        <ele>589.968</ele>
        <time>2013-05-09T08:05:26Z</time>
      </trkpt>
      <trkpt lat="41.27717" lon="-1.61833">
        <ele>589.426</ele>
        <time>2013-05-09T08:05:11Z</time>
      </trkpt>
      <trkpt lat="41.27732" lon="-1.61854">
        <ele>589.419</ele>
        <time>2013-05-09T08:04:59Z</time>
      </trkpt>
      <trkpt lat="41.27734" lon="-1.61856">
        <ele>589.421</ele>
        <time>2013-05-09T08:04:52Z</time>
      </trkpt>
      <trkpt lat="41.27735" lon="-1.61856">
        <ele>589.441</ele>
        <time>2013-05-09T08:04:50Z</time>
      </trkpt>
      <trkpt lat="41.27736" lon="-1.61856">
        <ele>589.405</ele>
        <time>2013-05-09T08:04:42Z</time>
      </trkpt>
      <trkpt lat="41.2775" lon="-1.61873">
        <ele>589.408</ele>
        <time>2013-05-09T08:04:29Z</time>
      </trkpt>
      <trkpt lat="41.27758" lon="-1.61882">
        <ele>589.063</ele>
        <time>2013-05-09T08:04:20Z</time>
      </trkpt>
      <trkpt lat="41.27761" lon="-1.61888">
        <ele>589.064</ele>
        <time>2013-05-09T08:04:08Z</time>
      </trkpt>
      <trkpt lat="41.27765" lon="-1.61894">
        <ele>589.046</ele>
        <time>2013-05-09T08:03:53Z</time>
      </trkpt>
      <trkpt lat="41.27768" lon="-1.61897">
        <ele>589.081</ele>
        <time>2013-05-09T08:03:41Z</time>
      </trkpt>
      <trkpt lat="41.2777" lon="-1.61902">
        <ele>588.568</ele>
        <time>2013-05-09T08:03:29Z</time>
      </trkpt>
      <trkpt lat="41.27769" lon="-1.61906">
        <ele>587.515</ele>
        <time>2013-05-09T08:03:18Z</time>
      </trkpt>
      <trkpt lat="41.2777" lon="-1.61907">
        <ele>587.073</ele>
        <time>2013-05-09T08:03:08Z</time>
      </trkpt>
      <trkpt lat="41.27771" lon="-1.61908">
        <ele>586.166</ele>
        <time>2013-05-09T08:02:47Z</time>
      </trkpt>
      <trkpt lat="41.27769" lon="-1.61908">
        <ele>586.176</ele>
        <time>2013-05-09T08:02:01Z</time>
      </trkpt>
      <trkpt lat="41.2777" lon="-1.61911">
        <ele>586.19</ele>
        <time>2013-05-09T08:01:50Z</time>
      </trkpt>
      <trkpt lat="41.27773" lon="-1.61917">
        <ele>586.119</ele>
        <time>2013-05-09T08:01:40Z</time>
      </trkpt>
      <trkpt lat="41.27775" lon="-1.61922">
        <ele>586.108</ele>
        <time>2013-05-09T08:01:24Z</time>
      </trkpt>
      <trkpt lat="41.27778" lon="-1.61925">
        <ele>586.168</ele>
        <time>2013-05-09T08:01:15Z</time>
      </trkpt>
      <trkpt lat="41.27782" lon="-1.61928">
        <ele>586.119</ele>
        <time>2013-05-09T08:01:12Z</time>
      </trkpt>
      <trkpt lat="41.27787" lon="-1.61935">
        <ele>586.111</ele>
        <time>2013-05-09T08:01:07Z</time>
      </trkpt>
      <trkpt lat="41.27787" lon="-1.61937">
        <ele>586.136</ele>
        <time>2013-05-09T08:00:11Z</time>
      </trkpt>
      <trkpt lat="41.27787" lon="-1.61949">
        <ele>586.193</ele>
        <time>2013-05-09T07:59:57Z</time>
      </trkpt>
      <trkpt lat="41.27787" lon="-1.61953">
        <ele>586.14</ele>
        <time>2013-05-09T07:59:47Z</time>
      </trkpt>
      <trkpt lat="41.27791" lon="-1.61956">
        <ele>585.638</ele>
        <time>2013-05-09T07:59:39Z</time>
      </trkpt>
      <trkpt lat="41.27813" lon="-1.61964">
        <ele>585.141</ele>
        <time>2013-05-09T07:59:29Z</time>
      </trkpt>
      <trkpt lat="41.2784" lon="-1.61988">
        <ele>584.678</ele>
        <time>2013-05-09T07:59:18Z</time>
      </trkpt>
      <trkpt lat="41.27888" lon="-1.6204">
        <ele>583.733</ele>
        <time>2013-05-09T07:59:00Z</time>
      </trkpt>
      <trkpt lat="41.27931" lon="-1.62084">
        <ele>583.726</ele>
        <time>2013-05-09T07:58:46Z</time>
      </trkpt>
      <trkpt lat="41.27965" lon="-1.62118">
        <ele>582.708</ele>
        <time>2013-05-09T07:58:33Z</time>
      </trkpt>
      <trkpt lat="41.27986" lon="-1.62143">
        <ele>582.718</ele>
        <time>2013-05-09T07:58:21Z</time>
      </trkpt>
      <trkpt lat="41.27999" lon="-1.62154">
        <ele>582.269</ele>
        <time>2013-05-09T07:58:12Z</time>
      </trkpt>
      <trkpt lat="41.28001" lon="-1.62155">
        <ele>582.241</ele>
        <time>2013-05-09T07:58:02Z</time>
      </trkpt>
      <trkpt lat="41.28002" lon="-1.62156">
        <ele>582.216</ele>
        <time>2013-05-09T07:57:38Z</time>
      </trkpt>
      <trkpt lat="41.28004" lon="-1.62156">
        <ele>582.223</ele>
        <time>2013-05-09T07:57:10Z</time>
      </trkpt>
      <trkpt lat="41.28003" lon="-1.62156">
        <ele>582.28</ele>
        <time>2013-05-09T07:56:50Z</time>
      </trkpt>
      <trkpt lat="41.28002" lon="-1.62155">
        <ele>582.228</ele>
        <time>2013-05-09T07:56:15Z</time>
      </trkpt>
      <trkpt lat="41.28001" lon="-1.62154">
        <ele>582.271</ele>
        <time>2013-05-09T07:55:16Z</time>
      </trkpt>
      <trkpt lat="41.28001" lon="-1.62156">
        <ele>581.726</ele>
        <time>2013-05-09T07:54:00Z</time>
      </trkpt>
      <trkpt lat="41.28008" lon="-1.62164">
        <ele>581.347</ele>
        <time>2013-05-09T07:53:52Z</time>
      </trkpt>
      <trkpt lat="41.28044" lon="-1.62199">
        <ele>581.311</ele>
        <time>2013-05-09T07:53:39Z</time>
      </trkpt>
      <trkpt lat="41.28088" lon="-1.62242">
        <ele>580.308</ele>
        <time>2013-05-09T07:53:24Z</time>
      </trkpt>
      <trkpt lat="41.281" lon="-1.62254">
        <ele>578.983</ele>
        <time>2013-05-09T07:53:20Z</time>
      </trkpt>
      <trkpt lat="41.2814" lon="-1.62297">
        <ele>578.934</ele>
        <time>2013-05-09T07:53:06Z</time>
      </trkpt>
      <trkpt lat="41.2817" lon="-1.62331">
        <ele>578.926</ele>
        <time>2013-05-09T07:52:55Z</time>
      </trkpt>
      <trkpt lat="41.28209" lon="-1.6237">
        <ele>578.951</ele>
        <time>2013-05-09T07:52:43Z</time>
      </trkpt>
      <trkpt lat="41.28236" lon="-1.62397">
        <ele>578.948</ele>
        <time>2013-05-09T07:52:35Z</time>
      </trkpt>
      <trkpt lat="41.28243" lon="-1.62403">
        <ele>578.955</ele>
        <time>2013-05-09T07:52:33Z</time>
      </trkpt>
      <trkpt lat="41.28274" lon="-1.62434">
        <ele>578.943</ele>
        <time>2013-05-09T07:52:24Z</time>
      </trkpt>
      <trkpt lat="41.28277" lon="-1.62438">
        <ele>578.956</ele>
        <time>2013-05-09T07:52:23Z</time>
      </trkpt>
      <trkpt lat="41.28311" lon="-1.62471">
        <ele>579.356</ele>
        <time>2013-05-09T07:52:12Z</time>
      </trkpt>
      <trkpt lat="41.28327" lon="-1.62483">
        <ele>579.359</ele>
        <time>2013-05-09T07:51:37Z</time>
      </trkpt>
      <trkpt lat="41.28345" lon="-1.62501">
        <ele>579.814</ele>
        <time>2013-05-09T07:51:29Z</time>
      </trkpt>
      <trkpt lat="41.28367" lon="-1.62523">
        <ele>581.308</ele>
        <time>2013-05-09T07:51:23Z</time>
      </trkpt>
      <trkpt lat="41.28389" lon="-1.62548">
        <ele>581.356</ele>
        <time>2013-05-09T07:51:15Z</time>
      </trkpt>
      <trkpt lat="41.28429" lon="-1.62586">
        <ele>581.377</ele>
        <time>2013-05-09T07:51:02Z</time>
      </trkpt>
      <trkpt lat="41.2847" lon="-1.62628">
        <ele>581.349</ele>
        <time>2013-05-09T07:50:49Z</time>
      </trkpt>
      <trkpt lat="41.28525" lon="-1.62684">
        <ele>581.364</ele>
        <time>2013-05-09T07:50:32Z</time>
      </trkpt>
      <trkpt lat="41.28561" lon="-1.62711">
        <ele>581.391</ele>
        <time>2013-05-09T07:50:21Z</time>
      </trkpt>
      <trkpt lat="41.28591" lon="-1.62741">
        <ele>581.378</ele>
        <time>2013-05-09T07:50:09Z</time>
      </trkpt>
      <trkpt lat="41.28609" lon="-1.62758">
        <ele>580.856</ele>
        <time>2013-05-09T07:50:00Z</time>
      </trkpt>
      <trkpt lat="41.28617" lon="-1.62769">
        <ele>580.829</ele>
        <time>2013-05-09T07:49:31Z</time>
      </trkpt>
      <trkpt lat="41.28618" lon="-1.62769">
        <ele>580.874</ele>
        <time>2013-05-09T07:49:02Z</time>
      </trkpt>
      <trkpt lat="41.28618" lon="-1.62773">
        <ele>580.856</ele>
        <time>2013-05-09T07:48:53Z</time>
      </trkpt>
      <trkpt lat="41.28622" lon="-1.62777">
        <ele>580.821</ele>
        <time>2013-05-09T07:48:50Z</time>
      </trkpt>
      <trkpt lat="41.2863" lon="-1.62784">
        <ele>580.808</ele>
        <time>2013-05-09T07:48:45Z</time>
      </trkpt>
      <trkpt lat="41.28636" lon="-1.6279">
        <ele>580.868</ele>
        <time>2013-05-09T07:48:35Z</time>
      </trkpt>
      <trkpt lat="41.28633" lon="-1.62786">
        <ele>580.829</ele>
        <time>2013-05-09T07:48:20Z</time>
      </trkpt>
      <trkpt lat="41.28638" lon="-1.62791">
        <ele>580.831</ele>
        <time>2013-05-09T07:48:10Z</time>
      </trkpt>
      <trkpt lat="41.28646" lon="-1.62794">
        <ele>579.856</ele>
        <time>2013-05-09T07:48:04Z</time>
      </trkpt>
      <trkpt lat="41.2866" lon="-1.62773">
        <ele>578.453</ele>
        <time>2013-05-09T07:47:54Z</time>
      </trkpt>
      <trkpt lat="41.28677" lon="-1.62738">
        <ele>576.99</ele>
        <time>2013-05-09T07:47:42Z</time>
      </trkpt>
      <trkpt lat="41.28711" lon="-1.62696">
        <ele>576.578</ele>
        <time>2013-05-09T07:47:27Z</time>
      </trkpt>
      <trkpt lat="41.28747" lon="-1.62649">
        <ele>575.571</ele>
        <time>2013-05-09T07:47:11Z</time>
      </trkpt>
      <trkpt lat="41.28785" lon="-1.62594">
        <ele>575.017</ele>
        <time>2013-05-09T07:46:54Z</time>
      </trkpt>
      <trkpt lat="41.28815" lon="-1.62557">
        <ele>574.587</ele>
        <time>2013-05-09T07:46:41Z</time>
      </trkpt>
      <trkpt lat="41.28844" lon="-1.62522">
        <ele>573.615</ele>
        <time>2013-05-09T07:46:29Z</time>
      </trkpt>
      <trkpt lat="41.28877" lon="-1.62477">
        <ele>573.108</ele>
        <time>2013-05-09T07:46:15Z</time>
      </trkpt>
      <trkpt lat="41.28907" lon="-1.62446">
        <ele>572.622</ele>
        <time>2013-05-09T07:46:03Z</time>
      </trkpt>
      <trkpt lat="41.28936" lon="-1.62415">
        <ele>571.673</ele>
        <time>2013-05-09T07:45:51Z</time>
      </trkpt>
      <trkpt lat="41.28969" lon="-1.62374">
        <ele>571.295</ele>
        <time>2013-05-09T07:45:35Z</time>
      </trkpt>
      <trkpt lat="41.28991" lon="-1.62349">
        <ele>571.29</ele>
        <time>2013-05-09T07:45:24Z</time>
      </trkpt>
      <trkpt lat="41.29006" lon="-1.6233">
        <ele>571.257</ele>
        <time>2013-05-09T07:45:13Z</time>
      </trkpt>
      <trkpt lat="41.29014" lon="-1.62318">
        <ele>571.234</ele>
        <time>2013-05-09T07:45:06Z</time>
      </trkpt>
      <trkpt lat="41.29013" lon="-1.62317">
        <ele>571.242</ele>
        <time>2013-05-09T07:44:19Z</time>
      </trkpt>
      <trkpt lat="41.29013" lon="-1.62314">
        <ele>571.265</ele>
        <time>2013-05-09T07:44:00Z</time>
      </trkpt>
      <trkpt lat="41.29014" lon="-1.62316">
        <ele>571.287</ele>
        <time>2013-05-09T07:43:34Z</time>
      </trkpt>
      <trkpt lat="41.29023" lon="-1.6232">
        <ele>571.242</ele>
        <time>2013-05-09T07:43:25Z</time>
      </trkpt>
      <trkpt lat="41.29062" lon="-1.62334">
        <ele>571.226</ele>
        <time>2013-05-09T07:43:11Z</time>
      </trkpt>
      <trkpt lat="41.2908" lon="-1.62353">
        <ele>571.208</ele>
        <time>2013-05-09T07:43:05Z</time>
      </trkpt>
      <trkpt lat="41.29093" lon="-1.62386">
        <ele>571.249</ele>
        <time>2013-05-09T07:42:58Z</time>
      </trkpt>
      <trkpt lat="41.29117" lon="-1.62452">
        <ele>571.21</ele>
        <time>2013-05-09T07:42:45Z</time>
      </trkpt>
      <trkpt lat="41.29138" lon="-1.62496">
        <ele>571.292</ele>
        <time>2013-05-09T07:42:35Z</time>
      </trkpt>
      <trkpt lat="41.29176" lon="-1.6255">
        <ele>570.267</ele>
        <time>2013-05-09T07:42:21Z</time>
      </trkpt>
      <trkpt lat="41.29202" lon="-1.62611">
        <ele>570.264</ele>
        <time>2013-05-09T07:42:07Z</time>
      </trkpt>
      <trkpt lat="41.29218" lon="-1.62669">
        <ele>570.211</ele>
        <time>2013-05-09T07:41:55Z</time>
      </trkpt>
      <trkpt lat="41.29259" lon="-1.62713">
        <ele>569.279</ele>
        <time>2013-05-09T07:41:42Z</time>
      </trkpt>
      <trkpt lat="41.29268" lon="-1.62732">
        <ele>569.242</ele>
        <time>2013-05-09T07:41:38Z</time>
      </trkpt>
      <trkpt lat="41.29276" lon="-1.62778">
        <ele>569.277</ele>
        <time>2013-05-09T07:41:30Z</time>
      </trkpt>
      <trkpt lat="41.29274" lon="-1.62805">
        <ele>568.861</ele>
        <time>2013-05-09T07:41:25Z</time>
      </trkpt>
      <trkpt lat="41.2927" lon="-1.62844">
        <ele>568.827</ele>
        <time>2013-05-09T07:41:18Z</time>
      </trkpt>
      <trkpt lat="41.29262" lon="-1.62883">
        <ele>568.808</ele>
        <time>2013-05-09T07:41:11Z</time>
      </trkpt>
      <trkpt lat="41.29251" lon="-1.62911">
        <ele>568.838</ele>
        <time>2013-05-09T07:41:05Z</time>
      </trkpt>
      <trkpt lat="41.29246" lon="-1.62978">
        <ele>568.889</ele>
        <time>2013-05-09T07:40:52Z</time>
      </trkpt>
      <trkpt lat="41.29257" lon="-1.63012">
        <ele>568.831</ele>
        <time>2013-05-09T07:40:45Z</time>
      </trkpt>
      <trkpt lat="41.29274" lon="-1.63087">
        <ele>568.896</ele>
        <time>2013-05-09T07:40:32Z</time>
      </trkpt>
      <trkpt lat="41.29286" lon="-1.63123">
        <ele>568.843</ele>
        <time>2013-05-09T07:40:25Z</time>
      </trkpt>
      <trkpt lat="41.29289" lon="-1.63138">
        <ele>568.81</ele>
        <time>2013-05-09T07:40:22Z</time>
      </trkpt>
      <trkpt lat="41.29291" lon="-1.63143">
        <ele>568.848</ele>
        <time>2013-05-09T07:40:21Z</time>
      </trkpt>
      <trkpt lat="41.29325" lon="-1.63214">
        <ele>568.321</ele>
        <time>2013-05-09T07:40:06Z</time>
      </trkpt>
      <trkpt lat="41.29345" lon="-1.63253">
        <ele>567.313</ele>
        <time>2013-05-09T07:39:57Z</time>
      </trkpt>
      <trkpt lat="41.29378" lon="-1.63302">
        <ele>567.343</ele>
        <time>2013-05-09T07:39:44Z</time>
      </trkpt>
      <trkpt lat="41.29411" lon="-1.6336">
        <ele>567.307</ele>
        <time>2013-05-09T07:39:30Z</time>
      </trkpt>
      <trkpt lat="41.29447" lon="-1.63407">
        <ele>567.308</ele>
        <time>2013-05-09T07:39:17Z</time>
      </trkpt>
      <trkpt lat="41.29478" lon="-1.63448">
        <ele>567.312</ele>
        <time>2013-05-09T07:39:06Z</time>
      </trkpt>
      <trkpt lat="41.29491" lon="-1.63466">
        <ele>567.353</ele>
        <time>2013-05-09T07:39:01Z</time>
      </trkpt>
      <trkpt lat="41.29512" lon="-1.63503">
        <ele>567.815</ele>
        <time>2013-05-09T07:38:51Z</time>
      </trkpt>
      <trkpt lat="41.29516" lon="-1.63516">
        <ele>569.27</ele>
        <time>2013-05-09T07:38:47Z</time>
      </trkpt>
      <trkpt lat="41.29517" lon="-1.63518">
        <ele>569.277</ele>
        <time>2013-05-09T07:38:33Z</time>
      </trkpt>
      <trkpt lat="41.29515" lon="-1.63517">
        <ele>568.854</ele>
        <time>2013-05-09T07:38:11Z</time>
      </trkpt>
      <trkpt lat="41.29517" lon="-1.63517">
        <ele>568.842</ele>
        <time>2013-05-09T07:37:53Z</time>
      </trkpt>
      <trkpt lat="41.29516" lon="-1.63518">
        <ele>568.875</ele>
        <time>2013-05-09T07:37:31Z</time>
      </trkpt>
      <trkpt lat="41.29549" lon="-1.63536">
        <ele>567.881</ele>
        <time>2013-05-09T07:37:18Z</time>
      </trkpt>
      <trkpt lat="41.29601" lon="-1.6357">
        <ele>566.861</ele>
        <time>2013-05-09T07:37:02Z</time>
      </trkpt>
      <trkpt lat="41.29624" lon="-1.63591">
        <ele>566.817</ele>
        <time>2013-05-09T07:36:53Z</time>
      </trkpt>
      <trkpt lat="41.29651" lon="-1.63616">
        <ele>566.408</ele>
        <time>2013-05-09T07:36:42Z</time>
      </trkpt>
      <trkpt lat="41.29708" lon="-1.63653">
        <ele>565.439</ele>
        <time>2013-05-09T07:36:24Z</time>
      </trkpt>
      <trkpt lat="41.29742" lon="-1.63675">
        <ele>564.94</ele>
        <time>2013-05-09T07:36:13Z</time>
      </trkpt>
      <trkpt lat="41.29777" lon="-1.63695">
        <ele>564.922</ele>
        <time>2013-05-09T07:36:02Z</time>
      </trkpt>
      <trkpt lat="41.29816" lon="-1.63719">
        <ele>564.077</ele>
        <time>2013-05-09T07:35:48Z</time>
      </trkpt>
      <trkpt lat="41.29846" lon="-1.63736">
        <ele>564.044</ele>
        <time>2013-05-09T07:35:38Z</time>
      </trkpt>
      <trkpt lat="41.29886" lon="-1.63764">
        <ele>564.081</ele>
        <time>2013-05-09T07:35:24Z</time>
      </trkpt>
      <trkpt lat="41.29934" lon="-1.63795">
        <ele>564.029</ele>
        <time>2013-05-09T07:35:08Z</time>
      </trkpt>
      <trkpt lat="41.29944" lon="-1.63806">
        <ele>564.932</ele>
        <time>2013-05-09T07:35:04Z</time>
      </trkpt>
      <trkpt lat="41.29966" lon="-1.63829">
        <ele>564.978</ele>
        <time>2013-05-09T07:34:54Z</time>
      </trkpt>
      <trkpt lat="41.29984" lon="-1.63855">
        <ele>564.933</ele>
        <time>2013-05-09T07:34:46Z</time>
      </trkpt>
      <trkpt lat="41.30004" lon="-1.63855">
        <ele>564.926</ele>
        <time>2013-05-09T07:34:39Z</time>
      </trkpt>
      <trkpt lat="41.30048" lon="-1.63878">
        <ele>563.008</ele>
        <time>2013-05-09T07:34:25Z</time>
      </trkpt>
      <trkpt lat="41.30087" lon="-1.63906">
        <ele>563.098</ele>
        <time>2013-05-09T07:34:13Z</time>
      </trkpt>
      <trkpt lat="41.30126" lon="-1.63943">
        <ele>562.529</ele>
        <time>2013-05-09T07:34:00Z</time>
      </trkpt>
      <trkpt lat="41.30172" lon="-1.63982">
        <ele>562.041</ele>
        <time>2013-05-09T07:33:46Z</time>
      </trkpt>
      <trkpt lat="41.30201" lon="-1.64012">
        <ele>562.046</ele>
        <time>2013-05-09T07:33:36Z</time>
      </trkpt>
      <trkpt lat="41.30233" lon="-1.64066">
        <ele>561.183</ele>
        <time>2013-05-09T07:33:21Z</time>
      </trkpt>
      <trkpt lat="41.30259" lon="-1.64094">
        <ele>560.68</ele>
        <time>2013-05-09T07:33:11Z</time>
      </trkpt>
      <trkpt lat="41.30291" lon="-1.64121">
        <ele>560.138</ele>
        <time>2013-05-09T07:33:00Z</time>
      </trkpt>
      <trkpt lat="41.30337" lon="-1.64141">
        <ele>559.611</ele>
        <time>2013-05-09T07:32:47Z</time>
      </trkpt>
      <trkpt lat="41.30387" lon="-1.64152">
        <ele>559.624</ele>
        <time>2013-05-09T07:32:32Z</time>
      </trkpt>
      <trkpt lat="41.30418" lon="-1.64172">
        <ele>559.104</ele>
        <time>2013-05-09T07:32:21Z</time>
      </trkpt>
      <trkpt lat="41.30456" lon="-1.64187">
        <ele>558.714</ele>
        <time>2013-05-09T07:32:08Z</time>
      </trkpt>
      <trkpt lat="41.30497" lon="-1.64186">
        <ele>558.208</ele>
        <time>2013-05-09T07:31:54Z</time>
      </trkpt>
      <trkpt lat="41.30523" lon="-1.64186">
        <ele>557.763</ele>
        <time>2013-05-09T07:31:43Z</time>
      </trkpt>
      <trkpt lat="41.30561" lon="-1.64211">
        <ele>557.754</ele>
        <time>2013-05-09T07:31:29Z</time>
      </trkpt>
      <trkpt lat="41.30604" lon="-1.64238">
        <ele>557.716</ele>
        <time>2013-05-09T07:31:14Z</time>
      </trkpt>
      <trkpt lat="41.30639" lon="-1.64264">
        <ele>557.731</ele>
        <time>2013-05-09T07:31:02Z</time>
      </trkpt>
      <trkpt lat="41.30661" lon="-1.64285">
        <ele>557.788</ele>
        <time>2013-05-09T07:30:54Z</time>
      </trkpt>
      <trkpt lat="41.30667" lon="-1.64291">
        <ele>556.355</ele>
        <time>2013-05-09T07:30:51Z</time>
      </trkpt>
      <trkpt lat="41.30711" lon="-1.64333">
        <ele>556.373</ele>
        <time>2013-05-09T07:30:36Z</time>
      </trkpt>
      <trkpt lat="41.30755" lon="-1.64374">
        <ele>556.396</ele>
        <time>2013-05-09T07:30:22Z</time>
      </trkpt>
      <trkpt lat="41.30795" lon="-1.64413">
        <ele>556.388</ele>
        <time>2013-05-09T07:30:09Z</time>
      </trkpt>
      <trkpt lat="41.30822" lon="-1.64439">
        <ele>556.324</ele>
        <time>2013-05-09T07:29:59Z</time>
      </trkpt>
      <trkpt lat="41.30857" lon="-1.64475">
        <ele>556.726</ele>
        <time>2013-05-09T07:29:48Z</time>
      </trkpt>
      <trkpt lat="41.30869" lon="-1.64484">
        <ele>556.708</ele>
        <time>2013-05-09T07:29:45Z</time>
      </trkpt>
      <trkpt lat="41.30905" lon="-1.64519">
        <ele>556.729</ele>
        <time>2013-05-09T07:29:35Z</time>
      </trkpt>
      <trkpt lat="41.3093" lon="-1.64541">
        <ele>557.73</ele>
        <time>2013-05-09T07:29:28Z</time>
      </trkpt>
      <trkpt lat="41.30969" lon="-1.64573">
        <ele>557.712</ele>
        <time>2013-05-09T07:29:15Z</time>
      </trkpt>
      <trkpt lat="41.30989" lon="-1.64591">
        <ele>557.737</ele>
        <time>2013-05-09T07:29:05Z</time>
      </trkpt>
      <trkpt lat="41.30989" lon="-1.64592">
        <ele>557.744</ele>
        <time>2013-05-09T07:28:40Z</time>
      </trkpt>
      <trkpt lat="41.30989" lon="-1.64591">
        <ele>557.721</ele>
        <time>2013-05-09T07:28:09Z</time>
      </trkpt>
      <trkpt lat="41.3099" lon="-1.64591">
        <ele>557.799</ele>
        <time>2013-05-09T07:27:46Z</time>
      </trkpt>
      <trkpt lat="41.30989" lon="-1.6459">
        <ele>557.762</ele>
        <time>2013-05-09T07:26:54Z</time>
      </trkpt>
      <trkpt lat="41.30989" lon="-1.64591">
        <ele>557.728</ele>
        <time>2013-05-09T07:26:27Z</time>
      </trkpt>
      <trkpt lat="41.30998" lon="-1.64601">
        <ele>558.289</ele>
        <time>2013-05-09T07:26:17Z</time>
      </trkpt>
      <trkpt lat="41.3101" lon="-1.64604">
        <ele>558.217</ele>
        <time>2013-05-09T07:26:13Z</time>
      </trkpt>
      <trkpt lat="41.31036" lon="-1.64557">
        <ele>557.208</ele>
        <time>2013-05-09T07:26:01Z</time>
      </trkpt>
      <trkpt lat="41.31038" lon="-1.64553">
        <ele>557.243</ele>
        <time>2013-05-09T07:26:00Z</time>
      </trkpt>
      <trkpt lat="41.31072" lon="-1.64477">
        <ele>556.774</ele>
        <time>2013-05-09T07:25:44Z</time>
      </trkpt>
      <trkpt lat="41.31098" lon="-1.64411">
        <ele>556.736</ele>
        <time>2013-05-09T07:25:30Z</time>
      </trkpt>
      <trkpt lat="41.31124" lon="-1.64349">
        <ele>556.751</ele>
        <time>2013-05-09T07:25:16Z</time>
      </trkpt>
      <trkpt lat="41.31143" lon="-1.64295">
        <ele>555.888</ele>
        <time>2013-05-09T07:25:03Z</time>
      </trkpt>
      <trkpt lat="41.31165" lon="-1.64242">
        <ele>555.865</ele>
        <time>2013-05-09T07:24:49Z</time>
      </trkpt>
      <trkpt lat="41.31182" lon="-1.64214">
        <ele>554.823</ele>
        <time>2013-05-09T07:24:38Z</time>
      </trkpt>
      <trkpt lat="41.31209" lon="-1.64196">
        <ele>553.976</ele>
        <time>2013-05-09T07:24:26Z</time>
      </trkpt>
      <trkpt lat="41.31215" lon="-1.64193">
        <ele>553.958</ele>
        <time>2013-05-09T07:24:02Z</time>
      </trkpt>
      <trkpt lat="41.31224" lon="-1.64193">
        <ele>553.952</ele>
        <time>2013-05-09T07:23:37Z</time>
      </trkpt>
      <trkpt lat="41.31223" lon="-1.64192">
        <ele>553.917</ele>
        <time>2013-05-09T07:23:11Z</time>
      </trkpt>
      <trkpt lat="41.31224" lon="-1.64192">
        <ele>553.908</ele>
        <time>2013-05-09T07:22:53Z</time>
      </trkpt>
      <trkpt lat="41.3123" lon="-1.64199">
        <ele>553.916</ele>
        <time>2013-05-09T07:22:45Z</time>
      </trkpt>
      <trkpt lat="41.31246" lon="-1.64224">
        <ele>552.487</ele>
        <time>2013-05-09T07:22:36Z</time>
      </trkpt>
      <trkpt lat="41.3128" lon="-1.64263">
        <ele>552.429</ele>
        <time>2013-05-09T07:22:22Z</time>
      </trkpt>
      <trkpt lat="41.31312" lon="-1.64294">
        <ele>553.924</ele>
        <time>2013-05-09T07:22:11Z</time>
      </trkpt>
      <trkpt lat="41.31339" lon="-1.64336">
        <ele>553.981</ele>
        <time>2013-05-09T07:22:00Z</time>
      </trkpt>
      <trkpt lat="41.31361" lon="-1.64377">
        <ele>553.938</ele>
        <time>2013-05-09T07:21:48Z</time>
      </trkpt>
      <trkpt lat="41.31376" lon="-1.64408">
        <ele>552.966</ele>
        <time>2013-05-09T07:21:37Z</time>
      </trkpt>
      <trkpt lat="41.31397" lon="-1.64438">
        <ele>552.499</ele>
        <time>2013-05-09T07:21:27Z</time>
      </trkpt>
      <trkpt lat="41.31425" lon="-1.64463">
        <ele>552.413</ele>
        <time>2013-05-09T07:21:16Z</time>
      </trkpt>
      <trkpt lat="41.31444" lon="-1.645">
        <ele>552.443</ele>
        <time>2013-05-09T07:21:06Z</time>
      </trkpt>
      <trkpt lat="41.3147" lon="-1.64535">
        <ele>552.407</ele>
        <time>2013-05-09T07:20:55Z</time>
      </trkpt>
      <trkpt lat="41.3148" lon="-1.64578">
        <ele>552.408</ele>
        <time>2013-05-09T07:20:44Z</time>
      </trkpt>
      <trkpt lat="41.31504" lon="-1.64608">
        <ele>552.482</ele>
        <time>2013-05-09T07:20:34Z</time>
      </trkpt>
      <trkpt lat="41.31536" lon="-1.64622">
        <ele>552.433</ele>
        <time>2013-05-09T07:20:25Z</time>
      </trkpt>
      <trkpt lat="41.3157" lon="-1.64657">
        <ele>552.495</ele>
        <time>2013-05-09T07:20:13Z</time>
      </trkpt>
      <trkpt lat="41.31593" lon="-1.64676">
        <ele>551.94</ele>
        <time>2013-05-09T07:20:05Z</time>
      </trkpt>
      <trkpt lat="41.31621" lon="-1.64705">
        <ele>551.927</ele>
        <time>2013-05-09T07:19:54Z</time>
      </trkpt>
      <trkpt lat="41.31647" lon="-1.64731">
        <ele>551.934</ele>
        <time>2013-05-09T07:19:44Z</time>
      </trkpt>
      <trkpt lat="41.31667" lon="-1.6478">
        <ele>551.912</ele>
        <time>2013-05-09T07:19:32Z</time>
      </trkpt>
      <trkpt lat="41.31681" lon="-1.6482">
        <ele>551.555</ele>
        <time>2013-05-09T07:19:21Z</time>
      </trkpt>
      <trkpt lat="41.31704" lon="-1.64853">
        <ele>551.521</ele>
        <time>2013-05-09T07:19:10Z</time>
      </trkpt>
      <trkpt lat="41.31745" lon="-1.64892">
        <ele>551.041</ele>
        <time>2013-05-09T07:18:52Z</time>
      </trkpt>
      <trkpt lat="41.31768" lon="-1.64918">
        <ele>551.005</ele>
        <time>2013-05-09T07:18:41Z</time>
      </trkpt>
      <trkpt lat="41.31783" lon="-1.64946">
        <ele>551.008</ele>
        <time>2013-05-09T07:18:29Z</time>
      </trkpt>
      <trkpt lat="41.31793" lon="-1.64972">
        <ele>550.553</ele>
        <time>2013-05-09T07:18:18Z</time>
      </trkpt>
      <trkpt lat="41.31805" lon="-1.65004">
        <ele>550.534</ele>
        <time>2013-05-09T07:18:05Z</time>
      </trkpt>
      <trkpt lat="41.31805" lon="-1.65005">
        <ele>550.536</ele>
        <time>2013-05-09T07:18:04Z</time>
      </trkpt>
      <trkpt lat="41.31806" lon="-1.65007">
        <ele>550.571</ele>
        <time>2013-05-09T07:18:03Z</time>
      </trkpt>
      <trkpt lat="41.31809" lon="-1.65019">
        <ele>550.578</ele>
        <time>2013-05-09T07:17:56Z</time>
      </trkpt>
      <trkpt lat="41.31809" lon="-1.65021">
        <ele>550.535</ele>
        <time>2013-05-09T07:17:55Z</time>
      </trkpt>
      <trkpt lat="41.31809" lon="-1.65023">
        <ele>550.553</ele>
        <time>2013-05-09T07:17:54Z</time>
      </trkpt>
      <trkpt lat="41.3181" lon="-1.65028">
        <ele>550.516</ele>
        <time>2013-05-09T07:17:51Z</time>
      </trkpt>
      <trkpt lat="41.31811" lon="-1.65029">
        <ele>550.571</ele>
        <time>2013-05-09T07:17:50Z</time>
      </trkpt>
      <trkpt lat="41.31813" lon="-1.65034">
        <ele>550.541</ele>
        <time>2013-05-09T07:17:46Z</time>
      </trkpt>
      <trkpt lat="41.31822" lon="-1.65052">
        <ele>550.515</ele>
        <time>2013-05-09T07:17:37Z</time>
      </trkpt>
      <trkpt lat="41.31841" lon="-1.65088">
        <ele>550.008</ele>
        <time>2013-05-09T07:17:27Z</time>
      </trkpt>
      <trkpt lat="41.31871" lon="-1.65124">
        <ele>550.078</ele>
        <time>2013-05-09T07:17:16Z</time>
      </trkpt>
      <trkpt lat="41.31891" lon="-1.65165">
        <ele>549.549</ele>
        <time>2013-05-09T07:17:06Z</time>
      </trkpt>
      <trkpt lat="41.31915" lon="-1.65211">
        <ele>547.651</ele>
        <time>2013-05-09T07:16:54Z</time>
      </trkpt>
      <trkpt lat="41.31935" lon="-1.65256">
        <ele>547.616</ele>
        <time>2013-05-09T07:16:44Z</time>
      </trkpt>
      <trkpt lat="41.31951" lon="-1.65296">
        <ele>547.123</ele>
        <time>2013-05-09T07:16:35Z</time>
      </trkpt>
      <trkpt lat="41.31979" lon="-1.65324">
        <ele>547.12</ele>
        <time>2013-05-09T07:16:26Z</time>
      </trkpt>
      <trkpt lat="41.3204" lon="-1.65365">
        <ele>546.788</ele>
        <time>2013-05-09T07:16:09Z</time>
      </trkpt>
      <trkpt lat="41.32067" lon="-1.65375">
        <ele>546.731</ele>
        <time>2013-05-09T07:16:02Z</time>
      </trkpt>
      <trkpt lat="41.32112" lon="-1.65384">
        <ele>546.281</ele>
        <time>2013-05-09T07:15:50Z</time>
      </trkpt>
      <trkpt lat="41.32116" lon="-1.65386">
        <ele>546.261</ele>
        <time>2013-05-09T07:15:49Z</time>
      </trkpt>
      <trkpt lat="41.3212" lon="-1.65387">
        <ele>546.217</ele>
        <time>2013-05-09T07:15:48Z</time>
      </trkpt>
      <trkpt lat="41.32143" lon="-1.65399">
        <ele>546.208</ele>
        <time>2013-05-09T07:15:42Z</time>
      </trkpt>
      <trkpt lat="41.322" lon="-1.65423">
        <ele>545.739</ele>
        <time>2013-05-09T07:15:27Z</time>
      </trkpt>
      <trkpt lat="41.32204" lon="-1.65425">
        <ele>545.72</ele>
        <time>2013-05-09T07:15:26Z</time>
      </trkpt>
      <trkpt lat="41.3221" lon="-1.65431">
        <ele>545.722</ele>
        <time>2013-05-09T07:15:24Z</time>
      </trkpt>
      <trkpt lat="41.32212" lon="-1.65435">
        <ele>545.717</ele>
        <time>2013-05-09T07:15:23Z</time>
      </trkpt>
      <trkpt lat="41.32214" lon="-1.65439">
        <ele>545.764</ele>
        <time>2013-05-09T07:15:22Z</time>
      </trkpt>
      <trkpt lat="41.32217" lon="-1.65443">
        <ele>545.751</ele>
        <time>2013-05-09T07:15:21Z</time>
      </trkpt>
      <trkpt lat="41.32221" lon="-1.65446">
        <ele>545.719</ele>
        <time>2013-05-09T07:15:20Z</time>
      </trkpt>
      <trkpt lat="41.3224" lon="-1.65453">
        <ele>545.272</ele>
        <time>2013-05-09T07:15:15Z</time>
      </trkpt>
      <trkpt lat="41.32244" lon="-1.65455">
        <ele>545.254</ele>
        <time>2013-05-09T07:15:14Z</time>
      </trkpt>
      <trkpt lat="41.32247" lon="-1.65457">
        <ele>545.256</ele>
        <time>2013-05-09T07:15:13Z</time>
      </trkpt>
      <trkpt lat="41.32255" lon="-1.65469">
        <ele>545.211</ele>
        <time>2013-05-09T07:15:10Z</time>
      </trkpt>
      <trkpt lat="41.32286" lon="-1.65508">
        <ele>545.208</ele>
        <time>2013-05-09T07:14:58Z</time>
      </trkpt>
      <trkpt lat="41.32317" lon="-1.65525">
        <ele>545.266</ele>
        <time>2013-05-09T07:14:49Z</time>
      </trkpt>
      <trkpt lat="41.32358" lon="-1.65532">
        <ele>545.227</ele>
        <time>2013-05-09T07:14:37Z</time>
      </trkpt>
      <trkpt lat="41.32387" lon="-1.65563">
        <ele>543.819</ele>
        <time>2013-05-09T07:14:27Z</time>
      </trkpt>
      <trkpt lat="41.32423" lon="-1.6557">
        <ele>543.864</ele>
        <time>2013-05-09T07:14:17Z</time>
      </trkpt>
      <trkpt lat="41.32426" lon="-1.65569">
        <ele>543.821</ele>
        <time>2013-05-09T07:14:16Z</time>
      </trkpt>
      <trkpt lat="41.3243" lon="-1.65568">
        <ele>543.818</ele>
        <time>2013-05-09T07:14:15Z</time>
      </trkpt>
      <trkpt lat="41.32434" lon="-1.65568">
        <ele>545.256</ele>
        <time>2013-05-09T07:14:14Z</time>
      </trkpt>
      <trkpt lat="41.32438" lon="-1.65569">
        <ele>545.219</ele>
        <time>2013-05-09T07:14:13Z</time>
      </trkpt>
      <trkpt lat="41.32442" lon="-1.65571">
        <ele>545.211</ele>
        <time>2013-05-09T07:14:12Z</time>
      </trkpt>
      <trkpt lat="41.32462" lon="-1.65581">
        <ele>545.221</ele>
        <time>2013-05-09T07:14:07Z</time>
      </trkpt>
      <trkpt lat="41.3247" lon="-1.65585">
        <ele>542.803</ele>
        <time>2013-05-09T07:14:05Z</time>
      </trkpt>
      <trkpt lat="41.32477" lon="-1.65589">
        <ele>543.808</ele>
        <time>2013-05-09T07:14:03Z</time>
      </trkpt>
      <trkpt lat="41.32491" lon="-1.656">
        <ele>543.842</ele>
        <time>2013-05-09T07:13:59Z</time>
      </trkpt>
      <trkpt lat="41.32532" lon="-1.65652">
        <ele>543.373</ele>
        <time>2013-05-09T07:13:45Z</time>
      </trkpt>
      <trkpt lat="41.32535" lon="-1.65657">
        <ele>543.325</ele>
        <time>2013-05-09T07:13:44Z</time>
      </trkpt>
      <trkpt lat="41.32537" lon="-1.65661">
        <ele>543.31</ele>
        <time>2013-05-09T07:13:43Z</time>
      </trkpt>
      <trkpt lat="41.32539" lon="-1.65665">
        <ele>543.327</ele>
        <time>2013-05-09T07:13:42Z</time>
      </trkpt>
      <trkpt lat="41.32542" lon="-1.65669">
        <ele>543.334</ele>
        <time>2013-05-09T07:13:41Z</time>
      </trkpt>
      <trkpt lat="41.32551" lon="-1.6568">
        <ele>543.312</ele>
        <time>2013-05-09T07:13:38Z</time>
      </trkpt>
      <trkpt lat="41.32554" lon="-1.65684">
        <ele>543.335</ele>
        <time>2013-05-09T07:13:37Z</time>
      </trkpt>
      <trkpt lat="41.32581" lon="-1.65699">
        <ele>543.367</ele>
        <time>2013-05-09T07:13:30Z</time>
      </trkpt>
      <trkpt lat="41.3263" lon="-1.65733">
        <ele>543.381</ele>
        <time>2013-05-09T07:13:16Z</time>
      </trkpt>
      <trkpt lat="41.32667" lon="-1.65768">
        <ele>543.319</ele>
        <time>2013-05-09T07:13:04Z</time>
      </trkpt>
      <trkpt lat="41.32698" lon="-1.65807">
        <ele>542.808</ele>
        <time>2013-05-09T07:12:53Z</time>
      </trkpt>
      <trkpt lat="41.32736" lon="-1.65836">
        <ele>542.837</ele>
        <time>2013-05-09T07:12:42Z</time>
      </trkpt>
      <trkpt lat="41.32778" lon="-1.65835">
        <ele>542.328</ele>
        <time>2013-05-09T07:12:31Z</time>
      </trkpt>
      <trkpt lat="41.32818" lon="-1.65839">
        <ele>542.35</ele>
        <time>2013-05-09T07:12:20Z</time>
      </trkpt>
      <trkpt lat="41.3286" lon="-1.6586">
        <ele>542.315</ele>
        <time>2013-05-09T07:12:08Z</time>
      </trkpt>
      <trkpt lat="41.3289" lon="-1.65873">
        <ele>541.822</ele>
        <time>2013-05-09T07:11:59Z</time>
      </trkpt>
      <trkpt lat="41.32931" lon="-1.65871">
        <ele>541.899</ele>
        <time>2013-05-09T07:11:47Z</time>
      </trkpt>
      <trkpt lat="41.32966" lon="-1.65881">
        <ele>541.867</ele>
        <time>2013-05-09T07:11:37Z</time>
      </trkpt>
      <trkpt lat="41.32989" lon="-1.65904">
        <ele>541.85</ele>
        <time>2013-05-09T07:11:28Z</time>
      </trkpt>
      <trkpt lat="41.33015" lon="-1.65933">
        <ele>541.419</ele>
        <time>2013-05-09T07:11:18Z</time>
      </trkpt>
      <trkpt lat="41.33046" lon="-1.65978">
        <ele>541.409</ele>
        <time>2013-05-09T07:11:05Z</time>
      </trkpt>
      <trkpt lat="41.33066" lon="-1.66025">
        <ele>540.919</ele>
        <time>2013-05-09T07:10:53Z</time>
      </trkpt>
      <trkpt lat="41.33088" lon="-1.6606">
        <ele>540.908</ele>
        <time>2013-05-09T07:10:42Z</time>
      </trkpt>
      <trkpt lat="41.3312" lon="-1.66088">
        <ele>540.992</ele>
        <time>2013-05-09T07:10:30Z</time>
      </trkpt>
      <trkpt lat="41.33136" lon="-1.6612">
        <ele>540.993</ele>
        <time>2013-05-09T07:10:19Z</time>
      </trkpt>
      <trkpt lat="41.33136" lon="-1.66123">
        <ele>540.935</ele>
        <time>2013-05-09T07:10:18Z</time>
      </trkpt>
      <trkpt lat="41.33137" lon="-1.66126">
        <ele>540.92</ele>
        <time>2013-05-09T07:10:17Z</time>
      </trkpt>
      <trkpt lat="41.33137" lon="-1.66129">
        <ele>540.947</ele>
        <time>2013-05-09T07:10:16Z</time>
      </trkpt>
      <trkpt lat="41.33137" lon="-1.66132">
        <ele>540.934</ele>
        <time>2013-05-09T07:10:15Z</time>
      </trkpt>
      <trkpt lat="41.33138" lon="-1.66134">
        <ele>540.922</ele>
        <time>2013-05-09T07:10:14Z</time>
      </trkpt>
      <trkpt lat="41.33139" lon="-1.66136">
        <ele>540.915</ele>
        <time>2013-05-09T07:10:13Z</time>
      </trkpt>
      <trkpt lat="41.33139" lon="-1.66137">
        <ele>540.929</ele>
        <time>2013-05-09T07:09:45Z</time>
      </trkpt>
      <trkpt lat="41.33141" lon="-1.66139">
        <ele>540.9</ele>
        <time>2013-05-09T07:09:36Z</time>
      </trkpt>
      <trkpt lat="41.33142" lon="-1.66139">
        <ele>540.92</ele>
        <time>2013-05-09T07:09:35Z</time>
      </trkpt>
      <trkpt lat="41.33152" lon="-1.66137">
        <ele>540.908</ele>
        <time>2013-05-09T07:09:30Z</time>
      </trkpt>
      <trkpt lat="41.33175" lon="-1.66117">
        <ele>540.413</ele>
        <time>2013-05-09T07:09:21Z</time>
      </trkpt>
      <trkpt lat="41.33235" lon="-1.66059">
        <ele>539.084</ele>
        <time>2013-05-09T07:09:04Z</time>
      </trkpt>
      <trkpt lat="41.33297" lon="-1.65998">
        <ele>539.096</ele>
        <time>2013-05-09T07:08:47Z</time>
      </trkpt>
      <trkpt lat="41.33352" lon="-1.65944">
        <ele>539.011</ele>
        <time>2013-05-09T07:08:32Z</time>
      </trkpt>
      <trkpt lat="41.33411" lon="-1.65887">
        <ele>539.068</ele>
        <time>2013-05-09T07:08:16Z</time>
      </trkpt>
      <trkpt lat="41.33458" lon="-1.6584">
        <ele>539.035</ele>
        <time>2013-05-09T07:08:03Z</time>
      </trkpt>
      <trkpt lat="41.335" lon="-1.65796">
        <ele>539.023</ele>
        <time>2013-05-09T07:07:52Z</time>
      </trkpt>
      <trkpt lat="41.33566" lon="-1.65732">
        <ele>539.996</ele>
        <time>2013-05-09T07:07:38Z</time>
      </trkpt>
      <trkpt lat="41.33606" lon="-1.65682">
        <ele>540.483</ele>
        <time>2013-05-09T07:07:30Z</time>
      </trkpt>
      <trkpt lat="41.3361" lon="-1.65673">
        <ele>540.425</ele>
        <time>2013-05-09T07:07:29Z</time>
      </trkpt>
      <trkpt lat="41.33614" lon="-1.65664">
        <ele>540.417</ele>
        <time>2013-05-09T07:07:28Z</time>
      </trkpt>
      <trkpt lat="41.33618" lon="-1.65654">
        <ele>540.408</ele>
        <time>2013-05-09T07:07:27Z</time>
      </trkpt>
      <trkpt lat="41.33621" lon="-1.65643">
        <ele>540.469</ele>
        <time>2013-05-09T07:07:26Z</time>
      </trkpt>
      <trkpt lat="41.33623" lon="-1.65632">
        <ele>540.91</ele>
        <time>2013-05-09T07:07:25Z</time>
      </trkpt>
      <trkpt lat="41.33623" lon="-1.6562">
        <ele>540.932</ele>
        <time>2013-05-09T07:07:24Z</time>
      </trkpt>
      <trkpt lat="41.33618" lon="-1.65574">
        <ele>542.377</ele>
        <time>2013-05-09T07:07:20Z</time>
      </trkpt>
      <trkpt lat="41.33616" lon="-1.65563">
        <ele>543.354</ele>
        <time>2013-05-09T07:07:19Z</time>
      </trkpt>
      <trkpt lat="41.33615" lon="-1.65551">
        <ele>543.831</ele>
        <time>2013-05-09T07:07:18Z</time>
      </trkpt>
      <trkpt lat="41.33616" lon="-1.65541">
        <ele>544.279</ele>
        <time>2013-05-09T07:07:17Z</time>
      </trkpt>
      <trkpt lat="41.33619" lon="-1.65531">
        <ele>544.742</ele>
        <time>2013-05-09T07:07:16Z</time>
      </trkpt>
      <trkpt lat="41.33624" lon="-1.65524">
        <ele>545.734</ele>
        <time>2013-05-09T07:07:15Z</time>
      </trkpt>
      <trkpt lat="41.33629" lon="-1.65518">
        <ele>546.255</ele>
        <time>2013-05-09T07:07:14Z</time>
      </trkpt>
      <trkpt lat="41.33635" lon="-1.65515">
        <ele>547.11</ele>
        <time>2013-05-09T07:07:13Z</time>
      </trkpt>
      <trkpt lat="41.33641" lon="-1.65514">
        <ele>547.108</ele>
        <time>2013-05-09T07:07:12Z</time>
      </trkpt>
      <trkpt lat="41.33647" lon="-1.65515">
        <ele>547.164</ele>
        <time>2013-05-09T07:07:11Z</time>
      </trkpt>
      <trkpt lat="41.33651" lon="-1.65516">
        <ele>548.115</ele>
        <time>2013-05-09T07:07:10Z</time>
      </trkpt>
      <trkpt lat="41.33655" lon="-1.65518">
        <ele>548.157</ele>
        <time>2013-05-09T07:07:09Z</time>
      </trkpt>
      <trkpt lat="41.33659" lon="-1.65521">
        <ele>548.692</ele>
        <time>2013-05-09T07:07:08Z</time>
      </trkpt>
      <trkpt lat="41.33682" lon="-1.65543">
        <ele>550.059</ele>
        <time>2013-05-09T07:07:00Z</time>
      </trkpt>
      <trkpt lat="41.33704" lon="-1.65566">
        <ele>550.096</ele>
        <time>2013-05-09T07:06:47Z</time>
      </trkpt>
      <trkpt lat="41.33726" lon="-1.65588">
        <ele>549.534</ele>
        <time>2013-05-09T07:06:33Z</time>
      </trkpt>
      <trkpt lat="41.33747" lon="-1.65599">
        <ele>548.157</ele>
        <time>2013-05-09T07:06:21Z</time>
      </trkpt>
      <trkpt lat="41.33749" lon="-1.656">
        <ele>547.611</ele>
        <time>2013-05-09T07:06:20Z</time>
      </trkpt>
      <trkpt lat="41.33751" lon="-1.656">
        <ele>547.621</ele>
        <time>2013-05-09T07:06:19Z</time>
      </trkpt>
      <trkpt lat="41.33753" lon="-1.656">
        <ele>547.603</ele>
        <time>2013-05-09T07:06:18Z</time>
      </trkpt>
      <trkpt lat="41.33754" lon="-1.656">
        <ele>547.108</ele>
        <time>2013-05-09T07:06:17Z</time>
      </trkpt>
      <trkpt lat="41.33756" lon="-1.65601">
        <ele>547.182</ele>
        <time>2013-05-09T07:06:16Z</time>
      </trkpt>
      <trkpt lat="41.33757" lon="-1.65602">
        <ele>547.133</ele>
        <time>2013-05-09T07:06:15Z</time>
      </trkpt>
      <trkpt lat="41.3378" lon="-1.65601">
        <ele>544.725</ele>
        <time>2013-05-09T07:06:03Z</time>
      </trkpt>
      <trkpt lat="41.33799" lon="-1.65594">
        <ele>543.86</ele>
        <time>2013-05-09T07:05:53Z</time>
      </trkpt>
      <trkpt lat="41.33815" lon="-1.65569">
        <ele>542.337</ele>
        <time>2013-05-09T07:05:42Z</time>
      </trkpt>
      <trkpt lat="41.3383" lon="-1.65521">
        <ele>541.414</ele>
        <time>2013-05-09T07:05:31Z</time>
      </trkpt>
      <trkpt lat="41.33833" lon="-1.65517">
        <ele>541.462</ele>
        <time>2013-05-09T07:05:30Z</time>
      </trkpt>
      <trkpt lat="41.33835" lon="-1.65512">
        <ele>541.465</ele>
        <time>2013-05-09T07:05:29Z</time>
      </trkpt>
      <trkpt lat="41.33861" lon="-1.6548">
        <ele>541.443</ele>
        <time>2013-05-09T07:05:20Z</time>
      </trkpt>
      <trkpt lat="41.33906" lon="-1.65453">
        <ele>540.464</ele>
        <time>2013-05-09T07:05:06Z</time>
      </trkpt>
      <trkpt lat="41.33967" lon="-1.6543">
        <ele>539.01</ele>
        <time>2013-05-09T07:04:48Z</time>
      </trkpt>
      <trkpt lat="41.34018" lon="-1.6541">
        <ele>539.008</ele>
        <time>2013-05-09T07:04:33Z</time>
      </trkpt>
      <trkpt lat="41.34074" lon="-1.65389">
        <ele>537.565</ele>
        <time>2013-05-09T07:04:17Z</time>
      </trkpt>
      <trkpt lat="41.3413" lon="-1.65368">
        <ele>537.086</ele>
        <time>2013-05-09T07:04:02Z</time>
      </trkpt>
      <trkpt lat="41.34185" lon="-1.65347">
        <ele>537.078</ele>
        <time>2013-05-09T07:03:47Z</time>
      </trkpt>
      <trkpt lat="41.34237" lon="-1.65326">
        <ele>536.693</ele>
        <time>2013-05-09T07:03:32Z</time>
      </trkpt>
      <trkpt lat="41.34293" lon="-1.65305">
        <ele>536.62</ele>
        <time>2013-05-09T07:03:15Z</time>
      </trkpt>
      <trkpt lat="41.34355" lon="-1.6528">
        <ele>536.697</ele>
        <time>2013-05-09T07:02:57Z</time>
      </trkpt>
      <trkpt lat="41.34407" lon="-1.65263">
        <ele>536.615</ele>
        <time>2013-05-09T07:02:41Z</time>
      </trkpt>
      <trkpt lat="41.34426" lon="-1.65248">
        <ele>536.698</ele>
        <time>2013-05-09T07:02:32Z</time>
      </trkpt>
      <trkpt lat="41.34443" lon="-1.65232">
        <ele>535.675</ele>
        <time>2013-05-09T07:02:23Z</time>
      </trkpt>
      <trkpt lat="41.34477" lon="-1.65194">
        <ele>535.628</ele>
        <time>2013-05-09T07:02:09Z</time>
      </trkpt>
      <trkpt lat="41.34501" lon="-1.65168">
        <ele>535.12</ele>
        <time>2013-05-09T07:01:59Z</time>
      </trkpt>
      <trkpt lat="41.34518" lon="-1.65153">
        <ele>535.108</ele>
        <time>2013-05-09T07:01:49Z</time>
      </trkpt>
      <trkpt lat="41.34519" lon="-1.65152">
        <ele>535.118</ele>
        <time>2013-05-09T07:01:48Z</time>
      </trkpt>
      <trkpt lat="41.3452" lon="-1.65152">
        <ele>535.139</ele>
        <time>2013-05-09T07:01:47Z</time>
      </trkpt>
      <trkpt lat="41.34521" lon="-1.65152">
        <ele>535.181</ele>
        <time>2013-05-09T07:01:46Z</time>
      </trkpt>
      <trkpt lat="41.34522" lon="-1.65151">
        <ele>535.126</ele>
        <time>2013-05-09T07:01:25Z</time>
      </trkpt>
      <trkpt lat="41.34523" lon="-1.65153">
        <ele>535.143</ele>
        <time>2013-05-09T07:01:03Z</time>
      </trkpt>
      <trkpt lat="41.34524" lon="-1.65155">
        <ele>535.13</ele>
        <time>2013-05-09T07:00:52Z</time>
      </trkpt>
      <trkpt lat="41.34525" lon="-1.65157">
        <ele>534.688</ele>
        <time>2013-05-09T07:00:41Z</time>
      </trkpt>
      <trkpt lat="41.34531" lon="-1.65148">
        <ele>534.631</ele>
        <time>2013-05-09T07:00:33Z</time>
      </trkpt>
      <trkpt lat="41.34565" lon="-1.65122">
        <ele>534.698</ele>
        <time>2013-05-09T07:00:22Z</time>
      </trkpt>
      <trkpt lat="41.34568" lon="-1.65119">
        <ele>534.615</ele>
        <time>2013-05-09T07:00:21Z</time>
      </trkpt>
      <trkpt lat="41.34609" lon="-1.65068">
        <ele>534.626</ele>
        <time>2013-05-09T07:00:07Z</time>
      </trkpt>
      <trkpt lat="41.34653" lon="-1.65">
        <ele>534.208</ele>
        <time>2013-05-09T06:59:51Z</time>
      </trkpt>
      <trkpt lat="41.34695" lon="-1.64934">
        <ele>534.24</ele>
        <time>2013-05-09T06:59:35Z</time>
      </trkpt>
      <trkpt lat="41.34741" lon="-1.64863">
        <ele>534.251</ele>
        <time>2013-05-09T06:59:18Z</time>
      </trkpt>
      <trkpt lat="41.34789" lon="-1.64787">
        <ele>534.233</ele>
        <time>2013-05-09T06:59:00Z</time>
      </trkpt>
      <trkpt lat="41.34813" lon="-1.6474">
        <ele>534.228</ele>
        <time>2013-05-09T06:58:49Z</time>
      </trkpt>
      <trkpt lat="41.34827" lon="-1.64665">
        <ele>534.295</ele>
        <time>2013-05-09T06:58:35Z</time>
      </trkpt>
      <trkpt lat="41.3485" lon="-1.6456">
        <ele>534.252</ele>
        <time>2013-05-09T06:58:16Z</time>
      </trkpt>
      <trkpt lat="41.34862" lon="-1.64493">
        <ele>534.26</ele>
        <time>2013-05-09T06:58:04Z</time>
      </trkpt>
      <trkpt lat="41.34867" lon="-1.64446">
        <ele>534.233</ele>
        <time>2013-05-09T06:57:54Z</time>
      </trkpt>
      <trkpt lat="41.3487" lon="-1.64414">
        <ele>534.288</ele>
        <time>2013-05-09T06:57:44Z</time>
      </trkpt>
      <trkpt lat="41.34891" lon="-1.64413">
        <ele>533.724</ele>
        <time>2013-05-09T06:56:26Z</time>
      </trkpt>
      <trkpt lat="41.34897" lon="-1.64416">
        <ele>535.126</ele>
        <time>2013-05-09T06:56:24Z</time>
      </trkpt>
      <trkpt lat="41.34928" lon="-1.64437">
        <ele>535.608</ele>
        <time>2013-05-09T06:56:14Z</time>
      </trkpt>
      <trkpt lat="41.34955" lon="-1.64464">
        <ele>535.649</ele>
        <time>2013-05-09T06:56:04Z</time>
      </trkpt>
      <trkpt lat="41.34982" lon="-1.64493">
        <ele>535.69</ele>
        <time>2013-05-09T06:55:52Z</time>
      </trkpt>
      <trkpt lat="41.34983" lon="-1.64495">
        <ele>535.652</ele>
        <time>2013-05-09T06:55:51Z</time>
      </trkpt>
      <trkpt lat="41.34984" lon="-1.64496">
        <ele>535.627</ele>
        <time>2013-05-09T06:55:50Z</time>
      </trkpt>
      <trkpt lat="41.34986" lon="-1.64497">
        <ele>535.694</ele>
        <time>2013-05-09T06:55:37Z</time>
      </trkpt>
      <trkpt lat="41.35011" lon="-1.64511">
        <ele>536.181</ele>
        <time>2013-05-09T06:55:26Z</time>
      </trkpt>
      <trkpt lat="41.35015" lon="-1.64511">
        <ele>535.679</ele>
        <time>2013-05-09T06:55:25Z</time>
      </trkpt>
      <trkpt lat="41.35018" lon="-1.6451">
        <ele>535.612</ele>
        <time>2013-05-09T06:55:24Z</time>
      </trkpt>
      <trkpt lat="41.35024" lon="-1.64484">
        <ele>535.666</ele>
        <time>2013-05-09T06:55:18Z</time>
      </trkpt>
      <trkpt lat="41.35034" lon="-1.64427">
        <ele>535.129</ele>
        <time>2013-05-09T06:55:06Z</time>
      </trkpt>
      <trkpt lat="41.35061" lon="-1.64368">
        <ele>534.221</ele>
        <time>2013-05-09T06:54:52Z</time>
      </trkpt>
      <trkpt lat="41.35064" lon="-1.64364">
        <ele>534.208</ele>
        <time>2013-05-09T06:54:51Z</time>
      </trkpt>
      <trkpt lat="41.35082" lon="-1.64328">
        <ele>534.227</ele>
        <time>2013-05-09T06:54:43Z</time>
      </trkpt>
      <trkpt lat="41.351" lon="-1.64292">
        <ele>534.238</ele>
        <time>2013-05-09T06:54:34Z</time>
      </trkpt>
      <trkpt lat="41.35103" lon="-1.6429">
        <ele>534.23</ele>
        <time>2013-05-09T06:54:33Z</time>
      </trkpt>
      <trkpt lat="41.35125" lon="-1.64304">
        <ele>534.235</ele>
        <time>2013-05-09T06:54:24Z</time>
      </trkpt>
      <trkpt lat="41.3515" lon="-1.64326">
        <ele>533.752</ele>
        <time>2013-05-09T06:54:14Z</time>
      </trkpt>
      <trkpt lat="41.35153" lon="-1.64328">
        <ele>533.769</ele>
        <time>2013-05-09T06:54:13Z</time>
      </trkpt>
      <trkpt lat="41.35155" lon="-1.6433">
        <ele>533.757</ele>
        <time>2013-05-09T06:54:12Z</time>
      </trkpt>
      <trkpt lat="41.35158" lon="-1.64331">
        <ele>533.77</ele>
        <time>2013-05-09T06:54:11Z</time>
      </trkpt>
      <trkpt lat="41.35161" lon="-1.64333">
        <ele>533.728</ele>
        <time>2013-05-09T06:54:10Z</time>
      </trkpt>
      <trkpt lat="41.35164" lon="-1.64335">
        <ele>533.789</ele>
        <time>2013-05-09T06:54:09Z</time>
      </trkpt>
      <trkpt lat="41.35167" lon="-1.64336">
        <ele>533.717</ele>
        <time>2013-05-09T06:54:08Z</time>
      </trkpt>
      <trkpt lat="41.3517" lon="-1.64336">
        <ele>533.708</ele>
        <time>2013-05-09T06:54:07Z</time>
      </trkpt>
      <trkpt lat="41.35172" lon="-1.64335">
        <ele>533.773</ele>
        <time>2013-05-09T06:54:06Z</time>
      </trkpt>
      <trkpt lat="41.35175" lon="-1.64334">
        <ele>533.764</ele>
        <time>2013-05-09T06:54:05Z</time>
      </trkpt>
      <trkpt lat="41.35186" lon="-1.6431">
        <ele>533.756</ele>
        <time>2013-05-09T06:53:59Z</time>
      </trkpt>
      <trkpt lat="41.35205" lon="-1.64266">
        <ele>533.221</ele>
        <time>2013-05-09T06:53:47Z</time>
      </trkpt>
      <trkpt lat="41.35211" lon="-1.64218">
        <ele>533.248</ele>
        <time>2013-05-09T06:53:36Z</time>
      </trkpt>
      <trkpt lat="41.3521" lon="-1.64177">
        <ele>532.715</ele>
        <time>2013-05-09T06:53:27Z</time>
      </trkpt>
      <trkpt lat="41.35215" lon="-1.64144">
        <ele>532.713</ele>
        <time>2013-05-09T06:53:18Z</time>
      </trkpt>
      <trkpt lat="41.35226" lon="-1.64103">
        <ele>532.716</ele>
        <time>2013-05-09T06:53:08Z</time>
      </trkpt>
      <trkpt lat="41.35237" lon="-1.64067">
        <ele>532.751</ele>
        <time>2013-05-09T06:52:58Z</time>
      </trkpt>
      <trkpt lat="41.35238" lon="-1.64065">
        <ele>532.701</ele>
        <time>2013-05-09T06:52:57Z</time>
      </trkpt>
      <trkpt lat="41.35239" lon="-1.64062">
        <ele>532.711</ele>
        <time>2013-05-09T06:52:56Z</time>
      </trkpt>
      <trkpt lat="41.35239" lon="-1.64061">
        <ele>532.708</ele>
        <time>2013-05-09T06:52:55Z</time>
      </trkpt>
      <trkpt lat="41.3524" lon="-1.64059">
        <ele>532.796</ele>
        <time>2013-05-09T06:52:54Z</time>
      </trkpt>
      <trkpt lat="41.35241" lon="-1.6406">
        <ele>532.727</ele>
        <time>2013-05-09T06:52:53Z</time>
      </trkpt>
      <trkpt lat="41.35275" lon="-1.64079">
        <ele>531.869</ele>
        <time>2013-05-09T06:52:41Z</time>
      </trkpt>
      <trkpt lat="41.35303" lon="-1.64093">
        <ele>531.844</ele>
        <time>2013-05-09T06:52:32Z</time>
      </trkpt>
      <trkpt lat="41.35322" lon="-1.64101">
        <ele>532.271</ele>
        <time>2013-05-09T06:52:23Z</time>
      </trkpt>
      <trkpt lat="41.35324" lon="-1.64103">
        <ele>532.298</ele>
        <time>2013-05-09T06:52:22Z</time>
      </trkpt>
      <trkpt lat="41.35326" lon="-1.64104">
        <ele>532.276</ele>
        <time>2013-05-09T06:52:21Z</time>
      </trkpt>
      <trkpt lat="41.35328" lon="-1.64106">
        <ele>532.229</ele>
        <time>2013-05-09T06:52:20Z</time>
      </trkpt>
      <trkpt lat="41.35329" lon="-1.64107">
        <ele>532.294</ele>
        <time>2013-05-09T06:52:19Z</time>
      </trkpt>
      <trkpt lat="41.35332" lon="-1.64109">
        <ele>532.757</ele>
        <time>2013-05-09T06:52:17Z</time>
      </trkpt>
      <trkpt lat="41.35333" lon="-1.64112">
        <ele>532.722</ele>
        <time>2013-05-09T06:52:16Z</time>
      </trkpt>
      <trkpt lat="41.35333" lon="-1.64115">
        <ele>533.208</ele>
        <time>2013-05-09T06:52:15Z</time>
      </trkpt>
      <trkpt lat="41.35333" lon="-1.6412">
        <ele>533.23</ele>
        <time>2013-05-09T06:52:14Z</time>
      </trkpt>
      <trkpt lat="41.35333" lon="-1.64124">
        <ele>533.291</ele>
        <time>2013-05-09T06:52:13Z</time>
      </trkpt>
      <trkpt lat="41.35334" lon="-1.64126">
        <ele>533.223</ele>
        <time>2013-05-09T06:52:12Z</time>
      </trkpt>
      <trkpt lat="41.35336" lon="-1.64128">
        <ele>533.258</ele>
        <time>2013-05-09T06:52:11Z</time>
      </trkpt>
      <trkpt lat="41.35338" lon="-1.64129">
        <ele>533.255</ele>
        <time>2013-05-09T06:52:10Z</time>
      </trkpt>
      <trkpt lat="41.3534" lon="-1.6413">
        <ele>533.222</ele>
        <time>2013-05-09T06:52:09Z</time>
      </trkpt>
      <trkpt lat="41.35342" lon="-1.6413">
        <ele>533.22</ele>
        <time>2013-05-09T06:52:08Z</time>
      </trkpt>
      <trkpt lat="41.35341" lon="-1.64136">
        <ele>533.713</ele>
        <time>2013-05-09T06:51:25Z</time>
      </trkpt>
      <trkpt lat="41.35341" lon="-1.64149">
        <ele>534.239</ele>
        <time>2013-05-09T06:51:21Z</time>
      </trkpt>
      <trkpt lat="41.35342" lon="-1.6418">
        <ele>534.601</ele>
        <time>2013-05-09T06:51:11Z</time>
      </trkpt>
      <trkpt lat="41.35341" lon="-1.64183">
        <ele>534.621</ele>
        <time>2013-05-09T06:51:10Z</time>
      </trkpt>
      <trkpt lat="41.35341" lon="-1.64185">
        <ele>534.608</ele>
        <time>2013-05-09T06:51:09Z</time>
      </trkpt>
      <trkpt lat="41.3534" lon="-1.64187">
        <ele>534.614</ele>
        <time>2013-05-09T06:51:08Z</time>
      </trkpt>
      <trkpt lat="41.3534" lon="-1.64189">
        <ele>534.665</ele>
        <time>2013-05-09T06:51:07Z</time>
      </trkpt>
      <trkpt lat="41.3534" lon="-1.64191">
        <ele>534.657</ele>
        <time>2013-05-09T06:51:06Z</time>
      </trkpt>
      <trkpt lat="41.35338" lon="-1.64192">
        <ele>534.662</ele>
        <time>2013-05-09T06:50:58Z</time>
      </trkpt>
      <trkpt lat="41.3483" lon="-1.64359">
        <ele>549.179</ele>
        <time>2013-05-08T17:15:59Z</time>
      </trkpt>
      <trkpt lat="41.34829" lon="-1.64359">
        <ele>549.116</ele>
        <time>2013-05-08T17:15:57Z</time>
      </trkpt>
      <trkpt lat="41.34826" lon="-1.64357">
        <ele>549.174</ele>
        <time>2013-05-08T17:15:46Z</time>
      </trkpt>
      <trkpt lat="41.34827" lon="-1.64356">
        <ele>549.167</ele>
        <time>2013-05-08T17:15:27Z</time>
      </trkpt>
      <trkpt lat="41.34827" lon="-1.64353">
        <ele>549.129</ele>
        <time>2013-05-08T17:15:17Z</time>
      </trkpt>
      <trkpt lat="41.34842" lon="-1.64359">
        <ele>549.1</ele>
        <time>2013-05-08T17:15:06Z</time>
      </trkpt>
      <trkpt lat="41.34862" lon="-1.64372">
        <ele>549.12</ele>
        <time>2013-05-08T17:14:55Z</time>
      </trkpt>
      <trkpt lat="41.34888" lon="-1.64407">
        <ele>549.508</ele>
        <time>2013-05-08T17:14:44Z</time>
      </trkpt>
      <trkpt lat="41.34918" lon="-1.64427">
        <ele>550.083</ele>
        <time>2013-05-08T17:14:35Z</time>
      </trkpt>
      <trkpt lat="41.34954" lon="-1.64463">
        <ele>551.534</ele>
        <time>2013-05-08T17:14:20Z</time>
      </trkpt>
      <trkpt lat="41.34983" lon="-1.64492">
        <ele>551.526</ele>
        <time>2013-05-08T17:14:07Z</time>
      </trkpt>
      <trkpt lat="41.35002" lon="-1.6451">
        <ele>551.561</ele>
        <time>2013-05-08T17:13:57Z</time>
      </trkpt>
      <trkpt lat="41.35025" lon="-1.64529">
        <ele>551.038</ele>
        <time>2013-05-08T17:13:46Z</time>
      </trkpt>
      <trkpt lat="41.35061" lon="-1.6455">
        <ele>551.055</ele>
        <time>2013-05-08T17:13:33Z</time>
      </trkpt>
      <trkpt lat="41.35112" lon="-1.64587">
        <ele>550.523</ele>
        <time>2013-05-08T17:13:18Z</time>
      </trkpt>
      <trkpt lat="41.35155" lon="-1.64613">
        <ele>550.556</ele>
        <time>2013-05-08T17:13:05Z</time>
      </trkpt>
      <trkpt lat="41.35185" lon="-1.64627">
        <ele>550.582</ele>
        <time>2013-05-08T17:12:55Z</time>
      </trkpt>
      <trkpt lat="41.35188" lon="-1.64629">
        <ele>550.543</ele>
        <time>2013-05-08T17:12:54Z</time>
      </trkpt>
      <trkpt lat="41.35191" lon="-1.6463">
        <ele>550.517</ele>
        <time>2013-05-08T17:12:53Z</time>
      </trkpt>
      <trkpt lat="41.35193" lon="-1.64631">
        <ele>550.508</ele>
        <time>2013-05-08T17:12:52Z</time>
      </trkpt>
      <trkpt lat="41.35195" lon="-1.64631">
        <ele>550.529</ele>
        <time>2013-05-08T17:12:51Z</time>
      </trkpt>
      <trkpt lat="41.35198" lon="-1.64625">
        <ele>550.08</ele>
        <time>2013-05-08T17:12:30Z</time>
      </trkpt>
      <trkpt lat="41.35196" lon="-1.64619">
        <ele>550.092</ele>
        <time>2013-05-08T17:12:19Z</time>
      </trkpt>
      <trkpt lat="41.35194" lon="-1.64589">
        <ele>550.047</ele>
        <time>2013-05-08T17:12:10Z</time>
      </trkpt>
      <trkpt lat="41.35195" lon="-1.64586">
        <ele>550.074</ele>
        <time>2013-05-08T17:12:09Z</time>
      </trkpt>
      <trkpt lat="41.352" lon="-1.64544">
        <ele>548.611</ele>
        <time>2013-05-08T17:11:59Z</time>
      </trkpt>
      <trkpt lat="41.35198" lon="-1.64523">
        <ele>548.639</ele>
        <time>2013-05-08T17:11:53Z</time>
      </trkpt>
      <trkpt lat="41.35209" lon="-1.64477">
        <ele>548.622</ele>
        <time>2013-05-08T17:11:41Z</time>
      </trkpt>
      <trkpt lat="41.3522" lon="-1.64441">
        <ele>549.572</ele>
        <time>2013-05-08T16:52:37Z</time>
      </trkpt>
      <trkpt lat="41.35228" lon="-1.64419">
        <ele>550.013</ele>
        <time>2013-05-08T16:52:27Z</time>
      </trkpt>
      <trkpt lat="41.35242" lon="-1.64387">
        <ele>550.514</ele>
        <time>2013-05-08T16:52:18Z</time>
      </trkpt>
      <trkpt lat="41.35263" lon="-1.64361">
        <ele>551.008</ele>
        <time>2013-05-08T16:52:09Z</time>
      </trkpt>
      <trkpt lat="41.35265" lon="-1.6436">
        <ele>551.088</ele>
        <time>2013-05-08T16:52:08Z</time>
      </trkpt>
      <trkpt lat="41.35267" lon="-1.64359">
        <ele>551.029</ele>
        <time>2013-05-08T16:52:07Z</time>
      </trkpt>
      <trkpt lat="41.3527" lon="-1.64359">
        <ele>551.021</ele>
        <time>2013-05-08T16:52:06Z</time>
      </trkpt>
      <trkpt lat="41.35273" lon="-1.6436">
        <ele>551.056</ele>
        <time>2013-05-08T16:52:05Z</time>
      </trkpt>
      <trkpt lat="41.35297" lon="-1.64394">
        <ele>552.483</ele>
        <time>2013-05-08T16:51:55Z</time>
      </trkpt>
      <trkpt lat="41.35313" lon="-1.64411">
        <ele>552.96</ele>
        <time>2013-05-08T16:51:47Z</time>
      </trkpt>
      <trkpt lat="41.35338" lon="-1.6443">
        <ele>553.458</ele>
        <time>2013-05-08T16:51:38Z</time>
      </trkpt>
      <trkpt lat="41.35353" lon="-1.64445">
        <ele>553.911</ele>
        <time>2013-05-08T16:51:28Z</time>
      </trkpt>
      <trkpt lat="41.35355" lon="-1.64443">
        <ele>553.934</ele>
        <time>2013-05-08T16:51:05Z</time>
      </trkpt>
      <trkpt lat="41.35354" lon="-1.64436">
        <ele>553.955</ele>
        <time>2013-05-08T16:50:49Z</time>
      </trkpt>
      <trkpt lat="41.35358" lon="-1.64435">
        <ele>553.91</ele>
        <time>2013-05-08T16:50:25Z</time>
      </trkpt>
      <trkpt lat="41.35361" lon="-1.64439">
        <ele>553.908</ele>
        <time>2013-05-08T16:50:03Z</time>
      </trkpt>
      <trkpt lat="41.35383" lon="-1.64454">
        <ele>554.374</ele>
        <time>2013-05-08T16:49:54Z</time>
      </trkpt>
      <trkpt lat="41.35385" lon="-1.64455">
        <ele>554.345</ele>
        <time>2013-05-08T16:49:53Z</time>
      </trkpt>
      <trkpt lat="41.35388" lon="-1.64457">
        <ele>554.337</ele>
        <time>2013-05-08T16:49:52Z</time>
      </trkpt>
      <trkpt lat="41.35391" lon="-1.64458">
        <ele>554.362</ele>
        <time>2013-05-08T16:49:51Z</time>
      </trkpt>
      <trkpt lat="41.35393" lon="-1.64459">
        <ele>554.359</ele>
        <time>2013-05-08T16:49:50Z</time>
      </trkpt>
      <trkpt lat="41.35394" lon="-1.64461">
        <ele>554.316</ele>
        <time>2013-05-08T16:49:49Z</time>
      </trkpt>
      <trkpt lat="41.35393" lon="-1.64462">
        <ele>554.384</ele>
        <time>2013-05-08T16:49:48Z</time>
      </trkpt>
      <trkpt lat="41.35393" lon="-1.64464">
        <ele>554.367</ele>
        <time>2013-05-08T16:49:47Z</time>
      </trkpt>
      <trkpt lat="41.35392" lon="-1.64466">
        <ele>554.388</ele>
        <time>2013-05-08T16:49:39Z</time>
      </trkpt>
      <trkpt lat="41.35392" lon="-1.64469">
        <ele>554.324</ele>
        <time>2013-05-08T16:49:07Z</time>
      </trkpt>
      <trkpt lat="41.35395" lon="-1.64472">
        <ele>554.326</ele>
        <time>2013-05-08T16:48:58Z</time>
      </trkpt>
      <trkpt lat="41.35412" lon="-1.64487">
        <ele>554.808</ele>
        <time>2013-05-08T16:48:48Z</time>
      </trkpt>
      <trkpt lat="41.35438" lon="-1.64508">
        <ele>555.859</ele>
        <time>2013-05-08T16:48:36Z</time>
      </trkpt>
      <trkpt lat="41.3544" lon="-1.64511">
        <ele>555.84</ele>
        <time>2013-05-08T16:48:35Z</time>
      </trkpt>
      <trkpt lat="41.35443" lon="-1.64513">
        <ele>555.812</ele>
        <time>2013-05-08T16:48:34Z</time>
      </trkpt>
      <trkpt lat="41.35445" lon="-1.64516">
        <ele>555.877</ele>
        <time>2013-05-08T16:48:33Z</time>
      </trkpt>
      <trkpt lat="41.35448" lon="-1.64519">
        <ele>555.874</ele>
        <time>2013-05-08T16:48:32Z</time>
      </trkpt>
      <trkpt lat="41.35454" lon="-1.64522">
        <ele>556.381</ele>
        <time>2013-05-08T16:48:27Z</time>
      </trkpt>
      <trkpt lat="41.35455" lon="-1.64522">
        <ele>556.399</ele>
        <time>2013-05-08T16:48:26Z</time>
      </trkpt>
      <trkpt lat="41.35455" lon="-1.64521">
        <ele>556.392</ele>
        <time>2013-05-08T16:48:25Z</time>
      </trkpt>
      <trkpt lat="41.35456" lon="-1.64519">
        <ele>556.753</ele>
        <time>2013-05-08T16:48:24Z</time>
      </trkpt>
      <trkpt lat="41.35466" lon="-1.64493">
        <ele>557.704</ele>
        <time>2013-05-08T16:48:15Z</time>
      </trkpt>
      <trkpt lat="41.35478" lon="-1.64484">
        <ele>557.714</ele>
        <time>2013-05-08T16:48:06Z</time>
      </trkpt>
      <trkpt lat="41.35481" lon="-1.64483">
        <ele>557.708</ele>
        <time>2013-05-08T16:47:58Z</time>
      </trkpt>
      <trkpt lat="41.35482" lon="-1.64481">
        <ele>557.716</ele>
        <time>2013-05-08T16:47:37Z</time>
      </trkpt>
      <trkpt lat="41.35483" lon="-1.64481">
        <ele>559.187</ele>
        <time>2013-05-08T16:47:18Z</time>
      </trkpt>
      <trkpt lat="41.35484" lon="-1.64482">
        <ele>559.129</ele>
        <time>2013-05-08T16:46:57Z</time>
      </trkpt>
      <trkpt lat="41.35486" lon="-1.64481">
        <ele>558.284</ele>
        <time>2013-05-08T16:46:50Z</time>
      </trkpt>
      <trkpt lat="41.35492" lon="-1.64466">
        <ele>557.791</ele>
        <time>2013-05-08T16:46:44Z</time>
      </trkpt>
      <trkpt lat="41.35493" lon="-1.64463">
        <ele>557.778</ele>
        <time>2013-05-08T16:46:43Z</time>
      </trkpt>
      <trkpt lat="41.35494" lon="-1.64461">
        <ele>557.736</ele>
        <time>2013-05-08T16:46:42Z</time>
      </trkpt>
      <trkpt lat="41.35494" lon="-1.64458">
        <ele>556.379</ele>
        <time>2013-05-08T16:46:41Z</time>
      </trkpt>
      <trkpt lat="41.35494" lon="-1.64456">
        <ele>556.364</ele>
        <time>2013-05-08T16:46:40Z</time>
      </trkpt>
      <trkpt lat="41.355" lon="-1.64443">
        <ele>556.306</ele>
        <time>2013-05-08T16:46:34Z</time>
      </trkpt>
      <trkpt lat="41.35521" lon="-1.64437">
        <ele>557.216</ele>
        <time>2013-05-08T16:46:22Z</time>
      </trkpt>
      <trkpt lat="41.35541" lon="-1.64437">
        <ele>557.708</ele>
        <time>2013-05-08T16:46:11Z</time>
      </trkpt>
      <trkpt lat="41.35542" lon="-1.64437">
        <ele>557.717</ele>
        <time>2013-05-08T16:46:10Z</time>
      </trkpt>
      <trkpt lat="41.35563" lon="-1.64455">
        <ele>558.218</ele>
        <time>2013-05-08T16:45:58Z</time>
      </trkpt>
      <trkpt lat="41.35564" lon="-1.64457">
        <ele>558.74</ele>
        <time>2013-05-08T16:45:57Z</time>
      </trkpt>
      <trkpt lat="41.35566" lon="-1.64459">
        <ele>558.785</ele>
        <time>2013-05-08T16:45:56Z</time>
      </trkpt>
      <trkpt lat="41.35567" lon="-1.64461">
        <ele>558.782</ele>
        <time>2013-05-08T16:45:55Z</time>
      </trkpt>
      <trkpt lat="41.35569" lon="-1.64463">
        <ele>558.719</ele>
        <time>2013-05-08T16:45:54Z</time>
      </trkpt>
      <trkpt lat="41.3557" lon="-1.64465">
        <ele>558.787</ele>
        <time>2013-05-08T16:45:53Z</time>
      </trkpt>
      <trkpt lat="41.35572" lon="-1.64467">
        <ele>558.73</ele>
        <time>2013-05-08T16:45:52Z</time>
      </trkpt>
      <trkpt lat="41.35574" lon="-1.6447">
        <ele>558.758</ele>
        <time>2013-05-08T16:45:51Z</time>
      </trkpt>
      <trkpt lat="41.35575" lon="-1.64472">
        <ele>558.752</ele>
        <time>2013-05-08T16:45:50Z</time>
      </trkpt>
      <trkpt lat="41.35576" lon="-1.64474">
        <ele>558.717</ele>
        <time>2013-05-08T16:45:49Z</time>
      </trkpt>
      <trkpt lat="41.35578" lon="-1.64477">
        <ele>558.708</ele>
        <time>2013-05-08T16:45:48Z</time>
      </trkpt>
      <trkpt lat="41.35579" lon="-1.64479">
        <ele>558.796</ele>
        <time>2013-05-08T16:45:47Z</time>
      </trkpt>
      <trkpt lat="41.35579" lon="-1.64481">
        <ele>558.767</ele>
        <time>2013-05-08T16:45:46Z</time>
      </trkpt>
      <trkpt lat="41.3558" lon="-1.64483">
        <ele>558.739</ele>
        <time>2013-05-08T16:45:45Z</time>
      </trkpt>
      <trkpt lat="41.35581" lon="-1.64486">
        <ele>558.784</ele>
        <time>2013-05-08T16:45:43Z</time>
      </trkpt>
      <trkpt lat="41.3558" lon="-1.64487">
        <ele>558.791</ele>
        <time>2013-05-08T16:45:42Z</time>
      </trkpt>
      <trkpt lat="41.3558" lon="-1.64492">
        <ele>558.718</ele>
        <time>2013-05-08T16:45:13Z</time>
      </trkpt>
      <trkpt lat="41.35586" lon="-1.64512">
        <ele>559.676</ele>
        <time>2013-05-08T16:45:04Z</time>
      </trkpt>
      <trkpt lat="41.35587" lon="-1.64554">
        <ele>561.139</ele>
        <time>2013-05-08T16:44:53Z</time>
      </trkpt>
      <trkpt lat="41.35592" lon="-1.64606">
        <ele>562.553</ele>
        <time>2013-05-08T16:44:43Z</time>
      </trkpt>
      <trkpt lat="41.35593" lon="-1.64611">
        <ele>562.504</ele>
        <time>2013-05-08T16:44:42Z</time>
      </trkpt>
      <trkpt lat="41.35598" lon="-1.64627">
        <ele>562.514</ele>
        <time>2013-05-08T16:44:39Z</time>
      </trkpt>
      <trkpt lat="41.356" lon="-1.64632">
        <ele>562.508</ele>
        <time>2013-05-08T16:44:38Z</time>
      </trkpt>
      <trkpt lat="41.35602" lon="-1.64637">
        <ele>563.026</ele>
        <time>2013-05-08T16:44:37Z</time>
      </trkpt>
      <trkpt lat="41.35455" lon="-1.64521">
        <ele>556.327</ele>
        <time>2013-05-08T16:48:25Z</time>
      </trkpt>
      <trkpt lat="41.35456" lon="-1.64519">
        <ele>556.769</ele>
        <time>2013-05-08T16:48:24Z</time>
      </trkpt>
      <trkpt lat="41.35466" lon="-1.64493">
        <ele>557.724</ele>
        <time>2013-05-08T16:48:15Z</time>
      </trkpt>
      <trkpt lat="41.35478" lon="-1.64484">
        <ele>557.731</ele>
        <time>2013-05-08T16:48:06Z</time>
      </trkpt>
      <trkpt lat="41.35481" lon="-1.64483">
        <ele>557.778</ele>
        <time>2013-05-08T16:47:58Z</time>
      </trkpt>
      <trkpt lat="41.35482" lon="-1.64481">
        <ele>557.776</ele>
        <time>2013-05-08T16:47:37Z</time>
      </trkpt>
      <trkpt lat="41.35483" lon="-1.64481">
        <ele>559.159</ele>
        <time>2013-05-08T16:47:18Z</time>
      </trkpt>
      <trkpt lat="41.35484" lon="-1.64482">
        <ele>559.168</ele>
        <time>2013-05-08T16:46:57Z</time>
      </trkpt>
      <trkpt lat="41.35486" lon="-1.64481">
        <ele>558.242</ele>
        <time>2013-05-08T16:46:50Z</time>
      </trkpt>
      <trkpt lat="41.35492" lon="-1.64466">
        <ele>557.726</ele>
        <time>2013-05-08T16:46:44Z</time>
      </trkpt>
      <trkpt lat="41.35493" lon="-1.64463">
        <ele>557.708</ele>
        <time>2013-05-08T16:46:43Z</time>
      </trkpt>
      <trkpt lat="41.35494" lon="-1.64461">
        <ele>557.717</ele>
        <time>2013-05-08T16:46:42Z</time>
      </trkpt>
      <trkpt lat="41.35494" lon="-1.64458">
        <ele>556.368</ele>
        <time>2013-05-08T16:46:41Z</time>
      </trkpt>
      <trkpt lat="41.35494" lon="-1.64456">
        <ele>556.37</ele>
        <time>2013-05-08T16:46:40Z</time>
      </trkpt>
      <trkpt lat="41.355" lon="-1.64443">
        <ele>556.325</ele>
        <time>2013-05-08T16:46:34Z</time>
      </trkpt>
      <trkpt lat="41.35521" lon="-1.64437">
        <ele>557.252</ele>
        <time>2013-05-08T16:46:22Z</time>
      </trkpt>
      <trkpt lat="41.35541" lon="-1.64437">
        <ele>557.739</ele>
        <time>2013-05-08T16:46:11Z</time>
      </trkpt>
      <trkpt lat="41.35542" lon="-1.64437">
        <ele>557.797</ele>
        <time>2013-05-08T16:46:10Z</time>
      </trkpt>
      <trkpt lat="41.35563" lon="-1.64455">
        <ele>558.23</ele>
        <time>2013-05-08T16:45:58Z</time>
      </trkpt>
      <trkpt lat="41.35564" lon="-1.64457">
        <ele>558.745</ele>
        <time>2013-05-08T16:45:57Z</time>
      </trkpt>
      <trkpt lat="41.35566" lon="-1.64459">
        <ele>558.747</ele>
        <time>2013-05-08T16:45:56Z</time>
      </trkpt>
      <trkpt lat="41.35567" lon="-1.64461">
        <ele>558.711</ele>
        <time>2013-05-08T16:45:55Z</time>
      </trkpt>
      <trkpt lat="41.35569" lon="-1.64463">
        <ele>558.708</ele>
        <time>2013-05-08T16:45:54Z</time>
      </trkpt>
      <trkpt lat="41.3557" lon="-1.64465">
        <ele>558.765</ele>
        <time>2013-05-08T16:45:53Z</time>
      </trkpt>
      <trkpt lat="41.35572" lon="-1.64467">
        <ele>558.726</ele>
        <time>2013-05-08T16:45:52Z</time>
      </trkpt>
      <trkpt lat="41.35574" lon="-1.6447">
        <ele>558.748</ele>
        <time>2013-05-08T16:45:51Z</time>
      </trkpt>
      <trkpt lat="41.35575" lon="-1.64472">
        <ele>558.743</ele>
        <time>2013-05-08T16:45:50Z</time>
      </trkpt>
      <trkpt lat="41.35576" lon="-1.64474">
        <ele>558.73</ele>
        <time>2013-05-08T16:45:49Z</time>
      </trkpt>
      <trkpt lat="41.35578" lon="-1.64477">
        <ele>558.727</ele>
        <time>2013-05-08T16:45:48Z</time>
      </trkpt>
      <trkpt lat="41.35579" lon="-1.64479">
        <ele>558.725</ele>
        <time>2013-05-08T16:45:47Z</time>
      </trkpt>
      <trkpt lat="41.35579" lon="-1.64481">
        <ele>558.728</ele>
        <time>2013-05-08T16:45:46Z</time>
      </trkpt>
      <trkpt lat="41.3558" lon="-1.64483">
        <ele>558.719</ele>
        <time>2013-05-08T16:45:45Z</time>
      </trkpt>
      <trkpt lat="41.35581" lon="-1.64486">
        <ele>558.709</ele>
        <time>2013-05-08T16:45:43Z</time>
      </trkpt>
      <trkpt lat="41.3558" lon="-1.64487">
        <ele>558.719</ele>
        <time>2013-05-08T16:45:42Z</time>
      </trkpt>
      <trkpt lat="41.3558" lon="-1.64492">
        <ele>558.708</ele>
        <time>2013-05-08T16:45:13Z</time>
      </trkpt>
      <trkpt lat="41.35586" lon="-1.64512">
        <ele>559.612</ele>
        <time>2013-05-08T16:45:04Z</time>
      </trkpt>
      <trkpt lat="41.35587" lon="-1.64554">
        <ele>561.133</ele>
        <time>2013-05-08T16:44:53Z</time>
      </trkpt>
      <trkpt lat="41.35592" lon="-1.64606">
        <ele>562.575</ele>
        <time>2013-05-08T16:44:43Z</time>
      </trkpt>
      <trkpt lat="41.35593" lon="-1.64611">
        <ele>562.57</ele>
        <time>2013-05-08T16:44:42Z</time>
      </trkpt>
      <trkpt lat="41.35598" lon="-1.64627">
        <ele>562.567</ele>
        <time>2013-05-08T16:44:39Z</time>
      </trkpt>
      <trkpt lat="41.356" lon="-1.64632">
        <ele>562.534</ele>
        <time>2013-05-08T16:44:38Z</time>
      </trkpt>
      <trkpt lat="41.35602" lon="-1.64637">
        <ele>563.012</ele>
        <time>2013-05-08T16:44:37Z</time>
      </trkpt>
      <trkpt lat="41.35642" lon="-1.64666">
        <ele>563.555</ele>
        <time>2013-05-08T16:44:26Z</time>
      </trkpt>
      <trkpt lat="41.35646" lon="-1.64668">
        <ele>563.549</ele>
        <time>2013-05-08T16:44:25Z</time>
      </trkpt>
      <trkpt lat="41.3566" lon="-1.64677">
        <ele>564.002</ele>
        <time>2013-05-08T16:44:21Z</time>
      </trkpt>
      <trkpt lat="41.35695" lon="-1.647">
        <ele>564.422</ele>
        <time>2013-05-08T16:44:11Z</time>
      </trkpt>
      <trkpt lat="41.35729" lon="-1.64726">
        <ele>564.908</ele>
        <time>2013-05-08T16:43:59Z</time>
      </trkpt>
      <trkpt lat="41.35731" lon="-1.64728">
        <ele>564.945</ele>
        <time>2013-05-08T16:43:58Z</time>
      </trkpt>
      <trkpt lat="41.35734" lon="-1.6473">
        <ele>564.926</ele>
        <time>2013-05-08T16:43:57Z</time>
      </trkpt>
      <trkpt lat="41.35737" lon="-1.64732">
        <ele>565.488</ele>
        <time>2013-05-08T16:43:56Z</time>
      </trkpt>
      <trkpt lat="41.3574" lon="-1.64733">
        <ele>565.493</ele>
        <time>2013-05-08T16:43:55Z</time>
      </trkpt>
      <trkpt lat="41.35743" lon="-1.64732">
        <ele>565.48</ele>
        <time>2013-05-08T16:43:54Z</time>
      </trkpt>
      <trkpt lat="41.35745" lon="-1.64731">
        <ele>565.467</ele>
        <time>2013-05-08T16:43:53Z</time>
      </trkpt>
      <trkpt lat="41.35747" lon="-1.64728">
        <ele>565.465</ele>
        <time>2013-05-08T16:43:52Z</time>
      </trkpt>
      <trkpt lat="41.35749" lon="-1.64725">
        <ele>565.928</ele>
        <time>2013-05-08T16:43:51Z</time>
      </trkpt>
      <trkpt lat="41.35751" lon="-1.64722">
        <ele>566.443</ele>
        <time>2013-05-08T16:43:50Z</time>
      </trkpt>
      <trkpt lat="41.35752" lon="-1.6472">
        <ele>566.864</ele>
        <time>2013-05-08T16:43:49Z</time>
      </trkpt>
      <trkpt lat="41.35753" lon="-1.64718">
        <ele>567.31</ele>
        <time>2013-05-08T16:43:48Z</time>
      </trkpt>
      <trkpt lat="41.35754" lon="-1.64717">
        <ele>567.808</ele>
        <time>2013-05-08T16:43:47Z</time>
      </trkpt>
      <trkpt lat="41.35756" lon="-1.64716">
        <ele>567.855</ele>
        <time>2013-05-08T16:43:45Z</time>
      </trkpt>
      <trkpt lat="41.35757" lon="-1.64717">
        <ele>567.856</ele>
        <time>2013-05-08T16:43:35Z</time>
      </trkpt>
      <trkpt lat="41.35793" lon="-1.64735">
        <ele>569.798</ele>
        <time>2013-05-08T16:43:27Z</time>
      </trkpt>
      <trkpt lat="41.35799" lon="-1.64738">
        <ele>570.773</ele>
        <time>2013-05-08T16:43:26Z</time>
      </trkpt>
      <trkpt lat="41.35805" lon="-1.6474">
        <ele>571.23</ele>
        <time>2013-05-08T16:43:25Z</time>
      </trkpt>
      <trkpt lat="41.35816" lon="-1.64743">
        <ele>571.657</ele>
        <time>2013-05-08T16:43:23Z</time>
      </trkpt>
      <trkpt lat="41.35832" lon="-1.64749">
        <ele>572.115</ele>
        <time>2013-05-08T16:43:20Z</time>
      </trkpt>
      <trkpt lat="41.35846" lon="-1.64759">
        <ele>573.168</ele>
        <time>2013-05-08T16:43:17Z</time>
      </trkpt>
      <trkpt lat="41.35851" lon="-1.64762">
        <ele>573.139</ele>
        <time>2013-05-08T16:43:16Z</time>
      </trkpt>
      <trkpt lat="41.35896" lon="-1.6478">
        <ele>575.001</ele>
        <time>2013-05-08T16:43:05Z</time>
      </trkpt>
      <trkpt lat="41.35932" lon="-1.64787">
        <ele>576.021</ele>
        <time>2013-05-08T16:42:53Z</time>
      </trkpt>
      <trkpt lat="41.35936" lon="-1.64788">
        <ele>576.008</ele>
        <time>2013-05-08T16:42:51Z</time>
      </trkpt>
      <trkpt lat="41.35937" lon="-1.64788">
        <ele>576.034</ele>
        <time>2013-05-08T16:42:49Z</time>
      </trkpt>
      <trkpt lat="41.3594" lon="-1.64787">
        <ele>576.025</ele>
        <time>2013-05-08T16:41:55Z</time>
      </trkpt>
      <trkpt lat="41.3594" lon="-1.64789">
        <ele>576.057</ele>
        <time>2013-05-08T16:41:29Z</time>
      </trkpt>
      <trkpt lat="41.35939" lon="-1.64789">
        <ele>576.012</ele>
        <time>2013-05-08T16:40:14Z</time>
      </trkpt>
      <trkpt lat="41.35938" lon="-1.6479">
        <ele>576.549</ele>
        <time>2013-05-08T16:39:19Z</time>
      </trkpt>
      <trkpt lat="41.35938" lon="-1.64789">
        <ele>576.576</ele>
        <time>2013-05-08T16:39:00Z</time>
      </trkpt>
      <trkpt lat="41.35939" lon="-1.64796">
        <ele>576.934</ele>
        <time>2013-05-08T16:38:53Z</time>
      </trkpt>
      <trkpt lat="41.35939" lon="-1.64798">
        <ele>576.957</ele>
        <time>2013-05-08T16:38:52Z</time>
      </trkpt>
      <trkpt lat="41.3594" lon="-1.64799">
        <ele>576.998</ele>
        <time>2013-05-08T16:38:51Z</time>
      </trkpt>
      <trkpt lat="41.35969" lon="-1.64811">
        <ele>577.415</ele>
        <time>2013-05-08T16:38:41Z</time>
      </trkpt>
      <trkpt lat="41.35989" lon="-1.64817">
        <ele>578.426</ele>
        <time>2013-05-08T16:38:35Z</time>
      </trkpt>
      <trkpt lat="41.35995" lon="-1.64818">
        <ele>578.908</ele>
        <time>2013-05-08T16:38:34Z</time>
      </trkpt>
      <trkpt lat="41.36002" lon="-1.64819">
        <ele>578.99</ele>
        <time>2013-05-08T16:38:33Z</time>
      </trkpt>
      <trkpt lat="41.36009" lon="-1.64819">
        <ele>578.991</ele>
        <time>2013-05-08T16:38:32Z</time>
      </trkpt>
      <trkpt lat="41.36016" lon="-1.64818">
        <ele>578.983</ele>
        <time>2013-05-08T16:38:31Z</time>
      </trkpt>
      <trkpt lat="41.36022" lon="-1.64816">
        <ele>579.878</ele>
        <time>2013-05-08T16:38:30Z</time>
      </trkpt>
      <trkpt lat="41.36029" lon="-1.64811">
        <ele>579.845</ele>
        <time>2013-05-08T16:38:29Z</time>
      </trkpt>
      <trkpt lat="41.36035" lon="-1.64805">
        <ele>580.382</ele>
        <time>2013-05-08T16:38:28Z</time>
      </trkpt>
      <trkpt lat="41.36062" lon="-1.64771">
        <ele>583.75</ele>
        <time>2013-05-08T16:38:24Z</time>
      </trkpt>
      <trkpt lat="41.36081" lon="-1.64739">
        <ele>587.563</ele>
        <time>2013-05-08T16:38:21Z</time>
      </trkpt>
      <trkpt lat="41.36088" lon="-1.64728">
        <ele>589.088</ele>
        <time>2013-05-08T16:38:20Z</time>
      </trkpt>
      <trkpt lat="41.36109" lon="-1.64701">
        <ele>593.324</ele>
        <time>2013-05-08T16:38:17Z</time>
      </trkpt>
      <trkpt lat="41.36116" lon="-1.64694">
        <ele>594.726</ele>
        <time>2013-05-08T16:38:16Z</time>
      </trkpt>
      <trkpt lat="41.36123" lon="-1.64688">
        <ele>595.708</ele>
        <time>2013-05-08T16:38:15Z</time>
      </trkpt>
      <trkpt lat="41.36137" lon="-1.64681">
        <ele>598.149</ele>
        <time>2013-05-08T16:38:13Z</time>
      </trkpt>
      <trkpt lat="41.36158" lon="-1.64672">
        <ele>601.08</ele>
        <time>2013-05-08T16:38:10Z</time>
      </trkpt>
      <trkpt lat="41.36177" lon="-1.64664">
        <ele>604.392</ele>
        <time>2013-05-08T16:38:07Z</time>
      </trkpt>
      <trkpt lat="41.36194" lon="-1.64657">
        <ele>608.217</ele>
        <time>2013-05-08T16:38:04Z</time>
      </trkpt>
      <trkpt lat="41.36198" lon="-1.64654">
        <ele>609.174</ele>
        <time>2013-05-08T16:38:03Z</time>
      </trkpt>
      <trkpt lat="41.36202" lon="-1.64652">
        <ele>610.111</ele>
        <time>2013-05-08T16:38:02Z</time>
      </trkpt>
      <trkpt lat="41.36206" lon="-1.64649">
        <ele>611.179</ele>
        <time>2013-05-08T16:38:01Z</time>
      </trkpt>
      <trkpt lat="41.3621" lon="-1.64645">
        <ele>612.032</ele>
        <time>2013-05-08T16:38:00Z</time>
      </trkpt>
      <trkpt lat="41.36213" lon="-1.64641">
        <ele>613.065</ele>
        <time>2013-05-08T16:37:59Z</time>
      </trkpt>
      <trkpt lat="41.36216" lon="-1.64637">
        <ele>613.968</ele>
        <time>2013-05-08T16:37:58Z</time>
      </trkpt>
      <trkpt lat="41.36218" lon="-1.64633">
        <ele>614.914</ele>
        <time>2013-05-08T16:37:57Z</time>
      </trkpt>
      <trkpt lat="41.3622" lon="-1.64628">
        <ele>615.408</ele>
        <time>2013-05-08T16:37:56Z</time>
      </trkpt>
      <trkpt lat="41.36222" lon="-1.64624">
        <ele>616.877</ele>
        <time>2013-05-08T16:37:55Z</time>
      </trkpt>
      <trkpt lat="41.36225" lon="-1.64601">
        <ele>620.228</ele>
        <time>2013-05-08T16:37:50Z</time>
      </trkpt>
      <trkpt lat="41.36226" lon="-1.64582">
        <ele>623.68</ele>
        <time>2013-05-08T16:37:45Z</time>
      </trkpt>
      <trkpt lat="41.36229" lon="-1.6457">
        <ele>625.055</ele>
        <time>2013-05-08T16:37:33Z</time>
      </trkpt>
      <trkpt lat="41.3623" lon="-1.64569">
        <ele>625.082</ele>
        <time>2013-05-08T16:37:16Z</time>
      </trkpt>
      <trkpt lat="41.3623" lon="-1.6457">
        <ele>625.059</ele>
        <time>2013-05-08T16:36:50Z</time>
      </trkpt>
      <trkpt lat="41.36232" lon="-1.64568">
        <ele>625.097</ele>
        <time>2013-05-08T16:36:25Z</time>
      </trkpt>
      <trkpt lat="41.36233" lon="-1.64564">
        <ele>625.54</ele>
        <time>2013-05-08T16:36:14Z</time>
      </trkpt>
      <trkpt lat="41.36235" lon="-1.64561">
        <ele>626.422</ele>
        <time>2013-05-08T16:36:06Z</time>
      </trkpt>
      <trkpt lat="41.36246" lon="-1.64544">
        <ele>628.862</ele>
        <time>2013-05-08T16:35:57Z</time>
      </trkpt>
      <trkpt lat="41.36261" lon="-1.64558">
        <ele>628.808</ele>
        <time>2013-05-08T16:35:49Z</time>
      </trkpt>
      <trkpt lat="41.36261" lon="-1.64606">
        <ele>628.808</ele>
        <time>2013-05-08T16:35:38Z</time>
      </trkpt>
      <trkpt lat="41.36262" lon="-1.64612">
        <ele>628.853</ele>
        <time>2013-05-08T16:35:37Z</time>
      </trkpt>
      <trkpt lat="41.36262" lon="-1.64618">
        <ele>630.814</ele>
        <time>2013-05-08T16:35:36Z</time>
      </trkpt>
      <trkpt lat="41.36267" lon="-1.64646">
        <ele>630.886</ele>
        <time>2013-05-08T16:35:29Z</time>
      </trkpt>
      <trkpt lat="41.36282" lon="-1.64686">
        <ele>629.871</ele>
        <time>2013-05-08T16:35:15Z</time>
      </trkpt>
      <trkpt lat="41.36296" lon="-1.64719">
        <ele>629.368</ele>
        <time>2013-05-08T16:35:02Z</time>
      </trkpt>
      <trkpt lat="41.36303" lon="-1.64755">
        <ele>628.825</ele>
        <time>2013-05-08T16:34:52Z</time>
      </trkpt>
      <trkpt lat="41.36307" lon="-1.64775">
        <ele>627.493</ele>
        <time>2013-05-08T16:34:46Z</time>
      </trkpt>
      <trkpt lat="41.36309" lon="-1.64779">
        <ele>627.466</ele>
        <time>2013-05-08T16:34:45Z</time>
      </trkpt>
      <trkpt lat="41.3631" lon="-1.64783">
        <ele>627.432</ele>
        <time>2013-05-08T16:34:44Z</time>
      </trkpt>
      <trkpt lat="41.36313" lon="-1.64787">
        <ele>627.492</ele>
        <time>2013-05-08T16:34:43Z</time>
      </trkpt>
      <trkpt lat="41.36316" lon="-1.64791">
        <ele>627.411</ele>
        <time>2013-05-08T16:34:42Z</time>
      </trkpt>
      <trkpt lat="41.36323" lon="-1.64798">
        <ele>627.408</ele>
        <time>2013-05-08T16:34:40Z</time>
      </trkpt>
      <trkpt lat="41.36337" lon="-1.64809">
        <ele>627.424</ele>
        <time>2013-05-08T16:34:37Z</time>
      </trkpt>
      <trkpt lat="41.36358" lon="-1.64828">
        <ele>628.415</ele>
        <time>2013-05-08T16:34:32Z</time>
      </trkpt>
      <trkpt lat="41.3637" lon="-1.64837">
        <ele>629.387</ele>
        <time>2013-05-08T16:34:29Z</time>
      </trkpt>
      <trkpt lat="41.36408" lon="-1.6486">
        <ele>629.362</ele>
        <time>2013-05-08T16:34:18Z</time>
      </trkpt>
      <trkpt lat="41.36446" lon="-1.64868">
        <ele>628.829</ele>
        <time>2013-05-08T16:34:06Z</time>
      </trkpt>
      <trkpt lat="41.36483" lon="-1.64868">
        <ele>628.456</ele>
        <time>2013-05-08T16:33:54Z</time>
      </trkpt>
      <trkpt lat="41.36521" lon="-1.64867">
        <ele>627.474</ele>
        <time>2013-05-08T16:33:40Z</time>
      </trkpt>
      <trkpt lat="41.36558" lon="-1.64847">
        <ele>625.577</ele>
        <time>2013-05-08T16:33:25Z</time>
      </trkpt>
      <trkpt lat="41.36601" lon="-1.64832">
        <ele>623.693</ele>
        <time>2013-05-08T16:33:09Z</time>
      </trkpt>
      <trkpt lat="41.3664" lon="-1.64819">
        <ele>623.165</ele>
        <time>2013-05-08T16:32:56Z</time>
      </trkpt>
      <trkpt lat="41.36669" lon="-1.64806">
        <ele>622.621</ele>
        <time>2013-05-08T16:32:44Z</time>
      </trkpt>
      <trkpt lat="41.36696" lon="-1.64799">
        <ele>620.708</ele>
        <time>2013-05-08T16:32:32Z</time>
      </trkpt>
      <trkpt lat="41.36728" lon="-1.64792">
        <ele>619.74</ele>
        <time>2013-05-08T16:32:20Z</time>
      </trkpt>
      <trkpt lat="41.36766" lon="-1.64781">
        <ele>616.361</ele>
        <time>2013-05-08T16:32:05Z</time>
      </trkpt>
      <trkpt lat="41.36807" lon="-1.64772">
        <ele>615.463</ele>
        <time>2013-05-08T16:31:53Z</time>
      </trkpt>
      <trkpt lat="41.36854" lon="-1.64772">
        <ele>614.418</ele>
        <time>2013-05-08T16:31:41Z</time>
      </trkpt>
      <trkpt lat="41.36888" lon="-1.64787">
        <ele>613.935</ele>
        <time>2013-05-08T16:31:32Z</time>
      </trkpt>
      <trkpt lat="41.36931" lon="-1.64815">
        <ele>613.542</ele>
        <time>2013-05-08T16:31:19Z</time>
      </trkpt>
      <trkpt lat="41.36963" lon="-1.64825">
        <ele>613.53</ele>
        <time>2013-05-08T16:31:10Z</time>
      </trkpt>
      <trkpt lat="41.36967" lon="-1.64825">
        <ele>613.573</ele>
        <time>2013-05-08T16:31:09Z</time>
      </trkpt>
      <trkpt lat="41.3697" lon="-1.64825">
        <ele>613.524</ele>
        <time>2013-05-08T16:31:08Z</time>
      </trkpt>
      <trkpt lat="41.36974" lon="-1.64824">
        <ele>613.504</ele>
        <time>2013-05-08T16:31:07Z</time>
      </trkpt>
      <trkpt lat="41.36978" lon="-1.64823">
        <ele>613.514</ele>
        <time>2013-05-08T16:31:06Z</time>
      </trkpt>
      <trkpt lat="41.3701" lon="-1.648">
        <ele>613.508</ele>
        <time>2013-05-08T16:30:56Z</time>
      </trkpt>
      <trkpt lat="41.37035" lon="-1.64772">
        <ele>613.573</ele>
        <time>2013-05-08T16:30:47Z</time>
      </trkpt>
      <trkpt lat="41.37065" lon="-1.64749">
        <ele>611.574</ele>
        <time>2013-05-08T16:30:35Z</time>
      </trkpt>
      <trkpt lat="41.371" lon="-1.64733">
        <ele>610.156</ele>
        <time>2013-05-08T16:30:25Z</time>
      </trkpt>
      <trkpt lat="41.37156" lon="-1.64708">
        <ele>610.661</ele>
        <time>2013-05-08T16:30:14Z</time>
      </trkpt>
      <trkpt lat="41.37235" lon="-1.64652">
        <ele>613.038</ele>
        <time>2013-05-08T16:30:00Z</time>
      </trkpt>
      <trkpt lat="41.37283" lon="-1.64621">
        <ele>614.435</ele>
        <time>2013-05-08T16:29:49Z</time>
      </trkpt>
      <trkpt lat="41.37308" lon="-1.64607">
        <ele>615.453</ele>
        <time>2013-05-08T16:29:39Z</time>
      </trkpt>
      <trkpt lat="41.37333" lon="-1.64605">
        <ele>615.496</ele>
        <time>2013-05-08T16:29:27Z</time>
      </trkpt>
      <trkpt lat="41.3736" lon="-1.64606">
        <ele>613.968</ele>
        <time>2013-05-08T16:29:11Z</time>
      </trkpt>
      <trkpt lat="41.37377" lon="-1.64603">
        <ele>612.542</ele>
        <time>2013-05-08T16:28:59Z</time>
      </trkpt>
      <trkpt lat="41.37394" lon="-1.64596">
        <ele>610.126</ele>
        <time>2013-05-08T16:28:43Z</time>
      </trkpt>
      <trkpt lat="41.37395" lon="-1.64596">
        <ele>610.108</ele>
        <time>2013-05-08T16:28:42Z</time>
      </trkpt>
      <trkpt lat="41.374" lon="-1.64595">
        <ele>608.737</ele>
        <time>2013-05-08T16:28:37Z</time>
      </trkpt>
      <trkpt lat="41.374" lon="-1.64595">
        <ele>608.718</ele>
        <time>2013-05-08T16:28:36Z</time>
      </trkpt>
      <trkpt lat="41.37401" lon="-1.64594">
        <ele>608.72</ele>
        <time>2013-05-08T16:28:35Z</time>
      </trkpt>
      <trkpt lat="41.37411" lon="-1.64589">
        <ele>606.745</ele>
        <time>2013-05-08T16:28:24Z</time>
      </trkpt>
      <trkpt lat="41.37416" lon="-1.64587">
        <ele>606.752</ele>
        <time>2013-05-08T16:28:19Z</time>
      </trkpt>
      <trkpt lat="41.37417" lon="-1.64588">
        <ele>605.839</ele>
        <time>2013-05-08T16:28:18Z</time>
      </trkpt>
      <trkpt lat="41.37419" lon="-1.64587">
        <ele>605.827</ele>
        <time>2013-05-08T16:28:16Z</time>
      </trkpt>
      <trkpt lat="41.37428" lon="-1.64584">
        <ele>603.94</ele>
        <time>2013-05-08T16:28:06Z</time>
      </trkpt>
      <trkpt lat="41.37435" lon="-1.64582">
        <ele>602.976</ele>
        <time>2013-05-08T16:27:59Z</time>
      </trkpt>
      <trkpt lat="41.37449" lon="-1.64575">
        <ele>600.09</ele>
        <time>2013-05-08T16:27:45Z</time>
      </trkpt>
      <trkpt lat="41.3745" lon="-1.64574">
        <ele>600.019</ele>
        <time>2013-05-08T16:27:44Z</time>
      </trkpt>
      <trkpt lat="41.37457" lon="-1.6457">
        <ele>599.008</ele>
        <time>2013-05-08T16:27:38Z</time>
      </trkpt>
      <trkpt lat="41.37473" lon="-1.64555">
        <ele>596.688</ele>
        <time>2013-05-08T16:27:26Z</time>
      </trkpt>
      <trkpt lat="41.37502" lon="-1.64523">
        <ele>595.279</ele>
        <time>2013-05-08T16:27:12Z</time>
      </trkpt>
      <trkpt lat="41.37541" lon="-1.64493">
        <ele>594.271</ele>
        <time>2013-05-08T16:26:57Z</time>
      </trkpt>
      <trkpt lat="41.3758" lon="-1.64461">
        <ele>592.356</ele>
        <time>2013-05-08T16:26:42Z</time>
      </trkpt>
      <trkpt lat="41.37614" lon="-1.64434">
        <ele>592.363</ele>
        <time>2013-05-08T16:26:29Z</time>
      </trkpt>
      <trkpt lat="41.37634" lon="-1.64427">
        <ele>592.37</ele>
        <time>2013-05-08T16:26:20Z</time>
      </trkpt>
      <trkpt lat="41.37659" lon="-1.64415">
        <ele>592.398</ele>
        <time>2013-05-08T16:26:10Z</time>
      </trkpt>
      <trkpt lat="41.37691" lon="-1.64405">
        <ele>592.391</ele>
        <time>2013-05-08T16:26:00Z</time>
      </trkpt>
      <trkpt lat="41.37716" lon="-1.64393">
        <ele>592.358</ele>
        <time>2013-05-08T16:25:50Z</time>
      </trkpt>
      <trkpt lat="41.37717" lon="-1.64392">
        <ele>592.352</ele>
        <time>2013-05-08T16:25:49Z</time>
      </trkpt>
      <trkpt lat="41.37719" lon="-1.64391">
        <ele>592.317</ele>
        <time>2013-05-08T16:25:44Z</time>
      </trkpt>
      <trkpt lat="41.37723" lon="-1.64387">
        <ele>592.308</ele>
        <time>2013-05-08T16:25:31Z</time>
      </trkpt>
      <trkpt lat="41.37722" lon="-1.64389">
        <ele>593.386</ele>
        <time>2013-05-08T16:24:41Z</time>
      </trkpt>
      <trkpt lat="41.37721" lon="-1.64388">
        <ele>593.317</ele>
        <time>2013-05-08T16:24:07Z</time>
      </trkpt>
      <trkpt lat="41.37722" lon="-1.64388">
        <ele>593.319</ele>
        <time>2013-05-08T16:23:42Z</time>
      </trkpt>
      <trkpt lat="41.37725" lon="-1.6439">
        <ele>592.824</ele>
        <time>2013-05-08T16:23:33Z</time>
      </trkpt>
      <trkpt lat="41.37735" lon="-1.64393">
        <ele>592.331</ele>
        <time>2013-05-08T16:23:27Z</time>
      </trkpt>
      <trkpt lat="41.37767" lon="-1.64394">
        <ele>591.488</ele>
        <time>2013-05-08T16:23:13Z</time>
      </trkpt>
      <trkpt lat="41.37796" lon="-1.64392">
        <ele>590.426</ele>
        <time>2013-05-08T16:23:02Z</time>
      </trkpt>
      <trkpt lat="41.37839" lon="-1.64389">
        <ele>589.999</ele>
        <time>2013-05-08T16:22:49Z</time>
      </trkpt>
      <trkpt lat="41.37896" lon="-1.64393">
        <ele>589.464</ele>
        <time>2013-05-08T16:22:32Z</time>
      </trkpt>
      <trkpt lat="41.3794" lon="-1.64406">
        <ele>588.006</ele>
        <time>2013-05-08T16:22:18Z</time>
      </trkpt>
      <trkpt lat="41.37987" lon="-1.64425">
        <ele>587.516</ele>
        <time>2013-05-08T16:22:03Z</time>
      </trkpt>
      <trkpt lat="41.38039" lon="-1.64438">
        <ele>586.108</ele>
        <time>2013-05-08T16:21:46Z</time>
      </trkpt>
      <trkpt lat="41.38082" lon="-1.64446">
        <ele>584.157</ele>
        <time>2013-05-08T16:21:30Z</time>
      </trkpt>
      <trkpt lat="41.38118" lon="-1.64449">
        <ele>582.718</ele>
        <time>2013-05-08T16:21:16Z</time>
      </trkpt>
      <trkpt lat="41.38146" lon="-1.64449">
        <ele>581.37</ele>
        <time>2013-05-08T16:21:04Z</time>
      </trkpt>
      <trkpt lat="41.38179" lon="-1.64456">
        <ele>579.885</ele>
        <time>2013-05-08T16:20:50Z</time>
      </trkpt>
      <trkpt lat="41.3822" lon="-1.6447">
        <ele>578.982</ele>
        <time>2013-05-08T16:20:35Z</time>
      </trkpt>
      <trkpt lat="41.38226" lon="-1.64471">
        <ele>577.439</ele>
        <time>2013-05-08T16:20:33Z</time>
      </trkpt>
      <trkpt lat="41.38271" lon="-1.64489">
        <ele>576.517</ele>
        <time>2013-05-08T16:20:16Z</time>
      </trkpt>
      <trkpt lat="41.38303" lon="-1.64504">
        <ele>575.07</ele>
        <time>2013-05-08T16:20:04Z</time>
      </trkpt>
      <trkpt lat="41.38339" lon="-1.64505">
        <ele>574.082</ele>
        <time>2013-05-08T16:19:51Z</time>
      </trkpt>
      <trkpt lat="41.38381" lon="-1.64498">
        <ele>573.143</ele>
        <time>2013-05-08T16:19:37Z</time>
      </trkpt>
      <trkpt lat="41.38401" lon="-1.64478">
        <ele>572.117</ele>
        <time>2013-05-08T16:19:29Z</time>
      </trkpt>
      <trkpt lat="41.38414" lon="-1.64444">
        <ele>570.708</ele>
        <time>2013-05-08T16:19:19Z</time>
      </trkpt>
      <trkpt lat="41.38464" lon="-1.64412">
        <ele>570.299</ele>
        <time>2013-05-08T16:19:02Z</time>
      </trkpt>
      <trkpt lat="41.38498" lon="-1.64385">
        <ele>569.28</ele>
        <time>2013-05-08T16:18:49Z</time>
      </trkpt>
      <trkpt lat="41.38535" lon="-1.64346">
        <ele>568.372</ele>
        <time>2013-05-08T16:18:35Z</time>
      </trkpt>
      <trkpt lat="41.38569" lon="-1.643">
        <ele>567.397</ele>
        <time>2013-05-08T16:18:21Z</time>
      </trkpt>
      <trkpt lat="41.38598" lon="-1.64261">
        <ele>565.984</ele>
        <time>2013-05-08T16:18:10Z</time>
      </trkpt>
      <trkpt lat="41.38612" lon="-1.64249">
        <ele>565.921</ele>
        <time>2013-05-08T16:18:06Z</time>
      </trkpt>
      <trkpt lat="41.38648" lon="-1.64237">
        <ele>565.929</ele>
        <time>2013-05-08T16:17:56Z</time>
      </trkpt>
      <trkpt lat="41.38652" lon="-1.64237">
        <ele>565.982</ele>
        <time>2013-05-08T16:17:55Z</time>
      </trkpt>
      <trkpt lat="41.38656" lon="-1.64238">
        <ele>565.954</ele>
        <time>2013-05-08T16:17:54Z</time>
      </trkpt>
      <trkpt lat="41.38659" lon="-1.6424">
        <ele>565.956</ele>
        <time>2013-05-08T16:17:53Z</time>
      </trkpt>
      <trkpt lat="41.38662" lon="-1.64244">
        <ele>565.911</ele>
        <time>2013-05-08T16:17:52Z</time>
      </trkpt>
      <trkpt lat="41.38665" lon="-1.64248">
        <ele>566.408</ele>
        <time>2013-05-08T16:17:51Z</time>
      </trkpt>
      <trkpt lat="41.38667" lon="-1.64253">
        <ele>566.446</ele>
        <time>2013-05-08T16:17:50Z</time>
      </trkpt>
      <trkpt lat="41.38673" lon="-1.64273">
        <ele>566.827</ele>
        <time>2013-05-08T16:17:46Z</time>
      </trkpt>
      <trkpt lat="41.38689" lon="-1.64335">
        <ele>566.869</ele>
        <time>2013-05-08T16:17:32Z</time>
      </trkpt>
      <trkpt lat="41.38703" lon="-1.64398">
        <ele>567.314</ele>
        <time>2013-05-08T16:17:18Z</time>
      </trkpt>
      <trkpt lat="41.38716" lon="-1.64456">
        <ele>568.811</ele>
        <time>2013-05-08T16:17:05Z</time>
      </trkpt>
      <trkpt lat="41.38732" lon="-1.64515">
        <ele>568.848</ele>
        <time>2013-05-08T16:16:50Z</time>
      </trkpt>
      <trkpt lat="41.38747" lon="-1.64562">
        <ele>568.846</ele>
        <time>2013-05-08T16:16:38Z</time>
      </trkpt>
      <trkpt lat="41.38762" lon="-1.6459">
        <ele>567.319</ele>
        <time>2013-05-08T16:16:26Z</time>
      </trkpt>
      <trkpt lat="41.38767" lon="-1.64598">
        <ele>567.359</ele>
        <time>2013-05-08T16:15:51Z</time>
      </trkpt>
      <trkpt lat="41.38767" lon="-1.64596">
        <ele>567.303</ele>
        <time>2013-05-08T16:15:13Z</time>
      </trkpt>
      <trkpt lat="41.38767" lon="-1.64595">
        <ele>567.823</ele>
        <time>2013-05-08T16:14:36Z</time>
      </trkpt>
      <trkpt lat="41.38768" lon="-1.64599">
        <ele>567.808</ele>
        <time>2013-05-08T16:14:06Z</time>
      </trkpt>
      <trkpt lat="41.38768" lon="-1.64599">
        <ele>568.316</ele>
        <time>2013-05-08T16:13:01Z</time>
      </trkpt>
      <trkpt lat="41.38767" lon="-1.64598">
        <ele>568.877</ele>
        <time>2013-05-08T16:12:30Z</time>
      </trkpt>
      <trkpt lat="41.38767" lon="-1.64599">
        <ele>568.839</ele>
        <time>2013-05-08T16:11:51Z</time>
      </trkpt>
      <trkpt lat="41.38767" lon="-1.64599">
        <ele>569.244</ele>
        <time>2013-05-08T16:10:37Z</time>
      </trkpt>
      <trkpt lat="41.38768" lon="-1.64597">
        <ele>569.221</ele>
        <time>2013-05-08T16:09:24Z</time>
      </trkpt>
      <trkpt lat="41.38767" lon="-1.64599">
        <ele>569.248</ele>
        <time>2013-05-08T16:08:55Z</time>
      </trkpt>
      <trkpt lat="41.38768" lon="-1.64599">
        <ele>569.216</ele>
        <time>2013-05-08T16:08:24Z</time>
      </trkpt>
      <trkpt lat="41.38771" lon="-1.646">
        <ele>569.269</ele>
        <time>2013-05-08T16:08:13Z</time>
      </trkpt>
      <trkpt lat="41.38779" lon="-1.64604">
        <ele>569.277</ele>
        <time>2013-05-08T16:08:01Z</time>
      </trkpt>
      <trkpt lat="41.38781" lon="-1.64605">
        <ele>569.261</ele>
        <time>2013-05-08T16:07:32Z</time>
      </trkpt>
      <trkpt lat="41.38782" lon="-1.64607">
        <ele>569.227</ele>
        <time>2013-05-08T16:07:20Z</time>
      </trkpt>
      <trkpt lat="41.38785" lon="-1.64608">
        <ele>569.208</ele>
        <time>2013-05-08T16:07:08Z</time>
      </trkpt>
      <trkpt lat="41.38787" lon="-1.6461">
        <ele>569.278</ele>
        <time>2013-05-08T16:06:57Z</time>
      </trkpt>
      <trkpt lat="41.38788" lon="-1.64611">
        <ele>569.269</ele>
        <time>2013-05-08T16:06:42Z</time>
      </trkpt>
      <trkpt lat="41.3879" lon="-1.64614">
        <ele>569.251</ele>
        <time>2013-05-08T16:06:32Z</time>
      </trkpt>
      <trkpt lat="41.38792" lon="-1.64616">
        <ele>569.226</ele>
        <time>2013-05-08T16:06:23Z</time>
      </trkpt>
      <trkpt lat="41.38794" lon="-1.64617">
        <ele>569.213</ele>
        <time>2013-05-08T16:06:10Z</time>
      </trkpt>
      <trkpt lat="41.38794" lon="-1.64616">
        <ele>569.21</ele>
        <time>2013-05-08T16:05:14Z</time>
      </trkpt>
      <trkpt lat="41.38793" lon="-1.64617">
        <ele>569.258</ele>
        <time>2013-05-08T16:04:39Z</time>
      </trkpt>
      <trkpt lat="41.38793" lon="-1.64619">
        <ele>569.721</ele>
        <time>2013-05-08T16:04:05Z</time>
      </trkpt>
      <trkpt lat="41.38792" lon="-1.64621">
        <ele>569.725</ele>
        <time>2013-05-08T16:03:51Z</time>
      </trkpt>
      <trkpt lat="41.38794" lon="-1.64624">
        <ele>570.726</ele>
        <time>2013-05-08T16:03:42Z</time>
      </trkpt>
      <trkpt lat="41.388" lon="-1.64655">
        <ele>572.608</ele>
        <time>2013-05-08T16:03:35Z</time>
      </trkpt>
      <trkpt lat="41.38801" lon="-1.64661">
        <ele>572.608</ele>
        <time>2013-05-08T16:03:34Z</time>
      </trkpt>
      <trkpt lat="41.38803" lon="-1.64668">
        <ele>572.663</ele>
        <time>2013-05-08T16:03:33Z</time>
      </trkpt>
      <trkpt lat="41.38823" lon="-1.64718">
        <ele>573.634</ele>
        <time>2013-05-08T16:03:24Z</time>
      </trkpt>
      <trkpt lat="41.38826" lon="-1.64729">
        <ele>573.696</ele>
        <time>2013-05-08T16:03:22Z</time>
      </trkpt>
      <trkpt lat="41.38833" lon="-1.6478">
        <ele>574.061</ele>
        <time>2013-05-08T16:03:14Z</time>
      </trkpt>
      <trkpt lat="41.38856" lon="-1.64854">
        <ele>574.558</ele>
        <time>2013-05-08T16:03:01Z</time>
      </trkpt>
      <trkpt lat="41.38866" lon="-1.64875">
        <ele>574.545</ele>
        <time>2013-05-08T16:02:57Z</time>
      </trkpt>
      <trkpt lat="41.38893" lon="-1.64898">
        <ele>575.513</ele>
        <time>2013-05-08T16:02:50Z</time>
      </trkpt>
      <trkpt lat="41.38897" lon="-1.64901">
        <ele>575.536</ele>
        <time>2013-05-08T16:02:49Z</time>
      </trkpt>
      <trkpt lat="41.38922" lon="-1.64939">
        <ele>576.026</ele>
        <time>2013-05-08T16:02:40Z</time>
      </trkpt>
      <trkpt lat="41.38925" lon="-1.64942">
        <ele>576.047</ele>
        <time>2013-05-08T16:02:39Z</time>
      </trkpt>
      <trkpt lat="41.38927" lon="-1.64945">
        <ele>576.011</ele>
        <time>2013-05-08T16:02:38Z</time>
      </trkpt>
      <trkpt lat="41.3893" lon="-1.64949">
        <ele>576.008</ele>
        <time>2013-05-08T16:02:37Z</time>
      </trkpt>
      <trkpt lat="41.38933" lon="-1.64953">
        <ele>576.053</ele>
        <time>2013-05-08T16:02:36Z</time>
      </trkpt>
      <trkpt lat="41.38958" lon="-1.64988">
        <ele>576.954</ele>
        <time>2013-05-08T16:02:27Z</time>
      </trkpt>
      <trkpt lat="41.38985" lon="-1.65027">
        <ele>576.976</ele>
        <time>2013-05-08T16:02:17Z</time>
      </trkpt>
      <trkpt lat="41.38988" lon="-1.65032">
        <ele>576.991</ele>
        <time>2013-05-08T16:02:16Z</time>
      </trkpt>
      <trkpt lat="41.38996" lon="-1.6504">
        <ele>576.968</ele>
        <time>2013-05-08T16:02:14Z</time>
      </trkpt>
      <trkpt lat="41.39005" lon="-1.65053">
        <ele>576.935</ele>
        <time>2013-05-08T16:02:11Z</time>
      </trkpt>
      <trkpt lat="41.39021" lon="-1.65082">
        <ele>576.993</ele>
        <time>2013-05-08T16:02:02Z</time>
      </trkpt>
      <trkpt lat="41.39035" lon="-1.65116">
        <ele>577.416</ele>
        <time>2013-05-08T16:01:54Z</time>
      </trkpt>
      <trkpt lat="41.39036" lon="-1.65118">
        <ele>577.442</ele>
        <time>2013-05-08T16:01:53Z</time>
      </trkpt>
      <trkpt lat="41.39036" lon="-1.6512">
        <ele>577.422</ele>
        <time>2013-05-08T16:01:52Z</time>
      </trkpt>
      <trkpt lat="41.39037" lon="-1.65123">
        <ele>577.414</ele>
        <time>2013-05-08T16:01:35Z</time>
      </trkpt>
      <trkpt lat="41.39039" lon="-1.65123">
        <ele>577.408</ele>
        <time>2013-05-08T16:01:27Z</time>
      </trkpt>
      <trkpt lat="41.3904" lon="-1.65124">
        <ele>577.915</ele>
        <time>2013-05-08T16:01:26Z</time>
      </trkpt>
      <trkpt lat="41.39041" lon="-1.65126">
        <ele>577.956</ele>
        <time>2013-05-08T16:01:25Z</time>
      </trkpt>
      <trkpt lat="41.39043" lon="-1.65127">
        <ele>577.978</ele>
        <time>2013-05-08T16:01:24Z</time>
      </trkpt>
      <trkpt lat="41.39046" lon="-1.65127">
        <ele>577.983</ele>
        <time>2013-05-08T16:01:23Z</time>
      </trkpt>
      <trkpt lat="41.3905" lon="-1.65127">
        <ele>577.95</ele>
        <time>2013-05-08T16:01:22Z</time>
      </trkpt>
      <trkpt lat="41.39054" lon="-1.65127">
        <ele>578.427</ele>
        <time>2013-05-08T16:01:21Z</time>
      </trkpt>
      <trkpt lat="41.39058" lon="-1.65127">
        <ele>578.475</ele>
        <time>2013-05-08T16:01:20Z</time>
      </trkpt>
      <trkpt lat="41.39084" lon="-1.65115">
        <ele>579.338</ele>
        <time>2013-05-08T16:01:15Z</time>
      </trkpt>
      <trkpt lat="41.39115" lon="-1.65088">
        <ele>580.831</ele>
        <time>2013-05-08T16:01:08Z</time>
      </trkpt>
      <trkpt lat="41.39141" lon="-1.65063">
        <ele>582.761</ele>
        <time>2013-05-08T16:01:00Z</time>
      </trkpt>
      <trkpt lat="41.39146" lon="-1.65061">
        <ele>583.207</ele>
        <time>2013-05-08T16:00:53Z</time>
      </trkpt>
      <trkpt lat="41.3917" lon="-1.65048">
        <ele>584.108</ele>
        <time>2013-05-08T16:00:46Z</time>
      </trkpt>
      <trkpt lat="41.39223" lon="-1.65021">
        <ele>585.614</ele>
        <time>2013-05-08T16:00:35Z</time>
      </trkpt>
      <trkpt lat="41.39227" lon="-1.6502">
        <ele>585.645</ele>
        <time>2013-05-08T16:00:34Z</time>
      </trkpt>
      <trkpt lat="41.39231" lon="-1.6502">
        <ele>585.637</ele>
        <time>2013-05-08T16:00:33Z</time>
      </trkpt>
      <trkpt lat="41.39239" lon="-1.65034">
        <ele>585.622</ele>
        <time>2013-05-08T16:00:29Z</time>
      </trkpt>
      <trkpt lat="41.3927" lon="-1.65089">
        <ele>585.619</ele>
        <time>2013-05-08T16:00:16Z</time>
      </trkpt>
      <trkpt lat="41.39295" lon="-1.6515">
        <ele>585.636</ele>
        <time>2013-05-08T16:00:03Z</time>
      </trkpt>
      <trkpt lat="41.39297" lon="-1.65155">
        <ele>585.664</ele>
        <time>2013-05-08T16:00:02Z</time>
      </trkpt>
      <trkpt lat="41.39307" lon="-1.65179">
        <ele>585.617</ele>
        <time>2013-05-08T15:59:57Z</time>
      </trkpt>
      <trkpt lat="41.39319" lon="-1.65212">
        <ele>586.132</ele>
        <time>2013-05-08T15:59:51Z</time>
      </trkpt>
      <trkpt lat="41.39322" lon="-1.65218">
        <ele>586.192</ele>
        <time>2013-05-08T15:59:50Z</time>
      </trkpt>
      <trkpt lat="41.39339" lon="-1.65253">
        <ele>586.511</ele>
        <time>2013-05-08T15:59:44Z</time>
      </trkpt>
      <trkpt lat="41.39384" lon="-1.65305">
        <ele>588.008</ele>
        <time>2013-05-08T15:59:32Z</time>
      </trkpt>
      <trkpt lat="41.3942" lon="-1.65339">
        <ele>588.074</ele>
        <time>2013-05-08T15:59:21Z</time>
      </trkpt>
      <trkpt lat="41.39423" lon="-1.65342">
        <ele>588.075</ele>
        <time>2013-05-08T15:59:20Z</time>
      </trkpt>
      <trkpt lat="41.39453" lon="-1.65374">
        <ele>589.067</ele>
        <time>2013-05-08T15:59:10Z</time>
      </trkpt>
      <trkpt lat="41.39472" lon="-1.65406">
        <ele>589.062</ele>
        <time>2013-05-08T15:59:01Z</time>
      </trkpt>
      <trkpt lat="41.39476" lon="-1.65442">
        <ele>589.099</ele>
        <time>2013-05-08T15:58:52Z</time>
      </trkpt>
      <trkpt lat="41.39495" lon="-1.65467">
        <ele>590.416</ele>
        <time>2013-05-08T15:58:43Z</time>
      </trkpt>
      <trkpt lat="41.395" lon="-1.6547">
        <ele>591.814</ele>
        <time>2013-05-08T15:58:41Z</time>
      </trkpt>
      <trkpt lat="41.39506" lon="-1.65472">
        <ele>591.877</ele>
        <time>2013-05-08T15:58:22Z</time>
      </trkpt>
      <trkpt lat="41.39507" lon="-1.65472">
        <ele>591.823</ele>
        <time>2013-05-08T15:58:12Z</time>
      </trkpt>
      <trkpt lat="41.39531" lon="-1.65485">
        <ele>591.883</ele>
        <time>2013-05-08T15:58:02Z</time>
      </trkpt>
      <trkpt lat="41.39566" lon="-1.65508">
        <ele>591.811</ele>
        <time>2013-05-08T15:57:50Z</time>
      </trkpt>
      <trkpt lat="41.39593" lon="-1.65527">
        <ele>590.908</ele>
        <time>2013-05-08T15:57:38Z</time>
      </trkpt>
      <trkpt lat="41.39622" lon="-1.65546">
        <ele>590.493</ele>
        <time>2013-05-08T15:57:28Z</time>
      </trkpt>
      <trkpt lat="41.39647" lon="-1.65562">
        <ele>589.434</ele>
        <time>2013-05-08T15:57:19Z</time>
      </trkpt>
      <trkpt lat="41.39669" lon="-1.65579">
        <ele>590.986</ele>
        <time>2013-05-08T15:57:12Z</time>
      </trkpt>
      <trkpt lat="41.39672" lon="-1.65583">
        <ele>590.911</ele>
        <time>2013-05-08T15:57:11Z</time>
      </trkpt>
      <trkpt lat="41.39675" lon="-1.65588">
        <ele>590.938</ele>
        <time>2013-05-08T15:57:10Z</time>
      </trkpt>
      <trkpt lat="41.39715" lon="-1.65626">
        <ele>591.875</ele>
        <time>2013-05-08T15:57:01Z</time>
      </trkpt>
      <trkpt lat="41.39757" lon="-1.65671">
        <ele>593.873</ele>
        <time>2013-05-08T15:56:51Z</time>
      </trkpt>
      <trkpt lat="41.39763" lon="-1.6568">
        <ele>593.816</ele>
        <time>2013-05-08T15:56:49Z</time>
      </trkpt>
      <trkpt lat="41.3977" lon="-1.6569">
        <ele>593.843</ele>
        <time>2013-05-08T15:56:47Z</time>
      </trkpt>
      <trkpt lat="41.39807" lon="-1.65737">
        <ele>594.764</ele>
        <time>2013-05-08T15:56:38Z</time>
      </trkpt>
      <trkpt lat="41.39861" lon="-1.65805">
        <ele>596.61</ele>
        <time>2013-05-08T15:56:26Z</time>
      </trkpt>
      <trkpt lat="41.39865" lon="-1.65811">
        <ele>597.108</ele>
        <time>2013-05-08T15:56:25Z</time>
      </trkpt>
      <trkpt lat="41.39869" lon="-1.65816">
        <ele>597.675</ele>
        <time>2013-05-08T15:56:24Z</time>
      </trkpt>
      <trkpt lat="41.39873" lon="-1.6582">
        <ele>597.686</ele>
        <time>2013-05-08T15:56:23Z</time>
      </trkpt>
      <trkpt lat="41.39877" lon="-1.65824">
        <ele>598.188</ele>
        <time>2013-05-08T15:56:22Z</time>
      </trkpt>
      <trkpt lat="41.39881" lon="-1.65826">
        <ele>599.023</ele>
        <time>2013-05-08T15:56:21Z</time>
      </trkpt>
      <trkpt lat="41.39885" lon="-1.65827">
        <ele>599.59</ele>
        <time>2013-05-08T15:56:20Z</time>
      </trkpt>
      <trkpt lat="41.39909" lon="-1.65815">
        <ele>602.997</ele>
        <time>2013-05-08T15:56:13Z</time>
      </trkpt>
      <trkpt lat="41.39942" lon="-1.65788">
        <ele>606.365</ele>
        <time>2013-05-08T15:56:06Z</time>
      </trkpt>
      <trkpt lat="41.39947" lon="-1.65785">
        <ele>606.388</ele>
        <time>2013-05-08T15:56:05Z</time>
      </trkpt>
      <trkpt lat="41.39958" lon="-1.65775">
        <ele>608.214</ele>
        <time>2013-05-08T15:56:02Z</time>
      </trkpt>
      <trkpt lat="41.39969" lon="-1.65762">
        <ele>609.654</ele>
        <time>2013-05-08T15:55:59Z</time>
      </trkpt>
      <trkpt lat="41.39983" lon="-1.65733">
        <ele>612.509</ele>
        <time>2013-05-08T15:55:52Z</time>
      </trkpt>
      <trkpt lat="41.39987" lon="-1.65721">
        <ele>613.908</ele>
        <time>2013-05-08T15:55:49Z</time>
      </trkpt>
      <trkpt lat="41.40015" lon="-1.65694">
        <ele>611.592</ele>
        <time>2013-05-08T15:55:38Z</time>
      </trkpt>
      <trkpt lat="41.40053" lon="-1.65673">
        <ele>611.553</ele>
        <time>2013-05-08T15:55:30Z</time>
      </trkpt>
      <trkpt lat="41.40058" lon="-1.65671">
        <ele>611.565</ele>
        <time>2013-05-08T15:55:29Z</time>
      </trkpt>
      <trkpt lat="41.40064" lon="-1.6567">
        <ele>612.09</ele>
        <time>2013-05-08T15:55:28Z</time>
      </trkpt>
      <trkpt lat="41.40098" lon="-1.6567">
        <ele>613.067</ele>
        <time>2013-05-08T15:55:22Z</time>
      </trkpt>
      <trkpt lat="41.40149" lon="-1.65667">
        <ele>616.384</ele>
        <time>2013-05-08T15:55:13Z</time>
      </trkpt>
      <trkpt lat="41.40153" lon="-1.65668">
        <ele>616.892</ele>
        <time>2013-05-08T15:55:12Z</time>
      </trkpt>
      <trkpt lat="41.40162" lon="-1.6567">
        <ele>617.825</ele>
        <time>2013-05-08T15:55:10Z</time>
      </trkpt>
      <trkpt lat="41.40166" lon="-1.65671">
        <ele>617.857</ele>
        <time>2013-05-08T15:55:09Z</time>
      </trkpt>
      <trkpt lat="41.4017" lon="-1.65671">
        <ele>618.3</ele>
        <time>2013-05-08T15:55:08Z</time>
      </trkpt>
      <trkpt lat="41.40174" lon="-1.65671">
        <ele>618.82</ele>
        <time>2013-05-08T15:55:07Z</time>
      </trkpt>
      <trkpt lat="41.40178" lon="-1.65671">
        <ele>619.208</ele>
        <time>2013-05-08T15:55:06Z</time>
      </trkpt>
      <trkpt lat="41.40182" lon="-1.6567">
        <ele>619.726</ele>
        <time>2013-05-08T15:55:05Z</time>
      </trkpt>
      <trkpt lat="41.40186" lon="-1.65668">
        <ele>619.737</ele>
        <time>2013-05-08T15:55:04Z</time>
      </trkpt>
      <trkpt lat="41.4019" lon="-1.65667">
        <ele>619.729</ele>
        <time>2013-05-08T15:55:03Z</time>
      </trkpt>
      <trkpt lat="41.40194" lon="-1.65666">
        <ele>620.234</ele>
        <time>2013-05-08T15:55:02Z</time>
      </trkpt>
      <trkpt lat="41.402" lon="-1.65663">
        <ele>620.271</ele>
        <time>2013-05-08T15:55:01Z</time>
      </trkpt>
      <trkpt lat="41.40205" lon="-1.6566">
        <ele>620.238</ele>
        <time>2013-05-08T15:55:00Z</time>
      </trkpt>
      <trkpt lat="41.4021" lon="-1.65656">
        <ele>621.286</ele>
        <time>2013-05-08T15:54:59Z</time>
      </trkpt>
      <trkpt lat="41.40215" lon="-1.65652">
        <ele>621.299</ele>
        <time>2013-05-08T15:54:58Z</time>
      </trkpt>
      <trkpt lat="41.40221" lon="-1.65649">
        <ele>621.265</ele>
        <time>2013-05-08T15:54:57Z</time>
      </trkpt>
      <trkpt lat="41.40226" lon="-1.65646">
        <ele>621.668</ele>
        <time>2013-05-08T15:54:56Z</time>
      </trkpt>
      <trkpt lat="41.40231" lon="-1.65647">
        <ele>621.614</ele>
        <time>2013-05-08T15:54:55Z</time>
      </trkpt>
      <trkpt lat="41.40237" lon="-1.65648">
        <ele>622.108</ele>
        <time>2013-05-08T15:54:54Z</time>
      </trkpt>
      <trkpt lat="41.40241" lon="-1.6565">
        <ele>622.647</ele>
        <time>2013-05-08T15:54:53Z</time>
      </trkpt>
      <trkpt lat="41.40245" lon="-1.65652">
        <ele>623.688</ele>
        <time>2013-05-08T15:54:52Z</time>
      </trkpt>
      <trkpt lat="41.40249" lon="-1.65655">
        <ele>623.63</ele>
        <time>2013-05-08T15:54:51Z</time>
      </trkpt>
      <trkpt lat="41.40252" lon="-1.65658">
        <ele>623.685</ele>
        <time>2013-05-08T15:54:50Z</time>
      </trkpt>
      <trkpt lat="41.40256" lon="-1.65661">
        <ele>623.622</ele>
        <time>2013-05-08T15:54:49Z</time>
      </trkpt>
      <trkpt lat="41.40261" lon="-1.65662">
        <ele>623.629</ele>
        <time>2013-05-08T15:54:48Z</time>
      </trkpt>
      <trkpt lat="41.40265" lon="-1.65663">
        <ele>623.637</ele>
        <time>2013-05-08T15:54:47Z</time>
      </trkpt>
      <trkpt lat="41.4027" lon="-1.65662">
        <ele>623.66</ele>
        <time>2013-05-08T15:54:46Z</time>
      </trkpt>
      <trkpt lat="41.40275" lon="-1.65661">
        <ele>623.687</ele>
        <time>2013-05-08T15:54:45Z</time>
      </trkpt>
      <trkpt lat="41.4028" lon="-1.65658">
        <ele>623.642</ele>
        <time>2013-05-08T15:54:44Z</time>
      </trkpt>
      <trkpt lat="41.40286" lon="-1.65655">
        <ele>623.626</ele>
        <time>2013-05-08T15:54:43Z</time>
      </trkpt>
      <trkpt lat="41.40291" lon="-1.65652">
        <ele>624.008</ele>
        <time>2013-05-08T15:54:42Z</time>
      </trkpt>
      <trkpt lat="41.40296" lon="-1.65648">
        <ele>624.569</ele>
        <time>2013-05-08T15:54:41Z</time>
      </trkpt>
      <trkpt lat="41.40301" lon="-1.65645">
        <ele>625.57</ele>
        <time>2013-05-08T15:54:40Z</time>
      </trkpt>
      <trkpt lat="41.40305" lon="-1.65643">
        <ele>625.562</ele>
        <time>2013-05-08T15:54:39Z</time>
      </trkpt>
      <trkpt lat="41.40331" lon="-1.65645">
        <ele>627.447</ele>
        <time>2013-05-08T15:54:32Z</time>
      </trkpt>
      <trkpt lat="41.40357" lon="-1.6566">
        <ele>628.474</ele>
        <time>2013-05-08T15:54:25Z</time>
      </trkpt>
      <trkpt lat="41.40361" lon="-1.65662">
        <ele>628.471</ele>
        <time>2013-05-08T15:54:24Z</time>
      </trkpt>
      <trkpt lat="41.40364" lon="-1.65665">
        <ele>628.419</ele>
        <time>2013-05-08T15:54:23Z</time>
      </trkpt>
      <trkpt lat="41.4037" lon="-1.65671">
        <ele>628.462</ele>
        <time>2013-05-08T15:54:21Z</time>
      </trkpt>
      <trkpt lat="41.404" lon="-1.65697">
        <ele>628.882</ele>
        <time>2013-05-08T15:54:10Z</time>
      </trkpt>
      <trkpt lat="41.40434" lon="-1.65696">
        <ele>628.443</ele>
        <time>2013-05-08T15:53:59Z</time>
      </trkpt>
      <trkpt lat="41.40471" lon="-1.65682">
        <ele>628.417</ele>
        <time>2013-05-08T15:53:48Z</time>
      </trkpt>
      <trkpt lat="41.40496" lon="-1.65686">
        <ele>626.908</ele>
        <time>2013-05-08T15:53:41Z</time>
      </trkpt>
      <trkpt lat="41.405" lon="-1.65688">
        <ele>626.939</ele>
        <time>2013-05-08T15:53:40Z</time>
      </trkpt>
      <trkpt lat="41.40519" lon="-1.65704">
        <ele>627.44</ele>
        <time>2013-05-08T15:53:36Z</time>
      </trkpt>
      <trkpt lat="41.40524" lon="-1.65708">
        <ele>627.412</ele>
        <time>2013-05-08T15:53:35Z</time>
      </trkpt>
      <trkpt lat="41.40529" lon="-1.6571">
        <ele>627.487</ele>
        <time>2013-05-08T15:53:34Z</time>
      </trkpt>
      <trkpt lat="41.40541" lon="-1.65713">
        <ele>627.924</ele>
        <time>2013-05-08T15:53:32Z</time>
      </trkpt>
      <trkpt lat="41.40546" lon="-1.65715">
        <ele>627.961</ele>
        <time>2013-05-08T15:53:31Z</time>
      </trkpt>
      <trkpt lat="41.40551" lon="-1.65717">
        <ele>628.489</ele>
        <time>2013-05-08T15:53:30Z</time>
      </trkpt>
      <trkpt lat="41.40556" lon="-1.65718">
        <ele>628.812</ele>
        <time>2013-05-08T15:53:29Z</time>
      </trkpt>
      <trkpt lat="41.40561" lon="-1.65719">
        <ele>629.324</ele>
        <time>2013-05-08T15:53:28Z</time>
      </trkpt>
      <trkpt lat="41.40565" lon="-1.65719">
        <ele>629.304</ele>
        <time>2013-05-08T15:53:27Z</time>
      </trkpt>
      <trkpt lat="41.4057" lon="-1.65717">
        <ele>629.814</ele>
        <time>2013-05-08T15:53:26Z</time>
      </trkpt>
      <trkpt lat="41.40593" lon="-1.65728">
        <ele>631.208</ele>
        <time>2013-05-08T15:53:19Z</time>
      </trkpt>
      <trkpt lat="41.40597" lon="-1.65731">
        <ele>631.773</ele>
        <time>2013-05-08T15:53:18Z</time>
      </trkpt>
      <trkpt lat="41.40601" lon="-1.65735">
        <ele>631.744</ele>
        <time>2013-05-08T15:53:17Z</time>
      </trkpt>
      <trkpt lat="41.40608" lon="-1.6574">
        <ele>631.786</ele>
        <time>2013-05-08T15:53:15Z</time>
      </trkpt>
      <trkpt lat="41.40658" lon="-1.65756">
        <ele>634.131</ele>
        <time>2013-05-08T15:53:05Z</time>
      </trkpt>
      <trkpt lat="41.40674" lon="-1.65764">
        <ele>635.148</ele>
        <time>2013-05-08T15:53:01Z</time>
      </trkpt>
      <trkpt lat="41.407" lon="-1.65805">
        <ele>637.055</ele>
        <time>2013-05-08T15:52:49Z</time>
      </trkpt>
      <trkpt lat="41.40725" lon="-1.65823">
        <ele>640.413</ele>
        <time>2013-05-08T15:52:40Z</time>
      </trkpt>
      <trkpt lat="41.40728" lon="-1.65825">
        <ele>640.416</ele>
        <time>2013-05-08T15:52:39Z</time>
      </trkpt>
      <trkpt lat="41.40732" lon="-1.65826">
        <ele>640.932</ele>
        <time>2013-05-08T15:52:38Z</time>
      </trkpt>
      <trkpt lat="41.40751" lon="-1.65828">
        <ele>641.392</ele>
        <time>2013-05-08T15:52:34Z</time>
      </trkpt>
      <trkpt lat="41.40771" lon="-1.65832">
        <ele>642.311</ele>
        <time>2013-05-08T15:52:30Z</time>
      </trkpt>
      <trkpt lat="41.40775" lon="-1.65833">
        <ele>642.308</ele>
        <time>2013-05-08T15:52:29Z</time>
      </trkpt>
      <trkpt lat="41.4078" lon="-1.65835">
        <ele>642.354</ele>
        <time>2013-05-08T15:52:28Z</time>
      </trkpt>
      <trkpt lat="41.40784" lon="-1.65837">
        <ele>643.355</ele>
        <time>2013-05-08T15:52:27Z</time>
      </trkpt>
      <trkpt lat="41.40788" lon="-1.65839">
        <ele>643.397</ele>
        <time>2013-05-08T15:52:26Z</time>
      </trkpt>
      <trkpt lat="41.40792" lon="-1.65842">
        <ele>643.372</ele>
        <time>2013-05-08T15:52:25Z</time>
      </trkpt>
      <trkpt lat="41.40811" lon="-1.65865">
        <ele>645.219</ele>
        <time>2013-05-08T15:52:18Z</time>
      </trkpt>
      <trkpt lat="41.40812" lon="-1.65867">
        <ele>645.216</ele>
        <time>2013-05-08T15:52:17Z</time>
      </trkpt>
      <trkpt lat="41.40814" lon="-1.65868">
        <ele>645.244</ele>
        <time>2013-05-08T15:52:16Z</time>
      </trkpt>
      <trkpt lat="41.40816" lon="-1.6587">
        <ele>645.287</ele>
        <time>2013-05-08T15:52:15Z</time>
      </trkpt>
      <trkpt lat="41.40817" lon="-1.65871">
        <ele>645.267</ele>
        <time>2013-05-08T15:52:14Z</time>
      </trkpt>
      <trkpt lat="41.40818" lon="-1.65873">
        <ele>645.281</ele>
        <time>2013-05-08T15:52:05Z</time>
      </trkpt>
      <trkpt lat="41.40817" lon="-1.65871">
        <ele>645.219</ele>
        <time>2013-05-08T15:51:40Z</time>
      </trkpt>
      <trkpt lat="41.40827" lon="-1.65876">
        <ele>645.708</ele>
        <time>2013-05-08T15:51:35Z</time>
      </trkpt>
      <trkpt lat="41.40832" lon="-1.6588">
        <ele>646.697</ele>
        <time>2013-05-08T15:51:34Z</time>
      </trkpt>
      <trkpt lat="41.40837" lon="-1.65883">
        <ele>646.698</ele>
        <time>2013-05-08T15:51:33Z</time>
      </trkpt>
      <trkpt lat="41.40843" lon="-1.65885">
        <ele>646.68</ele>
        <time>2013-05-08T15:51:32Z</time>
      </trkpt>
      <trkpt lat="41.40849" lon="-1.65887">
        <ele>647.625</ele>
        <time>2013-05-08T15:51:31Z</time>
      </trkpt>
      <trkpt lat="41.40855" lon="-1.65887">
        <ele>647.662</ele>
        <time>2013-05-08T15:51:30Z</time>
      </trkpt>
      <trkpt lat="41.40861" lon="-1.65888">
        <ele>647.649</ele>
        <time>2013-05-08T15:51:29Z</time>
      </trkpt>
      <trkpt lat="41.40866" lon="-1.65889">
        <ele>648.117</ele>
        <time>2013-05-08T15:51:28Z</time>
      </trkpt>
      <trkpt lat="41.40871" lon="-1.65891">
        <ele>649.05</ele>
        <time>2013-05-08T15:51:27Z</time>
      </trkpt>
      <trkpt lat="41.4089" lon="-1.65908">
        <ele>650.014</ele>
        <time>2013-05-08T15:51:23Z</time>
      </trkpt>
      <trkpt lat="41.40895" lon="-1.65912">
        <ele>650.054</ele>
        <time>2013-05-08T15:51:22Z</time>
      </trkpt>
      <trkpt lat="41.409" lon="-1.65916">
        <ele>651.009</ele>
        <time>2013-05-08T15:51:21Z</time>
      </trkpt>
      <trkpt lat="41.40906" lon="-1.65919">
        <ele>651.008</ele>
        <time>2013-05-08T15:51:20Z</time>
      </trkpt>
      <trkpt lat="41.40911" lon="-1.65921">
        <ele>651.412</ele>
        <time>2013-05-08T15:51:19Z</time>
      </trkpt>
      <trkpt lat="41.4095" lon="-1.65919">
        <ele>654.383</ele>
        <time>2013-05-08T15:51:11Z</time>
      </trkpt>
      <trkpt lat="41.40955" lon="-1.6592">
        <ele>654.365</ele>
        <time>2013-05-08T15:51:10Z</time>
      </trkpt>
      <trkpt lat="41.4096" lon="-1.6592">
        <ele>654.36</ele>
        <time>2013-05-08T15:51:09Z</time>
      </trkpt>
      <trkpt lat="41.40965" lon="-1.65919">
        <ele>655.347</ele>
        <time>2013-05-08T15:51:08Z</time>
      </trkpt>
      <trkpt lat="41.40969" lon="-1.65918">
        <ele>655.354</ele>
        <time>2013-05-08T15:51:07Z</time>
      </trkpt>
      <trkpt lat="41.40973" lon="-1.65917">
        <ele>655.832</ele>
        <time>2013-05-08T15:51:06Z</time>
      </trkpt>
      <trkpt lat="41.41" lon="-1.65905">
        <ele>657.225</ele>
        <time>2013-05-08T15:50:59Z</time>
      </trkpt>
      <trkpt lat="41.41004" lon="-1.65905">
        <ele>657.262</ele>
        <time>2013-05-08T15:50:58Z</time>
      </trkpt>
      <trkpt lat="41.41008" lon="-1.65905">
        <ele>657.783</ele>
        <time>2013-05-08T15:50:57Z</time>
      </trkpt>
      <trkpt lat="41.41033" lon="-1.65931">
        <ele>659.611</ele>
        <time>2013-05-08T15:50:47Z</time>
      </trkpt>
      <trkpt lat="41.41058" lon="-1.65998">
        <ele>660.608</ele>
        <time>2013-05-08T15:50:33Z</time>
      </trkpt>
      <trkpt lat="41.41062" lon="-1.66015">
        <ele>661.087</ele>
        <time>2013-05-08T15:50:30Z</time>
      </trkpt>
      <trkpt lat="41.41063" lon="-1.66021">
        <ele>661.018</ele>
        <time>2013-05-08T15:50:29Z</time>
      </trkpt>
      <trkpt lat="41.41064" lon="-1.66027">
        <ele>661.02</ele>
        <time>2013-05-08T15:50:28Z</time>
      </trkpt>
      <trkpt lat="41.41077" lon="-1.66052">
        <ele>661.015</ele>
        <time>2013-05-08T15:50:23Z</time>
      </trkpt>
      <trkpt lat="41.41079" lon="-1.66057">
        <ele>661.052</ele>
        <time>2013-05-08T15:50:22Z</time>
      </trkpt>
      <trkpt lat="41.41082" lon="-1.66061">
        <ele>661.089</ele>
        <time>2013-05-08T15:50:21Z</time>
      </trkpt>
      <trkpt lat="41.41122" lon="-1.66099">
        <ele>661.047</ele>
        <time>2013-05-08T15:50:09Z</time>
      </trkpt>
      <trkpt lat="41.41125" lon="-1.66102">
        <ele>661.06</ele>
        <time>2013-05-08T15:50:08Z</time>
      </trkpt>
      <trkpt lat="41.41129" lon="-1.66105">
        <ele>661.045</ele>
        <time>2013-05-08T15:50:07Z</time>
      </trkpt>
      <trkpt lat="41.4114" lon="-1.66111">
        <ele>661.047</ele>
        <time>2013-05-08T15:50:04Z</time>
      </trkpt>
      <trkpt lat="41.41144" lon="-1.66113">
        <ele>661.011</ele>
        <time>2013-05-08T15:50:03Z</time>
      </trkpt>
      <trkpt lat="41.4115" lon="-1.66119">
        <ele>661.008</ele>
        <time>2013-05-08T15:50:01Z</time>
      </trkpt>
      <trkpt lat="41.41153" lon="-1.66123">
        <ele>661.015</ele>
        <time>2013-05-08T15:50:00Z</time>
      </trkpt>
      <trkpt lat="41.41156" lon="-1.66127">
        <ele>661.046</ele>
        <time>2013-05-08T15:49:59Z</time>
      </trkpt>
      <trkpt lat="41.41158" lon="-1.66131">
        <ele>661.028</ele>
        <time>2013-05-08T15:49:58Z</time>
      </trkpt>
      <trkpt lat="41.4116" lon="-1.66135">
        <ele>661.043</ele>
        <time>2013-05-08T15:49:57Z</time>
      </trkpt>
      <trkpt lat="41.41161" lon="-1.6614">
        <ele>661.06</ele>
        <time>2013-05-08T15:49:56Z</time>
      </trkpt>
      <trkpt lat="41.41161" lon="-1.66145">
        <ele>661.077</ele>
        <time>2013-05-08T15:49:55Z</time>
      </trkpt>
      <trkpt lat="41.41161" lon="-1.6615">
        <ele>661.095</ele>
        <time>2013-05-08T15:49:54Z</time>
      </trkpt>
      <trkpt lat="41.4116" lon="-1.66156">
        <ele>661.068</ele>
        <time>2013-05-08T15:49:53Z</time>
      </trkpt>
      <trkpt lat="41.4116" lon="-1.66161">
        <ele>661.077</ele>
        <time>2013-05-08T15:49:52Z</time>
      </trkpt>
      <trkpt lat="41.41162" lon="-1.66183">
        <ele>661.061</ele>
        <time>2013-05-08T15:49:48Z</time>
      </trkpt>
      <trkpt lat="41.41179" lon="-1.66229">
        <ele>660.627</ele>
        <time>2013-05-08T15:49:37Z</time>
      </trkpt>
      <trkpt lat="41.41216" lon="-1.66266">
        <ele>662.008</ele>
        <time>2013-05-08T15:49:27Z</time>
      </trkpt>
      <trkpt lat="41.41217" lon="-1.66274">
        <ele>662.078</ele>
        <time>2013-05-08T15:49:25Z</time>
      </trkpt>
      <trkpt lat="41.41214" lon="-1.66319">
        <ele>661.579</ele>
        <time>2013-05-08T15:49:13Z</time>
      </trkpt>
      <trkpt lat="41.41218" lon="-1.6635">
        <ele>660.651</ele>
        <time>2013-05-08T15:49:00Z</time>
      </trkpt>
      <trkpt lat="41.41218" lon="-1.66352">
        <ele>660.616</ele>
        <time>2013-05-08T15:48:59Z</time>
      </trkpt>
      <trkpt lat="41.41219" lon="-1.66353">
        <ele>660.613</ele>
        <time>2013-05-08T15:48:58Z</time>
      </trkpt>
      <trkpt lat="41.4122" lon="-1.66355">
        <ele>660.65</ele>
        <time>2013-05-08T15:48:57Z</time>
      </trkpt>
      <trkpt lat="41.4122" lon="-1.66357">
        <ele>660.668</ele>
        <time>2013-05-08T15:48:56Z</time>
      </trkpt>
      <trkpt lat="41.41221" lon="-1.66359">
        <ele>660.661</ele>
        <time>2013-05-08T15:48:55Z</time>
      </trkpt>
      <trkpt lat="41.41222" lon="-1.66361">
        <ele>660.195</ele>
        <time>2013-05-08T15:48:54Z</time>
      </trkpt>
      <trkpt lat="41.41222" lon="-1.66363">
        <ele>660.149</ele>
        <time>2013-05-08T15:48:53Z</time>
      </trkpt>
      <trkpt lat="41.41223" lon="-1.66365">
        <ele>660.123</ele>
        <time>2013-05-08T15:48:52Z</time>
      </trkpt>
      <trkpt lat="41.41224" lon="-1.66366">
        <ele>660.108</ele>
        <time>2013-05-08T15:48:51Z</time>
      </trkpt>
      <trkpt lat="41.41225" lon="-1.66367">
        <ele>660.12</ele>
        <time>2013-05-08T15:48:50Z</time>
      </trkpt>
      <trkpt lat="41.41226" lon="-1.66369">
        <ele>659.691</ele>
        <time>2013-05-08T15:48:49Z</time>
      </trkpt>
      <trkpt lat="41.41226" lon="-1.6637">
        <ele>659.663</ele>
        <time>2013-05-08T15:48:48Z</time>
      </trkpt>
      <trkpt lat="41.4123" lon="-1.66373">
        <ele>658.668</ele>
        <time>2013-05-08T15:48:45Z</time>
      </trkpt>
      <trkpt lat="41.41242" lon="-1.66383">
        <ele>655.875</ele>
        <time>2013-05-08T15:48:36Z</time>
      </trkpt>
      <trkpt lat="41.41245" lon="-1.66385">
        <ele>655.832</ele>
        <time>2013-05-08T15:48:35Z</time>
      </trkpt>
      <trkpt lat="41.41248" lon="-1.66388">
        <ele>655.89</ele>
        <time>2013-05-08T15:48:34Z</time>
      </trkpt>
      <trkpt lat="41.4125" lon="-1.66392">
        <ele>655.893</ele>
        <time>2013-05-08T15:48:33Z</time>
      </trkpt>
      <trkpt lat="41.41252" lon="-1.66398">
        <ele>655.819</ele>
        <time>2013-05-08T15:48:32Z</time>
      </trkpt>
      <trkpt lat="41.41252" lon="-1.66404">
        <ele>656.209</ele>
        <time>2013-05-08T15:48:31Z</time>
      </trkpt>
      <trkpt lat="41.41249" lon="-1.66419">
        <ele>656.719</ele>
        <time>2013-05-08T15:48:29Z</time>
      </trkpt>
      <trkpt lat="41.41247" lon="-1.66427">
        <ele>657.208</ele>
        <time>2013-05-08T15:48:28Z</time>
      </trkpt>
      <trkpt lat="41.41243" lon="-1.66434">
        <ele>657.722</ele>
        <time>2013-05-08T15:48:27Z</time>
      </trkpt>
      <trkpt lat="41.4124" lon="-1.66441">
        <ele>658.613</ele>
        <time>2013-05-08T15:48:26Z</time>
      </trkpt>
      <trkpt lat="41.41236" lon="-1.66446">
        <ele>659.635</ele>
        <time>2013-05-08T15:48:25Z</time>
      </trkpt>
      <trkpt lat="41.41234" lon="-1.66451">
        <ele>659.69</ele>
        <time>2013-05-08T15:48:24Z</time>
      </trkpt>
      <trkpt lat="41.41232" lon="-1.66456">
        <ele>660.137</ele>
        <time>2013-05-08T15:48:23Z</time>
      </trkpt>
      <trkpt lat="41.41232" lon="-1.66462">
        <ele>660.164</ele>
        <time>2013-05-08T15:48:22Z</time>
      </trkpt>
      <trkpt lat="41.41251" lon="-1.6652">
        <ele>661.532</ele>
        <time>2013-05-08T15:48:13Z</time>
      </trkpt>
      <trkpt lat="41.41268" lon="-1.6661">
        <ele>663.545</ele>
        <time>2013-05-08T15:48:00Z</time>
      </trkpt>
      <trkpt lat="41.4128" lon="-1.6669">
        <ele>664.942</ele>
        <time>2013-05-08T15:47:48Z</time>
      </trkpt>
      <trkpt lat="41.41282" lon="-1.66724">
        <ele>665.922</ele>
        <time>2013-05-08T15:47:39Z</time>
      </trkpt>
      <trkpt lat="41.41282" lon="-1.66726">
        <ele>665.914</ele>
        <time>2013-05-08T15:47:36Z</time>
      </trkpt>
      <trkpt lat="41.4128" lon="-1.66728">
        <ele>666.808</ele>
        <time>2013-05-08T15:47:20Z</time>
      </trkpt>
      <trkpt lat="41.4128" lon="-1.6673">
        <ele>666.855</ele>
        <time>2013-05-08T15:47:07Z</time>
      </trkpt>
      <trkpt lat="41.4128" lon="-1.66732">
        <ele>666.896</ele>
        <time>2013-05-08T15:47:05Z</time>
      </trkpt>
      <trkpt lat="41.4128" lon="-1.66734">
        <ele>666.878</ele>
        <time>2013-05-08T15:47:04Z</time>
      </trkpt>
      <trkpt lat="41.41279" lon="-1.66735">
        <ele>666.883</ele>
        <time>2013-05-08T15:47:03Z</time>
      </trkpt>
      <trkpt lat="41.41281" lon="-1.66752">
        <ele>666.33</ele>
        <time>2013-05-08T15:46:52Z</time>
      </trkpt>
      <trkpt lat="41.41285" lon="-1.66772">
        <ele>664.417</ele>
        <time>2013-05-08T15:46:40Z</time>
      </trkpt>
      <trkpt lat="41.41288" lon="-1.66798">
        <ele>663.075</ele>
        <time>2013-05-08T15:46:24Z</time>
      </trkpt>
      <trkpt lat="41.41289" lon="-1.66821">
        <ele>661.538</ele>
        <time>2013-05-08T15:46:08Z</time>
      </trkpt>
      <trkpt lat="41.41286" lon="-1.6684">
        <ele>659.612</ele>
        <time>2013-05-08T15:45:54Z</time>
      </trkpt>
      <trkpt lat="41.41283" lon="-1.66855">
        <ele>657.732</ele>
        <time>2013-05-08T15:45:42Z</time>
      </trkpt>
      <trkpt lat="41.41283" lon="-1.66856">
        <ele>657.705</ele>
        <time>2013-05-08T15:45:41Z</time>
      </trkpt>
      <trkpt lat="41.41283" lon="-1.66858">
        <ele>657.208</ele>
        <time>2013-05-08T15:45:40Z</time>
      </trkpt>
      <trkpt lat="41.41283" lon="-1.66859">
        <ele>657.282</ele>
        <time>2013-05-08T15:45:39Z</time>
      </trkpt>
      <trkpt lat="41.41282" lon="-1.66873">
        <ele>655.373</ele>
        <time>2013-05-08T15:45:29Z</time>
      </trkpt>
      <trkpt lat="41.41278" lon="-1.669">
        <ele>653.425</ele>
        <time>2013-05-08T15:45:16Z</time>
      </trkpt>
      <trkpt lat="41.41276" lon="-1.66937">
        <ele>651.04</ele>
        <time>2013-05-08T15:45:00Z</time>
      </trkpt>
      <trkpt lat="41.41268" lon="-1.66971">
        <ele>650.077</ele>
        <time>2013-05-08T15:44:46Z</time>
      </trkpt>
      <trkpt lat="41.41257" lon="-1.66993">
        <ele>648.144</ele>
        <time>2013-05-08T15:44:35Z</time>
      </trkpt>
      <trkpt lat="41.41254" lon="-1.67014">
        <ele>646.672</ele>
        <time>2013-05-08T15:44:27Z</time>
      </trkpt>
      <trkpt lat="41.41257" lon="-1.67047">
        <ele>646.615</ele>
        <time>2013-05-08T15:44:15Z</time>
      </trkpt>
      <trkpt lat="41.41257" lon="-1.67051">
        <ele>647.191</ele>
        <time>2013-05-08T15:44:14Z</time>
      </trkpt>
      <trkpt lat="41.41257" lon="-1.67055">
        <ele>647.181</ele>
        <time>2013-05-08T15:44:13Z</time>
      </trkpt>
      <trkpt lat="41.41258" lon="-1.6706">
        <ele>648.119</ele>
        <time>2013-05-08T15:44:12Z</time>
      </trkpt>
      <trkpt lat="41.41258" lon="-1.67065">
        <ele>648.108</ele>
        <time>2013-05-08T15:44:11Z</time>
      </trkpt>
      <trkpt lat="41.41258" lon="-1.6707">
        <ele>648.18</ele>
        <time>2013-05-08T15:44:10Z</time>
      </trkpt>
      <trkpt lat="41.41241" lon="-1.6708">
        <ele>648.141</ele>
        <time>2013-05-08T15:44:04Z</time>
      </trkpt>
      <trkpt lat="41.41237" lon="-1.6708">
        <ele>648.163</ele>
        <time>2013-05-08T15:44:03Z</time>
      </trkpt>
      <trkpt lat="41.41233" lon="-1.6708">
        <ele>648.148</ele>
        <time>2013-05-08T15:44:02Z</time>
      </trkpt>
      <trkpt lat="41.41229" lon="-1.67081">
        <ele>648.145</ele>
        <time>2013-05-08T15:44:01Z</time>
      </trkpt>
      <trkpt lat="41.41225" lon="-1.67082">
        <ele>648.622</ele>
        <time>2013-05-08T15:44:00Z</time>
      </trkpt>
      <trkpt lat="41.41221" lon="-1.67084">
        <ele>648.62</ele>
        <time>2013-05-08T15:43:59Z</time>
      </trkpt>
      <trkpt lat="41.41205" lon="-1.67095">
        <ele>649.033</ele>
        <time>2013-05-08T15:43:55Z</time>
      </trkpt>
      <trkpt lat="41.41201" lon="-1.67098">
        <ele>649.526</ele>
        <time>2013-05-08T15:43:54Z</time>
      </trkpt>
      <trkpt lat="41.41198" lon="-1.67102">
        <ele>650.047</ele>
        <time>2013-05-08T15:43:53Z</time>
      </trkpt>
      <trkpt lat="41.41196" lon="-1.67106">
        <ele>650.011</ele>
        <time>2013-05-08T15:43:52Z</time>
      </trkpt>
      <trkpt lat="41.41196" lon="-1.6711">
        <ele>650.508</ele>
        <time>2013-05-08T15:43:51Z</time>
      </trkpt>
      <trkpt lat="41.41198" lon="-1.67114">
        <ele>650.553</ele>
        <time>2013-05-08T15:43:50Z</time>
      </trkpt>
      <trkpt lat="41.41222" lon="-1.67114">
        <ele>651.474</ele>
        <time>2013-05-08T15:43:45Z</time>
      </trkpt>
      <trkpt lat="41.41234" lon="-1.6711">
        <ele>652.466</ele>
        <time>2013-05-08T15:43:43Z</time>
      </trkpt>
      <trkpt lat="41.41246" lon="-1.67108">
        <ele>652.981</ele>
        <time>2013-05-08T15:43:41Z</time>
      </trkpt>
      <trkpt lat="41.41259" lon="-1.67111">
        <ele>653.468</ele>
        <time>2013-05-08T15:43:39Z</time>
      </trkpt>
      <trkpt lat="41.41285" lon="-1.67112">
        <ele>654.865</ele>
        <time>2013-05-08T15:43:34Z</time>
      </trkpt>
      <trkpt lat="41.41318" lon="-1.67121">
        <ele>655.323</ele>
        <time>2013-05-08T15:43:27Z</time>
      </trkpt>
      <trkpt lat="41.41327" lon="-1.67124">
        <ele>655.346</ele>
        <time>2013-05-08T15:43:25Z</time>
      </trkpt>
      <trkpt lat="41.41374" lon="-1.67145">
        <ele>655.336</ele>
        <time>2013-05-08T15:43:14Z</time>
      </trkpt>
      <trkpt lat="41.41429" lon="-1.67162">
        <ele>655.317</ele>
        <time>2013-05-08T15:43:01Z</time>
      </trkpt>
      <trkpt lat="41.41476" lon="-1.67193">
        <ele>655.318</ele>
        <time>2013-05-08T15:42:49Z</time>
      </trkpt>
      <trkpt lat="41.41491" lon="-1.67211">
        <ele>655.308</ele>
        <time>2013-05-08T15:42:44Z</time>
      </trkpt>
      <trkpt lat="41.41499" lon="-1.67234">
        <ele>656.264</ele>
        <time>2013-05-08T15:42:40Z</time>
      </trkpt>
      <trkpt lat="41.41501" lon="-1.67251">
        <ele>656.715</ele>
        <time>2013-05-08T15:42:37Z</time>
      </trkpt>
      <trkpt lat="41.41498" lon="-1.67268">
        <ele>657.777</ele>
        <time>2013-05-08T15:42:33Z</time>
      </trkpt>
      <trkpt lat="41.41515" lon="-1.67289">
        <ele>658.672</ele>
        <time>2013-05-08T15:42:26Z</time>
      </trkpt>
      <trkpt lat="41.41521" lon="-1.67293">
        <ele>659.679</ele>
        <time>2013-05-08T15:42:25Z</time>
      </trkpt>
      <trkpt lat="41.41577" lon="-1.67335">
        <ele>663.096</ele>
        <time>2013-05-08T15:42:15Z</time>
      </trkpt>
      <trkpt lat="41.41616" lon="-1.67369">
        <ele>664.974</ele>
        <time>2013-05-08T15:42:08Z</time>
      </trkpt>
      <trkpt lat="41.41622" lon="-1.67374">
        <ele>664.977</ele>
        <time>2013-05-08T15:42:07Z</time>
      </trkpt>
      <trkpt lat="41.41672" lon="-1.67418">
        <ele>668.733</ele>
        <time>2013-05-08T15:41:59Z</time>
      </trkpt>
      <trkpt lat="41.41683" lon="-1.67433">
        <ele>669.723</ele>
        <time>2013-05-08T15:41:57Z</time>
      </trkpt>
      <trkpt lat="41.41724" lon="-1.67493">
        <ele>673.115</ele>
        <time>2013-05-08T15:41:49Z</time>
      </trkpt>
      <trkpt lat="41.41757" lon="-1.67539">
        <ele>676.408</ele>
        <time>2013-05-08T15:41:40Z</time>
      </trkpt>
      <trkpt lat="41.41772" lon="-1.67562">
        <ele>677.434</ele>
        <time>2013-05-08T15:41:35Z</time>
      </trkpt>
      <trkpt lat="41.41783" lon="-1.67565">
        <ele>677.485</ele>
        <time>2013-05-08T15:41:30Z</time>
      </trkpt>
      <trkpt lat="41.41789" lon="-1.67558">
        <ele>677.967</ele>
        <time>2013-05-08T15:41:23Z</time>
      </trkpt>
      <trkpt lat="41.41793" lon="-1.67587">
        <ele>680.892</ele>
        <time>2013-05-08T15:41:17Z</time>
      </trkpt>
      <trkpt lat="41.41797" lon="-1.67606">
        <ele>682.769</ele>
        <time>2013-05-08T15:41:12Z</time>
      </trkpt>
      <trkpt lat="41.41826" lon="-1.67639">
        <ele>685.186</ele>
        <time>2013-05-08T15:41:04Z</time>
      </trkpt>
      <trkpt lat="41.41847" lon="-1.67671">
        <ele>686.084</ele>
        <time>2013-05-08T15:40:57Z</time>
      </trkpt>
      <trkpt lat="41.41853" lon="-1.67676">
        <ele>687.547</ele>
        <time>2013-05-08T15:40:55Z</time>
      </trkpt>
      <trkpt lat="41.41874" lon="-1.67686">
        <ele>687.565</ele>
        <time>2013-05-08T15:40:41Z</time>
      </trkpt>
      <trkpt lat="41.41875" lon="-1.67687">
        <ele>687.568</ele>
        <time>2013-05-08T15:40:21Z</time>
      </trkpt>
      <trkpt lat="41.41875" lon="-1.67686">
        <ele>687.514</ele>
        <time>2013-05-08T15:39:35Z</time>
      </trkpt>
      <trkpt lat="41.41874" lon="-1.67687">
        <ele>687.508</ele>
        <time>2013-05-08T15:38:47Z</time>
      </trkpt>
      <trkpt lat="41.41873" lon="-1.67686">
        <ele>687.557</ele>
        <time>2013-05-08T15:38:20Z</time>
      </trkpt>
      <trkpt lat="41.41874" lon="-1.67688">
        <ele>687.098</ele>
        <time>2013-05-08T15:37:31Z</time>
      </trkpt>
      <trkpt lat="41.41882" lon="-1.67691">
        <ele>687.08</ele>
        <time>2013-05-08T15:37:22Z</time>
      </trkpt>
      <trkpt lat="41.41893" lon="-1.67712">
        <ele>685.165</ele>
        <time>2013-05-08T15:37:10Z</time>
      </trkpt>
      <trkpt lat="41.41906" lon="-1.67726">
        <ele>683.212</ele>
        <time>2013-05-08T15:36:59Z</time>
      </trkpt>
      <trkpt lat="41.41923" lon="-1.67737">
        <ele>682.269</ele>
        <time>2013-05-08T15:36:47Z</time>
      </trkpt>
      <trkpt lat="41.41939" lon="-1.67766">
        <ele>680.357</ele>
        <time>2013-05-08T15:36:30Z</time>
      </trkpt>
      <trkpt lat="41.41957" lon="-1.67785">
        <ele>677.95</ele>
        <time>2013-05-08T15:36:16Z</time>
      </trkpt>
      <trkpt lat="41.41975" lon="-1.67801">
        <ele>676.991</ele>
        <time>2013-05-08T15:36:03Z</time>
      </trkpt>
      <trkpt lat="41.41995" lon="-1.67823">
        <ele>675.981</ele>
        <time>2013-05-08T15:35:50Z</time>
      </trkpt>
      <trkpt lat="41.4202" lon="-1.67844">
        <ele>675.019</ele>
        <time>2013-05-08T15:35:36Z</time>
      </trkpt>
      <trkpt lat="41.42045" lon="-1.67861">
        <ele>674.508</ele>
        <time>2013-05-08T15:35:23Z</time>
      </trkpt>
      <trkpt lat="41.42071" lon="-1.6788">
        <ele>674.59</ele>
        <time>2013-05-08T15:35:10Z</time>
      </trkpt>
      <trkpt lat="41.42097" lon="-1.67898">
        <ele>673.111</ele>
        <time>2013-05-08T15:34:54Z</time>
      </trkpt>
      <trkpt lat="41.42099" lon="-1.67902">
        <ele>673.183</ele>
        <time>2013-05-08T15:34:52Z</time>
      </trkpt>
      <trkpt lat="41.42098" lon="-1.67912">
        <ele>672.158</ele>
        <time>2013-05-08T15:34:47Z</time>
      </trkpt>
      <trkpt lat="41.42084" lon="-1.67917">
        <ele>671.695</ele>
        <time>2013-05-08T15:34:40Z</time>
      </trkpt>
      <trkpt lat="41.42054" lon="-1.67926">
        <ele>671.162</ele>
        <time>2013-05-08T15:34:27Z</time>
      </trkpt>
      <trkpt lat="41.42034" lon="-1.67937">
        <ele>670.23</ele>
        <time>2013-05-08T15:34:16Z</time>
      </trkpt>
      <trkpt lat="41.42006" lon="-1.67948">
        <ele>670.243</ele>
        <time>2013-05-08T15:34:02Z</time>
      </trkpt>
      <trkpt lat="41.41985" lon="-1.67953">
        <ele>669.789</ele>
        <time>2013-05-08T15:33:51Z</time>
      </trkpt>
      <trkpt lat="41.41967" lon="-1.67964">
        <ele>668.706</ele>
        <time>2013-05-08T15:33:39Z</time>
      </trkpt>
      <trkpt lat="41.41952" lon="-1.67972">
        <ele>666.826</ele>
        <time>2013-05-08T15:33:26Z</time>
      </trkpt>
      <trkpt lat="41.41937" lon="-1.67982">
        <ele>665.408</ele>
        <time>2013-05-08T15:33:14Z</time>
      </trkpt>
      <trkpt lat="41.41918" lon="-1.67985">
        <ele>663.589</ele>
        <time>2013-05-08T15:33:01Z</time>
      </trkpt>
      <trkpt lat="41.41909" lon="-1.67985">
        <ele>663.04</ele>
        <time>2013-05-08T15:32:55Z</time>
      </trkpt>
      <trkpt lat="41.41888" lon="-1.67989">
        <ele>661.592</ele>
        <time>2013-05-08T15:32:41Z</time>
      </trkpt>
      <trkpt lat="41.4187" lon="-1.68004">
        <ele>659.627</ele>
        <time>2013-05-08T15:32:28Z</time>
      </trkpt>
      <trkpt lat="41.41865" lon="-1.68011">
        <ele>658.654</ele>
        <time>2013-05-08T15:32:24Z</time>
      </trkpt>
      <trkpt lat="41.41842" lon="-1.68037">
        <ele>658.661</ele>
        <time>2013-05-08T15:32:08Z</time>
      </trkpt>
      <trkpt lat="41.41827" lon="-1.68065">
        <ele>658.649</ele>
        <time>2013-05-08T15:31:54Z</time>
      </trkpt>
      <trkpt lat="41.41824" lon="-1.6808">
        <ele>658.672</ele>
        <time>2013-05-08T15:31:46Z</time>
      </trkpt>
      <trkpt lat="41.41823" lon="-1.68081">
        <ele>659.133</ele>
        <time>2013-05-08T15:31:34Z</time>
      </trkpt>
      <trkpt lat="41.41824" lon="-1.68084">
        <ele>659.123</ele>
        <time>2013-05-08T15:31:05Z</time>
      </trkpt>
      <trkpt lat="41.41824" lon="-1.68082">
        <ele>659.115</ele>
        <time>2013-05-08T15:30:36Z</time>
      </trkpt>
      <trkpt lat="41.41824" lon="-1.68079">
        <ele>659.608</ele>
        <time>2013-05-08T15:30:09Z</time>
      </trkpt>
      <trkpt lat="41.41823" lon="-1.68078">
        <ele>659.654</ele>
        <time>2013-05-08T15:29:37Z</time>
      </trkpt>
      <trkpt lat="41.41825" lon="-1.68077">
        <ele>659.655</ele>
        <time>2013-05-08T15:29:27Z</time>
      </trkpt>
      <trkpt lat="41.41824" lon="-1.68087">
        <ele>659.147</ele>
        <time>2013-05-08T15:29:17Z</time>
      </trkpt>
      <trkpt lat="41.41822" lon="-1.68097">
        <ele>659.612</ele>
        <time>2013-05-08T15:29:10Z</time>
      </trkpt>
      <trkpt lat="41.41824" lon="-1.68106">
        <ele>660.649</ele>
        <time>2013-05-08T15:29:03Z</time>
      </trkpt>
      <trkpt lat="41.41828" lon="-1.68143">
        <ele>663.086</ele>
        <time>2013-05-08T15:28:55Z</time>
      </trkpt>
      <trkpt lat="41.41837" lon="-1.68192">
        <ele>664.474</ele>
        <time>2013-05-08T15:28:46Z</time>
      </trkpt>
      <trkpt lat="41.41837" lon="-1.68204">
        <ele>664.917</ele>
        <time>2013-05-08T15:28:09Z</time>
      </trkpt>
      <trkpt lat="41.4184" lon="-1.68236">
        <ele>666.315</ele>
        <time>2013-05-08T15:28:00Z</time>
      </trkpt>
      <trkpt lat="41.41842" lon="-1.68266">
        <ele>667.365</ele>
        <time>2013-05-08T15:27:53Z</time>
      </trkpt>
      <trkpt lat="41.41821" lon="-1.68281">
        <ele>667.811</ele>
        <time>2013-05-08T15:27:44Z</time>
      </trkpt>
      <trkpt lat="41.41792" lon="-1.68298">
        <ele>667.808</ele>
        <time>2013-05-08T15:27:32Z</time>
      </trkpt>
      <trkpt lat="41.41772" lon="-1.68314">
        <ele>667.882</ele>
        <time>2013-05-08T15:27:24Z</time>
      </trkpt>
      <trkpt lat="41.41771" lon="-1.68314">
        <ele>668.333</ele>
        <time>2013-05-08T15:25:55Z</time>
      </trkpt>
      <trkpt lat="41.4177" lon="-1.68314">
        <ele>668.355</ele>
        <time>2013-05-08T15:25:29Z</time>
      </trkpt>
      <trkpt lat="41.41768" lon="-1.68313">
        <ele>667.34</ele>
        <time>2013-05-08T15:24:58Z</time>
      </trkpt>
      <trkpt lat="41.41768" lon="-1.68312">
        <ele>667.397</ele>
        <time>2013-05-08T15:24:50Z</time>
      </trkpt>
      <trkpt lat="41.41767" lon="-1.68312">
        <ele>667.394</ele>
        <time>2013-05-08T15:24:49Z</time>
      </trkpt>
      <trkpt lat="41.41742" lon="-1.68308">
        <ele>667.312</ele>
        <time>2013-05-08T15:24:38Z</time>
      </trkpt>
      <trkpt lat="41.41739" lon="-1.68307">
        <ele>667.375</ele>
        <time>2013-05-08T15:24:37Z</time>
      </trkpt>
      <trkpt lat="41.41737" lon="-1.68306">
        <ele>667.818</ele>
        <time>2013-05-08T15:24:36Z</time>
      </trkpt>
      <trkpt lat="41.41734" lon="-1.68306">
        <ele>667.898</ele>
        <time>2013-05-08T15:24:35Z</time>
      </trkpt>
      <trkpt lat="41.41731" lon="-1.68306">
        <ele>667.817</ele>
        <time>2013-05-08T15:24:34Z</time>
      </trkpt>
      <trkpt lat="41.41728" lon="-1.68308">
        <ele>667.808</ele>
        <time>2013-05-08T15:24:33Z</time>
      </trkpt>
      <trkpt lat="41.41727" lon="-1.6831">
        <ele>667.882</ele>
        <time>2013-05-08T15:24:32Z</time>
      </trkpt>
      <trkpt lat="41.41736" lon="-1.68345">
        <ele>668.763</ele>
        <time>2013-05-08T15:24:24Z</time>
      </trkpt>
      <trkpt lat="41.4174" lon="-1.68359">
        <ele>670.295</ele>
        <time>2013-05-08T15:24:20Z</time>
      </trkpt>
      <trkpt lat="41.41742" lon="-1.68361">
        <ele>669.26</ele>
        <time>2013-05-08T15:23:59Z</time>
      </trkpt>
      <trkpt lat="41.41746" lon="-1.68386">
        <ele>670.227</ele>
        <time>2013-05-08T15:23:49Z</time>
      </trkpt>
      <trkpt lat="41.41746" lon="-1.68388">
        <ele>670.274</ele>
        <time>2013-05-08T15:23:48Z</time>
      </trkpt>
      <trkpt lat="41.41746" lon="-1.6839">
        <ele>670.262</ele>
        <time>2013-05-08T15:23:47Z</time>
      </trkpt>
      <trkpt lat="41.41747" lon="-1.68392">
        <ele>670.255</ele>
        <time>2013-05-08T15:23:46Z</time>
      </trkpt>
      <trkpt lat="41.41746" lon="-1.68394">
        <ele>670.253</ele>
        <time>2013-05-08T15:23:45Z</time>
      </trkpt>
      <trkpt lat="41.41746" lon="-1.68395">
        <ele>670.204</ele>
        <time>2013-05-08T15:23:44Z</time>
      </trkpt>
      <trkpt lat="41.41746" lon="-1.68397">
        <ele>670.214</ele>
        <time>2013-05-08T15:23:43Z</time>
      </trkpt>
      <trkpt lat="41.41744" lon="-1.68399">
        <ele>670.208</ele>
        <time>2013-05-08T15:23:36Z</time>
      </trkpt>
      <trkpt lat="41.41753" lon="-1.68409">
        <ele>669.736</ele>
        <time>2013-05-08T15:23:14Z</time>
      </trkpt>
      <trkpt lat="41.4177" lon="-1.68423">
        <ele>670.787</ele>
        <time>2013-05-08T15:23:06Z</time>
      </trkpt>
      <trkpt lat="41.41801" lon="-1.68438">
        <ele>673.539</ele>
        <time>2013-05-08T15:22:56Z</time>
      </trkpt>
      <trkpt lat="41.41812" lon="-1.68439">
        <ele>674.074</ele>
        <time>2013-05-08T15:22:36Z</time>
      </trkpt>
      <trkpt lat="41.41813" lon="-1.68437">
        <ele>674.071</ele>
        <time>2013-05-08T15:22:26Z</time>
      </trkpt>
      <trkpt lat="41.41814" lon="-1.68437">
        <ele>674.588</ele>
        <time>2013-05-08T15:22:25Z</time>
      </trkpt>
      <trkpt lat="41.41819" lon="-1.68436">
        <ele>674.036</ele>
        <time>2013-05-08T15:22:15Z</time>
      </trkpt>
      <trkpt lat="41.4182" lon="-1.68437">
        <ele>674.079</ele>
        <time>2013-05-08T15:22:14Z</time>
      </trkpt>
      <trkpt lat="41.41822" lon="-1.68436">
        <ele>674.028</ele>
        <time>2013-05-08T15:22:12Z</time>
      </trkpt>
      <trkpt lat="41.41823" lon="-1.68431">
        <ele>674.589</ele>
        <time>2013-05-08T15:22:10Z</time>
      </trkpt>
      <trkpt lat="41.41839" lon="-1.68414">
        <ele>674.517</ele>
        <time>2013-05-08T15:22:01Z</time>
      </trkpt>
      <trkpt lat="41.41863" lon="-1.68412">
        <ele>675.508</ele>
        <time>2013-05-08T15:21:49Z</time>
      </trkpt>
      <trkpt lat="41.41865" lon="-1.68412">
        <ele>675.583</ele>
        <time>2013-05-08T15:21:48Z</time>
      </trkpt>
      <trkpt lat="41.41868" lon="-1.68413">
        <ele>675.534</ele>
        <time>2013-05-08T15:21:47Z</time>
      </trkpt>
      <trkpt lat="41.4187" lon="-1.68414">
        <ele>675.596</ele>
        <time>2013-05-08T15:21:46Z</time>
      </trkpt>
      <trkpt lat="41.41872" lon="-1.68414">
        <ele>675.971</ele>
        <time>2013-05-08T15:21:45Z</time>
      </trkpt>
      <trkpt lat="41.4188" lon="-1.68399">
        <ele>676.468</ele>
        <time>2013-05-08T15:21:38Z</time>
      </trkpt>
      <trkpt lat="41.4188" lon="-1.68395">
        <ele>676.415</ele>
        <time>2013-05-08T15:21:37Z</time>
      </trkpt>
      <trkpt lat="41.41881" lon="-1.68392">
        <ele>676.953</ele>
        <time>2013-05-08T15:21:36Z</time>
      </trkpt>
      <trkpt lat="41.41882" lon="-1.68389">
        <ele>676.936</ele>
        <time>2013-05-08T15:21:35Z</time>
      </trkpt>
      <trkpt lat="41.41884" lon="-1.68387">
        <ele>677.466</ele>
        <time>2013-05-08T15:21:34Z</time>
      </trkpt>
      <trkpt lat="41.41901" lon="-1.68404">
        <ele>679.329</ele>
        <time>2013-05-08T15:21:25Z</time>
      </trkpt>
      <trkpt lat="41.41907" lon="-1.68413">
        <ele>679.321</ele>
        <time>2013-05-08T15:18:41Z</time>
      </trkpt>
      <trkpt lat="41.41909" lon="-1.68414">
        <ele>679.308</ele>
        <time>2013-05-08T15:18:40Z</time>
      </trkpt>
      <trkpt lat="41.41911" lon="-1.68414">
        <ele>679.367</ele>
        <time>2013-05-08T15:18:39Z</time>
      </trkpt>
      <trkpt lat="41.41927" lon="-1.68406">
        <ele>680.868</ele>
        <time>2013-05-08T15:18:30Z</time>
      </trkpt>
      <trkpt lat="41.41928" lon="-1.68404">
        <ele>680.88</ele>
        <time>2013-05-08T15:18:29Z</time>
      </trkpt>
      <trkpt lat="41.41928" lon="-1.68403">
        <ele>680.895</ele>
        <time>2013-05-08T15:18:28Z</time>
      </trkpt>
      <trkpt lat="41.41928" lon="-1.68401">
        <ele>680.852</ele>
        <time>2013-05-08T15:18:27Z</time>
      </trkpt>
      <trkpt lat="41.41925" lon="-1.68382">
        <ele>680.329</ele>
        <time>2013-05-08T15:18:15Z</time>
      </trkpt>
      <trkpt lat="41.41924" lon="-1.68381">
        <ele>679.897</ele>
        <time>2013-05-08T15:18:14Z</time>
      </trkpt>
      <trkpt lat="41.41924" lon="-1.68379">
        <ele>679.86</ele>
        <time>2013-05-08T15:18:13Z</time>
      </trkpt>
      <trkpt lat="41.41924" lon="-1.68378">
        <ele>679.847</ele>
        <time>2013-05-08T15:18:12Z</time>
      </trkpt>
      <trkpt lat="41.41925" lon="-1.68375">
        <ele>679.329</ele>
        <time>2013-05-08T15:18:10Z</time>
      </trkpt>
      <trkpt lat="41.41926" lon="-1.68373">
        <ele>679.321</ele>
        <time>2013-05-08T15:18:09Z</time>
      </trkpt>
      <trkpt lat="41.41926" lon="-1.68372">
        <ele>679.308</ele>
        <time>2013-05-08T15:18:08Z</time>
      </trkpt>
      <trkpt lat="41.4193" lon="-1.68368">
        <ele>677.425</ele>
        <time>2013-05-08T15:18:04Z</time>
      </trkpt>
      <trkpt lat="41.41938" lon="-1.68365">
        <ele>677.476</ele>
        <time>2013-05-08T15:17:55Z</time>
      </trkpt>
      <trkpt lat="41.41953" lon="-1.68374">
        <ele>677.948</ele>
        <time>2013-05-08T15:17:47Z</time>
      </trkpt>
      <trkpt lat="41.41975" lon="-1.68389">
        <ele>678.483</ele>
        <time>2013-05-08T15:17:39Z</time>
      </trkpt>
      <trkpt lat="41.42003" lon="-1.68415">
        <ele>678.84</ele>
        <time>2013-05-08T15:17:29Z</time>
      </trkpt>
      <trkpt lat="41.42018" lon="-1.68424">
        <ele>679.327</ele>
        <time>2013-05-08T15:17:25Z</time>
      </trkpt>
      <trkpt lat="41.42051" lon="-1.68446">
        <ele>679.895</ele>
        <time>2013-05-08T15:17:16Z</time>
      </trkpt>
      <trkpt lat="41.4208" lon="-1.68467">
        <ele>680.848</ele>
        <time>2013-05-08T15:17:07Z</time>
      </trkpt>
      <trkpt lat="41.42112" lon="-1.6849">
        <ele>681.759</ele>
        <time>2013-05-08T15:16:54Z</time>
      </trkpt>
      <trkpt lat="41.4212" lon="-1.68497">
        <ele>681.703</ele>
        <time>2013-05-08T15:16:34Z</time>
      </trkpt>
      <trkpt lat="41.4212" lon="-1.68496">
        <ele>681.223</ele>
        <time>2013-05-08T15:15:55Z</time>
      </trkpt>
      <trkpt lat="41.4218" lon="-1.68541">
        <ele>682.708</ele>
        <time>2013-05-08T15:15:42Z</time>
      </trkpt>
      <trkpt lat="41.42212" lon="-1.6856">
        <ele>684.196</ele>
        <time>2013-05-08T15:15:35Z</time>
      </trkpt>
      <trkpt lat="41.42236" lon="-1.68551">
        <ele>684.667</ele>
        <time>2013-05-08T15:15:29Z</time>
      </trkpt>
      <trkpt lat="41.42255" lon="-1.68538">
        <ele>685.639</ele>
        <time>2013-05-08T15:15:24Z</time>
      </trkpt>
      <trkpt lat="41.42267" lon="-1.68549">
        <ele>686.044</ele>
        <time>2013-05-08T15:15:20Z</time>
      </trkpt>
      <trkpt lat="41.42282" lon="-1.6856">
        <ele>686.051</ele>
        <time>2013-05-08T15:15:16Z</time>
      </trkpt>
      <trkpt lat="41.42303" lon="-1.68567">
        <ele>686.598</ele>
        <time>2013-05-08T15:15:11Z</time>
      </trkpt>
      <trkpt lat="41.42342" lon="-1.68572">
        <ele>686.526</ele>
        <time>2013-05-08T15:15:00Z</time>
      </trkpt>
      <trkpt lat="41.42402" lon="-1.68564">
        <ele>687.529</ele>
        <time>2013-05-08T15:14:47Z</time>
      </trkpt>
      <trkpt lat="41.42426" lon="-1.68555">
        <ele>688.059</ele>
        <time>2013-05-08T15:14:42Z</time>
      </trkpt>
      <trkpt lat="41.42439" lon="-1.68543">
        <ele>688.903</ele>
        <time>2013-05-08T15:14:39Z</time>
      </trkpt>
      <trkpt lat="41.42463" lon="-1.68519">
        <ele>689.423</ele>
        <time>2013-05-08T15:14:33Z</time>
      </trkpt>
      <trkpt lat="41.42505" lon="-1.68485">
        <ele>690.408</ele>
        <time>2013-05-08T15:14:23Z</time>
      </trkpt>
      <trkpt lat="41.42562" lon="-1.68453">
        <ele>691.376</ele>
        <time>2013-05-08T15:14:11Z</time>
      </trkpt>
      <trkpt lat="41.42625" lon="-1.6841">
        <ele>692.327</ele>
        <time>2013-05-08T15:13:59Z</time>
      </trkpt>
      <trkpt lat="41.42668" lon="-1.68402">
        <ele>692.859</ele>
        <time>2013-05-08T15:13:52Z</time>
      </trkpt>
      <trkpt lat="41.42693" lon="-1.68403">
        <ele>695.744</ele>
        <time>2013-05-08T15:13:48Z</time>
      </trkpt>
      <trkpt lat="41.42725" lon="-1.684">
        <ele>697.171</ele>
        <time>2013-05-08T15:13:42Z</time>
      </trkpt>
      <trkpt lat="41.42738" lon="-1.68396">
        <ele>698.118</ele>
        <time>2013-05-08T15:13:40Z</time>
      </trkpt>
      <trkpt lat="41.42768" lon="-1.68387">
        <ele>699.076</ele>
        <time>2013-05-08T15:13:36Z</time>
      </trkpt>
      <trkpt lat="41.42848" lon="-1.68392">
        <ele>701.419</ele>
        <time>2013-05-08T15:13:25Z</time>
      </trkpt>
      <trkpt lat="41.42869" lon="-1.68398">
        <ele>701.937</ele>
        <time>2013-05-08T15:13:22Z</time>
      </trkpt>
      <trkpt lat="41.42906" lon="-1.68415">
        <ele>703.849</ele>
        <time>2013-05-08T15:13:16Z</time>
      </trkpt>
      <trkpt lat="41.42911" lon="-1.68419">
        <ele>703.813</ele>
        <time>2013-05-08T15:13:15Z</time>
      </trkpt>
      <trkpt lat="41.42948" lon="-1.68444">
        <ele>706.708</ele>
        <time>2013-05-08T15:13:07Z</time>
      </trkpt>
      <trkpt lat="41.42984" lon="-1.68441">
        <ele>709.154</ele>
        <time>2013-05-08T15:12:59Z</time>
      </trkpt>
      <trkpt lat="41.43002" lon="-1.68441">
        <ele>709.625</ele>
        <time>2013-05-08T15:12:55Z</time>
      </trkpt>
      <trkpt lat="41.43011" lon="-1.6844">
        <ele>709.667</ele>
        <time>2013-05-08T15:12:53Z</time>
      </trkpt>
      <trkpt lat="41.43035" lon="-1.68431">
        <ele>710.132</ele>
        <time>2013-05-08T15:12:48Z</time>
      </trkpt>
      <trkpt lat="41.43078" lon="-1.68392">
        <ele>711.059</ele>
        <time>2013-05-08T15:12:38Z</time>
      </trkpt>
      <trkpt lat="41.43128" lon="-1.68365">
        <ele>713.016</ele>
        <time>2013-05-08T15:12:27Z</time>
      </trkpt>
      <trkpt lat="41.43138" lon="-1.68352">
        <ele>713.444</ele>
        <time>2013-05-08T15:12:24Z</time>
      </trkpt>
      <trkpt lat="41.43159" lon="-1.68338">
        <ele>714.457</ele>
        <time>2013-05-08T15:12:19Z</time>
      </trkpt>
      <trkpt lat="41.43176" lon="-1.68336">
        <ele>715.425</ele>
        <time>2013-05-08T15:12:15Z</time>
      </trkpt>
      <trkpt lat="41.43193" lon="-1.68336">
        <ele>715.426</ele>
        <time>2013-05-08T15:12:10Z</time>
      </trkpt>
      <trkpt lat="41.43218" lon="-1.68337">
        <ele>716.308</ele>
        <time>2013-05-08T15:12:01Z</time>
      </trkpt>
      <trkpt lat="41.43243" lon="-1.68342">
        <ele>716.808</ele>
        <time>2013-05-08T15:11:50Z</time>
      </trkpt>
      <trkpt lat="41.43278" lon="-1.68356">
        <ele>719.223</ele>
        <time>2013-05-08T15:11:39Z</time>
      </trkpt>
      <trkpt lat="41.43301" lon="-1.68368">
        <ele>720.774</ele>
        <time>2013-05-08T15:11:32Z</time>
      </trkpt>
      <trkpt lat="41.43348" lon="-1.68416">
        <ele>722.626</ele>
        <time>2013-05-08T15:11:22Z</time>
      </trkpt>
      <trkpt lat="41.43383" lon="-1.68436">
        <ele>725.061</ele>
        <time>2013-05-08T15:11:16Z</time>
      </trkpt>
      <trkpt lat="41.43403" lon="-1.68439">
        <ele>725.548</ele>
        <time>2013-05-08T15:11:13Z</time>
      </trkpt>
      <trkpt lat="41.43449" lon="-1.68443">
        <ele>728.385</ele>
        <time>2013-05-08T15:11:05Z</time>
      </trkpt>
      <trkpt lat="41.43497" lon="-1.68471">
        <ele>732.763</ele>
        <time>2013-05-08T15:10:57Z</time>
      </trkpt>
      <trkpt lat="41.43504" lon="-1.68475">
        <ele>733.116</ele>
        <time>2013-05-08T15:10:56Z</time>
      </trkpt>
      <trkpt lat="41.43543" lon="-1.6848">
        <ele>734.627</ele>
        <time>2013-05-08T15:10:50Z</time>
      </trkpt>
      <trkpt lat="41.4357" lon="-1.68501">
        <ele>736.068</ele>
        <time>2013-05-08T15:10:44Z</time>
      </trkpt>
      <trkpt lat="41.43586" lon="-1.68531">
        <ele>737.514</ele>
        <time>2013-05-08T15:10:40Z</time>
      </trkpt>
      <trkpt lat="41.43607" lon="-1.68555">
        <ele>738.908</ele>
        <time>2013-05-08T15:10:36Z</time>
      </trkpt>
      <trkpt lat="41.43632" lon="-1.68578">
        <ele>740.493</ele>
        <time>2013-05-08T15:10:31Z</time>
      </trkpt>
      <trkpt lat="41.43639" lon="-1.68588">
        <ele>741.394</ele>
        <time>2013-05-08T15:10:29Z</time>
      </trkpt>
      <trkpt lat="41.43648" lon="-1.68621">
        <ele>741.376</ele>
        <time>2013-05-08T15:10:23Z</time>
      </trkpt>
      <trkpt lat="41.43639" lon="-1.68654">
        <ele>742.331</ele>
        <time>2013-05-08T15:10:19Z</time>
      </trkpt>
      <trkpt lat="41.43636" lon="-1.68661">
        <ele>742.398</ele>
        <time>2013-05-08T15:10:18Z</time>
      </trkpt>
      <trkpt lat="41.43616" lon="-1.68714">
        <ele>745.285</ele>
        <time>2013-05-08T15:10:10Z</time>
      </trkpt>
      <trkpt lat="41.43622" lon="-1.68744">
        <ele>745.633</ele>
        <time>2013-05-08T15:10:05Z</time>
      </trkpt>
      <trkpt lat="41.43659" lon="-1.68766">
        <ele>747.696</ele>
        <time>2013-05-08T15:09:57Z</time>
      </trkpt>
      <trkpt lat="41.43696" lon="-1.6879">
        <ele>749.548</ele>
        <time>2013-05-08T15:09:46Z</time>
      </trkpt>
      <trkpt lat="41.43726" lon="-1.68807">
        <ele>749.561</ele>
        <time>2013-05-08T15:09:35Z</time>
      </trkpt>
      <trkpt lat="41.43739" lon="-1.68809">
        <ele>749.517</ele>
        <time>2013-05-08T15:08:58Z</time>
      </trkpt>
      <trkpt lat="41.43738" lon="-1.68811">
        <ele>749.508</ele>
        <time>2013-05-08T15:08:25Z</time>
      </trkpt>
      <trkpt lat="41.43738" lon="-1.68809">
        <ele>750.035</ele>
        <time>2013-05-08T15:08:11Z</time>
      </trkpt>
      <trkpt lat="41.43758" lon="-1.6882">
        <ele>750.566</ele>
        <time>2013-05-08T15:08:04Z</time>
      </trkpt>
      <trkpt lat="41.43781" lon="-1.68824">
        <ele>751.498</ele>
        <time>2013-05-08T15:08:00Z</time>
      </trkpt>
      <trkpt lat="41.43808" lon="-1.68825">
        <ele>752.943</ele>
        <time>2013-05-08T15:07:55Z</time>
      </trkpt>
      <trkpt lat="41.43816" lon="-1.68823">
        <ele>752.98</ele>
        <time>2013-05-08T15:07:53Z</time>
      </trkpt>
      <trkpt lat="41.43827" lon="-1.68821">
        <ele>751.997</ele>
        <time>2013-05-08T15:07:50Z</time>
      </trkpt>
      <trkpt lat="41.43865" lon="-1.68805">
        <ele>753.315</ele>
        <time>2013-05-08T15:07:42Z</time>
      </trkpt>
      <trkpt lat="41.43883" lon="-1.688">
        <ele>755.348</ele>
        <time>2013-05-08T15:07:39Z</time>
      </trkpt>
      <trkpt lat="41.43912" lon="-1.68785">
        <ele>757.795</ele>
        <time>2013-05-08T15:07:35Z</time>
      </trkpt>
      <trkpt lat="41.43945" lon="-1.68779">
        <ele>762.049</ele>
        <time>2013-05-08T15:07:30Z</time>
      </trkpt>
      <trkpt lat="41.43969" lon="-1.68787">
        <ele>764.923</ele>
        <time>2013-05-08T15:07:26Z</time>
      </trkpt>
      <trkpt lat="41.43998" lon="-1.68835">
        <ele>766.808</ele>
        <time>2013-05-08T15:07:19Z</time>
      </trkpt>
      <trkpt lat="41.44017" lon="-1.68863">
        <ele>769.72</ele>
        <time>2013-05-08T15:07:14Z</time>
      </trkpt>
      <trkpt lat="41.44044" lon="-1.68869">
        <ele>773.011</ele>
        <time>2013-05-08T15:07:09Z</time>
      </trkpt>
      <trkpt lat="41.44083" lon="-1.68872">
        <ele>776.953</ele>
        <time>2013-05-08T15:07:03Z</time>
      </trkpt>
      <trkpt lat="41.44106" lon="-1.68863">
        <ele>780.398</ele>
        <time>2013-05-08T15:06:59Z</time>
      </trkpt>
      <trkpt lat="41.44136" lon="-1.68849">
        <ele>784.625</ele>
        <time>2013-05-08T15:06:52Z</time>
      </trkpt>
      <trkpt lat="41.44145" lon="-1.68822">
        <ele>788.492</ele>
        <time>2013-05-08T15:06:47Z</time>
      </trkpt>
      <trkpt lat="41.44155" lon="-1.68789">
        <ele>792.78</ele>
        <time>2013-05-08T15:06:42Z</time>
      </trkpt>
      <trkpt lat="41.44165" lon="-1.6877">
        <ele>796.153</ele>
        <time>2013-05-08T15:06:39Z</time>
      </trkpt>
      <trkpt lat="41.44172" lon="-1.6875">
        <ele>798.044</ele>
        <time>2013-05-08T15:06:36Z</time>
      </trkpt>
      <trkpt lat="41.44182" lon="-1.6873">
        <ele>799.505</ele>
        <time>2013-05-08T15:06:33Z</time>
      </trkpt>
      <trkpt lat="41.44197" lon="-1.68712">
        <ele>801.415</ele>
        <time>2013-05-08T15:06:30Z</time>
      </trkpt>
      <trkpt lat="41.4422" lon="-1.68684">
        <ele>804.308</ele>
        <time>2013-05-08T15:06:26Z</time>
      </trkpt>
      <trkpt lat="41.44264" lon="-1.68633">
        <ele>808.615</ele>
        <time>2013-05-08T15:06:18Z</time>
      </trkpt>
      <trkpt lat="41.44292" lon="-1.68567">
        <ele>812.066</ele>
        <time>2013-05-08T15:06:09Z</time>
      </trkpt>
      <trkpt lat="41.44299" lon="-1.68549">
        <ele>812.538</ele>
        <time>2013-05-08T15:06:06Z</time>
      </trkpt>
      <trkpt lat="41.44309" lon="-1.68536">
        <ele>812.523</ele>
        <time>2013-05-08T15:06:04Z</time>
      </trkpt>
      <trkpt lat="41.44359" lon="-1.68465">
        <ele>814.43</ele>
        <time>2013-05-08T15:05:54Z</time>
      </trkpt>
      <trkpt lat="41.44375" lon="-1.68439">
        <ele>817.367</ele>
        <time>2013-05-08T15:05:50Z</time>
      </trkpt>
      <trkpt lat="41.44391" lon="-1.68414">
        <ele>821.145</ele>
        <time>2013-05-08T15:05:46Z</time>
      </trkpt>
      <trkpt lat="41.44407" lon="-1.68385">
        <ele>825.048</ele>
        <time>2013-05-08T15:05:41Z</time>
      </trkpt>
      <trkpt lat="41.44414" lon="-1.68364">
        <ele>828.369</ele>
        <time>2013-05-08T15:05:37Z</time>
      </trkpt>
      <trkpt lat="41.44419" lon="-1.68339">
        <ele>831.704</ele>
        <time>2013-05-08T15:05:32Z</time>
      </trkpt>
      <trkpt lat="41.44429" lon="-1.68323">
        <ele>833.624</ele>
        <time>2013-05-08T15:05:29Z</time>
      </trkpt>
      <trkpt lat="41.44446" lon="-1.68292">
        <ele>836.008</ele>
        <time>2013-05-08T15:05:24Z</time>
      </trkpt>
      <trkpt lat="41.44474" lon="-1.68252">
        <ele>838.987</ele>
        <time>2013-05-08T15:05:17Z</time>
      </trkpt>
      <trkpt lat="41.44499" lon="-1.68221">
        <ele>841.848</ele>
        <time>2013-05-08T15:05:10Z</time>
      </trkpt>
      <trkpt lat="41.44503" lon="-1.68216">
        <ele>842.35</ele>
        <time>2013-05-08T15:04:53Z</time>
      </trkpt>
      <trkpt lat="41.44502" lon="-1.68216">
        <ele>842.335</ele>
        <time>2013-05-08T15:04:32Z</time>
      </trkpt>
      <trkpt lat="41.44512" lon="-1.68201">
        <ele>844.272</ele>
        <time>2013-05-08T15:04:25Z</time>
      </trkpt>
      <trkpt lat="41.44557" lon="-1.68144">
        <ele>846.189</ele>
        <time>2013-05-08T15:04:11Z</time>
      </trkpt>
      <trkpt lat="41.446" lon="-1.68102">
        <ele>846.137</ele>
        <time>2013-05-08T15:03:58Z</time>
      </trkpt>
      <trkpt lat="41.44611" lon="-1.68086">
        <ele>846.13</ele>
        <time>2013-05-08T15:03:54Z</time>
      </trkpt>
      <trkpt lat="41.44633" lon="-1.6804">
        <ele>845.631</ele>
        <time>2013-05-08T15:03:43Z</time>
      </trkpt>
      <trkpt lat="41.44654" lon="-1.67995">
        <ele>845.661</ele>
        <time>2013-05-08T15:03:32Z</time>
      </trkpt>
      <trkpt lat="41.44687" lon="-1.67935">
        <ele>844.207</ele>
        <time>2013-05-08T15:03:17Z</time>
      </trkpt>
      <trkpt lat="41.44699" lon="-1.67921">
        <ele>843.208</ele>
        <time>2013-05-08T15:03:13Z</time>
      </trkpt>
      <trkpt lat="41.44715" lon="-1.67914">
        <ele>842.344</ele>
        <time>2013-05-08T15:03:10Z</time>
      </trkpt>
      <trkpt lat="41.4476" lon="-1.679">
        <ele>842.765</ele>
        <time>2013-05-08T15:03:04Z</time>
      </trkpt>
      <trkpt lat="41.44784" lon="-1.67892">
        <ele>844.227</ele>
        <time>2013-05-08T15:03:01Z</time>
      </trkpt>
      <trkpt lat="41.44813" lon="-1.67884">
        <ele>847.172</ele>
        <time>2013-05-08T15:02:57Z</time>
      </trkpt>
      <trkpt lat="41.44827" lon="-1.67878">
        <ele>848.099</ele>
        <time>2013-05-08T15:02:55Z</time>
      </trkpt>
      <trkpt lat="41.44848" lon="-1.67871">
        <ele>851.426</ele>
        <time>2013-05-08T15:02:52Z</time>
      </trkpt>
      <trkpt lat="41.44882" lon="-1.67855">
        <ele>856.244</ele>
        <time>2013-05-08T15:02:47Z</time>
      </trkpt>
      <trkpt lat="41.44901" lon="-1.67838">
        <ele>859.177</ele>
        <time>2013-05-08T15:02:44Z</time>
      </trkpt>
      <trkpt lat="41.44926" lon="-1.67812">
        <ele>862.981</ele>
        <time>2013-05-08T15:02:40Z</time>
      </trkpt>
      <trkpt lat="41.44955" lon="-1.67779">
        <ele>866.361</ele>
        <time>2013-05-08T15:02:35Z</time>
      </trkpt>
      <trkpt lat="41.44973" lon="-1.67741">
        <ele>868.217</ele>
        <time>2013-05-08T15:02:30Z</time>
      </trkpt>
      <trkpt lat="41.44978" lon="-1.67711">
        <ele>870.608</ele>
        <time>2013-05-08T15:02:27Z</time>
      </trkpt>
      <trkpt lat="41.44985" lon="-1.67675">
        <ele>874.039</ele>
        <time>2013-05-08T15:02:24Z</time>
      </trkpt>
      <trkpt lat="41.44999" lon="-1.67626">
        <ele>878.39</ele>
        <time>2013-05-08T15:02:19Z</time>
      </trkpt>
      <trkpt lat="41.45003" lon="-1.67619">
        <ele>878.382</ele>
        <time>2013-05-08T15:02:18Z</time>
      </trkpt>
      <trkpt lat="41.45046" lon="-1.67545">
        <ele>882.237</ele>
        <time>2013-05-08T15:02:10Z</time>
      </trkpt>
      <trkpt lat="41.45065" lon="-1.67511">
        <ele>885.084</ele>
        <time>2013-05-08T15:02:06Z</time>
      </trkpt>
      <trkpt lat="41.45097" lon="-1.67479">
        <ele>888.431</ele>
        <time>2013-05-08T15:02:00Z</time>
      </trkpt>
      <trkpt lat="41.45142" lon="-1.67466">
        <ele>889.879</ele>
        <time>2013-05-08T15:01:54Z</time>
      </trkpt>
      <trkpt lat="41.45192" lon="-1.67438">
        <ele>893.242</ele>
        <time>2013-05-08T15:01:48Z</time>
      </trkpt>
      <trkpt lat="41.45239" lon="-1.67421">
        <ele>896.155</ele>
        <time>2013-05-08T15:01:43Z</time>
      </trkpt>
      <trkpt lat="41.45248" lon="-1.67421">
        <ele>896.607</ele>
        <time>2013-05-08T15:01:42Z</time>
      </trkpt>
      <trkpt lat="41.45287" lon="-1.67422">
        <ele>900.417</ele>
        <time>2013-05-08T15:01:37Z</time>
      </trkpt>
      <trkpt lat="41.45306" lon="-1.67419">
        <ele>903.308</ele>
        <time>2013-05-08T15:01:34Z</time>
      </trkpt>
      <trkpt lat="41.45318" lon="-1.67416">
        <ele>905.286</ele>
        <time>2013-05-08T15:01:32Z</time>
      </trkpt>
      <trkpt lat="41.45339" lon="-1.67409">
        <ele>908.687</ele>
        <time>2013-05-08T15:01:28Z</time>
      </trkpt>
      <trkpt lat="41.45372" lon="-1.67402">
        <ele>912.469</ele>
        <time>2013-05-08T15:01:22Z</time>
      </trkpt>
      <trkpt lat="41.45394" lon="-1.674">
        <ele>915.334</ele>
        <time>2013-05-08T15:01:18Z</time>
      </trkpt>
      <trkpt lat="41.45403" lon="-1.67397">
        <ele>917.251</ele>
        <time>2013-05-08T15:01:16Z</time>
      </trkpt>
      <trkpt lat="41.45424" lon="-1.67392">
        <ele>920.158</ele>
        <time>2013-05-08T15:01:11Z</time>
      </trkpt>
      <trkpt lat="41.45437" lon="-1.67388">
        <ele>921.686</ele>
        <time>2013-05-08T15:00:13Z</time>
      </trkpt>
      <trkpt lat="41.45437" lon="-1.67389">
        <ele>921.699</ele>
        <time>2013-05-08T14:59:31Z</time>
      </trkpt>
      <trkpt lat="41.45437" lon="-1.67388">
        <ele>922.581</ele>
        <time>2013-05-08T14:58:49Z</time>
      </trkpt>
      <trkpt lat="41.45438" lon="-1.67388">
        <ele>922.061</ele>
        <time>2013-05-08T14:58:26Z</time>
      </trkpt>
      <trkpt lat="41.45441" lon="-1.67385">
        <ele>923.017</ele>
        <time>2013-05-08T14:58:16Z</time>
      </trkpt>
      <trkpt lat="41.45445" lon="-1.67385">
        <ele>923.008</ele>
        <time>2013-05-08T14:58:14Z</time>
      </trkpt>
      <trkpt lat="41.45464" lon="-1.67399">
        <ele>922.559</ele>
        <time>2013-05-08T14:58:04Z</time>
      </trkpt>
      <trkpt lat="41.45481" lon="-1.67418">
        <ele>922.04</ele>
        <time>2013-05-08T14:57:54Z</time>
      </trkpt>
      <trkpt lat="41.45503" lon="-1.67419">
        <ele>922.022</ele>
        <time>2013-05-08T14:57:43Z</time>
      </trkpt>
      <trkpt lat="41.45527" lon="-1.67405">
        <ele>922.547</ele>
        <time>2013-05-08T14:57:32Z</time>
      </trkpt>
      <trkpt lat="41.45546" lon="-1.67406">
        <ele>921.624</ele>
        <time>2013-05-08T14:57:20Z</time>
      </trkpt>
      <trkpt lat="41.45562" lon="-1.67415">
        <ele>919.691</ele>
        <time>2013-05-08T14:57:06Z</time>
      </trkpt>
      <trkpt lat="41.45577" lon="-1.67426">
        <ele>918.279</ele>
        <time>2013-05-08T14:56:52Z</time>
      </trkpt>
      <trkpt lat="41.45594" lon="-1.67448">
        <ele>916.862</ele>
        <time>2013-05-08T14:56:34Z</time>
      </trkpt>
      <trkpt lat="41.45606" lon="-1.67466">
        <ele>915.844</ele>
        <time>2013-05-08T14:56:20Z</time>
      </trkpt>
      <trkpt lat="41.45614" lon="-1.67485">
        <ele>914.405</ele>
        <time>2013-05-08T14:56:06Z</time>
      </trkpt>
      <trkpt lat="41.45618" lon="-1.67499">
        <ele>912.415</ele>
        <time>2013-05-08T14:55:54Z</time>
      </trkpt>
      <trkpt lat="41.45621" lon="-1.67506">
        <ele>912.008</ele>
        <time>2013-05-08T14:55:47Z</time>
      </trkpt>
      <trkpt lat="41.45629" lon="-1.67517">
        <ele>910.555</ele>
        <time>2013-05-08T14:55:35Z</time>
      </trkpt>
      <trkpt lat="41.45637" lon="-1.67526">
        <ele>908.686</ele>
        <time>2013-05-08T14:55:23Z</time>
      </trkpt>
      <trkpt lat="41.45647" lon="-1.67531">
        <ele>907.198</ele>
        <time>2013-05-08T14:55:12Z</time>
      </trkpt>
      <trkpt lat="41.45656" lon="-1.67533">
        <ele>905.753</ele>
        <time>2013-05-08T14:55:02Z</time>
      </trkpt>
      <trkpt lat="41.45669" lon="-1.67538">
        <ele>902.36</ele>
        <time>2013-05-08T14:54:47Z</time>
      </trkpt>
      <trkpt lat="41.45681" lon="-1.67543">
        <ele>899.587</ele>
        <time>2013-05-08T14:54:34Z</time>
      </trkpt>
      <trkpt lat="41.45694" lon="-1.67549">
        <ele>897.595</ele>
        <time>2013-05-08T14:54:20Z</time>
      </trkpt>
      <trkpt lat="41.45711" lon="-1.6756">
        <ele>894.668</ele>
        <time>2013-05-08T14:54:04Z</time>
      </trkpt>
      <trkpt lat="41.45712" lon="-1.67561">
        <ele>894.621</ele>
        <time>2013-05-08T14:54:03Z</time>
      </trkpt>
      <trkpt lat="41.45724" lon="-1.67581">
        <ele>893.741</ele>
        <time>2013-05-08T14:53:51Z</time>
      </trkpt>
      <trkpt lat="41.45724" lon="-1.67591">
        <ele>893.205</ele>
        <time>2013-05-08T14:53:46Z</time>
      </trkpt>
      <trkpt lat="41.45724" lon="-1.6762">
        <ele>891.808</ele>
        <time>2013-05-08T14:53:31Z</time>
      </trkpt>
      <trkpt lat="41.45724" lon="-1.67629">
        <ele>890.873</ele>
        <time>2013-05-08T14:53:26Z</time>
      </trkpt>
      <trkpt lat="41.45725" lon="-1.67632">
        <ele>890.854</ele>
        <time>2013-05-08T14:53:03Z</time>
      </trkpt>
      <trkpt lat="41.45725" lon="-1.67631">
        <ele>890.886</ele>
        <time>2013-05-08T14:52:10Z</time>
      </trkpt>
      <trkpt lat="41.45727" lon="-1.67634">
        <ele>891.391</ele>
        <time>2013-05-08T14:51:56Z</time>
      </trkpt>
      <trkpt lat="41.45726" lon="-1.67634">
        <ele>891.848</ele>
        <time>2013-05-08T14:50:49Z</time>
      </trkpt>
      <trkpt lat="41.4573" lon="-1.67638">
        <ele>891.865</ele>
        <time>2013-05-08T14:50:40Z</time>
      </trkpt>
      <trkpt lat="41.45733" lon="-1.67636">
        <ele>891.873</ele>
        <time>2013-05-08T14:50:38Z</time>
      </trkpt>
      <trkpt lat="41.45747" lon="-1.67609">
        <ele>894.686</ele>
        <time>2013-05-08T14:50:32Z</time>
      </trkpt>
      <trkpt lat="41.45753" lon="-1.67593">
        <ele>896.126</ele>
        <time>2013-05-08T14:50:30Z</time>
      </trkpt>
      <trkpt lat="41.45764" lon="-1.6756">
        <ele>899.947</ele>
        <time>2013-05-08T14:50:26Z</time>
      </trkpt>
      <trkpt lat="41.45777" lon="-1.67519">
        <ele>903.811</ele>
        <time>2013-05-08T14:50:22Z</time>
      </trkpt>
      <trkpt lat="41.4579" lon="-1.67471">
        <ele>907.608</ele>
        <time>2013-05-08T14:50:17Z</time>
      </trkpt>
      <trkpt lat="41.45824" lon="-1.67386">
        <ele>910.093</ele>
        <time>2013-05-08T14:50:07Z</time>
      </trkpt>
      <trkpt lat="41.45857" lon="-1.67272">
        <ele>912.934</ele>
        <time>2013-05-08T14:49:57Z</time>
      </trkpt>
      <trkpt lat="41.45875" lon="-1.67199">
        <ele>916.326</ele>
        <time>2013-05-08T14:49:51Z</time>
      </trkpt>
      <trkpt lat="41.45894" lon="-1.67125">
        <ele>919.221</ele>
        <time>2013-05-08T14:49:44Z</time>
      </trkpt>
      <trkpt lat="41.45904" lon="-1.67085">
        <ele>921.118</ele>
        <time>2013-05-08T14:49:40Z</time>
      </trkpt>
      <trkpt lat="41.45917" lon="-1.67049">
        <ele>924.575</ele>
        <time>2013-05-08T14:49:36Z</time>
      </trkpt>
      <trkpt lat="41.45933" lon="-1.67014">
        <ele>927.823</ele>
        <time>2013-05-08T14:49:31Z</time>
      </trkpt>
      <trkpt lat="41.45939" lon="-1.67001">
        <ele>929.396</ele>
        <time>2013-05-08T14:49:29Z</time>
      </trkpt>
      <trkpt lat="41.45953" lon="-1.6698">
        <ele>931.794</ele>
        <time>2013-05-08T14:49:25Z</time>
      </trkpt>
      <trkpt lat="41.45956" lon="-1.66976">
        <ele>933.157</ele>
        <time>2013-05-08T14:49:24Z</time>
      </trkpt>
      <trkpt lat="41.45963" lon="-1.66969">
        <ele>934.122</ele>
        <time>2013-05-08T14:49:22Z</time>
      </trkpt>
      <trkpt lat="41.45981" lon="-1.6695">
        <ele>937.908</ele>
        <time>2013-05-08T14:49:16Z</time>
      </trkpt>
      <trkpt lat="41.45984" lon="-1.66946">
        <ele>938.44</ele>
        <time>2013-05-08T14:49:15Z</time>
      </trkpt>
      <trkpt lat="41.46003" lon="-1.66927">
        <ele>941.831</ele>
        <time>2013-05-08T14:49:09Z</time>
      </trkpt>
      <trkpt lat="41.4603" lon="-1.66912">
        <ele>946.163</ele>
        <time>2013-05-08T14:49:02Z</time>
      </trkpt>
      <trkpt lat="41.46038" lon="-1.66909">
        <ele>947.098</ele>
        <time>2013-05-08T14:49:00Z</time>
      </trkpt>
      <trkpt lat="41.46065" lon="-1.66892">
        <ele>950.445</ele>
        <time>2013-05-08T14:48:53Z</time>
      </trkpt>
      <trkpt lat="41.46101" lon="-1.66877">
        <ele>954.352</ele>
        <time>2013-05-08T14:48:46Z</time>
      </trkpt>
      <trkpt lat="41.46142" lon="-1.66854">
        <ele>957.69</ele>
        <time>2013-05-08T14:48:37Z</time>
      </trkpt>
      <trkpt lat="41.46152" lon="-1.66843">
        <ele>958.693</ele>
        <time>2013-05-08T14:48:34Z</time>
      </trkpt>
      <trkpt lat="41.46169" lon="-1.66811">
        <ele>958.694</ele>
        <time>2013-05-08T14:48:26Z</time>
      </trkpt>
      <trkpt lat="41.46175" lon="-1.66799">
        <ele>960.057</ele>
        <time>2013-05-08T14:48:23Z</time>
      </trkpt>
      <trkpt lat="41.46191" lon="-1.66763">
        <ele>960.022</ele>
        <time>2013-05-08T14:48:14Z</time>
      </trkpt>
      <trkpt lat="41.46192" lon="-1.66723">
        <ele>958.608</ele>
        <time>2013-05-08T14:48:00Z</time>
      </trkpt>
      <trkpt lat="41.46202" lon="-1.66691">
        <ele>958.68</ele>
        <time>2013-05-08T14:47:48Z</time>
      </trkpt>
      <trkpt lat="41.46205" lon="-1.66684">
        <ele>958.671</ele>
        <time>2013-05-08T14:47:44Z</time>
      </trkpt>
      <trkpt lat="41.46208" lon="-1.66669">
        <ele>957.143</ele>
        <time>2013-05-08T14:47:36Z</time>
      </trkpt>
      <trkpt lat="41.4619" lon="-1.6664">
        <ele>959.548</ele>
        <time>2013-05-08T14:47:29Z</time>
      </trkpt>
      <trkpt lat="41.46176" lon="-1.6662">
        <ele>961.995</ele>
        <time>2013-05-08T14:47:24Z</time>
      </trkpt>
      <trkpt lat="41.46176" lon="-1.66604">
        <ele>964.852</ele>
        <time>2013-05-08T14:47:20Z</time>
      </trkpt>
      <trkpt lat="41.46189" lon="-1.666">
        <ele>967.22</ele>
        <time>2013-05-08T14:47:16Z</time>
      </trkpt>
      <trkpt lat="41.46207" lon="-1.66604">
        <ele>969.253</ele>
        <time>2013-05-08T14:47:12Z</time>
      </trkpt>
      <trkpt lat="41.46221" lon="-1.66605">
        <ele>970.641</ele>
        <time>2013-05-08T14:47:09Z</time>
      </trkpt>
      <trkpt lat="41.46251" lon="-1.66608">
        <ele>974.081</ele>
        <time>2013-05-08T14:47:02Z</time>
      </trkpt>
      <trkpt lat="41.46289" lon="-1.66597">
        <ele>977.309</ele>
        <time>2013-05-08T14:46:54Z</time>
      </trkpt>
      <trkpt lat="41.46328" lon="-1.66583">
        <ele>980.708</ele>
        <time>2013-05-08T14:46:46Z</time>
      </trkpt>
      <trkpt lat="41.46346" lon="-1.66569">
        <ele>983.655</ele>
        <time>2013-05-08T14:46:41Z</time>
      </trkpt>
      <trkpt lat="41.46363" lon="-1.66555">
        <ele>986.976</ele>
        <time>2013-05-08T14:46:36Z</time>
      </trkpt>
      <trkpt lat="41.46375" lon="-1.66546">
        <ele>988.918</ele>
        <time>2013-05-08T14:46:32Z</time>
      </trkpt>
      <trkpt lat="41.4639" lon="-1.66532">
        <ele>992.233</ele>
        <time>2013-05-08T14:46:25Z</time>
      </trkpt>
      <trkpt lat="41.46395" lon="-1.66509">
        <ele>995.66</ele>
        <time>2013-05-08T14:46:19Z</time>
      </trkpt>
      <trkpt lat="41.46398" lon="-1.66483">
        <ele>999.057</ele>
        <time>2013-05-08T14:46:13Z</time>
      </trkpt>
      <trkpt lat="41.464" lon="-1.66467">
        <ele>1000.485</ele>
        <time>2013-05-08T14:46:07Z</time>
      </trkpt>
      <trkpt lat="41.464" lon="-1.66465">
        <ele>1000.458</ele>
        <time>2013-05-08T14:45:21Z</time>
      </trkpt>
      <trkpt lat="41.46397" lon="-1.66445">
        <ele>999.059</ele>
        <time>2013-05-08T14:45:07Z</time>
      </trkpt>
      <trkpt lat="41.46398" lon="-1.66437">
        <ele>997.503</ele>
        <time>2013-05-08T14:45:02Z</time>
      </trkpt>
      <trkpt lat="41.46408" lon="-1.66421">
        <ele>996.123</ele>
        <time>2013-05-08T14:44:57Z</time>
      </trkpt>
      <trkpt lat="41.46434" lon="-1.66406">
        <ele>996.108</ele>
        <time>2013-05-08T14:44:52Z</time>
      </trkpt>
      <trkpt lat="41.46506" lon="-1.66375">
        <ele>996.136</ele>
        <time>2013-05-08T14:44:39Z</time>
      </trkpt>
      <trkpt lat="41.46527" lon="-1.66362">
        <ele>996.157</ele>
        <time>2013-05-08T14:44:35Z</time>
      </trkpt>
      <trkpt lat="41.46547" lon="-1.66343">
        <ele>996.129</ele>
        <time>2013-05-08T14:44:31Z</time>
      </trkpt>
      <trkpt lat="41.46578" lon="-1.66302">
        <ele>999.054</ele>
        <time>2013-05-08T14:44:24Z</time>
      </trkpt>
      <trkpt lat="41.46583" lon="-1.66298">
        <ele>999.011</ele>
        <time>2013-05-08T14:44:23Z</time>
      </trkpt>
      <trkpt lat="41.46601" lon="-1.66255">
        <ele>1000.928</ele>
        <time>2013-05-08T14:44:15Z</time>
      </trkpt>
      <trkpt lat="41.46616" lon="-1.66236">
        <ele>1002.836</ele>
        <time>2013-05-08T14:44:09Z</time>
      </trkpt>
      <trkpt lat="41.46618" lon="-1.66209">
        <ele>1003.399</ele>
        <time>2013-05-08T14:44:00Z</time>
      </trkpt>
      <trkpt lat="41.46625" lon="-1.66174">
        <ele>1004.754</ele>
        <time>2013-05-08T14:43:52Z</time>
      </trkpt>
      <trkpt lat="41.46626" lon="-1.66147">
        <ele>1008.156</ele>
        <time>2013-05-08T14:43:45Z</time>
      </trkpt>
      <trkpt lat="41.46623" lon="-1.66121">
        <ele>1011.011</ele>
        <time>2013-05-08T14:43:37Z</time>
      </trkpt>
      <trkpt lat="41.46623" lon="-1.66109">
        <ele>1012.408</ele>
        <time>2013-05-08T14:43:33Z</time>
      </trkpt>
      <trkpt lat="41.46623" lon="-1.66089">
        <ele>1015.346</ele>
        <time>2013-05-08T14:43:27Z</time>
      </trkpt>
      <trkpt lat="41.46624" lon="-1.66053">
        <ele>1019.137</ele>
        <time>2013-05-08T14:43:19Z</time>
      </trkpt>
      <trkpt lat="41.46628" lon="-1.66032">
        <ele>1021.129</ele>
        <time>2013-05-08T14:43:15Z</time>
      </trkpt>
      <trkpt lat="41.46631" lon="-1.66011">
        <ele>1022.584</ele>
        <time>2013-05-08T14:43:12Z</time>
      </trkpt>
      <trkpt lat="41.4663" lon="-1.65993">
        <ele>1024.911</ele>
        <time>2013-05-08T14:43:09Z</time>
      </trkpt>
      <trkpt lat="41.46631" lon="-1.65957">
        <ele>1028.378</ele>
        <time>2013-05-08T14:43:03Z</time>
      </trkpt>
      <trkpt lat="41.46636" lon="-1.6592">
        <ele>1033.116</ele>
        <time>2013-05-08T14:42:58Z</time>
      </trkpt>
      <trkpt lat="41.46637" lon="-1.65913">
        <ele>1033.629</ele>
        <time>2013-05-08T14:42:57Z</time>
      </trkpt>
      <trkpt lat="41.4664" lon="-1.65885">
        <ele>1037.971</ele>
        <time>2013-05-08T14:42:52Z</time>
      </trkpt>
      <trkpt lat="41.46639" lon="-1.65869">
        <ele>1039.841</ele>
        <time>2013-05-08T14:42:49Z</time>
      </trkpt>
      <trkpt lat="41.46636" lon="-1.65856">
        <ele>1041.315</ele>
        <time>2013-05-08T14:42:47Z</time>
      </trkpt>
      <trkpt lat="41.46622" lon="-1.65836">
        <ele>1044.108</ele>
        <time>2013-05-08T14:42:43Z</time>
      </trkpt>
      <trkpt lat="41.46599" lon="-1.65834">
        <ele>1048.558</ele>
        <time>2013-05-08T14:42:38Z</time>
      </trkpt>
      <trkpt lat="41.46566" lon="-1.6586">
        <ele>1050.979</ele>
        <time>2013-05-08T14:42:30Z</time>
      </trkpt>
      <trkpt lat="41.46557" lon="-1.65868">
        <ele>1052.321</ele>
        <time>2013-05-08T14:42:27Z</time>
      </trkpt>
      <trkpt lat="41.46552" lon="-1.65874">
        <ele>1052.896</ele>
        <time>2013-05-08T14:42:25Z</time>
      </trkpt>
      <trkpt lat="41.4654" lon="-1.65883">
        <ele>1054.773</ele>
        <time>2013-05-08T14:42:21Z</time>
      </trkpt>
      <trkpt lat="41.46529" lon="-1.65864">
        <ele>1059.06</ele>
        <time>2013-05-08T14:42:15Z</time>
      </trkpt>
      <trkpt lat="41.4653" lon="-1.65858">
        <ele>1059.598</ele>
        <time>2013-05-08T14:42:14Z</time>
      </trkpt>
      <trkpt lat="41.4653" lon="-1.65824">
        <ele>1063.491</ele>
        <time>2013-05-08T14:42:09Z</time>
      </trkpt>
      <trkpt lat="41.46529" lon="-1.65795">
        <ele>1067.221</ele>
        <time>2013-05-08T14:42:05Z</time>
      </trkpt>
      <trkpt lat="41.46524" lon="-1.65766">
        <ele>1068.641</ele>
        <time>2013-05-08T14:42:01Z</time>
      </trkpt>
      <trkpt lat="41.46524" lon="-1.65728">
        <ele>1070.105</ele>
        <time>2013-05-08T14:41:57Z</time>
      </trkpt>
      <trkpt lat="41.46528" lon="-1.65614">
        <ele>1073.908</ele>
        <time>2013-05-08T14:41:48Z</time>
      </trkpt>
      <trkpt lat="41.46521" lon="-1.65581">
        <ele>1075.963</ele>
        <time>2013-05-08T14:41:45Z</time>
      </trkpt>
      <trkpt lat="41.46491" lon="-1.65505">
        <ele>1080.284</ele>
        <time>2013-05-08T14:41:36Z</time>
      </trkpt>
      <trkpt lat="41.46463" lon="-1.65458">
        <ele>1082.176</ele>
        <time>2013-05-08T14:41:29Z</time>
      </trkpt>
      <trkpt lat="41.46456" lon="-1.6544">
        <ele>1084.091</ele>
        <time>2013-05-08T14:41:26Z</time>
      </trkpt>
      <trkpt lat="41.46446" lon="-1.65404">
        <ele>1085.048</ele>
        <time>2013-05-08T14:41:19Z</time>
      </trkpt>
      <trkpt lat="41.46435" lon="-1.65349">
        <ele>1088.425</ele>
        <time>2013-05-08T14:41:11Z</time>
      </trkpt>
      <trkpt lat="41.46423" lon="-1.65301">
        <ele>1090.313</ele>
        <time>2013-05-08T14:41:04Z</time>
      </trkpt>
      <trkpt lat="41.4642" lon="-1.65295">
        <ele>1090.316</ele>
        <time>2013-05-08T14:41:03Z</time>
      </trkpt>
      <trkpt lat="41.46416" lon="-1.65281">
        <ele>1091.294</ele>
        <time>2013-05-08T14:41:01Z</time>
      </trkpt>
      <trkpt lat="41.46415" lon="-1.6525">
        <ele>1095.657</ele>
        <time>2013-05-08T14:40:56Z</time>
      </trkpt>
      <trkpt lat="41.46415" lon="-1.65225">
        <ele>1096.022</ele>
        <time>2013-05-08T14:40:52Z</time>
      </trkpt>
      <trkpt lat="41.4642" lon="-1.65179">
        <ele>1097.508</ele>
        <time>2013-05-08T14:40:47Z</time>
      </trkpt>
      <trkpt lat="41.46422" lon="-1.65171">
        <ele>1097.56</ele>
        <time>2013-05-08T14:40:46Z</time>
      </trkpt>
      <trkpt lat="41.46449" lon="-1.65078">
        <ele>1099.961</ele>
        <time>2013-05-08T14:40:37Z</time>
      </trkpt>
      <trkpt lat="41.46468" lon="-1.65038">
        <ele>1102.343</ele>
        <time>2013-05-08T14:40:33Z</time>
      </trkpt>
      <trkpt lat="41.46489" lon="-1.64997">
        <ele>1105.798</ele>
        <time>2013-05-08T14:40:28Z</time>
      </trkpt>
      <trkpt lat="41.46503" lon="-1.64962">
        <ele>1109.045</ele>
        <time>2013-05-08T14:40:24Z</time>
      </trkpt>
      <trkpt lat="41.46508" lon="-1.64954">
        <ele>1110.092</ele>
        <time>2013-05-08T14:40:23Z</time>
      </trkpt>
      <trkpt lat="41.46529" lon="-1.64912">
        <ele>1113.37</ele>
        <time>2013-05-08T14:40:18Z</time>
      </trkpt>
      <trkpt lat="41.46563" lon="-1.64822">
        <ele>1116.273</ele>
        <time>2013-05-08T14:40:08Z</time>
      </trkpt>
      <trkpt lat="41.46584" lon="-1.64781">
        <ele>1119.618</ele>
        <time>2013-05-08T14:40:03Z</time>
      </trkpt>
      <trkpt lat="41.466" lon="-1.64751">
        <ele>1123.998</ele>
        <time>2013-05-08T14:39:59Z</time>
      </trkpt>
      <trkpt lat="41.46613" lon="-1.64736">
        <ele>1127.317</ele>
        <time>2013-05-08T14:39:56Z</time>
      </trkpt>
      <trkpt lat="41.46628" lon="-1.64719">
        <ele>1130.708</ele>
        <time>2013-05-08T14:39:51Z</time>
      </trkpt>
      <trkpt lat="41.46646" lon="-1.64703">
        <ele>1135.032</ele>
        <time>2013-05-08T14:39:43Z</time>
      </trkpt>
      <trkpt lat="41.4665" lon="-1.647">
        <ele>1132.633</ele>
        <time>2013-05-08T14:22:43Z</time>
      </trkpt>
      <trkpt lat="41.4665" lon="-1.64699">
        <ele>1132.615</ele>
        <time>2013-05-08T14:21:56Z</time>
      </trkpt>
      <trkpt lat="41.46653" lon="-1.64694">
        <ele>1132.66</ele>
        <time>2013-05-08T14:21:49Z</time>
      </trkpt>
      <trkpt lat="41.46651" lon="-1.64677">
        <ele>1131.617</ele>
        <time>2013-05-08T14:21:40Z</time>
      </trkpt>
      <trkpt lat="41.46674" lon="-1.64671">
        <ele>1129.234</ele>
        <time>2013-05-08T14:21:26Z</time>
      </trkpt>
      <trkpt lat="41.46702" lon="-1.6467">
        <ele>1127.382</ele>
        <time>2013-05-08T14:21:12Z</time>
      </trkpt>
      <trkpt lat="41.46732" lon="-1.64665">
        <ele>1125.875</ele>
        <time>2013-05-08T14:20:59Z</time>
      </trkpt>
      <trkpt lat="41.46774" lon="-1.64664">
        <ele>1125.445</ele>
        <time>2013-05-08T14:20:46Z</time>
      </trkpt>
      <trkpt lat="41.46824" lon="-1.64653">
        <ele>1125.447</ele>
        <time>2013-05-08T14:20:33Z</time>
      </trkpt>
      <trkpt lat="41.4686" lon="-1.64642">
        <ele>1125.411</ele>
        <time>2013-05-08T14:20:21Z</time>
      </trkpt>
      <trkpt lat="41.46879" lon="-1.64639">
        <ele>1124.908</ele>
        <time>2013-05-08T14:20:10Z</time>
      </trkpt>
      <trkpt lat="41.46896" lon="-1.64643">
        <ele>1123.465</ele>
        <time>2013-05-08T14:19:57Z</time>
      </trkpt>
      <trkpt lat="41.46897" lon="-1.64644">
        <ele>1123.436</ele>
        <time>2013-05-08T14:19:56Z</time>
      </trkpt>
      <trkpt lat="41.46909" lon="-1.64655">
        <ele>1121.518</ele>
        <time>2013-05-08T14:19:44Z</time>
      </trkpt>
      <trkpt lat="41.46922" lon="-1.64668">
        <ele>1119.153</ele>
        <time>2013-05-08T14:19:31Z</time>
      </trkpt>
      <trkpt lat="41.46931" lon="-1.64681">
        <ele>1117.79</ele>
        <time>2013-05-08T14:19:20Z</time>
      </trkpt>
      <trkpt lat="41.46937" lon="-1.64689">
        <ele>1116.777</ele>
        <time>2013-05-08T14:19:13Z</time>
      </trkpt>
      <trkpt lat="41.4695" lon="-1.64706">
        <ele>1114.865</ele>
        <time>2013-05-08T14:18:59Z</time>
      </trkpt>
      <trkpt lat="41.46971" lon="-1.64728">
        <ele>1113.368</ele>
        <time>2013-05-08T14:18:45Z</time>
      </trkpt>
      <trkpt lat="41.46977" lon="-1.64732">
        <ele>1113.322</ele>
        <time>2013-05-08T14:18:34Z</time>
      </trkpt>
      <trkpt lat="41.46976" lon="-1.64732">
        <ele>1113.362</ele>
        <time>2013-05-08T14:18:04Z</time>
      </trkpt>
      <trkpt lat="41.46984" lon="-1.64745">
        <ele>1112.408</ele>
        <time>2013-05-08T14:17:54Z</time>
      </trkpt>
      <trkpt lat="41.47007" lon="-1.64763">
        <ele>1112.408</ele>
        <time>2013-05-08T14:17:42Z</time>
      </trkpt>
      <trkpt lat="41.47025" lon="-1.64776">
        <ele>1112.473</ele>
        <time>2013-05-08T14:17:31Z</time>
      </trkpt>
      <trkpt lat="41.47049" lon="-1.64787">
        <ele>1111.434</ele>
        <time>2013-05-08T14:17:16Z</time>
      </trkpt>
      <trkpt lat="41.47069" lon="-1.64787">
        <ele>1110.086</ele>
        <time>2013-05-08T14:17:02Z</time>
      </trkpt>
      <trkpt lat="41.4707" lon="-1.64786">
        <ele>1110.031</ele>
        <time>2013-05-08T14:17:01Z</time>
      </trkpt>
      <trkpt lat="41.47082" lon="-1.64785">
        <ele>1108.518</ele>
        <time>2013-05-08T14:16:52Z</time>
      </trkpt>
      <trkpt lat="41.47093" lon="-1.64785">
        <ele>1107.695</ele>
        <time>2013-05-08T14:16:44Z</time>
      </trkpt>
      <trkpt lat="41.47101" lon="-1.64784">
        <ele>1107.183</ele>
        <time>2013-05-08T14:16:37Z</time>
      </trkpt>
      <trkpt lat="41.47115" lon="-1.64783">
        <ele>1105.256</ele>
        <time>2013-05-08T14:16:24Z</time>
      </trkpt>
      <trkpt lat="41.4713" lon="-1.64784">
        <ele>1103.327</ele>
        <time>2013-05-08T14:16:10Z</time>
      </trkpt>
      <trkpt lat="41.47148" lon="-1.64786">
        <ele>1101.868</ele>
        <time>2013-05-08T14:15:55Z</time>
      </trkpt>
      <trkpt lat="41.47158" lon="-1.64787">
        <ele>1099.914</ele>
        <time>2013-05-08T14:15:46Z</time>
      </trkpt>
      <trkpt lat="41.47173" lon="-1.64789">
        <ele>1098.408</ele>
        <time>2013-05-08T14:15:33Z</time>
      </trkpt>
      <trkpt lat="41.47189" lon="-1.64793">
        <ele>1096.043</ele>
        <time>2013-05-08T14:15:19Z</time>
      </trkpt>
      <trkpt lat="41.47204" lon="-1.64804">
        <ele>1094.144</ele>
        <time>2013-05-08T14:15:06Z</time>
      </trkpt>
      <trkpt lat="41.47218" lon="-1.64823">
        <ele>1092.796</ele>
        <time>2013-05-08T14:14:51Z</time>
      </trkpt>
      <trkpt lat="41.47232" lon="-1.6484">
        <ele>1090.861</ele>
        <time>2013-05-08T14:14:37Z</time>
      </trkpt>
      <trkpt lat="41.47244" lon="-1.64856">
        <ele>1088.898</ele>
        <time>2013-05-08T14:14:25Z</time>
      </trkpt>
      <trkpt lat="41.47258" lon="-1.64876">
        <ele>1086.965</ele>
        <time>2013-05-08T14:14:08Z</time>
      </trkpt>
      <trkpt lat="41.47267" lon="-1.64892">
        <ele>1085.543</ele>
        <time>2013-05-08T14:13:55Z</time>
      </trkpt>
      <trkpt lat="41.47279" lon="-1.64911">
        <ele>1084.516</ele>
        <time>2013-05-08T14:13:39Z</time>
      </trkpt>
      <trkpt lat="41.47286" lon="-1.64924">
        <ele>1082.612</ele>
        <time>2013-05-08T14:13:29Z</time>
      </trkpt>
      <trkpt lat="41.47298" lon="-1.64947">
        <ele>1079.732</ele>
        <time>2013-05-08T14:13:12Z</time>
      </trkpt>
      <trkpt lat="41.47304" lon="-1.64959">
        <ele>1078.705</ele>
        <time>2013-05-08T14:13:02Z</time>
      </trkpt>
      <trkpt lat="41.47305" lon="-1.6496">
        <ele>1078.308</ele>
        <time>2013-05-08T14:13:01Z</time>
      </trkpt>
      <trkpt lat="41.47312" lon="-1.64975">
        <ele>1076.882</ele>
        <time>2013-05-08T14:12:49Z</time>
      </trkpt>
      <trkpt lat="41.47324" lon="-1.64992">
        <ele>1074.993</ele>
        <time>2013-05-08T14:12:34Z</time>
      </trkpt>
      <trkpt lat="41.47328" lon="-1.65007">
        <ele>1073.095</ele>
        <time>2013-05-08T14:12:25Z</time>
      </trkpt>
      <trkpt lat="41.47353" lon="-1.65044">
        <ele>1072.01</ele>
        <time>2013-05-08T14:12:11Z</time>
      </trkpt>
      <trkpt lat="41.47376" lon="-1.65065">
        <ele>1071.587</ele>
        <time>2013-05-08T14:12:00Z</time>
      </trkpt>
      <trkpt lat="41.47399" lon="-1.65097">
        <ele>1072.014</ele>
        <time>2013-05-08T14:11:46Z</time>
      </trkpt>
      <trkpt lat="41.47419" lon="-1.65126">
        <ele>1071.122</ele>
        <time>2013-05-08T14:11:32Z</time>
      </trkpt>
      <trkpt lat="41.47437" lon="-1.65147">
        <ele>1069.615</ele>
        <time>2013-05-08T14:11:19Z</time>
      </trkpt>
      <trkpt lat="41.47455" lon="-1.65165">
        <ele>1068.698</ele>
        <time>2013-05-08T14:11:04Z</time>
      </trkpt>
      <trkpt lat="41.47471" lon="-1.65176">
        <ele>1066.215</ele>
        <time>2013-05-08T14:10:50Z</time>
      </trkpt>
      <trkpt lat="41.47486" lon="-1.65184">
        <ele>1064.326</ele>
        <time>2013-05-08T14:10:38Z</time>
      </trkpt>
      <trkpt lat="41.47506" lon="-1.65197">
        <ele>1063.408</ele>
        <time>2013-05-08T14:10:26Z</time>
      </trkpt>
      <trkpt lat="41.47542" lon="-1.65224">
        <ele>1063.48</ele>
        <time>2013-05-08T14:10:13Z</time>
      </trkpt>
      <trkpt lat="41.47575" lon="-1.65236">
        <ele>1063.881</ele>
        <time>2013-05-08T14:10:01Z</time>
      </trkpt>
      <trkpt lat="41.47594" lon="-1.65236">
        <ele>1062.413</ele>
        <time>2013-05-08T14:09:53Z</time>
      </trkpt>
      <trkpt lat="41.47631" lon="-1.65243">
        <ele>1062.448</ele>
        <time>2013-05-08T14:09:42Z</time>
      </trkpt>
      <trkpt lat="41.47663" lon="-1.6526">
        <ele>1063.435</ele>
        <time>2013-05-08T14:09:31Z</time>
      </trkpt>
      <trkpt lat="41.47683" lon="-1.6527">
        <ele>1063.432</ele>
        <time>2013-05-08T14:09:21Z</time>
      </trkpt>
      <trkpt lat="41.47701" lon="-1.65281">
        <ele>1063.44</ele>
        <time>2013-05-08T14:09:11Z</time>
      </trkpt>
      <trkpt lat="41.47724" lon="-1.65296">
        <ele>1063.473</ele>
        <time>2013-05-08T14:08:59Z</time>
      </trkpt>
      <trkpt lat="41.47746" lon="-1.65314">
        <ele>1063.482</ele>
        <time>2013-05-08T14:08:47Z</time>
      </trkpt>
      <trkpt lat="41.47765" lon="-1.65333">
        <ele>1063.443</ele>
        <time>2013-05-08T14:08:35Z</time>
      </trkpt>
      <trkpt lat="41.47771" lon="-1.65337">
        <ele>1063.417</ele>
        <time>2013-05-08T14:08:31Z</time>
      </trkpt>
      <trkpt lat="41.4778" lon="-1.65347">
        <ele>1063.408</ele>
        <time>2013-05-08T14:08:23Z</time>
      </trkpt>
      <trkpt lat="41.47787" lon="-1.65356">
        <ele>1063.499</ele>
        <time>2013-05-08T14:08:13Z</time>
      </trkpt>
      <trkpt lat="41.47787" lon="-1.65354">
        <ele>1063.42</ele>
        <time>2013-05-08T14:07:40Z</time>
      </trkpt>
      <trkpt lat="41.47788" lon="-1.65355">
        <ele>1063.482</ele>
        <time>2013-05-08T14:07:32Z</time>
      </trkpt>
      <trkpt lat="41.47816" lon="-1.65387">
        <ele>1063.467</ele>
        <time>2013-05-08T14:07:18Z</time>
      </trkpt>
      <trkpt lat="41.47834" lon="-1.65404">
        <ele>1063.454</ele>
        <time>2013-05-08T14:07:08Z</time>
      </trkpt>
      <trkpt lat="41.47847" lon="-1.65415">
        <ele>1063.471</ele>
        <time>2013-05-08T14:06:56Z</time>
      </trkpt>
      <trkpt lat="41.47849" lon="-1.65416">
        <ele>1063.499</ele>
        <time>2013-05-08T14:06:55Z</time>
      </trkpt>
      <trkpt lat="41.47849" lon="-1.65406">
        <ele>1062.412</ele>
        <time>2013-05-08T14:06:44Z</time>
      </trkpt>
      <trkpt lat="41.47843" lon="-1.65398">
        <ele>1060.528</ele>
        <time>2013-05-08T14:06:35Z</time>
      </trkpt>
      <trkpt lat="41.47834" lon="-1.65386">
        <ele>1059.589</ele>
        <time>2013-05-08T14:06:21Z</time>
      </trkpt>
      <trkpt lat="41.47827" lon="-1.65372">
        <ele>1057.117</ele>
        <time>2013-05-08T14:06:06Z</time>
      </trkpt>
      <trkpt lat="41.4782" lon="-1.65358">
        <ele>1055.208</ele>
        <time>2013-05-08T14:05:53Z</time>
      </trkpt>
      <trkpt lat="41.47816" lon="-1.65344">
        <ele>1053.753</ele>
        <time>2013-05-08T14:05:42Z</time>
      </trkpt>
      <trkpt lat="41.47809" lon="-1.65327">
        <ele>1052.364</ele>
        <time>2013-05-08T14:05:28Z</time>
      </trkpt>
      <trkpt lat="41.47805" lon="-1.65316">
        <ele>1051.316</ele>
        <time>2013-05-08T14:05:18Z</time>
      </trkpt>
      <trkpt lat="41.47798" lon="-1.65295">
        <ele>1048.511</ele>
        <time>2013-05-08T14:05:02Z</time>
      </trkpt>
      <trkpt lat="41.47791" lon="-1.65277">
        <ele>1047.038</ele>
        <time>2013-05-08T14:04:48Z</time>
      </trkpt>
      <trkpt lat="41.47785" lon="-1.65257">
        <ele>1045.145</ele>
        <time>2013-05-08T14:04:34Z</time>
      </trkpt>
      <trkpt lat="41.4778" lon="-1.65243">
        <ele>1044.173</ele>
        <time>2013-05-08T14:04:23Z</time>
      </trkpt>
      <trkpt lat="41.4777" lon="-1.65217">
        <ele>1041.316</ele>
        <time>2013-05-08T14:04:06Z</time>
      </trkpt>
      <trkpt lat="41.47764" lon="-1.65194">
        <ele>1039.822</ele>
        <time>2013-05-08T14:03:53Z</time>
      </trkpt>
      <trkpt lat="41.47756" lon="-1.65167">
        <ele>1038.462</ele>
        <time>2013-05-08T14:03:38Z</time>
      </trkpt>
      <trkpt lat="41.47749" lon="-1.6514">
        <ele>1037.408</ele>
        <time>2013-05-08T14:03:23Z</time>
      </trkpt>
      <trkpt lat="41.47741" lon="-1.65115">
        <ele>1036.408</ele>
        <time>2013-05-08T14:03:07Z</time>
      </trkpt>
      <trkpt lat="41.47735" lon="-1.65099">
        <ele>1035.093</ele>
        <time>2013-05-08T14:02:56Z</time>
      </trkpt>
      <trkpt lat="41.47735" lon="-1.65081">
        <ele>1033.634</ele>
        <time>2013-05-08T14:02:44Z</time>
      </trkpt>
      <trkpt lat="41.47745" lon="-1.65073">
        <ele>1032.156</ele>
        <time>2013-05-08T14:02:33Z</time>
      </trkpt>
      <trkpt lat="41.47755" lon="-1.65071">
        <ele>1031.261</ele>
        <time>2013-05-08T14:02:24Z</time>
      </trkpt>
      <trkpt lat="41.47768" lon="-1.6507">
        <ele>1030.238</ele>
        <time>2013-05-08T14:02:12Z</time>
      </trkpt>
      <trkpt lat="41.47773" lon="-1.6507">
        <ele>1029.795</ele>
        <time>2013-05-08T14:02:07Z</time>
      </trkpt>
      <trkpt lat="41.47779" lon="-1.65069">
        <ele>1029.283</ele>
        <time>2013-05-08T14:02:01Z</time>
      </trkpt>
      <trkpt lat="41.47781" lon="-1.65066">
        <ele>1028.826</ele>
        <time>2013-05-08T14:01:58Z</time>
      </trkpt>
      <trkpt lat="41.47782" lon="-1.65061">
        <ele>1028.884</ele>
        <time>2013-05-08T14:01:54Z</time>
      </trkpt>
      <trkpt lat="41.47776" lon="-1.65046">
        <ele>1026.307</ele>
        <time>2013-05-08T14:01:40Z</time>
      </trkpt>
      <trkpt lat="41.47768" lon="-1.65038">
        <ele>1024.417</ele>
        <time>2013-05-08T14:01:30Z</time>
      </trkpt>
      <trkpt lat="41.47758" lon="-1.65032">
        <ele>1022.508</ele>
        <time>2013-05-08T14:01:17Z</time>
      </trkpt>
      <trkpt lat="41.47744" lon="-1.65026">
        <ele>1020.699</ele>
        <time>2013-05-08T14:01:02Z</time>
      </trkpt>
      <trkpt lat="41.47725" lon="-1.65025">
        <ele>1018.25</ele>
        <time>2013-05-08T14:00:46Z</time>
      </trkpt>
      <trkpt lat="41.47711" lon="-1.65019">
        <ele>1016.792</ele>
        <time>2013-05-08T14:00:34Z</time>
      </trkpt>
      <trkpt lat="41.47684" lon="-1.65003">
        <ele>1015.837</ele>
        <time>2013-05-08T14:00:20Z</time>
      </trkpt>
      <trkpt lat="41.47662" lon="-1.64997">
        <ele>1015.344</ele>
        <time>2013-05-08T14:00:08Z</time>
      </trkpt>
      <trkpt lat="41.47647" lon="-1.64997">
        <ele>1015.391</ele>
        <time>2013-05-08T13:59:59Z</time>
      </trkpt>
      <trkpt lat="41.47631" lon="-1.64993">
        <ele>1013.999</ele>
        <time>2013-05-08T13:59:46Z</time>
      </trkpt>
      <trkpt lat="41.47628" lon="-1.64992">
        <ele>1013.442</ele>
        <time>2013-05-08T13:59:43Z</time>
      </trkpt>
      <trkpt lat="41.47626" lon="-1.64989">
        <ele>1012.422</ele>
        <time>2013-05-08T13:59:39Z</time>
      </trkpt>
      <trkpt lat="41.47623" lon="-1.64986">
        <ele>1011.962</ele>
        <time>2013-05-08T13:59:35Z</time>
      </trkpt>
      <trkpt lat="41.47623" lon="-1.64966">
        <ele>1011.008</ele>
        <time>2013-05-08T13:59:24Z</time>
      </trkpt>
      <trkpt lat="41.47636" lon="-1.64938">
        <ele>1010.508</ele>
        <time>2013-05-08T13:59:11Z</time>
      </trkpt>
      <trkpt lat="41.47644" lon="-1.64914">
        <ele>1010.053</ele>
        <time>2013-05-08T13:58:59Z</time>
      </trkpt>
      <trkpt lat="41.47651" lon="-1.64895">
        <ele>1008.664</ele>
        <time>2013-05-08T13:58:46Z</time>
      </trkpt>
      <trkpt lat="41.47656" lon="-1.64879">
        <ele>1007.196</ele>
        <time>2013-05-08T13:58:34Z</time>
      </trkpt>
      <trkpt lat="41.47659" lon="-1.6487">
        <ele>1006.281</ele>
        <time>2013-05-08T13:58:28Z</time>
      </trkpt>
      <trkpt lat="41.47662" lon="-1.64856">
        <ele>1004.718</ele>
        <time>2013-05-08T13:58:17Z</time>
      </trkpt>
      <trkpt lat="41.47664" lon="-1.64833">
        <ele>1002.875</ele>
        <time>2013-05-08T13:58:02Z</time>
      </trkpt>
      <trkpt lat="41.47666" lon="-1.64811">
        <ele>1001.843</ele>
        <time>2013-05-08T13:57:48Z</time>
      </trkpt>
      <trkpt lat="41.47666" lon="-1.64805">
        <ele>1000.946</ele>
        <time>2013-05-08T13:57:44Z</time>
      </trkpt>
      <trkpt lat="41.47666" lon="-1.648">
        <ele>1000.447</ele>
        <time>2013-05-08T13:57:41Z</time>
      </trkpt>
      <trkpt lat="41.47666" lon="-1.64794">
        <ele>1000.429</ele>
        <time>2013-05-08T13:57:37Z</time>
      </trkpt>
      <trkpt lat="41.47667" lon="-1.64792">
        <ele>1000.421</ele>
        <time>2013-05-08T13:57:35Z</time>
      </trkpt>
      <trkpt lat="41.4767" lon="-1.64774">
        <ele>998.508</ele>
        <time>2013-05-08T13:57:23Z</time>
      </trkpt>
      <trkpt lat="41.47672" lon="-1.6476">
        <ele>997.535</ele>
        <time>2013-05-08T13:57:13Z</time>
      </trkpt>
      <trkpt lat="41.47676" lon="-1.6474">
        <ele>994.696</ele>
        <time>2013-05-08T13:56:57Z</time>
      </trkpt>
      <trkpt lat="41.47679" lon="-1.64722">
        <ele>993.738</ele>
        <time>2013-05-08T13:56:45Z</time>
      </trkpt>
      <trkpt lat="41.47683" lon="-1.64707">
        <ele>992.223</ele>
        <time>2013-05-08T13:56:35Z</time>
      </trkpt>
      <trkpt lat="41.47685" lon="-1.647">
        <ele>991.78</ele>
        <time>2013-05-08T13:56:30Z</time>
      </trkpt>
      <trkpt lat="41.4769" lon="-1.64681">
        <ele>990.827</ele>
        <time>2013-05-08T13:56:17Z</time>
      </trkpt>
      <trkpt lat="41.4769" lon="-1.64678">
        <ele>990.335</ele>
        <time>2013-05-08T13:56:15Z</time>
      </trkpt>
      <trkpt lat="41.47694" lon="-1.64654">
        <ele>988.438</ele>
        <time>2013-05-08T13:55:58Z</time>
      </trkpt>
      <trkpt lat="41.47695" lon="-1.64646">
        <ele>987.421</ele>
        <time>2013-05-08T13:55:52Z</time>
      </trkpt>
      <trkpt lat="41.47697" lon="-1.64639">
        <ele>986.941</ele>
        <time>2013-05-08T13:55:47Z</time>
      </trkpt>
      <trkpt lat="41.47704" lon="-1.64618">
        <ele>985.005</ele>
        <time>2013-05-08T13:55:31Z</time>
      </trkpt>
      <trkpt lat="41.47703" lon="-1.646">
        <ele>983.108</ele>
        <time>2013-05-08T13:55:18Z</time>
      </trkpt>
      <trkpt lat="41.47702" lon="-1.64582">
        <ele>980.773</ele>
        <time>2013-05-08T13:55:05Z</time>
      </trkpt>
      <trkpt lat="41.477" lon="-1.64562">
        <ele>978.894</ele>
        <time>2013-05-08T13:54:51Z</time>
      </trkpt>
      <trkpt lat="41.47696" lon="-1.64544">
        <ele>976.826</ele>
        <time>2013-05-08T13:54:37Z</time>
      </trkpt>
      <trkpt lat="41.47693" lon="-1.64518">
        <ele>974.481</ele>
        <time>2013-05-08T13:54:19Z</time>
      </trkpt>
      <trkpt lat="41.47692" lon="-1.6451">
        <ele>973.528</ele>
        <time>2013-05-08T13:54:14Z</time>
      </trkpt>
      <trkpt lat="41.47687" lon="-1.64487">
        <ele>972.075</ele>
        <time>2013-05-08T13:54:01Z</time>
      </trkpt>
      <trkpt lat="41.47675" lon="-1.64458">
        <ele>971.123</ele>
        <time>2013-05-08T13:53:49Z</time>
      </trkpt>
      <trkpt lat="41.47657" lon="-1.64433">
        <ele>970.646</ele>
        <time>2013-05-08T13:53:38Z</time>
      </trkpt>
      <trkpt lat="41.47637" lon="-1.64405">
        <ele>970.159</ele>
        <time>2013-05-08T13:53:25Z</time>
      </trkpt>
      <trkpt lat="41.47624" lon="-1.6438">
        <ele>969.203</ele>
        <time>2013-05-08T13:53:14Z</time>
      </trkpt>
      <trkpt lat="41.47611" lon="-1.64353">
        <ele>967.723</ele>
        <time>2013-05-08T13:53:01Z</time>
      </trkpt>
      <trkpt lat="41.47598" lon="-1.64326">
        <ele>966.308</ele>
        <time>2013-05-08T13:52:46Z</time>
      </trkpt>
      <trkpt lat="41.47588" lon="-1.64308">
        <ele>964.846</ele>
        <time>2013-05-08T13:52:35Z</time>
      </trkpt>
      <trkpt lat="41.47577" lon="-1.64289">
        <ele>963.917</ele>
        <time>2013-05-08T13:52:22Z</time>
      </trkpt>
      <trkpt lat="41.47567" lon="-1.64268">
        <ele>962.919</ele>
        <time>2013-05-08T13:52:07Z</time>
      </trkpt>
      <trkpt lat="41.47564" lon="-1.64258">
        <ele>961.984</ele>
        <time>2013-05-08T13:52:00Z</time>
      </trkpt>
      <trkpt lat="41.47552" lon="-1.64239">
        <ele>960.531</ele>
        <time>2013-05-08T13:51:47Z</time>
      </trkpt>
      <trkpt lat="41.47544" lon="-1.64216">
        <ele>959.558</ele>
        <time>2013-05-08T13:51:34Z</time>
      </trkpt>
      <trkpt lat="41.47536" lon="-1.64197">
        <ele>959.146</ele>
        <time>2013-05-08T13:51:22Z</time>
      </trkpt>
      <trkpt lat="41.47524" lon="-1.6418">
        <ele>958.699</ele>
        <time>2013-05-08T13:51:10Z</time>
      </trkpt>
      <trkpt lat="41.47512" lon="-1.64165">
        <ele>957.682</ele>
        <time>2013-05-08T13:50:57Z</time>
      </trkpt>
      <trkpt lat="41.47501" lon="-1.64151">
        <ele>955.743</ele>
        <time>2013-05-08T13:50:44Z</time>
      </trkpt>
      <trkpt lat="41.47487" lon="-1.64136">
        <ele>954.317</ele>
        <time>2013-05-08T13:50:29Z</time>
      </trkpt>
      <trkpt lat="41.47476" lon="-1.64125">
        <ele>953.308</ele>
        <time>2013-05-08T13:50:16Z</time>
      </trkpt>
      <trkpt lat="41.47471" lon="-1.6412">
        <ele>952.829</ele>
        <time>2013-05-08T13:50:11Z</time>
      </trkpt>
      <trkpt lat="41.47461" lon="-1.64112">
        <ele>951.86</ele>
        <time>2013-05-08T13:50:01Z</time>
      </trkpt>
      <trkpt lat="41.47451" lon="-1.64104">
        <ele>949.972</ele>
        <time>2013-05-08T13:49:49Z</time>
      </trkpt>
      <trkpt lat="41.47449" lon="-1.64101">
        <ele>949.497</ele>
        <time>2013-05-08T13:49:45Z</time>
      </trkpt>
      <trkpt lat="41.47448" lon="-1.64097">
        <ele>949.094</ele>
        <time>2013-05-08T13:49:41Z</time>
      </trkpt>
      <trkpt lat="41.4745" lon="-1.64085">
        <ele>947.541</ele>
        <time>2013-05-08T13:49:30Z</time>
      </trkpt>
      <trkpt lat="41.47455" lon="-1.64075">
        <ele>945.699</ele>
        <time>2013-05-08T13:49:19Z</time>
      </trkpt>
      <trkpt lat="41.4746" lon="-1.64062">
        <ele>943.782</ele>
        <time>2013-05-08T13:49:06Z</time>
      </trkpt>
      <trkpt lat="41.47467" lon="-1.64046">
        <ele>941.852</ele>
        <time>2013-05-08T13:48:52Z</time>
      </trkpt>
      <trkpt lat="41.47476" lon="-1.6403">
        <ele>939.853</ele>
        <time>2013-05-08T13:48:38Z</time>
      </trkpt>
      <trkpt lat="41.47489" lon="-1.6402">
        <ele>938.908</ele>
        <time>2013-05-08T13:48:25Z</time>
      </trkpt>
      <trkpt lat="41.475" lon="-1.64005">
        <ele>937.408</ele>
        <time>2013-05-08T13:48:09Z</time>
      </trkpt>
      <trkpt lat="41.47502" lon="-1.64004">
        <ele>937.426</ele>
        <time>2013-05-08T13:48:07Z</time>
      </trkpt>
      <trkpt lat="41.47518" lon="-1.63997">
        <ele>935.067</ele>
        <time>2013-05-08T13:47:50Z</time>
      </trkpt>
      <trkpt lat="41.47522" lon="-1.63994">
        <ele>933.679</ele>
        <time>2013-05-08T13:47:45Z</time>
      </trkpt>
      <trkpt lat="41.47525" lon="-1.63982">
        <ele>932.644</ele>
        <time>2013-05-08T13:47:36Z</time>
      </trkpt>
      <trkpt lat="41.47521" lon="-1.63959">
        <ele>930.741</ele>
        <time>2013-05-08T13:47:20Z</time>
      </trkpt>
      <trkpt lat="41.47517" lon="-1.6394">
        <ele>928.828</ele>
        <time>2013-05-08T13:47:07Z</time>
      </trkpt>
      <trkpt lat="41.47516" lon="-1.63931">
        <ele>928.376</ele>
        <time>2013-05-08T13:47:02Z</time>
      </trkpt>
      <trkpt lat="41.47514" lon="-1.63914">
        <ele>926.949</ele>
        <time>2013-05-08T13:46:52Z</time>
      </trkpt>
      <trkpt lat="41.47509" lon="-1.63894">
        <ele>925.935</ele>
        <time>2013-05-08T13:46:40Z</time>
      </trkpt>
      <trkpt lat="41.47491" lon="-1.63883">
        <ele>924.986</ele>
        <time>2013-05-08T13:46:24Z</time>
      </trkpt>
      <trkpt lat="41.4748" lon="-1.63876">
        <ele>924.914</ele>
        <time>2013-05-08T13:46:14Z</time>
      </trkpt>
      <trkpt lat="41.47477" lon="-1.63876">
        <ele>924.008</ele>
        <time>2013-05-08T13:46:11Z</time>
      </trkpt>
      <trkpt lat="41.47476" lon="-1.63875">
        <ele>924.094</ele>
        <time>2013-05-08T13:46:10Z</time>
      </trkpt>
      <trkpt lat="41.47473" lon="-1.63871">
        <ele>924.045</ele>
        <time>2013-05-08T13:45:37Z</time>
      </trkpt>
      <trkpt lat="41.47471" lon="-1.63864">
        <ele>923.597</ele>
        <time>2013-05-08T13:45:28Z</time>
      </trkpt>
      <trkpt lat="41.47468" lon="-1.63857">
        <ele>923.592</ele>
        <time>2013-05-08T13:45:23Z</time>
      </trkpt>
      <trkpt lat="41.47466" lon="-1.63855">
        <ele>923.579</ele>
        <time>2013-05-08T13:45:21Z</time>
      </trkpt>
      <trkpt lat="41.47465" lon="-1.63854">
        <ele>923.596</ele>
        <time>2013-05-08T13:45:20Z</time>
      </trkpt>
      <trkpt lat="41.47442" lon="-1.6384">
        <ele>922.544</ele>
        <time>2013-05-08T13:45:05Z</time>
      </trkpt>
      <trkpt lat="41.47432" lon="-1.63833">
        <ele>922.577</ele>
        <time>2013-05-08T13:44:57Z</time>
      </trkpt>
      <trkpt lat="41.47432" lon="-1.6383">
        <ele>922.057</ele>
        <time>2013-05-08T13:44:55Z</time>
      </trkpt>
      <trkpt lat="41.47442" lon="-1.63815">
        <ele>920.6</ele>
        <time>2013-05-08T13:44:42Z</time>
      </trkpt>
      <trkpt lat="41.47447" lon="-1.63806">
        <ele>919.62</ele>
        <time>2013-05-08T13:44:34Z</time>
      </trkpt>
      <trkpt lat="41.47448" lon="-1.63805">
        <ele>919.208</ele>
        <time>2013-05-08T13:44:33Z</time>
      </trkpt>
      <trkpt lat="41.47454" lon="-1.63793">
        <ele>918.286</ele>
        <time>2013-05-08T13:44:25Z</time>
      </trkpt>
      <trkpt lat="41.47458" lon="-1.63781">
        <ele>918.787</ele>
        <time>2013-05-08T13:34:56Z</time>
      </trkpt>
      <trkpt lat="41.47465" lon="-1.63766">
        <ele>917.719</ele>
        <time>2013-05-08T13:34:44Z</time>
      </trkpt>
      <trkpt lat="41.47465" lon="-1.63765">
        <ele>917.744</ele>
        <time>2013-05-08T13:34:43Z</time>
      </trkpt>
      <trkpt lat="41.47467" lon="-1.63763">
        <ele>917.231</ele>
        <time>2013-05-08T13:34:41Z</time>
      </trkpt>
      <trkpt lat="41.47468" lon="-1.63762">
        <ele>917.298</ele>
        <time>2013-05-08T13:34:40Z</time>
      </trkpt>
      <trkpt lat="41.47465" lon="-1.63752">
        <ele>916.396</ele>
        <time>2013-05-08T13:34:30Z</time>
      </trkpt>
      <trkpt lat="41.47464" lon="-1.63751">
        <ele>915.899</ele>
        <time>2013-05-08T13:34:29Z</time>
      </trkpt>
      <trkpt lat="41.47467" lon="-1.63737">
        <ele>915.364</ele>
        <time>2013-05-08T13:34:19Z</time>
      </trkpt>
      <trkpt lat="41.47468" lon="-1.63736">
        <ele>915.306</ele>
        <time>2013-05-08T13:34:18Z</time>
      </trkpt>
      <trkpt lat="41.4747" lon="-1.63725">
        <ele>913.916</ele>
        <time>2013-05-08T13:34:08Z</time>
      </trkpt>
      <trkpt lat="41.4747" lon="-1.63728">
        <ele>914.808</ele>
        <time>2013-05-08T13:33:45Z</time>
      </trkpt>
      <trkpt lat="41.47471" lon="-1.63725">
        <ele>914.897</ele>
        <time>2013-05-08T13:33:28Z</time>
      </trkpt>
      <trkpt lat="41.47473" lon="-1.63725">
        <ele>914.828</ele>
        <time>2013-05-08T13:33:12Z</time>
      </trkpt>
      <trkpt lat="41.47472" lon="-1.63726">
        <ele>915.82</ele>
        <time>2013-05-08T13:32:45Z</time>
      </trkpt>
      <trkpt lat="41.47473" lon="-1.63727">
        <ele>914.435</ele>
        <time>2013-05-08T13:32:30Z</time>
      </trkpt>
      <trkpt lat="41.4747" lon="-1.63721">
        <ele>913.962</ele>
        <time>2013-05-08T13:32:21Z</time>
      </trkpt>
      <trkpt lat="41.47463" lon="-1.63718">
        <ele>912.919</ele>
        <time>2013-05-08T13:32:11Z</time>
      </trkpt>
      <trkpt lat="41.47462" lon="-1.63717">
        <ele>912.917</ele>
        <time>2013-05-08T13:32:10Z</time>
      </trkpt>
      <trkpt lat="41.4746" lon="-1.63716">
        <ele>912.46</ele>
        <time>2013-05-08T13:32:08Z</time>
      </trkpt>
      <trkpt lat="41.47456" lon="-1.63715">
        <ele>912.091</ele>
        <time>2013-05-08T13:32:03Z</time>
      </trkpt>
      <trkpt lat="41.47444" lon="-1.6371">
        <ele>910.081</ele>
        <time>2013-05-08T13:31:49Z</time>
      </trkpt>
      <trkpt lat="41.47443" lon="-1.63709">
        <ele>909.519</ele>
        <time>2013-05-08T13:31:48Z</time>
      </trkpt>
      <trkpt lat="41.47442" lon="-1.63708">
        <ele>909.508</ele>
        <time>2013-05-08T13:31:47Z</time>
      </trkpt>
      <trkpt lat="41.4744" lon="-1.63705">
        <ele>909.15</ele>
        <time>2013-05-08T13:31:44Z</time>
      </trkpt>
      <trkpt lat="41.47439" lon="-1.63704">
        <ele>908.611</ele>
        <time>2013-05-08T13:31:43Z</time>
      </trkpt>
      <trkpt lat="41.47439" lon="-1.63703">
        <ele>908.613</ele>
        <time>2013-05-08T13:31:42Z</time>
      </trkpt>
      <trkpt lat="41.47438" lon="-1.63702">
        <ele>908.698</ele>
        <time>2013-05-08T13:31:41Z</time>
      </trkpt>
      <trkpt lat="41.47438" lon="-1.63701">
        <ele>908.645</ele>
        <time>2013-05-08T13:31:40Z</time>
      </trkpt>
      <trkpt lat="41.47434" lon="-1.63694">
        <ele>907.662</ele>
        <time>2013-05-08T13:31:34Z</time>
      </trkpt>
      <trkpt lat="41.47433" lon="-1.63693">
        <ele>907.68</ele>
        <time>2013-05-08T13:31:33Z</time>
      </trkpt>
      <trkpt lat="41.4743" lon="-1.63688">
        <ele>907.183</ele>
        <time>2013-05-08T13:31:28Z</time>
      </trkpt>
      <trkpt lat="41.47426" lon="-1.63681">
        <ele>906.251</ele>
        <time>2013-05-08T13:31:23Z</time>
      </trkpt>
      <trkpt lat="41.47411" lon="-1.63659">
        <ele>905.701</ele>
        <time>2013-05-08T13:31:09Z</time>
      </trkpt>
      <trkpt lat="41.4741" lon="-1.63658">
        <ele>905.211</ele>
        <time>2013-05-08T13:31:08Z</time>
      </trkpt>
      <trkpt lat="41.47408" lon="-1.63657">
        <ele>905.208</ele>
        <time>2013-05-08T13:31:07Z</time>
      </trkpt>
      <trkpt lat="41.47407" lon="-1.63656">
        <ele>905.286</ele>
        <time>2013-05-08T13:31:06Z</time>
      </trkpt>
      <trkpt lat="41.47406" lon="-1.63654">
        <ele>905.227</ele>
        <time>2013-05-08T13:31:05Z</time>
      </trkpt>
      <trkpt lat="41.47406" lon="-1.63652">
        <ele>905.299</ele>
        <time>2013-05-08T13:31:04Z</time>
      </trkpt>
      <trkpt lat="41.47405" lon="-1.63651">
        <ele>905.254</ele>
        <time>2013-05-08T13:31:03Z</time>
      </trkpt>
      <trkpt lat="41.47385" lon="-1.63645">
        <ele>903.831</ele>
        <time>2013-05-08T13:30:49Z</time>
      </trkpt>
      <trkpt lat="41.47365" lon="-1.63649">
        <ele>903.318</ele>
        <time>2013-05-08T13:30:37Z</time>
      </trkpt>
      <trkpt lat="41.47336" lon="-1.63652">
        <ele>902.886</ele>
        <time>2013-05-08T13:30:22Z</time>
      </trkpt>
      <trkpt lat="41.47314" lon="-1.63649">
        <ele>901.489</ele>
        <time>2013-05-08T13:30:08Z</time>
      </trkpt>
      <trkpt lat="41.47293" lon="-1.63639">
        <ele>899.553</ele>
        <time>2013-05-08T13:29:53Z</time>
      </trkpt>
      <trkpt lat="41.47279" lon="-1.6363">
        <ele>897.504</ele>
        <time>2013-05-08T13:29:41Z</time>
      </trkpt>
      <trkpt lat="41.47272" lon="-1.63607">
        <ele>896.114</ele>
        <time>2013-05-08T13:29:28Z</time>
      </trkpt>
      <trkpt lat="41.47284" lon="-1.63582">
        <ele>896.108</ele>
        <time>2013-05-08T13:29:16Z</time>
      </trkpt>
      <trkpt lat="41.47307" lon="-1.63578">
        <ele>893.776</ele>
        <time>2013-05-08T13:29:02Z</time>
      </trkpt>
      <trkpt lat="41.47331" lon="-1.63573">
        <ele>891.827</ele>
        <time>2013-05-08T13:28:47Z</time>
      </trkpt>
      <trkpt lat="41.47353" lon="-1.63565">
        <ele>890.879</ele>
        <time>2013-05-08T13:28:33Z</time>
      </trkpt>
      <trkpt lat="41.47373" lon="-1.63553">
        <ele>889.474</ele>
        <time>2013-05-08T13:28:19Z</time>
      </trkpt>
      <trkpt lat="41.47374" lon="-1.63552">
        <ele>889.481</ele>
        <time>2013-05-08T13:28:18Z</time>
      </trkpt>
      <trkpt lat="41.47375" lon="-1.63551">
        <ele>889.438</ele>
        <time>2013-05-08T13:28:17Z</time>
      </trkpt>
      <trkpt lat="41.47377" lon="-1.6355">
        <ele>888.456</ele>
        <time>2013-05-08T13:28:16Z</time>
      </trkpt>
      <trkpt lat="41.47378" lon="-1.63549">
        <ele>888.479</ele>
        <time>2013-05-08T13:28:15Z</time>
      </trkpt>
      <trkpt lat="41.4738" lon="-1.63547">
        <ele>888.475</ele>
        <time>2013-05-08T13:28:14Z</time>
      </trkpt>
      <trkpt lat="41.47381" lon="-1.63547">
        <ele>888.428</ele>
        <time>2013-05-08T13:28:13Z</time>
      </trkpt>
      <trkpt lat="41.47396" lon="-1.63531">
        <ele>887.42</ele>
        <time>2013-05-08T13:28:00Z</time>
      </trkpt>
      <trkpt lat="41.47415" lon="-1.63511">
        <ele>886.008</ele>
        <time>2013-05-08T13:27:45Z</time>
      </trkpt>
      <trkpt lat="41.47432" lon="-1.63492">
        <ele>884.698</ele>
        <time>2013-05-08T13:27:32Z</time>
      </trkpt>
      <trkpt lat="41.47449" lon="-1.63471">
        <ele>882.669</ele>
        <time>2013-05-08T13:27:17Z</time>
      </trkpt>
      <trkpt lat="41.47462" lon="-1.63459">
        <ele>881.281</ele>
        <time>2013-05-08T13:27:07Z</time>
      </trkpt>
      <trkpt lat="41.47476" lon="-1.6344">
        <ele>879.716</ele>
        <time>2013-05-08T13:26:54Z</time>
      </trkpt>
      <trkpt lat="41.47493" lon="-1.63423">
        <ele>878.363</ele>
        <time>2013-05-08T13:26:40Z</time>
      </trkpt>
      <trkpt lat="41.47512" lon="-1.63408">
        <ele>876.92</ele>
        <time>2013-05-08T13:26:28Z</time>
      </trkpt>
      <trkpt lat="41.47514" lon="-1.63407">
        <ele>876.948</ele>
        <time>2013-05-08T13:26:27Z</time>
      </trkpt>
      <trkpt lat="41.47516" lon="-1.63406">
        <ele>876.991</ele>
        <time>2013-05-08T13:26:26Z</time>
      </trkpt>
      <trkpt lat="41.47517" lon="-1.63405">
        <ele>876.971</ele>
        <time>2013-05-08T13:26:25Z</time>
      </trkpt>
      <trkpt lat="41.47519" lon="-1.63405">
        <ele>876.941</ele>
        <time>2013-05-08T13:26:24Z</time>
      </trkpt>
      <trkpt lat="41.4752" lon="-1.63404">
        <ele>875.915</ele>
        <time>2013-05-08T13:26:23Z</time>
      </trkpt>
      <trkpt lat="41.47522" lon="-1.63404">
        <ele>875.908</ele>
        <time>2013-05-08T13:26:22Z</time>
      </trkpt>
      <trkpt lat="41.47523" lon="-1.63404">
        <ele>875.998</ele>
        <time>2013-05-08T13:26:21Z</time>
      </trkpt>
      <trkpt lat="41.47525" lon="-1.63404">
        <ele>875.959</ele>
        <time>2013-05-08T13:26:16Z</time>
      </trkpt>
      <trkpt lat="41.47526" lon="-1.63405">
        <ele>875.911</ele>
        <time>2013-05-08T13:26:04Z</time>
      </trkpt>
      <trkpt lat="41.47529" lon="-1.63408">
        <ele>875.916</ele>
        <time>2013-05-08T13:25:34Z</time>
      </trkpt>
      <trkpt lat="41.47525" lon="-1.63402">
        <ele>875.933</ele>
        <time>2013-05-08T13:25:05Z</time>
      </trkpt>
      <trkpt lat="41.47526" lon="-1.63404">
        <ele>875.96</ele>
        <time>2013-05-08T13:24:35Z</time>
      </trkpt>
      <trkpt lat="41.47527" lon="-1.63405">
        <ele>875.918</ele>
        <time>2013-05-08T13:24:09Z</time>
      </trkpt>
      <trkpt lat="41.47522" lon="-1.63407">
        <ele>875.921</ele>
        <time>2013-05-08T13:23:44Z</time>
      </trkpt>
      <trkpt lat="41.47523" lon="-1.63405">
        <ele>875.988</ele>
        <time>2013-05-08T13:23:13Z</time>
      </trkpt>
      <trkpt lat="41.47525" lon="-1.63403">
        <ele>875.924</ele>
        <time>2013-05-08T13:22:48Z</time>
      </trkpt>
      <trkpt lat="41.47527" lon="-1.63403">
        <ele>875.926</ele>
        <time>2013-05-08T13:22:22Z</time>
      </trkpt>
      <trkpt lat="41.47525" lon="-1.63399">
        <ele>875.908</ele>
        <time>2013-05-08T13:21:53Z</time>
      </trkpt>
      <trkpt lat="41.47524" lon="-1.63396">
        <ele>875.949</ele>
        <time>2013-05-08T13:21:26Z</time>
      </trkpt>
      <trkpt lat="41.47524" lon="-1.63405">
        <ele>875.96</ele>
        <time>2013-05-08T13:20:56Z</time>
      </trkpt>
      <trkpt lat="41.47524" lon="-1.63402">
        <ele>875.442</ele>
        <time>2013-05-08T13:20:21Z</time>
      </trkpt>
      <trkpt lat="41.47527" lon="-1.63401">
        <ele>875.447</ele>
        <time>2013-05-08T13:19:50Z</time>
      </trkpt>
      <trkpt lat="41.47524" lon="-1.634">
        <ele>874.984</ele>
        <time>2013-05-08T13:19:09Z</time>
      </trkpt>
      <trkpt lat="41.47526" lon="-1.63401">
        <ele>874.961</ele>
        <time>2013-05-08T13:18:27Z</time>
      </trkpt>
      <trkpt lat="41.47524" lon="-1.63404">
        <ele>874.979</ele>
        <time>2013-05-08T13:17:55Z</time>
      </trkpt>
      <trkpt lat="41.47523" lon="-1.63403">
        <ele>874.572</ele>
        <time>2013-05-08T13:17:20Z</time>
      </trkpt>
      <trkpt lat="41.47527" lon="-1.634">
        <ele>874.525</ele>
        <time>2013-05-08T13:16:51Z</time>
      </trkpt>
      <trkpt lat="41.47524" lon="-1.63404">
        <ele>874.526</ele>
        <time>2013-05-08T13:16:19Z</time>
      </trkpt>
      <trkpt lat="41.47522" lon="-1.63404">
        <ele>874.508</ele>
        <time>2013-05-08T13:15:49Z</time>
      </trkpt>
      <trkpt lat="41.47525" lon="-1.63405">
        <ele>874.508</ele>
        <time>2013-05-08T13:15:22Z</time>
      </trkpt>
      <trkpt lat="41.47525" lon="-1.63403">
        <ele>874.583</ele>
        <time>2013-05-08T13:15:00Z</time>
      </trkpt>
      <trkpt lat="41.47522" lon="-1.634">
        <ele>874.594</ele>
        <time>2013-05-08T13:14:31Z</time>
      </trkpt>
      <trkpt lat="41.47523" lon="-1.63403">
        <ele>874.066</ele>
        <time>2013-05-08T13:14:11Z</time>
      </trkpt>
      <trkpt lat="41.47525" lon="-1.63404">
        <ele>874.091</ele>
        <time>2013-05-08T13:13:44Z</time>
      </trkpt>
      <trkpt lat="41.47527" lon="-1.63402">
        <ele>873.538</ele>
        <time>2013-05-08T13:13:14Z</time>
      </trkpt>
      <trkpt lat="41.47526" lon="-1.63401">
        <ele>873.535</ele>
        <time>2013-05-08T13:12:52Z</time>
      </trkpt>
      <trkpt lat="41.47525" lon="-1.63403">
        <ele>873.573</ele>
        <time>2013-05-08T13:12:21Z</time>
      </trkpt>
      <trkpt lat="41.47525" lon="-1.63405">
        <ele>873.536</ele>
        <time>2013-05-08T13:11:47Z</time>
      </trkpt>
      <trkpt lat="41.47527" lon="-1.63402">
        <ele>873.055</ele>
        <time>2013-05-08T13:11:20Z</time>
      </trkpt>
      <trkpt lat="41.47525" lon="-1.63399">
        <ele>873.007</ele>
        <time>2013-05-08T13:10:58Z</time>
      </trkpt>
      <trkpt lat="41.47525" lon="-1.63402">
        <ele>873.017</ele>
        <time>2013-05-08T13:10:35Z</time>
      </trkpt>
      <trkpt lat="41.47529" lon="-1.63401">
        <ele>873.008</ele>
        <time>2013-05-08T13:10:10Z</time>
      </trkpt>
      <trkpt lat="41.47526" lon="-1.63401">
        <ele>872.566</ele>
        <time>2013-05-08T13:09:43Z</time>
      </trkpt>
      <trkpt lat="41.47526" lon="-1.63407">
        <ele>872.577</ele>
        <time>2013-05-08T13:09:15Z</time>
      </trkpt>
      <trkpt lat="41.47526" lon="-1.63403">
        <ele>872.599</ele>
        <time>2013-05-08T13:08:48Z</time>
      </trkpt>
      <trkpt lat="41.47527" lon="-1.63402">
        <ele>872.594</ele>
        <time>2013-05-08T13:08:38Z</time>
      </trkpt>
      <trkpt lat="41.47521" lon="-1.63404">
        <ele>872.581</ele>
        <time>2013-05-08T13:08:21Z</time>
      </trkpt>
      <trkpt lat="41.47521" lon="-1.63402">
        <ele>872.538</ele>
        <time>2013-05-08T13:08:11Z</time>
      </trkpt>
      <trkpt lat="41.47537" lon="-1.63401">
        <ele>871.166</ele>
        <time>2013-05-08T13:08:01Z</time>
      </trkpt>
      <trkpt lat="41.47554" lon="-1.63403">
        <ele>869.729</ele>
        <time>2013-05-08T13:07:50Z</time>
      </trkpt>
      <trkpt lat="41.47581" lon="-1.63411">
        <ele>868.736</ele>
        <time>2013-05-08T13:07:34Z</time>
      </trkpt>
      <trkpt lat="41.47607" lon="-1.63423">
        <ele>867.317</ele>
        <time>2013-05-08T13:07:19Z</time>
      </trkpt>
      <trkpt lat="41.47636" lon="-1.63428">
        <ele>865.818</ele>
        <time>2013-05-08T13:07:03Z</time>
      </trkpt>
      <trkpt lat="41.47662" lon="-1.63427">
        <ele>863.908</ele>
        <time>2013-05-08T13:06:48Z</time>
      </trkpt>
      <trkpt lat="41.47664" lon="-1.63427">
        <ele>863.494</ele>
        <time>2013-05-08T13:06:47Z</time>
      </trkpt>
      <trkpt lat="41.47665" lon="-1.63426">
        <ele>863.455</ele>
        <time>2013-05-08T13:06:46Z</time>
      </trkpt>
      <trkpt lat="41.47677" lon="-1.63426">
        <ele>862.447</ele>
        <time>2013-05-08T13:06:39Z</time>
      </trkpt>
      <trkpt lat="41.47701" lon="-1.63424">
        <ele>860.592</ele>
        <time>2013-05-08T13:06:24Z</time>
      </trkpt>
      <trkpt lat="41.47727" lon="-1.63422">
        <ele>858.659</ele>
        <time>2013-05-08T13:06:08Z</time>
      </trkpt>
      <trkpt lat="41.47744" lon="-1.63421">
        <ele>857.276</ele>
        <time>2013-05-08T13:05:57Z</time>
      </trkpt>
      <trkpt lat="41.47768" lon="-1.63426">
        <ele>854.344</ele>
        <time>2013-05-08T13:05:41Z</time>
      </trkpt>
      <trkpt lat="41.4779" lon="-1.63435">
        <ele>852.877</ele>
        <time>2013-05-08T13:05:27Z</time>
      </trkpt>
      <trkpt lat="41.47816" lon="-1.63441">
        <ele>850.958</ele>
        <time>2013-05-08T13:05:10Z</time>
      </trkpt>
      <trkpt lat="41.47838" lon="-1.63442">
        <ele>849.552</ele>
        <time>2013-05-08T13:04:56Z</time>
      </trkpt>
      <trkpt lat="41.47855" lon="-1.6344">
        <ele>847.517</ele>
        <time>2013-05-08T13:04:44Z</time>
      </trkpt>
      <trkpt lat="41.47874" lon="-1.63434">
        <ele>846.608</ele>
        <time>2013-05-08T13:04:31Z</time>
      </trkpt>
      <trkpt lat="41.47891" lon="-1.63427">
        <ele>845.156</ele>
        <time>2013-05-08T13:04:20Z</time>
      </trkpt>
      <trkpt lat="41.47909" lon="-1.63418">
        <ele>843.797</ele>
        <time>2013-05-08T13:04:08Z</time>
      </trkpt>
      <trkpt lat="41.47929" lon="-1.63414">
        <ele>842.369</ele>
        <time>2013-05-08T13:03:54Z</time>
      </trkpt>
      <trkpt lat="41.47946" lon="-1.63406">
        <ele>840.854</ele>
        <time>2013-05-08T13:03:42Z</time>
      </trkpt>
      <trkpt lat="41.47965" lon="-1.63395">
        <ele>839.461</ele>
        <time>2013-05-08T13:03:28Z</time>
      </trkpt>
      <trkpt lat="41.47984" lon="-1.63387">
        <ele>837.948</ele>
        <time>2013-05-08T13:03:16Z</time>
      </trkpt>
      <trkpt lat="41.47985" lon="-1.63386">
        <ele>837.586</ele>
        <time>2013-05-08T13:03:15Z</time>
      </trkpt>
      <trkpt lat="41.47987" lon="-1.63385">
        <ele>837.559</ele>
        <time>2013-05-08T13:03:14Z</time>
      </trkpt>
      <trkpt lat="41.47988" lon="-1.63384">
        <ele>837.561</ele>
        <time>2013-05-08T13:03:13Z</time>
      </trkpt>
      <trkpt lat="41.4799" lon="-1.63384">
        <ele>837.021</ele>
        <time>2013-05-08T13:03:12Z</time>
      </trkpt>
      <trkpt lat="41.47991" lon="-1.63383">
        <ele>837.013</ele>
        <time>2013-05-08T13:03:11Z</time>
      </trkpt>
      <trkpt lat="41.47993" lon="-1.63383">
        <ele>837.008</ele>
        <time>2013-05-08T13:03:10Z</time>
      </trkpt>
      <trkpt lat="41.47994" lon="-1.63383">
        <ele>837.577</ele>
        <time>2013-05-08T13:03:09Z</time>
      </trkpt>
      <trkpt lat="41.47996" lon="-1.63383">
        <ele>837.088</ele>
        <time>2013-05-08T13:03:08Z</time>
      </trkpt>
      <trkpt lat="41.48013" lon="-1.6338">
        <ele>835.07</ele>
        <time>2013-05-08T13:02:56Z</time>
      </trkpt>
      <trkpt lat="41.4803" lon="-1.63391">
        <ele>834.165</ele>
        <time>2013-05-08T13:02:44Z</time>
      </trkpt>
      <trkpt lat="41.48047" lon="-1.63406">
        <ele>832.682</ele>
        <time>2013-05-08T13:02:31Z</time>
      </trkpt>
      <trkpt lat="41.48064" lon="-1.63423">
        <ele>831.259</ele>
        <time>2013-05-08T13:02:18Z</time>
      </trkpt>
      <trkpt lat="41.48084" lon="-1.63437">
        <ele>829.867</ele>
        <time>2013-05-08T13:02:04Z</time>
      </trkpt>
      <trkpt lat="41.48101" lon="-1.63426">
        <ele>827.87</ele>
        <time>2013-05-08T13:01:51Z</time>
      </trkpt>
      <trkpt lat="41.48102" lon="-1.63424">
        <ele>827.818</ele>
        <time>2013-05-08T13:01:50Z</time>
      </trkpt>
      <trkpt lat="41.48113" lon="-1.63409">
        <ele>826.498</ele>
        <time>2013-05-08T13:01:40Z</time>
      </trkpt>
      <trkpt lat="41.48135" lon="-1.63391">
        <ele>824.517</ele>
        <time>2013-05-08T13:01:25Z</time>
      </trkpt>
      <trkpt lat="41.48152" lon="-1.63376">
        <ele>823.008</ele>
        <time>2013-05-08T13:01:12Z</time>
      </trkpt>
      <trkpt lat="41.48165" lon="-1.63361">
        <ele>821.672</ele>
        <time>2013-05-08T13:01:01Z</time>
      </trkpt>
      <trkpt lat="41.4818" lon="-1.63346">
        <ele>820.193</ele>
        <time>2013-05-08T13:00:49Z</time>
      </trkpt>
      <trkpt lat="41.48181" lon="-1.63345">
        <ele>820.145</ele>
        <time>2013-05-08T13:00:48Z</time>
      </trkpt>
      <trkpt lat="41.48183" lon="-1.63343">
        <ele>820.17</ele>
        <time>2013-05-08T13:00:47Z</time>
      </trkpt>
      <trkpt lat="41.48184" lon="-1.63341">
        <ele>819.747</ele>
        <time>2013-05-08T13:00:46Z</time>
      </trkpt>
      <trkpt lat="41.48186" lon="-1.6334">
        <ele>819.794</ele>
        <time>2013-05-08T13:00:45Z</time>
      </trkpt>
      <trkpt lat="41.48187" lon="-1.63339">
        <ele>819.772</ele>
        <time>2013-05-08T13:00:44Z</time>
      </trkpt>
      <trkpt lat="41.48198" lon="-1.63326">
        <ele>818.735</ele>
        <time>2013-05-08T13:00:34Z</time>
      </trkpt>
      <trkpt lat="41.48218" lon="-1.63313">
        <ele>817.346</ele>
        <time>2013-05-08T13:00:19Z</time>
      </trkpt>
      <trkpt lat="41.48235" lon="-1.63304">
        <ele>815.388</ele>
        <time>2013-05-08T13:00:06Z</time>
      </trkpt>
      <trkpt lat="41.48254" lon="-1.63298">
        <ele>814.416</ele>
        <time>2013-05-08T12:59:51Z</time>
      </trkpt>
      <trkpt lat="41.48272" lon="-1.63304">
        <ele>812.008</ele>
        <time>2013-05-08T12:59:37Z</time>
      </trkpt>
      <trkpt lat="41.48288" lon="-1.63312">
        <ele>810.515</ele>
        <time>2013-05-08T12:59:25Z</time>
      </trkpt>
      <trkpt lat="41.48312" lon="-1.63323">
        <ele>809.656</ele>
        <time>2013-05-08T12:59:09Z</time>
      </trkpt>
      <trkpt lat="41.48328" lon="-1.63323">
        <ele>808.648</ele>
        <time>2013-05-08T12:58:58Z</time>
      </trkpt>
      <trkpt lat="41.48345" lon="-1.63308">
        <ele>807.283</ele>
        <time>2013-05-08T12:58:43Z</time>
      </trkpt>
      <trkpt lat="41.48357" lon="-1.6329">
        <ele>806.27</ele>
        <time>2013-05-08T12:58:30Z</time>
      </trkpt>
      <trkpt lat="41.48364" lon="-1.63277">
        <ele>805.277</ele>
        <time>2013-05-08T12:58:21Z</time>
      </trkpt>
      <trkpt lat="41.48369" lon="-1.63257">
        <ele>803.365</ele>
        <time>2013-05-08T12:58:08Z</time>
      </trkpt>
      <trkpt lat="41.48369" lon="-1.63256">
        <ele>802.828</ele>
        <time>2013-05-08T12:58:07Z</time>
      </trkpt>
      <trkpt lat="41.48369" lon="-1.63254">
        <ele>802.824</ele>
        <time>2013-05-08T12:58:06Z</time>
      </trkpt>
      <trkpt lat="41.48366" lon="-1.63245">
        <ele>801.904</ele>
        <time>2013-05-08T12:58:00Z</time>
      </trkpt>
      <trkpt lat="41.48364" lon="-1.63241">
        <ele>801.414</ele>
        <time>2013-05-08T12:57:57Z</time>
      </trkpt>
      <trkpt lat="41.48356" lon="-1.63224">
        <ele>800.008</ele>
        <time>2013-05-08T12:57:45Z</time>
      </trkpt>
      <trkpt lat="41.48346" lon="-1.63205">
        <ele>798.563</ele>
        <time>2013-05-08T12:57:33Z</time>
      </trkpt>
      <trkpt lat="41.48331" lon="-1.63163">
        <ele>796.664</ele>
        <time>2013-05-08T12:57:18Z</time>
      </trkpt>
      <trkpt lat="41.48319" lon="-1.63129">
        <ele>795.616</ele>
        <time>2013-05-08T12:57:06Z</time>
      </trkpt>
      <trkpt lat="41.48317" lon="-1.63104">
        <ele>794.251</ele>
        <time>2013-05-08T12:56:54Z</time>
      </trkpt>
      <trkpt lat="41.48326" lon="-1.63082">
        <ele>792.798</ele>
        <time>2013-05-08T12:56:41Z</time>
      </trkpt>
      <trkpt lat="41.48338" lon="-1.63065">
        <ele>791.395</ele>
        <time>2013-05-08T12:56:29Z</time>
      </trkpt>
      <trkpt lat="41.48352" lon="-1.63058">
        <ele>789.923</ele>
        <time>2013-05-08T12:56:17Z</time>
      </trkpt>
      <trkpt lat="41.48366" lon="-1.63059">
        <ele>787.916</ele>
        <time>2013-05-08T12:56:04Z</time>
      </trkpt>
      <trkpt lat="41.48383" lon="-1.63067">
        <ele>785.157</ele>
        <time>2013-05-08T12:55:50Z</time>
      </trkpt>
      <trkpt lat="41.48399" lon="-1.63074">
        <ele>783.1</ele>
        <time>2013-05-08T12:55:38Z</time>
      </trkpt>
      <trkpt lat="41.48399" lon="-1.63081">
        <ele>783.12</ele>
        <time>2013-05-08T12:55:33Z</time>
      </trkpt>
      <trkpt lat="41.48397" lon="-1.63081">
        <ele>783.108</ele>
        <time>2013-05-08T12:55:19Z</time>
      </trkpt>
      <trkpt lat="41.48399" lon="-1.63081">
        <ele>783.116</ele>
        <time>2013-05-08T12:55:02Z</time>
      </trkpt>
      <trkpt lat="41.48371" lon="-1.63072">
        <ele>784.137</ele>
        <time>2013-05-08T12:54:52Z</time>
      </trkpt>
      <trkpt lat="41.48344" lon="-1.63085">
        <ele>785.129</ele>
        <time>2013-05-08T12:54:42Z</time>
      </trkpt>
      <trkpt lat="41.48338" lon="-1.63112">
        <ele>784.644</ele>
        <time>2013-05-08T12:54:31Z</time>
      </trkpt>
      <trkpt lat="41.48342" lon="-1.63123">
        <ele>784.181</ele>
        <time>2013-05-08T12:54:23Z</time>
      </trkpt>
      <trkpt lat="41.48346" lon="-1.63134">
        <ele>783.138</ele>
        <time>2013-05-08T12:54:15Z</time>
      </trkpt>
      <trkpt lat="41.48349" lon="-1.63139">
        <ele>782.256</ele>
        <time>2013-05-08T12:54:11Z</time>
      </trkpt>
      <trkpt lat="41.4835" lon="-1.63142">
        <ele>781.749</ele>
        <time>2013-05-08T12:54:09Z</time>
      </trkpt>
      <trkpt lat="41.48356" lon="-1.63148">
        <ele>780.718</ele>
        <time>2013-05-08T12:54:02Z</time>
      </trkpt>
      <trkpt lat="41.48358" lon="-1.63142">
        <ele>779.898</ele>
        <time>2013-05-08T12:53:56Z</time>
      </trkpt>
      <trkpt lat="41.48353" lon="-1.63125">
        <ele>779.317</ele>
        <time>2013-05-08T12:53:45Z</time>
      </trkpt>
      <trkpt lat="41.48353" lon="-1.63122">
        <ele>779.308</ele>
        <time>2013-05-08T12:53:43Z</time>
      </trkpt>
      <trkpt lat="41.48352" lon="-1.63102">
        <ele>777.812</ele>
        <time>2013-05-08T12:53:29Z</time>
      </trkpt>
      <trkpt lat="41.48356" lon="-1.63098">
        <ele>777.443</ele>
        <time>2013-05-08T12:53:24Z</time>
      </trkpt>
      <trkpt lat="41.48361" lon="-1.631">
        <ele>776.495</ele>
        <time>2013-05-08T12:53:19Z</time>
      </trkpt>
      <trkpt lat="41.48361" lon="-1.63109">
        <ele>775.09</ele>
        <time>2013-05-08T12:53:11Z</time>
      </trkpt>
      <trkpt lat="41.48366" lon="-1.63126">
        <ele>772.617</ele>
        <time>2013-05-08T12:52:57Z</time>
      </trkpt>
      <trkpt lat="41.48371" lon="-1.63136">
        <ele>771.634</ele>
        <time>2013-05-08T12:52:49Z</time>
      </trkpt>
      <trkpt lat="41.48377" lon="-1.63148">
        <ele>770.662</ele>
        <time>2013-05-08T12:52:38Z</time>
      </trkpt>
      <trkpt lat="41.48384" lon="-1.6316">
        <ele>768.735</ele>
        <time>2013-05-08T12:52:26Z</time>
      </trkpt>
      <trkpt lat="41.48387" lon="-1.63164">
        <ele>768.217</ele>
        <time>2013-05-08T12:52:22Z</time>
      </trkpt>
      <trkpt lat="41.48397" lon="-1.63181">
        <ele>766.887</ele>
        <time>2013-05-08T12:52:09Z</time>
      </trkpt>
      <trkpt lat="41.48402" lon="-1.63188">
        <ele>766.315</ele>
        <time>2013-05-08T12:52:03Z</time>
      </trkpt>
      <trkpt lat="41.48407" lon="-1.63194">
        <ele>766.308</ele>
        <time>2013-05-08T12:51:57Z</time>
      </trkpt>
      <trkpt lat="41.4841" lon="-1.63198">
        <ele>765.442</ele>
        <time>2013-05-08T12:51:53Z</time>
      </trkpt>
      <trkpt lat="41.48421" lon="-1.63207">
        <ele>763.973</ele>
        <time>2013-05-08T12:51:40Z</time>
      </trkpt>
      <trkpt lat="41.48429" lon="-1.63217">
        <ele>761.065</ele>
        <time>2013-05-08T12:51:29Z</time>
      </trkpt>
      <trkpt lat="41.48441" lon="-1.63226">
        <ele>759.14</ele>
        <time>2013-05-08T12:51:16Z</time>
      </trkpt>
      <trkpt lat="41.48453" lon="-1.63241">
        <ele>756.757</ele>
        <time>2013-05-08T12:51:02Z</time>
      </trkpt>
      <trkpt lat="41.4846" lon="-1.6327">
        <ele>756.794</ele>
        <time>2013-05-08T12:50:52Z</time>
      </trkpt>
      <trkpt lat="41.48452" lon="-1.63296">
        <ele>756.732</ele>
        <time>2013-05-08T12:50:43Z</time>
      </trkpt>
      <trkpt lat="41.48445" lon="-1.63305">
        <ele>756.265</ele>
        <time>2013-05-08T12:50:37Z</time>
      </trkpt>
      <trkpt lat="41.4844" lon="-1.63312">
        <ele>755.351</ele>
        <time>2013-05-08T12:50:32Z</time>
      </trkpt>
      <trkpt lat="41.48433" lon="-1.63327">
        <ele>754.801</ele>
        <time>2013-05-08T12:50:22Z</time>
      </trkpt>
      <trkpt lat="41.4843" lon="-1.6333">
        <ele>754.811</ele>
        <time>2013-05-08T12:50:18Z</time>
      </trkpt>
      <trkpt lat="41.48424" lon="-1.63341">
        <ele>753.308</ele>
        <time>2013-05-08T12:50:09Z</time>
      </trkpt>
      <trkpt lat="41.48426" lon="-1.63343">
        <ele>752.986</ele>
        <time>2013-05-08T12:50:06Z</time>
      </trkpt>
      <trkpt lat="41.48435" lon="-1.63337">
        <ele>751.457</ele>
        <time>2013-05-08T12:49:53Z</time>
      </trkpt>
      <trkpt lat="41.48445" lon="-1.63326">
        <ele>749.559</ele>
        <time>2013-05-08T12:49:39Z</time>
      </trkpt>
      <trkpt lat="41.48455" lon="-1.63317">
        <ele>747.634</ele>
        <time>2013-05-08T12:49:26Z</time>
      </trkpt>
      <trkpt lat="41.48468" lon="-1.63308">
        <ele>746.651</ele>
        <time>2013-05-08T12:49:13Z</time>
      </trkpt>
      <trkpt lat="41.48473" lon="-1.63299">
        <ele>745.648</ele>
        <time>2013-05-08T12:49:05Z</time>
      </trkpt>
      <trkpt lat="41.48482" lon="-1.63288">
        <ele>744.216</ele>
        <time>2013-05-08T12:48:54Z</time>
      </trkpt>
      <trkpt lat="41.48486" lon="-1.63281">
        <ele>741.849</ele>
        <time>2013-05-08T12:48:46Z</time>
      </trkpt>
      <trkpt lat="41.4849" lon="-1.63269">
        <ele>739.911</ele>
        <time>2013-05-08T12:48:35Z</time>
      </trkpt>
      <trkpt lat="41.48494" lon="-1.63258">
        <ele>738.021</ele>
        <time>2013-05-08T12:48:24Z</time>
      </trkpt>
      <trkpt lat="41.48499" lon="-1.63244">
        <ele>736.503</ele>
        <time>2013-05-08T12:48:12Z</time>
      </trkpt>
      <trkpt lat="41.48497" lon="-1.63234">
        <ele>735.608</ele>
        <time>2013-05-08T12:48:04Z</time>
      </trkpt>
      <trkpt lat="41.48495" lon="-1.63223">
        <ele>734.652</ele>
        <time>2013-05-08T12:47:55Z</time>
      </trkpt>
      <trkpt lat="41.48493" lon="-1.63214">
        <ele>733.673</ele>
        <time>2013-05-08T12:47:48Z</time>
      </trkpt>
      <trkpt lat="41.485" lon="-1.63201">
        <ele>731.295</ele>
        <time>2013-05-08T12:47:35Z</time>
      </trkpt>
      <trkpt lat="41.48506" lon="-1.63198">
        <ele>730.77</ele>
        <time>2013-05-08T12:47:29Z</time>
      </trkpt>
      <trkpt lat="41.48516" lon="-1.63187">
        <ele>728.317</ele>
        <time>2013-05-08T12:47:17Z</time>
      </trkpt>
      <trkpt lat="41.48518" lon="-1.63179">
        <ele>727.994</ele>
        <time>2013-05-08T12:47:11Z</time>
      </trkpt>
      <trkpt lat="41.48525" lon="-1.63163">
        <ele>726.472</ele>
        <time>2013-05-08T12:47:00Z</time>
      </trkpt>
      <trkpt lat="41.48528" lon="-1.63153">
        <ele>725.535</ele>
        <time>2013-05-08T12:46:53Z</time>
      </trkpt>
      <trkpt lat="41.48532" lon="-1.63134">
        <ele>724.096</ele>
        <time>2013-05-08T12:46:40Z</time>
      </trkpt>
      <trkpt lat="41.48539" lon="-1.6312">
        <ele>722.631</ele>
        <time>2013-05-08T12:46:27Z</time>
      </trkpt>
      <trkpt lat="41.48545" lon="-1.63108">
        <ele>721.124</ele>
        <time>2013-05-08T12:46:15Z</time>
      </trkpt>
      <trkpt lat="41.48549" lon="-1.63096">
        <ele>719.208</ele>
        <time>2013-05-08T12:46:04Z</time>
      </trkpt>
      <trkpt lat="41.48553" lon="-1.63081">
        <ele>717.32</ele>
        <time>2013-05-08T12:45:52Z</time>
      </trkpt>
      <trkpt lat="41.48559" lon="-1.63066">
        <ele>714.931</ele>
        <time>2013-05-08T12:45:38Z</time>
      </trkpt>
      <trkpt lat="41.48566" lon="-1.63053">
        <ele>713.443</ele>
        <time>2013-05-08T12:45:26Z</time>
      </trkpt>
      <trkpt lat="41.48573" lon="-1.63041">
        <ele>711.578</ele>
        <time>2013-05-08T12:45:16Z</time>
      </trkpt>
      <trkpt lat="41.48579" lon="-1.6302">
        <ele>711.045</ele>
        <time>2013-05-08T12:45:03Z</time>
      </trkpt>
      <trkpt lat="41.4858" lon="-1.63013">
        <ele>710.622</ele>
        <time>2013-05-08T12:44:58Z</time>
      </trkpt>
      <trkpt lat="41.48582" lon="-1.63008">
        <ele>710.14</ele>
        <time>2013-05-08T12:44:54Z</time>
      </trkpt>
      <trkpt lat="41.48588" lon="-1.62988">
        <ele>708.263</ele>
        <time>2013-05-08T12:44:38Z</time>
      </trkpt>
      <trkpt lat="41.48592" lon="-1.62974">
        <ele>706.275</ele>
        <time>2013-05-08T12:44:25Z</time>
      </trkpt>
      <trkpt lat="41.48599" lon="-1.62963">
        <ele>704.828</ele>
        <time>2013-05-08T12:44:12Z</time>
      </trkpt>
      <trkpt lat="41.48606" lon="-1.62946">
        <ele>702.42</ele>
        <time>2013-05-08T12:43:57Z</time>
      </trkpt>
      <trkpt lat="41.48612" lon="-1.62933">
        <ele>701.408</ele>
        <time>2013-05-08T12:43:46Z</time>
      </trkpt>
      <trkpt lat="41.48619" lon="-1.6292">
        <ele>699.548</ele>
        <time>2013-05-08T12:43:34Z</time>
      </trkpt>
      <trkpt lat="41.48622" lon="-1.6291">
        <ele>698.189</ele>
        <time>2013-05-08T12:43:25Z</time>
      </trkpt>
      <trkpt lat="41.48627" lon="-1.62901">
        <ele>697.151</ele>
        <time>2013-05-08T12:43:16Z</time>
      </trkpt>
      <trkpt lat="41.48631" lon="-1.62891">
        <ele>696.686</ele>
        <time>2013-05-08T12:43:08Z</time>
      </trkpt>
      <trkpt lat="41.48634" lon="-1.62878">
        <ele>696.643</ele>
        <time>2013-05-08T12:43:00Z</time>
      </trkpt>
      <trkpt lat="41.4865" lon="-1.62864">
        <ele>697.61</ele>
        <time>2013-05-08T12:42:55Z</time>
      </trkpt>
      <trkpt lat="41.48658" lon="-1.62855">
        <ele>698.118</ele>
        <time>2013-05-08T12:42:53Z</time>
      </trkpt>
      <trkpt lat="41.48669" lon="-1.62845">
        <ele>698.521</ele>
        <time>2013-05-08T12:42:50Z</time>
      </trkpt>
      <trkpt lat="41.4868" lon="-1.62831">
        <ele>699.033</ele>
        <time>2013-05-08T12:42:46Z</time>
      </trkpt>
      <trkpt lat="41.48698" lon="-1.6281">
        <ele>700.523</ele>
        <time>2013-05-08T12:42:39Z</time>
      </trkpt>
      <trkpt lat="41.48721" lon="-1.62789">
        <ele>700.015</ele>
        <time>2013-05-08T12:42:27Z</time>
      </trkpt>
      <trkpt lat="41.48734" lon="-1.6277">
        <ele>699.008</ele>
        <time>2013-05-08T12:42:16Z</time>
      </trkpt>
      <trkpt lat="41.48746" lon="-1.62742">
        <ele>698.514</ele>
        <time>2013-05-08T12:42:03Z</time>
      </trkpt>
      <trkpt lat="41.48759" lon="-1.62714">
        <ele>698.585</ele>
        <time>2013-05-08T12:41:54Z</time>
      </trkpt>
      <trkpt lat="41.48774" lon="-1.6269">
        <ele>697.637</ele>
        <time>2013-05-08T12:41:42Z</time>
      </trkpt>
      <trkpt lat="41.48793" lon="-1.62667">
        <ele>696.662</ele>
        <time>2013-05-08T12:41:29Z</time>
      </trkpt>
      <trkpt lat="41.48807" lon="-1.62651">
        <ele>695.769</ele>
        <time>2013-05-08T12:41:18Z</time>
      </trkpt>
      <trkpt lat="41.48822" lon="-1.62632">
        <ele>694.266</ele>
        <time>2013-05-08T12:41:06Z</time>
      </trkpt>
      <trkpt lat="41.48838" lon="-1.62609">
        <ele>691.814</ele>
        <time>2013-05-08T12:40:52Z</time>
      </trkpt>
      <trkpt lat="41.48854" lon="-1.62583">
        <ele>690.497</ele>
        <time>2013-05-08T12:40:40Z</time>
      </trkpt>
      <trkpt lat="41.48873" lon="-1.62556">
        <ele>688.988</ele>
        <time>2013-05-08T12:40:28Z</time>
      </trkpt>
      <trkpt lat="41.48888" lon="-1.62529">
        <ele>688.024</ele>
        <time>2013-05-08T12:40:15Z</time>
      </trkpt>
      <trkpt lat="41.48897" lon="-1.62515">
        <ele>687.026</ele>
        <time>2013-05-08T12:40:08Z</time>
      </trkpt>
      <trkpt lat="41.48909" lon="-1.62495">
        <ele>686.508</ele>
        <time>2013-05-08T12:39:58Z</time>
      </trkpt>
      <trkpt lat="41.48928" lon="-1.62472">
        <ele>685.189</ele>
        <time>2013-05-08T12:39:45Z</time>
      </trkpt>
      <trkpt lat="41.48949" lon="-1.62438">
        <ele>684.19</ele>
        <time>2013-05-08T12:39:32Z</time>
      </trkpt>
      <trkpt lat="41.4896" lon="-1.62414">
        <ele>682.792</ele>
        <time>2013-05-08T12:39:23Z</time>
      </trkpt>
      <trkpt lat="41.48964" lon="-1.62405">
        <ele>682.767</ele>
        <time>2013-05-08T12:39:19Z</time>
      </trkpt>
      <trkpt lat="41.48986" lon="-1.62379">
        <ele>682.724</ele>
        <time>2013-05-08T12:39:10Z</time>
      </trkpt>
      <trkpt lat="41.48996" lon="-1.6237">
        <ele>684.141</ele>
        <time>2013-05-08T12:39:07Z</time>
      </trkpt>
      <trkpt lat="41.48999" lon="-1.62368">
        <ele>685.119</ele>
        <time>2013-05-08T12:39:06Z</time>
      </trkpt>
      <trkpt lat="41.49016" lon="-1.62359">
        <ele>688.452</ele>
        <time>2013-05-08T12:39:00Z</time>
      </trkpt>
      <trkpt lat="41.49036" lon="-1.62348">
        <ele>691.838</ele>
        <time>2013-05-08T12:38:53Z</time>
      </trkpt>
      <trkpt lat="41.49061" lon="-1.6234">
        <ele>695.77</ele>
        <time>2013-05-08T12:38:46Z</time>
      </trkpt>
      <trkpt lat="41.49077" lon="-1.62329">
        <ele>697.617</ele>
        <time>2013-05-08T12:38:42Z</time>
      </trkpt>
      <trkpt lat="41.49092" lon="-1.62312">
        <ele>698.108</ele>
        <time>2013-05-08T12:38:38Z</time>
      </trkpt>
      <trkpt lat="41.49097" lon="-1.62308">
        <ele>698.574</ele>
        <time>2013-05-08T12:38:37Z</time>
      </trkpt>
      <trkpt lat="41.4912" lon="-1.62293">
        <ele>700.535</ele>
        <time>2013-05-08T12:38:32Z</time>
      </trkpt>
      <trkpt lat="41.49162" lon="-1.62283">
        <ele>703.847</ele>
        <time>2013-05-08T12:38:22Z</time>
      </trkpt>
      <trkpt lat="41.49175" lon="-1.62283">
        <ele>705.372</ele>
        <time>2013-05-08T12:38:19Z</time>
      </trkpt>
      <trkpt lat="41.49183" lon="-1.62285">
        <ele>705.819</ele>
        <time>2013-05-08T12:38:17Z</time>
      </trkpt>
      <trkpt lat="41.4921" lon="-1.62284">
        <ele>709.646</ele>
        <time>2013-05-08T12:38:11Z</time>
      </trkpt>
      <trkpt lat="41.4923" lon="-1.62283">
        <ele>711.514</ele>
        <time>2013-05-08T12:38:07Z</time>
      </trkpt>
      <trkpt lat="41.49271" lon="-1.62281">
        <ele>713.057</ele>
        <time>2013-05-08T12:38:01Z</time>
      </trkpt>
      <trkpt lat="41.49291" lon="-1.62281">
        <ele>713.944</ele>
        <time>2013-05-08T12:37:58Z</time>
      </trkpt>
      <trkpt lat="41.49354" lon="-1.62268">
        <ele>715.405</ele>
        <time>2013-05-08T12:37:47Z</time>
      </trkpt>
      <trkpt lat="41.49394" lon="-1.62248">
        <ele>716.815</ele>
        <time>2013-05-08T12:37:40Z</time>
      </trkpt>
      <trkpt lat="41.49425" lon="-1.62236">
        <ele>718.208</ele>
        <time>2013-05-08T12:37:34Z</time>
      </trkpt>
      <trkpt lat="41.49434" lon="-1.62233">
        <ele>718.295</ele>
        <time>2013-05-08T12:37:32Z</time>
      </trkpt>
      <trkpt lat="41.49481" lon="-1.62222">
        <ele>719.216</ele>
        <time>2013-05-08T12:37:21Z</time>
      </trkpt>
      <trkpt lat="41.49511" lon="-1.62211">
        <ele>720.788</ele>
        <time>2013-05-08T12:37:12Z</time>
      </trkpt>
      <trkpt lat="41.49518" lon="-1.62203">
        <ele>722.113</ele>
        <time>2013-05-08T12:36:32Z</time>
      </trkpt>
      <trkpt lat="41.49523" lon="-1.622">
        <ele>721.18</ele>
        <time>2013-05-08T12:36:22Z</time>
      </trkpt>
      <trkpt lat="41.49528" lon="-1.62196">
        <ele>721.117</ele>
        <time>2013-05-08T12:36:16Z</time>
      </trkpt>
      <trkpt lat="41.49538" lon="-1.62202">
        <ele>720.235</ele>
        <time>2013-05-08T12:36:07Z</time>
      </trkpt>
      <trkpt lat="41.49554" lon="-1.62211">
        <ele>717.818</ele>
        <time>2013-05-08T12:35:56Z</time>
      </trkpt>
      <trkpt lat="41.49574" lon="-1.62211">
        <ele>715.876</ele>
        <time>2013-05-08T12:35:45Z</time>
      </trkpt>
      <trkpt lat="41.49598" lon="-1.62219">
        <ele>713.09</ele>
        <time>2013-05-08T12:35:35Z</time>
      </trkpt>
      <trkpt lat="41.49626" lon="-1.62238">
        <ele>713.019</ele>
        <time>2013-05-08T12:35:29Z</time>
      </trkpt>
      <trkpt lat="41.49667" lon="-1.62228">
        <ele>714.908</ele>
        <time>2013-05-08T12:35:23Z</time>
      </trkpt>
      <trkpt lat="41.49722" lon="-1.62215">
        <ele>717.398</ele>
        <time>2013-05-08T12:35:16Z</time>
      </trkpt>
      <trkpt lat="41.49746" lon="-1.62213">
        <ele>719.789</ele>
        <time>2013-05-08T12:35:12Z</time>
      </trkpt>
      <trkpt lat="41.49762" lon="-1.62219">
        <ele>721.151</ele>
        <time>2013-05-08T12:35:09Z</time>
      </trkpt>
      <trkpt lat="41.4977" lon="-1.6222">
        <ele>723.126</ele>
        <time>2013-05-08T12:35:07Z</time>
      </trkpt>
      <trkpt lat="41.49787" lon="-1.62216">
        <ele>723.183</ele>
        <time>2013-05-08T12:35:01Z</time>
      </trkpt>
      <trkpt lat="41.4981" lon="-1.62208">
        <ele>721.16</ele>
        <time>2013-05-08T12:34:50Z</time>
      </trkpt>
      <trkpt lat="41.49837" lon="-1.62202">
        <ele>720.218</ele>
        <time>2013-05-08T12:34:38Z</time>
      </trkpt>
      <trkpt lat="41.49869" lon="-1.62206">
        <ele>720.251</ele>
        <time>2013-05-08T12:34:28Z</time>
      </trkpt>
      <trkpt lat="41.49902" lon="-1.62216">
        <ele>719.218</ele>
        <time>2013-05-08T12:34:16Z</time>
      </trkpt>
      <trkpt lat="41.4993" lon="-1.62228">
        <ele>717.398</ele>
        <time>2013-05-08T12:34:05Z</time>
      </trkpt>
      <trkpt lat="41.49966" lon="-1.62241">
        <ele>717.317</ele>
        <time>2013-05-08T12:33:57Z</time>
      </trkpt>
      <trkpt lat="41.50009" lon="-1.62247">
        <ele>717.308</ele>
        <time>2013-05-08T12:33:45Z</time>
      </trkpt>
      <trkpt lat="41.50028" lon="-1.62248">
        <ele>717.362</ele>
        <time>2013-05-08T12:33:40Z</time>
      </trkpt>
      <trkpt lat="41.50037" lon="-1.6225">
        <ele>717.353</ele>
        <time>2013-05-08T12:33:38Z</time>
      </trkpt>
      <trkpt lat="41.50042" lon="-1.62252">
        <ele>717.355</ele>
        <time>2013-05-08T12:33:37Z</time>
      </trkpt>
      <trkpt lat="41.50092" lon="-1.62267">
        <ele>718.79</ele>
        <time>2013-05-08T12:33:27Z</time>
      </trkpt>
      <trkpt lat="41.50116" lon="-1.62295">
        <ele>718.767</ele>
        <time>2013-05-08T12:33:17Z</time>
      </trkpt>
      <trkpt lat="41.50143" lon="-1.62338">
        <ele>718.254</ele>
        <time>2013-05-08T12:33:06Z</time>
      </trkpt>
      <trkpt lat="41.50151" lon="-1.62344">
        <ele>718.292</ele>
        <time>2013-05-08T12:33:04Z</time>
      </trkpt>
      <trkpt lat="41.5018" lon="-1.62368">
        <ele>719.785</ele>
        <time>2013-05-08T12:32:56Z</time>
      </trkpt>
      <trkpt lat="41.50209" lon="-1.62402">
        <ele>720.288</ele>
        <time>2013-05-08T12:32:46Z</time>
      </trkpt>
      <trkpt lat="41.50235" lon="-1.62432">
        <ele>720.224</ele>
        <time>2013-05-08T12:32:36Z</time>
      </trkpt>
      <trkpt lat="41.50278" lon="-1.62465">
        <ele>721.126</ele>
        <time>2013-05-08T12:32:24Z</time>
      </trkpt>
      <trkpt lat="41.50289" lon="-1.62475">
        <ele>721.108</ele>
        <time>2013-05-08T12:32:21Z</time>
      </trkpt>
      <trkpt lat="41.5032" lon="-1.62498">
        <ele>722.199</ele>
        <time>2013-05-08T12:32:11Z</time>
      </trkpt>
      <trkpt lat="41.5034" lon="-1.62509">
        <ele>722.61</ele>
        <time>2013-05-08T12:32:01Z</time>
      </trkpt>
      <trkpt lat="41.50352" lon="-1.62537">
        <ele>724.532</ele>
        <time>2013-05-08T12:31:52Z</time>
      </trkpt>
      <trkpt lat="41.50368" lon="-1.6258">
        <ele>727.417</ele>
        <time>2013-05-08T12:31:40Z</time>
      </trkpt>
      <trkpt lat="41.5039" lon="-1.62601">
        <ele>730.384</ele>
        <time>2013-05-08T12:31:30Z</time>
      </trkpt>
      <trkpt lat="41.50404" lon="-1.62611">
        <ele>730.371</ele>
        <time>2013-05-08T12:31:20Z</time>
      </trkpt>
      <trkpt lat="41.50404" lon="-1.62613">
        <ele>730.329</ele>
        <time>2013-05-08T12:30:35Z</time>
      </trkpt>
      <trkpt lat="41.50403" lon="-1.62615">
        <ele>730.342</ele>
        <time>2013-05-08T12:29:55Z</time>
      </trkpt>
      <trkpt lat="41.50404" lon="-1.62614">
        <ele>730.374</ele>
        <time>2013-05-08T12:28:52Z</time>
      </trkpt>
      <trkpt lat="41.50404" lon="-1.62614">
        <ele>730.356</ele>
        <time>2013-05-08T12:27:15Z</time>
      </trkpt>
      <trkpt lat="41.50404" lon="-1.62614">
        <ele>730.321</ele>
        <time>2013-05-08T12:25:59Z</time>
      </trkpt>
      <trkpt lat="41.50404" lon="-1.62613">
        <ele>730.308</ele>
        <time>2013-05-08T12:25:27Z</time>
      </trkpt>
      <trkpt lat="41.50404" lon="-1.62614">
        <ele>730.348</ele>
        <time>2013-05-08T12:24:21Z</time>
      </trkpt>
      <trkpt lat="41.50404" lon="-1.62614">
        <ele>730.319</ele>
        <time>2013-05-08T12:23:14Z</time>
      </trkpt>
      <trkpt lat="41.50403" lon="-1.62614">
        <ele>730.361</ele>
        <time>2013-05-08T12:21:58Z</time>
      </trkpt>
      <trkpt lat="41.50403" lon="-1.62615">
        <ele>730.346</ele>
        <time>2013-05-08T12:20:57Z</time>
      </trkpt>
      <trkpt lat="41.50403" lon="-1.62615">
        <ele>730.393</ele>
        <time>2013-05-08T12:19:58Z</time>
      </trkpt>
      <trkpt lat="41.50403" lon="-1.62615">
        <ele>730.36</ele>
        <time>2013-05-08T12:18:59Z</time>
      </trkpt>
      <trkpt lat="41.50402" lon="-1.62615">
        <ele>730.348</ele>
        <time>2013-05-08T12:18:27Z</time>
      </trkpt>
      <trkpt lat="41.50404" lon="-1.62614">
        <ele>730.341</ele>
        <time>2013-05-08T12:17:27Z</time>
      </trkpt>
      <trkpt lat="41.50404" lon="-1.62615">
        <ele>730.351</ele>
        <time>2013-05-08T12:16:20Z</time>
      </trkpt>
      <trkpt lat="41.50403" lon="-1.62616">
        <ele>730.301</ele>
        <time>2013-05-08T12:14:41Z</time>
      </trkpt>
      <trkpt lat="41.50402" lon="-1.62616">
        <ele>728.811</ele>
        <time>2013-05-08T12:13:05Z</time>
      </trkpt>
      <trkpt lat="41.50403" lon="-1.62614">
        <ele>728.808</ele>
        <time>2013-05-08T12:12:19Z</time>
      </trkpt>
      <trkpt lat="41.50403" lon="-1.62612">
        <ele>728.886</ele>
        <time>2013-05-08T12:11:50Z</time>
      </trkpt>
      <trkpt lat="41.50418" lon="-1.62618">
        <ele>729.377</ele>
        <time>2013-05-08T12:11:42Z</time>
      </trkpt>
      <trkpt lat="41.50422" lon="-1.62619">
        <ele>729.829</ele>
        <time>2013-05-08T12:11:41Z</time>
      </trkpt>
      <trkpt lat="41.50426" lon="-1.6262">
        <ele>729.814</ele>
        <time>2013-05-08T12:11:40Z</time>
      </trkpt>
      <trkpt lat="41.50431" lon="-1.6262">
        <ele>730.341</ele>
        <time>2013-05-08T12:11:39Z</time>
      </trkpt>
      <trkpt lat="41.50436" lon="-1.62621">
        <ele>730.318</ele>
        <time>2013-05-08T12:11:38Z</time>
      </trkpt>
      <trkpt lat="41.50442" lon="-1.62623">
        <ele>730.796</ele>
        <time>2013-05-08T12:11:37Z</time>
      </trkpt>
      <trkpt lat="41.50446" lon="-1.62626">
        <ele>730.769</ele>
        <time>2013-05-08T12:11:36Z</time>
      </trkpt>
      <trkpt lat="41.5045" lon="-1.62628">
        <ele>731.238</ele>
        <time>2013-05-08T12:11:35Z</time>
      </trkpt>
      <trkpt lat="41.50484" lon="-1.62653">
        <ele>733.17</ele>
        <time>2013-05-08T12:11:25Z</time>
      </trkpt>
      <trkpt lat="41.50513" lon="-1.62673">
        <ele>732.717</ele>
        <time>2013-05-08T12:11:10Z</time>
      </trkpt>
      <trkpt lat="41.5053" lon="-1.62696">
        <ele>730.308</ele>
        <time>2013-05-08T12:10:56Z</time>
      </trkpt>
      <trkpt lat="41.50548" lon="-1.62727">
        <ele>728.834</ele>
        <time>2013-05-08T12:10:43Z</time>
      </trkpt>
      <trkpt lat="41.50572" lon="-1.62765">
        <ele>728.845</ele>
        <time>2013-05-08T12:10:32Z</time>
      </trkpt>
      <trkpt lat="41.50599" lon="-1.62786">
        <ele>728.367</ele>
        <time>2013-05-08T12:10:21Z</time>
      </trkpt>
      <trkpt lat="41.50602" lon="-1.62787">
        <ele>727.972</ele>
        <time>2013-05-08T12:10:20Z</time>
      </trkpt>
      <trkpt lat="41.50605" lon="-1.62787">
        <ele>727.929</ele>
        <time>2013-05-08T12:10:19Z</time>
      </trkpt>
      <trkpt lat="41.50608" lon="-1.62787">
        <ele>727.966</ele>
        <time>2013-05-08T12:10:18Z</time>
      </trkpt>
      <trkpt lat="41.50611" lon="-1.62786">
        <ele>727.434</ele>
        <time>2013-05-08T12:10:17Z</time>
      </trkpt>
      <trkpt lat="41.50614" lon="-1.62785">
        <ele>727.437</ele>
        <time>2013-05-08T12:10:16Z</time>
      </trkpt>
      <trkpt lat="41.50618" lon="-1.62785">
        <ele>726.489</ele>
        <time>2013-05-08T12:10:15Z</time>
      </trkpt>
      <trkpt lat="41.50623" lon="-1.62785">
        <ele>725.906</ele>
        <time>2013-05-08T12:10:14Z</time>
      </trkpt>
      <trkpt lat="41.50628" lon="-1.62786">
        <ele>726.426</ele>
        <time>2013-05-08T12:10:13Z</time>
      </trkpt>
      <trkpt lat="41.50634" lon="-1.62789">
        <ele>725.908</ele>
        <time>2013-05-08T12:10:12Z</time>
      </trkpt>
      <trkpt lat="41.5064" lon="-1.62793">
        <ele>725.949</ele>
        <time>2013-05-08T12:10:11Z</time>
      </trkpt>
      <trkpt lat="41.50645" lon="-1.628">
        <ele>726.47</ele>
        <time>2013-05-08T12:10:10Z</time>
      </trkpt>
      <trkpt lat="41.5065" lon="-1.62808">
        <ele>726.422</ele>
        <time>2013-05-08T12:10:09Z</time>
      </trkpt>
      <trkpt lat="41.50656" lon="-1.62816">
        <ele>726.917</ele>
        <time>2013-05-08T12:10:08Z</time>
      </trkpt>
      <trkpt lat="41.50663" lon="-1.62822">
        <ele>726.944</ele>
        <time>2013-05-08T12:10:07Z</time>
      </trkpt>
      <trkpt lat="41.5067" lon="-1.62826">
        <ele>727.451</ele>
        <time>2013-05-08T12:10:06Z</time>
      </trkpt>
      <trkpt lat="41.50677" lon="-1.62829">
        <ele>728.329</ele>
        <time>2013-05-08T12:10:05Z</time>
      </trkpt>
      <trkpt lat="41.5069" lon="-1.62831">
        <ele>729.852</ele>
        <time>2013-05-08T12:10:03Z</time>
      </trkpt>
      <trkpt lat="41.50696" lon="-1.62832">
        <ele>730.316</ele>
        <time>2013-05-08T12:10:02Z</time>
      </trkpt>
      <trkpt lat="41.50702" lon="-1.62834">
        <ele>731.276</ele>
        <time>2013-05-08T12:10:01Z</time>
      </trkpt>
      <trkpt lat="41.50726" lon="-1.62844">
        <ele>734.113</ele>
        <time>2013-05-08T12:09:57Z</time>
      </trkpt>
      <trkpt lat="41.50753" lon="-1.62853">
        <ele>737.508</ele>
        <time>2013-05-08T12:09:52Z</time>
      </trkpt>
      <trkpt lat="41.50758" lon="-1.62855">
        <ele>738.472</ele>
        <time>2013-05-08T12:09:51Z</time>
      </trkpt>
      <trkpt lat="41.50762" lon="-1.62857">
        <ele>738.463</ele>
        <time>2013-05-08T12:09:50Z</time>
      </trkpt>
      <trkpt lat="41.50777" lon="-1.62862">
        <ele>741.315</ele>
        <time>2013-05-08T12:09:46Z</time>
      </trkpt>
      <trkpt lat="41.50795" lon="-1.62866">
        <ele>740.89</ele>
        <time>2013-05-08T12:09:36Z</time>
      </trkpt>
      <trkpt lat="41.50807" lon="-1.62868">
        <ele>739.477</ele>
        <time>2013-05-08T12:09:27Z</time>
      </trkpt>
      <trkpt lat="41.50818" lon="-1.62869">
        <ele>738.054</ele>
        <time>2013-05-08T12:09:18Z</time>
      </trkpt>
      <trkpt lat="41.50835" lon="-1.62869">
        <ele>736.092</ele>
        <time>2013-05-08T12:09:05Z</time>
      </trkpt>
      <trkpt lat="41.50855" lon="-1.62863">
        <ele>733.665</ele>
        <time>2013-05-08T12:08:50Z</time>
      </trkpt>
      <trkpt lat="41.50873" lon="-1.6285">
        <ele>732.763</ele>
        <time>2013-05-08T12:08:35Z</time>
      </trkpt>
      <trkpt lat="41.50885" lon="-1.62837">
        <ele>731.244</ele>
        <time>2013-05-08T12:08:23Z</time>
      </trkpt>
      <trkpt lat="41.50898" lon="-1.62826">
        <ele>728.818</ele>
        <time>2013-05-08T12:08:09Z</time>
      </trkpt>
      <trkpt lat="41.50904" lon="-1.62823">
        <ele>727.908</ele>
        <time>2013-05-08T12:08:03Z</time>
      </trkpt>
      <trkpt lat="41.50914" lon="-1.62819">
        <ele>726.927</ele>
        <time>2013-05-08T12:07:52Z</time>
      </trkpt>
      <trkpt lat="41.50926" lon="-1.62817">
        <ele>724.558</ele>
        <time>2013-05-08T12:07:40Z</time>
      </trkpt>
      <trkpt lat="41.50938" lon="-1.62813">
        <ele>722.16</ele>
        <time>2013-05-08T12:07:27Z</time>
      </trkpt>
      <trkpt lat="41.50945" lon="-1.62809">
        <ele>720.755</ele>
        <time>2013-05-08T12:07:18Z</time>
      </trkpt>
      <trkpt lat="41.50945" lon="-1.62808">
        <ele>719.252</ele>
        <time>2013-05-08T12:07:17Z</time>
      </trkpt>
      <trkpt lat="41.50959" lon="-1.62806">
        <ele>719.279</ele>
        <time>2013-05-08T12:07:06Z</time>
      </trkpt>
      <trkpt lat="41.50963" lon="-1.62808">
        <ele>719.217</ele>
        <time>2013-05-08T12:07:03Z</time>
      </trkpt>
      <trkpt lat="41.50983" lon="-1.62821">
        <ele>720.79</ele>
        <time>2013-05-08T12:06:57Z</time>
      </trkpt>
      <trkpt lat="41.50987" lon="-1.62826">
        <ele>721.157</ele>
        <time>2013-05-08T12:06:56Z</time>
      </trkpt>
      <trkpt lat="41.50992" lon="-1.6283">
        <ele>722.6</ele>
        <time>2013-05-08T12:06:55Z</time>
      </trkpt>
      <trkpt lat="41.51007" lon="-1.62837">
        <ele>722.62</ele>
        <time>2013-05-08T12:06:48Z</time>
      </trkpt>
      <trkpt lat="41.51025" lon="-1.62835">
        <ele>721.608</ele>
        <time>2013-05-08T12:06:36Z</time>
      </trkpt>
      <trkpt lat="41.51041" lon="-1.62832">
        <ele>720.226</ele>
        <time>2013-05-08T12:06:23Z</time>
      </trkpt>
      <trkpt lat="41.51056" lon="-1.62826">
        <ele>718.237</ele>
        <time>2013-05-08T12:06:09Z</time>
      </trkpt>
      <trkpt lat="41.51069" lon="-1.62819">
        <ele>716.359</ele>
        <time>2013-05-08T12:05:57Z</time>
      </trkpt>
      <trkpt lat="41.51086" lon="-1.62812">
        <ele>713.994</ele>
        <time>2013-05-08T12:05:42Z</time>
      </trkpt>
      <trkpt lat="41.51105" lon="-1.62807">
        <ele>712.581</ele>
        <time>2013-05-08T12:05:29Z</time>
      </trkpt>
      <trkpt lat="41.51131" lon="-1.6281">
        <ele>710.658</ele>
        <time>2013-05-08T12:05:14Z</time>
      </trkpt>
      <trkpt lat="41.51149" lon="-1.62811">
        <ele>709.176</ele>
        <time>2013-05-08T12:05:03Z</time>
      </trkpt>
      <trkpt lat="41.51169" lon="-1.62814">
        <ele>707.289</ele>
        <time>2013-05-08T12:04:51Z</time>
      </trkpt>
      <trkpt lat="41.5119" lon="-1.62821">
        <ele>705.857</ele>
        <time>2013-05-08T12:04:36Z</time>
      </trkpt>
      <trkpt lat="41.51192" lon="-1.62822">
        <ele>705.3</ele>
        <time>2013-05-08T12:04:35Z</time>
      </trkpt>
      <trkpt lat="41.51193" lon="-1.62822">
        <ele>705.32</ele>
        <time>2013-05-08T12:04:34Z</time>
      </trkpt>
      <trkpt lat="41.51194" lon="-1.62822">
        <ele>705.308</ele>
        <time>2013-05-08T12:04:33Z</time>
      </trkpt>
      <trkpt lat="41.51195" lon="-1.62822">
        <ele>705.316</ele>
        <time>2013-05-08T12:04:32Z</time>
      </trkpt>
      <trkpt lat="41.51197" lon="-1.62823">
        <ele>704.877</ele>
        <time>2013-05-08T12:04:31Z</time>
      </trkpt>
      <trkpt lat="41.51198" lon="-1.62824">
        <ele>704.849</ele>
        <time>2013-05-08T12:04:30Z</time>
      </trkpt>
      <trkpt lat="41.51199" lon="-1.62824">
        <ele>705.334</ele>
        <time>2013-05-08T12:04:29Z</time>
      </trkpt>
      <trkpt lat="41.51201" lon="-1.62824">
        <ele>704.831</ele>
        <time>2013-05-08T12:04:28Z</time>
      </trkpt>
      <trkpt lat="41.51216" lon="-1.62828">
        <ele>703.358</ele>
        <time>2013-05-08T12:04:16Z</time>
      </trkpt>
      <trkpt lat="41.51232" lon="-1.62832">
        <ele>701.936</ele>
        <time>2013-05-08T12:04:04Z</time>
      </trkpt>
      <trkpt lat="41.51253" lon="-1.62832">
        <ele>699.559</ele>
        <time>2013-05-08T12:03:48Z</time>
      </trkpt>
      <trkpt lat="41.51272" lon="-1.62826">
        <ele>697.681</ele>
        <time>2013-05-08T12:03:32Z</time>
      </trkpt>
      <trkpt lat="41.5129" lon="-1.62819">
        <ele>696.161</ele>
        <time>2013-05-08T12:03:20Z</time>
      </trkpt>
      <trkpt lat="41.51309" lon="-1.62844">
        <ele>695.217</ele>
        <time>2013-05-08T12:03:09Z</time>
      </trkpt>
      <trkpt lat="41.51321" lon="-1.6286">
        <ele>694.708</ele>
        <time>2013-05-08T12:03:02Z</time>
      </trkpt>
      <trkpt lat="41.51361" lon="-1.62863">
        <ele>694.279</ele>
        <time>2013-05-08T12:02:48Z</time>
      </trkpt>
      <trkpt lat="41.51364" lon="-1.62864">
        <ele>694.28</ele>
        <time>2013-05-08T12:02:47Z</time>
      </trkpt>
      <trkpt lat="41.51366" lon="-1.62866">
        <ele>694.242</ele>
        <time>2013-05-08T12:02:46Z</time>
      </trkpt>
      <trkpt lat="41.51408" lon="-1.62882">
        <ele>693.717</ele>
        <time>2013-05-08T12:02:32Z</time>
      </trkpt>
      <trkpt lat="41.51438" lon="-1.62905">
        <ele>693.774</ele>
        <time>2013-05-08T12:02:22Z</time>
      </trkpt>
      <trkpt lat="41.51464" lon="-1.62933">
        <ele>692.371</ele>
        <time>2013-05-08T12:02:09Z</time>
      </trkpt>
      <trkpt lat="41.5149" lon="-1.62958">
        <ele>692.369</ele>
        <time>2013-05-08T12:01:57Z</time>
      </trkpt>
      <trkpt lat="41.51512" lon="-1.62969">
        <ele>691.332</ele>
        <time>2013-05-08T12:01:45Z</time>
      </trkpt>
      <trkpt lat="41.51526" lon="-1.62973">
        <ele>690.422</ele>
        <time>2013-05-08T12:01:34Z</time>
      </trkpt>
      <trkpt lat="41.51541" lon="-1.62976">
        <ele>688.062</ele>
        <time>2013-05-08T12:01:19Z</time>
      </trkpt>
      <trkpt lat="41.51543" lon="-1.62975">
        <ele>687.508</ele>
        <time>2013-05-08T12:01:16Z</time>
      </trkpt>
      <trkpt lat="41.51546" lon="-1.62973">
        <ele>687.008</ele>
        <time>2013-05-08T12:01:13Z</time>
      </trkpt>
      <trkpt lat="41.51556" lon="-1.62965">
        <ele>685.663</ele>
        <time>2013-05-08T12:01:00Z</time>
      </trkpt>
      <trkpt lat="41.5156" lon="-1.62963">
        <ele>684.634</ele>
        <time>2013-05-08T12:00:55Z</time>
      </trkpt>
      <trkpt lat="41.5157" lon="-1.62954">
        <ele>682.216</ele>
        <time>2013-05-08T12:00:42Z</time>
      </trkpt>
      <trkpt lat="41.5157" lon="-1.62954">
        <ele>682.221</ele>
        <time>2013-05-08T12:00:41Z</time>
      </trkpt>
      <trkpt lat="41.51573" lon="-1.62952">
        <ele>682.268</ele>
        <time>2013-05-08T12:00:38Z</time>
      </trkpt>
      <trkpt lat="41.51574" lon="-1.62951">
        <ele>681.765</ele>
        <time>2013-05-08T12:00:37Z</time>
      </trkpt>
      <trkpt lat="41.51588" lon="-1.62939">
        <ele>679.883</ele>
        <time>2013-05-08T12:00:21Z</time>
      </trkpt>
      <trkpt lat="41.51597" lon="-1.62931">
        <ele>677.926</ele>
        <time>2013-05-08T12:00:10Z</time>
      </trkpt>
      <trkpt lat="41.5161" lon="-1.62923">
        <ele>675.926</ele>
        <time>2013-05-08T11:59:57Z</time>
      </trkpt>
      <trkpt lat="41.51631" lon="-1.62921">
        <ele>674.047</ele>
        <time>2013-05-08T11:59:43Z</time>
      </trkpt>
      <trkpt lat="41.51652" lon="-1.6292">
        <ele>673.111</ele>
        <time>2013-05-08T11:59:29Z</time>
      </trkpt>
      <trkpt lat="41.51661" lon="-1.62904">
        <ele>671.608</ele>
        <time>2013-05-08T11:59:21Z</time>
      </trkpt>
      <trkpt lat="41.51666" lon="-1.62882">
        <ele>670.733</ele>
        <time>2013-05-08T11:59:10Z</time>
      </trkpt>
      <trkpt lat="41.51681" lon="-1.62865">
        <ele>669.224</ele>
        <time>2013-05-08T11:59:00Z</time>
      </trkpt>
      <trkpt lat="41.51682" lon="-1.62866">
        <ele>669.266</ele>
        <time>2013-05-08T11:58:59Z</time>
      </trkpt>
      <trkpt lat="41.51684" lon="-1.62866">
        <ele>669.211</ele>
        <time>2013-05-08T11:58:58Z</time>
      </trkpt>
      <trkpt lat="41.51686" lon="-1.62867">
        <ele>669.268</ele>
        <time>2013-05-08T11:58:57Z</time>
      </trkpt>
      <trkpt lat="41.51688" lon="-1.62868">
        <ele>668.765</ele>
        <time>2013-05-08T11:58:56Z</time>
      </trkpt>
      <trkpt lat="41.51689" lon="-1.62869">
        <ele>668.713</ele>
        <time>2013-05-08T11:58:55Z</time>
      </trkpt>
      <trkpt lat="41.51691" lon="-1.6287">
        <ele>669.296</ele>
        <time>2013-05-08T11:58:54Z</time>
      </trkpt>
      <trkpt lat="41.51693" lon="-1.62871">
        <ele>668.742</ele>
        <time>2013-05-08T11:58:53Z</time>
      </trkpt>
      <trkpt lat="41.51694" lon="-1.62872">
        <ele>669.222</ele>
        <time>2013-05-08T11:58:52Z</time>
      </trkpt>
      <trkpt lat="41.51696" lon="-1.62873">
        <ele>668.714</ele>
        <time>2013-05-08T11:58:51Z</time>
      </trkpt>
      <trkpt lat="41.51698" lon="-1.62873">
        <ele>668.708</ele>
        <time>2013-05-08T11:58:50Z</time>
      </trkpt>
      <trkpt lat="41.517" lon="-1.62872">
        <ele>668.735</ele>
        <time>2013-05-08T11:58:49Z</time>
      </trkpt>
      <trkpt lat="41.51705" lon="-1.62868">
        <ele>668.316</ele>
        <time>2013-05-08T11:58:46Z</time>
      </trkpt>
      <trkpt lat="41.51723" lon="-1.6285">
        <ele>667.828</ele>
        <time>2013-05-08T11:58:34Z</time>
      </trkpt>
      <trkpt lat="41.51746" lon="-1.62851">
        <ele>666.863</ele>
        <time>2013-05-08T11:58:23Z</time>
      </trkpt>
      <trkpt lat="41.51775" lon="-1.62858">
        <ele>665.99</ele>
        <time>2013-05-08T11:58:09Z</time>
      </trkpt>
      <trkpt lat="41.51796" lon="-1.62858">
        <ele>664.457</ele>
        <time>2013-05-08T11:57:54Z</time>
      </trkpt>
      <trkpt lat="41.51814" lon="-1.62857">
        <ele>663.535</ele>
        <time>2013-05-08T11:57:42Z</time>
      </trkpt>
      <trkpt lat="41.51834" lon="-1.62862">
        <ele>661.098</ele>
        <time>2013-05-08T11:57:25Z</time>
      </trkpt>
      <trkpt lat="41.51847" lon="-1.62867">
        <ele>659.632</ele>
        <time>2013-05-08T11:57:12Z</time>
      </trkpt>
      <trkpt lat="41.51856" lon="-1.62871">
        <ele>657.792</ele>
        <time>2013-05-08T11:57:01Z</time>
      </trkpt>
      <trkpt lat="41.51858" lon="-1.62872">
        <ele>657.711</ele>
        <time>2013-05-08T11:56:59Z</time>
      </trkpt>
      <trkpt lat="41.5187" lon="-1.62876">
        <ele>655.808</ele>
        <time>2013-05-08T11:56:47Z</time>
      </trkpt>
      <trkpt lat="41.51882" lon="-1.62879">
        <ele>653.854</ele>
        <time>2013-05-08T11:56:35Z</time>
      </trkpt>
      <trkpt lat="41.51897" lon="-1.62882">
        <ele>651.495</ele>
        <time>2013-05-08T11:56:21Z</time>
      </trkpt>
      <trkpt lat="41.5191" lon="-1.62888">
        <ele>650.047</ele>
        <time>2013-05-08T11:56:09Z</time>
      </trkpt>
      <trkpt lat="41.51924" lon="-1.62877">
        <ele>647.612</ele>
        <time>2013-05-08T11:55:55Z</time>
      </trkpt>
      <trkpt lat="41.51939" lon="-1.62851">
        <ele>646.639</ele>
        <time>2013-05-08T11:55:40Z</time>
      </trkpt>
      <trkpt lat="41.51957" lon="-1.62834">
        <ele>644.776</ele>
        <time>2013-05-08T11:55:28Z</time>
      </trkpt>
      <trkpt lat="41.51979" lon="-1.62819">
        <ele>643.714</ele>
        <time>2013-05-08T11:55:15Z</time>
      </trkpt>
      <trkpt lat="41.52002" lon="-1.62822">
        <ele>641.827</ele>
        <time>2013-05-08T11:55:04Z</time>
      </trkpt>
      <trkpt lat="41.5203" lon="-1.62824">
        <ele>641.859</ele>
        <time>2013-05-08T11:54:55Z</time>
      </trkpt>
      <trkpt lat="41.52062" lon="-1.62817">
        <ele>641.803</ele>
        <time>2013-05-08T11:54:41Z</time>
      </trkpt>
      <trkpt lat="41.52081" lon="-1.62816">
        <ele>640.923</ele>
        <time>2013-05-08T11:54:31Z</time>
      </trkpt>
      <trkpt lat="41.52106" lon="-1.62809">
        <ele>639.908</ele>
        <time>2013-05-08T11:54:17Z</time>
      </trkpt>
      <trkpt lat="41.52131" lon="-1.62812">
        <ele>638.546</ele>
        <time>2013-05-08T11:54:03Z</time>
      </trkpt>
      <trkpt lat="41.5216" lon="-1.62817">
        <ele>637.067</ele>
        <time>2013-05-08T11:53:48Z</time>
      </trkpt>
      <trkpt lat="41.52185" lon="-1.62828">
        <ele>635.149</ele>
        <time>2013-05-08T11:53:33Z</time>
      </trkpt>
      <trkpt lat="41.52207" lon="-1.62835">
        <ele>633.734</ele>
        <time>2013-05-08T11:53:21Z</time>
      </trkpt>
      <trkpt lat="41.52243" lon="-1.62843">
        <ele>633.251</ele>
        <time>2013-05-08T11:53:07Z</time>
      </trkpt>
      <trkpt lat="41.52266" lon="-1.62825">
        <ele>633.268</ele>
        <time>2013-05-08T11:52:55Z</time>
      </trkpt>
      <trkpt lat="41.52274" lon="-1.6282">
        <ele>631.776</ele>
        <time>2013-05-08T11:52:51Z</time>
      </trkpt>
      <trkpt lat="41.52296" lon="-1.62805">
        <ele>631.769</ele>
        <time>2013-05-08T11:52:41Z</time>
      </trkpt>
      <trkpt lat="41.52311" lon="-1.62766">
        <ele>631.731</ele>
        <time>2013-05-08T11:52:31Z</time>
      </trkpt>
      <trkpt lat="41.52323" lon="-1.62737">
        <ele>633.261</ele>
        <time>2013-05-08T11:52:23Z</time>
      </trkpt>
      <trkpt lat="41.52348" lon="-1.62721">
        <ele>632.707</ele>
        <time>2013-05-08T11:52:11Z</time>
      </trkpt>
      <trkpt lat="41.52384" lon="-1.62712">
        <ele>631.208</ele>
        <time>2013-05-08T11:51:54Z</time>
      </trkpt>
      <trkpt lat="41.52406" lon="-1.62705">
        <ele>630.824</ele>
        <time>2013-05-08T11:51:42Z</time>
      </trkpt>
      <trkpt lat="41.52431" lon="-1.62702">
        <ele>629.875</ele>
        <time>2013-05-08T11:51:28Z</time>
      </trkpt>
      <trkpt lat="41.52458" lon="-1.627">
        <ele>627.427</ele>
        <time>2013-05-08T11:51:14Z</time>
      </trkpt>
      <trkpt lat="41.52483" lon="-1.62699">
        <ele>626.452</ele>
        <time>2013-05-08T11:51:00Z</time>
      </trkpt>
      <trkpt lat="41.52506" lon="-1.62696">
        <ele>625.529</ele>
        <time>2013-05-08T11:50:47Z</time>
      </trkpt>
      <trkpt lat="41.52527" lon="-1.62706">
        <ele>624.016</ele>
        <time>2013-05-08T11:50:33Z</time>
      </trkpt>
      <trkpt lat="41.52538" lon="-1.62712">
        <ele>623.124</ele>
        <time>2013-05-08T11:50:24Z</time>
      </trkpt>
      <trkpt lat="41.52554" lon="-1.62724">
        <ele>621.657</ele>
        <time>2013-05-08T11:50:11Z</time>
      </trkpt>
      <trkpt lat="41.52557" lon="-1.62725">
        <ele>621.694</ele>
        <time>2013-05-08T11:50:08Z</time>
      </trkpt>
      <trkpt lat="41.52558" lon="-1.62726">
        <ele>621.257</ele>
        <time>2013-05-08T11:50:07Z</time>
      </trkpt>
      <trkpt lat="41.52568" lon="-1.62739">
        <ele>620.222</ele>
        <time>2013-05-08T11:49:59Z</time>
      </trkpt>
      <trkpt lat="41.52594" lon="-1.62749">
        <ele>620.208</ele>
        <time>2013-05-08T11:49:51Z</time>
      </trkpt>
      <trkpt lat="41.52637" lon="-1.62735">
        <ele>620.76</ele>
        <time>2013-05-08T11:49:40Z</time>
      </trkpt>
      <trkpt lat="41.52682" lon="-1.62732">
        <ele>622.651</ele>
        <time>2013-05-08T11:49:29Z</time>
      </trkpt>
      <trkpt lat="41.52703" lon="-1.62739">
        <ele>622.673</ele>
        <time>2013-05-08T11:49:23Z</time>
      </trkpt>
      <trkpt lat="41.52727" lon="-1.62747">
        <ele>622.128</ele>
        <time>2013-05-08T11:49:12Z</time>
      </trkpt>
      <trkpt lat="41.52745" lon="-1.62738">
        <ele>621.215</ele>
        <time>2013-05-08T11:49:02Z</time>
      </trkpt>
      <trkpt lat="41.52765" lon="-1.62729">
        <ele>620.742</ele>
        <time>2013-05-08T11:48:51Z</time>
      </trkpt>
      <trkpt lat="41.52777" lon="-1.62725">
        <ele>620.75</ele>
        <time>2013-05-08T11:48:41Z</time>
      </trkpt>
      <trkpt lat="41.52797" lon="-1.62724">
        <ele>619.253</ele>
        <time>2013-05-08T11:48:29Z</time>
      </trkpt>
      <trkpt lat="41.52813" lon="-1.62722">
        <ele>618.334</ele>
        <time>2013-05-08T11:48:16Z</time>
      </trkpt>
      <trkpt lat="41.52825" lon="-1.62719">
        <ele>616.855</ele>
        <time>2013-05-08T11:48:04Z</time>
      </trkpt>
      <trkpt lat="41.52839" lon="-1.62714">
        <ele>614.41</ele>
        <time>2013-05-08T11:47:50Z</time>
      </trkpt>
      <trkpt lat="41.52853" lon="-1.62705">
        <ele>613.008</ele>
        <time>2013-05-08T11:47:36Z</time>
      </trkpt>
      <trkpt lat="41.52854" lon="-1.62704">
        <ele>613.034</ele>
        <time>2013-05-08T11:47:35Z</time>
      </trkpt>
      <trkpt lat="41.52863" lon="-1.62695">
        <ele>612.025</ele>
        <time>2013-05-08T11:47:25Z</time>
      </trkpt>
      <trkpt lat="41.52875" lon="-1.62683">
        <ele>609.687</ele>
        <time>2013-05-08T11:47:10Z</time>
      </trkpt>
      <trkpt lat="41.52884" lon="-1.62675">
        <ele>608.232</ele>
        <time>2013-05-08T11:46:59Z</time>
      </trkpt>
      <trkpt lat="41.52895" lon="-1.62672">
        <ele>606.319</ele>
        <time>2013-05-08T11:46:48Z</time>
      </trkpt>
      <trkpt lat="41.52908" lon="-1.62661">
        <ele>604.816</ele>
        <time>2013-05-08T11:46:35Z</time>
      </trkpt>
      <trkpt lat="41.52919" lon="-1.62643">
        <ele>602.444</ele>
        <time>2013-05-08T11:46:21Z</time>
      </trkpt>
      <trkpt lat="41.52928" lon="-1.62623">
        <ele>601.097</ele>
        <time>2013-05-08T11:46:08Z</time>
      </trkpt>
      <trkpt lat="41.52937" lon="-1.62597">
        <ele>599.524</ele>
        <time>2013-05-08T11:45:54Z</time>
      </trkpt>
      <trkpt lat="41.52947" lon="-1.62575">
        <ele>600.504</ele>
        <time>2013-05-08T11:45:45Z</time>
      </trkpt>
      <trkpt lat="41.52977" lon="-1.62564">
        <ele>601.914</ele>
        <time>2013-05-08T11:45:36Z</time>
      </trkpt>
      <trkpt lat="41.53008" lon="-1.62561">
        <ele>603.408</ele>
        <time>2013-05-08T11:45:27Z</time>
      </trkpt>
      <trkpt lat="41.53032" lon="-1.6256">
        <ele>602.923</ele>
        <time>2013-05-08T11:45:16Z</time>
      </trkpt>
      <trkpt lat="41.53052" lon="-1.62567">
        <ele>601.934</ele>
        <time>2013-05-08T11:45:03Z</time>
      </trkpt>
      <trkpt lat="41.53071" lon="-1.62578">
        <ele>600.596</ele>
        <time>2013-05-08T11:44:50Z</time>
      </trkpt>
      <trkpt lat="41.53094" lon="-1.6259">
        <ele>599.581</ele>
        <time>2013-05-08T11:44:37Z</time>
      </trkpt>
      <trkpt lat="41.53116" lon="-1.62599">
        <ele>598.658</ele>
        <time>2013-05-08T11:44:25Z</time>
      </trkpt>
      <trkpt lat="41.53118" lon="-1.626">
        <ele>598.655</ele>
        <time>2013-05-08T11:44:24Z</time>
      </trkpt>
      <trkpt lat="41.5312" lon="-1.62601">
        <ele>598.633</ele>
        <time>2013-05-08T11:44:23Z</time>
      </trkpt>
      <trkpt lat="41.53121" lon="-1.62602">
        <ele>598.166</ele>
        <time>2013-05-08T11:44:22Z</time>
      </trkpt>
      <trkpt lat="41.53123" lon="-1.62604">
        <ele>598.146</ele>
        <time>2013-05-08T11:44:21Z</time>
      </trkpt>
      <trkpt lat="41.53124" lon="-1.62605">
        <ele>598.688</ele>
        <time>2013-05-08T11:44:20Z</time>
      </trkpt>
      <trkpt lat="41.53126" lon="-1.62607">
        <ele>598.616</ele>
        <time>2013-05-08T11:44:19Z</time>
      </trkpt>
      <trkpt lat="41.53127" lon="-1.62608">
        <ele>598.608</ele>
        <time>2013-05-08T11:44:18Z</time>
      </trkpt>
      <trkpt lat="41.53129" lon="-1.62609">
        <ele>598.625</ele>
        <time>2013-05-08T11:44:17Z</time>
      </trkpt>
      <trkpt lat="41.53131" lon="-1.6261">
        <ele>598.636</ele>
        <time>2013-05-08T11:44:16Z</time>
      </trkpt>
      <trkpt lat="41.53133" lon="-1.62611">
        <ele>598.628</ele>
        <time>2013-05-08T11:44:15Z</time>
      </trkpt>
      <trkpt lat="41.53134" lon="-1.62611">
        <ele>598.153</ele>
        <time>2013-05-08T11:44:14Z</time>
      </trkpt>
      <trkpt lat="41.53144" lon="-1.62613">
        <ele>597.67</ele>
        <time>2013-05-08T11:44:08Z</time>
      </trkpt>
      <trkpt lat="41.53164" lon="-1.62621">
        <ele>597.117</ele>
        <time>2013-05-08T11:43:54Z</time>
      </trkpt>
      <trkpt lat="41.53165" lon="-1.62622">
        <ele>596.695</ele>
        <time>2013-05-08T11:43:53Z</time>
      </trkpt>
      <trkpt lat="41.53167" lon="-1.62623">
        <ele>596.678</ele>
        <time>2013-05-08T11:43:52Z</time>
      </trkpt>
      <trkpt lat="41.53168" lon="-1.62623">
        <ele>596.697</ele>
        <time>2013-05-08T11:43:51Z</time>
      </trkpt>
      <trkpt lat="41.53169" lon="-1.62623">
        <ele>596.623</ele>
        <time>2013-05-08T11:43:50Z</time>
      </trkpt>
      <trkpt lat="41.5317" lon="-1.62624">
        <ele>596.625</ele>
        <time>2013-05-08T11:43:49Z</time>
      </trkpt>
      <trkpt lat="41.53172" lon="-1.62624">
        <ele>596.608</ele>
        <time>2013-05-08T11:43:48Z</time>
      </trkpt>
      <trkpt lat="41.53173" lon="-1.62624">
        <ele>596.62</ele>
        <time>2013-05-08T11:43:47Z</time>
      </trkpt>
      <trkpt lat="41.53175" lon="-1.62621">
        <ele>596.611</ele>
        <time>2013-05-08T11:43:33Z</time>
      </trkpt>
      <trkpt lat="41.53176" lon="-1.62623">
        <ele>596.663</ele>
        <time>2013-05-08T11:43:09Z</time>
      </trkpt>
      <trkpt lat="41.53175" lon="-1.62622">
        <ele>596.648</ele>
        <time>2013-05-08T11:42:43Z</time>
      </trkpt>
      <trkpt lat="41.53176" lon="-1.62622">
        <ele>596.245</ele>
        <time>2013-05-08T11:42:33Z</time>
      </trkpt>
      <trkpt lat="41.53189" lon="-1.62633">
        <ele>595.782</ele>
        <time>2013-05-08T11:42:23Z</time>
      </trkpt>
      <trkpt lat="41.53211" lon="-1.62681">
        <ele>595.72</ele>
        <time>2013-05-08T11:42:08Z</time>
      </trkpt>
      <trkpt lat="41.53251" lon="-1.6275">
        <ele>595.253</ele>
        <time>2013-05-08T11:41:48Z</time>
      </trkpt>
      <trkpt lat="41.53291" lon="-1.62819">
        <ele>593.894</ele>
        <time>2013-05-08T11:41:28Z</time>
      </trkpt>
      <trkpt lat="41.53324" lon="-1.62876">
        <ele>593.357</ele>
        <time>2013-05-08T11:41:11Z</time>
      </trkpt>
      <trkpt lat="41.53355" lon="-1.62927">
        <ele>592.322</ele>
        <time>2013-05-08T11:40:55Z</time>
      </trkpt>
      <trkpt lat="41.53378" lon="-1.62968">
        <ele>591.408</ele>
        <time>2013-05-08T11:40:42Z</time>
      </trkpt>
      <trkpt lat="41.53404" lon="-1.63018">
        <ele>591.44</ele>
        <time>2013-05-08T11:40:27Z</time>
      </trkpt>
      <trkpt lat="41.53427" lon="-1.63068">
        <ele>591.421</ele>
        <time>2013-05-08T11:40:13Z</time>
      </trkpt>
      <trkpt lat="41.53429" lon="-1.63072">
        <ele>591.413</ele>
        <time>2013-05-08T11:40:12Z</time>
      </trkpt>
      <trkpt lat="41.5343" lon="-1.63075">
        <ele>591.468</ele>
        <time>2013-05-08T11:40:11Z</time>
      </trkpt>
      <trkpt lat="41.53432" lon="-1.63079">
        <ele>591.415</ele>
        <time>2013-05-08T11:40:10Z</time>
      </trkpt>
      <trkpt lat="41.53434" lon="-1.63082">
        <ele>591.482</ele>
        <time>2013-05-08T11:40:09Z</time>
      </trkpt>
      <trkpt lat="41.53437" lon="-1.63084">
        <ele>591.46</ele>
        <time>2013-05-08T11:40:08Z</time>
      </trkpt>
      <trkpt lat="41.53459" lon="-1.63061">
        <ele>590.443</ele>
        <time>2013-05-08T11:39:55Z</time>
      </trkpt>
      <trkpt lat="41.5348" lon="-1.63045">
        <ele>589.435</ele>
        <time>2013-05-08T11:39:44Z</time>
      </trkpt>
      <trkpt lat="41.535" lon="-1.63031">
        <ele>588.086</ele>
        <time>2013-05-08T11:39:33Z</time>
      </trkpt>
      <trkpt lat="41.53528" lon="-1.63011">
        <ele>586.514</ele>
        <time>2013-05-08T11:39:18Z</time>
      </trkpt>
      <trkpt lat="41.53545" lon="-1.62998">
        <ele>584.608</ele>
        <time>2013-05-08T11:39:09Z</time>
      </trkpt>
      <trkpt lat="41.53575" lon="-1.62974">
        <ele>584.694</ele>
        <time>2013-05-08T11:38:57Z</time>
      </trkpt>
      <trkpt lat="41.53596" lon="-1.6296">
        <ele>584.685</ele>
        <time>2013-05-08T11:38:46Z</time>
      </trkpt>
      <trkpt lat="41.53596" lon="-1.62962">
        <ele>584.697</ele>
        <time>2013-05-08T11:38:35Z</time>
      </trkpt>
      <trkpt lat="41.53596" lon="-1.62962">
        <ele>585.172</ele>
        <time>2013-05-08T11:37:57Z</time>
      </trkpt>
      <trkpt lat="41.53594" lon="-1.6296">
        <ele>585.169</ele>
        <time>2013-05-08T11:37:50Z</time>
      </trkpt>
      <trkpt lat="41.53635" lon="-1.62927">
        <ele>586.176</ele>
        <time>2013-05-08T11:37:41Z</time>
      </trkpt>
      <trkpt lat="41.53645" lon="-1.62922">
        <ele>587.034</ele>
        <time>2013-05-08T11:37:39Z</time>
      </trkpt>
      <trkpt lat="41.53674" lon="-1.62904">
        <ele>588.557</ele>
        <time>2013-05-08T11:37:32Z</time>
      </trkpt>
      <trkpt lat="41.53685" lon="-1.62898">
        <ele>589.094</ele>
        <time>2013-05-08T11:37:29Z</time>
      </trkpt>
      <trkpt lat="41.53711" lon="-1.62882">
        <ele>589.457</ele>
        <time>2013-05-08T11:37:19Z</time>
      </trkpt>
      <trkpt lat="41.53713" lon="-1.62882">
        <ele>589.422</ele>
        <time>2013-05-08T11:37:18Z</time>
      </trkpt>
      <trkpt lat="41.53715" lon="-1.62883">
        <ele>589.408</ele>
        <time>2013-05-08T11:37:17Z</time>
      </trkpt>
      <trkpt lat="41.53719" lon="-1.62885">
        <ele>589.44</ele>
        <time>2013-05-08T11:37:11Z</time>
      </trkpt>
      <trkpt lat="41.53729" lon="-1.62907">
        <ele>589.491</ele>
        <time>2013-05-08T11:37:01Z</time>
      </trkpt>
      <trkpt lat="41.53737" lon="-1.62947">
        <ele>589.483</ele>
        <time>2013-05-08T11:36:49Z</time>
      </trkpt>
      <trkpt lat="41.53741" lon="-1.62971">
        <ele>589.458</ele>
        <time>2013-05-08T11:36:40Z</time>
      </trkpt>
      <trkpt lat="41.53738" lon="-1.62973">
        <ele>589.435</ele>
        <time>2013-05-08T11:36:35Z</time>
      </trkpt>
      <trkpt lat="41.53738" lon="-1.62979">
        <ele>589.472</ele>
        <time>2013-05-08T11:36:29Z</time>
      </trkpt>
      <trkpt lat="41.53739" lon="-1.62981">
        <ele>589.49</ele>
        <time>2013-05-08T11:36:27Z</time>
      </trkpt>
      <trkpt lat="41.53731" lon="-1.62995">
        <ele>588.053</ele>
        <time>2013-05-08T10:30:40Z</time>
      </trkpt>
      <trkpt lat="41.53732" lon="-1.63">
        <ele>588.043</ele>
        <time>2013-05-08T10:30:31Z</time>
      </trkpt>
      <trkpt lat="41.53739" lon="-1.63044">
        <ele>588.064</ele>
        <time>2013-05-08T10:30:20Z</time>
      </trkpt>
      <trkpt lat="41.53745" lon="-1.63099">
        <ele>588.01</ele>
        <time>2013-05-08T10:30:06Z</time>
      </trkpt>
      <trkpt lat="41.53751" lon="-1.63147">
        <ele>588.008</ele>
        <time>2013-05-08T10:29:54Z</time>
      </trkpt>
      <trkpt lat="41.53774" lon="-1.63183">
        <ele>588.095</ele>
        <time>2013-05-08T10:29:43Z</time>
      </trkpt>
      <trkpt lat="41.53805" lon="-1.63211">
        <ele>588.056</ele>
        <time>2013-05-08T10:29:30Z</time>
      </trkpt>
      <trkpt lat="41.53807" lon="-1.63213">
        <ele>588.088</ele>
        <time>2013-05-08T10:29:29Z</time>
      </trkpt>
      <trkpt lat="41.53809" lon="-1.63214">
        <ele>588.083</ele>
        <time>2013-05-08T10:29:28Z</time>
      </trkpt>
      <trkpt lat="41.5381" lon="-1.63214">
        <ele>588.07</ele>
        <time>2013-05-08T10:29:27Z</time>
      </trkpt>
      <trkpt lat="41.53812" lon="-1.63214">
        <ele>588.067</ele>
        <time>2013-05-08T10:29:26Z</time>
      </trkpt>
      <trkpt lat="41.53813" lon="-1.63215">
        <ele>588.045</ele>
        <time>2013-05-08T10:29:25Z</time>
      </trkpt>
      <trkpt lat="41.53814" lon="-1.63215">
        <ele>588.058</ele>
        <time>2013-05-08T10:29:24Z</time>
      </trkpt>
      <trkpt lat="41.53816" lon="-1.63212">
        <ele>588.094</ele>
        <time>2013-05-08T10:29:16Z</time>
      </trkpt>
      <trkpt lat="41.53819" lon="-1.6321">
        <ele>588.057</ele>
        <time>2013-05-08T10:29:05Z</time>
      </trkpt>
      <trkpt lat="41.53843" lon="-1.63201">
        <ele>588.022</ele>
        <time>2013-05-08T10:28:53Z</time>
      </trkpt>
      <trkpt lat="41.53847" lon="-1.632">
        <ele>588.008</ele>
        <time>2013-05-08T10:28:30Z</time>
      </trkpt>
      <trkpt lat="41.53847" lon="-1.63202">
        <ele>588.01</ele>
        <time>2013-05-08T10:28:09Z</time>
      </trkpt>
      <trkpt lat="41.53848" lon="-1.63201">
        <ele>588.061</ele>
        <time>2013-05-08T10:27:43Z</time>
      </trkpt>
      <trkpt lat="41.53855" lon="-1.63197">
        <ele>588.573</ele>
        <time>2013-05-08T10:27:36Z</time>
      </trkpt>
      <trkpt lat="41.53894" lon="-1.63184">
        <ele>589.498</ele>
        <time>2013-05-08T10:27:27Z</time>
      </trkpt>
      <trkpt lat="41.53967" lon="-1.63151">
        <ele>589.975</ele>
        <time>2013-05-08T10:27:16Z</time>
      </trkpt>
      <trkpt lat="41.54028" lon="-1.63127">
        <ele>593.362</ele>
        <time>2013-05-08T10:27:07Z</time>
      </trkpt>
      <trkpt lat="41.54078" lon="-1.63125">
        <ele>594.72</ele>
        <time>2013-05-08T10:26:58Z</time>
      </trkpt>
      <trkpt lat="41.54089" lon="-1.63127">
        <ele>594.713</ele>
        <time>2013-05-08T10:26:56Z</time>
      </trkpt>
      <trkpt lat="41.54095" lon="-1.63128">
        <ele>594.752</ele>
        <time>2013-05-08T10:26:55Z</time>
      </trkpt>
      <trkpt lat="41.54164" lon="-1.63168">
        <ele>594.753</ele>
        <time>2013-05-08T10:26:43Z</time>
      </trkpt>
      <trkpt lat="41.54171" lon="-1.63171">
        <ele>594.708</ele>
        <time>2013-05-08T10:26:42Z</time>
      </trkpt>
      <trkpt lat="41.54177" lon="-1.63174">
        <ele>594.708</ele>
        <time>2013-05-08T10:26:41Z</time>
      </trkpt>
      <trkpt lat="41.54185" lon="-1.63176">
        <ele>594.726</ele>
        <time>2013-05-08T10:26:40Z</time>
      </trkpt>
      <trkpt lat="41.54192" lon="-1.63177">
        <ele>595.277</ele>
        <time>2013-05-08T10:26:39Z</time>
      </trkpt>
      <trkpt lat="41.542" lon="-1.63177">
        <ele>595.279</ele>
        <time>2013-05-08T10:26:38Z</time>
      </trkpt>
      <trkpt lat="41.54256" lon="-1.63159">
        <ele>597.174</ele>
        <time>2013-05-08T10:26:31Z</time>
      </trkpt>
      <trkpt lat="41.54264" lon="-1.63157">
        <ele>598.131</ele>
        <time>2013-05-08T10:26:30Z</time>
      </trkpt>
      <trkpt lat="41.54272" lon="-1.63155">
        <ele>598.148</ele>
        <time>2013-05-08T10:26:29Z</time>
      </trkpt>
      <trkpt lat="41.5428" lon="-1.63154">
        <ele>598.186</ele>
        <time>2013-05-08T10:26:28Z</time>
      </trkpt>
      <trkpt lat="41.54287" lon="-1.63153">
        <ele>598.699</ele>
        <time>2013-05-08T10:26:27Z</time>
      </trkpt>
      <trkpt lat="41.54329" lon="-1.63166">
        <ele>600.536</ele>
        <time>2013-05-08T10:26:21Z</time>
      </trkpt>
      <trkpt lat="41.54391" lon="-1.63193">
        <ele>603.417</ele>
        <time>2013-05-08T10:26:10Z</time>
      </trkpt>
      <trkpt lat="41.54396" lon="-1.63194">
        <ele>603.418</ele>
        <time>2013-05-08T10:26:09Z</time>
      </trkpt>
      <trkpt lat="41.544" lon="-1.63196">
        <ele>603.408</ele>
        <time>2013-05-08T10:26:08Z</time>
      </trkpt>
      <trkpt lat="41.54405" lon="-1.63196">
        <ele>603.464</ele>
        <time>2013-05-08T10:26:07Z</time>
      </trkpt>
      <trkpt lat="41.54409" lon="-1.63195">
        <ele>603.425</ele>
        <time>2013-05-08T10:26:06Z</time>
      </trkpt>
      <trkpt lat="41.54414" lon="-1.63195">
        <ele>603.487</ele>
        <time>2013-05-08T10:26:05Z</time>
      </trkpt>
      <trkpt lat="41.54418" lon="-1.63193">
        <ele>603.412</ele>
        <time>2013-05-08T10:26:04Z</time>
      </trkpt>
      <trkpt lat="41.54455" lon="-1.63163">
        <ele>603.419</ele>
        <time>2013-05-08T10:25:55Z</time>
      </trkpt>
      <trkpt lat="41.54523" lon="-1.631">
        <ele>603.476</ele>
        <time>2013-05-08T10:25:40Z</time>
      </trkpt>
      <trkpt lat="41.54527" lon="-1.63096">
        <ele>603.444</ele>
        <time>2013-05-08T10:25:39Z</time>
      </trkpt>
      <trkpt lat="41.54532" lon="-1.6309">
        <ele>603.967</ele>
        <time>2013-05-08T10:25:38Z</time>
      </trkpt>
      <trkpt lat="41.5454" lon="-1.63077">
        <ele>603.953</ele>
        <time>2013-05-08T10:25:36Z</time>
      </trkpt>
      <trkpt lat="41.54581" lon="-1.62992">
        <ele>605.304</ele>
        <time>2013-05-08T10:25:25Z</time>
      </trkpt>
      <trkpt lat="41.54585" lon="-1.62984">
        <ele>605.314</ele>
        <time>2013-05-08T10:25:24Z</time>
      </trkpt>
      <trkpt lat="41.54589" lon="-1.62977">
        <ele>605.808</ele>
        <time>2013-05-08T10:25:23Z</time>
      </trkpt>
      <trkpt lat="41.54593" lon="-1.6297">
        <ele>605.826</ele>
        <time>2013-05-08T10:25:22Z</time>
      </trkpt>
      <trkpt lat="41.54598" lon="-1.62964">
        <ele>605.897</ele>
        <time>2013-05-08T10:25:21Z</time>
      </trkpt>
      <trkpt lat="41.54604" lon="-1.62958">
        <ele>605.879</ele>
        <time>2013-05-08T10:25:20Z</time>
      </trkpt>
      <trkpt lat="41.54611" lon="-1.62954">
        <ele>606.394</ele>
        <time>2013-05-08T10:25:19Z</time>
      </trkpt>
      <trkpt lat="41.54632" lon="-1.62948">
        <ele>606.381</ele>
        <time>2013-05-08T10:25:16Z</time>
      </trkpt>
      <trkpt lat="41.54639" lon="-1.62946">
        <ele>606.718</ele>
        <time>2013-05-08T10:25:15Z</time>
      </trkpt>
      <trkpt lat="41.54646" lon="-1.62944">
        <ele>606.736</ele>
        <time>2013-05-08T10:25:14Z</time>
      </trkpt>
      <trkpt lat="41.54654" lon="-1.62941">
        <ele>607.289</ele>
        <time>2013-05-08T10:25:13Z</time>
      </trkpt>
      <trkpt lat="41.5466" lon="-1.62937">
        <ele>607.233</ele>
        <time>2013-05-08T10:25:12Z</time>
      </trkpt>
      <trkpt lat="41.54667" lon="-1.62932">
        <ele>607.723</ele>
        <time>2013-05-08T10:25:11Z</time>
      </trkpt>
      <trkpt lat="41.54673" lon="-1.62926">
        <ele>607.715</ele>
        <time>2013-05-08T10:25:10Z</time>
      </trkpt>
      <trkpt lat="41.54678" lon="-1.62919">
        <ele>607.708</ele>
        <time>2013-05-08T10:25:09Z</time>
      </trkpt>
      <trkpt lat="41.54683" lon="-1.62912">
        <ele>607.714</ele>
        <time>2013-05-08T10:25:08Z</time>
      </trkpt>
      <trkpt lat="41.54687" lon="-1.62903">
        <ele>608.225</ele>
        <time>2013-05-08T10:25:07Z</time>
      </trkpt>
      <trkpt lat="41.54708" lon="-1.6282">
        <ele>609.637</ele>
        <time>2013-05-08T10:24:59Z</time>
      </trkpt>
      <trkpt lat="41.54711" lon="-1.62809">
        <ele>610.172</ele>
        <time>2013-05-08T10:24:58Z</time>
      </trkpt>
      <trkpt lat="41.54713" lon="-1.62799">
        <ele>610.189</ele>
        <time>2013-05-08T10:24:57Z</time>
      </trkpt>
      <trkpt lat="41.54717" lon="-1.62789">
        <ele>610.646</ele>
        <time>2013-05-08T10:24:56Z</time>
      </trkpt>
      <trkpt lat="41.54724" lon="-1.62781">
        <ele>611.554</ele>
        <time>2013-05-08T10:24:55Z</time>
      </trkpt>
      <trkpt lat="41.54731" lon="-1.62777">
        <ele>611.527</ele>
        <time>2013-05-08T10:24:54Z</time>
      </trkpt>
      <trkpt lat="41.5474" lon="-1.62775">
        <ele>612.098</ele>
        <time>2013-05-08T10:24:53Z</time>
      </trkpt>
      <trkpt lat="41.54772" lon="-1.62777">
        <ele>613.015</ele>
        <time>2013-05-08T10:24:49Z</time>
      </trkpt>
      <trkpt lat="41.5478" lon="-1.62778">
        <ele>613.026</ele>
        <time>2013-05-08T10:24:48Z</time>
      </trkpt>
      <trkpt lat="41.54788" lon="-1.62778">
        <ele>613.508</ele>
        <time>2013-05-08T10:24:47Z</time>
      </trkpt>
      <trkpt lat="41.54797" lon="-1.62777">
        <ele>613.56</ele>
        <time>2013-05-08T10:24:46Z</time>
      </trkpt>
      <trkpt lat="41.54805" lon="-1.62774">
        <ele>613.991</ele>
        <time>2013-05-08T10:24:45Z</time>
      </trkpt>
      <trkpt lat="41.5485" lon="-1.62742">
        <ele>614.993</ele>
        <time>2013-05-08T10:24:39Z</time>
      </trkpt>
      <trkpt lat="41.54858" lon="-1.62737">
        <ele>615.918</ele>
        <time>2013-05-08T10:24:38Z</time>
      </trkpt>
      <trkpt lat="41.54866" lon="-1.62733">
        <ele>615.945</ele>
        <time>2013-05-08T10:24:37Z</time>
      </trkpt>
      <trkpt lat="41.54875" lon="-1.6273">
        <ele>615.992</ele>
        <time>2013-05-08T10:24:36Z</time>
      </trkpt>
      <trkpt lat="41.54884" lon="-1.62728">
        <ele>615.92</ele>
        <time>2013-05-08T10:24:35Z</time>
      </trkpt>
      <trkpt lat="41.54894" lon="-1.62728">
        <ele>615.953</ele>
        <time>2013-05-08T10:24:34Z</time>
      </trkpt>
      <trkpt lat="41.54904" lon="-1.6273">
        <ele>615.965</ele>
        <time>2013-05-08T10:24:33Z</time>
      </trkpt>
      <trkpt lat="41.54913" lon="-1.62734">
        <ele>616.868</ele>
        <time>2013-05-08T10:24:32Z</time>
      </trkpt>
      <trkpt lat="41.54922" lon="-1.62739">
        <ele>617.314</ele>
        <time>2013-05-08T10:24:31Z</time>
      </trkpt>
      <trkpt lat="41.54931" lon="-1.62747">
        <ele>617.808</ele>
        <time>2013-05-08T10:24:30Z</time>
      </trkpt>
      <trkpt lat="41.54939" lon="-1.62755">
        <ele>618.367</ele>
        <time>2013-05-08T10:24:29Z</time>
      </trkpt>
      <trkpt lat="41.54947" lon="-1.62762">
        <ele>618.368</ele>
        <time>2013-05-08T10:24:28Z</time>
      </trkpt>
      <trkpt lat="41.54956" lon="-1.62766">
        <ele>619.29</ele>
        <time>2013-05-08T10:24:27Z</time>
      </trkpt>
      <trkpt lat="41.54965" lon="-1.62768">
        <ele>619.225</ele>
        <time>2013-05-08T10:24:26Z</time>
      </trkpt>
      <trkpt lat="41.55022" lon="-1.62753">
        <ele>622.622</ele>
        <time>2013-05-08T10:24:20Z</time>
      </trkpt>
      <trkpt lat="41.55032" lon="-1.6275">
        <ele>622.649</ele>
        <time>2013-05-08T10:24:19Z</time>
      </trkpt>
      <trkpt lat="41.55042" lon="-1.62748">
        <ele>623.167</ele>
        <time>2013-05-08T10:24:18Z</time>
      </trkpt>
      <trkpt lat="41.55072" lon="-1.6275">
        <ele>624.03</ele>
        <time>2013-05-08T10:24:15Z</time>
      </trkpt>
      <trkpt lat="41.5514" lon="-1.62752">
        <ele>627.465</ele>
        <time>2013-05-08T10:24:08Z</time>
      </trkpt>
      <trkpt lat="41.55207" lon="-1.62732">
        <ele>630.368</ele>
        <time>2013-05-08T10:24:01Z</time>
      </trkpt>
      <trkpt lat="41.55216" lon="-1.62726">
        <ele>630.814</ele>
        <time>2013-05-08T10:24:00Z</time>
      </trkpt>
      <trkpt lat="41.55225" lon="-1.6272">
        <ele>630.808</ele>
        <time>2013-05-08T10:23:59Z</time>
      </trkpt>
      <trkpt lat="41.55258" lon="-1.62683">
        <ele>632.227</ele>
        <time>2013-05-08T10:23:55Z</time>
      </trkpt>
      <trkpt lat="41.55266" lon="-1.62673">
        <ele>633.228</ele>
        <time>2013-05-08T10:23:54Z</time>
      </trkpt>
      <trkpt lat="41.55304" lon="-1.62643">
        <ele>635.64</ele>
        <time>2013-05-08T10:23:50Z</time>
      </trkpt>
      <trkpt lat="41.55362" lon="-1.62612">
        <ele>639.455</ele>
        <time>2013-05-08T10:23:44Z</time>
      </trkpt>
      <trkpt lat="41.55371" lon="-1.62606">
        <ele>639.922</ele>
        <time>2013-05-08T10:23:43Z</time>
      </trkpt>
      <trkpt lat="41.55379" lon="-1.62598">
        <ele>640.459</ele>
        <time>2013-05-08T10:23:42Z</time>
      </trkpt>
      <trkpt lat="41.55407" lon="-1.62551">
        <ele>643.327</ele>
        <time>2013-05-08T10:23:37Z</time>
      </trkpt>
      <trkpt lat="41.55412" lon="-1.62542">
        <ele>643.39</ele>
        <time>2013-05-08T10:23:36Z</time>
      </trkpt>
      <trkpt lat="41.55417" lon="-1.62532">
        <ele>644.294</ele>
        <time>2013-05-08T10:23:35Z</time>
      </trkpt>
      <trkpt lat="41.55421" lon="-1.62522">
        <ele>644.757</ele>
        <time>2013-05-08T10:23:34Z</time>
      </trkpt>
      <trkpt lat="41.55424" lon="-1.62512">
        <ele>644.722</ele>
        <time>2013-05-08T10:23:33Z</time>
      </trkpt>
      <trkpt lat="41.55428" lon="-1.62479">
        <ele>646.108</ele>
        <time>2013-05-08T10:23:30Z</time>
      </trkpt>
      <trkpt lat="41.55429" lon="-1.62468">
        <ele>645.75</ele>
        <time>2013-05-08T10:23:29Z</time>
      </trkpt>
      <trkpt lat="41.55431" lon="-1.62457">
        <ele>646.171</ele>
        <time>2013-05-08T10:23:28Z</time>
      </trkpt>
      <trkpt lat="41.55435" lon="-1.62448">
        <ele>646.173</ele>
        <time>2013-05-08T10:23:27Z</time>
      </trkpt>
      <trkpt lat="41.5544" lon="-1.6244">
        <ele>646.668</ele>
        <time>2013-05-08T10:23:26Z</time>
      </trkpt>
      <trkpt lat="41.55447" lon="-1.62434">
        <ele>647.635</ele>
        <time>2013-05-08T10:23:25Z</time>
      </trkpt>
      <trkpt lat="41.55477" lon="-1.62425">
        <ele>649.012</ele>
        <time>2013-05-08T10:23:21Z</time>
      </trkpt>
      <trkpt lat="41.55548" lon="-1.62408">
        <ele>651.45</ele>
        <time>2013-05-08T10:23:11Z</time>
      </trkpt>
      <trkpt lat="41.55555" lon="-1.62405">
        <ele>651.413</ele>
        <time>2013-05-08T10:23:10Z</time>
      </trkpt>
      <trkpt lat="41.55562" lon="-1.62402">
        <ele>651.467</ele>
        <time>2013-05-08T10:23:09Z</time>
      </trkpt>
      <trkpt lat="41.55569" lon="-1.62401">
        <ele>651.081</ele>
        <time>2013-05-08T10:23:08Z</time>
      </trkpt>
      <trkpt lat="41.55577" lon="-1.62402">
        <ele>651.019</ele>
        <time>2013-05-08T10:23:07Z</time>
      </trkpt>
      <trkpt lat="41.55584" lon="-1.62406">
        <ele>651.008</ele>
        <time>2013-05-08T10:23:06Z</time>
      </trkpt>
      <trkpt lat="41.55591" lon="-1.62411">
        <ele>651.017</ele>
        <time>2013-05-08T10:23:05Z</time>
      </trkpt>
      <trkpt lat="41.55598" lon="-1.62417">
        <ele>651.098</ele>
        <time>2013-05-08T10:23:04Z</time>
      </trkpt>
      <trkpt lat="41.55604" lon="-1.62425">
        <ele>651.09</ele>
        <time>2013-05-08T10:23:03Z</time>
      </trkpt>
      <trkpt lat="41.55608" lon="-1.62435">
        <ele>651.485</ele>
        <time>2013-05-08T10:23:02Z</time>
      </trkpt>
      <trkpt lat="41.5561" lon="-1.62447">
        <ele>651.952</ele>
        <time>2013-05-08T10:23:01Z</time>
      </trkpt>
      <trkpt lat="41.55611" lon="-1.62461">
        <ele>652.969</ele>
        <time>2013-05-08T10:23:00Z</time>
      </trkpt>
      <trkpt lat="41.55608" lon="-1.62522">
        <ele>656.237</ele>
        <time>2013-05-08T10:22:56Z</time>
      </trkpt>
      <trkpt lat="41.55607" lon="-1.62537">
        <ele>656.72</ele>
        <time>2013-05-08T10:22:55Z</time>
      </trkpt>
      <trkpt lat="41.55606" lon="-1.62552">
        <ele>657.779</ele>
        <time>2013-05-08T10:22:54Z</time>
      </trkpt>
      <trkpt lat="41.55606" lon="-1.62566">
        <ele>658.205</ele>
        <time>2013-05-08T10:22:53Z</time>
      </trkpt>
      <trkpt lat="41.55607" lon="-1.6258">
        <ele>659.125</ele>
        <time>2013-05-08T10:22:52Z</time>
      </trkpt>
      <trkpt lat="41.5561" lon="-1.62593">
        <ele>659.608</ele>
        <time>2013-05-08T10:22:51Z</time>
      </trkpt>
      <trkpt lat="41.55632" lon="-1.6264">
        <ele>662.528</ele>
        <time>2013-05-08T10:22:47Z</time>
      </trkpt>
      <trkpt lat="41.55638" lon="-1.62652">
        <ele>662.539</ele>
        <time>2013-05-08T10:22:46Z</time>
      </trkpt>
      <trkpt lat="41.55644" lon="-1.62662">
        <ele>663.031</ele>
        <time>2013-05-08T10:22:45Z</time>
      </trkpt>
      <trkpt lat="41.5565" lon="-1.62673">
        <ele>663.936</ele>
        <time>2013-05-08T10:22:44Z</time>
      </trkpt>
      <trkpt lat="41.55657" lon="-1.62682">
        <ele>664.473</ele>
        <time>2013-05-08T10:22:43Z</time>
      </trkpt>
      <trkpt lat="41.55672" lon="-1.62698">
        <ele>664.48</ele>
        <time>2013-05-08T10:22:41Z</time>
      </trkpt>
      <trkpt lat="41.55681" lon="-1.62706">
        <ele>664.948</ele>
        <time>2013-05-08T10:22:40Z</time>
      </trkpt>
      <trkpt lat="41.55694" lon="-1.62727">
        <ele>665.961</ele>
        <time>2013-05-08T10:22:38Z</time>
      </trkpt>
      <trkpt lat="41.55706" lon="-1.6275">
        <ele>667.348</ele>
        <time>2013-05-08T10:22:36Z</time>
      </trkpt>
      <trkpt lat="41.55712" lon="-1.62762">
        <ele>667.361</ele>
        <time>2013-05-08T10:22:35Z</time>
      </trkpt>
      <trkpt lat="41.55741" lon="-1.62822">
        <ele>670.717</ele>
        <time>2013-05-08T10:22:30Z</time>
      </trkpt>
      <trkpt lat="41.5577" lon="-1.62879">
        <ele>673.508</ele>
        <time>2013-05-08T10:22:25Z</time>
      </trkpt>
      <trkpt lat="41.55776" lon="-1.62889">
        <ele>674.065</ele>
        <time>2013-05-08T10:22:24Z</time>
      </trkpt>
      <trkpt lat="41.55783" lon="-1.62899">
        <ele>674.566</ele>
        <time>2013-05-08T10:22:23Z</time>
      </trkpt>
      <trkpt lat="41.55834" lon="-1.62957">
        <ele>678.498</ele>
        <time>2013-05-08T10:22:16Z</time>
      </trkpt>
      <trkpt lat="41.55841" lon="-1.62966">
        <ele>678.853</ele>
        <time>2013-05-08T10:22:15Z</time>
      </trkpt>
      <trkpt lat="41.55849" lon="-1.62973">
        <ele>678.86</ele>
        <time>2013-05-08T10:22:14Z</time>
      </trkpt>
      <trkpt lat="41.55856" lon="-1.6298">
        <ele>679.387</ele>
        <time>2013-05-08T10:22:13Z</time>
      </trkpt>
      <trkpt lat="41.55865" lon="-1.62986">
        <ele>679.815</ele>
        <time>2013-05-08T10:22:12Z</time>
      </trkpt>
      <trkpt lat="41.55873" lon="-1.62991">
        <ele>679.858</ele>
        <time>2013-05-08T10:22:11Z</time>
      </trkpt>
      <trkpt lat="41.55882" lon="-1.62995">
        <ele>680.872</ele>
        <time>2013-05-08T10:22:10Z</time>
      </trkpt>
      <trkpt lat="41.55955" lon="-1.63006">
        <ele>683.613</ele>
        <time>2013-05-08T10:22:02Z</time>
      </trkpt>
      <trkpt lat="41.56019" lon="-1.63001">
        <ele>686.514</ele>
        <time>2013-05-08T10:21:55Z</time>
      </trkpt>
      <trkpt lat="41.56091" lon="-1.62994">
        <ele>689.408</ele>
        <time>2013-05-08T10:21:47Z</time>
      </trkpt>
      <trkpt lat="41.56189" lon="-1.62983">
        <ele>693.378</ele>
        <time>2013-05-08T10:21:36Z</time>
      </trkpt>
      <trkpt lat="41.56261" lon="-1.62965">
        <ele>696.179</ele>
        <time>2013-05-08T10:21:28Z</time>
      </trkpt>
      <trkpt lat="41.5627" lon="-1.62961">
        <ele>696.661</ele>
        <time>2013-05-08T10:21:27Z</time>
      </trkpt>
      <trkpt lat="41.56279" lon="-1.62957">
        <ele>697.146</ele>
        <time>2013-05-08T10:21:26Z</time>
      </trkpt>
      <trkpt lat="41.56288" lon="-1.62951">
        <ele>697.153</ele>
        <time>2013-05-08T10:21:25Z</time>
      </trkpt>
      <trkpt lat="41.56296" lon="-1.62944">
        <ele>697.61</ele>
        <time>2013-05-08T10:21:24Z</time>
      </trkpt>
      <trkpt lat="41.56304" lon="-1.62937">
        <ele>698.178</ele>
        <time>2013-05-08T10:21:23Z</time>
      </trkpt>
      <trkpt lat="41.56331" lon="-1.62898">
        <ele>700.051</ele>
        <time>2013-05-08T10:21:19Z</time>
      </trkpt>
      <trkpt lat="41.56337" lon="-1.62888">
        <ele>700.516</ele>
        <time>2013-05-08T10:21:18Z</time>
      </trkpt>
      <trkpt lat="41.56344" lon="-1.62877">
        <ele>700.576</ele>
        <time>2013-05-08T10:21:17Z</time>
      </trkpt>
      <trkpt lat="41.56351" lon="-1.62868">
        <ele>700.913</ele>
        <time>2013-05-08T10:21:16Z</time>
      </trkpt>
      <trkpt lat="41.5636" lon="-1.62861">
        <ele>701.908</ele>
        <time>2013-05-08T10:21:15Z</time>
      </trkpt>
      <trkpt lat="41.56378" lon="-1.6285">
        <ele>702.922</ele>
        <time>2013-05-08T10:21:13Z</time>
      </trkpt>
      <trkpt lat="41.56442" lon="-1.62817">
        <ele>706.233</ele>
        <time>2013-05-08T10:21:06Z</time>
      </trkpt>
      <trkpt lat="41.56497" lon="-1.62794">
        <ele>709.195</ele>
        <time>2013-05-08T10:21:00Z</time>
      </trkpt>
      <trkpt lat="41.56514" lon="-1.62787">
        <ele>710.16</ele>
        <time>2013-05-08T10:20:58Z</time>
      </trkpt>
      <trkpt lat="41.56587" lon="-1.62758">
        <ele>713.427</ele>
        <time>2013-05-08T10:20:49Z</time>
      </trkpt>
      <trkpt lat="41.56657" lon="-1.62729">
        <ele>716.374</ele>
        <time>2013-05-08T10:20:39Z</time>
      </trkpt>
      <trkpt lat="41.56663" lon="-1.62725">
        <ele>716.332</ele>
        <time>2013-05-08T10:20:38Z</time>
      </trkpt>
      <trkpt lat="41.56686" lon="-1.62705">
        <ele>717.345</ele>
        <time>2013-05-08T10:20:34Z</time>
      </trkpt>
      <trkpt lat="41.56748" lon="-1.6265">
        <ele>719.241</ele>
        <time>2013-05-08T10:20:23Z</time>
      </trkpt>
      <trkpt lat="41.5682" lon="-1.62619">
        <ele>722.181</ele>
        <time>2013-05-08T10:20:11Z</time>
      </trkpt>
      <trkpt lat="41.56891" lon="-1.62589">
        <ele>725.009</ele>
        <time>2013-05-08T10:19:57Z</time>
      </trkpt>
      <trkpt lat="41.56933" lon="-1.62572">
        <ele>725.908</ele>
        <time>2013-05-08T10:19:46Z</time>
      </trkpt>
      <trkpt lat="41.56953" lon="-1.62564">
        <ele>725.945</ele>
        <time>2013-05-08T10:19:36Z</time>
      </trkpt>
      <trkpt lat="41.56956" lon="-1.62563">
        <ele>725.936</ele>
        <time>2013-05-08T10:19:29Z</time>
      </trkpt>
      <trkpt lat="41.5696" lon="-1.62563">
        <ele>725.928</ele>
        <time>2013-05-08T10:19:01Z</time>
      </trkpt>
      <trkpt lat="41.5696" lon="-1.62564">
        <ele>725.953</ele>
        <time>2013-05-08T10:17:52Z</time>
      </trkpt>
      <trkpt lat="41.5696" lon="-1.62563">
        <ele>725.98</ele>
        <time>2013-05-08T10:17:22Z</time>
      </trkpt>
      <trkpt lat="41.56959" lon="-1.62563">
        <ele>725.577</ele>
        <time>2013-05-08T10:16:11Z</time>
      </trkpt>
      <trkpt lat="41.5696" lon="-1.62564">
        <ele>725.545</ele>
        <time>2013-05-08T10:15:38Z</time>
      </trkpt>
      <trkpt lat="41.5696" lon="-1.62564">
        <ele>725.568</ele>
        <time>2013-05-08T10:14:29Z</time>
      </trkpt>
      <trkpt lat="41.5696" lon="-1.62564">
        <ele>725.075</ele>
        <time>2013-05-08T10:13:23Z</time>
      </trkpt>
      <trkpt lat="41.56959" lon="-1.62564">
        <ele>725.028</ele>
        <time>2013-05-08T10:12:53Z</time>
      </trkpt>
      <trkpt lat="41.5696" lon="-1.62564">
        <ele>725.02</ele>
        <time>2013-05-08T10:12:27Z</time>
      </trkpt>
      <trkpt lat="41.56959" lon="-1.62564">
        <ele>725.008</ele>
        <time>2013-05-08T10:12:12Z</time>
      </trkpt>
      <trkpt lat="41.56985" lon="-1.62553">
        <ele>724.518</ele>
        <time>2013-05-08T10:11:59Z</time>
      </trkpt>
      <trkpt lat="41.57029" lon="-1.62541">
        <ele>723.599</ele>
        <time>2013-05-08T10:11:43Z</time>
      </trkpt>
      <trkpt lat="41.57069" lon="-1.62529">
        <ele>721.641</ele>
        <time>2013-05-08T10:11:28Z</time>
      </trkpt>
      <trkpt lat="41.57127" lon="-1.62512">
        <ele>720.736</ele>
        <time>2013-05-08T10:11:12Z</time>
      </trkpt>
      <trkpt lat="41.57171" lon="-1.62499">
        <ele>719.733</ele>
        <time>2013-05-08T10:10:59Z</time>
      </trkpt>
      <trkpt lat="41.57213" lon="-1.62491">
        <ele>719.22</ele>
        <time>2013-05-08T10:10:46Z</time>
      </trkpt>
      <trkpt lat="41.57254" lon="-1.62502">
        <ele>718.278</ele>
        <time>2013-05-08T10:10:32Z</time>
      </trkpt>
      <trkpt lat="41.57292" lon="-1.62518">
        <ele>716.311</ele>
        <time>2013-05-08T10:10:18Z</time>
      </trkpt>
      <trkpt lat="41.57341" lon="-1.62537">
        <ele>716.382</ele>
        <time>2013-05-08T10:10:07Z</time>
      </trkpt>
      <trkpt lat="41.57407" lon="-1.62531">
        <ele>718.243</ele>
        <time>2013-05-08T10:09:56Z</time>
      </trkpt>
      <trkpt lat="41.57436" lon="-1.62527">
        <ele>719.717</ele>
        <time>2013-05-08T10:09:50Z</time>
      </trkpt>
      <trkpt lat="41.57487" lon="-1.62521">
        <ele>719.708</ele>
        <time>2013-05-08T10:09:35Z</time>
      </trkpt>
      <trkpt lat="41.57525" lon="-1.62518">
        <ele>718.239</ele>
        <time>2013-05-08T10:09:21Z</time>
      </trkpt>
      <trkpt lat="41.57573" lon="-1.62514">
        <ele>716.37</ele>
        <time>2013-05-08T10:09:03Z</time>
      </trkpt>
      <trkpt lat="41.57615" lon="-1.6251">
        <ele>714.442</ele>
        <time>2013-05-08T10:08:47Z</time>
      </trkpt>
      <trkpt lat="41.5765" lon="-1.62508">
        <ele>713.077</ele>
        <time>2013-05-08T10:08:35Z</time>
      </trkpt>
      <trkpt lat="41.57698" lon="-1.62504">
        <ele>713.044</ele>
        <time>2013-05-08T10:08:21Z</time>
      </trkpt>
      <trkpt lat="41.57751" lon="-1.62498">
        <ele>711.531</ele>
        <time>2013-05-08T10:08:04Z</time>
      </trkpt>
      <trkpt lat="41.57797" lon="-1.62487">
        <ele>710.199</ele>
        <time>2013-05-08T10:07:47Z</time>
      </trkpt>
      <trkpt lat="41.57847" lon="-1.62476">
        <ele>708.242</ele>
        <time>2013-05-08T10:07:30Z</time>
      </trkpt>
      <trkpt lat="41.57865" lon="-1.62471">
        <ele>706.762</ele>
        <time>2013-05-08T10:07:25Z</time>
      </trkpt>
      <trkpt lat="41.57914" lon="-1.62447">
        <ele>706.783</ele>
        <time>2013-05-08T10:07:16Z</time>
      </trkpt>
      <trkpt lat="41.57921" lon="-1.62443">
        <ele>706.711</ele>
        <time>2013-05-08T10:07:15Z</time>
      </trkpt>
      <trkpt lat="41.57927" lon="-1.62438">
        <ele>707.208</ele>
        <time>2013-05-08T10:07:14Z</time>
      </trkpt>
      <trkpt lat="41.57933" lon="-1.62433">
        <ele>707.217</ele>
        <time>2013-05-08T10:07:13Z</time>
      </trkpt>
      <trkpt lat="41.57939" lon="-1.62426">
        <ele>707.788</ele>
        <time>2013-05-08T10:07:12Z</time>
      </trkpt>
      <trkpt lat="41.57944" lon="-1.62418">
        <ele>708.21</ele>
        <time>2013-05-08T10:07:11Z</time>
      </trkpt>
      <trkpt lat="41.57946" lon="-1.62409">
        <ele>708.675</ele>
        <time>2013-05-08T10:07:10Z</time>
      </trkpt>
      <trkpt lat="41.57947" lon="-1.624">
        <ele>708.662</ele>
        <time>2013-05-08T10:07:09Z</time>
      </trkpt>
      <trkpt lat="41.57946" lon="-1.62356">
        <ele>710.659</ele>
        <time>2013-05-08T10:07:04Z</time>
      </trkpt>
      <trkpt lat="41.57946" lon="-1.62348">
        <ele>710.637</ele>
        <time>2013-05-08T10:07:03Z</time>
      </trkpt>
      <trkpt lat="41.57946" lon="-1.62339">
        <ele>710.64</ele>
        <time>2013-05-08T10:07:02Z</time>
      </trkpt>
      <trkpt lat="41.57946" lon="-1.62332">
        <ele>711.016</ele>
        <time>2013-05-08T10:07:01Z</time>
      </trkpt>
      <trkpt lat="41.57947" lon="-1.62324">
        <ele>711.576</ele>
        <time>2013-05-08T10:07:00Z</time>
      </trkpt>
      <trkpt lat="41.5795" lon="-1.62317">
        <ele>711.513</ele>
        <time>2013-05-08T10:06:59Z</time>
      </trkpt>
      <trkpt lat="41.57953" lon="-1.62311">
        <ele>712.008</ele>
        <time>2013-05-08T10:06:58Z</time>
      </trkpt>
      <trkpt lat="41.5798" lon="-1.62285">
        <ele>713.092</ele>
        <time>2013-05-08T10:06:50Z</time>
      </trkpt>
      <trkpt lat="41.5801" lon="-1.62263">
        <ele>713.093</ele>
        <time>2013-05-08T10:06:37Z</time>
      </trkpt>
      <trkpt lat="41.58012" lon="-1.62262">
        <ele>713.065</ele>
        <time>2013-05-08T10:06:36Z</time>
      </trkpt>
      <trkpt lat="41.58013" lon="-1.62261">
        <ele>713.04</ele>
        <time>2013-05-08T10:06:35Z</time>
      </trkpt>
      <trkpt lat="41.58016" lon="-1.6226">
        <ele>713.027</ele>
        <time>2013-05-08T10:05:58Z</time>
      </trkpt>
      <trkpt lat="41.58015" lon="-1.62259">
        <ele>713.094</ele>
        <time>2013-05-08T10:05:35Z</time>
      </trkpt>
      <trkpt lat="41.58017" lon="-1.62257">
        <ele>713.022</ele>
        <time>2013-05-08T10:05:27Z</time>
      </trkpt>
      <trkpt lat="41.58057" lon="-1.62227">
        <ele>713.035</ele>
        <time>2013-05-08T10:05:10Z</time>
      </trkpt>
      <trkpt lat="41.58094" lon="-1.62201">
        <ele>713.056</ele>
        <time>2013-05-08T10:04:56Z</time>
      </trkpt>
      <trkpt lat="41.58131" lon="-1.6218">
        <ele>711.559</ele>
        <time>2013-05-08T10:04:39Z</time>
      </trkpt>
      <trkpt lat="41.58166" lon="-1.62163">
        <ele>710.114</ele>
        <time>2013-05-08T10:04:23Z</time>
      </trkpt>
      <trkpt lat="41.58199" lon="-1.62149">
        <ele>709.608</ele>
        <time>2013-05-08T10:04:08Z</time>
      </trkpt>
      <trkpt lat="41.58237" lon="-1.62134">
        <ele>707.716</ele>
        <time>2013-05-08T10:03:51Z</time>
      </trkpt>
      <trkpt lat="41.58271" lon="-1.6213">
        <ele>706.217</ele>
        <time>2013-05-08T10:03:36Z</time>
      </trkpt>
      <trkpt lat="41.58304" lon="-1.62136">
        <ele>705.329</ele>
        <time>2013-05-08T10:03:22Z</time>
      </trkpt>
      <trkpt lat="41.58336" lon="-1.62135">
        <ele>704.864</ele>
        <time>2013-05-08T10:03:08Z</time>
      </trkpt>
      <trkpt lat="41.5836" lon="-1.62116">
        <ele>703.861</ele>
        <time>2013-05-08T10:02:55Z</time>
      </trkpt>
      <trkpt lat="41.58362" lon="-1.62115">
        <ele>703.898</ele>
        <time>2013-05-08T10:02:54Z</time>
      </trkpt>
      <trkpt lat="41.58379" lon="-1.62097">
        <ele>702.966</ele>
        <time>2013-05-08T10:02:44Z</time>
      </trkpt>
      <trkpt lat="41.58398" lon="-1.62045">
        <ele>700.569</ele>
        <time>2013-05-08T10:02:23Z</time>
      </trkpt>
      <trkpt lat="41.58408" lon="-1.62007">
        <ele>699.512</ele>
        <time>2013-05-08T10:02:08Z</time>
      </trkpt>
      <trkpt lat="41.58428" lon="-1.61982">
        <ele>699.032</ele>
        <time>2013-05-08T10:01:55Z</time>
      </trkpt>
      <trkpt lat="41.58457" lon="-1.61973">
        <ele>698.105</ele>
        <time>2013-05-08T10:01:40Z</time>
      </trkpt>
      <trkpt lat="41.58469" lon="-1.6197">
        <ele>696.108</ele>
        <time>2013-05-08T10:01:34Z</time>
      </trkpt>
      <trkpt lat="41.58496" lon="-1.61964">
        <ele>695.292</ele>
        <time>2013-05-08T10:01:20Z</time>
      </trkpt>
      <trkpt lat="41.58527" lon="-1.61954">
        <ele>693.743</ele>
        <time>2013-05-08T10:01:04Z</time>
      </trkpt>
      <trkpt lat="41.58551" lon="-1.61944">
        <ele>692.895</ele>
        <time>2013-05-08T10:00:52Z</time>
      </trkpt>
      <trkpt lat="41.58568" lon="-1.61928">
        <ele>691.39</ele>
        <time>2013-05-08T10:00:42Z</time>
      </trkpt>
      <trkpt lat="41.58599" lon="-1.61906">
        <ele>690.487</ele>
        <time>2013-05-08T10:00:27Z</time>
      </trkpt>
      <trkpt lat="41.58621" lon="-1.61896">
        <ele>688.934</ele>
        <time>2013-05-08T10:00:15Z</time>
      </trkpt>
      <trkpt lat="41.58641" lon="-1.61873">
        <ele>687.562</ele>
        <time>2013-05-08T10:00:03Z</time>
      </trkpt>
      <trkpt lat="41.58663" lon="-1.61823">
        <ele>687.015</ele>
        <time>2013-05-08T09:59:47Z</time>
      </trkpt>
      <trkpt lat="41.58674" lon="-1.61781">
        <ele>687.029</ele>
        <time>2013-05-08T09:59:34Z</time>
      </trkpt>
      <trkpt lat="41.58674" lon="-1.61739">
        <ele>685.1</ele>
        <time>2013-05-08T09:59:19Z</time>
      </trkpt>
      <trkpt lat="41.58672" lon="-1.61694">
        <ele>684.12</ele>
        <time>2013-05-08T09:59:02Z</time>
      </trkpt>
      <trkpt lat="41.5867" lon="-1.61659">
        <ele>682.708</ele>
        <time>2013-05-08T09:58:48Z</time>
      </trkpt>
      <trkpt lat="41.58665" lon="-1.61628">
        <ele>681.223</ele>
        <time>2013-05-08T09:58:36Z</time>
      </trkpt>
      <trkpt lat="41.5866" lon="-1.61586">
        <ele>679.884</ele>
        <time>2013-05-08T09:58:22Z</time>
      </trkpt>
      <trkpt lat="41.58676" lon="-1.61517">
        <ele>678.866</ele>
        <time>2013-05-08T09:58:06Z</time>
      </trkpt>
      <trkpt lat="41.58697" lon="-1.61472">
        <ele>678.441</ele>
        <time>2013-05-08T09:57:54Z</time>
      </trkpt>
      <trkpt lat="41.58739" lon="-1.61436">
        <ele>678.428</ele>
        <time>2013-05-08T09:57:40Z</time>
      </trkpt>
      <trkpt lat="41.58784" lon="-1.61408">
        <ele>677.455</ele>
        <time>2013-05-08T09:57:25Z</time>
      </trkpt>
      <trkpt lat="41.58824" lon="-1.61385">
        <ele>675.973</ele>
        <time>2013-05-08T09:57:11Z</time>
      </trkpt>
      <trkpt lat="41.58869" lon="-1.61359">
        <ele>675.526</ele>
        <time>2013-05-08T09:56:57Z</time>
      </trkpt>
      <trkpt lat="41.58873" lon="-1.61357">
        <ele>675.568</ele>
        <time>2013-05-08T09:56:56Z</time>
      </trkpt>
      <trkpt lat="41.58876" lon="-1.61354">
        <ele>675.542</ele>
        <time>2013-05-08T09:56:55Z</time>
      </trkpt>
      <trkpt lat="41.5888" lon="-1.61351">
        <ele>675.526</ele>
        <time>2013-05-08T09:56:54Z</time>
      </trkpt>
      <trkpt lat="41.58883" lon="-1.61348">
        <ele>675.508</ele>
        <time>2013-05-08T09:56:53Z</time>
      </trkpt>
      <trkpt lat="41.58886" lon="-1.61344">
        <ele>675.577</ele>
        <time>2013-05-08T09:56:52Z</time>
      </trkpt>
      <trkpt lat="41.58893" lon="-1.61331">
        <ele>675.548</ele>
        <time>2013-05-08T09:56:49Z</time>
      </trkpt>
      <trkpt lat="41.5891" lon="-1.61271">
        <ele>675.55</ele>
        <time>2013-05-08T09:56:36Z</time>
      </trkpt>
      <trkpt lat="41.58931" lon="-1.61223">
        <ele>675.515</ele>
        <time>2013-05-08T09:56:23Z</time>
      </trkpt>
      <trkpt lat="41.58954" lon="-1.61177">
        <ele>674.572</ele>
        <time>2013-05-08T09:56:10Z</time>
      </trkpt>
      <trkpt lat="41.58977" lon="-1.6114">
        <ele>674.049</ele>
        <time>2013-05-08T09:55:59Z</time>
      </trkpt>
      <trkpt lat="41.59012" lon="-1.61128">
        <ele>674.077</ele>
        <time>2013-05-08T09:55:49Z</time>
      </trkpt>
      <trkpt lat="41.5902" lon="-1.61128">
        <ele>674.06</ele>
        <time>2013-05-08T09:55:47Z</time>
      </trkpt>
      <trkpt lat="41.59033" lon="-1.61123">
        <ele>674.036</ele>
        <time>2013-05-08T09:55:44Z</time>
      </trkpt>
      <trkpt lat="41.59083" lon="-1.61073">
        <ele>675.017</ele>
        <time>2013-05-08T09:55:33Z</time>
      </trkpt>
      <trkpt lat="41.59088" lon="-1.61068">
        <ele>675.518</ele>
        <time>2013-05-08T09:55:32Z</time>
      </trkpt>
      <trkpt lat="41.59098" lon="-1.61049">
        <ele>675.908</ele>
        <time>2013-05-08T09:55:29Z</time>
      </trkpt>
      <trkpt lat="41.59137" lon="-1.60982">
        <ele>677.944</ele>
        <time>2013-05-08T09:55:17Z</time>
      </trkpt>
      <trkpt lat="41.59145" lon="-1.60972">
        <ele>678.415</ele>
        <time>2013-05-08T09:55:15Z</time>
      </trkpt>
      <trkpt lat="41.59148" lon="-1.60967">
        <ele>678.457</ele>
        <time>2013-05-08T09:55:14Z</time>
      </trkpt>
      <trkpt lat="41.59151" lon="-1.60962">
        <ele>678.482</ele>
        <time>2013-05-08T09:55:13Z</time>
      </trkpt>
      <trkpt lat="41.59155" lon="-1.60957">
        <ele>678.879</ele>
        <time>2013-05-08T09:55:12Z</time>
      </trkpt>
      <trkpt lat="41.59157" lon="-1.60951">
        <ele>678.886</ele>
        <time>2013-05-08T09:55:11Z</time>
      </trkpt>
      <trkpt lat="41.59159" lon="-1.60945">
        <ele>678.854</ele>
        <time>2013-05-08T09:55:10Z</time>
      </trkpt>
      <trkpt lat="41.59164" lon="-1.60918">
        <ele>679.327</ele>
        <time>2013-05-08T09:55:06Z</time>
      </trkpt>
      <trkpt lat="41.59165" lon="-1.60886">
        <ele>680.322</ele>
        <time>2013-05-08T09:55:01Z</time>
      </trkpt>
      <trkpt lat="41.59174" lon="-1.60829">
        <ele>681.262</ele>
        <time>2013-05-08T09:54:50Z</time>
      </trkpt>
      <trkpt lat="41.59185" lon="-1.60792">
        <ele>682.708</ele>
        <time>2013-05-08T09:54:40Z</time>
      </trkpt>
      <trkpt lat="41.59207" lon="-1.60757">
        <ele>682.708</ele>
        <time>2013-05-08T09:54:27Z</time>
      </trkpt>
      <trkpt lat="41.59224" lon="-1.60725">
        <ele>681.723</ele>
        <time>2013-05-08T09:54:14Z</time>
      </trkpt>
      <trkpt lat="41.5923" lon="-1.60692">
        <ele>679.814</ele>
        <time>2013-05-08T09:54:00Z</time>
      </trkpt>
      <trkpt lat="41.59243" lon="-1.60662">
        <ele>677.936</ele>
        <time>2013-05-08T09:53:47Z</time>
      </trkpt>
      <trkpt lat="41.59266" lon="-1.60656">
        <ele>675.941</ele>
        <time>2013-05-08T09:53:35Z</time>
      </trkpt>
      <trkpt lat="41.59284" lon="-1.60683">
        <ele>673.558</ele>
        <time>2013-05-08T09:53:21Z</time>
      </trkpt>
      <trkpt lat="41.5929" lon="-1.60711">
        <ele>672.635</ele>
        <time>2013-05-08T09:53:10Z</time>
      </trkpt>
      <trkpt lat="41.593" lon="-1.60747">
        <ele>671.143</ele>
        <time>2013-05-08T09:52:56Z</time>
      </trkpt>
      <trkpt lat="41.5931" lon="-1.60781">
        <ele>669.736</ele>
        <time>2013-05-08T09:52:43Z</time>
      </trkpt>
      <trkpt lat="41.59325" lon="-1.60795">
        <ele>668.395</ele>
        <time>2013-05-08T09:52:34Z</time>
      </trkpt>
      <trkpt lat="41.59342" lon="-1.60763">
        <ele>666.849</ele>
        <time>2013-05-08T09:52:19Z</time>
      </trkpt>
      <trkpt lat="41.59353" lon="-1.60727">
        <ele>665.923</ele>
        <time>2013-05-08T09:52:05Z</time>
      </trkpt>
      <trkpt lat="41.59372" lon="-1.60701">
        <ele>663.908</ele>
        <time>2013-05-08T09:51:52Z</time>
      </trkpt>
      <trkpt lat="41.59398" lon="-1.60689">
        <ele>663.08</ele>
        <time>2013-05-08T09:51:38Z</time>
      </trkpt>
      <trkpt lat="41.59428" lon="-1.60693">
        <ele>661.091</ele>
        <time>2013-05-08T09:51:24Z</time>
      </trkpt>
      <trkpt lat="41.59446" lon="-1.60681">
        <ele>660.133</ele>
        <time>2013-05-08T09:51:14Z</time>
      </trkpt>
      <trkpt lat="41.59464" lon="-1.60651">
        <ele>658.248</ele>
        <time>2013-05-08T09:51:00Z</time>
      </trkpt>
      <trkpt lat="41.59482" lon="-1.60626">
        <ele>656.745</ele>
        <time>2013-05-08T09:50:48Z</time>
      </trkpt>
      <trkpt lat="41.59507" lon="-1.606">
        <ele>655.352</ele>
        <time>2013-05-08T09:50:33Z</time>
      </trkpt>
      <trkpt lat="41.59533" lon="-1.60581">
        <ele>653.45</ele>
        <time>2013-05-08T09:50:18Z</time>
      </trkpt>
      <trkpt lat="41.59561" lon="-1.6058">
        <ele>651.493</ele>
        <time>2013-05-08T09:50:04Z</time>
      </trkpt>
      <trkpt lat="41.59588" lon="-1.60593">
        <ele>649.529</ele>
        <time>2013-05-08T09:49:50Z</time>
      </trkpt>
      <trkpt lat="41.5961" lon="-1.60608">
        <ele>648.1</ele>
        <time>2013-05-08T09:49:37Z</time>
      </trkpt>
      <trkpt lat="41.59627" lon="-1.60638">
        <ele>646.62</ele>
        <time>2013-05-08T09:49:23Z</time>
      </trkpt>
      <trkpt lat="41.5963" lon="-1.60666">
        <ele>645.708</ele>
        <time>2013-05-08T09:49:13Z</time>
      </trkpt>
      <trkpt lat="41.59636" lon="-1.60696">
        <ele>644.243</ele>
        <time>2013-05-08T09:49:01Z</time>
      </trkpt>
      <trkpt lat="41.59652" lon="-1.60723">
        <ele>642.384</ele>
        <time>2013-05-08T09:48:48Z</time>
      </trkpt>
      <trkpt lat="41.59668" lon="-1.60756">
        <ele>640.466</ele>
        <time>2013-05-08T09:48:33Z</time>
      </trkpt>
      <trkpt lat="41.59665" lon="-1.60793">
        <ele>638.971</ele>
        <time>2013-05-08T09:48:19Z</time>
      </trkpt>
      <trkpt lat="41.59657" lon="-1.60828">
        <ele>637.598</ele>
        <time>2013-05-08T09:48:04Z</time>
      </trkpt>
      <trkpt lat="41.5964" lon="-1.6085">
        <ele>636.195</ele>
        <time>2013-05-08T09:47:52Z</time>
      </trkpt>
      <trkpt lat="41.59616" lon="-1.6087">
        <ele>634.143</ele>
        <time>2013-05-08T09:47:38Z</time>
      </trkpt>
      <trkpt lat="41.59597" lon="-1.60894">
        <ele>633.226</ele>
        <time>2013-05-08T09:47:25Z</time>
      </trkpt>
      <trkpt lat="41.59582" lon="-1.60922">
        <ele>631.728</ele>
        <time>2013-05-08T09:47:12Z</time>
      </trkpt>
      <trkpt lat="41.59565" lon="-1.60959">
        <ele>629.889</ele>
        <time>2013-05-08T09:46:56Z</time>
      </trkpt>
      <trkpt lat="41.5956" lon="-1.61001">
        <ele>628.417</ele>
        <time>2013-05-08T09:46:41Z</time>
      </trkpt>
      <trkpt lat="41.59568" lon="-1.61039">
        <ele>626.408</ele>
        <time>2013-05-08T09:46:27Z</time>
      </trkpt>
      <trkpt lat="41.59583" lon="-1.61061">
        <ele>626.083</ele>
        <time>2013-05-08T09:46:16Z</time>
      </trkpt>
      <trkpt lat="41.59604" lon="-1.61061">
        <ele>625.064</ele>
        <time>2013-05-08T09:46:05Z</time>
      </trkpt>
      <trkpt lat="41.59629" lon="-1.61062">
        <ele>624.036</ele>
        <time>2013-05-08T09:45:53Z</time>
      </trkpt>
      <trkpt lat="41.59656" lon="-1.61041">
        <ele>622.191</ele>
        <time>2013-05-08T09:45:38Z</time>
      </trkpt>
      <trkpt lat="41.59683" lon="-1.61009">
        <ele>620.798</ele>
        <time>2013-05-08T09:45:21Z</time>
      </trkpt>
      <trkpt lat="41.59697" lon="-1.6098">
        <ele>619.255</ele>
        <time>2013-05-08T09:45:08Z</time>
      </trkpt>
      <trkpt lat="41.59719" lon="-1.60954">
        <ele>617.833</ele>
        <time>2013-05-08T09:44:53Z</time>
      </trkpt>
      <trkpt lat="41.59743" lon="-1.60935">
        <ele>616.356</ele>
        <time>2013-05-08T09:44:39Z</time>
      </trkpt>
      <trkpt lat="41.59755" lon="-1.60902">
        <ele>614.952</ele>
        <time>2013-05-08T09:44:25Z</time>
      </trkpt>
      <trkpt lat="41.59756" lon="-1.60873">
        <ele>613.553</ele>
        <time>2013-05-08T09:44:14Z</time>
      </trkpt>
      <trkpt lat="41.59766" lon="-1.60828">
        <ele>611.108</ele>
        <time>2013-05-08T09:43:56Z</time>
      </trkpt>
      <trkpt lat="41.59784" lon="-1.60787">
        <ele>609.608</ele>
        <time>2013-05-08T09:43:39Z</time>
      </trkpt>
      <trkpt lat="41.598" lon="-1.60754">
        <ele>608.226</ele>
        <time>2013-05-08T09:43:24Z</time>
      </trkpt>
      <trkpt lat="41.5982" lon="-1.60717">
        <ele>606.367</ele>
        <time>2013-05-08T09:43:07Z</time>
      </trkpt>
      <trkpt lat="41.59842" lon="-1.60677">
        <ele>604.389</ele>
        <time>2013-05-08T09:42:49Z</time>
      </trkpt>
      <trkpt lat="41.59856" lon="-1.60646">
        <ele>602.984</ele>
        <time>2013-05-08T09:42:35Z</time>
      </trkpt>
      <trkpt lat="41.59867" lon="-1.60618">
        <ele>601.971</ele>
        <time>2013-05-08T09:42:23Z</time>
      </trkpt>
      <trkpt lat="41.59881" lon="-1.60586">
        <ele>600.088</ele>
        <time>2013-05-08T09:42:09Z</time>
      </trkpt>
      <trkpt lat="41.59904" lon="-1.60563">
        <ele>598.686</ele>
        <time>2013-05-08T09:41:55Z</time>
      </trkpt>
      <trkpt lat="41.59935" lon="-1.60551">
        <ele>597.139</ele>
        <time>2013-05-08T09:41:40Z</time>
      </trkpt>
      <trkpt lat="41.59967" lon="-1.60542">
        <ele>595.243</ele>
        <time>2013-05-08T09:41:26Z</time>
      </trkpt>
      <trkpt lat="41.60013" lon="-1.60531">
        <ele>594.764</ele>
        <time>2013-05-08T09:41:12Z</time>
      </trkpt>
      <trkpt lat="41.60054" lon="-1.6053">
        <ele>594.71</ele>
        <time>2013-05-08T09:41:01Z</time>
      </trkpt>
      <trkpt lat="41.601" lon="-1.6055">
        <ele>594.208</ele>
        <time>2013-05-08T09:40:45Z</time>
      </trkpt>
      <trkpt lat="41.60134" lon="-1.60571">
        <ele>592.865</ele>
        <time>2013-05-08T09:40:32Z</time>
      </trkpt>
      <trkpt lat="41.60166" lon="-1.60596">
        <ele>591.476</ele>
        <time>2013-05-08T09:40:19Z</time>
      </trkpt>
      <trkpt lat="41.60208" lon="-1.60594">
        <ele>589.968</ele>
        <time>2013-05-08T09:40:08Z</time>
      </trkpt>
      <trkpt lat="41.60213" lon="-1.60593">
        <ele>589.973</ele>
        <time>2013-05-08T09:40:07Z</time>
      </trkpt>
      <trkpt lat="41.60218" lon="-1.60591">
        <ele>589.94</ele>
        <time>2013-05-08T09:40:06Z</time>
      </trkpt>
      <trkpt lat="41.60222" lon="-1.6059">
        <ele>589.937</ele>
        <time>2013-05-08T09:40:05Z</time>
      </trkpt>
      <trkpt lat="41.60227" lon="-1.6059">
        <ele>589.925</ele>
        <time>2013-05-08T09:40:04Z</time>
      </trkpt>
      <trkpt lat="41.60232" lon="-1.60591">
        <ele>589.958</ele>
        <time>2013-05-08T09:40:03Z</time>
      </trkpt>
      <trkpt lat="41.6025" lon="-1.60598">
        <ele>589.945</ele>
        <time>2013-05-08T09:39:59Z</time>
      </trkpt>
      <trkpt lat="41.60255" lon="-1.606">
        <ele>589.947</ele>
        <time>2013-05-08T09:39:58Z</time>
      </trkpt>
      <trkpt lat="41.6026" lon="-1.60601">
        <ele>589.911</ele>
        <time>2013-05-08T09:39:57Z</time>
      </trkpt>
      <trkpt lat="41.60265" lon="-1.60602">
        <ele>589.908</ele>
        <time>2013-05-08T09:39:56Z</time>
      </trkpt>
      <trkpt lat="41.60269" lon="-1.60601">
        <ele>590.475</ele>
        <time>2013-05-08T09:39:55Z</time>
      </trkpt>
      <trkpt lat="41.60273" lon="-1.60599">
        <ele>590.416</ele>
        <time>2013-05-08T09:39:54Z</time>
      </trkpt>
      <trkpt lat="41.60297" lon="-1.60576">
        <ele>590.468</ele>
        <time>2013-05-08T09:39:48Z</time>
      </trkpt>
      <trkpt lat="41.60322" lon="-1.60562">
        <ele>591.413</ele>
        <time>2013-05-08T09:39:43Z</time>
      </trkpt>
      <trkpt lat="41.60326" lon="-1.6056">
        <ele>591.82</ele>
        <time>2013-05-08T09:39:42Z</time>
      </trkpt>
      <trkpt lat="41.60357" lon="-1.60561">
        <ele>592.847</ele>
        <time>2013-05-08T09:39:34Z</time>
      </trkpt>
      <trkpt lat="41.60392" lon="-1.60557">
        <ele>594.215</ele>
        <time>2013-05-08T09:39:21Z</time>
      </trkpt>
      <trkpt lat="41.60394" lon="-1.60556">
        <ele>594.258</ele>
        <time>2013-05-08T09:39:20Z</time>
      </trkpt>
      <trkpt lat="41.60397" lon="-1.60555">
        <ele>594.214</ele>
        <time>2013-05-08T09:39:19Z</time>
      </trkpt>
      <trkpt lat="41.60399" lon="-1.60554">
        <ele>594.754</ele>
        <time>2013-05-08T09:39:18Z</time>
      </trkpt>
      <trkpt lat="41.60402" lon="-1.60552">
        <ele>594.709</ele>
        <time>2013-05-08T09:39:17Z</time>
      </trkpt>
      <trkpt lat="41.60404" lon="-1.60551">
        <ele>594.708</ele>
        <time>2013-05-08T09:39:16Z</time>
      </trkpt>
      <trkpt lat="41.60406" lon="-1.60549">
        <ele>594.712</ele>
        <time>2013-05-08T09:39:15Z</time>
      </trkpt>
      <trkpt lat="41.60408" lon="-1.60547">
        <ele>594.773</ele>
        <time>2013-05-08T09:39:14Z</time>
      </trkpt>
      <trkpt lat="41.6041" lon="-1.60546">
        <ele>595.245</ele>
        <time>2013-05-08T09:39:13Z</time>
      </trkpt>
      <trkpt lat="41.60411" lon="-1.60545">
        <ele>595.24</ele>
        <time>2013-05-08T09:39:12Z</time>
      </trkpt>
      <trkpt lat="41.60412" lon="-1.60543">
        <ele>595.237</ele>
        <time>2013-05-08T09:39:10Z</time>
      </trkpt>
      <trkpt lat="41.60413" lon="-1.60545">
        <ele>595.264</ele>
        <time>2013-05-08T09:38:42Z</time>
      </trkpt>
      <trkpt lat="41.60415" lon="-1.60545">
        <ele>595.262</ele>
        <time>2013-05-08T09:38:41Z</time>
      </trkpt>
      <trkpt lat="41.60417" lon="-1.60547">
        <ele>595.275</ele>
        <time>2013-05-08T09:38:40Z</time>
      </trkpt>
      <trkpt lat="41.60419" lon="-1.60548">
        <ele>595.276</ele>
        <time>2013-05-08T09:38:39Z</time>
      </trkpt>
      <trkpt lat="41.60423" lon="-1.60549">
        <ele>595.29</ele>
        <time>2013-05-08T09:38:38Z</time>
      </trkpt>
      <trkpt lat="41.60426" lon="-1.6055">
        <ele>595.219</ele>
        <time>2013-05-08T09:38:37Z</time>
      </trkpt>
      <trkpt lat="41.6043" lon="-1.60552">
        <ele>595.208</ele>
        <time>2013-05-08T09:38:36Z</time>
      </trkpt>
      <trkpt lat="41.60435" lon="-1.60554">
        <ele>595.248</ele>
        <time>2013-05-08T09:38:35Z</time>
      </trkpt>
      <trkpt lat="41.60507" lon="-1.6058">
        <ele>596.299</ele>
        <time>2013-05-08T09:38:22Z</time>
      </trkpt>
      <trkpt lat="41.60514" lon="-1.60583">
        <ele>596.211</ele>
        <time>2013-05-08T09:38:21Z</time>
      </trkpt>
      <trkpt lat="41.60519" lon="-1.60587">
        <ele>596.246</ele>
        <time>2013-05-08T09:38:20Z</time>
      </trkpt>
      <trkpt lat="41.6053" lon="-1.60598">
        <ele>596.633</ele>
        <time>2013-05-08T09:38:18Z</time>
      </trkpt>
      <trkpt lat="41.60535" lon="-1.60604">
        <ele>597.14</ele>
        <time>2013-05-08T09:38:17Z</time>
      </trkpt>
      <trkpt lat="41.60539" lon="-1.60609">
        <ele>597.128</ele>
        <time>2013-05-08T09:38:16Z</time>
      </trkpt>
      <trkpt lat="41.60551" lon="-1.60631">
        <ele>598.631</ele>
        <time>2013-05-08T09:38:12Z</time>
      </trkpt>
      <trkpt lat="41.60564" lon="-1.60668">
        <ele>598.626</ele>
        <time>2013-05-08T09:38:03Z</time>
      </trkpt>
      <trkpt lat="41.60573" lon="-1.60717">
        <ele>597.647</ele>
        <time>2013-05-08T09:37:52Z</time>
      </trkpt>
      <trkpt lat="41.60577" lon="-1.60744">
        <ele>596.611</ele>
        <time>2013-05-08T09:37:42Z</time>
      </trkpt>
      <trkpt lat="41.60577" lon="-1.60746">
        <ele>597.108</ele>
        <time>2013-05-08T09:36:58Z</time>
      </trkpt>
      <trkpt lat="41.60582" lon="-1.60774">
        <ele>595.783</ele>
        <time>2013-05-08T09:36:47Z</time>
      </trkpt>
      <trkpt lat="41.60585" lon="-1.60792">
        <ele>594.234</ele>
        <time>2013-05-08T09:36:43Z</time>
      </trkpt>
      <trkpt lat="41.60587" lon="-1.60797">
        <ele>594.246</ele>
        <time>2013-05-08T09:36:42Z</time>
      </trkpt>
      <trkpt lat="41.60588" lon="-1.60803">
        <ele>594.221</ele>
        <time>2013-05-08T09:36:41Z</time>
      </trkpt>
      <trkpt lat="41.6059" lon="-1.6081">
        <ele>594.258</ele>
        <time>2013-05-08T09:36:40Z</time>
      </trkpt>
      <trkpt lat="41.60594" lon="-1.60816">
        <ele>594.255</ele>
        <time>2013-05-08T09:36:39Z</time>
      </trkpt>
      <trkpt lat="41.60599" lon="-1.60821">
        <ele>594.263</ele>
        <time>2013-05-08T09:36:38Z</time>
      </trkpt>
      <trkpt lat="41.60604" lon="-1.60826">
        <ele>594.266</ele>
        <time>2013-05-08T09:36:37Z</time>
      </trkpt>
      <trkpt lat="41.60611" lon="-1.60829">
        <ele>594.271</ele>
        <time>2013-05-08T09:36:36Z</time>
      </trkpt>
      <trkpt lat="41.60618" lon="-1.60832">
        <ele>594.241</ele>
        <time>2013-05-08T09:36:35Z</time>
      </trkpt>
      <trkpt lat="41.60625" lon="-1.60833">
        <ele>594.215</ele>
        <time>2013-05-08T09:36:34Z</time>
      </trkpt>
      <trkpt lat="41.60633" lon="-1.60835">
        <ele>594.208</ele>
        <time>2013-05-08T09:36:33Z</time>
      </trkpt>
      <trkpt lat="41.60641" lon="-1.60837">
        <ele>594.218</ele>
        <time>2013-05-08T09:36:32Z</time>
      </trkpt>
      <trkpt lat="41.60648" lon="-1.60842">
        <ele>595.279</ele>
        <time>2013-05-08T09:36:31Z</time>
      </trkpt>
      <trkpt lat="41.60685" lon="-1.6091">
        <ele>598.181</ele>
        <time>2013-05-08T09:36:22Z</time>
      </trkpt>
      <trkpt lat="41.60687" lon="-1.60917">
        <ele>598.636</ele>
        <time>2013-05-08T09:36:21Z</time>
      </trkpt>
      <trkpt lat="41.60689" lon="-1.60923">
        <ele>599.053</ele>
        <time>2013-05-08T09:36:20Z</time>
      </trkpt>
      <trkpt lat="41.60691" lon="-1.60928">
        <ele>599.51</ele>
        <time>2013-05-08T09:36:19Z</time>
      </trkpt>
      <trkpt lat="41.60694" lon="-1.60933">
        <ele>599.558</ele>
        <time>2013-05-08T09:36:18Z</time>
      </trkpt>
      <trkpt lat="41.60697" lon="-1.60938">
        <ele>600.011</ele>
        <time>2013-05-08T09:36:17Z</time>
      </trkpt>
      <trkpt lat="41.607" lon="-1.60941">
        <ele>600.023</ele>
        <time>2013-05-08T09:36:16Z</time>
      </trkpt>
      <trkpt lat="41.60704" lon="-1.60944">
        <ele>600.083</ele>
        <time>2013-05-08T09:36:15Z</time>
      </trkpt>
      <trkpt lat="41.6074" lon="-1.6096">
        <ele>602.911</ele>
        <time>2013-05-08T09:36:05Z</time>
      </trkpt>
      <trkpt lat="41.60764" lon="-1.60945">
        <ele>605.308</ele>
        <time>2013-05-08T09:35:57Z</time>
      </trkpt>
      <trkpt lat="41.6078" lon="-1.60894">
        <ele>607.783</ele>
        <time>2013-05-08T09:35:46Z</time>
      </trkpt>
      <trkpt lat="41.6078" lon="-1.60889">
        <ele>607.784</ele>
        <time>2013-05-08T09:35:45Z</time>
      </trkpt>
      <trkpt lat="41.6078" lon="-1.60885">
        <ele>608.286</ele>
        <time>2013-05-08T09:35:44Z</time>
      </trkpt>
      <trkpt lat="41.60781" lon="-1.6088">
        <ele>608.291</ele>
        <time>2013-05-08T09:35:43Z</time>
      </trkpt>
      <trkpt lat="41.60781" lon="-1.60875">
        <ele>608.258</ele>
        <time>2013-05-08T09:35:42Z</time>
      </trkpt>
      <trkpt lat="41.60782" lon="-1.60871">
        <ele>608.775</ele>
        <time>2013-05-08T09:35:41Z</time>
      </trkpt>
      <trkpt lat="41.60782" lon="-1.60867">
        <ele>608.743</ele>
        <time>2013-05-08T09:35:40Z</time>
      </trkpt>
      <trkpt lat="41.60782" lon="-1.60864">
        <ele>608.786</ele>
        <time>2013-05-08T09:35:39Z</time>
      </trkpt>
      <trkpt lat="41.60783" lon="-1.60861">
        <ele>608.711</ele>
        <time>2013-05-08T09:35:38Z</time>
      </trkpt>
      <trkpt lat="41.60784" lon="-1.60858">
        <ele>608.721</ele>
        <time>2013-05-08T09:35:37Z</time>
      </trkpt>
      <trkpt lat="41.60785" lon="-1.60856">
        <ele>608.703</ele>
        <time>2013-05-08T09:35:36Z</time>
      </trkpt>
      <trkpt lat="41.60786" lon="-1.60853">
        <ele>609.108</ele>
        <time>2013-05-08T09:35:35Z</time>
      </trkpt>
      <trkpt lat="41.60786" lon="-1.60851">
        <ele>609.172</ele>
        <time>2013-05-08T09:35:34Z</time>
      </trkpt>
      <trkpt lat="41.60787" lon="-1.60849">
        <ele>609.153</ele>
        <time>2013-05-08T09:35:33Z</time>
      </trkpt>
      <trkpt lat="41.60788" lon="-1.60848">
        <ele>609.115</ele>
        <time>2013-05-08T09:35:32Z</time>
      </trkpt>
      <trkpt lat="41.60789" lon="-1.60847">
        <ele>609.11</ele>
        <time>2013-05-08T09:35:31Z</time>
      </trkpt>
      <trkpt lat="41.60788" lon="-1.60844">
        <ele>609.147</ele>
        <time>2013-05-08T09:35:12Z</time>
      </trkpt>
      <trkpt lat="41.6079" lon="-1.60844">
        <ele>609.684</ele>
        <time>2013-05-08T09:34:36Z</time>
      </trkpt>
      <trkpt lat="41.60791" lon="-1.60842">
        <ele>609.662</ele>
        <time>2013-05-08T09:34:15Z</time>
      </trkpt>
      <trkpt lat="41.60792" lon="-1.60845">
        <ele>609.625</ele>
        <time>2013-05-08T09:33:46Z</time>
      </trkpt>
      <trkpt lat="41.6079" lon="-1.60843">
        <ele>609.619</ele>
        <time>2013-05-08T09:33:19Z</time>
      </trkpt>
      <trkpt lat="41.60793" lon="-1.60846">
        <ele>609.609</ele>
        <time>2013-05-08T09:32:23Z</time>
      </trkpt>
      <trkpt lat="41.60793" lon="-1.60845">
        <ele>609.619</ele>
        <time>2013-05-08T09:31:56Z</time>
      </trkpt>
      <trkpt lat="41.60792" lon="-1.60845">
        <ele>609.608</ele>
        <time>2013-05-08T09:31:11Z</time>
      </trkpt>
      <trkpt lat="41.60793" lon="-1.60845">
        <ele>609.622</ele>
        <time>2013-05-08T09:30:27Z</time>
      </trkpt>
      <trkpt lat="41.60792" lon="-1.60845">
        <ele>609.673</ele>
        <time>2013-05-08T09:30:11Z</time>
      </trkpt>
      <trkpt lat="41.60792" lon="-1.6083">
        <ele>610.175</ele>
        <time>2013-05-08T09:30:03Z</time>
      </trkpt>
      <trkpt lat="41.60791" lon="-1.60823">
        <ele>611.53</ele>
        <time>2013-05-08T09:30:01Z</time>
      </trkpt>
      <trkpt lat="41.6079" lon="-1.60792">
        <ele>611.527</ele>
        <time>2013-05-08T09:29:50Z</time>
      </trkpt>
      <trkpt lat="41.60791" lon="-1.6079">
        <ele>611.534</ele>
        <time>2013-05-08T09:29:49Z</time>
      </trkpt>
      <trkpt lat="41.60795" lon="-1.60783">
        <ele>611.582</ele>
        <time>2013-05-08T09:29:45Z</time>
      </trkpt>
      <trkpt lat="41.60796" lon="-1.60782">
        <ele>611.555</ele>
        <time>2013-05-08T09:29:44Z</time>
      </trkpt>
      <trkpt lat="41.60798" lon="-1.6078">
        <ele>611.585</ele>
        <time>2013-05-08T09:29:43Z</time>
      </trkpt>
      <trkpt lat="41.60799" lon="-1.60779">
        <ele>611.589</ele>
        <time>2013-05-08T09:29:42Z</time>
      </trkpt>
      <trkpt lat="41.608" lon="-1.60777">
        <ele>611.117</ele>
        <time>2013-05-08T09:29:41Z</time>
      </trkpt>
      <trkpt lat="41.60809" lon="-1.60773">
        <ele>610.108</ele>
        <time>2013-05-08T09:29:35Z</time>
      </trkpt>
      <trkpt lat="41.60826" lon="-1.60782">
        <ele>608.219</ele>
        <time>2013-05-08T09:29:24Z</time>
      </trkpt>
      <trkpt lat="41.60834" lon="-1.6081">
        <ele>605.85</ele>
        <time>2013-05-08T09:29:12Z</time>
      </trkpt>
      <trkpt lat="41.60834" lon="-1.60813">
        <ele>605.862</ele>
        <time>2013-05-08T09:29:11Z</time>
      </trkpt>
      <trkpt lat="41.60827" lon="-1.60847">
        <ele>604.827</ele>
        <time>2013-05-08T09:29:02Z</time>
      </trkpt>
      <trkpt lat="41.60825" lon="-1.60853">
        <ele>604.814</ele>
        <time>2013-05-08T09:29:01Z</time>
      </trkpt>
      <trkpt lat="41.60824" lon="-1.60859">
        <ele>604.831</ele>
        <time>2013-05-08T09:29:00Z</time>
      </trkpt>
      <trkpt lat="41.60825" lon="-1.60892">
        <ele>605.819</ele>
        <time>2013-05-08T09:28:55Z</time>
      </trkpt>
      <trkpt lat="41.60827" lon="-1.60898">
        <ele>605.832</ele>
        <time>2013-05-08T09:28:54Z</time>
      </trkpt>
      <trkpt lat="41.60837" lon="-1.60943">
        <ele>607.725</ele>
        <time>2013-05-08T09:28:46Z</time>
      </trkpt>
      <trkpt lat="41.60851" lon="-1.6099">
        <ele>607.726</ele>
        <time>2013-05-08T09:28:33Z</time>
      </trkpt>
      <trkpt lat="41.60877" lon="-1.61003">
        <ele>606.308</ele>
        <time>2013-05-08T09:28:20Z</time>
      </trkpt>
      <trkpt lat="41.60911" lon="-1.61002">
        <ele>604.808</ele>
        <time>2013-05-08T09:28:07Z</time>
      </trkpt>
      <trkpt lat="41.60944" lon="-1.61006">
        <ele>603.483</ele>
        <time>2013-05-08T09:28:00Z</time>
      </trkpt>
      <trkpt lat="41.6095" lon="-1.61007">
        <ele>603.464</ele>
        <time>2013-05-08T09:27:59Z</time>
      </trkpt>
      <trkpt lat="41.60957" lon="-1.61007">
        <ele>603.486</ele>
        <time>2013-05-08T09:27:58Z</time>
      </trkpt>
      <trkpt lat="41.60963" lon="-1.61006">
        <ele>603.411</ele>
        <time>2013-05-08T09:27:57Z</time>
      </trkpt>
      <trkpt lat="41.6097" lon="-1.61004">
        <ele>603.418</ele>
        <time>2013-05-08T09:27:56Z</time>
      </trkpt>
      <trkpt lat="41.60977" lon="-1.61001">
        <ele>603.485</ele>
        <time>2013-05-08T09:27:55Z</time>
      </trkpt>
      <trkpt lat="41.61022" lon="-1.60955">
        <ele>605.323</ele>
        <time>2013-05-08T09:27:48Z</time>
      </trkpt>
      <trkpt lat="41.61029" lon="-1.60949">
        <ele>605.846</ele>
        <time>2013-05-08T09:27:47Z</time>
      </trkpt>
      <trkpt lat="41.61036" lon="-1.60942">
        <ele>605.886</ele>
        <time>2013-05-08T09:27:46Z</time>
      </trkpt>
      <trkpt lat="41.61043" lon="-1.60937">
        <ele>606.36</ele>
        <time>2013-05-08T09:27:45Z</time>
      </trkpt>
      <trkpt lat="41.6105" lon="-1.60933">
        <ele>607.226</ele>
        <time>2013-05-08T09:27:44Z</time>
      </trkpt>
      <trkpt lat="41.61058" lon="-1.60931">
        <ele>608.208</ele>
        <time>2013-05-08T09:27:43Z</time>
      </trkpt>
      <trkpt lat="41.61065" lon="-1.6093">
        <ele>608.279</ele>
        <time>2013-05-08T09:27:42Z</time>
      </trkpt>
      <trkpt lat="41.61072" lon="-1.60931">
        <ele>608.75</ele>
        <time>2013-05-08T09:27:41Z</time>
      </trkpt>
      <trkpt lat="41.61078" lon="-1.60932">
        <ele>609.632</ele>
        <time>2013-05-08T09:27:40Z</time>
      </trkpt>
      <trkpt lat="41.61085" lon="-1.60934">
        <ele>609.657</ele>
        <time>2013-05-08T09:27:39Z</time>
      </trkpt>
      <trkpt lat="41.61091" lon="-1.60936">
        <ele>610.184</ele>
        <time>2013-05-08T09:27:38Z</time>
      </trkpt>
      <trkpt lat="41.61096" lon="-1.6094">
        <ele>610.121</ele>
        <time>2013-05-08T09:27:37Z</time>
      </trkpt>
      <trkpt lat="41.611" lon="-1.60944">
        <ele>610.129</ele>
        <time>2013-05-08T09:27:36Z</time>
      </trkpt>
      <trkpt lat="41.61118" lon="-1.60968">
        <ele>610.652</ele>
        <time>2013-05-08T09:27:31Z</time>
      </trkpt>
      <trkpt lat="41.61175" lon="-1.61035">
        <ele>610.662</ele>
        <time>2013-05-08T09:27:17Z</time>
      </trkpt>
      <trkpt lat="41.61217" lon="-1.611">
        <ele>610.683</ele>
        <time>2013-05-08T09:27:05Z</time>
      </trkpt>
      <trkpt lat="41.61222" lon="-1.61105">
        <ele>610.611</ele>
        <time>2013-05-08T09:27:04Z</time>
      </trkpt>
      <trkpt lat="41.61227" lon="-1.61108">
        <ele>610.608</ele>
        <time>2013-05-08T09:27:03Z</time>
      </trkpt>
      <trkpt lat="41.61233" lon="-1.61111">
        <ele>610.627</ele>
        <time>2013-05-08T09:27:02Z</time>
      </trkpt>
      <trkpt lat="41.61238" lon="-1.61113">
        <ele>610.648</ele>
        <time>2013-05-08T09:27:01Z</time>
      </trkpt>
      <trkpt lat="41.61244" lon="-1.61116">
        <ele>610.68</ele>
        <time>2013-05-08T09:27:00Z</time>
      </trkpt>
      <trkpt lat="41.6125" lon="-1.6112">
        <ele>611.115</ele>
        <time>2013-05-08T09:26:59Z</time>
      </trkpt>
      <trkpt lat="41.61254" lon="-1.61126">
        <ele>611.122</ele>
        <time>2013-05-08T09:26:58Z</time>
      </trkpt>
      <trkpt lat="41.61292" lon="-1.61195">
        <ele>611.129</ele>
        <time>2013-05-08T09:26:48Z</time>
      </trkpt>
      <trkpt lat="41.61351" lon="-1.61307">
        <ele>612.087</ele>
        <time>2013-05-08T09:26:34Z</time>
      </trkpt>
      <trkpt lat="41.61409" lon="-1.6143">
        <ele>614.45</ele>
        <time>2013-05-08T09:26:22Z</time>
      </trkpt>
      <trkpt lat="41.61414" lon="-1.6144">
        <ele>614.444</ele>
        <time>2013-05-08T09:26:21Z</time>
      </trkpt>
      <trkpt lat="41.61435" lon="-1.61467">
        <ele>615.405</ele>
        <time>2013-05-08T09:26:18Z</time>
      </trkpt>
      <trkpt lat="41.61442" lon="-1.61477">
        <ele>616.315</ele>
        <time>2013-05-08T09:26:17Z</time>
      </trkpt>
      <trkpt lat="41.61448" lon="-1.61487">
        <ele>616.808</ele>
        <time>2013-05-08T09:26:16Z</time>
      </trkpt>
      <trkpt lat="41.61453" lon="-1.61498">
        <ele>616.855</ele>
        <time>2013-05-08T09:26:15Z</time>
      </trkpt>
      <trkpt lat="41.6148" lon="-1.61578">
        <ele>620.216</ele>
        <time>2013-05-08T09:26:08Z</time>
      </trkpt>
      <trkpt lat="41.61485" lon="-1.61588">
        <ele>620.778</ele>
        <time>2013-05-08T09:26:07Z</time>
      </trkpt>
      <trkpt lat="41.61491" lon="-1.61596">
        <ele>621.223</ele>
        <time>2013-05-08T09:26:06Z</time>
      </trkpt>
      <trkpt lat="41.61505" lon="-1.61605">
        <ele>622.64</ele>
        <time>2013-05-08T09:26:04Z</time>
      </trkpt>
      <trkpt lat="41.61513" lon="-1.61608">
        <ele>623.687</ele>
        <time>2013-05-08T09:26:03Z</time>
      </trkpt>
      <trkpt lat="41.6152" lon="-1.6161">
        <ele>623.665</ele>
        <time>2013-05-08T09:26:02Z</time>
      </trkpt>
      <trkpt lat="41.61528" lon="-1.6161">
        <ele>624.098</ele>
        <time>2013-05-08T09:26:01Z</time>
      </trkpt>
      <trkpt lat="41.61535" lon="-1.61608">
        <ele>624.041</ele>
        <time>2013-05-08T09:26:00Z</time>
      </trkpt>
      <trkpt lat="41.61572" lon="-1.61588">
        <ele>626.481</ele>
        <time>2013-05-08T09:25:54Z</time>
      </trkpt>
      <trkpt lat="41.61577" lon="-1.61584">
        <ele>626.409</ele>
        <time>2013-05-08T09:25:53Z</time>
      </trkpt>
      <trkpt lat="41.61591" lon="-1.61568">
        <ele>626.908</ele>
        <time>2013-05-08T09:25:50Z</time>
      </trkpt>
      <trkpt lat="41.61595" lon="-1.61562">
        <ele>626.915</ele>
        <time>2013-05-08T09:25:49Z</time>
      </trkpt>
      <trkpt lat="41.616" lon="-1.61557">
        <ele>627.466</ele>
        <time>2013-05-08T09:25:48Z</time>
      </trkpt>
      <trkpt lat="41.61605" lon="-1.61552">
        <ele>627.478</ele>
        <time>2013-05-08T09:25:47Z</time>
      </trkpt>
      <trkpt lat="41.6161" lon="-1.61549">
        <ele>627.493</ele>
        <time>2013-05-08T09:25:46Z</time>
      </trkpt>
      <trkpt lat="41.61616" lon="-1.61547">
        <ele>627.94</ele>
        <time>2013-05-08T09:25:45Z</time>
      </trkpt>
      <trkpt lat="41.61622" lon="-1.61545">
        <ele>627.937</ele>
        <time>2013-05-08T09:25:44Z</time>
      </trkpt>
      <trkpt lat="41.61628" lon="-1.61544">
        <ele>627.975</ele>
        <time>2013-05-08T09:25:43Z</time>
      </trkpt>
      <trkpt lat="41.61634" lon="-1.61545">
        <ele>627.918</ele>
        <time>2013-05-08T09:25:42Z</time>
      </trkpt>
      <trkpt lat="41.61639" lon="-1.6155">
        <ele>628.486</ele>
        <time>2013-05-08T09:25:41Z</time>
      </trkpt>
      <trkpt lat="41.61642" lon="-1.61557">
        <ele>628.46</ele>
        <time>2013-05-08T09:25:40Z</time>
      </trkpt>
      <trkpt lat="41.61643" lon="-1.61566">
        <ele>628.826</ele>
        <time>2013-05-08T09:25:39Z</time>
      </trkpt>
      <trkpt lat="41.61643" lon="-1.61574">
        <ele>629.808</ele>
        <time>2013-05-08T09:25:38Z</time>
      </trkpt>
      <trkpt lat="41.61639" lon="-1.61593">
        <ele>630.329</ele>
        <time>2013-05-08T09:25:36Z</time>
      </trkpt>
      <trkpt lat="41.61637" lon="-1.61603">
        <ele>629.86</ele>
        <time>2013-05-08T09:25:35Z</time>
      </trkpt>
      <trkpt lat="41.61636" lon="-1.61612">
        <ele>630.362</ele>
        <time>2013-05-08T09:25:34Z</time>
      </trkpt>
      <trkpt lat="41.61637" lon="-1.61622">
        <ele>630.377</ele>
        <time>2013-05-08T09:25:33Z</time>
      </trkpt>
      <trkpt lat="41.6164" lon="-1.61631">
        <ele>631.234</ele>
        <time>2013-05-08T09:25:32Z</time>
      </trkpt>
      <trkpt lat="41.61645" lon="-1.61637">
        <ele>631.231</ele>
        <time>2013-05-08T09:25:31Z</time>
      </trkpt>
      <trkpt lat="41.61705" lon="-1.61666">
        <ele>634.159</ele>
        <time>2013-05-08T09:25:24Z</time>
      </trkpt>
      <trkpt lat="41.61759" lon="-1.61692">
        <ele>637.522</ele>
        <time>2013-05-08T09:25:18Z</time>
      </trkpt>
      <trkpt lat="41.61807" lon="-1.61715">
        <ele>640.489</ele>
        <time>2013-05-08T09:25:12Z</time>
      </trkpt>
      <trkpt lat="41.61865" lon="-1.61748">
        <ele>642.306</ele>
        <time>2013-05-08T09:25:03Z</time>
      </trkpt>
      <trkpt lat="41.6192" lon="-1.61803">
        <ele>645.226</ele>
        <time>2013-05-08T09:24:52Z</time>
      </trkpt>
      <trkpt lat="41.61928" lon="-1.61811">
        <ele>646.608</ele>
        <time>2013-05-08T09:24:50Z</time>
      </trkpt>
      <trkpt lat="41.6196" lon="-1.61843">
        <ele>646.639</ele>
        <time>2013-05-08T09:24:38Z</time>
      </trkpt>
      <trkpt lat="41.61984" lon="-1.61864">
        <ele>645.25</ele>
        <time>2013-05-08T09:24:25Z</time>
      </trkpt>
      <trkpt lat="41.62011" lon="-1.61889">
        <ele>643.752</ele>
        <time>2013-05-08T09:24:10Z</time>
      </trkpt>
      <trkpt lat="41.62037" lon="-1.61912">
        <ele>642.847</ele>
        <time>2013-05-08T09:23:55Z</time>
      </trkpt>
      <trkpt lat="41.62061" lon="-1.61917">
        <ele>641.314</ele>
        <time>2013-05-08T09:23:42Z</time>
      </trkpt>
      <trkpt lat="41.62084" lon="-1.61915">
        <ele>639.961</ele>
        <time>2013-05-08T09:23:29Z</time>
      </trkpt>
      <trkpt lat="41.62102" lon="-1.61899">
        <ele>638.979</ele>
        <time>2013-05-08T09:23:17Z</time>
      </trkpt>
      <trkpt lat="41.62102" lon="-1.61897">
        <ele>638.942</ele>
        <time>2013-05-08T09:23:16Z</time>
      </trkpt>
      <trkpt lat="41.62112" lon="-1.61878">
        <ele>637.059</ele>
        <time>2013-05-08T09:23:06Z</time>
      </trkpt>
      <trkpt lat="41.62132" lon="-1.61884">
        <ele>636.103</ele>
        <time>2013-05-08T09:22:57Z</time>
      </trkpt>
      <trkpt lat="41.62151" lon="-1.61901">
        <ele>635.123</ele>
        <time>2013-05-08T09:22:46Z</time>
      </trkpt>
      <trkpt lat="41.62177" lon="-1.619">
        <ele>634.108</ele>
        <time>2013-05-08T09:22:35Z</time>
      </trkpt>
      <trkpt lat="41.62208" lon="-1.61899">
        <ele>632.796</ele>
        <time>2013-05-08T09:22:24Z</time>
      </trkpt>
      <trkpt lat="41.62259" lon="-1.619">
        <ele>630.897</ele>
        <time>2013-05-08T09:22:13Z</time>
      </trkpt>
      <trkpt lat="41.62265" lon="-1.61901">
        <ele>630.849</ele>
        <time>2013-05-08T09:22:12Z</time>
      </trkpt>
      <trkpt lat="41.62271" lon="-1.61901">
        <ele>630.874</ele>
        <time>2013-05-08T09:22:11Z</time>
      </trkpt>
      <trkpt lat="41.62277" lon="-1.61903">
        <ele>630.851</ele>
        <time>2013-05-08T09:22:10Z</time>
      </trkpt>
      <trkpt lat="41.62283" lon="-1.61908">
        <ele>630.898</ele>
        <time>2013-05-08T09:22:09Z</time>
      </trkpt>
      <trkpt lat="41.62287" lon="-1.61916">
        <ele>631.786</ele>
        <time>2013-05-08T09:22:08Z</time>
      </trkpt>
      <trkpt lat="41.62288" lon="-1.61925">
        <ele>631.799</ele>
        <time>2013-05-08T09:22:07Z</time>
      </trkpt>
      <trkpt lat="41.62286" lon="-1.61935">
        <ele>631.757</ele>
        <time>2013-05-08T09:22:06Z</time>
      </trkpt>
      <trkpt lat="41.62282" lon="-1.61944">
        <ele>631.7</ele>
        <time>2013-05-08T09:22:05Z</time>
      </trkpt>
      <trkpt lat="41.62276" lon="-1.6195">
        <ele>632.22</ele>
        <time>2013-05-08T09:22:04Z</time>
      </trkpt>
      <trkpt lat="41.62269" lon="-1.61954">
        <ele>633.208</ele>
        <time>2013-05-08T09:22:03Z</time>
      </trkpt>
      <trkpt lat="41.62263" lon="-1.61959">
        <ele>633.246</ele>
        <time>2013-05-08T09:22:02Z</time>
      </trkpt>
      <trkpt lat="41.6226" lon="-1.61967">
        <ele>633.797</ele>
        <time>2013-05-08T09:22:01Z</time>
      </trkpt>
      <trkpt lat="41.62261" lon="-1.61974">
        <ele>634.129</ele>
        <time>2013-05-08T09:22:00Z</time>
      </trkpt>
      <trkpt lat="41.62265" lon="-1.6198">
        <ele>635.154</ele>
        <time>2013-05-08T09:21:59Z</time>
      </trkpt>
      <trkpt lat="41.6227" lon="-1.61985">
        <ele>635.121</ele>
        <time>2013-05-08T09:21:58Z</time>
      </trkpt>
      <trkpt lat="41.62312" lon="-1.61999">
        <ele>638.018</ele>
        <time>2013-05-08T09:21:53Z</time>
      </trkpt>
      <trkpt lat="41.62365" lon="-1.62018">
        <ele>641.856</ele>
        <time>2013-05-08T09:21:47Z</time>
      </trkpt>
      <trkpt lat="41.62373" lon="-1.62022">
        <ele>641.859</ele>
        <time>2013-05-08T09:21:46Z</time>
      </trkpt>
      <trkpt lat="41.62381" lon="-1.62026">
        <ele>642.852</ele>
        <time>2013-05-08T09:21:45Z</time>
      </trkpt>
      <trkpt lat="41.62387" lon="-1.62033">
        <ele>642.853</ele>
        <time>2013-05-08T09:21:44Z</time>
      </trkpt>
      <trkpt lat="41.62397" lon="-1.6205">
        <ele>643.708</ele>
        <time>2013-05-08T09:21:42Z</time>
      </trkpt>
      <trkpt lat="41.62402" lon="-1.62058">
        <ele>643.708</ele>
        <time>2013-05-08T09:21:41Z</time>
      </trkpt>
      <trkpt lat="41.62406" lon="-1.62067">
        <ele>643.766</ele>
        <time>2013-05-08T09:21:40Z</time>
      </trkpt>
      <trkpt lat="41.62409" lon="-1.62076">
        <ele>644.727</ele>
        <time>2013-05-08T09:21:39Z</time>
      </trkpt>
      <trkpt lat="41.62412" lon="-1.62086">
        <ele>644.789</ele>
        <time>2013-05-08T09:21:38Z</time>
      </trkpt>
      <trkpt lat="41.62414" lon="-1.62116">
        <ele>645.294</ele>
        <time>2013-05-08T09:21:35Z</time>
      </trkpt>
      <trkpt lat="41.62415" lon="-1.62126">
        <ele>645.281</ele>
        <time>2013-05-08T09:21:34Z</time>
      </trkpt>
      <trkpt lat="41.62416" lon="-1.62136">
        <ele>645.748</ele>
        <time>2013-05-08T09:21:33Z</time>
      </trkpt>
      <trkpt lat="41.62418" lon="-1.62145">
        <ele>646.686</ele>
        <time>2013-05-08T09:21:32Z</time>
      </trkpt>
      <trkpt lat="41.62421" lon="-1.62154">
        <ele>646.659</ele>
        <time>2013-05-08T09:21:31Z</time>
      </trkpt>
      <trkpt lat="41.6247" lon="-1.62215">
        <ele>646.618</ele>
        <time>2013-05-08T09:21:22Z</time>
      </trkpt>
      <trkpt lat="41.62477" lon="-1.62222">
        <ele>646.698</ele>
        <time>2013-05-08T09:21:21Z</time>
      </trkpt>
      <trkpt lat="41.62483" lon="-1.6223">
        <ele>646.617</ele>
        <time>2013-05-08T09:21:20Z</time>
      </trkpt>
      <trkpt lat="41.62489" lon="-1.6224">
        <ele>647.108</ele>
        <time>2013-05-08T09:21:19Z</time>
      </trkpt>
      <trkpt lat="41.62493" lon="-1.62252">
        <ele>647.172</ele>
        <time>2013-05-08T09:21:18Z</time>
      </trkpt>
      <trkpt lat="41.625" lon="-1.62303">
        <ele>649.543</ele>
        <time>2013-05-08T09:21:14Z</time>
      </trkpt>
      <trkpt lat="41.625" lon="-1.62316">
        <ele>650.065</ele>
        <time>2013-05-08T09:21:13Z</time>
      </trkpt>
      <trkpt lat="41.62502" lon="-1.62328">
        <ele>650.51</ele>
        <time>2013-05-08T09:21:12Z</time>
      </trkpt>
      <trkpt lat="41.62506" lon="-1.6234">
        <ele>651.417</ele>
        <time>2013-05-08T09:21:11Z</time>
      </trkpt>
      <trkpt lat="41.62511" lon="-1.62349">
        <ele>651.464</ele>
        <time>2013-05-08T09:21:10Z</time>
      </trkpt>
      <trkpt lat="41.62518" lon="-1.62356">
        <ele>652.412</ele>
        <time>2013-05-08T09:21:09Z</time>
      </trkpt>
      <trkpt lat="41.62561" lon="-1.62373">
        <ele>654.865</ele>
        <time>2013-05-08T09:21:04Z</time>
      </trkpt>
      <trkpt lat="41.6257" lon="-1.62375">
        <ele>655.829</ele>
        <time>2013-05-08T09:21:03Z</time>
      </trkpt>
      <trkpt lat="41.62578" lon="-1.62375">
        <ele>656.2</ele>
        <time>2013-05-08T09:21:02Z</time>
      </trkpt>
      <trkpt lat="41.62602" lon="-1.62368">
        <ele>657.22</ele>
        <time>2013-05-08T09:20:59Z</time>
      </trkpt>
      <trkpt lat="41.6261" lon="-1.62366">
        <ele>658.208</ele>
        <time>2013-05-08T09:20:58Z</time>
      </trkpt>
      <trkpt lat="41.62618" lon="-1.62365">
        <ele>658.283</ele>
        <time>2013-05-08T09:20:57Z</time>
      </trkpt>
      <trkpt lat="41.62674" lon="-1.62368">
        <ele>661.084</ele>
        <time>2013-05-08T09:20:48Z</time>
      </trkpt>
      <trkpt lat="41.62679" lon="-1.62368">
        <ele>661.546</ele>
        <time>2013-05-08T09:20:47Z</time>
      </trkpt>
      <trkpt lat="41.62683" lon="-1.62368">
        <ele>661.531</ele>
        <time>2013-05-08T09:20:46Z</time>
      </trkpt>
      <trkpt lat="41.62688" lon="-1.62367">
        <ele>663.058</ele>
        <time>2013-05-08T09:20:45Z</time>
      </trkpt>
      <trkpt lat="41.62692" lon="-1.62365">
        <ele>663.055</ele>
        <time>2013-05-08T09:20:44Z</time>
      </trkpt>
      <trkpt lat="41.62697" lon="-1.62362">
        <ele>663.023</ele>
        <time>2013-05-08T09:20:43Z</time>
      </trkpt>
      <trkpt lat="41.62715" lon="-1.62342">
        <ele>663.036</ele>
        <time>2013-05-08T09:20:38Z</time>
      </trkpt>
      <trkpt lat="41.62718" lon="-1.62338">
        <ele>663.066</ele>
        <time>2013-05-08T09:20:37Z</time>
      </trkpt>
      <trkpt lat="41.62728" lon="-1.62326">
        <ele>663.029</ele>
        <time>2013-05-08T09:20:34Z</time>
      </trkpt>
      <trkpt lat="41.62733" lon="-1.62324">
        <ele>663.021</ele>
        <time>2013-05-08T09:20:33Z</time>
      </trkpt>
      <trkpt lat="41.62737" lon="-1.62322">
        <ele>663.008</ele>
        <time>2013-05-08T09:20:32Z</time>
      </trkpt>
      <trkpt lat="41.62755" lon="-1.62325">
        <ele>663.067</ele>
        <time>2013-05-08T09:20:28Z</time>
      </trkpt>
      <trkpt lat="41.62764" lon="-1.62325">
        <ele>663.038</ele>
        <time>2013-05-08T09:20:26Z</time>
      </trkpt>
      <trkpt lat="41.62796" lon="-1.62316">
        <ele>663.05</ele>
        <time>2013-05-08T09:20:17Z</time>
      </trkpt>
      <trkpt lat="41.628" lon="-1.62315">
        <ele>663.025</ele>
        <time>2013-05-08T09:20:16Z</time>
      </trkpt>
      <trkpt lat="41.62804" lon="-1.62314">
        <ele>663.052</ele>
        <time>2013-05-08T09:20:15Z</time>
      </trkpt>
      <trkpt lat="41.62808" lon="-1.62314">
        <ele>663.089</ele>
        <time>2013-05-08T09:20:14Z</time>
      </trkpt>
      <trkpt lat="41.62813" lon="-1.62314">
        <ele>663.047</ele>
        <time>2013-05-08T09:20:13Z</time>
      </trkpt>
      <trkpt lat="41.62839" lon="-1.62329">
        <ele>663.04</ele>
        <time>2013-05-08T09:20:05Z</time>
      </trkpt>
      <trkpt lat="41.62867" lon="-1.62328">
        <ele>662.527</ele>
        <time>2013-05-08T09:19:53Z</time>
      </trkpt>
      <trkpt lat="41.62882" lon="-1.62303">
        <ele>661.568</ele>
        <time>2013-05-08T09:19:42Z</time>
      </trkpt>
      <trkpt lat="41.62882" lon="-1.62273">
        <ele>660.114</ele>
        <time>2013-05-08T09:19:29Z</time>
      </trkpt>
      <trkpt lat="41.62886" lon="-1.62245">
        <ele>659.108</ele>
        <time>2013-05-08T09:19:17Z</time>
      </trkpt>
      <trkpt lat="41.62892" lon="-1.62217">
        <ele>657.743</ele>
        <time>2013-05-08T09:19:04Z</time>
      </trkpt>
      <trkpt lat="41.62893" lon="-1.62215">
        <ele>657.724</ele>
        <time>2013-05-08T09:19:03Z</time>
      </trkpt>
      <trkpt lat="41.62894" lon="-1.62214">
        <ele>657.726</ele>
        <time>2013-05-08T09:19:02Z</time>
      </trkpt>
      <trkpt lat="41.62898" lon="-1.62212">
        <ele>657.271</ele>
        <time>2013-05-08T09:19:00Z</time>
      </trkpt>
      <trkpt lat="41.62916" lon="-1.62227">
        <ele>655.858</ele>
        <time>2013-05-08T09:18:46Z</time>
      </trkpt>
      <trkpt lat="41.62929" lon="-1.62257">
        <ele>653.825</ele>
        <time>2013-05-08T09:18:30Z</time>
      </trkpt>
      <trkpt lat="41.62942" lon="-1.62282">
        <ele>652.423</ele>
        <time>2013-05-08T09:18:16Z</time>
      </trkpt>
      <trkpt lat="41.62953" lon="-1.62303">
        <ele>650.596</ele>
        <time>2013-05-08T09:18:04Z</time>
      </trkpt>
      <trkpt lat="41.62968" lon="-1.62327">
        <ele>649.556</ele>
        <time>2013-05-08T09:17:50Z</time>
      </trkpt>
      <trkpt lat="41.62987" lon="-1.62334">
        <ele>649.059</ele>
        <time>2013-05-08T09:17:38Z</time>
      </trkpt>
      <trkpt lat="41.63003" lon="-1.62346">
        <ele>647.114</ele>
        <time>2013-05-08T09:17:27Z</time>
      </trkpt>
      <trkpt lat="41.63021" lon="-1.6237">
        <ele>645.208</ele>
        <time>2013-05-08T09:17:12Z</time>
      </trkpt>
      <trkpt lat="41.63041" lon="-1.62385">
        <ele>644.246</ele>
        <time>2013-05-08T09:16:59Z</time>
      </trkpt>
      <trkpt lat="41.63064" lon="-1.62388">
        <ele>642.867</ele>
        <time>2013-05-08T09:16:45Z</time>
      </trkpt>
      <trkpt lat="41.6309" lon="-1.62389">
        <ele>641.359</ele>
        <time>2013-05-08T09:16:30Z</time>
      </trkpt>
      <trkpt lat="41.63106" lon="-1.62389">
        <ele>639.474</ele>
        <time>2013-05-08T09:16:22Z</time>
      </trkpt>
      <trkpt lat="41.6313" lon="-1.62422">
        <ele>639.471</ele>
        <time>2013-05-08T09:16:12Z</time>
      </trkpt>
      <trkpt lat="41.63131" lon="-1.62426">
        <ele>639.468</ele>
        <time>2013-05-08T09:16:11Z</time>
      </trkpt>
      <trkpt lat="41.63132" lon="-1.62431">
        <ele>639.416</ele>
        <time>2013-05-08T09:16:10Z</time>
      </trkpt>
      <trkpt lat="41.63134" lon="-1.62436">
        <ele>639.489</ele>
        <time>2013-05-08T09:16:09Z</time>
      </trkpt>
      <trkpt lat="41.63135" lon="-1.62441">
        <ele>639.429</ele>
        <time>2013-05-08T09:16:08Z</time>
      </trkpt>
      <trkpt lat="41.63135" lon="-1.62446">
        <ele>639.4</ele>
        <time>2013-05-08T09:16:07Z</time>
      </trkpt>
      <trkpt lat="41.63133" lon="-1.62452">
        <ele>639.42</ele>
        <time>2013-05-08T09:16:06Z</time>
      </trkpt>
      <trkpt lat="41.63121" lon="-1.62467">
        <ele>638.908</ele>
        <time>2013-05-08T09:16:01Z</time>
      </trkpt>
      <trkpt lat="41.63088" lon="-1.62482">
        <ele>637.543</ele>
        <time>2013-05-08T09:15:50Z</time>
      </trkpt>
      <trkpt lat="41.63086" lon="-1.62484">
        <ele>638.044</ele>
        <time>2013-05-08T09:15:49Z</time>
      </trkpt>
      <trkpt lat="41.63083" lon="-1.62486">
        <ele>637.526</ele>
        <time>2013-05-08T09:15:48Z</time>
      </trkpt>
      <trkpt lat="41.63081" lon="-1.62489">
        <ele>637.521</ele>
        <time>2013-05-08T09:15:47Z</time>
      </trkpt>
      <trkpt lat="41.63079" lon="-1.62492">
        <ele>637.528</ele>
        <time>2013-05-08T09:15:46Z</time>
      </trkpt>
      <trkpt lat="41.63077" lon="-1.62496">
        <ele>636.185</ele>
        <time>2013-05-08T09:15:45Z</time>
      </trkpt>
      <trkpt lat="41.63077" lon="-1.62501">
        <ele>636.163</ele>
        <time>2013-05-08T09:15:44Z</time>
      </trkpt>
      <trkpt lat="41.63077" lon="-1.62506">
        <ele>636.176</ele>
        <time>2013-05-08T09:15:43Z</time>
      </trkpt>
      <trkpt lat="41.63078" lon="-1.62511">
        <ele>636.128</ele>
        <time>2013-05-08T09:15:42Z</time>
      </trkpt>
      <trkpt lat="41.63079" lon="-1.62517">
        <ele>636.189</ele>
        <time>2013-05-08T09:15:41Z</time>
      </trkpt>
      <trkpt lat="41.63082" lon="-1.62522">
        <ele>636.117</ele>
        <time>2013-05-08T09:15:40Z</time>
      </trkpt>
      <trkpt lat="41.6311" lon="-1.62567">
        <ele>636.508</ele>
        <time>2013-05-08T09:15:31Z</time>
      </trkpt>
      <trkpt lat="41.63148" lon="-1.6263">
        <ele>637.043</ele>
        <time>2013-05-08T09:15:19Z</time>
      </trkpt>
      <trkpt lat="41.63152" lon="-1.62635">
        <ele>637.094</ele>
        <time>2013-05-08T09:15:18Z</time>
      </trkpt>
      <trkpt lat="41.63156" lon="-1.62639">
        <ele>637.066</ele>
        <time>2013-05-08T09:15:17Z</time>
      </trkpt>
      <trkpt lat="41.63166" lon="-1.62646">
        <ele>637.061</ele>
        <time>2013-05-08T09:15:15Z</time>
      </trkpt>
      <trkpt lat="41.6317" lon="-1.62648">
        <ele>637.098</ele>
        <time>2013-05-08T09:15:14Z</time>
      </trkpt>
      <trkpt lat="41.63184" lon="-1.62653">
        <ele>637.075</ele>
        <time>2013-05-08T09:15:11Z</time>
      </trkpt>
      <trkpt lat="41.63189" lon="-1.62655">
        <ele>637.063</ele>
        <time>2013-05-08T09:15:10Z</time>
      </trkpt>
      <trkpt lat="41.63194" lon="-1.62656">
        <ele>637.086</ele>
        <time>2013-05-08T09:15:09Z</time>
      </trkpt>
      <trkpt lat="41.63199" lon="-1.62658">
        <ele>637.038</ele>
        <time>2013-05-08T09:15:08Z</time>
      </trkpt>
      <trkpt lat="41.63203" lon="-1.62661">
        <ele>637.07</ele>
        <time>2013-05-08T09:15:07Z</time>
      </trkpt>
      <trkpt lat="41.63208" lon="-1.62665">
        <ele>637.017</ele>
        <time>2013-05-08T09:15:06Z</time>
      </trkpt>
      <trkpt lat="41.6323" lon="-1.62694">
        <ele>637.008</ele>
        <time>2013-05-08T09:15:00Z</time>
      </trkpt>
      <trkpt lat="41.63234" lon="-1.62699">
        <ele>637.044</ele>
        <time>2013-05-08T09:14:59Z</time>
      </trkpt>
      <trkpt lat="41.63237" lon="-1.62705">
        <ele>637.075</ele>
        <time>2013-05-08T09:14:58Z</time>
      </trkpt>
      <trkpt lat="41.63244" lon="-1.62723">
        <ele>637.067</ele>
        <time>2013-05-08T09:14:55Z</time>
      </trkpt>
      <trkpt lat="41.63253" lon="-1.62762">
        <ele>638.062</ele>
        <time>2013-05-08T09:14:49Z</time>
      </trkpt>
      <trkpt lat="41.63272" lon="-1.6283">
        <ele>636.529</ele>
        <time>2013-05-08T09:14:37Z</time>
      </trkpt>
      <trkpt lat="41.63276" lon="-1.62841">
        <ele>636.526</ele>
        <time>2013-05-08T09:14:35Z</time>
      </trkpt>
      <trkpt lat="41.63285" lon="-1.62856">
        <ele>636.554</ele>
        <time>2013-05-08T09:14:32Z</time>
      </trkpt>
      <trkpt lat="41.63334" lon="-1.62904">
        <ele>636.567</ele>
        <time>2013-05-08T09:14:20Z</time>
      </trkpt>
      <trkpt lat="41.63339" lon="-1.62908">
        <ele>636.578</ele>
        <time>2013-05-08T09:14:19Z</time>
      </trkpt>
      <trkpt lat="41.63374" lon="-1.62921">
        <ele>636.533</ele>
        <time>2013-05-08T09:14:13Z</time>
      </trkpt>
      <trkpt lat="41.6338" lon="-1.62923">
        <ele>636.526</ele>
        <time>2013-05-08T09:14:12Z</time>
      </trkpt>
      <trkpt lat="41.63422" lon="-1.62951">
        <ele>637.008</ele>
        <time>2013-05-08T09:14:05Z</time>
      </trkpt>
      <trkpt lat="41.63428" lon="-1.62955">
        <ele>637.038</ele>
        <time>2013-05-08T09:14:04Z</time>
      </trkpt>
      <trkpt lat="41.63435" lon="-1.6296">
        <ele>637.039</ele>
        <time>2013-05-08T09:14:03Z</time>
      </trkpt>
      <trkpt lat="41.6344" lon="-1.62966">
        <ele>637.071</ele>
        <time>2013-05-08T09:14:02Z</time>
      </trkpt>
      <trkpt lat="41.63445" lon="-1.62973">
        <ele>637.026</ele>
        <time>2013-05-08T09:14:01Z</time>
      </trkpt>
      <trkpt lat="41.63462" lon="-1.63017">
        <ele>637.563</ele>
        <time>2013-05-08T09:13:56Z</time>
      </trkpt>
      <trkpt lat="41.6347" lon="-1.63048">
        <ele>637.54</ele>
        <time>2013-05-08T09:13:53Z</time>
      </trkpt>
      <trkpt lat="41.63491" lon="-1.6315">
        <ele>639.458</ele>
        <time>2013-05-08T09:13:44Z</time>
      </trkpt>
      <trkpt lat="41.635" lon="-1.63172">
        <ele>639.951</ele>
        <time>2013-05-08T09:13:42Z</time>
      </trkpt>
      <trkpt lat="41.63505" lon="-1.63182">
        <ele>640.954</ele>
        <time>2013-05-08T09:13:41Z</time>
      </trkpt>
      <trkpt lat="41.6351" lon="-1.63192">
        <ele>640.456</ele>
        <time>2013-05-08T09:13:40Z</time>
      </trkpt>
      <trkpt lat="41.63515" lon="-1.63201">
        <ele>641.311</ele>
        <time>2013-05-08T09:13:39Z</time>
      </trkpt>
      <trkpt lat="41.63521" lon="-1.6321">
        <ele>641.808</ele>
        <time>2013-05-08T09:13:38Z</time>
      </trkpt>
      <trkpt lat="41.63527" lon="-1.63217">
        <ele>642.316</ele>
        <time>2013-05-08T09:13:37Z</time>
      </trkpt>
      <trkpt lat="41.63558" lon="-1.63245">
        <ele>644.217</ele>
        <time>2013-05-08T09:13:32Z</time>
      </trkpt>
      <trkpt lat="41.63613" lon="-1.6329">
        <ele>645.799</ele>
        <time>2013-05-08T09:13:18Z</time>
      </trkpt>
      <trkpt lat="41.63643" lon="-1.63336">
        <ele>645.244</ele>
        <time>2013-05-08T09:13:06Z</time>
      </trkpt>
      <trkpt lat="41.63663" lon="-1.63396">
        <ele>644.241</ele>
        <time>2013-05-08T09:12:54Z</time>
      </trkpt>
      <trkpt lat="41.63665" lon="-1.63401">
        <ele>643.738</ele>
        <time>2013-05-08T09:12:53Z</time>
      </trkpt>
      <trkpt lat="41.63668" lon="-1.63406">
        <ele>642.896</ele>
        <time>2013-05-08T09:12:52Z</time>
      </trkpt>
      <trkpt lat="41.63706" lon="-1.63443">
        <ele>642.849</ele>
        <time>2013-05-08T09:12:44Z</time>
      </trkpt>
      <trkpt lat="41.63711" lon="-1.6345">
        <ele>642.847</ele>
        <time>2013-05-08T09:12:43Z</time>
      </trkpt>
      <trkpt lat="41.63716" lon="-1.63458">
        <ele>642.829</ele>
        <time>2013-05-08T09:12:42Z</time>
      </trkpt>
      <trkpt lat="41.63723" lon="-1.63475">
        <ele>643.321</ele>
        <time>2013-05-08T09:12:40Z</time>
      </trkpt>
      <trkpt lat="41.63726" lon="-1.63485">
        <ele>643.308</ele>
        <time>2013-05-08T09:12:39Z</time>
      </trkpt>
      <trkpt lat="41.63729" lon="-1.63494">
        <ele>643.335</ele>
        <time>2013-05-08T09:12:38Z</time>
      </trkpt>
      <trkpt lat="41.63732" lon="-1.63504">
        <ele>643.316</ele>
        <time>2013-05-08T09:12:37Z</time>
      </trkpt>
      <trkpt lat="41.63737" lon="-1.63513">
        <ele>643.388</ele>
        <time>2013-05-08T09:12:36Z</time>
      </trkpt>
      <trkpt lat="41.63743" lon="-1.6352">
        <ele>643.353</ele>
        <time>2013-05-08T09:12:35Z</time>
      </trkpt>
      <trkpt lat="41.6375" lon="-1.63527">
        <ele>643.32</ele>
        <time>2013-05-08T09:12:34Z</time>
      </trkpt>
      <trkpt lat="41.63802" lon="-1.6356">
        <ele>646.677</ele>
        <time>2013-05-08T09:12:28Z</time>
      </trkpt>
      <trkpt lat="41.6385" lon="-1.63595">
        <ele>650.085</ele>
        <time>2013-05-08T09:12:22Z</time>
      </trkpt>
      <trkpt lat="41.63902" lon="-1.6364">
        <ele>653.838</ele>
        <time>2013-05-08T09:12:14Z</time>
      </trkpt>
      <trkpt lat="41.63977" lon="-1.63691">
        <ele>655.387</ele>
        <time>2013-05-08T09:12:01Z</time>
      </trkpt>
      <trkpt lat="41.64076" lon="-1.63751">
        <ele>658.242</ele>
        <time>2013-05-08T09:11:46Z</time>
      </trkpt>
      <trkpt lat="41.64142" lon="-1.63798">
        <ele>661.026</ele>
        <time>2013-05-08T09:11:35Z</time>
      </trkpt>
      <trkpt lat="41.64185" lon="-1.63848">
        <ele>663.508</ele>
        <time>2013-05-08T09:11:24Z</time>
      </trkpt>
      <trkpt lat="41.64213" lon="-1.63893">
        <ele>663.949</ele>
        <time>2013-05-08T09:11:12Z</time>
      </trkpt>
      <trkpt lat="41.64245" lon="-1.63925">
        <ele>663.98</ele>
        <time>2013-05-08T09:11:00Z</time>
      </trkpt>
      <trkpt lat="41.64262" lon="-1.63932">
        <ele>664.432</ele>
        <time>2013-05-08T09:10:50Z</time>
      </trkpt>
      <trkpt lat="41.64263" lon="-1.63933">
        <ele>664.437</ele>
        <time>2013-05-08T09:10:49Z</time>
      </trkpt>
      <trkpt lat="41.64264" lon="-1.63934">
        <ele>664.464</ele>
        <time>2013-05-08T09:10:48Z</time>
      </trkpt>
      <trkpt lat="41.64265" lon="-1.63934">
        <ele>664.441</ele>
        <time>2013-05-08T09:10:39Z</time>
      </trkpt>
      <trkpt lat="41.64277" lon="-1.63936">
        <ele>664.989</ele>
        <time>2013-05-08T09:10:32Z</time>
      </trkpt>
      <trkpt lat="41.64281" lon="-1.63936">
        <ele>665.492</ele>
        <time>2013-05-08T09:10:31Z</time>
      </trkpt>
      <trkpt lat="41.64308" lon="-1.63928">
        <ele>666.889</ele>
        <time>2013-05-08T09:10:24Z</time>
      </trkpt>
      <trkpt lat="41.64343" lon="-1.63936">
        <ele>669.206</ele>
        <time>2013-05-08T09:10:14Z</time>
      </trkpt>
      <trkpt lat="41.64347" lon="-1.63938">
        <ele>669.726</ele>
        <time>2013-05-08T09:10:13Z</time>
      </trkpt>
      <trkpt lat="41.64386" lon="-1.63963">
        <ele>672.108</ele>
        <time>2013-05-08T09:10:02Z</time>
      </trkpt>
      <trkpt lat="41.64407" lon="-1.63978">
        <ele>673.569</ele>
        <time>2013-05-08T09:09:53Z</time>
      </trkpt>
      <trkpt lat="41.64411" lon="-1.63981">
        <ele>673.54</ele>
        <time>2013-05-08T09:09:32Z</time>
      </trkpt>
      <trkpt lat="41.64417" lon="-1.63987">
        <ele>674.082</ele>
        <time>2013-05-08T09:09:24Z</time>
      </trkpt>
      <trkpt lat="41.64452" lon="-1.64008">
        <ele>676.447</ele>
        <time>2013-05-08T09:09:15Z</time>
      </trkpt>
      <trkpt lat="41.64456" lon="-1.64011">
        <ele>676.414</ele>
        <time>2013-05-08T09:09:14Z</time>
      </trkpt>
      <trkpt lat="41.6446" lon="-1.64015">
        <ele>676.921</ele>
        <time>2013-05-08T09:09:13Z</time>
      </trkpt>
      <trkpt lat="41.64465" lon="-1.64019">
        <ele>677.419</ele>
        <time>2013-05-08T09:09:12Z</time>
      </trkpt>
      <trkpt lat="41.64469" lon="-1.64026">
        <ele>677.462</ele>
        <time>2013-05-08T09:09:11Z</time>
      </trkpt>
      <trkpt lat="41.64471" lon="-1.64034">
        <ele>677.933</ele>
        <time>2013-05-08T09:09:10Z</time>
      </trkpt>
      <trkpt lat="41.64472" lon="-1.64042">
        <ele>677.923</ele>
        <time>2013-05-08T09:09:09Z</time>
      </trkpt>
      <trkpt lat="41.64473" lon="-1.64051">
        <ele>677.915</ele>
        <time>2013-05-08T09:09:08Z</time>
      </trkpt>
      <trkpt lat="41.64471" lon="-1.64059">
        <ele>678.408</ele>
        <time>2013-05-08T09:09:07Z</time>
      </trkpt>
      <trkpt lat="41.64468" lon="-1.64065">
        <ele>678.864</ele>
        <time>2013-05-08T09:09:06Z</time>
      </trkpt>
      <trkpt lat="41.64459" lon="-1.64071">
        <ele>679.325</ele>
        <time>2013-05-08T09:09:04Z</time>
      </trkpt>
      <trkpt lat="41.64433" lon="-1.64077">
        <ele>681.747</ele>
        <time>2013-05-08T09:08:59Z</time>
      </trkpt>
      <trkpt lat="41.64427" lon="-1.64078">
        <ele>682.212</ele>
        <time>2013-05-08T09:08:58Z</time>
      </trkpt>
      <trkpt lat="41.64418" lon="-1.6408">
        <ele>682.729</ele>
        <time>2013-05-08T09:08:56Z</time>
      </trkpt>
      <trkpt lat="41.64414" lon="-1.64081">
        <ele>683.226</ele>
        <time>2013-05-08T09:08:55Z</time>
      </trkpt>
      <trkpt lat="41.6441" lon="-1.64084">
        <ele>683.664</ele>
        <time>2013-05-08T09:08:54Z</time>
      </trkpt>
      <trkpt lat="41.64406" lon="-1.64087">
        <ele>683.697</ele>
        <time>2013-05-08T09:08:53Z</time>
      </trkpt>
      <trkpt lat="41.64402" lon="-1.64092">
        <ele>684.167</ele>
        <time>2013-05-08T09:08:52Z</time>
      </trkpt>
      <trkpt lat="41.64399" lon="-1.64097">
        <ele>684.681</ele>
        <time>2013-05-08T09:08:51Z</time>
      </trkpt>
      <trkpt lat="41.64397" lon="-1.64103">
        <ele>684.619</ele>
        <time>2013-05-08T09:08:50Z</time>
      </trkpt>
      <trkpt lat="41.64395" lon="-1.64111">
        <ele>685.108</ele>
        <time>2013-05-08T09:08:49Z</time>
      </trkpt>
      <trkpt lat="41.64393" lon="-1.64118">
        <ele>685.117</ele>
        <time>2013-05-08T09:08:48Z</time>
      </trkpt>
      <trkpt lat="41.64392" lon="-1.64126">
        <ele>686.088</ele>
        <time>2013-05-08T09:08:47Z</time>
      </trkpt>
      <trkpt lat="41.64392" lon="-1.64134">
        <ele>686.02</ele>
        <time>2013-05-08T09:08:46Z</time>
      </trkpt>
      <trkpt lat="41.64393" lon="-1.64142">
        <ele>686.525</ele>
        <time>2013-05-08T09:08:45Z</time>
      </trkpt>
      <trkpt lat="41.64394" lon="-1.64149">
        <ele>687.082</ele>
        <time>2013-05-08T09:08:44Z</time>
      </trkpt>
      <trkpt lat="41.64411" lon="-1.64194">
        <ele>688.929</ele>
        <time>2013-05-08T09:08:36Z</time>
      </trkpt>
      <trkpt lat="41.64429" lon="-1.64235">
        <ele>691.837</ele>
        <time>2013-05-08T09:08:28Z</time>
      </trkpt>
      <trkpt lat="41.64431" lon="-1.6424">
        <ele>691.86</ele>
        <time>2013-05-08T09:08:27Z</time>
      </trkpt>
      <trkpt lat="41.64434" lon="-1.64246">
        <ele>692.814</ele>
        <time>2013-05-08T09:08:26Z</time>
      </trkpt>
      <trkpt lat="41.64436" lon="-1.64252">
        <ele>692.854</ele>
        <time>2013-05-08T09:08:25Z</time>
      </trkpt>
      <trkpt lat="41.64437" lon="-1.64259">
        <ele>693.709</ele>
        <time>2013-05-08T09:08:24Z</time>
      </trkpt>
      <trkpt lat="41.64437" lon="-1.64266">
        <ele>693.708</ele>
        <time>2013-05-08T09:08:23Z</time>
      </trkpt>
      <trkpt lat="41.6443" lon="-1.64311">
        <ele>696.122</ele>
        <time>2013-05-08T09:08:13Z</time>
      </trkpt>
      <trkpt lat="41.64428" lon="-1.6437">
        <ele>697.183</ele>
        <time>2013-05-08T09:08:03Z</time>
      </trkpt>
      <trkpt lat="41.6443" lon="-1.64428">
        <ele>699.085</ele>
        <time>2013-05-08T09:07:54Z</time>
      </trkpt>
      <trkpt lat="41.64433" lon="-1.64445">
        <ele>699.52</ele>
        <time>2013-05-08T09:07:30Z</time>
      </trkpt>
      <trkpt lat="41.64447" lon="-1.64463">
        <ele>701.427</ele>
        <time>2013-05-08T09:07:22Z</time>
      </trkpt>
      <trkpt lat="41.64488" lon="-1.64473">
        <ele>703.384</ele>
        <time>2013-05-08T09:07:11Z</time>
      </trkpt>
      <trkpt lat="41.64499" lon="-1.64475">
        <ele>704.832</ele>
        <time>2013-05-08T09:07:08Z</time>
      </trkpt>
      <trkpt lat="41.64505" lon="-1.64476">
        <ele>703.315</ele>
        <time>2013-05-08T09:07:06Z</time>
      </trkpt>
      <trkpt lat="41.64524" lon="-1.64477">
        <ele>705.365</ele>
        <time>2013-05-08T09:06:58Z</time>
      </trkpt>
      <trkpt lat="41.64526" lon="-1.64477">
        <ele>705.368</ele>
        <time>2013-05-08T09:06:57Z</time>
      </trkpt>
      <trkpt lat="41.64527" lon="-1.64477">
        <ele>705.314</ele>
        <time>2013-05-08T09:06:20Z</time>
      </trkpt>
      <trkpt lat="41.64527" lon="-1.64477">
        <ele>704.308</ele>
        <time>2013-05-08T09:05:32Z</time>
      </trkpt>
      <trkpt lat="41.64532" lon="-1.64473">
        <ele>704.377</ele>
        <time>2013-05-08T09:05:21Z</time>
      </trkpt>
      <trkpt lat="41.64534" lon="-1.64473">
        <ele>704.858</ele>
        <time>2013-05-08T09:05:20Z</time>
      </trkpt>
      <trkpt lat="41.64535" lon="-1.64472">
        <ele>704.85</ele>
        <time>2013-05-08T09:05:19Z</time>
      </trkpt>
      <trkpt lat="41.64535" lon="-1.64456">
        <ele>706.245</ele>
        <time>2013-05-08T09:05:13Z</time>
      </trkpt>
      <trkpt lat="41.64541" lon="-1.64417">
        <ele>710.682</ele>
        <time>2013-05-08T09:05:05Z</time>
      </trkpt>
      <trkpt lat="41.64551" lon="-1.64393">
        <ele>712.579</ele>
        <time>2013-05-08T09:05:01Z</time>
      </trkpt>
      <trkpt lat="41.6456" lon="-1.64381">
        <ele>713.957</ele>
        <time>2013-05-08T09:04:59Z</time>
      </trkpt>
      <trkpt lat="41.64575" lon="-1.64365">
        <ele>715.42</ele>
        <time>2013-05-08T09:04:56Z</time>
      </trkpt>
      <trkpt lat="41.64585" lon="-1.64357">
        <ele>715.822</ele>
        <time>2013-05-08T09:04:54Z</time>
      </trkpt>
      <trkpt lat="41.6461" lon="-1.64356">
        <ele>717.862</ele>
        <time>2013-05-08T09:04:50Z</time>
      </trkpt>
      <trkpt lat="41.64638" lon="-1.64363">
        <ele>720.208</ele>
        <time>2013-05-08T09:04:46Z</time>
      </trkpt>
      <trkpt lat="41.64658" lon="-1.64364">
        <ele>721.608</ele>
        <time>2013-05-08T09:04:43Z</time>
      </trkpt>
      <trkpt lat="41.64693" lon="-1.64363">
        <ele>724.093</ele>
        <time>2013-05-08T09:04:38Z</time>
      </trkpt>
      <trkpt lat="41.64726" lon="-1.64361">
        <ele>726.944</ele>
        <time>2013-05-08T09:04:33Z</time>
      </trkpt>
      <trkpt lat="41.64738" lon="-1.64357">
        <ele>727.996</ele>
        <time>2013-05-08T09:04:31Z</time>
      </trkpt>
      <trkpt lat="41.64777" lon="-1.64334">
        <ele>730.791</ele>
        <time>2013-05-08T09:04:24Z</time>
      </trkpt>
      <trkpt lat="41.64791" lon="-1.64329">
        <ele>730.718</ele>
        <time>2013-05-08T09:04:21Z</time>
      </trkpt>
      <trkpt lat="41.64816" lon="-1.64335">
        <ele>730.785</ele>
        <time>2013-05-08T09:04:16Z</time>
      </trkpt>
      <trkpt lat="41.64863" lon="-1.64369">
        <ele>731.783</ele>
        <time>2013-05-08T09:04:07Z</time>
      </trkpt>
      <trkpt lat="41.64934" lon="-1.64384">
        <ele>735.136</ele>
        <time>2013-05-08T09:03:53Z</time>
      </trkpt>
      <trkpt lat="41.6495" lon="-1.64392">
        <ele>735.114</ele>
        <time>2013-05-08T09:03:49Z</time>
      </trkpt>
      <trkpt lat="41.64982" lon="-1.64424">
        <ele>733.154</ele>
        <time>2013-05-08T09:03:39Z</time>
      </trkpt>
      <trkpt lat="41.64986" lon="-1.64429">
        <ele>733.109</ele>
        <time>2013-05-08T09:03:38Z</time>
      </trkpt>
      <trkpt lat="41.65013" lon="-1.64445">
        <ele>735.608</ele>
        <time>2013-05-08T09:03:32Z</time>
      </trkpt>
      <trkpt lat="41.65031" lon="-1.6447">
        <ele>737.542</ele>
        <time>2013-05-08T09:03:27Z</time>
      </trkpt>
      <trkpt lat="41.65047" lon="-1.64482">
        <ele>738.093</ele>
        <time>2013-05-08T09:03:23Z</time>
      </trkpt>
      <trkpt lat="41.65075" lon="-1.64499">
        <ele>738.035</ele>
        <time>2013-05-08T09:03:15Z</time>
      </trkpt>
      <trkpt lat="41.65092" lon="-1.64511">
        <ele>738.03</ele>
        <time>2013-05-08T09:03:11Z</time>
      </trkpt>
      <trkpt lat="41.65097" lon="-1.64513">
        <ele>738.437</ele>
        <time>2013-05-08T09:03:10Z</time>
      </trkpt>
      <trkpt lat="41.65144" lon="-1.6452">
        <ele>738.964</ele>
        <time>2013-05-08T09:03:00Z</time>
      </trkpt>
      <trkpt lat="41.65161" lon="-1.6453">
        <ele>738.922</ele>
        <time>2013-05-08T09:02:56Z</time>
      </trkpt>
      <trkpt lat="41.65212" lon="-1.64549">
        <ele>739.485</ele>
        <time>2013-05-08T09:02:48Z</time>
      </trkpt>
      <trkpt lat="41.65265" lon="-1.64548">
        <ele>740.832</ele>
        <time>2013-05-08T09:02:41Z</time>
      </trkpt>
      <trkpt lat="41.6533" lon="-1.64568">
        <ele>744.292</ele>
        <time>2013-05-08T09:02:33Z</time>
      </trkpt>
      <trkpt lat="41.6538" lon="-1.64582">
        <ele>748.011</ele>
        <time>2013-05-08T09:02:27Z</time>
      </trkpt>
      <trkpt lat="41.65406" lon="-1.64592">
        <ele>750.508</ele>
        <time>2013-05-08T09:02:23Z</time>
      </trkpt>
      <trkpt lat="41.6542" lon="-1.64601">
        <ele>751.934</ele>
        <time>2013-05-08T09:02:20Z</time>
      </trkpt>
      <trkpt lat="41.65431" lon="-1.64613">
        <ele>752.955</ele>
        <time>2013-05-08T09:02:17Z</time>
      </trkpt>
      <trkpt lat="41.65454" lon="-1.64635">
        <ele>755.787</ele>
        <time>2013-05-08T09:02:12Z</time>
      </trkpt>
      <trkpt lat="41.65465" lon="-1.64643">
        <ele>757.292</ele>
        <time>2013-05-08T09:02:10Z</time>
      </trkpt>
      <trkpt lat="41.65484" lon="-1.6466">
        <ele>760.129</ele>
        <time>2013-05-08T09:02:06Z</time>
      </trkpt>
      <trkpt lat="41.65509" lon="-1.64687">
        <ele>762.986</ele>
        <time>2013-05-08T09:02:00Z</time>
      </trkpt>
      <trkpt lat="41.65543" lon="-1.64718">
        <ele>765.424</ele>
        <time>2013-05-08T09:01:50Z</time>
      </trkpt>
      <trkpt lat="41.65567" lon="-1.64736">
        <ele>766.877</ele>
        <time>2013-05-08T09:01:40Z</time>
      </trkpt>
      <trkpt lat="41.65574" lon="-1.64743">
        <ele>767.368</ele>
        <time>2013-05-08T09:01:35Z</time>
      </trkpt>
      <trkpt lat="41.65584" lon="-1.64744">
        <ele>767.842</ele>
        <time>2013-05-08T09:01:27Z</time>
      </trkpt>
      <trkpt lat="41.65583" lon="-1.64744">
        <ele>767.826</ele>
        <time>2013-05-08T09:01:07Z</time>
      </trkpt>
      <trkpt lat="41.6559" lon="-1.64741">
        <ele>768.708</ele>
        <time>2013-05-08T09:01:00Z</time>
      </trkpt>
      <trkpt lat="41.65613" lon="-1.6474">
        <ele>771.697</ele>
        <time>2013-05-08T09:00:53Z</time>
      </trkpt>
      <trkpt lat="41.65649" lon="-1.64758">
        <ele>775.468</ele>
        <time>2013-05-08T09:00:45Z</time>
      </trkpt>
      <trkpt lat="41.65681" lon="-1.64752">
        <ele>778.89</ele>
        <time>2013-05-08T09:00:39Z</time>
      </trkpt>
      <trkpt lat="41.65715" lon="-1.64752">
        <ele>782.225</ele>
        <time>2013-05-08T09:00:34Z</time>
      </trkpt>
      <trkpt lat="41.65737" lon="-1.64761">
        <ele>784.172</ele>
        <time>2013-05-08T09:00:30Z</time>
      </trkpt>
      <trkpt lat="41.65758" lon="-1.64761">
        <ele>786.039</ele>
        <time>2013-05-08T09:00:26Z</time>
      </trkpt>
      <trkpt lat="41.65768" lon="-1.64757">
        <ele>787.077</ele>
        <time>2013-05-08T09:00:24Z</time>
      </trkpt>
      <trkpt lat="41.65787" lon="-1.64738">
        <ele>788.98</ele>
        <time>2013-05-08T09:00:20Z</time>
      </trkpt>
      <trkpt lat="41.65791" lon="-1.6473">
        <ele>789.477</ele>
        <time>2013-05-08T09:00:19Z</time>
      </trkpt>
      <trkpt lat="41.65808" lon="-1.647">
        <ele>794.261</ele>
        <time>2013-05-08T09:00:14Z</time>
      </trkpt>
      <trkpt lat="41.65814" lon="-1.64696">
        <ele>795.227</ele>
        <time>2013-05-08T09:00:12Z</time>
      </trkpt>
      <trkpt lat="41.65834" lon="-1.6466">
        <ele>798.008</ele>
        <time>2013-05-08T09:00:04Z</time>
      </trkpt>
      <trkpt lat="41.65848" lon="-1.64643">
        <ele>799.588</ele>
        <time>2013-05-08T09:00:00Z</time>
      </trkpt>
      <trkpt lat="41.65871" lon="-1.64656">
        <ele>801.939</ele>
        <time>2013-05-08T08:59:54Z</time>
      </trkpt>
      <trkpt lat="41.65888" lon="-1.64697">
        <ele>805.271</ele>
        <time>2013-05-08T08:59:49Z</time>
      </trkpt>
      <trkpt lat="41.65895" lon="-1.6471">
        <ele>806.286</ele>
        <time>2013-05-08T08:59:47Z</time>
      </trkpt>
      <trkpt lat="41.65903" lon="-1.64721">
        <ele>806.723</ele>
        <time>2013-05-08T08:59:45Z</time>
      </trkpt>
      <trkpt lat="41.65908" lon="-1.64725">
        <ele>807.64</ele>
        <time>2013-05-08T08:59:44Z</time>
      </trkpt>
      <trkpt lat="41.65935" lon="-1.64742">
        <ele>811.598</ele>
        <time>2013-05-08T08:59:40Z</time>
      </trkpt>
      <trkpt lat="41.65958" lon="-1.64756">
        <ele>814.961</ele>
        <time>2013-05-08T08:59:37Z</time>
      </trkpt>
      <trkpt lat="41.65985" lon="-1.64777">
        <ele>818.789</ele>
        <time>2013-05-08T08:59:33Z</time>
      </trkpt>
      <trkpt lat="41.66027" lon="-1.64802">
        <ele>821.606</ele>
        <time>2013-05-08T08:59:27Z</time>
      </trkpt>
      <trkpt lat="41.66046" lon="-1.64811">
        <ele>823.026</ele>
        <time>2013-05-08T08:59:24Z</time>
      </trkpt>
      <trkpt lat="41.66064" lon="-1.64824">
        <ele>825.408</ele>
        <time>2013-05-08T08:59:20Z</time>
      </trkpt>
      <trkpt lat="41.66075" lon="-1.64837">
        <ele>826.419</ele>
        <time>2013-05-08T08:59:17Z</time>
      </trkpt>
      <trkpt lat="41.6609" lon="-1.64852">
        <ele>829.31</ele>
        <time>2013-05-08T08:59:13Z</time>
      </trkpt>
      <trkpt lat="41.66106" lon="-1.64852">
        <ele>830.752</ele>
        <time>2013-05-08T08:59:09Z</time>
      </trkpt>
      <trkpt lat="41.66125" lon="-1.64849">
        <ele>833.657</ele>
        <time>2013-05-08T08:59:05Z</time>
      </trkpt>
      <trkpt lat="41.66145" lon="-1.64852">
        <ele>836.554</ele>
        <time>2013-05-08T08:59:00Z</time>
      </trkpt>
      <trkpt lat="41.66153" lon="-1.64856">
        <ele>837.511</ele>
        <time>2013-05-08T08:58:58Z</time>
      </trkpt>
      <trkpt lat="41.66169" lon="-1.64862">
        <ele>839.499</ele>
        <time>2013-05-08T08:58:54Z</time>
      </trkpt>
      <trkpt lat="41.66179" lon="-1.64857">
        <ele>841.392</ele>
        <time>2013-05-08T08:58:51Z</time>
      </trkpt>
      <trkpt lat="41.66194" lon="-1.64832">
        <ele>844.256</ele>
        <time>2013-05-08T08:58:44Z</time>
      </trkpt>
      <trkpt lat="41.66222" lon="-1.64827">
        <ele>847.159</ele>
        <time>2013-05-08T08:58:38Z</time>
      </trkpt>
      <trkpt lat="41.66257" lon="-1.64825">
        <ele>849.914</ele>
        <time>2013-05-08T08:58:34Z</time>
      </trkpt>
      <trkpt lat="41.66279" lon="-1.64828">
        <ele>853.308</ele>
        <time>2013-05-08T08:58:31Z</time>
      </trkpt>
      <trkpt lat="41.66304" lon="-1.64833">
        <ele>857.216</ele>
        <time>2013-05-08T08:58:27Z</time>
      </trkpt>
      <trkpt lat="41.6634" lon="-1.64836">
        <ele>861.067</ele>
        <time>2013-05-08T08:58:21Z</time>
      </trkpt>
      <trkpt lat="41.66353" lon="-1.64836">
        <ele>862.999</ele>
        <time>2013-05-08T08:58:19Z</time>
      </trkpt>
      <trkpt lat="41.6638" lon="-1.64822">
        <ele>865.364</ele>
        <time>2013-05-08T08:58:14Z</time>
      </trkpt>
      <trkpt lat="41.66395" lon="-1.64808">
        <ele>866.851</ele>
        <time>2013-05-08T08:58:10Z</time>
      </trkpt>
      <trkpt lat="41.66423" lon="-1.64801">
        <ele>870.618</ele>
        <time>2013-05-08T08:58:05Z</time>
      </trkpt>
      <trkpt lat="41.66441" lon="-1.64802">
        <ele>873.066</ele>
        <time>2013-05-08T08:58:01Z</time>
      </trkpt>
      <trkpt lat="41.66446" lon="-1.64804">
        <ele>873.519</ele>
        <time>2013-05-08T08:58:00Z</time>
      </trkpt>
      <trkpt lat="41.66478" lon="-1.64816">
        <ele>878.355</ele>
        <time>2013-05-08T08:57:54Z</time>
      </trkpt>
      <trkpt lat="41.66508" lon="-1.6482">
        <ele>881.707</ele>
        <time>2013-05-08T08:57:47Z</time>
      </trkpt>
      <trkpt lat="41.66529" lon="-1.64844">
        <ele>885.017</ele>
        <time>2013-05-08T08:57:40Z</time>
      </trkpt>
      <trkpt lat="41.66531" lon="-1.64854">
        <ele>885.508</ele>
        <time>2013-05-08T08:57:38Z</time>
      </trkpt>
      <trkpt lat="41.66544" lon="-1.64895">
        <ele>889.896</ele>
        <time>2013-05-08T08:57:32Z</time>
      </trkpt>
      <trkpt lat="41.66555" lon="-1.64914">
        <ele>891.897</ele>
        <time>2013-05-08T08:57:29Z</time>
      </trkpt>
      <trkpt lat="41.66562" lon="-1.64923">
        <ele>892.289</ele>
        <time>2013-05-08T08:57:27Z</time>
      </trkpt>
      <trkpt lat="41.66585" lon="-1.64931">
        <ele>896.164</ele>
        <time>2013-05-08T08:57:22Z</time>
      </trkpt>
      <trkpt lat="41.66613" lon="-1.64928">
        <ele>899.021</ele>
        <time>2013-05-08T08:57:17Z</time>
      </trkpt>
      <trkpt lat="41.66637" lon="-1.64926">
        <ele>902.338</ele>
        <time>2013-05-08T08:57:11Z</time>
      </trkpt>
      <trkpt lat="41.6664" lon="-1.64928">
        <ele>902.336</ele>
        <time>2013-05-08T08:57:10Z</time>
      </trkpt>
      <trkpt lat="41.66662" lon="-1.64949">
        <ele>906.299</ele>
        <time>2013-05-08T08:57:03Z</time>
      </trkpt>
      <trkpt lat="41.66677" lon="-1.64982">
        <ele>910.052</ele>
        <time>2013-05-08T08:56:57Z</time>
      </trkpt>
      <trkpt lat="41.66685" lon="-1.65003">
        <ele>912.453</ele>
        <time>2013-05-08T08:56:53Z</time>
      </trkpt>
      <trkpt lat="41.66691" lon="-1.6502">
        <ele>915.308</ele>
        <time>2013-05-08T08:56:49Z</time>
      </trkpt>
      <trkpt lat="41.66701" lon="-1.65044">
        <ele>919.608</ele>
        <time>2013-05-08T08:56:44Z</time>
      </trkpt>
      <trkpt lat="41.66708" lon="-1.65056">
        <ele>921.686</ele>
        <time>2013-05-08T08:56:41Z</time>
      </trkpt>
      <trkpt lat="41.6672" lon="-1.65073">
        <ele>924.987</ele>
        <time>2013-05-08T08:56:36Z</time>
      </trkpt>
      <trkpt lat="41.6673" lon="-1.65088">
        <ele>928.359</ele>
        <time>2013-05-08T08:56:30Z</time>
      </trkpt>
      <trkpt lat="41.66736" lon="-1.651">
        <ele>931.734</ele>
        <time>2013-05-08T08:56:24Z</time>
      </trkpt>
      <trkpt lat="41.66744" lon="-1.65113">
        <ele>934.171</ele>
        <time>2013-05-08T08:56:18Z</time>
      </trkpt>
      <trkpt lat="41.66745" lon="-1.65115">
        <ele>934.118</ele>
        <time>2013-05-08T08:55:26Z</time>
      </trkpt>
      <trkpt lat="41.66749" lon="-1.65122">
        <ele>935.536</ele>
        <time>2013-05-08T08:55:16Z</time>
      </trkpt>
      <trkpt lat="41.6676" lon="-1.65143">
        <ele>938.939</ele>
        <time>2013-05-08T08:55:05Z</time>
      </trkpt>
      <trkpt lat="41.66774" lon="-1.65153">
        <ele>940.312</ele>
        <time>2013-05-08T08:55:00Z</time>
      </trkpt>
      <trkpt lat="41.66786" lon="-1.65161">
        <ele>941.332</ele>
        <time>2013-05-08T08:54:58Z</time>
      </trkpt>
      <trkpt lat="41.66821" lon="-1.65181">
        <ele>944.205</ele>
        <time>2013-05-08T08:54:53Z</time>
      </trkpt>
      <trkpt lat="41.6686" lon="-1.65199">
        <ele>948.508</ele>
        <time>2013-05-08T08:54:47Z</time>
      </trkpt>
      <trkpt lat="41.66883" lon="-1.65196">
        <ele>951.882</ele>
        <time>2013-05-08T08:54:43Z</time>
      </trkpt>
      <trkpt lat="41.66905" lon="-1.65186">
        <ele>954.333</ele>
        <time>2013-05-08T08:54:39Z</time>
      </trkpt>
      <trkpt lat="41.6695" lon="-1.65178">
        <ele>956.215</ele>
        <time>2013-05-08T08:54:32Z</time>
      </trkpt>
      <trkpt lat="41.66975" lon="-1.65165">
        <ele>957.18</ele>
        <time>2013-05-08T08:54:28Z</time>
      </trkpt>
      <trkpt lat="41.66997" lon="-1.65146">
        <ele>959.527</ele>
        <time>2013-05-08T08:54:24Z</time>
      </trkpt>
      <trkpt lat="41.6703" lon="-1.65129">
        <ele>962.994</ele>
        <time>2013-05-08T08:54:18Z</time>
      </trkpt>
      <trkpt lat="41.67048" lon="-1.65128">
        <ele>964.882</ele>
        <time>2013-05-08T08:54:14Z</time>
      </trkpt>
      <trkpt lat="41.67087" lon="-1.65139">
        <ele>968.775</ele>
        <time>2013-05-08T08:54:07Z</time>
      </trkpt>
      <trkpt lat="41.67121" lon="-1.65159">
        <ele>972.544</ele>
        <time>2013-05-08T08:54:02Z</time>
      </trkpt>
      <trkpt lat="41.67151" lon="-1.65183">
        <ele>975.905</ele>
        <time>2013-05-08T08:53:58Z</time>
      </trkpt>
      <trkpt lat="41.67191" lon="-1.65218">
        <ele>979.215</ele>
        <time>2013-05-08T08:53:52Z</time>
      </trkpt>
      <trkpt lat="41.67264" lon="-1.65257">
        <ele>982.608</ele>
        <time>2013-05-08T08:53:41Z</time>
      </trkpt>
      <trkpt lat="41.67282" lon="-1.65276">
        <ele>985.525</ele>
        <time>2013-05-08T08:53:37Z</time>
      </trkpt>
      <trkpt lat="41.67287" lon="-1.65285">
        <ele>987.416</ele>
        <time>2013-05-08T08:53:35Z</time>
      </trkpt>
      <trkpt lat="41.67294" lon="-1.65301">
        <ele>988.938</ele>
        <time>2013-05-08T08:53:32Z</time>
      </trkpt>
      <trkpt lat="41.67308" lon="-1.65326">
        <ele>991.363</ele>
        <time>2013-05-08T08:53:28Z</time>
      </trkpt>
      <trkpt lat="41.67318" lon="-1.65337">
        <ele>992.75</ele>
        <time>2013-05-08T08:53:26Z</time>
      </trkpt>
      <trkpt lat="41.67341" lon="-1.65355">
        <ele>996.587</ele>
        <time>2013-05-08T08:53:22Z</time>
      </trkpt>
      <trkpt lat="41.6736" lon="-1.6537">
        <ele>999.465</ele>
        <time>2013-05-08T08:53:19Z</time>
      </trkpt>
      <trkpt lat="41.6738" lon="-1.65385">
        <ele>1002.848</ele>
        <time>2013-05-08T08:53:16Z</time>
      </trkpt>
      <trkpt lat="41.67403" lon="-1.65402">
        <ele>1006.226</ele>
        <time>2013-05-08T08:53:12Z</time>
      </trkpt>
      <trkpt lat="41.67421" lon="-1.65417">
        <ele>1009.047</ele>
        <time>2013-05-08T08:53:08Z</time>
      </trkpt>
      <trkpt lat="41.67441" lon="-1.65437">
        <ele>1012.411</ele>
        <time>2013-05-08T08:53:03Z</time>
      </trkpt>
      <trkpt lat="41.67455" lon="-1.65468">
        <ele>1015.808</ele>
        <time>2013-05-08T08:52:56Z</time>
      </trkpt>
      <trkpt lat="41.67449" lon="-1.65497">
        <ele>1017.273</ele>
        <time>2013-05-08T08:52:47Z</time>
      </trkpt>
      <trkpt lat="41.67444" lon="-1.65521">
        <ele>1016.344</ele>
        <time>2013-05-08T08:52:37Z</time>
      </trkpt>
      <trkpt lat="41.67452" lon="-1.65553">
        <ele>1014.366</ele>
        <time>2013-05-08T08:52:25Z</time>
      </trkpt>
      <trkpt lat="41.67469" lon="-1.65573">
        <ele>1012.451</ele>
        <time>2013-05-08T08:52:15Z</time>
      </trkpt>
      <trkpt lat="41.67492" lon="-1.65597">
        <ele>1012.458</ele>
        <time>2013-05-08T08:52:07Z</time>
      </trkpt>
      <trkpt lat="41.67526" lon="-1.65628">
        <ele>1014.825</ele>
        <time>2013-05-08T08:52:01Z</time>
      </trkpt>
      <trkpt lat="41.67533" lon="-1.6564">
        <ele>1016.313</ele>
        <time>2013-05-08T08:51:59Z</time>
      </trkpt>
      <trkpt lat="41.67565" lon="-1.65683">
        <ele>1017.756</ele>
        <time>2013-05-08T08:51:49Z</time>
      </trkpt>
      <trkpt lat="41.67586" lon="-1.657">
        <ele>1017.728</ele>
        <time>2013-05-08T08:51:44Z</time>
      </trkpt>
      <trkpt lat="41.67603" lon="-1.65724">
        <ele>1018.289</ele>
        <time>2013-05-08T08:51:39Z</time>
      </trkpt>
      <trkpt lat="41.67607" lon="-1.65736">
        <ele>1018.217</ele>
        <time>2013-05-08T08:51:37Z</time>
      </trkpt>
      <trkpt lat="41.67611" lon="-1.65753">
        <ele>1018.708</ele>
        <time>2013-05-08T08:51:34Z</time>
      </trkpt>
      <trkpt lat="41.67612" lon="-1.65759">
        <ele>1018.793</ele>
        <time>2013-05-08T08:51:33Z</time>
      </trkpt>
      <trkpt lat="41.67624" lon="-1.65819">
        <ele>1019.664</ele>
        <time>2013-05-08T08:51:22Z</time>
      </trkpt>
      <trkpt lat="41.67646" lon="-1.65845">
        <ele>1019.646</ele>
        <time>2013-05-08T08:51:11Z</time>
      </trkpt>
      <trkpt lat="41.67655" lon="-1.65851">
        <ele>1019.631</ele>
        <time>2013-05-08T08:50:30Z</time>
      </trkpt>
      <trkpt lat="41.67655" lon="-1.6585">
        <ele>1019.698</ele>
        <time>2013-05-08T08:49:38Z</time>
      </trkpt>
      <trkpt lat="41.67656" lon="-1.65852">
        <ele>1019.645</ele>
        <time>2013-05-08T08:48:59Z</time>
      </trkpt>
      <trkpt lat="41.67656" lon="-1.65849">
        <ele>1019.663</ele>
        <time>2013-05-08T08:48:44Z</time>
      </trkpt>
      <trkpt lat="41.67656" lon="-1.65852">
        <ele>1019.636</ele>
        <time>2013-05-08T08:48:32Z</time>
      </trkpt>
      <trkpt lat="41.67658" lon="-1.6585">
        <ele>1019.665</ele>
        <time>2013-05-08T08:48:12Z</time>
      </trkpt>
      <trkpt lat="41.67658" lon="-1.65851">
        <ele>1020.668</ele>
        <time>2013-05-08T08:47:00Z</time>
      </trkpt>
      <trkpt lat="41.67658" lon="-1.6585">
        <ele>1020.614</ele>
        <time>2013-05-08T08:45:24Z</time>
      </trkpt>
      <trkpt lat="41.67658" lon="-1.65849">
        <ele>1020.108</ele>
        <time>2013-05-08T08:44:15Z</time>
      </trkpt>
      <trkpt lat="41.67658" lon="-1.6585">
        <ele>1020.147</ele>
        <time>2013-05-08T08:43:41Z</time>
      </trkpt>
      <trkpt lat="41.67658" lon="-1.65851">
        <ele>1020.138</ele>
        <time>2013-05-08T08:42:49Z</time>
      </trkpt>
      <trkpt lat="41.67657" lon="-1.65852">
        <ele>1020.14</ele>
        <time>2013-05-08T08:42:37Z</time>
      </trkpt>
      <trkpt lat="41.67667" lon="-1.65869">
        <ele>1019.625</ele>
        <time>2013-05-08T08:42:26Z</time>
      </trkpt>
      <trkpt lat="41.67683" lon="-1.65887">
        <ele>1017.772</ele>
        <time>2013-05-08T08:42:10Z</time>
      </trkpt>
      <trkpt lat="41.67693" lon="-1.65897">
        <ele>1016.349</ele>
        <time>2013-05-08T08:42:00Z</time>
      </trkpt>
      <trkpt lat="41.67704" lon="-1.65911">
        <ele>1014.877</ele>
        <time>2013-05-08T08:41:54Z</time>
      </trkpt>
      <trkpt lat="41.67741" lon="-1.65937">
        <ele>1017.74</ele>
        <time>2013-05-08T08:41:46Z</time>
      </trkpt>
      <trkpt lat="41.67757" lon="-1.65953">
        <ele>1017.721</ele>
        <time>2013-05-08T08:41:38Z</time>
      </trkpt>
      <trkpt lat="41.67774" lon="-1.65942">
        <ele>1016.341</ele>
        <time>2013-05-08T08:41:27Z</time>
      </trkpt>
      <trkpt lat="41.67788" lon="-1.65924">
        <ele>1014.305</ele>
        <time>2013-05-08T08:41:16Z</time>
      </trkpt>
      <trkpt lat="41.6781" lon="-1.65915">
        <ele>1012.908</ele>
        <time>2013-05-08T08:41:04Z</time>
      </trkpt>
      <trkpt lat="41.6783" lon="-1.65901">
        <ele>1011.433</ele>
        <time>2013-05-08T08:40:53Z</time>
      </trkpt>
      <trkpt lat="41.67845" lon="-1.65874">
        <ele>1010.074</ele>
        <time>2013-05-08T08:40:42Z</time>
      </trkpt>
      <trkpt lat="41.6785" lon="-1.6586">
        <ele>1009.086</ele>
        <time>2013-05-08T08:40:36Z</time>
      </trkpt>
      <trkpt lat="41.67875" lon="-1.65861">
        <ele>1010.511</ele>
        <time>2013-05-08T08:40:30Z</time>
      </trkpt>
      <trkpt lat="41.6788" lon="-1.65865">
        <ele>1011.058</ele>
        <time>2013-05-08T08:40:29Z</time>
      </trkpt>
      <trkpt lat="41.67929" lon="-1.65897">
        <ele>1012.925</ele>
        <time>2013-05-08T08:40:19Z</time>
      </trkpt>
      <trkpt lat="41.67956" lon="-1.6592">
        <ele>1015.323</ele>
        <time>2013-05-08T08:40:13Z</time>
      </trkpt>
      <trkpt lat="41.67979" lon="-1.65945">
        <ele>1016.796</ele>
        <time>2013-05-08T08:40:05Z</time>
      </trkpt>
      <trkpt lat="41.67986" lon="-1.65958">
        <ele>1016.793</ele>
        <time>2013-05-08T08:39:59Z</time>
      </trkpt>
      <trkpt lat="41.67997" lon="-1.65972">
        <ele>1015.865</ele>
        <time>2013-05-08T08:39:50Z</time>
      </trkpt>
      <trkpt lat="41.67998" lon="-1.65973">
        <ele>1015.821</ele>
        <time>2013-05-08T08:39:49Z</time>
      </trkpt>
      <trkpt lat="41.68011" lon="-1.65987">
        <ele>1013.908</ele>
        <time>2013-05-08T08:39:37Z</time>
      </trkpt>
      <trkpt lat="41.68031" lon="-1.66">
        <ele>1012.97</ele>
        <time>2013-05-08T08:39:23Z</time>
      </trkpt>
      <trkpt lat="41.68039" lon="-1.66002">
        <ele>1011.441</ele>
        <time>2013-05-08T08:39:19Z</time>
      </trkpt>
      <trkpt lat="41.6807" lon="-1.66011">
        <ele>1008.683</ele>
        <time>2013-05-08T08:39:13Z</time>
      </trkpt>
      <trkpt lat="41.68106" lon="-1.66038">
        <ele>1009.598</ele>
        <time>2013-05-08T08:39:08Z</time>
      </trkpt>
      <trkpt lat="41.68122" lon="-1.66048">
        <ele>1010.575</ele>
        <time>2013-05-08T08:39:06Z</time>
      </trkpt>
      <trkpt lat="41.6813" lon="-1.66054">
        <ele>1011.082</ele>
        <time>2013-05-08T08:39:05Z</time>
      </trkpt>
      <trkpt lat="41.68159" lon="-1.66081">
        <ele>1014.82</ele>
        <time>2013-05-08T08:39:00Z</time>
      </trkpt>
      <trkpt lat="41.68193" lon="-1.66094">
        <ele>1015.853</ele>
        <time>2013-05-08T08:38:53Z</time>
      </trkpt>
      <trkpt lat="41.68208" lon="-1.66089">
        <ele>1015.881</ele>
        <time>2013-05-08T08:38:50Z</time>
      </trkpt>
      <trkpt lat="41.68225" lon="-1.66085">
        <ele>1016.761</ele>
        <time>2013-05-08T08:38:46Z</time>
      </trkpt>
      <trkpt lat="41.68241" lon="-1.66094">
        <ele>1017.717</ele>
        <time>2013-05-08T08:38:38Z</time>
      </trkpt>
      <trkpt lat="41.68256" lon="-1.66109">
        <ele>1016.708</ele>
        <time>2013-05-08T08:38:26Z</time>
      </trkpt>
      <trkpt lat="41.68271" lon="-1.66124">
        <ele>1015.319</ele>
        <time>2013-05-08T08:38:13Z</time>
      </trkpt>
      <trkpt lat="41.68285" lon="-1.66134">
        <ele>1013.98</ele>
        <time>2013-05-08T08:38:01Z</time>
      </trkpt>
      <trkpt lat="41.68293" lon="-1.66135">
        <ele>1012.942</ele>
        <time>2013-05-08T08:37:54Z</time>
      </trkpt>
      <trkpt lat="41.68305" lon="-1.66138">
        <ele>1011.427</ele>
        <time>2013-05-08T08:37:45Z</time>
      </trkpt>
      <trkpt lat="41.68318" lon="-1.66146">
        <ele>1010.094</ele>
        <time>2013-05-08T08:37:34Z</time>
      </trkpt>
      <trkpt lat="41.68334" lon="-1.6616">
        <ele>1009.531</ele>
        <time>2013-05-08T08:37:25Z</time>
      </trkpt>
      <trkpt lat="41.68353" lon="-1.66186">
        <ele>1008.619</ele>
        <time>2013-05-08T08:37:14Z</time>
      </trkpt>
      <trkpt lat="41.68376" lon="-1.66214">
        <ele>1007.142</ele>
        <time>2013-05-08T08:37:02Z</time>
      </trkpt>
      <trkpt lat="41.68416" lon="-1.66237">
        <ele>1007.185</ele>
        <time>2013-05-08T08:36:51Z</time>
      </trkpt>
      <trkpt lat="41.68468" lon="-1.66275">
        <ele>1008.189</ele>
        <time>2013-05-08T08:36:39Z</time>
      </trkpt>
      <trkpt lat="41.68502" lon="-1.66305">
        <ele>1009.517</ele>
        <time>2013-05-08T08:36:31Z</time>
      </trkpt>
      <trkpt lat="41.68527" lon="-1.66327">
        <ele>1009.508</ele>
        <time>2013-05-08T08:36:25Z</time>
      </trkpt>
      <trkpt lat="41.68542" lon="-1.66336">
        <ele>1009.539</ele>
        <time>2013-05-08T08:36:22Z</time>
      </trkpt>
      <trkpt lat="41.68566" lon="-1.66348">
        <ele>1010.54</ele>
        <time>2013-05-08T08:36:17Z</time>
      </trkpt>
      <trkpt lat="41.68578" lon="-1.66356">
        <ele>1011.412</ele>
        <time>2013-05-08T08:36:14Z</time>
      </trkpt>
      <trkpt lat="41.686" lon="-1.66378">
        <ele>1011.467</ele>
        <time>2013-05-08T08:36:06Z</time>
      </trkpt>
      <trkpt lat="41.68621" lon="-1.66392">
        <ele>1011.034</ele>
        <time>2013-05-08T08:35:57Z</time>
      </trkpt>
      <trkpt lat="41.68628" lon="-1.66393">
        <ele>1011.411</ele>
        <time>2013-05-08T08:35:53Z</time>
      </trkpt>
      <trkpt lat="41.68657" lon="-1.66411">
        <ele>1014.829</ele>
        <time>2013-05-08T08:35:45Z</time>
      </trkpt>
      <trkpt lat="41.6868" lon="-1.6642">
        <ele>1018.252</ele>
        <time>2013-05-08T08:35:41Z</time>
      </trkpt>
      <trkpt lat="41.68708" lon="-1.66428">
        <ele>1022.539</ele>
        <time>2013-05-08T08:35:36Z</time>
      </trkpt>
      <trkpt lat="41.68729" lon="-1.66431">
        <ele>1024.401</ele>
        <time>2013-05-08T08:35:32Z</time>
      </trkpt>
      <trkpt lat="41.68749" lon="-1.66428">
        <ele>1027.821</ele>
        <time>2013-05-08T08:35:28Z</time>
      </trkpt>
      <trkpt lat="41.6877" lon="-1.66435">
        <ele>1031.208</ele>
        <time>2013-05-08T08:35:23Z</time>
      </trkpt>
      <trkpt lat="41.6878" lon="-1.66448">
        <ele>1034.064</ele>
        <time>2013-05-08T08:35:20Z</time>
      </trkpt>
      <trkpt lat="41.68795" lon="-1.66463">
        <ele>1038.425</ele>
        <time>2013-05-08T08:35:16Z</time>
      </trkpt>
      <trkpt lat="41.688" lon="-1.66465">
        <ele>1038.817</ele>
        <time>2013-05-08T08:35:15Z</time>
      </trkpt>
      <trkpt lat="41.6882" lon="-1.66475">
        <ele>1043.222</ele>
        <time>2013-05-08T08:35:11Z</time>
      </trkpt>
      <trkpt lat="41.68825" lon="-1.6648">
        <ele>1044.149</ele>
        <time>2013-05-08T08:35:10Z</time>
      </trkpt>
      <trkpt lat="41.68844" lon="-1.66498">
        <ele>1048.066</ele>
        <time>2013-05-08T08:35:05Z</time>
      </trkpt>
      <trkpt lat="41.68862" lon="-1.66516">
        <ele>1051.874</ele>
        <time>2013-05-08T08:35:00Z</time>
      </trkpt>
      <trkpt lat="41.68873" lon="-1.66525">
        <ele>1054.217</ele>
        <time>2013-05-08T08:34:57Z</time>
      </trkpt>
      <trkpt lat="41.68896" lon="-1.66529">
        <ele>1056.622</ele>
        <time>2013-05-08T08:34:51Z</time>
      </trkpt>
      <trkpt lat="41.689" lon="-1.66527">
        <ele>1057.162</ele>
        <time>2013-05-08T08:34:50Z</time>
      </trkpt>
      <trkpt lat="41.68941" lon="-1.66506">
        <ele>1060.008</ele>
        <time>2013-05-08T08:34:43Z</time>
      </trkpt>
      <trkpt lat="41.68967" lon="-1.66497">
        <ele>1062.408</ele>
        <time>2013-05-08T08:34:39Z</time>
      </trkpt>
      <trkpt lat="41.69003" lon="-1.66496">
        <ele>1066.743</ele>
        <time>2013-05-08T08:34:32Z</time>
      </trkpt>
      <trkpt lat="41.69011" lon="-1.66497">
        <ele>1068.294</ele>
        <time>2013-05-08T08:34:30Z</time>
      </trkpt>
      <trkpt lat="41.69015" lon="-1.66497">
        <ele>1068.236</ele>
        <time>2013-05-08T08:34:29Z</time>
      </trkpt>
      <trkpt lat="41.69035" lon="-1.66491">
        <ele>1072.061</ele>
        <time>2013-05-08T08:34:23Z</time>
      </trkpt>
      <trkpt lat="41.69035" lon="-1.66468">
        <ele>1075.498</ele>
        <time>2013-05-08T08:34:17Z</time>
      </trkpt>
      <trkpt lat="41.69027" lon="-1.66463">
        <ele>1076.815</ele>
        <time>2013-05-08T08:34:15Z</time>
      </trkpt>
      <trkpt lat="41.69017" lon="-1.66458">
        <ele>1077.843</ele>
        <time>2013-05-08T08:34:13Z</time>
      </trkpt>
      <trkpt lat="41.68967" lon="-1.66437">
        <ele>1081.116</ele>
        <time>2013-05-08T08:34:05Z</time>
      </trkpt>
      <trkpt lat="41.68947" lon="-1.66425">
        <ele>1083.535</ele>
        <time>2013-05-08T08:34:01Z</time>
      </trkpt>
      <trkpt lat="41.6894" lon="-1.66419">
        <ele>1085.086</ele>
        <time>2013-05-08T08:33:59Z</time>
      </trkpt>
      <trkpt lat="41.68934" lon="-1.66411">
        <ele>1085.014</ele>
        <time>2013-05-08T08:33:57Z</time>
      </trkpt>
      <trkpt lat="41.6894" lon="-1.66394">
        <ele>1087.408</ele>
        <time>2013-05-08T08:33:52Z</time>
      </trkpt>
      <trkpt lat="41.68964" lon="-1.66401">
        <ele>1090.354</ele>
        <time>2013-05-08T08:33:47Z</time>
      </trkpt>
      <trkpt lat="41.68998" lon="-1.66404">
        <ele>1092.745</ele>
        <time>2013-05-08T08:33:42Z</time>
      </trkpt>
      <trkpt lat="41.69017" lon="-1.664">
        <ele>1094.637</ele>
        <time>2013-05-08T08:33:39Z</time>
      </trkpt>
      <trkpt lat="41.69031" lon="-1.66396">
        <ele>1095.172</ele>
        <time>2013-05-08T08:33:38Z</time>
      </trkpt>
      <trkpt lat="41.6906" lon="-1.66386">
        <ele>1098.969</ele>
        <time>2013-05-08T08:33:34Z</time>
      </trkpt>
      <trkpt lat="41.69101" lon="-1.66373">
        <ele>1102.386</ele>
        <time>2013-05-08T08:33:28Z</time>
      </trkpt>
      <trkpt lat="41.69115" lon="-1.6637">
        <ele>1103.354</ele>
        <time>2013-05-08T08:33:26Z</time>
      </trkpt>
      <trkpt lat="41.69149" lon="-1.6637">
        <ele>1106.617</ele>
        <time>2013-05-08T08:33:20Z</time>
      </trkpt>
      <trkpt lat="41.69155" lon="-1.66371">
        <ele>1107.698</ele>
        <time>2013-05-08T08:33:18Z</time>
      </trkpt>
      <trkpt lat="41.69157" lon="-1.66372">
        <ele>1107.615</ele>
        <time>2013-05-08T08:32:52Z</time>
      </trkpt>
      <trkpt lat="41.69164" lon="-1.66375">
        <ele>1108.126</ele>
        <time>2013-05-08T08:32:44Z</time>
      </trkpt>
      <trkpt lat="41.69168" lon="-1.66377">
        <ele>1108.108</ele>
        <time>2013-05-08T08:32:43Z</time>
      </trkpt>
      <trkpt lat="41.6919" lon="-1.66415">
        <ele>1111.43</ele>
        <time>2013-05-08T08:32:36Z</time>
      </trkpt>
      <trkpt lat="41.69192" lon="-1.66454">
        <ele>1111.911</ele>
        <time>2013-05-08T08:32:32Z</time>
      </trkpt>
      <trkpt lat="41.69197" lon="-1.66491">
        <ele>1113.893</ele>
        <time>2013-05-08T08:32:28Z</time>
      </trkpt>
      <trkpt lat="41.69202" lon="-1.66508">
        <ele>1114.858</ele>
        <time>2013-05-08T08:32:26Z</time>
      </trkpt>
      <trkpt lat="41.69214" lon="-1.66553">
        <ele>1118.225</ele>
        <time>2013-05-08T08:32:20Z</time>
      </trkpt>
      <trkpt lat="41.69225" lon="-1.66568">
        <ele>1119.122</ele>
        <time>2013-05-08T08:32:14Z</time>
      </trkpt>
      <trkpt lat="41.69265" lon="-1.66576">
        <ele>1123.02</ele>
        <time>2013-05-08T08:32:06Z</time>
      </trkpt>
      <trkpt lat="41.69275" lon="-1.6658">
        <ele>1123.943</ele>
        <time>2013-05-08T08:32:04Z</time>
      </trkpt>
      <trkpt lat="41.69313" lon="-1.66593">
        <ele>1127.354</ele>
        <time>2013-05-08T08:31:57Z</time>
      </trkpt>
      <trkpt lat="41.69325" lon="-1.66595">
        <ele>1127.856</ele>
        <time>2013-05-08T08:31:55Z</time>
      </trkpt>
      <trkpt lat="41.69351" lon="-1.6661">
        <ele>1129.711</ele>
        <time>2013-05-08T08:31:50Z</time>
      </trkpt>
      <trkpt lat="41.69401" lon="-1.66657">
        <ele>1132.108</ele>
        <time>2013-05-08T08:31:39Z</time>
      </trkpt>
      <trkpt lat="41.69436" lon="-1.66696">
        <ele>1133.176</ele>
        <time>2013-05-08T08:31:29Z</time>
      </trkpt>
      <trkpt lat="41.69475" lon="-1.66752">
        <ele>1135.067</ele>
        <time>2013-05-08T08:31:18Z</time>
      </trkpt>
      <trkpt lat="41.695" lon="-1.66767">
        <ele>1135.079</ele>
        <time>2013-05-08T08:31:11Z</time>
      </trkpt>
      <trkpt lat="41.6954" lon="-1.66762">
        <ele>1135.984</ele>
        <time>2013-05-08T08:31:04Z</time>
      </trkpt>
      <trkpt lat="41.69557" lon="-1.66765">
        <ele>1136.961</ele>
        <time>2013-05-08T08:31:01Z</time>
      </trkpt>
      <trkpt lat="41.69573" lon="-1.66773">
        <ele>1138.378</ele>
        <time>2013-05-08T08:30:58Z</time>
      </trkpt>
      <trkpt lat="41.69597" lon="-1.66788">
        <ele>1142.286</ele>
        <time>2013-05-08T08:30:53Z</time>
      </trkpt>
      <trkpt lat="41.69606" lon="-1.66791">
        <ele>1142.779</ele>
        <time>2013-05-08T08:30:51Z</time>
      </trkpt>
      <trkpt lat="41.69646" lon="-1.66785">
        <ele>1143.198</ele>
        <time>2013-05-08T08:30:40Z</time>
      </trkpt>
      <trkpt lat="41.69683" lon="-1.66782">
        <ele>1144.115</ele>
        <time>2013-05-08T08:30:28Z</time>
      </trkpt>
      <trkpt lat="41.69708" lon="-1.66796">
        <ele>1144.626</ele>
        <time>2013-05-08T08:30:18Z</time>
      </trkpt>
      <trkpt lat="41.69719" lon="-1.66826">
        <ele>1146.508</ele>
        <time>2013-05-08T08:30:08Z</time>
      </trkpt>
      <trkpt lat="41.69724" lon="-1.66856">
        <ele>1148.41</ele>
        <time>2013-05-08T08:29:57Z</time>
      </trkpt>
      <trkpt lat="41.6974" lon="-1.66882">
        <ele>1150.871</ele>
        <time>2013-05-08T08:29:46Z</time>
      </trkpt>
      <trkpt lat="41.69742" lon="-1.66887">
        <ele>1150.863</ele>
        <time>2013-05-08T08:29:32Z</time>
      </trkpt>
      <trkpt lat="41.69757" lon="-1.66887">
        <ele>1152.878</ele>
        <time>2013-05-08T08:29:23Z</time>
      </trkpt>
      <trkpt lat="41.69797" lon="-1.66877">
        <ele>1152.825</ele>
        <time>2013-05-08T08:29:10Z</time>
      </trkpt>
      <trkpt lat="41.69831" lon="-1.66893">
        <ele>1152.852</ele>
        <time>2013-05-08T08:29:00Z</time>
      </trkpt>
      <trkpt lat="41.69858" lon="-1.66918">
        <ele>1152.87</ele>
        <time>2013-05-08T08:28:49Z</time>
      </trkpt>
      <trkpt lat="41.69888" lon="-1.66923">
        <ele>1152.813</ele>
        <time>2013-05-08T08:28:37Z</time>
      </trkpt>
      <trkpt lat="41.69918" lon="-1.66915">
        <ele>1151.393</ele>
        <time>2013-05-08T08:28:25Z</time>
      </trkpt>
      <trkpt lat="41.69922" lon="-1.66915">
        <ele>1150.865</ele>
        <time>2013-05-08T08:28:23Z</time>
      </trkpt>
      <trkpt lat="41.69954" lon="-1.66906">
        <ele>1149.421</ele>
        <time>2013-05-08T08:28:10Z</time>
      </trkpt>
      <trkpt lat="41.69983" lon="-1.66901">
        <ele>1148.408</ele>
        <time>2013-05-08T08:27:58Z</time>
      </trkpt>
      <trkpt lat="41.70011" lon="-1.66902">
        <ele>1147.08</ele>
        <time>2013-05-08T08:27:47Z</time>
      </trkpt>
      <trkpt lat="41.70041" lon="-1.669">
        <ele>1146.051</ele>
        <time>2013-05-08T08:27:35Z</time>
      </trkpt>
      <trkpt lat="41.70069" lon="-1.66904">
        <ele>1145.113</ele>
        <time>2013-05-08T08:27:24Z</time>
      </trkpt>
      <trkpt lat="41.70109" lon="-1.66912">
        <ele>1144.178</ele>
        <time>2013-05-08T08:27:10Z</time>
      </trkpt>
      <trkpt lat="41.70156" lon="-1.66922">
        <ele>1143.645</ele>
        <time>2013-05-08T08:26:54Z</time>
      </trkpt>
      <trkpt lat="41.70194" lon="-1.6693">
        <ele>1142.782</ele>
        <time>2013-05-08T08:26:41Z</time>
      </trkpt>
      <trkpt lat="41.70235" lon="-1.66933">
        <ele>1142.77</ele>
        <time>2013-05-08T08:26:27Z</time>
      </trkpt>
      <trkpt lat="41.70261" lon="-1.66936">
        <ele>1142.253</ele>
        <time>2013-05-08T08:26:15Z</time>
      </trkpt>
      <trkpt lat="41.70283" lon="-1.66934">
        <ele>1140.764</ele>
        <time>2013-05-08T08:26:04Z</time>
      </trkpt>
      <trkpt lat="41.7029" lon="-1.66931">
        <ele>1140.306</ele>
        <time>2013-05-08T08:25:59Z</time>
      </trkpt>
      <trkpt lat="41.70291" lon="-1.66929">
        <ele>1140.316</ele>
        <time>2013-05-08T08:25:53Z</time>
      </trkpt>
      <trkpt lat="41.70291" lon="-1.66927">
        <ele>1140.308</ele>
        <time>2013-05-08T08:25:27Z</time>
      </trkpt>
      <trkpt lat="41.70288" lon="-1.66935">
        <ele>1139.897</ele>
        <time>2013-05-08T08:24:39Z</time>
      </trkpt>
      <trkpt lat="41.70291" lon="-1.66928">
        <ele>1140.398</ele>
        <time>2013-05-08T08:21:40Z</time>
      </trkpt>
      <trkpt lat="41.70291" lon="-1.66927">
        <ele>1140.39</ele>
        <time>2013-05-08T08:20:29Z</time>
      </trkpt>
      <trkpt lat="41.7029" lon="-1.66927">
        <ele>1139.395</ele>
        <time>2013-05-08T08:19:21Z</time>
      </trkpt>
      <trkpt lat="41.70291" lon="-1.66927">
        <ele>1139.392</ele>
        <time>2013-05-08T08:18:45Z</time>
      </trkpt>
      <trkpt lat="41.70291" lon="-1.66926">
        <ele>1139.389</ele>
        <time>2013-05-08T08:18:12Z</time>
      </trkpt>
      <trkpt lat="41.70291" lon="-1.66928">
        <ele>1139.367</ele>
        <time>2013-05-08T08:17:36Z</time>
      </trkpt>
      <trkpt lat="41.70293" lon="-1.66928">
        <ele>1140.34</ele>
        <time>2013-05-08T08:17:02Z</time>
      </trkpt>
      <trkpt lat="41.70292" lon="-1.66928">
        <ele>1140.389</ele>
        <time>2013-05-08T08:16:29Z</time>
      </trkpt>
      <trkpt lat="41.70292" lon="-1.66926">
        <ele>1140.306</ele>
        <time>2013-05-08T08:15:24Z</time>
      </trkpt>
      <trkpt lat="41.70292" lon="-1.66927">
        <ele>1140.326</ele>
        <time>2013-05-08T08:14:15Z</time>
      </trkpt>
      <trkpt lat="41.70293" lon="-1.66926">
        <ele>1140.308</ele>
        <time>2013-05-08T08:13:38Z</time>
      </trkpt>
      <trkpt lat="41.70293" lon="-1.66928">
        <ele>1140.339</ele>
        <time>2013-05-08T08:12:26Z</time>
      </trkpt>
      <trkpt lat="41.70292" lon="-1.66928">
        <ele>1140.37</ele>
        <time>2013-05-08T08:11:43Z</time>
      </trkpt>
      <trkpt lat="41.70291" lon="-1.66926">
        <ele>1140.372</ele>
        <time>2013-05-08T08:11:28Z</time>
      </trkpt>
      <trkpt lat="41.70292" lon="-1.66927">
        <ele>1140.327</ele>
        <time>2013-05-08T08:10:53Z</time>
      </trkpt>
      <trkpt lat="41.703" lon="-1.66925">
        <ele>1140.334</ele>
        <time>2013-05-08T08:10:43Z</time>
      </trkpt>
      <trkpt lat="41.70306" lon="-1.66927">
        <ele>1140.351</ele>
        <time>2013-05-08T08:10:29Z</time>
      </trkpt>
      <trkpt lat="41.70313" lon="-1.66942">
        <ele>1140.339</ele>
        <time>2013-05-08T08:10:19Z</time>
      </trkpt>
      <trkpt lat="41.70312" lon="-1.6696">
        <ele>1139.892</ele>
        <time>2013-05-08T08:10:11Z</time>
      </trkpt>
      <trkpt lat="41.70313" lon="-1.66999">
        <ele>1139.872</ele>
        <time>2013-05-08T08:09:59Z</time>
      </trkpt>
      <trkpt lat="41.70318" lon="-1.67036">
        <ele>1139.313</ele>
        <time>2013-05-08T08:09:47Z</time>
      </trkpt>
      <trkpt lat="41.70324" lon="-1.67063">
        <ele>1139.314</ele>
        <time>2013-05-08T08:09:37Z</time>
      </trkpt>
      <trkpt lat="41.70332" lon="-1.67088">
        <ele>1139.308</ele>
        <time>2013-05-08T08:09:27Z</time>
      </trkpt>
      <trkpt lat="41.70348" lon="-1.6712">
        <ele>1139.328</ele>
        <time>2013-05-08T08:09:15Z</time>
      </trkpt>
      <trkpt lat="41.70356" lon="-1.67124">
        <ele>1138.839</ele>
        <time>2013-05-08T08:09:10Z</time>
      </trkpt>
      <trkpt lat="41.70364" lon="-1.67129">
        <ele>1138.391</ele>
        <time>2013-05-08T08:09:04Z</time>
      </trkpt>
      <trkpt lat="41.70384" lon="-1.67135">
        <ele>1137.976</ele>
        <time>2013-05-08T08:08:52Z</time>
      </trkpt>
      <trkpt lat="41.70406" lon="-1.67144">
        <ele>1137.923</ele>
        <time>2013-05-08T08:08:39Z</time>
      </trkpt>
      <trkpt lat="41.70428" lon="-1.6715">
        <ele>1136.97</ele>
        <time>2013-05-08T08:08:27Z</time>
      </trkpt>
      <trkpt lat="41.70452" lon="-1.67141">
        <ele>1135.538</ele>
        <time>2013-05-08T08:08:13Z</time>
      </trkpt>
      <trkpt lat="41.70472" lon="-1.67134">
        <ele>1134.521</ele>
        <time>2013-05-08T08:08:02Z</time>
      </trkpt>
      <trkpt lat="41.70494" lon="-1.67128">
        <ele>1133.141</ele>
        <time>2013-05-08T08:07:46Z</time>
      </trkpt>
      <trkpt lat="41.70514" lon="-1.67128">
        <ele>1132.681</ele>
        <time>2013-05-08T08:07:33Z</time>
      </trkpt>
      <trkpt lat="41.7054" lon="-1.67126">
        <ele>1131.609</ele>
        <time>2013-05-08T08:07:15Z</time>
      </trkpt>
      <trkpt lat="41.7056" lon="-1.67123">
        <ele>1129.708</ele>
        <time>2013-05-08T08:07:00Z</time>
      </trkpt>
      <trkpt lat="41.70564" lon="-1.67123">
        <ele>1129.715</ele>
        <time>2013-05-08T08:06:56Z</time>
      </trkpt>
      <trkpt lat="41.7058" lon="-1.67119">
        <ele>1127.336</ele>
        <time>2013-05-08T08:06:43Z</time>
      </trkpt>
      <trkpt lat="41.70586" lon="-1.67117">
        <ele>1126.838</ele>
        <time>2013-05-08T08:06:38Z</time>
      </trkpt>
      <trkpt lat="41.706" lon="-1.67113">
        <ele>1126.373</ele>
        <time>2013-05-08T08:06:28Z</time>
      </trkpt>
      <trkpt lat="41.70616" lon="-1.67104">
        <ele>1125.45</ele>
        <time>2013-05-08T08:06:16Z</time>
      </trkpt>
      <trkpt lat="41.70628" lon="-1.67086">
        <ele>1123.977</ele>
        <time>2013-05-08T08:06:00Z</time>
      </trkpt>
      <trkpt lat="41.70637" lon="-1.67072">
        <ele>1122.535</ele>
        <time>2013-05-08T08:05:47Z</time>
      </trkpt>
      <trkpt lat="41.70638" lon="-1.6707">
        <ele>1122.098</ele>
        <time>2013-05-08T08:05:45Z</time>
      </trkpt>
      <trkpt lat="41.70648" lon="-1.67052">
        <ele>1120.159</ele>
        <time>2013-05-08T08:05:29Z</time>
      </trkpt>
      <trkpt lat="41.70656" lon="-1.67041">
        <ele>1118.603</ele>
        <time>2013-05-08T08:05:18Z</time>
      </trkpt>
      <trkpt lat="41.70667" lon="-1.67029">
        <ele>1117.723</ele>
        <time>2013-05-08T08:05:04Z</time>
      </trkpt>
      <trkpt lat="41.70671" lon="-1.67025">
        <ele>1117.208</ele>
        <time>2013-05-08T08:04:59Z</time>
      </trkpt>
      <trkpt lat="41.70672" lon="-1.67024">
        <ele>1117.256</ele>
        <time>2013-05-08T08:04:58Z</time>
      </trkpt>
      <trkpt lat="41.70679" lon="-1.67013">
        <ele>1115.817</ele>
        <time>2013-05-08T08:04:46Z</time>
      </trkpt>
      <trkpt lat="41.70688" lon="-1.67">
        <ele>1113.879</ele>
        <time>2013-05-08T08:04:32Z</time>
      </trkpt>
      <trkpt lat="41.707" lon="-1.66983">
        <ele>1111.454</ele>
        <time>2013-05-08T08:04:14Z</time>
      </trkpt>
      <trkpt lat="41.70706" lon="-1.66972">
        <ele>1110.041</ele>
        <time>2013-05-08T08:04:04Z</time>
      </trkpt>
      <trkpt lat="41.70714" lon="-1.66958">
        <ele>1108.598</ele>
        <time>2013-05-08T08:03:51Z</time>
      </trkpt>
      <trkpt lat="41.70721" lon="-1.66945">
        <ele>1106.626</ele>
        <time>2013-05-08T08:03:38Z</time>
      </trkpt>
      <trkpt lat="41.70725" lon="-1.66939">
        <ele>1105.769</ele>
        <time>2013-05-08T08:03:31Z</time>
      </trkpt>
      <trkpt lat="41.70731" lon="-1.66926">
        <ele>1104.258</ele>
        <time>2013-05-08T08:03:19Z</time>
      </trkpt>
      <trkpt lat="41.70738" lon="-1.66913">
        <ele>1102.352</ele>
        <time>2013-05-08T08:03:05Z</time>
      </trkpt>
      <trkpt lat="41.70741" lon="-1.66906">
        <ele>1101.317</ele>
        <time>2013-05-08T08:02:58Z</time>
      </trkpt>
      <trkpt lat="41.70749" lon="-1.6689">
        <ele>1099.408</ele>
        <time>2013-05-08T08:02:44Z</time>
      </trkpt>
      <trkpt lat="41.70749" lon="-1.66889">
        <ele>1099.416</ele>
        <time>2013-05-08T08:02:43Z</time>
      </trkpt>
      <trkpt lat="41.70757" lon="-1.6687">
        <ele>1097.047</ele>
        <time>2013-05-08T08:02:26Z</time>
      </trkpt>
      <trkpt lat="41.70762" lon="-1.66855">
        <ele>1095.669</ele>
        <time>2013-05-08T08:02:12Z</time>
      </trkpt>
      <trkpt lat="41.70765" lon="-1.66848">
        <ele>1094.644</ele>
        <time>2013-05-08T08:02:05Z</time>
      </trkpt>
      <trkpt lat="41.70771" lon="-1.66831">
        <ele>1092.761</ele>
        <time>2013-05-08T08:01:49Z</time>
      </trkpt>
      <trkpt lat="41.7078" lon="-1.66812">
        <ele>1090.398</ele>
        <time>2013-05-08T08:01:32Z</time>
      </trkpt>
      <trkpt lat="41.70786" lon="-1.66797">
        <ele>1089.316</ele>
        <time>2013-05-08T08:01:20Z</time>
      </trkpt>
      <trkpt lat="41.70788" lon="-1.66792">
        <ele>1088.479</ele>
        <time>2013-05-08T08:01:16Z</time>
      </trkpt>
      <trkpt lat="41.70798" lon="-1.66773">
        <ele>1087.445</ele>
        <time>2013-05-08T08:01:00Z</time>
      </trkpt>
      <trkpt lat="41.70805" lon="-1.6676">
        <ele>1086.047</ele>
        <time>2013-05-08T08:00:47Z</time>
      </trkpt>
      <trkpt lat="41.7081" lon="-1.66749">
        <ele>1084.511</ele>
        <time>2013-05-08T08:00:36Z</time>
      </trkpt>
      <trkpt lat="41.70813" lon="-1.66737">
        <ele>1083.108</ele>
        <time>2013-05-08T08:00:24Z</time>
      </trkpt>
      <trkpt lat="41.70814" lon="-1.6673">
        <ele>1082.125</ele>
        <time>2013-05-08T08:00:18Z</time>
      </trkpt>
      <trkpt lat="41.70815" lon="-1.66714">
        <ele>1079.736</ele>
        <time>2013-05-08T08:00:05Z</time>
      </trkpt>
      <trkpt lat="41.70813" lon="-1.66698">
        <ele>1077.848</ele>
        <time>2013-05-08T07:59:52Z</time>
      </trkpt>
      <trkpt lat="41.70811" lon="-1.66683">
        <ele>1075.973</ele>
        <time>2013-05-08T07:59:39Z</time>
      </trkpt>
      <trkpt lat="41.70808" lon="-1.66665">
        <ele>1074.48</ele>
        <time>2013-05-08T07:59:26Z</time>
      </trkpt>
      <trkpt lat="41.7081" lon="-1.66645">
        <ele>1072.597</ele>
        <time>2013-05-08T07:59:10Z</time>
      </trkpt>
      <trkpt lat="41.70814" lon="-1.66627">
        <ele>1071.135</ele>
        <time>2013-05-08T07:58:56Z</time>
      </trkpt>
      <trkpt lat="41.70816" lon="-1.66615">
        <ele>1069.158</ele>
        <time>2013-05-08T07:58:46Z</time>
      </trkpt>
      <trkpt lat="41.70819" lon="-1.66599">
        <ele>1067.753</ele>
        <time>2013-05-08T07:58:32Z</time>
      </trkpt>
      <trkpt lat="41.70823" lon="-1.6658">
        <ele>1064.804</ele>
        <time>2013-05-08T07:58:17Z</time>
      </trkpt>
      <trkpt lat="41.70828" lon="-1.66564">
        <ele>1062.914</ele>
        <time>2013-05-08T07:58:02Z</time>
      </trkpt>
      <trkpt lat="41.70832" lon="-1.66552">
        <ele>1061.008</ele>
        <time>2013-05-08T07:57:51Z</time>
      </trkpt>
      <trkpt lat="41.70836" lon="-1.66542">
        <ele>1059.526</ele>
        <time>2013-05-08T07:57:41Z</time>
      </trkpt>
      <trkpt lat="41.70842" lon="-1.66525">
        <ele>1057.677</ele>
        <time>2013-05-08T07:57:25Z</time>
      </trkpt>
      <trkpt lat="41.7085" lon="-1.66512">
        <ele>1055.719</ele>
        <time>2013-05-08T07:57:11Z</time>
      </trkpt>
      <trkpt lat="41.70864" lon="-1.66502">
        <ele>1053.384</ele>
        <time>2013-05-08T07:56:56Z</time>
      </trkpt>
      <trkpt lat="41.70868" lon="-1.66499">
        <ele>1052.321</ele>
        <time>2013-05-08T07:56:51Z</time>
      </trkpt>
      <trkpt lat="41.70881" lon="-1.66499">
        <ele>1050.478</ele>
        <time>2013-05-08T07:56:37Z</time>
      </trkpt>
      <trkpt lat="41.70893" lon="-1.66503">
        <ele>1048.546</ele>
        <time>2013-05-08T07:56:23Z</time>
      </trkpt>
      <trkpt lat="41.70902" lon="-1.66507">
        <ele>1047.029</ele>
        <time>2013-05-08T07:56:12Z</time>
      </trkpt>
      <trkpt lat="41.70914" lon="-1.6651">
        <ele>1046.135</ele>
        <time>2013-05-08T07:56:00Z</time>
      </trkpt>
      <trkpt lat="41.70923" lon="-1.66513">
        <ele>1045.186</ele>
        <time>2013-05-08T07:55:50Z</time>
      </trkpt>
      <trkpt lat="41.70934" lon="-1.66516">
        <ele>1043.714</ele>
        <time>2013-05-08T07:55:38Z</time>
      </trkpt>
      <trkpt lat="41.70943" lon="-1.66517">
        <ele>1042.208</ele>
        <time>2013-05-08T07:55:27Z</time>
      </trkpt>
      <trkpt lat="41.70954" lon="-1.66511">
        <ele>1040.834</ele>
        <time>2013-05-08T07:55:15Z</time>
      </trkpt>
      <trkpt lat="41.70962" lon="-1.665">
        <ele>1039.335</ele>
        <time>2013-05-08T07:55:02Z</time>
      </trkpt>
      <trkpt lat="41.70967" lon="-1.66494">
        <ele>1037.467</ele>
        <time>2013-05-08T07:54:54Z</time>
      </trkpt>
      <trkpt lat="41.70975" lon="-1.66483">
        <ele>1035.582</ele>
        <time>2013-05-08T07:54:41Z</time>
      </trkpt>
      <trkpt lat="41.70982" lon="-1.66474">
        <ele>1034.049</ele>
        <time>2013-05-08T07:54:29Z</time>
      </trkpt>
      <trkpt lat="41.70993" lon="-1.66461">
        <ele>1032.176</ele>
        <time>2013-05-08T07:54:12Z</time>
      </trkpt>
      <trkpt lat="41.71003" lon="-1.6645">
        <ele>1030.284</ele>
        <time>2013-05-08T07:53:58Z</time>
      </trkpt>
      <trkpt lat="41.71011" lon="-1.66439">
        <ele>1029.267</ele>
        <time>2013-05-08T07:53:45Z</time>
      </trkpt>
      <trkpt lat="41.71017" lon="-1.66432">
        <ele>1027.842</ele>
        <time>2013-05-08T07:53:37Z</time>
      </trkpt>
      <trkpt lat="41.71023" lon="-1.66422">
        <ele>1026.322</ele>
        <time>2013-05-08T07:53:26Z</time>
      </trkpt>
      <trkpt lat="41.71031" lon="-1.6641">
        <ele>1024.414</ele>
        <time>2013-05-08T07:53:12Z</time>
      </trkpt>
      <trkpt lat="41.71037" lon="-1.66396">
        <ele>1023.008</ele>
        <time>2013-05-08T07:52:58Z</time>
      </trkpt>
      <trkpt lat="41.71038" lon="-1.66394">
        <ele>1022.565</ele>
        <time>2013-05-08T07:52:55Z</time>
      </trkpt>
      <trkpt lat="41.71044" lon="-1.66381">
        <ele>1020.626</ele>
        <time>2013-05-08T07:52:41Z</time>
      </trkpt>
      <trkpt lat="41.71051" lon="-1.66368">
        <ele>1018.718</ele>
        <time>2013-05-08T07:52:27Z</time>
      </trkpt>
      <trkpt lat="41.71056" lon="-1.66356">
        <ele>1016.353</ele>
        <time>2013-05-08T07:52:14Z</time>
      </trkpt>
      <trkpt lat="41.7106" lon="-1.66345">
        <ele>1014.88</ele>
        <time>2013-05-08T07:52:02Z</time>
      </trkpt>
      <trkpt lat="41.71068" lon="-1.66332">
        <ele>1011.977</ele>
        <time>2013-05-08T07:51:46Z</time>
      </trkpt>
      <trkpt lat="41.71074" lon="-1.66317">
        <ele>1009.525</ele>
        <time>2013-05-08T07:51:31Z</time>
      </trkpt>
      <trkpt lat="41.71076" lon="-1.66303">
        <ele>1007.628</ele>
        <time>2013-05-08T07:51:19Z</time>
      </trkpt>
      <trkpt lat="41.71078" lon="-1.66297">
        <ele>1006.614</ele>
        <time>2013-05-08T07:51:13Z</time>
      </trkpt>
      <trkpt lat="41.71082" lon="-1.66284">
        <ele>1004.254</ele>
        <time>2013-05-08T07:51:01Z</time>
      </trkpt>
      <trkpt lat="41.71087" lon="-1.66267">
        <ele>1001.409</ele>
        <time>2013-05-08T07:50:46Z</time>
      </trkpt>
      <trkpt lat="41.7109" lon="-1.6626">
        <ele>1000.908</ele>
        <time>2013-05-08T07:50:40Z</time>
      </trkpt>
      <trkpt lat="41.71096" lon="-1.66248">
        <ele>998.582</ele>
        <time>2013-05-08T07:50:28Z</time>
      </trkpt>
      <trkpt lat="41.71103" lon="-1.66233">
        <ele>996.513</ele>
        <time>2013-05-08T07:50:13Z</time>
      </trkpt>
      <trkpt lat="41.71109" lon="-1.6622">
        <ele>994.675</ele>
        <time>2013-05-08T07:50:00Z</time>
      </trkpt>
      <trkpt lat="41.71118" lon="-1.66202">
        <ele>992.21</ele>
        <time>2013-05-08T07:49:45Z</time>
      </trkpt>
      <trkpt lat="41.71122" lon="-1.66188">
        <ele>991.327</ele>
        <time>2013-05-08T07:49:35Z</time>
      </trkpt>
      <trkpt lat="41.71123" lon="-1.66183">
        <ele>991.354</ele>
        <time>2013-05-08T07:49:31Z</time>
      </trkpt>
      <trkpt lat="41.71129" lon="-1.6616">
        <ele>989.842</ele>
        <time>2013-05-08T07:49:15Z</time>
      </trkpt>
      <trkpt lat="41.71136" lon="-1.66142">
        <ele>988.495</ele>
        <time>2013-05-08T07:49:01Z</time>
      </trkpt>
      <trkpt lat="41.71143" lon="-1.66125">
        <ele>986.549</ele>
        <time>2013-05-08T07:48:48Z</time>
      </trkpt>
      <trkpt lat="41.7115" lon="-1.66113">
        <ele>985.002</ele>
        <time>2013-05-08T07:48:37Z</time>
      </trkpt>
      <trkpt lat="41.71155" lon="-1.661">
        <ele>984.522</ele>
        <time>2013-05-08T07:48:26Z</time>
      </trkpt>
      <trkpt lat="41.71161" lon="-1.66084">
        <ele>982.608</ele>
        <time>2013-05-08T07:48:12Z</time>
      </trkpt>
      <trkpt lat="41.71166" lon="-1.66066">
        <ele>981.255</ele>
        <time>2013-05-08T07:47:59Z</time>
      </trkpt>
      <trkpt lat="41.71168" lon="-1.66063">
        <ele>980.786</ele>
        <time>2013-05-08T07:47:55Z</time>
      </trkpt>
      <trkpt lat="41.71172" lon="-1.6605">
        <ele>979.278</ele>
        <time>2013-05-08T07:47:44Z</time>
      </trkpt>
      <trkpt lat="41.71176" lon="-1.66035">
        <ele>977.393</ele>
        <time>2013-05-08T07:47:31Z</time>
      </trkpt>
      <trkpt lat="41.7118" lon="-1.66017">
        <ele>975.42</ele>
        <time>2013-05-08T07:47:16Z</time>
      </trkpt>
      <trkpt lat="41.71185" lon="-1.66003">
        <ele>973.587</ele>
        <time>2013-05-08T07:47:03Z</time>
      </trkpt>
      <trkpt lat="41.71192" lon="-1.65987">
        <ele>971.115</ele>
        <time>2013-05-08T07:46:49Z</time>
      </trkpt>
      <trkpt lat="41.712" lon="-1.6597">
        <ele>969.698</ele>
        <time>2013-05-08T07:46:34Z</time>
      </trkpt>
      <trkpt lat="41.71208" lon="-1.65954">
        <ele>967.727</ele>
        <time>2013-05-08T07:46:19Z</time>
      </trkpt>
      <trkpt lat="41.71216" lon="-1.6594">
        <ele>966.368</ele>
        <time>2013-05-08T07:46:07Z</time>
      </trkpt>
      <trkpt lat="41.71226" lon="-1.65925">
        <ele>964.814</ele>
        <time>2013-05-08T07:45:52Z</time>
      </trkpt>
      <trkpt lat="41.71236" lon="-1.65909">
        <ele>963.408</ele>
        <time>2013-05-08T07:45:37Z</time>
      </trkpt>
      <trkpt lat="41.71244" lon="-1.65894">
        <ele>961.583</ele>
        <time>2013-05-08T07:45:24Z</time>
      </trkpt>
      <trkpt lat="41.71254" lon="-1.65878">
        <ele>959.574</ele>
        <time>2013-05-08T07:45:08Z</time>
      </trkpt>
      <trkpt lat="41.71263" lon="-1.65862">
        <ele>958.116</ele>
        <time>2013-05-08T07:44:53Z</time>
      </trkpt>
      <trkpt lat="41.71272" lon="-1.65847">
        <ele>957.181</ele>
        <time>2013-05-08T07:44:40Z</time>
      </trkpt>
      <trkpt lat="41.71277" lon="-1.6584">
        <ele>956.218</ele>
        <time>2013-05-08T07:44:34Z</time>
      </trkpt>
      <trkpt lat="41.71287" lon="-1.65825">
        <ele>955.275</ele>
        <time>2013-05-08T07:44:20Z</time>
      </trkpt>
      <trkpt lat="41.71292" lon="-1.65814">
        <ele>955.263</ele>
        <time>2013-05-08T07:44:06Z</time>
      </trkpt>
      <trkpt lat="41.71293" lon="-1.65812">
        <ele>955.286</ele>
        <time>2013-05-08T07:43:45Z</time>
      </trkpt>
      <trkpt lat="41.71293" lon="-1.65812">
        <ele>955.281</ele>
        <time>2013-05-08T07:42:56Z</time>
      </trkpt>
      <trkpt lat="41.71294" lon="-1.65814">
        <ele>954.361</ele>
        <time>2013-05-08T07:42:10Z</time>
      </trkpt>
      <trkpt lat="41.71293" lon="-1.65814">
        <ele>954.317</ele>
        <time>2013-05-08T07:41:20Z</time>
      </trkpt>
      <trkpt lat="41.71294" lon="-1.65813">
        <ele>954.308</ele>
        <time>2013-05-08T07:40:49Z</time>
      </trkpt>
      <trkpt lat="41.71294" lon="-1.65814">
        <ele>954.329</ele>
        <time>2013-05-08T07:40:01Z</time>
      </trkpt>
      <trkpt lat="41.71294" lon="-1.65812">
        <ele>954.77</ele>
        <time>2013-05-08T07:39:51Z</time>
      </trkpt>
      <trkpt lat="41.71306" lon="-1.65791">
        <ele>953.872</ele>
        <time>2013-05-08T07:39:36Z</time>
      </trkpt>
      <trkpt lat="41.71314" lon="-1.65774">
        <ele>952.397</ele>
        <time>2013-05-08T07:39:24Z</time>
      </trkpt>
      <trkpt lat="41.71325" lon="-1.65757">
        <ele>950.994</ele>
        <time>2013-05-08T07:39:09Z</time>
      </trkpt>
      <trkpt lat="41.71333" lon="-1.65742">
        <ele>949.441</ele>
        <time>2013-05-08T07:38:56Z</time>
      </trkpt>
      <trkpt lat="41.71342" lon="-1.65728">
        <ele>948.049</ele>
        <time>2013-05-08T07:38:43Z</time>
      </trkpt>
      <trkpt lat="41.71351" lon="-1.6571">
        <ele>945.152</ele>
        <time>2013-05-08T07:38:28Z</time>
      </trkpt>
      <trkpt lat="41.71358" lon="-1.65693">
        <ele>943.735</ele>
        <time>2013-05-08T07:38:16Z</time>
      </trkpt>
      <trkpt lat="41.71365" lon="-1.65671">
        <ele>941.886</ele>
        <time>2013-05-08T07:38:00Z</time>
      </trkpt>
      <trkpt lat="41.71373" lon="-1.6565">
        <ele>940.314</ele>
        <time>2013-05-08T07:37:45Z</time>
      </trkpt>
      <trkpt lat="41.71383" lon="-1.65628">
        <ele>938.408</ele>
        <time>2013-05-08T07:37:29Z</time>
      </trkpt>
      <trkpt lat="41.71393" lon="-1.65607">
        <ele>936.024</ele>
        <time>2013-05-08T07:37:14Z</time>
      </trkpt>
      <trkpt lat="41.71404" lon="-1.65592">
        <ele>934.525</ele>
        <time>2013-05-08T07:37:01Z</time>
      </trkpt>
      <trkpt lat="41.71408" lon="-1.65585">
        <ele>933.677</ele>
        <time>2013-05-08T07:36:56Z</time>
      </trkpt>
      <trkpt lat="41.71413" lon="-1.65577">
        <ele>933.692</ele>
        <time>2013-05-08T07:36:50Z</time>
      </trkpt>
      <trkpt lat="41.71417" lon="-1.65571">
        <ele>932.629</ele>
        <time>2013-05-08T07:36:45Z</time>
      </trkpt>
      <trkpt lat="41.71425" lon="-1.65555">
        <ele>931.286</ele>
        <time>2013-05-08T07:36:33Z</time>
      </trkpt>
      <trkpt lat="41.71434" lon="-1.65537">
        <ele>929.754</ele>
        <time>2013-05-08T07:36:20Z</time>
      </trkpt>
      <trkpt lat="41.71446" lon="-1.65513">
        <ele>927.867</ele>
        <time>2013-05-08T07:36:03Z</time>
      </trkpt>
      <trkpt lat="41.71456" lon="-1.65496">
        <ele>925.969</ele>
        <time>2013-05-08T07:35:48Z</time>
      </trkpt>
      <trkpt lat="41.71465" lon="-1.65476">
        <ele>924.004</ele>
        <time>2013-05-08T07:35:34Z</time>
      </trkpt>
      <trkpt lat="41.71471" lon="-1.65466">
        <ele>923.024</ele>
        <time>2013-05-08T07:35:26Z</time>
      </trkpt>
      <trkpt lat="41.71472" lon="-1.65465">
        <ele>922.508</ele>
        <time>2013-05-08T07:35:25Z</time>
      </trkpt>
      <trkpt lat="41.7148" lon="-1.6545">
        <ele>921.167</ele>
        <time>2013-05-08T07:35:12Z</time>
      </trkpt>
      <trkpt lat="41.71491" lon="-1.65432">
        <ele>918.758</ele>
        <time>2013-05-08T07:34:57Z</time>
      </trkpt>
      <trkpt lat="41.71505" lon="-1.65411">
        <ele>916.83</ele>
        <time>2013-05-08T07:34:41Z</time>
      </trkpt>
      <trkpt lat="41.71509" lon="-1.65401">
        <ele>916.385</ele>
        <time>2013-05-08T07:34:34Z</time>
      </trkpt>
      <trkpt lat="41.71519" lon="-1.65385">
        <ele>915.342</ele>
        <time>2013-05-08T07:34:22Z</time>
      </trkpt>
      <trkpt lat="41.71523" lon="-1.65375">
        <ele>914.879</ele>
        <time>2013-05-08T07:34:13Z</time>
      </trkpt>
      <trkpt lat="41.71521" lon="-1.65375">
        <ele>914.817</ele>
        <time>2013-05-08T07:33:44Z</time>
      </trkpt>
      <trkpt lat="41.71523" lon="-1.65371">
        <ele>914.42</ele>
        <time>2013-05-08T07:33:33Z</time>
      </trkpt>
      <trkpt lat="41.71526" lon="-1.65365">
        <ele>914.456</ele>
        <time>2013-05-08T07:33:30Z</time>
      </trkpt>
      <trkpt lat="41.71546" lon="-1.65343">
        <ele>913.959</ele>
        <time>2013-05-08T07:33:14Z</time>
      </trkpt>
      <trkpt lat="41.71558" lon="-1.65333">
        <ele>913.414</ele>
        <time>2013-05-08T07:33:04Z</time>
      </trkpt>
      <trkpt lat="41.71571" lon="-1.65322">
        <ele>912.408</ele>
        <time>2013-05-08T07:32:52Z</time>
      </trkpt>
      <trkpt lat="41.71585" lon="-1.6531">
        <ele>912.046</ele>
        <time>2013-05-08T07:32:39Z</time>
      </trkpt>
      <trkpt lat="41.71589" lon="-1.65308">
        <ele>911.527</ele>
        <time>2013-05-08T07:32:35Z</time>
      </trkpt>
      <trkpt lat="41.71596" lon="-1.65315">
        <ele>911.029</ele>
        <time>2013-05-08T07:32:27Z</time>
      </trkpt>
      <trkpt lat="41.71594" lon="-1.65338">
        <ele>909.514</ele>
        <time>2013-05-08T07:32:12Z</time>
      </trkpt>
      <trkpt lat="41.7159" lon="-1.65359">
        <ele>907.661</ele>
        <time>2013-05-08T07:31:57Z</time>
      </trkpt>
      <trkpt lat="41.7159" lon="-1.65361">
        <ele>907.188</ele>
        <time>2013-05-08T07:31:55Z</time>
      </trkpt>
      <trkpt lat="41.71588" lon="-1.65377">
        <ele>905.776</ele>
        <time>2013-05-08T07:31:43Z</time>
      </trkpt>
      <trkpt lat="41.71585" lon="-1.65392">
        <ele>904.389</ele>
        <time>2013-05-08T07:31:30Z</time>
      </trkpt>
      <trkpt lat="41.71585" lon="-1.65406">
        <ele>901.967</ele>
        <time>2013-05-08T07:31:17Z</time>
      </trkpt>
      <trkpt lat="41.71586" lon="-1.6542">
        <ele>899.981</ele>
        <time>2013-05-08T07:31:04Z</time>
      </trkpt>
      <trkpt lat="41.71587" lon="-1.65437">
        <ele>897.519</ele>
        <time>2013-05-08T07:30:50Z</time>
      </trkpt>
      <trkpt lat="41.71586" lon="-1.65453">
        <ele>896.608</ele>
        <time>2013-05-08T07:30:37Z</time>
      </trkpt>
      <trkpt lat="41.71586" lon="-1.65465">
        <ele>894.617</ele>
        <time>2013-05-08T07:30:27Z</time>
      </trkpt>
      <trkpt lat="41.71586" lon="-1.6547">
        <ele>894.268</ele>
        <time>2013-05-08T07:30:23Z</time>
      </trkpt>
      <trkpt lat="41.71589" lon="-1.65483">
        <ele>891.81</ele>
        <time>2013-05-08T07:30:10Z</time>
      </trkpt>
      <trkpt lat="41.71592" lon="-1.65495">
        <ele>890.395</ele>
        <time>2013-05-08T07:29:59Z</time>
      </trkpt>
      <trkpt lat="41.71598" lon="-1.65511">
        <ele>887.492</ele>
        <time>2013-05-08T07:29:44Z</time>
      </trkpt>
      <trkpt lat="41.71604" lon="-1.65527">
        <ele>885.079</ele>
        <time>2013-05-08T07:29:30Z</time>
      </trkpt>
      <trkpt lat="41.71609" lon="-1.65542">
        <ele>882.617</ele>
        <time>2013-05-08T07:29:19Z</time>
      </trkpt>
      <trkpt lat="41.7161" lon="-1.65544">
        <ele>881.79</ele>
        <time>2013-05-08T07:29:18Z</time>
      </trkpt>
      <trkpt lat="41.71612" lon="-1.65548">
        <ele>881.793</ele>
        <time>2013-05-08T07:29:17Z</time>
      </trkpt>
      <trkpt lat="41.71614" lon="-1.65553">
        <ele>881.765</ele>
        <time>2013-05-08T07:29:16Z</time>
      </trkpt>
      <trkpt lat="41.71618" lon="-1.65559">
        <ele>881.721</ele>
        <time>2013-05-08T07:29:15Z</time>
      </trkpt>
      <trkpt lat="41.71623" lon="-1.65565">
        <ele>881.708</ele>
        <time>2013-05-08T07:29:14Z</time>
      </trkpt>
      <trkpt lat="41.71628" lon="-1.6557">
        <ele>882.26</ele>
        <time>2013-05-08T07:29:13Z</time>
      </trkpt>
      <trkpt lat="41.71641" lon="-1.65577">
        <ele>883.661</ele>
        <time>2013-05-08T07:29:11Z</time>
      </trkpt>
      <trkpt lat="41.71648" lon="-1.6558">
        <ele>883.653</ele>
        <time>2013-05-08T07:29:10Z</time>
      </trkpt>
      <trkpt lat="41.71678" lon="-1.65586">
        <ele>886.598</ele>
        <time>2013-05-08T07:29:06Z</time>
      </trkpt>
      <trkpt lat="41.71713" lon="-1.65589">
        <ele>890.395</ele>
        <time>2013-05-08T07:29:01Z</time>
      </trkpt>
      <trkpt lat="41.71724" lon="-1.65589">
        <ele>890.822</ele>
        <time>2013-05-08T07:28:59Z</time>
      </trkpt>
      <trkpt lat="41.7173" lon="-1.65589">
        <ele>891.39</ele>
        <time>2013-05-08T07:28:58Z</time>
      </trkpt>
      <trkpt lat="41.71742" lon="-1.65593">
        <ele>893.713</ele>
        <time>2013-05-08T07:28:56Z</time>
      </trkpt>
      <trkpt lat="41.71769" lon="-1.65602">
        <ele>897.155</ele>
        <time>2013-05-08T07:28:52Z</time>
      </trkpt>
      <trkpt lat="41.71776" lon="-1.65603">
        <ele>897.507</ele>
        <time>2013-05-08T07:28:51Z</time>
      </trkpt>
      <trkpt lat="41.7179" lon="-1.65601">
        <ele>899.017</ele>
        <time>2013-05-08T07:28:49Z</time>
      </trkpt>
      <trkpt lat="41.71819" lon="-1.65602">
        <ele>902.808</ele>
        <time>2013-05-08T07:28:45Z</time>
      </trkpt>
      <trkpt lat="41.7185" lon="-1.65608">
        <ele>906.256</ele>
        <time>2013-05-08T07:28:38Z</time>
      </trkpt>
      <trkpt lat="41.71868" lon="-1.65617">
        <ele>908.677</ele>
        <time>2013-05-08T07:28:26Z</time>
      </trkpt>
      <trkpt lat="41.71876" lon="-1.65621">
        <ele>907.689</ele>
        <time>2013-05-08T07:28:16Z</time>
      </trkpt>
      <trkpt lat="41.71877" lon="-1.65621">
        <ele>907.164</ele>
        <time>2013-05-08T07:28:15Z</time>
      </trkpt>
      <trkpt lat="41.71888" lon="-1.65623">
        <ele>905.721</ele>
        <time>2013-05-08T07:28:03Z</time>
      </trkpt>
      <trkpt lat="41.71903" lon="-1.65627">
        <ele>903.888</ele>
        <time>2013-05-08T07:27:47Z</time>
      </trkpt>
      <trkpt lat="41.71918" lon="-1.6563">
        <ele>901.486</ele>
        <time>2013-05-08T07:27:31Z</time>
      </trkpt>
      <trkpt lat="41.71929" lon="-1.65633">
        <ele>899.559</ele>
        <time>2013-05-08T07:27:19Z</time>
      </trkpt>
      <trkpt lat="41.71944" lon="-1.65637">
        <ele>897.156</ele>
        <time>2013-05-08T07:27:03Z</time>
      </trkpt>
      <trkpt lat="41.71956" lon="-1.65639">
        <ele>894.659</ele>
        <time>2013-05-08T07:26:51Z</time>
      </trkpt>
      <trkpt lat="41.71969" lon="-1.65644">
        <ele>892.214</ele>
        <time>2013-05-08T07:26:39Z</time>
      </trkpt>
      <trkpt lat="41.71981" lon="-1.6566">
        <ele>890.308</ele>
        <time>2013-05-08T07:26:25Z</time>
      </trkpt>
      <trkpt lat="41.72001" lon="-1.65659">
        <ele>888.966</ele>
        <time>2013-05-08T07:26:12Z</time>
      </trkpt>
      <trkpt lat="41.72025" lon="-1.65652">
        <ele>887.447</ele>
        <time>2013-05-08T07:25:57Z</time>
      </trkpt>
      <trkpt lat="41.72048" lon="-1.65641">
        <ele>886.029</ele>
        <time>2013-05-08T07:25:43Z</time>
      </trkpt>
      <trkpt lat="41.72063" lon="-1.65634">
        <ele>885.084</ele>
        <time>2013-05-08T07:25:34Z</time>
      </trkpt>
      <trkpt lat="41.72066" lon="-1.65633">
        <ele>885.011</ele>
        <time>2013-05-08T07:25:33Z</time>
      </trkpt>
      <trkpt lat="41.72069" lon="-1.65632">
        <ele>885.028</ele>
        <time>2013-05-08T07:25:32Z</time>
      </trkpt>
      <trkpt lat="41.72072" lon="-1.6563">
        <ele>885.066</ele>
        <time>2013-05-08T07:25:31Z</time>
      </trkpt>
      <trkpt lat="41.72076" lon="-1.65629">
        <ele>885.039</ele>
        <time>2013-05-08T07:25:30Z</time>
      </trkpt>
      <trkpt lat="41.72081" lon="-1.65627">
        <ele>885.036</ele>
        <time>2013-05-08T07:25:29Z</time>
      </trkpt>
      <trkpt lat="41.72086" lon="-1.65625">
        <ele>885.517</ele>
        <time>2013-05-08T07:25:28Z</time>
      </trkpt>
      <trkpt lat="41.7209" lon="-1.65623">
        <ele>885.518</ele>
        <time>2013-05-08T07:25:27Z</time>
      </trkpt>
      <trkpt lat="41.7211" lon="-1.6562">
        <ele>886.008</ele>
        <time>2013-05-08T07:25:23Z</time>
      </trkpt>
      <trkpt lat="41.72114" lon="-1.65621">
        <ele>886.594</ele>
        <time>2013-05-08T07:25:22Z</time>
      </trkpt>
      <trkpt lat="41.72119" lon="-1.65622">
        <ele>886.585</ele>
        <time>2013-05-08T07:25:21Z</time>
      </trkpt>
      <trkpt lat="41.72131" lon="-1.6563">
        <ele>887.937</ele>
        <time>2013-05-08T07:25:17Z</time>
      </trkpt>
      <trkpt lat="41.72139" lon="-1.65639">
        <ele>889.452</ele>
        <time>2013-05-08T07:25:13Z</time>
      </trkpt>
      <trkpt lat="41.72141" lon="-1.65641">
        <ele>889.499</ele>
        <time>2013-05-08T07:25:12Z</time>
      </trkpt>
      <trkpt lat="41.72143" lon="-1.65643">
        <ele>889.486</ele>
        <time>2013-05-08T07:25:11Z</time>
      </trkpt>
      <trkpt lat="41.72145" lon="-1.65645">
        <ele>889.444</ele>
        <time>2013-05-08T07:25:10Z</time>
      </trkpt>
      <trkpt lat="41.72146" lon="-1.65646">
        <ele>889.427</ele>
        <time>2013-05-08T07:25:09Z</time>
      </trkpt>
      <trkpt lat="41.72147" lon="-1.65648">
        <ele>889.467</ele>
        <time>2013-05-08T07:25:08Z</time>
      </trkpt>
      <trkpt lat="41.72147" lon="-1.6565">
        <ele>889.481</ele>
        <time>2013-05-08T07:25:07Z</time>
      </trkpt>
      <trkpt lat="41.72152" lon="-1.65658">
        <ele>889.419</ele>
        <time>2013-05-08T07:25:01Z</time>
      </trkpt>
      <trkpt lat="41.72153" lon="-1.65659">
        <ele>889.408</ele>
        <time>2013-05-08T07:25:00Z</time>
      </trkpt>
      <trkpt lat="41.72154" lon="-1.6566">
        <ele>888.967</ele>
        <time>2013-05-08T07:24:59Z</time>
      </trkpt>
      <trkpt lat="41.72161" lon="-1.65681">
        <ele>887.478</ele>
        <time>2013-05-08T07:24:43Z</time>
      </trkpt>
      <trkpt lat="41.72165" lon="-1.65701">
        <ele>885.57</ele>
        <time>2013-05-08T07:24:29Z</time>
      </trkpt>
      <trkpt lat="41.7217" lon="-1.6572">
        <ele>884.175</ele>
        <time>2013-05-08T07:24:14Z</time>
      </trkpt>
      <trkpt lat="41.72177" lon="-1.65738">
        <ele>881.762</ele>
        <time>2013-05-08T07:23:59Z</time>
      </trkpt>
      <trkpt lat="41.72184" lon="-1.65755">
        <ele>879.379</ele>
        <time>2013-05-08T07:23:45Z</time>
      </trkpt>
      <trkpt lat="41.72192" lon="-1.65773">
        <ele>877.377</ele>
        <time>2013-05-08T07:23:30Z</time>
      </trkpt>
      <trkpt lat="41.722" lon="-1.65794">
        <ele>875.41</ele>
        <time>2013-05-08T07:23:14Z</time>
      </trkpt>
      <trkpt lat="41.72208" lon="-1.65813">
        <ele>873.559</ele>
        <time>2013-05-08T07:22:58Z</time>
      </trkpt>
      <trkpt lat="41.72214" lon="-1.65831">
        <ele>871.603</ele>
        <time>2013-05-08T07:22:44Z</time>
      </trkpt>
      <trkpt lat="41.72213" lon="-1.65868">
        <ele>869.723</ele>
        <time>2013-05-08T07:22:25Z</time>
      </trkpt>
      <trkpt lat="41.72207" lon="-1.65894">
        <ele>867.708</ele>
        <time>2013-05-08T07:22:10Z</time>
      </trkpt>
      <trkpt lat="41.72198" lon="-1.65922">
        <ele>866.386</ele>
        <time>2013-05-08T07:21:57Z</time>
      </trkpt>
      <trkpt lat="41.72198" lon="-1.65948">
        <ele>865.357</ele>
        <time>2013-05-08T07:21:46Z</time>
      </trkpt>
      <trkpt lat="41.72217" lon="-1.65957">
        <ele>864.459</ele>
        <time>2013-05-08T07:21:36Z</time>
      </trkpt>
      <trkpt lat="41.72243" lon="-1.65944">
        <ele>863.494</ele>
        <time>2013-05-08T07:21:28Z</time>
      </trkpt>
      <trkpt lat="41.72248" lon="-1.65941">
        <ele>863.491</ele>
        <time>2013-05-08T07:21:27Z</time>
      </trkpt>
      <trkpt lat="41.72253" lon="-1.65939">
        <ele>863.458</ele>
        <time>2013-05-08T07:21:26Z</time>
      </trkpt>
      <trkpt lat="41.72259" lon="-1.65937">
        <ele>863.426</ele>
        <time>2013-05-08T07:21:25Z</time>
      </trkpt>
      <trkpt lat="41.72266" lon="-1.65936">
        <ele>863.429</ele>
        <time>2013-05-08T07:21:24Z</time>
      </trkpt>
      <trkpt lat="41.72272" lon="-1.65935">
        <ele>863.996</ele>
        <time>2013-05-08T07:21:23Z</time>
      </trkpt>
      <trkpt lat="41.72279" lon="-1.65935">
        <ele>863.431</ele>
        <time>2013-05-08T07:21:22Z</time>
      </trkpt>
      <trkpt lat="41.72297" lon="-1.65939">
        <ele>864.824</ele>
        <time>2013-05-08T07:21:19Z</time>
      </trkpt>
      <trkpt lat="41.72319" lon="-1.65948">
        <ele>866.308</ele>
        <time>2013-05-08T07:21:15Z</time>
      </trkpt>
      <trkpt lat="41.7235" lon="-1.65967">
        <ele>869.29</ele>
        <time>2013-05-08T07:21:08Z</time>
      </trkpt>
      <trkpt lat="41.72368" lon="-1.65978">
        <ele>872.141</ele>
        <time>2013-05-08T07:21:01Z</time>
      </trkpt>
      <trkpt lat="41.72375" lon="-1.65983">
        <ele>873.023</ele>
        <time>2013-05-08T07:20:57Z</time>
      </trkpt>
      <trkpt lat="41.72384" lon="-1.6599">
        <ele>873.018</ele>
        <time>2013-05-08T07:20:18Z</time>
      </trkpt>
      <trkpt lat="41.72385" lon="-1.65991">
        <ele>873.055</ele>
        <time>2013-05-08T07:20:03Z</time>
      </trkpt>
      <trkpt lat="41.72384" lon="-1.65991">
        <ele>873.052</ele>
        <time>2013-05-08T07:19:41Z</time>
      </trkpt>
      <trkpt lat="41.72391" lon="-1.65999">
        <ele>873.08</ele>
        <time>2013-05-08T07:19:29Z</time>
      </trkpt>
      <trkpt lat="41.72392" lon="-1.66">
        <ele>873.023</ele>
        <time>2013-05-08T07:19:28Z</time>
      </trkpt>
      <trkpt lat="41.72393" lon="-1.66001">
        <ele>873.029</ele>
        <time>2013-05-08T07:19:27Z</time>
      </trkpt>
      <trkpt lat="41.72397" lon="-1.66007">
        <ele>871.6</ele>
        <time>2013-05-08T07:19:22Z</time>
      </trkpt>
      <trkpt lat="41.72406" lon="-1.66024">
        <ele>870.12</ele>
        <time>2013-05-08T07:19:10Z</time>
      </trkpt>
      <trkpt lat="41.72422" lon="-1.66045">
        <ele>869.708</ele>
        <time>2013-05-08T07:18:57Z</time>
      </trkpt>
      <trkpt lat="41.7244" lon="-1.66053">
        <ele>869.233</ele>
        <time>2013-05-08T07:18:45Z</time>
      </trkpt>
      <trkpt lat="41.72458" lon="-1.66057">
        <ele>867.724</ele>
        <time>2013-05-08T07:18:31Z</time>
      </trkpt>
      <trkpt lat="41.72478" lon="-1.66054">
        <ele>866.376</ele>
        <time>2013-05-08T07:18:15Z</time>
      </trkpt>
      <trkpt lat="41.72495" lon="-1.6605">
        <ele>864.821</ele>
        <time>2013-05-08T07:18:00Z</time>
      </trkpt>
      <trkpt lat="41.72509" lon="-1.66057">
        <ele>863.918</ele>
        <time>2013-05-08T07:17:47Z</time>
      </trkpt>
      <trkpt lat="41.72518" lon="-1.66079">
        <ele>862.065</ele>
        <time>2013-05-08T07:17:31Z</time>
      </trkpt>
      <trkpt lat="41.72525" lon="-1.66097">
        <ele>860.513</ele>
        <time>2013-05-08T07:17:17Z</time>
      </trkpt>
      <trkpt lat="41.72532" lon="-1.66117">
        <ele>858.666</ele>
        <time>2013-05-08T07:17:03Z</time>
      </trkpt>
      <trkpt lat="41.72536" lon="-1.66138">
        <ele>857.252</ele>
        <time>2013-05-08T07:16:50Z</time>
      </trkpt>
      <trkpt lat="41.72536" lon="-1.66139">
        <ele>857.253</ele>
        <time>2013-05-08T07:16:49Z</time>
      </trkpt>
      <trkpt lat="41.72538" lon="-1.66147">
        <ele>856.708</ele>
        <time>2013-05-08T07:16:44Z</time>
      </trkpt>
      <trkpt lat="41.72548" lon="-1.66168">
        <ele>855.208</ele>
        <time>2013-05-08T07:16:30Z</time>
      </trkpt>
      <trkpt lat="41.72562" lon="-1.66184">
        <ele>854.356</ele>
        <time>2013-05-08T07:16:16Z</time>
      </trkpt>
      <trkpt lat="41.7257" lon="-1.66198">
        <ele>852.817</ele>
        <time>2013-05-08T07:16:04Z</time>
      </trkpt>
      <trkpt lat="41.72582" lon="-1.66219">
        <ele>851.919</ele>
        <time>2013-05-08T07:15:51Z</time>
      </trkpt>
      <trkpt lat="41.7259" lon="-1.66246">
        <ele>851.484</ele>
        <time>2013-05-08T07:15:38Z</time>
      </trkpt>
      <trkpt lat="41.72597" lon="-1.6627">
        <ele>849.991</ele>
        <time>2013-05-08T07:15:23Z</time>
      </trkpt>
      <trkpt lat="41.72598" lon="-1.66272">
        <ele>849.988</ele>
        <time>2013-05-08T07:15:22Z</time>
      </trkpt>
      <trkpt lat="41.72598" lon="-1.66273">
        <ele>849.936</ele>
        <time>2013-05-08T07:15:21Z</time>
      </trkpt>
      <trkpt lat="41.72598" lon="-1.66275">
        <ele>849.929</ele>
        <time>2013-05-08T07:15:20Z</time>
      </trkpt>
      <trkpt lat="41.72599" lon="-1.66276">
        <ele>849.538</ele>
        <time>2013-05-08T07:15:19Z</time>
      </trkpt>
      <trkpt lat="41.72599" lon="-1.66278">
        <ele>849.57</ele>
        <time>2013-05-08T07:15:18Z</time>
      </trkpt>
      <trkpt lat="41.726" lon="-1.66279">
        <ele>849.517</ele>
        <time>2013-05-08T07:15:17Z</time>
      </trkpt>
      <trkpt lat="41.72601" lon="-1.66281">
        <ele>849.008</ele>
        <time>2013-05-08T07:15:16Z</time>
      </trkpt>
      <trkpt lat="41.72602" lon="-1.66283">
        <ele>849.084</ele>
        <time>2013-05-08T07:15:15Z</time>
      </trkpt>
      <trkpt lat="41.72603" lon="-1.66293">
        <ele>848.535</ele>
        <time>2013-05-08T07:15:08Z</time>
      </trkpt>
      <trkpt lat="41.72608" lon="-1.66313">
        <ele>846.657</ele>
        <time>2013-05-08T07:14:54Z</time>
      </trkpt>
      <trkpt lat="41.72616" lon="-1.66334">
        <ele>845.152</ele>
        <time>2013-05-08T07:14:40Z</time>
      </trkpt>
      <trkpt lat="41.72608" lon="-1.66355">
        <ele>844.239</ele>
        <time>2013-05-08T07:14:26Z</time>
      </trkpt>
      <trkpt lat="41.72607" lon="-1.66357">
        <ele>843.766</ele>
        <time>2013-05-08T07:14:25Z</time>
      </trkpt>
      <trkpt lat="41.72606" lon="-1.66358">
        <ele>843.774</ele>
        <time>2013-05-08T07:14:24Z</time>
      </trkpt>
      <trkpt lat="41.72605" lon="-1.66359">
        <ele>843.747</ele>
        <time>2013-05-08T07:14:23Z</time>
      </trkpt>
      <trkpt lat="41.72604" lon="-1.6636">
        <ele>843.794</ele>
        <time>2013-05-08T07:14:22Z</time>
      </trkpt>
      <trkpt lat="41.72603" lon="-1.66361">
        <ele>843.757</ele>
        <time>2013-05-08T07:14:21Z</time>
      </trkpt>
      <trkpt lat="41.72602" lon="-1.66361">
        <ele>843.222</ele>
        <time>2013-05-08T07:14:20Z</time>
      </trkpt>
      <trkpt lat="41.72601" lon="-1.66361">
        <ele>843.208</ele>
        <time>2013-05-08T07:14:19Z</time>
      </trkpt>
      <trkpt lat="41.72599" lon="-1.66362">
        <ele>843.28</ele>
        <time>2013-05-08T07:14:17Z</time>
      </trkpt>
      <trkpt lat="41.72595" lon="-1.66364">
        <ele>842.351</ele>
        <time>2013-05-08T07:14:12Z</time>
      </trkpt>
      <trkpt lat="41.72586" lon="-1.66368">
        <ele>839.953</ele>
        <time>2013-05-08T07:14:04Z</time>
      </trkpt>
      <trkpt lat="41.72585" lon="-1.66369">
        <ele>839.928</ele>
        <time>2013-05-08T07:14:03Z</time>
      </trkpt>
      <trkpt lat="41.72584" lon="-1.6637">
        <ele>840.325</ele>
        <time>2013-05-08T07:14:02Z</time>
      </trkpt>
      <trkpt lat="41.72583" lon="-1.66371">
        <ele>838.482</ele>
        <time>2013-05-08T07:14:01Z</time>
      </trkpt>
      <trkpt lat="41.72581" lon="-1.66371">
        <ele>838.93</ele>
        <time>2013-05-08T07:14:00Z</time>
      </trkpt>
      <trkpt lat="41.72579" lon="-1.66373">
        <ele>838.493</ele>
        <time>2013-05-08T07:13:59Z</time>
      </trkpt>
      <trkpt lat="41.72567" lon="-1.66386">
        <ele>839.425</ele>
        <time>2013-05-08T07:13:56Z</time>
      </trkpt>
      <trkpt lat="41.72565" lon="-1.66391">
        <ele>839.426</ele>
        <time>2013-05-08T07:13:55Z</time>
      </trkpt>
      <trkpt lat="41.72563" lon="-1.66397">
        <ele>840.308</ele>
        <time>2013-05-08T07:13:54Z</time>
      </trkpt>
      <trkpt lat="41.72564" lon="-1.66403">
        <ele>841.308</ele>
        <time>2013-05-08T07:13:53Z</time>
      </trkpt>
      <trkpt lat="41.72572" lon="-1.66413">
        <ele>842.783</ele>
        <time>2013-05-08T07:13:50Z</time>
      </trkpt>
      <trkpt lat="41.72591" lon="-1.66426">
        <ele>846.154</ele>
        <time>2013-05-08T07:13:45Z</time>
      </trkpt>
      <trkpt lat="41.72616" lon="-1.6646">
        <ele>849.946</ele>
        <time>2013-05-08T07:13:38Z</time>
      </trkpt>
      <trkpt lat="41.72625" lon="-1.66497">
        <ele>853.351</ele>
        <time>2013-05-08T07:13:33Z</time>
      </trkpt>
      <trkpt lat="41.72639" lon="-1.66561">
        <ele>856.798</ele>
        <time>2013-05-08T07:13:25Z</time>
      </trkpt>
      <trkpt lat="41.72656" lon="-1.66652">
        <ele>860.075</ele>
        <time>2013-05-08T07:13:14Z</time>
      </trkpt>
      <trkpt lat="41.72657" lon="-1.66667">
        <ele>861.033</ele>
        <time>2013-05-08T07:13:12Z</time>
      </trkpt>
      <trkpt lat="41.72657" lon="-1.66718">
        <ele>863.486</ele>
        <time>2013-05-08T07:13:04Z</time>
      </trkpt>
      <trkpt lat="41.72638" lon="-1.66734">
        <ele>865.349</ele>
        <time>2013-05-08T07:12:58Z</time>
      </trkpt>
      <trkpt lat="41.72621" lon="-1.66737">
        <ele>866.802</ele>
        <time>2013-05-08T07:12:54Z</time>
      </trkpt>
      <trkpt lat="41.72607" lon="-1.66745">
        <ele>868.222</ele>
        <time>2013-05-08T07:12:51Z</time>
      </trkpt>
      <trkpt lat="41.72597" lon="-1.66761">
        <ele>869.708</ele>
        <time>2013-05-08T07:12:48Z</time>
      </trkpt>
      <trkpt lat="41.72593" lon="-1.66774">
        <ele>871.175</ele>
        <time>2013-05-08T07:12:46Z</time>
      </trkpt>
      <trkpt lat="41.7259" lon="-1.66799">
        <ele>872.526</ele>
        <time>2013-05-08T07:12:42Z</time>
      </trkpt>
      <trkpt lat="41.72593" lon="-1.66815">
        <ele>872.548</ele>
        <time>2013-05-08T07:12:38Z</time>
      </trkpt>
      <trkpt lat="41.72594" lon="-1.66818">
        <ele>872.543</ele>
        <time>2013-05-08T07:12:37Z</time>
      </trkpt>
      <trkpt lat="41.72634" lon="-1.66857">
        <ele>872.12</ele>
        <time>2013-05-08T07:12:28Z</time>
      </trkpt>
      <trkpt lat="41.72652" lon="-1.66906">
        <ele>874.567</ele>
        <time>2013-05-08T07:12:21Z</time>
      </trkpt>
      <trkpt lat="41.72653" lon="-1.66951">
        <ele>876.995</ele>
        <time>2013-05-08T07:12:15Z</time>
      </trkpt>
      <trkpt lat="41.72653" lon="-1.6696">
        <ele>877.828</ele>
        <time>2013-05-08T07:12:14Z</time>
      </trkpt>
      <trkpt lat="41.72652" lon="-1.67004">
        <ele>881.219</ele>
        <time>2013-05-08T07:12:10Z</time>
      </trkpt>
      <trkpt lat="41.72651" lon="-1.67063">
        <ele>884.109</ele>
        <time>2013-05-08T07:12:05Z</time>
      </trkpt>
      <trkpt lat="41.72643" lon="-1.67129">
        <ele>887.419</ele>
        <time>2013-05-08T07:11:58Z</time>
      </trkpt>
      <trkpt lat="41.72632" lon="-1.67182">
        <ele>890.808</ele>
        <time>2013-05-08T07:11:52Z</time>
      </trkpt>
      <trkpt lat="41.72613" lon="-1.67241">
        <ele>895.152</ele>
        <time>2013-05-08T07:11:44Z</time>
      </trkpt>
      <trkpt lat="41.72607" lon="-1.67254">
        <ele>896.613</ele>
        <time>2013-05-08T07:11:41Z</time>
      </trkpt>
      <trkpt lat="41.72611" lon="-1.67277">
        <ele>898.525</ele>
        <time>2013-05-08T07:11:35Z</time>
      </trkpt>
      <trkpt lat="41.72633" lon="-1.67276">
        <ele>898.06</ele>
        <time>2013-05-08T07:11:29Z</time>
      </trkpt>
      <trkpt lat="41.72685" lon="-1.67265">
        <ele>898.017</ele>
        <time>2013-05-08T07:11:17Z</time>
      </trkpt>
      <trkpt lat="41.72718" lon="-1.67254">
        <ele>898.524</ele>
        <time>2013-05-08T07:11:10Z</time>
      </trkpt>
      <trkpt lat="41.72748" lon="-1.67263">
        <ele>900.432</ele>
        <time>2013-05-08T07:11:03Z</time>
      </trkpt>
      <trkpt lat="41.72754" lon="-1.67274">
        <ele>900.925</ele>
        <time>2013-05-08T07:11:01Z</time>
      </trkpt>
      <trkpt lat="41.72773" lon="-1.67327">
        <ele>904.374</ele>
        <time>2013-05-08T07:10:52Z</time>
      </trkpt>
      <trkpt lat="41.72784" lon="-1.67361">
        <ele>906.256</ele>
        <time>2013-05-08T07:10:42Z</time>
      </trkpt>
      <trkpt lat="41.72789" lon="-1.674">
        <ele>908.621</ele>
        <time>2013-05-08T07:10:35Z</time>
      </trkpt>
      <trkpt lat="41.72787" lon="-1.67456">
        <ele>912.408</ele>
        <time>2013-05-08T07:10:28Z</time>
      </trkpt>
      <trkpt lat="41.72782" lon="-1.67477">
        <ele>913.468</ele>
        <time>2013-05-08T07:10:25Z</time>
      </trkpt>
      <trkpt lat="41.7277" lon="-1.67507">
        <ele>915.879</ele>
        <time>2013-05-08T07:10:20Z</time>
      </trkpt>
      <trkpt lat="41.72763" lon="-1.67521">
        <ele>917.241</ele>
        <time>2013-05-08T07:10:17Z</time>
      </trkpt>
      <trkpt lat="41.72757" lon="-1.67532">
        <ele>917.296</ele>
        <time>2013-05-08T07:10:03Z</time>
      </trkpt>
      <trkpt lat="41.72757" lon="-1.67534">
        <ele>917.233</ele>
        <time>2013-05-08T07:09:51Z</time>
      </trkpt>
      <trkpt lat="41.72753" lon="-1.67541">
        <ele>917.24</ele>
        <time>2013-05-08T07:09:46Z</time>
      </trkpt>
      <trkpt lat="41.72749" lon="-1.67563">
        <ele>916.368</ele>
        <time>2013-05-08T07:09:35Z</time>
      </trkpt>
      <trkpt lat="41.7274" lon="-1.67596">
        <ele>915.861</ele>
        <time>2013-05-08T07:09:22Z</time>
      </trkpt>
      <trkpt lat="41.72741" lon="-1.67633">
        <ele>912.916</ele>
        <time>2013-05-08T07:09:07Z</time>
      </trkpt>
      <trkpt lat="41.72742" lon="-1.67673">
        <ele>911.576</ele>
        <time>2013-05-08T07:08:55Z</time>
      </trkpt>
      <trkpt lat="41.72735" lon="-1.67738">
        <ele>911.513</ele>
        <time>2013-05-08T07:08:42Z</time>
      </trkpt>
      <trkpt lat="41.7273" lon="-1.67757">
        <ele>912.008</ele>
        <time>2013-05-08T07:08:38Z</time>
      </trkpt>
      <trkpt lat="41.72718" lon="-1.67814">
        <ele>912.912</ele>
        <time>2013-05-08T07:08:24Z</time>
      </trkpt>
      <trkpt lat="41.72714" lon="-1.67825">
        <ele>912.973</ele>
        <time>2013-05-08T07:08:18Z</time>
      </trkpt>
      <trkpt lat="41.72713" lon="-1.67826">
        <ele>912.945</ele>
        <time>2013-05-08T07:08:10Z</time>
      </trkpt>
      <trkpt lat="41.72715" lon="-1.67827">
        <ele>912.49</ele>
        <time>2013-05-08T07:07:51Z</time>
      </trkpt>
      <trkpt lat="41.72713" lon="-1.67829">
        <ele>912.497</ele>
        <time>2013-05-08T07:07:38Z</time>
      </trkpt>
      <trkpt lat="41.72714" lon="-1.67831">
        <ele>912.434</ele>
        <time>2013-05-08T07:06:42Z</time>
      </trkpt>
      <trkpt lat="41.72714" lon="-1.67833">
        <ele>912.452</ele>
        <time>2013-05-08T07:06:11Z</time>
      </trkpt>
      <trkpt lat="41.72715" lon="-1.6783">
        <ele>912.415</ele>
        <time>2013-05-08T07:05:40Z</time>
      </trkpt>
      <trkpt lat="41.72714" lon="-1.67831">
        <ele>912.429</ele>
        <time>2013-05-08T07:05:29Z</time>
      </trkpt>
      <trkpt lat="41.72708" lon="-1.67844">
        <ele>912.4</ele>
        <time>2013-05-08T07:05:18Z</time>
      </trkpt>
      <trkpt lat="41.72705" lon="-1.67849">
        <ele>912.42</ele>
        <time>2013-05-08T07:05:14Z</time>
      </trkpt>
      <trkpt lat="41.72707" lon="-1.67852">
        <ele>912.008</ele>
        <time>2013-05-08T07:05:11Z</time>
      </trkpt>
      <trkpt lat="41.72713" lon="-1.6785">
        <ele>911.043</ele>
        <time>2013-05-08T07:05:05Z</time>
      </trkpt>
      <trkpt lat="41.72726" lon="-1.67842">
        <ele>909.174</ele>
        <time>2013-05-08T07:04:50Z</time>
      </trkpt>
      <trkpt lat="41.7273" lon="-1.67842">
        <ele>908.666</ele>
        <time>2013-05-08T07:04:46Z</time>
      </trkpt>
      <trkpt lat="41.72739" lon="-1.67841">
        <ele>906.221</ele>
        <time>2013-05-08T07:04:36Z</time>
      </trkpt>
      <trkpt lat="41.72748" lon="-1.67839">
        <ele>904.348</ele>
        <time>2013-05-08T07:04:26Z</time>
      </trkpt>
      <trkpt lat="41.72751" lon="-1.67841">
        <ele>903.825</ele>
        <time>2013-05-08T07:04:12Z</time>
      </trkpt>
      <trkpt lat="41.7276" lon="-1.67842">
        <ele>902.383</ele>
        <time>2013-05-08T07:03:57Z</time>
      </trkpt>
      <trkpt lat="41.72767" lon="-1.67839">
        <ele>900.926</ele>
        <time>2013-05-08T07:03:45Z</time>
      </trkpt>
      <trkpt lat="41.72773" lon="-1.67837">
        <ele>899.585</ele>
        <time>2013-05-08T07:03:33Z</time>
      </trkpt>
      <trkpt lat="41.72778" lon="-1.67833">
        <ele>898.089</ele>
        <time>2013-05-08T07:03:22Z</time>
      </trkpt>
      <trkpt lat="41.7278" lon="-1.67828">
        <ele>897.517</ele>
        <time>2013-05-08T07:03:18Z</time>
      </trkpt>
      <trkpt lat="41.7278" lon="-1.67826">
        <ele>897.108</ele>
        <time>2013-05-08T07:03:16Z</time>
      </trkpt>
      <trkpt lat="41.72784" lon="-1.67824">
        <ele>897.179</ele>
        <time>2013-05-08T07:02:47Z</time>
      </trkpt>
      <trkpt lat="41.72791" lon="-1.67829">
        <ele>895.13</ele>
        <time>2013-05-08T07:02:35Z</time>
      </trkpt>
      <trkpt lat="41.72803" lon="-1.67835">
        <ele>893.242</ele>
        <time>2013-05-08T07:02:21Z</time>
      </trkpt>
      <trkpt lat="41.72818" lon="-1.67847">
        <ele>890.837</ele>
        <time>2013-05-08T07:02:02Z</time>
      </trkpt>
      <trkpt lat="41.72826" lon="-1.67855">
        <ele>889.444</ele>
        <time>2013-05-08T07:01:51Z</time>
      </trkpt>
      <trkpt lat="41.72838" lon="-1.67852">
        <ele>887.921</ele>
        <time>2013-05-08T07:01:37Z</time>
      </trkpt>
      <trkpt lat="41.72852" lon="-1.67843">
        <ele>886.599</ele>
        <time>2013-05-08T07:01:23Z</time>
      </trkpt>
      <trkpt lat="41.72853" lon="-1.67843">
        <ele>886.562</ele>
        <time>2013-05-08T07:01:22Z</time>
      </trkpt>
      <trkpt lat="41.72864" lon="-1.67839">
        <ele>885.593</ele>
        <time>2013-05-08T07:01:10Z</time>
      </trkpt>
      <trkpt lat="41.72868" lon="-1.6784">
        <ele>885.565</ele>
        <time>2013-05-08T07:01:06Z</time>
      </trkpt>
      <trkpt lat="41.7287" lon="-1.67839">
        <ele>885.021</ele>
        <time>2013-05-08T07:01:03Z</time>
      </trkpt>
      <trkpt lat="41.72876" lon="-1.67838">
        <ele>884.108</ele>
        <time>2013-05-08T07:00:56Z</time>
      </trkpt>
      <trkpt lat="41.72877" lon="-1.67838">
        <ele>884.14</ele>
        <time>2013-05-08T07:00:55Z</time>
      </trkpt>
      <trkpt lat="41.72891" lon="-1.67836">
        <ele>882.281</ele>
        <time>2013-05-08T07:00:40Z</time>
      </trkpt>
      <trkpt lat="41.72894" lon="-1.67844">
        <ele>880.783</ele>
        <time>2013-05-08T07:00:31Z</time>
      </trkpt>
      <trkpt lat="41.72896" lon="-1.67846">
        <ele>880.298</ele>
        <time>2013-05-08T07:00:29Z</time>
      </trkpt>
      <trkpt lat="41.72901" lon="-1.67846">
        <ele>879.745</ele>
        <time>2013-05-08T07:00:24Z</time>
      </trkpt>
      <trkpt lat="41.72905" lon="-1.67845">
        <ele>879.372</ele>
        <time>2013-05-08T07:00:20Z</time>
      </trkpt>
      <trkpt lat="41.72916" lon="-1.67846">
        <ele>877.35</ele>
        <time>2013-05-08T07:00:07Z</time>
      </trkpt>
      <trkpt lat="41.72929" lon="-1.67844">
        <ele>875.423</ele>
        <time>2013-05-08T06:59:54Z</time>
      </trkpt>
      <trkpt lat="41.72939" lon="-1.67834">
        <ele>874.018</ele>
        <time>2013-05-08T06:59:42Z</time>
      </trkpt>
      <trkpt lat="41.72943" lon="-1.67826">
        <ele>874.098</ele>
        <time>2013-05-08T06:59:24Z</time>
      </trkpt>
      <trkpt lat="41.72943" lon="-1.67824">
        <ele>873.517</ele>
        <time>2013-05-08T06:59:15Z</time>
      </trkpt>
      <trkpt lat="41.72955" lon="-1.67817">
        <ele>873.008</ele>
        <time>2013-05-08T06:59:03Z</time>
      </trkpt>
      <trkpt lat="41.72959" lon="-1.67827">
        <ele>872.162</ele>
        <time>2013-05-08T06:58:54Z</time>
      </trkpt>
      <trkpt lat="41.7296" lon="-1.67829">
        <ele>872.183</ele>
        <time>2013-05-08T06:58:52Z</time>
      </trkpt>
      <trkpt lat="41.72971" lon="-1.67831">
        <ele>871.655</ele>
        <time>2013-05-08T06:58:41Z</time>
      </trkpt>
      <trkpt lat="41.72982" lon="-1.67837">
        <ele>870.68</ele>
        <time>2013-05-08T06:58:29Z</time>
      </trkpt>
      <trkpt lat="41.72983" lon="-1.67838">
        <ele>870.627</ele>
        <time>2013-05-08T06:58:09Z</time>
      </trkpt>
      <trkpt lat="41.7299" lon="-1.67838">
        <ele>870.654</ele>
        <time>2013-05-08T06:57:57Z</time>
      </trkpt>
      <trkpt lat="41.72995" lon="-1.67839">
        <ele>870.692</ele>
        <time>2013-05-08T06:57:47Z</time>
      </trkpt>
      <trkpt lat="41.72995" lon="-1.67837">
        <ele>870.635</ele>
        <time>2013-05-08T06:57:22Z</time>
      </trkpt>
      <trkpt lat="41.73001" lon="-1.67834">
        <ele>871.146</ele>
        <time>2013-05-08T06:57:12Z</time>
      </trkpt>
      <trkpt lat="41.73006" lon="-1.67837">
        <ele>872.188</ele>
        <time>2013-05-08T06:57:07Z</time>
      </trkpt>
      <trkpt lat="41.73003" lon="-1.6786">
        <ele>873.016</ele>
        <time>2013-05-08T06:56:55Z</time>
      </trkpt>
      <trkpt lat="41.7301" lon="-1.67871">
        <ele>874.908</ele>
        <time>2013-05-08T06:56:45Z</time>
      </trkpt>
      <trkpt lat="41.73015" lon="-1.67888">
        <ele>877.335</ele>
        <time>2013-05-08T06:56:32Z</time>
      </trkpt>
      <trkpt lat="41.73016" lon="-1.67889">
        <ele>877.396</ele>
        <time>2013-05-08T06:56:21Z</time>
      </trkpt>
      <trkpt lat="41.73021" lon="-1.67897">
        <ele>879.318</ele>
        <time>2013-05-08T06:56:05Z</time>
      </trkpt>
      <trkpt lat="41.73024" lon="-1.6791">
        <ele>880.723</ele>
        <time>2013-05-08T06:55:51Z</time>
      </trkpt>
      <trkpt lat="41.73022" lon="-1.67913">
        <ele>881.28</ele>
        <time>2013-05-08T06:55:39Z</time>
      </trkpt>
      <trkpt lat="41.73024" lon="-1.67914">
        <ele>882.217</ele>
        <time>2013-05-08T06:55:31Z</time>
      </trkpt>
      <trkpt lat="41.73032" lon="-1.67903">
        <ele>885.045</ele>
        <time>2013-05-08T06:55:22Z</time>
      </trkpt>
      <trkpt lat="41.73041" lon="-1.67893">
        <ele>887.088</ele>
        <time>2013-05-08T06:55:09Z</time>
      </trkpt>
      <trkpt lat="41.7305" lon="-1.67884">
        <ele>888.464</ele>
        <time>2013-05-08T06:54:59Z</time>
      </trkpt>
      <trkpt lat="41.73051" lon="-1.67882">
        <ele>887.906</ele>
        <time>2013-05-08T06:54:57Z</time>
      </trkpt>
      <trkpt lat="41.73054" lon="-1.67881">
        <ele>887.916</ele>
        <time>2013-05-08T06:54:47Z</time>
      </trkpt>
      <trkpt lat="41.73062" lon="-1.67878">
        <ele>887.908</ele>
        <time>2013-05-08T06:54:35Z</time>
      </trkpt>
      <trkpt lat="41.73074" lon="-1.67878">
        <ele>889.497</ele>
        <time>2013-05-08T06:54:24Z</time>
      </trkpt>
      <trkpt lat="41.73075" lon="-1.6788">
        <ele>889.438</ele>
        <time>2013-05-08T06:54:20Z</time>
      </trkpt>
      <trkpt lat="41.73076" lon="-1.67879">
        <ele>889.45</ele>
        <time>2013-05-08T06:53:59Z</time>
      </trkpt>
      <trkpt lat="41.73077" lon="-1.67881">
        <ele>889.845</ele>
        <time>2013-05-08T06:53:42Z</time>
      </trkpt>
      <trkpt lat="41.73079" lon="-1.67888">
        <ele>891.382</ele>
        <time>2013-05-08T06:53:32Z</time>
      </trkpt>
      <trkpt lat="41.73089" lon="-1.67897">
        <ele>892.749</ele>
        <time>2013-05-08T06:53:21Z</time>
      </trkpt>
      <trkpt lat="41.73091" lon="-1.67897">
        <ele>892.787</ele>
        <time>2013-05-08T06:53:15Z</time>
      </trkpt>
      <trkpt lat="41.73089" lon="-1.67902">
        <ele>893.22</ele>
        <time>2013-05-08T06:52:53Z</time>
      </trkpt>
      <trkpt lat="41.73088" lon="-1.67903">
        <ele>893.233</ele>
        <time>2013-05-08T06:52:20Z</time>
      </trkpt>
      <trkpt lat="41.73089" lon="-1.67902">
        <ele>893.223</ele>
        <time>2013-05-08T06:52:00Z</time>
      </trkpt>
      <trkpt lat="41.73088" lon="-1.679">
        <ele>893.215</ele>
        <time>2013-05-08T06:51:44Z</time>
      </trkpt>
      <trkpt lat="41.73091" lon="-1.67901">
        <ele>893.208</ele>
        <time>2013-05-08T06:51:24Z</time>
      </trkpt>
      <trkpt lat="41.73092" lon="-1.67902">
        <ele>893.244</ele>
        <time>2013-05-08T06:50:45Z</time>
      </trkpt>
      <trkpt lat="41.73091" lon="-1.67901">
        <ele>893.285</ele>
        <time>2013-05-08T06:50:24Z</time>
      </trkpt>
      <trkpt lat="41.73093" lon="-1.679">
        <ele>893.247</ele>
        <time>2013-05-08T06:50:04Z</time>
      </trkpt>
      <trkpt lat="41.73091" lon="-1.67899">
        <ele>893.222</ele>
        <time>2013-05-08T06:49:51Z</time>
      </trkpt>
      <trkpt lat="41.73089" lon="-1.67899">
        <ele>893.259</ele>
        <time>2013-05-08T06:49:28Z</time>
      </trkpt>
      <trkpt lat="41.7309" lon="-1.67899">
        <ele>893.286</ele>
        <time>2013-05-08T06:48:54Z</time>
      </trkpt>
      <trkpt lat="41.73089" lon="-1.67901">
        <ele>893.254</ele>
        <time>2013-05-08T06:48:40Z</time>
      </trkpt>
      <trkpt lat="41.73088" lon="-1.67902">
        <ele>893.247</ele>
        <time>2013-05-08T06:48:15Z</time>
      </trkpt>
      <trkpt lat="41.73088" lon="-1.67901">
        <ele>893.292</ele>
        <time>2013-05-08T06:47:51Z</time>
      </trkpt>
      <trkpt lat="41.73092" lon="-1.679">
        <ele>893.273</ele>
        <time>2013-05-08T06:47:18Z</time>
      </trkpt>
      <trkpt lat="41.73093" lon="-1.679">
        <ele>893.22</ele>
        <time>2013-05-08T06:46:57Z</time>
      </trkpt>
      <trkpt lat="41.73092" lon="-1.679">
        <ele>893.708</ele>
        <time>2013-05-08T06:46:20Z</time>
      </trkpt>
      <trkpt lat="41.73093" lon="-1.67899">
        <ele>893.73</ele>
        <time>2013-05-08T06:45:40Z</time>
      </trkpt>
      <trkpt lat="41.73092" lon="-1.679">
        <ele>894.221</ele>
        <time>2013-05-08T06:45:09Z</time>
      </trkpt>
      <trkpt lat="41.73094" lon="-1.67899">
        <ele>894.213</ele>
        <time>2013-05-08T06:44:32Z</time>
      </trkpt>
      <trkpt lat="41.73093" lon="-1.67899">
        <ele>894.268</ele>
        <time>2013-05-08T06:44:08Z</time>
      </trkpt>
      <trkpt lat="41.73089" lon="-1.67898">
        <ele>894.245</ele>
        <time>2013-05-08T06:43:47Z</time>
      </trkpt>
      <trkpt lat="41.73089" lon="-1.679">
        <ele>894.262</ele>
        <time>2013-05-08T06:43:31Z</time>
      </trkpt>
      <trkpt lat="41.73088" lon="-1.67898">
        <ele>894.29</ele>
        <time>2013-05-08T06:42:53Z</time>
      </trkpt>
      <trkpt lat="41.73088" lon="-1.67899">
        <ele>894.233</ele>
        <time>2013-05-08T06:42:03Z</time>
      </trkpt>
      <trkpt lat="41.7309" lon="-1.67899">
        <ele>894.256</ele>
        <time>2013-05-08T06:41:27Z</time>
      </trkpt>
      <trkpt lat="41.73089" lon="-1.679">
        <ele>895.159</ele>
        <time>2013-05-08T06:40:20Z</time>
      </trkpt>
      <trkpt lat="41.73084" lon="-1.67898">
        <ele>895.114</ele>
        <time>2013-05-08T06:40:08Z</time>
      </trkpt>
      <trkpt lat="41.73072" lon="-1.67901">
        <ele>894.608</ele>
        <time>2013-05-07T17:31:36Z</time>
      </trkpt>
      <trkpt lat="41.73072" lon="-1.67901">
        <ele>894.696</ele>
        <time>2013-05-07T17:31:05Z</time>
      </trkpt>
      <trkpt lat="41.73076" lon="-1.67901">
        <ele>894.657</ele>
        <time>2013-05-07T17:30:39Z</time>
      </trkpt>
      <trkpt lat="41.73075" lon="-1.67899">
        <ele>894.279</ele>
        <time>2013-05-07T17:30:28Z</time>
      </trkpt>
      <trkpt lat="41.73075" lon="-1.67894">
        <ele>893.734</ele>
        <time>2013-05-07T17:30:16Z</time>
      </trkpt>
      <trkpt lat="41.73075" lon="-1.67892">
        <ele>893.771</ele>
        <time>2013-05-07T17:30:15Z</time>
      </trkpt>
      <trkpt lat="41.73076" lon="-1.67891">
        <ele>893.238</ele>
        <time>2013-05-07T17:30:14Z</time>
      </trkpt>
      <trkpt lat="41.73076" lon="-1.67882">
        <ele>891.366</ele>
        <time>2013-05-07T17:30:08Z</time>
      </trkpt>
      <trkpt lat="41.73076" lon="-1.6788">
        <ele>891.399</ele>
        <time>2013-05-07T17:30:07Z</time>
      </trkpt>
      <trkpt lat="41.73077" lon="-1.67879">
        <ele>891.357</ele>
        <time>2013-05-07T17:30:06Z</time>
      </trkpt>
      <trkpt lat="41.73077" lon="-1.67877">
        <ele>890.8</ele>
        <time>2013-05-07T17:30:05Z</time>
      </trkpt>
      <trkpt lat="41.73079" lon="-1.67875">
        <ele>890.82</ele>
        <time>2013-05-07T17:30:03Z</time>
      </trkpt>
      <trkpt lat="41.7308" lon="-1.67874">
        <ele>889.808</ele>
        <time>2013-05-07T17:30:02Z</time>
      </trkpt>
      <trkpt lat="41.73082" lon="-1.67873">
        <ele>889.816</ele>
        <time>2013-05-07T17:30:01Z</time>
      </trkpt>
      <trkpt lat="41.73086" lon="-1.67868">
        <ele>889.887</ele>
        <time>2013-05-07T17:29:58Z</time>
      </trkpt>
      <trkpt lat="41.73087" lon="-1.67867">
        <ele>889.859</ele>
        <time>2013-05-07T17:29:57Z</time>
      </trkpt>
      <trkpt lat="41.73089" lon="-1.67866">
        <ele>889.844</ele>
        <time>2013-05-07T17:29:56Z</time>
      </trkpt>
      <trkpt lat="41.73092" lon="-1.67865">
        <ele>889.881</ele>
        <time>2013-05-07T17:29:54Z</time>
      </trkpt>
      <trkpt lat="41.73093" lon="-1.67864">
        <ele>889.878</ele>
        <time>2013-05-07T17:29:53Z</time>
      </trkpt>
      <trkpt lat="41.73095" lon="-1.67863">
        <ele>889.886</ele>
        <time>2013-05-07T17:29:52Z</time>
      </trkpt>
      <trkpt lat="41.73097" lon="-1.67862">
        <ele>889.819</ele>
        <time>2013-05-07T17:29:51Z</time>
      </trkpt>
      <trkpt lat="41.73098" lon="-1.6786">
        <ele>889.837</ele>
        <time>2013-05-07T17:29:50Z</time>
      </trkpt>
      <trkpt lat="41.73099" lon="-1.67859">
        <ele>889.849</ele>
        <time>2013-05-07T17:29:49Z</time>
      </trkpt>
      <trkpt lat="41.73101" lon="-1.67857">
        <ele>889.813</ele>
        <time>2013-05-07T17:29:45Z</time>
      </trkpt>
      <trkpt lat="41.73101" lon="-1.67855">
        <ele>890.308</ele>
        <time>2013-05-07T17:29:44Z</time>
      </trkpt>
      <trkpt lat="41.73102" lon="-1.67854">
        <ele>890.354</ele>
        <time>2013-05-07T17:29:43Z</time>
      </trkpt>
      <trkpt lat="41.73102" lon="-1.67853">
        <ele>890.865</ele>
        <time>2013-05-07T17:29:42Z</time>
      </trkpt>
      <trkpt lat="41.73103" lon="-1.67851">
        <ele>890.847</ele>
        <time>2013-05-07T17:29:41Z</time>
      </trkpt>
      <trkpt lat="41.73104" lon="-1.67848">
        <ele>891.322</ele>
        <time>2013-05-07T17:29:40Z</time>
      </trkpt>
      <trkpt lat="41.73105" lon="-1.67846">
        <ele>891.319</ele>
        <time>2013-05-07T17:29:39Z</time>
      </trkpt>
      <trkpt lat="41.73106" lon="-1.67844">
        <ele>891.396</ele>
        <time>2013-05-07T17:29:38Z</time>
      </trkpt>
      <trkpt lat="41.73109" lon="-1.6783">
        <ele>893.224</ele>
        <time>2013-05-07T17:29:33Z</time>
      </trkpt>
      <trkpt lat="41.73108" lon="-1.67801">
        <ele>893.277</ele>
        <time>2013-05-07T17:29:23Z</time>
      </trkpt>
      <trkpt lat="41.73108" lon="-1.67792">
        <ele>891.831</ele>
        <time>2013-05-07T17:29:18Z</time>
      </trkpt>
      <trkpt lat="41.73118" lon="-1.67764">
        <ele>894.261</ele>
        <time>2013-05-07T17:29:10Z</time>
      </trkpt>
      <trkpt lat="41.73119" lon="-1.67762">
        <ele>894.207</ele>
        <time>2013-05-07T17:29:09Z</time>
      </trkpt>
      <trkpt lat="41.7312" lon="-1.6776">
        <ele>894.208</ele>
        <time>2013-05-07T17:29:04Z</time>
      </trkpt>
      <trkpt lat="41.73123" lon="-1.67758">
        <ele>894.234</ele>
        <time>2013-05-07T17:28:55Z</time>
      </trkpt>
      <trkpt lat="41.73123" lon="-1.67751">
        <ele>894.645</ele>
        <time>2013-05-07T17:28:17Z</time>
      </trkpt>
      <trkpt lat="41.73119" lon="-1.6775">
        <ele>895.157</ele>
        <time>2013-05-07T17:27:55Z</time>
      </trkpt>
      <trkpt lat="41.73122" lon="-1.67741">
        <ele>896.182</ele>
        <time>2013-05-07T17:27:47Z</time>
      </trkpt>
      <trkpt lat="41.73122" lon="-1.67713">
        <ele>899.039</ele>
        <time>2013-05-07T17:27:38Z</time>
      </trkpt>
      <trkpt lat="41.73121" lon="-1.67674">
        <ele>899.536</ele>
        <time>2013-05-07T17:27:29Z</time>
      </trkpt>
      <trkpt lat="41.73121" lon="-1.67656">
        <ele>901.454</ele>
        <time>2013-05-07T17:27:13Z</time>
      </trkpt>
      <trkpt lat="41.73123" lon="-1.67655">
        <ele>901.497</ele>
        <time>2013-05-07T17:27:04Z</time>
      </trkpt>
      <trkpt lat="41.73124" lon="-1.67648">
        <ele>903.376</ele>
        <time>2013-05-07T17:27:01Z</time>
      </trkpt>
      <trkpt lat="41.73127" lon="-1.67619">
        <ele>903.39</ele>
        <time>2013-05-07T17:26:50Z</time>
      </trkpt>
      <trkpt lat="41.7313" lon="-1.67597">
        <ele>901.419</ele>
        <time>2013-05-07T17:26:39Z</time>
      </trkpt>
      <trkpt lat="41.73134" lon="-1.67574">
        <ele>899.508</ele>
        <time>2013-05-07T17:26:27Z</time>
      </trkpt>
      <trkpt lat="41.73133" lon="-1.67565">
        <ele>898.058</ele>
        <time>2013-05-07T17:26:22Z</time>
      </trkpt>
      <trkpt lat="41.73132" lon="-1.67566">
        <ele>898.089</ele>
        <time>2013-05-07T17:26:06Z</time>
      </trkpt>
      <trkpt lat="41.73131" lon="-1.67564">
        <ele>898.011</ele>
        <time>2013-05-07T17:25:53Z</time>
      </trkpt>
      <trkpt lat="41.73132" lon="-1.67563">
        <ele>898.016</ele>
        <time>2013-05-07T17:25:37Z</time>
      </trkpt>
      <trkpt lat="41.73139" lon="-1.6756">
        <ele>898.063</ele>
        <time>2013-05-07T17:25:30Z</time>
      </trkpt>
      <trkpt lat="41.73164" lon="-1.67577">
        <ele>901.45</ele>
        <time>2013-05-07T17:25:21Z</time>
      </trkpt>
      <trkpt lat="41.7318" lon="-1.67607">
        <ele>903.898</ele>
        <time>2013-05-07T17:25:16Z</time>
      </trkpt>
      <trkpt lat="41.73193" lon="-1.67636">
        <ele>907.191</ele>
        <time>2013-05-07T17:25:12Z</time>
      </trkpt>
      <trkpt lat="41.73203" lon="-1.67668">
        <ele>910.523</ele>
        <time>2013-05-07T17:25:08Z</time>
      </trkpt>
      <trkpt lat="41.73218" lon="-1.67707">
        <ele>913.983</ele>
        <time>2013-05-07T17:25:03Z</time>
      </trkpt>
      <trkpt lat="41.7323" lon="-1.67736">
        <ele>917.211</ele>
        <time>2013-05-07T17:24:59Z</time>
      </trkpt>
      <trkpt lat="41.73247" lon="-1.67772">
        <ele>919.608</ele>
        <time>2013-05-07T17:24:54Z</time>
      </trkpt>
      <trkpt lat="41.73254" lon="-1.67786">
        <ele>920.693</ele>
        <time>2013-05-07T17:24:52Z</time>
      </trkpt>
      <trkpt lat="41.73275" lon="-1.67826">
        <ele>923.574</ele>
        <time>2013-05-07T17:24:46Z</time>
      </trkpt>
      <trkpt lat="41.73298" lon="-1.67856">
        <ele>926.476</ele>
        <time>2013-05-07T17:24:39Z</time>
      </trkpt>
      <trkpt lat="41.733" lon="-1.67858">
        <ele>926.931</ele>
        <time>2013-05-07T17:24:23Z</time>
      </trkpt>
      <trkpt lat="41.73304" lon="-1.67863">
        <ele>926.998</ele>
        <time>2013-05-07T17:24:16Z</time>
      </trkpt>
      <trkpt lat="41.73324" lon="-1.67888">
        <ele>930.255</ele>
        <time>2013-05-07T17:24:10Z</time>
      </trkpt>
      <trkpt lat="41.73351" lon="-1.67926">
        <ele>933.663</ele>
        <time>2013-05-07T17:24:05Z</time>
      </trkpt>
      <trkpt lat="41.73381" lon="-1.67971">
        <ele>937.436</ele>
        <time>2013-05-07T17:23:58Z</time>
      </trkpt>
      <trkpt lat="41.73402" lon="-1.6801">
        <ele>940.872</ele>
        <time>2013-05-07T17:23:53Z</time>
      </trkpt>
      <trkpt lat="41.73417" lon="-1.68044">
        <ele>943.713</ele>
        <time>2013-05-07T17:23:49Z</time>
      </trkpt>
      <trkpt lat="41.73434" lon="-1.68086">
        <ele>947.014</ele>
        <time>2013-05-07T17:23:44Z</time>
      </trkpt>
      <trkpt lat="41.73455" lon="-1.68121">
        <ele>950.908</ele>
        <time>2013-05-07T17:23:39Z</time>
      </trkpt>
      <trkpt lat="41.73481" lon="-1.68161">
        <ele>954.718</ele>
        <time>2013-05-07T17:23:32Z</time>
      </trkpt>
      <trkpt lat="41.73491" lon="-1.68197">
        <ele>958.139</ele>
        <time>2013-05-07T17:23:26Z</time>
      </trkpt>
      <trkpt lat="41.73491" lon="-1.68215">
        <ele>960.011</ele>
        <time>2013-05-07T17:23:23Z</time>
      </trkpt>
      <trkpt lat="41.73489" lon="-1.68245">
        <ele>962.466</ele>
        <time>2013-05-07T17:23:18Z</time>
      </trkpt>
      <trkpt lat="41.73488" lon="-1.68266">
        <ele>964.343</ele>
        <time>2013-05-07T17:23:14Z</time>
      </trkpt>
      <trkpt lat="41.73491" lon="-1.68298">
        <ele>967.76</ele>
        <time>2013-05-07T17:23:08Z</time>
      </trkpt>
      <trkpt lat="41.73505" lon="-1.68334">
        <ele>971.148</ele>
        <time>2013-05-07T17:23:02Z</time>
      </trkpt>
      <trkpt lat="41.7352" lon="-1.68372">
        <ele>974.471</ele>
        <time>2013-05-07T17:22:57Z</time>
      </trkpt>
      <trkpt lat="41.73545" lon="-1.68428">
        <ele>978.837</ele>
        <time>2013-05-07T17:22:49Z</time>
      </trkpt>
      <trkpt lat="41.73555" lon="-1.68449">
        <ele>979.749</ele>
        <time>2013-05-07T17:22:46Z</time>
      </trkpt>
      <trkpt lat="41.73564" lon="-1.68459">
        <ele>981.213</ele>
        <time>2013-05-07T17:22:44Z</time>
      </trkpt>
      <trkpt lat="41.73585" lon="-1.68461">
        <ele>983.108</ele>
        <time>2013-05-07T17:22:39Z</time>
      </trkpt>
      <trkpt lat="41.7359" lon="-1.68451">
        <ele>983.674</ele>
        <time>2013-05-07T17:22:37Z</time>
      </trkpt>
      <trkpt lat="41.73596" lon="-1.68425">
        <ele>985.535</ele>
        <time>2013-05-07T17:22:34Z</time>
      </trkpt>
      <trkpt lat="41.73598" lon="-1.68417">
        <ele>986.087</ele>
        <time>2013-05-07T17:22:33Z</time>
      </trkpt>
      <trkpt lat="41.73622" lon="-1.68389">
        <ele>988.942</ele>
        <time>2013-05-07T17:22:26Z</time>
      </trkpt>
      <trkpt lat="41.73638" lon="-1.68393">
        <ele>990.329</ele>
        <time>2013-05-07T17:22:22Z</time>
      </trkpt>
      <trkpt lat="41.73645" lon="-1.684">
        <ele>991.356</ele>
        <time>2013-05-07T17:22:20Z</time>
      </trkpt>
      <trkpt lat="41.73649" lon="-1.68405">
        <ele>992.234</ele>
        <time>2013-05-07T17:22:19Z</time>
      </trkpt>
      <trkpt lat="41.73669" lon="-1.68438">
        <ele>995.157</ele>
        <time>2013-05-07T17:22:13Z</time>
      </trkpt>
      <trkpt lat="41.73683" lon="-1.68466">
        <ele>998.547</ele>
        <time>2013-05-07T17:22:08Z</time>
      </trkpt>
      <trkpt lat="41.73703" lon="-1.68506">
        <ele>1001.429</ele>
        <time>2013-05-07T17:22:02Z</time>
      </trkpt>
      <trkpt lat="41.73718" lon="-1.68533">
        <ele>1004.221</ele>
        <time>2013-05-07T17:21:58Z</time>
      </trkpt>
      <trkpt lat="41.73742" lon="-1.68565">
        <ele>1007.608</ele>
        <time>2013-05-07T17:21:50Z</time>
      </trkpt>
      <trkpt lat="41.73769" lon="-1.68586">
        <ele>1009.525</ele>
        <time>2013-05-07T17:21:41Z</time>
      </trkpt>
      <trkpt lat="41.73792" lon="-1.68601">
        <ele>1011.966</ele>
        <time>2013-05-07T17:21:30Z</time>
      </trkpt>
      <trkpt lat="41.73818" lon="-1.6861">
        <ele>1014.818</ele>
        <time>2013-05-07T17:21:20Z</time>
      </trkpt>
      <trkpt lat="41.7382" lon="-1.6861">
        <ele>1014.853</ele>
        <time>2013-05-07T17:21:19Z</time>
      </trkpt>
      <trkpt lat="41.7384" lon="-1.68619">
        <ele>1015.86</ele>
        <time>2013-05-07T17:21:08Z</time>
      </trkpt>
      <trkpt lat="41.73846" lon="-1.68623">
        <ele>1015.827</ele>
        <time>2013-05-07T17:21:03Z</time>
      </trkpt>
      <trkpt lat="41.73847" lon="-1.68624">
        <ele>1015.835</ele>
        <time>2013-05-07T17:20:29Z</time>
      </trkpt>
      <trkpt lat="41.73869" lon="-1.68643">
        <ele>1013.998</ele>
        <time>2013-05-07T17:20:13Z</time>
      </trkpt>
      <trkpt lat="41.73883" lon="-1.68647">
        <ele>1012.428</ele>
        <time>2013-05-07T17:20:02Z</time>
      </trkpt>
      <trkpt lat="41.73898" lon="-1.68647">
        <ele>1010.589</ele>
        <time>2013-05-07T17:19:49Z</time>
      </trkpt>
      <trkpt lat="41.73916" lon="-1.68636">
        <ele>1007.617</ele>
        <time>2013-05-07T17:19:33Z</time>
      </trkpt>
      <trkpt lat="41.73922" lon="-1.68627">
        <ele>1006.608</ele>
        <time>2013-05-07T17:19:26Z</time>
      </trkpt>
      <trkpt lat="41.73923" lon="-1.68624">
        <ele>1006.273</ele>
        <time>2013-05-07T17:19:24Z</time>
      </trkpt>
      <trkpt lat="41.73927" lon="-1.68619">
        <ele>1005.724</ele>
        <time>2013-05-07T17:19:20Z</time>
      </trkpt>
      <trkpt lat="41.73928" lon="-1.68618">
        <ele>1005.736</ele>
        <time>2013-05-07T17:19:19Z</time>
      </trkpt>
      <trkpt lat="41.73939" lon="-1.68605">
        <ele>1003.871</ele>
        <time>2013-05-07T17:19:07Z</time>
      </trkpt>
      <trkpt lat="41.73953" lon="-1.68581">
        <ele>1001.458</ele>
        <time>2013-05-07T17:18:54Z</time>
      </trkpt>
      <trkpt lat="41.73966" lon="-1.68571">
        <ele>1000.465</ele>
        <time>2013-05-07T17:18:48Z</time>
      </trkpt>
      <trkpt lat="41.74002" lon="-1.68622">
        <ele>1001.813</ele>
        <time>2013-05-07T17:18:34Z</time>
      </trkpt>
      <trkpt lat="41.74035" lon="-1.6866">
        <ele>1001.866</ele>
        <time>2013-05-07T17:18:20Z</time>
      </trkpt>
      <trkpt lat="41.74058" lon="-1.68677">
        <ele>1001.868</ele>
        <time>2013-05-07T17:18:10Z</time>
      </trkpt>
      <trkpt lat="41.74065" lon="-1.68681">
        <ele>1001.842</ele>
        <time>2013-05-07T17:17:55Z</time>
      </trkpt>
      <trkpt lat="41.74065" lon="-1.68681">
        <ele>1001.826</ele>
        <time>2013-05-07T17:17:14Z</time>
      </trkpt>
      <trkpt lat="41.74087" lon="-1.68689">
        <ele>1001.408</ele>
        <time>2013-05-07T17:17:00Z</time>
      </trkpt>
      <trkpt lat="41.74109" lon="-1.68697">
        <ele>1000.417</ele>
        <time>2013-05-07T17:16:47Z</time>
      </trkpt>
      <trkpt lat="41.74118" lon="-1.68698">
        <ele>999.428</ele>
        <time>2013-05-07T17:16:41Z</time>
      </trkpt>
      <trkpt lat="41.74132" lon="-1.68692">
        <ele>999.03</ele>
        <time>2013-05-07T17:16:32Z</time>
      </trkpt>
      <trkpt lat="41.74154" lon="-1.68682">
        <ele>996.165</ele>
        <time>2013-05-07T17:16:18Z</time>
      </trkpt>
      <trkpt lat="41.74167" lon="-1.68676">
        <ele>995.112</ele>
        <time>2013-05-07T17:16:10Z</time>
      </trkpt>
      <trkpt lat="41.74187" lon="-1.68684">
        <ele>992.739</ele>
        <time>2013-05-07T17:15:57Z</time>
      </trkpt>
      <trkpt lat="41.74206" lon="-1.68709">
        <ele>990.887</ele>
        <time>2013-05-07T17:15:43Z</time>
      </trkpt>
      <trkpt lat="41.74219" lon="-1.68733">
        <ele>989.39</ele>
        <time>2013-05-07T17:15:31Z</time>
      </trkpt>
      <trkpt lat="41.74239" lon="-1.68764">
        <ele>987.459</ele>
        <time>2013-05-07T17:15:15Z</time>
      </trkpt>
      <trkpt lat="41.74259" lon="-1.6879">
        <ele>986.003</ele>
        <time>2013-05-07T17:15:00Z</time>
      </trkpt>
      <trkpt lat="41.74275" lon="-1.68807">
        <ele>984.123</ele>
        <time>2013-05-07T17:14:49Z</time>
      </trkpt>
      <trkpt lat="41.7429" lon="-1.68821">
        <ele>983.108</ele>
        <time>2013-05-07T17:14:37Z</time>
      </trkpt>
      <trkpt lat="41.74297" lon="-1.68827">
        <ele>982.646</ele>
        <time>2013-05-07T17:14:31Z</time>
      </trkpt>
      <trkpt lat="41.74304" lon="-1.68832">
        <ele>981.617</ele>
        <time>2013-05-07T17:14:25Z</time>
      </trkpt>
      <trkpt lat="41.74306" lon="-1.68833">
        <ele>981.629</ele>
        <time>2013-05-07T17:14:23Z</time>
      </trkpt>
      <trkpt lat="41.7432" lon="-1.68842">
        <ele>979.254</ele>
        <time>2013-05-07T17:14:08Z</time>
      </trkpt>
      <trkpt lat="41.74332" lon="-1.68849">
        <ele>977.361</ele>
        <time>2013-05-07T17:13:55Z</time>
      </trkpt>
      <trkpt lat="41.74341" lon="-1.68856">
        <ele>975.428</ele>
        <time>2013-05-07T17:13:44Z</time>
      </trkpt>
      <trkpt lat="41.7435" lon="-1.68862">
        <ele>973.526</ele>
        <time>2013-05-07T17:13:33Z</time>
      </trkpt>
      <trkpt lat="41.74359" lon="-1.68867">
        <ele>972.089</ele>
        <time>2013-05-07T17:13:23Z</time>
      </trkpt>
      <trkpt lat="41.74368" lon="-1.68873">
        <ele>970.176</ele>
        <time>2013-05-07T17:13:12Z</time>
      </trkpt>
      <trkpt lat="41.74376" lon="-1.68878">
        <ele>968.29</ele>
        <time>2013-05-07T17:13:02Z</time>
      </trkpt>
      <trkpt lat="41.74383" lon="-1.68883">
        <ele>966.319</ele>
        <time>2013-05-07T17:12:52Z</time>
      </trkpt>
      <trkpt lat="41.74392" lon="-1.68889">
        <ele>964.808</ele>
        <time>2013-05-07T17:12:40Z</time>
      </trkpt>
      <trkpt lat="41.74395" lon="-1.68892">
        <ele>963.918</ele>
        <time>2013-05-07T17:12:36Z</time>
      </trkpt>
      <trkpt lat="41.74407" lon="-1.68902">
        <ele>961.589</ele>
        <time>2013-05-07T17:12:21Z</time>
      </trkpt>
      <trkpt lat="41.74414" lon="-1.68908">
        <ele>960.591</ele>
        <time>2013-05-07T17:12:13Z</time>
      </trkpt>
      <trkpt lat="41.74424" lon="-1.68916">
        <ele>958.176</ele>
        <time>2013-05-07T17:12:00Z</time>
      </trkpt>
      <trkpt lat="41.74436" lon="-1.68924">
        <ele>956.213</ele>
        <time>2013-05-07T17:11:47Z</time>
      </trkpt>
      <trkpt lat="41.74448" lon="-1.68931">
        <ele>954.31</ele>
        <time>2013-05-07T17:11:33Z</time>
      </trkpt>
      <trkpt lat="41.74459" lon="-1.68938">
        <ele>951.878</ele>
        <time>2013-05-07T17:11:18Z</time>
      </trkpt>
      <trkpt lat="41.74469" lon="-1.68947">
        <ele>950.411</ele>
        <time>2013-05-07T17:11:06Z</time>
      </trkpt>
      <trkpt lat="41.7448" lon="-1.68952">
        <ele>948.087</ele>
        <time>2013-05-07T17:10:53Z</time>
      </trkpt>
      <trkpt lat="41.74493" lon="-1.68958">
        <ele>945.642</ele>
        <time>2013-05-07T17:10:38Z</time>
      </trkpt>
      <trkpt lat="41.74498" lon="-1.6896">
        <ele>944.626</ele>
        <time>2013-05-07T17:10:33Z</time>
      </trkpt>
      <trkpt lat="41.74511" lon="-1.68966">
        <ele>942.708</ele>
        <time>2013-05-07T17:10:19Z</time>
      </trkpt>
      <trkpt lat="41.74519" lon="-1.68969">
        <ele>941.349</ele>
        <time>2013-05-07T17:10:11Z</time>
      </trkpt>
      <trkpt lat="41.74532" lon="-1.68974">
        <ele>938.43</ele>
        <time>2013-05-07T17:09:58Z</time>
      </trkpt>
      <trkpt lat="41.74549" lon="-1.68981">
        <ele>936.972</ele>
        <time>2013-05-07T17:09:43Z</time>
      </trkpt>
      <trkpt lat="41.7456" lon="-1.68985">
        <ele>935.037</ele>
        <time>2013-05-07T17:09:33Z</time>
      </trkpt>
      <trkpt lat="41.74576" lon="-1.6899">
        <ele>932.664</ele>
        <time>2013-05-07T17:09:18Z</time>
      </trkpt>
      <trkpt lat="41.74591" lon="-1.69001">
        <ele>930.251</ele>
        <time>2013-05-07T17:09:03Z</time>
      </trkpt>
      <trkpt lat="41.74604" lon="-1.69016">
        <ele>927.839</ele>
        <time>2013-05-07T17:08:49Z</time>
      </trkpt>
      <trkpt lat="41.74615" lon="-1.69029">
        <ele>925.912</ele>
        <time>2013-05-07T17:08:37Z</time>
      </trkpt>
      <trkpt lat="41.74628" lon="-1.69044">
        <ele>923.518</ele>
        <time>2013-05-07T17:08:22Z</time>
      </trkpt>
      <trkpt lat="41.74633" lon="-1.69047">
        <ele>922.598</ele>
        <time>2013-05-07T17:08:18Z</time>
      </trkpt>
      <trkpt lat="41.74636" lon="-1.69052">
        <ele>922.017</ele>
        <time>2013-05-07T17:08:14Z</time>
      </trkpt>
      <trkpt lat="41.74641" lon="-1.69057">
        <ele>921.108</ele>
        <time>2013-05-07T17:08:08Z</time>
      </trkpt>
      <trkpt lat="41.74646" lon="-1.69063">
        <ele>920.692</ele>
        <time>2013-05-07T17:08:02Z</time>
      </trkpt>
      <trkpt lat="41.74658" lon="-1.69076">
        <ele>918.773</ele>
        <time>2013-05-07T17:07:50Z</time>
      </trkpt>
      <trkpt lat="41.7467" lon="-1.6909">
        <ele>917.285</ele>
        <time>2013-05-07T17:07:36Z</time>
      </trkpt>
      <trkpt lat="41.74682" lon="-1.69099">
        <ele>914.81</ele>
        <time>2013-05-07T17:07:24Z</time>
      </trkpt>
      <trkpt lat="41.74697" lon="-1.69108">
        <ele>912.467</ele>
        <time>2013-05-07T17:07:08Z</time>
      </trkpt>
      <trkpt lat="41.74709" lon="-1.69116">
        <ele>910.524</ele>
        <time>2013-05-07T17:06:56Z</time>
      </trkpt>
      <trkpt lat="41.74722" lon="-1.69123">
        <ele>908.112</ele>
        <time>2013-05-07T17:06:43Z</time>
      </trkpt>
      <trkpt lat="41.74736" lon="-1.6913">
        <ele>906.235</ele>
        <time>2013-05-07T17:06:31Z</time>
      </trkpt>
      <trkpt lat="41.74752" lon="-1.69138">
        <ele>904.364</ele>
        <time>2013-05-07T17:06:17Z</time>
      </trkpt>
      <trkpt lat="41.74772" lon="-1.69149">
        <ele>900.406</ele>
        <time>2013-05-07T17:06:01Z</time>
      </trkpt>
      <trkpt lat="41.74787" lon="-1.69158">
        <ele>898.516</ele>
        <time>2013-05-07T17:05:49Z</time>
      </trkpt>
      <trkpt lat="41.74806" lon="-1.69166">
        <ele>896.108</ele>
        <time>2013-05-07T17:05:34Z</time>
      </trkpt>
      <trkpt lat="41.74828" lon="-1.69175">
        <ele>894.277</ele>
        <time>2013-05-07T17:05:18Z</time>
      </trkpt>
      <trkpt lat="41.74847" lon="-1.69181">
        <ele>891.868</ele>
        <time>2013-05-07T17:05:03Z</time>
      </trkpt>
      <trkpt lat="41.74864" lon="-1.69183">
        <ele>890.34</ele>
        <time>2013-05-07T17:04:51Z</time>
      </trkpt>
      <trkpt lat="41.74882" lon="-1.69187">
        <ele>888.435</ele>
        <time>2013-05-07T17:04:37Z</time>
      </trkpt>
      <trkpt lat="41.74899" lon="-1.69188">
        <ele>887.082</ele>
        <time>2013-05-07T17:04:24Z</time>
      </trkpt>
      <trkpt lat="41.74908" lon="-1.69191">
        <ele>885.579</ele>
        <time>2013-05-07T17:04:16Z</time>
      </trkpt>
      <trkpt lat="41.74929" lon="-1.69193">
        <ele>884.187</ele>
        <time>2013-05-07T17:04:02Z</time>
      </trkpt>
      <trkpt lat="41.74953" lon="-1.69199">
        <ele>883.67</ele>
        <time>2013-05-07T17:03:50Z</time>
      </trkpt>
      <trkpt lat="41.74974" lon="-1.69214">
        <ele>881.758</ele>
        <time>2013-05-07T17:03:37Z</time>
      </trkpt>
      <trkpt lat="41.74991" lon="-1.69227">
        <ele>879.752</ele>
        <time>2013-05-07T17:03:22Z</time>
      </trkpt>
      <trkpt lat="41.75005" lon="-1.69246">
        <ele>877.817</ele>
        <time>2013-05-07T17:03:06Z</time>
      </trkpt>
      <trkpt lat="41.75011" lon="-1.69254">
        <ele>876.908</ele>
        <time>2013-05-07T17:02:59Z</time>
      </trkpt>
      <trkpt lat="41.75023" lon="-1.69266">
        <ele>875.456</ele>
        <time>2013-05-07T17:02:46Z</time>
      </trkpt>
      <trkpt lat="41.75035" lon="-1.69278">
        <ele>873.547</ele>
        <time>2013-05-07T17:02:34Z</time>
      </trkpt>
      <trkpt lat="41.75052" lon="-1.69292">
        <ele>870.659</ele>
        <time>2013-05-07T17:02:19Z</time>
      </trkpt>
      <trkpt lat="41.75064" lon="-1.69305">
        <ele>868.714</ele>
        <time>2013-05-07T17:02:07Z</time>
      </trkpt>
      <trkpt lat="41.75077" lon="-1.6934">
        <ele>866.351</ele>
        <time>2013-05-07T17:01:51Z</time>
      </trkpt>
      <trkpt lat="41.75081" lon="-1.69386">
        <ele>864.428</ele>
        <time>2013-05-07T17:01:34Z</time>
      </trkpt>
      <trkpt lat="41.7508" lon="-1.69432">
        <ele>862.456</ele>
        <time>2013-05-07T17:01:18Z</time>
      </trkpt>
      <trkpt lat="41.75079" lon="-1.69472">
        <ele>861.519</ele>
        <time>2013-05-07T17:01:05Z</time>
      </trkpt>
      <trkpt lat="41.75087" lon="-1.6951">
        <ele>860.029</ele>
        <time>2013-05-07T17:00:52Z</time>
      </trkpt>
      <trkpt lat="41.75104" lon="-1.69533">
        <ele>858.1</ele>
        <time>2013-05-07T17:00:40Z</time>
      </trkpt>
      <trkpt lat="41.75124" lon="-1.69551">
        <ele>856.22</ele>
        <time>2013-05-07T17:00:28Z</time>
      </trkpt>
      <trkpt lat="41.75148" lon="-1.69572">
        <ele>854.308</ele>
        <time>2013-05-07T17:00:17Z</time>
      </trkpt>
      <trkpt lat="41.75166" lon="-1.69594">
        <ele>852.843</ele>
        <time>2013-05-07T17:00:12Z</time>
      </trkpt>
      <trkpt lat="41.75176" lon="-1.69626">
        <ele>852.834</ele>
        <time>2013-05-07T17:00:08Z</time>
      </trkpt>
      <trkpt lat="41.75184" lon="-1.69671">
        <ele>853.846</ele>
        <time>2013-05-07T17:00:03Z</time>
      </trkpt>
      <trkpt lat="41.75191" lon="-1.69708">
        <ele>856.261</ele>
        <time>2013-05-07T16:59:59Z</time>
      </trkpt>
      <trkpt lat="41.75195" lon="-1.69744">
        <ele>860.058</ele>
        <time>2013-05-07T16:59:55Z</time>
      </trkpt>
      <trkpt lat="41.75196" lon="-1.69772">
        <ele>863.975</ele>
        <time>2013-05-07T16:59:52Z</time>
      </trkpt>
      <trkpt lat="41.75197" lon="-1.69805">
        <ele>867.733</ele>
        <time>2013-05-07T16:59:49Z</time>
      </trkpt>
      <trkpt lat="41.75198" lon="-1.69836">
        <ele>871.136</ele>
        <time>2013-05-07T16:59:46Z</time>
      </trkpt>
      <trkpt lat="41.75202" lon="-1.69874">
        <ele>874.923</ele>
        <time>2013-05-07T16:59:42Z</time>
      </trkpt>
      <trkpt lat="41.75205" lon="-1.69889">
        <ele>875.983</ele>
        <time>2013-05-07T16:59:40Z</time>
      </trkpt>
      <trkpt lat="41.75209" lon="-1.69902">
        <ele>876.911</ele>
        <time>2013-05-07T16:59:38Z</time>
      </trkpt>
      <trkpt lat="41.75213" lon="-1.6994">
        <ele>879.708</ele>
        <time>2013-05-07T16:59:33Z</time>
      </trkpt>
      <trkpt lat="41.75212" lon="-1.69954">
        <ele>881.213</ele>
        <time>2013-05-07T16:59:31Z</time>
      </trkpt>
      <trkpt lat="41.75211" lon="-1.69986">
        <ele>884.624</ele>
        <time>2013-05-07T16:59:27Z</time>
      </trkpt>
      <trkpt lat="41.75211" lon="-1.70022">
        <ele>888.416</ele>
        <time>2013-05-07T16:59:23Z</time>
      </trkpt>
      <trkpt lat="41.75215" lon="-1.70071">
        <ele>892.251</ele>
        <time>2013-05-07T16:59:18Z</time>
      </trkpt>
      <trkpt lat="41.75216" lon="-1.70116">
        <ele>895.168</ele>
        <time>2013-05-07T16:59:13Z</time>
      </trkpt>
      <trkpt lat="41.75228" lon="-1.70234">
        <ele>897.575</ele>
        <time>2013-05-07T16:58:59Z</time>
      </trkpt>
      <trkpt lat="41.75236" lon="-1.70257">
        <ele>898.083</ele>
        <time>2013-05-07T16:58:56Z</time>
      </trkpt>
      <trkpt lat="41.75281" lon="-1.70367">
        <ele>899.516</ele>
        <time>2013-05-07T16:58:40Z</time>
      </trkpt>
      <trkpt lat="41.75322" lon="-1.70429">
        <ele>901.975</ele>
        <time>2013-05-07T16:58:29Z</time>
      </trkpt>
      <trkpt lat="41.75369" lon="-1.70477">
        <ele>901.928</ele>
        <time>2013-05-07T16:58:15Z</time>
      </trkpt>
      <trkpt lat="41.75405" lon="-1.70512">
        <ele>901.92</ele>
        <time>2013-05-07T16:58:03Z</time>
      </trkpt>
      <trkpt lat="41.75424" lon="-1.70537">
        <ele>901.408</ele>
        <time>2013-05-07T16:57:53Z</time>
      </trkpt>
      <trkpt lat="41.75448" lon="-1.70558">
        <ele>899.598</ele>
        <time>2013-05-07T16:57:40Z</time>
      </trkpt>
      <trkpt lat="41.75469" lon="-1.70569">
        <ele>896.629</ele>
        <time>2013-05-07T16:57:27Z</time>
      </trkpt>
      <trkpt lat="41.75485" lon="-1.70584">
        <ele>894.631</ele>
        <time>2013-05-07T16:57:18Z</time>
      </trkpt>
      <trkpt lat="41.75516" lon="-1.70599">
        <ele>893.766</ele>
        <time>2013-05-07T16:57:09Z</time>
      </trkpt>
      <trkpt lat="41.75563" lon="-1.70596">
        <ele>894.293</ele>
        <time>2013-05-07T16:56:58Z</time>
      </trkpt>
      <trkpt lat="41.7558" lon="-1.70599">
        <ele>895.11</ele>
        <time>2013-05-07T16:56:54Z</time>
      </trkpt>
      <trkpt lat="41.75598" lon="-1.70601">
        <ele>895.178</ele>
        <time>2013-05-07T16:56:49Z</time>
      </trkpt>
      <trkpt lat="41.75629" lon="-1.70601">
        <ele>894.641</ele>
        <time>2013-05-07T16:56:37Z</time>
      </trkpt>
      <trkpt lat="41.75661" lon="-1.70582">
        <ele>891.856</ele>
        <time>2013-05-07T16:56:23Z</time>
      </trkpt>
      <trkpt lat="41.75691" lon="-1.70563">
        <ele>890.359</ele>
        <time>2013-05-07T16:56:09Z</time>
      </trkpt>
      <trkpt lat="41.75724" lon="-1.7054">
        <ele>888.414</ele>
        <time>2013-05-07T16:55:55Z</time>
      </trkpt>
      <trkpt lat="41.75761" lon="-1.70501">
        <ele>886.508</ele>
        <time>2013-05-07T16:55:38Z</time>
      </trkpt>
      <trkpt lat="41.7579" lon="-1.70468">
        <ele>884.696</ele>
        <time>2013-05-07T16:55:23Z</time>
      </trkpt>
      <trkpt lat="41.75807" lon="-1.70445">
        <ele>883.667</ele>
        <time>2013-05-07T16:55:12Z</time>
      </trkpt>
      <trkpt lat="41.75826" lon="-1.70424">
        <ele>882.679</ele>
        <time>2013-05-07T16:55:02Z</time>
      </trkpt>
      <trkpt lat="41.75847" lon="-1.70397">
        <ele>881.234</ele>
        <time>2013-05-07T16:54:52Z</time>
      </trkpt>
      <trkpt lat="41.75865" lon="-1.70376">
        <ele>880.271</ele>
        <time>2013-05-07T16:54:41Z</time>
      </trkpt>
      <trkpt lat="41.75886" lon="-1.70351">
        <ele>878.888</ele>
        <time>2013-05-07T16:54:30Z</time>
      </trkpt>
      <trkpt lat="41.75911" lon="-1.70319">
        <ele>878.346</ele>
        <time>2013-05-07T16:54:18Z</time>
      </trkpt>
      <trkpt lat="41.7593" lon="-1.70297">
        <ele>877.329</ele>
        <time>2013-05-07T16:54:07Z</time>
      </trkpt>
      <trkpt lat="41.75955" lon="-1.70268">
        <ele>876.494</ele>
        <time>2013-05-07T16:53:52Z</time>
      </trkpt>
      <trkpt lat="41.75981" lon="-1.70247">
        <ele>874.957</ele>
        <time>2013-05-07T16:53:38Z</time>
      </trkpt>
      <trkpt lat="41.76008" lon="-1.70236">
        <ele>874.022</ele>
        <time>2013-05-07T16:53:25Z</time>
      </trkpt>
      <trkpt lat="41.7604" lon="-1.70224">
        <ele>872.508</ele>
        <time>2013-05-07T16:53:08Z</time>
      </trkpt>
      <trkpt lat="41.76066" lon="-1.70206">
        <ele>871.14</ele>
        <time>2013-05-07T16:52:53Z</time>
      </trkpt>
      <trkpt lat="41.76087" lon="-1.70191">
        <ele>869.781</ele>
        <time>2013-05-07T16:52:40Z</time>
      </trkpt>
      <trkpt lat="41.76114" lon="-1.70172">
        <ele>867.383</ele>
        <time>2013-05-07T16:52:23Z</time>
      </trkpt>
      <trkpt lat="41.76131" lon="-1.70159">
        <ele>866.898</ele>
        <time>2013-05-07T16:52:12Z</time>
      </trkpt>
      <trkpt lat="41.76154" lon="-1.70142">
        <ele>864.875</ele>
        <time>2013-05-07T16:51:59Z</time>
      </trkpt>
      <trkpt lat="41.76176" lon="-1.70125">
        <ele>863.922</ele>
        <time>2013-05-07T16:51:47Z</time>
      </trkpt>
      <trkpt lat="41.76201" lon="-1.70108">
        <ele>862.41</ele>
        <time>2013-05-07T16:51:34Z</time>
      </trkpt>
      <trkpt lat="41.76227" lon="-1.70091">
        <ele>861.063</ele>
        <time>2013-05-07T16:51:20Z</time>
      </trkpt>
      <trkpt lat="41.76252" lon="-1.70079">
        <ele>859.176</ele>
        <time>2013-05-07T16:51:07Z</time>
      </trkpt>
      <trkpt lat="41.76274" lon="-1.70065">
        <ele>858.19</ele>
        <time>2013-05-07T16:50:55Z</time>
      </trkpt>
      <trkpt lat="41.76294" lon="-1.7005">
        <ele>857.219</ele>
        <time>2013-05-07T16:50:44Z</time>
      </trkpt>
      <trkpt lat="41.76311" lon="-1.70032">
        <ele>856.208</ele>
        <time>2013-05-07T16:50:33Z</time>
      </trkpt>
      <trkpt lat="41.76335" lon="-1.70014">
        <ele>854.378</ele>
        <time>2013-05-07T16:50:20Z</time>
      </trkpt>
      <trkpt lat="41.76358" lon="-1.69998">
        <ele>852.869</ele>
        <time>2013-05-07T16:50:08Z</time>
      </trkpt>
      <trkpt lat="41.76391" lon="-1.69979">
        <ele>851.951</ele>
        <time>2013-05-07T16:49:53Z</time>
      </trkpt>
      <trkpt lat="41.76435" lon="-1.69956">
        <ele>850.496</ele>
        <time>2013-05-07T16:49:35Z</time>
      </trkpt>
      <trkpt lat="41.76472" lon="-1.69939">
        <ele>849.523</ele>
        <time>2013-05-07T16:49:20Z</time>
      </trkpt>
      <trkpt lat="41.76504" lon="-1.69924">
        <ele>848.58</ele>
        <time>2013-05-07T16:49:07Z</time>
      </trkpt>
      <trkpt lat="41.76532" lon="-1.69912">
        <ele>847.558</ele>
        <time>2013-05-07T16:48:55Z</time>
      </trkpt>
      <trkpt lat="41.7656" lon="-1.69904">
        <ele>846.131</ele>
        <time>2013-05-07T16:48:43Z</time>
      </trkpt>
      <trkpt lat="41.76588" lon="-1.69894">
        <ele>844.258</ele>
        <time>2013-05-07T16:48:29Z</time>
      </trkpt>
      <trkpt lat="41.76609" lon="-1.69884">
        <ele>843.252</ele>
        <time>2013-05-07T16:48:17Z</time>
      </trkpt>
      <trkpt lat="41.7663" lon="-1.6987">
        <ele>841.317</ele>
        <time>2013-05-07T16:48:06Z</time>
      </trkpt>
      <trkpt lat="41.76648" lon="-1.69856">
        <ele>840.308</ele>
        <time>2013-05-07T16:47:56Z</time>
      </trkpt>
      <trkpt lat="41.76675" lon="-1.69841">
        <ele>838.426</ele>
        <time>2013-05-07T16:47:42Z</time>
      </trkpt>
      <trkpt lat="41.76698" lon="-1.69824">
        <ele>837.547</ele>
        <time>2013-05-07T16:47:30Z</time>
      </trkpt>
      <trkpt lat="41.76719" lon="-1.69807">
        <ele>836.099</ele>
        <time>2013-05-07T16:47:19Z</time>
      </trkpt>
      <trkpt lat="41.76747" lon="-1.69792">
        <ele>835.084</ele>
        <time>2013-05-07T16:47:07Z</time>
      </trkpt>
      <trkpt lat="41.76773" lon="-1.69785">
        <ele>834.161</ele>
        <time>2013-05-07T16:46:56Z</time>
      </trkpt>
      <trkpt lat="41.76814" lon="-1.6978">
        <ele>831.718</ele>
        <time>2013-05-07T16:46:39Z</time>
      </trkpt>
      <trkpt lat="41.76854" lon="-1.69775">
        <ele>830.736</ele>
        <time>2013-05-07T16:46:25Z</time>
      </trkpt>
      <trkpt lat="41.76896" lon="-1.69777">
        <ele>830.289</ele>
        <time>2013-05-07T16:46:11Z</time>
      </trkpt>
      <trkpt lat="41.76932" lon="-1.69778">
        <ele>828.874</ele>
        <time>2013-05-07T16:45:56Z</time>
      </trkpt>
      <trkpt lat="41.76956" lon="-1.69784">
        <ele>828.356</ele>
        <time>2013-05-07T16:45:45Z</time>
      </trkpt>
      <trkpt lat="41.76989" lon="-1.69794">
        <ele>826.921</ele>
        <time>2013-05-07T16:45:31Z</time>
      </trkpt>
      <trkpt lat="41.77012" lon="-1.69805">
        <ele>825.908</ele>
        <time>2013-05-07T16:45:21Z</time>
      </trkpt>
      <trkpt lat="41.77031" lon="-1.69826">
        <ele>825.498</ele>
        <time>2013-05-07T16:45:10Z</time>
      </trkpt>
      <trkpt lat="41.77045" lon="-1.69843">
        <ele>824.589</ele>
        <time>2013-05-07T16:44:58Z</time>
      </trkpt>
      <trkpt lat="41.77056" lon="-1.69853">
        <ele>823.581</ele>
        <time>2013-05-07T16:44:47Z</time>
      </trkpt>
      <trkpt lat="41.77071" lon="-1.69865">
        <ele>822.646</ele>
        <time>2013-05-07T16:44:32Z</time>
      </trkpt>
      <trkpt lat="41.77083" lon="-1.6987">
        <ele>820.163</ele>
        <time>2013-05-07T16:44:21Z</time>
      </trkpt>
      <trkpt lat="41.77102" lon="-1.69877">
        <ele>817.74</ele>
        <time>2013-05-07T16:44:05Z</time>
      </trkpt>
      <trkpt lat="41.7712" lon="-1.6988">
        <ele>815.878</ele>
        <time>2013-05-07T16:43:50Z</time>
      </trkpt>
      <trkpt lat="41.77138" lon="-1.69882">
        <ele>813.421</ele>
        <time>2013-05-07T16:43:35Z</time>
      </trkpt>
      <trkpt lat="41.77146" lon="-1.69882">
        <ele>812.543</ele>
        <time>2013-05-07T16:43:28Z</time>
      </trkpt>
      <trkpt lat="41.77147" lon="-1.69883">
        <ele>812.564</ele>
        <time>2013-05-07T16:43:27Z</time>
      </trkpt>
      <trkpt lat="41.77163" lon="-1.69884">
        <ele>810.51</ele>
        <time>2013-05-07T16:43:13Z</time>
      </trkpt>
      <trkpt lat="41.77176" lon="-1.69893">
        <ele>808.108</ele>
        <time>2013-05-07T16:43:00Z</time>
      </trkpt>
      <trkpt lat="41.77178" lon="-1.69893">
        <ele>807.645</ele>
        <time>2013-05-07T16:42:58Z</time>
      </trkpt>
      <trkpt lat="41.77182" lon="-1.69894">
        <ele>807.276</ele>
        <time>2013-05-07T16:42:55Z</time>
      </trkpt>
      <trkpt lat="41.77189" lon="-1.69902">
        <ele>805.738</ele>
        <time>2013-05-07T16:42:48Z</time>
      </trkpt>
      <trkpt lat="41.7721" lon="-1.69913">
        <ele>803.313</ele>
        <time>2013-05-07T16:42:30Z</time>
      </trkpt>
      <trkpt lat="41.77229" lon="-1.69927">
        <ele>801.47</ele>
        <time>2013-05-07T16:42:14Z</time>
      </trkpt>
      <trkpt lat="41.77244" lon="-1.69936">
        <ele>800.067</ele>
        <time>2013-05-07T16:42:01Z</time>
      </trkpt>
      <trkpt lat="41.77262" lon="-1.69944">
        <ele>798.065</ele>
        <time>2013-05-07T16:41:46Z</time>
      </trkpt>
      <trkpt lat="41.7728" lon="-1.69949">
        <ele>795.298</ele>
        <time>2013-05-07T16:41:31Z</time>
      </trkpt>
      <trkpt lat="41.77297" lon="-1.69954">
        <ele>792.768</ele>
        <time>2013-05-07T16:41:17Z</time>
      </trkpt>
      <trkpt lat="41.77309" lon="-1.69964">
        <ele>790.842</ele>
        <time>2013-05-07T16:41:09Z</time>
      </trkpt>
      <trkpt lat="41.77328" lon="-1.69982">
        <ele>789.426</ele>
        <time>2013-05-07T16:41:03Z</time>
      </trkpt>
      <trkpt lat="41.77358" lon="-1.69992">
        <ele>789.408</ele>
        <time>2013-05-07T16:40:57Z</time>
      </trkpt>
      <trkpt lat="41.77384" lon="-1.6999">
        <ele>790.817</ele>
        <time>2013-05-07T16:40:53Z</time>
      </trkpt>
      <trkpt lat="41.7739" lon="-1.69985">
        <ele>791.828</ele>
        <time>2013-05-07T16:40:52Z</time>
      </trkpt>
      <trkpt lat="41.77419" lon="-1.69961">
        <ele>795.28</ele>
        <time>2013-05-07T16:40:48Z</time>
      </trkpt>
      <trkpt lat="41.77452" lon="-1.69936">
        <ele>799.015</ele>
        <time>2013-05-07T16:40:43Z</time>
      </trkpt>
      <trkpt lat="41.77489" lon="-1.69911">
        <ele>802.872</ele>
        <time>2013-05-07T16:40:38Z</time>
      </trkpt>
      <trkpt lat="41.77529" lon="-1.69874">
        <ele>807.299</ele>
        <time>2013-05-07T16:40:32Z</time>
      </trkpt>
      <trkpt lat="41.77558" lon="-1.69868">
        <ele>810.197</ele>
        <time>2013-05-07T16:40:27Z</time>
      </trkpt>
      <trkpt lat="41.77586" lon="-1.69881">
        <ele>811.56</ele>
        <time>2013-05-07T16:40:21Z</time>
      </trkpt>
      <trkpt lat="41.77624" lon="-1.69901">
        <ele>812.582</ele>
        <time>2013-05-07T16:40:10Z</time>
      </trkpt>
      <trkpt lat="41.77657" lon="-1.69913">
        <ele>812.543</ele>
        <time>2013-05-07T16:40:00Z</time>
      </trkpt>
      <trkpt lat="41.77696" lon="-1.69929">
        <ele>812.517</ele>
        <time>2013-05-07T16:39:47Z</time>
      </trkpt>
      <trkpt lat="41.7773" lon="-1.69935">
        <ele>812.008</ele>
        <time>2013-05-07T16:39:36Z</time>
      </trkpt>
      <trkpt lat="41.77769" lon="-1.69939">
        <ele>811.089</ele>
        <time>2013-05-07T16:39:23Z</time>
      </trkpt>
      <trkpt lat="41.77816" lon="-1.69946">
        <ele>810.52</ele>
        <time>2013-05-07T16:39:07Z</time>
      </trkpt>
      <trkpt lat="41.77854" lon="-1.69949">
        <ele>809.682</ele>
        <time>2013-05-07T16:38:55Z</time>
      </trkpt>
      <trkpt lat="41.77892" lon="-1.69956">
        <ele>809.687</ele>
        <time>2013-05-07T16:38:43Z</time>
      </trkpt>
      <trkpt lat="41.77919" lon="-1.69959">
        <ele>809.144</ele>
        <time>2013-05-07T16:38:33Z</time>
      </trkpt>
      <trkpt lat="41.77946" lon="-1.69965">
        <ele>809.121</ele>
        <time>2013-05-07T16:38:23Z</time>
      </trkpt>
      <trkpt lat="41.77976" lon="-1.69969">
        <ele>807.669</ele>
        <time>2013-05-07T16:38:09Z</time>
      </trkpt>
      <trkpt lat="41.78001" lon="-1.69967">
        <ele>806.792</ele>
        <time>2013-05-07T16:37:56Z</time>
      </trkpt>
      <trkpt lat="41.78009" lon="-1.69967">
        <ele>806.247</ele>
        <time>2013-05-07T16:37:51Z</time>
      </trkpt>
      <trkpt lat="41.78022" lon="-1.69966">
        <ele>805.229</ele>
        <time>2013-05-07T16:37:43Z</time>
      </trkpt>
      <trkpt lat="41.78047" lon="-1.69962">
        <ele>803.821</ele>
        <time>2013-05-07T16:37:30Z</time>
      </trkpt>
      <trkpt lat="41.7807" lon="-1.69958">
        <ele>802.408</ele>
        <time>2013-05-07T16:37:17Z</time>
      </trkpt>
      <trkpt lat="41.781" lon="-1.69952">
        <ele>800.945</ele>
        <time>2013-05-07T16:37:01Z</time>
      </trkpt>
      <trkpt lat="41.7812" lon="-1.69949">
        <ele>800.086</ele>
        <time>2013-05-07T16:36:50Z</time>
      </trkpt>
      <trkpt lat="41.78142" lon="-1.69953">
        <ele>798.558</ele>
        <time>2013-05-07T16:36:37Z</time>
      </trkpt>
      <trkpt lat="41.78155" lon="-1.69958">
        <ele>797.643</ele>
        <time>2013-05-07T16:36:27Z</time>
      </trkpt>
      <trkpt lat="41.78157" lon="-1.69959">
        <ele>797.66</ele>
        <time>2013-05-07T16:36:13Z</time>
      </trkpt>
      <trkpt lat="41.78161" lon="-1.69958">
        <ele>797.667</ele>
        <time>2013-05-07T16:35:46Z</time>
      </trkpt>
      <trkpt lat="41.78164" lon="-1.69958">
        <ele>797.635</ele>
        <time>2013-05-07T16:35:07Z</time>
      </trkpt>
      <trkpt lat="41.78171" lon="-1.69965">
        <ele>797.198</ele>
        <time>2013-05-07T16:34:58Z</time>
      </trkpt>
      <trkpt lat="41.78179" lon="-1.69968">
        <ele>796.188</ele>
        <time>2013-05-07T16:34:53Z</time>
      </trkpt>
      <trkpt lat="41.78196" lon="-1.69976">
        <ele>794.724</ele>
        <time>2013-05-07T16:34:44Z</time>
      </trkpt>
      <trkpt lat="41.78198" lon="-1.69977">
        <ele>794.726</ele>
        <time>2013-05-07T16:34:43Z</time>
      </trkpt>
      <trkpt lat="41.78199" lon="-1.69978">
        <ele>794.708</ele>
        <time>2013-05-07T16:34:42Z</time>
      </trkpt>
      <trkpt lat="41.78201" lon="-1.69979">
        <ele>794.229</ele>
        <time>2013-05-07T16:34:41Z</time>
      </trkpt>
      <trkpt lat="41.78202" lon="-1.6998">
        <ele>794.21</ele>
        <time>2013-05-07T16:34:40Z</time>
      </trkpt>
      <trkpt lat="41.78216" lon="-1.69983">
        <ele>792.762</ele>
        <time>2013-05-07T16:34:32Z</time>
      </trkpt>
      <trkpt lat="41.78218" lon="-1.69984">
        <ele>792.717</ele>
        <time>2013-05-07T16:34:31Z</time>
      </trkpt>
      <trkpt lat="41.78219" lon="-1.69985">
        <ele>792.374</ele>
        <time>2013-05-07T16:34:30Z</time>
      </trkpt>
      <trkpt lat="41.78223" lon="-1.69986">
        <ele>791.821</ele>
        <time>2013-05-07T16:34:28Z</time>
      </trkpt>
      <trkpt lat="41.78241" lon="-1.69991">
        <ele>789.419</ele>
        <time>2013-05-07T16:34:16Z</time>
      </trkpt>
      <trkpt lat="41.78262" lon="-1.69985">
        <ele>787.522</ele>
        <time>2013-05-07T16:34:03Z</time>
      </trkpt>
      <trkpt lat="41.78288" lon="-1.69961">
        <ele>785.187</ele>
        <time>2013-05-07T16:33:46Z</time>
      </trkpt>
      <trkpt lat="41.78308" lon="-1.69942">
        <ele>784.142</ele>
        <time>2013-05-07T16:33:33Z</time>
      </trkpt>
      <trkpt lat="41.78309" lon="-1.69941">
        <ele>783.626</ele>
        <time>2013-05-07T16:33:32Z</time>
      </trkpt>
      <trkpt lat="41.78322" lon="-1.69927">
        <ele>782.708</ele>
        <time>2013-05-07T16:33:22Z</time>
      </trkpt>
      <trkpt lat="41.78323" lon="-1.69927">
        <ele>782.759</ele>
        <time>2013-05-07T16:33:21Z</time>
      </trkpt>
      <trkpt lat="41.78324" lon="-1.69927">
        <ele>782.72</ele>
        <time>2013-05-07T16:33:20Z</time>
      </trkpt>
      <trkpt lat="41.78326" lon="-1.69925">
        <ele>782.742</ele>
        <time>2013-05-07T16:32:35Z</time>
      </trkpt>
      <trkpt lat="41.78327" lon="-1.69926">
        <ele>782.797</ele>
        <time>2013-05-07T16:32:16Z</time>
      </trkpt>
      <trkpt lat="41.78329" lon="-1.69921">
        <ele>782.294</ele>
        <time>2013-05-07T16:32:04Z</time>
      </trkpt>
      <trkpt lat="41.7834" lon="-1.69901">
        <ele>781.731</ele>
        <time>2013-05-07T16:31:51Z</time>
      </trkpt>
      <trkpt lat="41.78351" lon="-1.6988">
        <ele>781.269</ele>
        <time>2013-05-07T16:31:39Z</time>
      </trkpt>
      <trkpt lat="41.78352" lon="-1.69879">
        <ele>781.212</ele>
        <time>2013-05-07T16:31:38Z</time>
      </trkpt>
      <trkpt lat="41.78353" lon="-1.69878">
        <ele>780.746</ele>
        <time>2013-05-07T16:31:37Z</time>
      </trkpt>
      <trkpt lat="41.78362" lon="-1.69869">
        <ele>779.888</ele>
        <time>2013-05-07T16:31:30Z</time>
      </trkpt>
      <trkpt lat="41.78383" lon="-1.69851">
        <ele>778.816</ele>
        <time>2013-05-07T16:31:16Z</time>
      </trkpt>
      <trkpt lat="41.78404" lon="-1.69834">
        <ele>776.908</ele>
        <time>2013-05-07T16:31:02Z</time>
      </trkpt>
      <trkpt lat="41.78424" lon="-1.69819">
        <ele>775.455</ele>
        <time>2013-05-07T16:30:49Z</time>
      </trkpt>
      <trkpt lat="41.78443" lon="-1.69803">
        <ele>774.096</ele>
        <time>2013-05-07T16:30:36Z</time>
      </trkpt>
      <trkpt lat="41.7846" lon="-1.69786">
        <ele>772.648</ele>
        <time>2013-05-07T16:30:23Z</time>
      </trkpt>
      <trkpt lat="41.78481" lon="-1.69767">
        <ele>771.663</ele>
        <time>2013-05-07T16:30:08Z</time>
      </trkpt>
      <trkpt lat="41.78499" lon="-1.69749">
        <ele>770.22</ele>
        <time>2013-05-07T16:29:55Z</time>
      </trkpt>
      <trkpt lat="41.78515" lon="-1.69733">
        <ele>769.277</ele>
        <time>2013-05-07T16:29:42Z</time>
      </trkpt>
      <trkpt lat="41.78517" lon="-1.69732">
        <ele>769.255</ele>
        <time>2013-05-07T16:29:41Z</time>
      </trkpt>
      <trkpt lat="41.78537" lon="-1.69719">
        <ele>768.258</ele>
        <time>2013-05-07T16:29:30Z</time>
      </trkpt>
      <trkpt lat="41.78557" lon="-1.69699">
        <ele>767.836</ele>
        <time>2013-05-07T16:29:18Z</time>
      </trkpt>
      <trkpt lat="41.78569" lon="-1.69681">
        <ele>766.817</ele>
        <time>2013-05-07T16:29:07Z</time>
      </trkpt>
      <trkpt lat="41.78583" lon="-1.69661">
        <ele>765.818</ele>
        <time>2013-05-07T16:28:54Z</time>
      </trkpt>
      <trkpt lat="41.78595" lon="-1.69644">
        <ele>764.908</ele>
        <time>2013-05-07T16:28:44Z</time>
      </trkpt>
      <trkpt lat="41.78607" lon="-1.69627">
        <ele>763.994</ele>
        <time>2013-05-07T16:28:33Z</time>
      </trkpt>
      <trkpt lat="41.78608" lon="-1.69626">
        <ele>763.925</ele>
        <time>2013-05-07T16:28:32Z</time>
      </trkpt>
      <trkpt lat="41.78609" lon="-1.69624">
        <ele>763.477</ele>
        <time>2013-05-07T16:28:31Z</time>
      </trkpt>
      <trkpt lat="41.78611" lon="-1.69622">
        <ele>763.452</ele>
        <time>2013-05-07T16:28:30Z</time>
      </trkpt>
      <trkpt lat="41.78611" lon="-1.69621">
        <ele>763.499</ele>
        <time>2013-05-07T16:28:29Z</time>
      </trkpt>
      <trkpt lat="41.78612" lon="-1.69619">
        <ele>763.426</ele>
        <time>2013-05-07T16:28:28Z</time>
      </trkpt>
      <trkpt lat="41.78613" lon="-1.69617">
        <ele>762.024</ele>
        <time>2013-05-07T16:28:27Z</time>
      </trkpt>
      <trkpt lat="41.78613" lon="-1.69616">
        <ele>762.097</ele>
        <time>2013-05-07T16:28:26Z</time>
      </trkpt>
      <trkpt lat="41.78614" lon="-1.69614">
        <ele>762.036</ele>
        <time>2013-05-07T16:28:25Z</time>
      </trkpt>
      <trkpt lat="41.78621" lon="-1.69603">
        <ele>762.017</ele>
        <time>2013-05-07T16:28:16Z</time>
      </trkpt>
      <trkpt lat="41.78623" lon="-1.69603">
        <ele>762.018</ele>
        <time>2013-05-07T16:28:14Z</time>
      </trkpt>
      <trkpt lat="41.78624" lon="-1.69603">
        <ele>763.408</ele>
        <time>2013-05-07T16:27:31Z</time>
      </trkpt>
      <trkpt lat="41.78625" lon="-1.69606">
        <ele>763.434</ele>
        <time>2013-05-07T16:27:10Z</time>
      </trkpt>
      <trkpt lat="41.78625" lon="-1.69609">
        <ele>763.455</ele>
        <time>2013-05-07T16:26:54Z</time>
      </trkpt>
      <trkpt lat="41.78626" lon="-1.6961">
        <ele>763.477</ele>
        <time>2013-05-07T16:26:38Z</time>
      </trkpt>
      <trkpt lat="41.78624" lon="-1.69608">
        <ele>763.412</ele>
        <time>2013-05-07T16:26:28Z</time>
      </trkpt>
      <trkpt lat="41.78626" lon="-1.69609">
        <ele>763.429</ele>
        <time>2013-05-07T16:25:58Z</time>
      </trkpt>
      <trkpt lat="41.78628" lon="-1.6961">
        <ele>763.456</ele>
        <time>2013-05-07T16:25:32Z</time>
      </trkpt>
      <trkpt lat="41.7863" lon="-1.69609">
        <ele>762.954</ele>
        <time>2013-05-07T16:25:06Z</time>
      </trkpt>
      <trkpt lat="41.78629" lon="-1.69611">
        <ele>762.977</ele>
        <time>2013-05-07T16:24:05Z</time>
      </trkpt>
      <trkpt lat="41.78627" lon="-1.6961">
        <ele>762.988</ele>
        <time>2013-05-07T16:23:31Z</time>
      </trkpt>
      <trkpt lat="41.78626" lon="-1.69615">
        <ele>762.524</ele>
        <time>2013-05-07T16:23:04Z</time>
      </trkpt>
      <trkpt lat="41.78627" lon="-1.69614">
        <ele>762.526</ele>
        <time>2013-05-07T16:22:13Z</time>
      </trkpt>
      <trkpt lat="41.78626" lon="-1.69616">
        <ele>762.508</ele>
        <time>2013-05-07T16:21:47Z</time>
      </trkpt>
      <trkpt lat="41.78624" lon="-1.69614">
        <ele>762.599</ele>
        <time>2013-05-07T16:21:01Z</time>
      </trkpt>
      <trkpt lat="41.78625" lon="-1.69614">
        <ele>762.51</ele>
        <time>2013-05-07T16:20:36Z</time>
      </trkpt>
      <trkpt lat="41.78629" lon="-1.69611">
        <ele>762.572</ele>
        <time>2013-05-07T16:19:53Z</time>
      </trkpt>
      <trkpt lat="41.78628" lon="-1.69615">
        <ele>762.567</ele>
        <time>2013-05-07T16:19:34Z</time>
      </trkpt>
      <trkpt lat="41.78626" lon="-1.69617">
        <ele>762.574</ele>
        <time>2013-05-07T16:19:14Z</time>
      </trkpt>
      <trkpt lat="41.78625" lon="-1.69616">
        <ele>762.061</ele>
        <time>2013-05-07T16:18:52Z</time>
      </trkpt>
      <trkpt lat="41.78623" lon="-1.69617">
        <ele>762.019</ele>
        <time>2013-05-07T16:18:27Z</time>
      </trkpt>
      <trkpt lat="41.78623" lon="-1.69618">
        <ele>761.562</ele>
        <time>2013-05-07T16:18:11Z</time>
      </trkpt>
      <trkpt lat="41.78624" lon="-1.69618">
        <ele>761.531</ele>
        <time>2013-05-07T16:17:57Z</time>
      </trkpt>
      <trkpt lat="41.78623" lon="-1.69617">
        <ele>761.561</ele>
        <time>2013-05-07T16:17:36Z</time>
      </trkpt>
      <trkpt lat="41.78622" lon="-1.69618">
        <ele>761.507</ele>
        <time>2013-05-07T16:17:20Z</time>
      </trkpt>
      <trkpt lat="41.78621" lon="-1.69618">
        <ele>761.508</ele>
        <time>2013-05-07T16:16:59Z</time>
      </trkpt>
      <trkpt lat="41.78623" lon="-1.69617">
        <ele>761.524</ele>
        <time>2013-05-07T16:16:10Z</time>
      </trkpt>
      <trkpt lat="41.78622" lon="-1.69619">
        <ele>761.525</ele>
        <time>2013-05-07T16:15:54Z</time>
      </trkpt>
      <trkpt lat="41.7862" lon="-1.69618">
        <ele>761.557</ele>
        <time>2013-05-07T16:15:26Z</time>
      </trkpt>
      <trkpt lat="41.78621" lon="-1.69616">
        <ele>761.522</ele>
        <time>2013-05-07T16:14:59Z</time>
      </trkpt>
      <trkpt lat="41.78624" lon="-1.69615">
        <ele>761.549</ele>
        <time>2013-05-07T16:14:39Z</time>
      </trkpt>
      <trkpt lat="41.78627" lon="-1.69616">
        <ele>761.556</ele>
        <time>2013-05-07T16:14:14Z</time>
      </trkpt>
      <trkpt lat="41.78625" lon="-1.69616">
        <ele>761.524</ele>
        <time>2013-05-07T16:13:55Z</time>
      </trkpt>
      <trkpt lat="41.78624" lon="-1.69615">
        <ele>761.597</ele>
        <time>2013-05-07T16:13:31Z</time>
      </trkpt>
      <trkpt lat="41.78626" lon="-1.69611">
        <ele>761.572</ele>
        <time>2013-05-07T16:12:53Z</time>
      </trkpt>
      <trkpt lat="41.78625" lon="-1.69615">
        <ele>761.513</ele>
        <time>2013-05-07T16:12:34Z</time>
      </trkpt>
      <trkpt lat="41.78626" lon="-1.69618">
        <ele>761.514</ele>
        <time>2013-05-07T16:12:10Z</time>
      </trkpt>
      <trkpt lat="41.78627" lon="-1.69615">
        <ele>761.508</ele>
        <time>2013-05-07T16:11:43Z</time>
      </trkpt>
      <trkpt lat="41.78627" lon="-1.69615">
        <ele>761.538</ele>
        <time>2013-05-07T16:10:33Z</time>
      </trkpt>
      <trkpt lat="41.78629" lon="-1.69613">
        <ele>761.559</ele>
        <time>2013-05-07T16:10:09Z</time>
      </trkpt>
      <trkpt lat="41.78628" lon="-1.69615">
        <ele>761.581</ele>
        <time>2013-05-07T16:09:53Z</time>
      </trkpt>
      <trkpt lat="41.78628" lon="-1.69619">
        <ele>761.546</ele>
        <time>2013-05-07T16:09:04Z</time>
      </trkpt>
      <trkpt lat="41.78629" lon="-1.69621">
        <ele>761.533</ele>
        <time>2013-05-07T16:08:38Z</time>
      </trkpt>
      <trkpt lat="41.7863" lon="-1.69619">
        <ele>761.53</ele>
        <time>2013-05-07T16:08:14Z</time>
      </trkpt>
      <trkpt lat="41.78632" lon="-1.69616">
        <ele>761.518</ele>
        <time>2013-05-07T16:07:48Z</time>
      </trkpt>
      <trkpt lat="41.7863" lon="-1.69616">
        <ele>761.591</ele>
        <time>2013-05-07T16:07:23Z</time>
      </trkpt>
      <trkpt lat="41.78631" lon="-1.69618">
        <ele>761.557</ele>
        <time>2013-05-07T16:06:53Z</time>
      </trkpt>
      <trkpt lat="41.78629" lon="-1.69616">
        <ele>761.5</ele>
        <time>2013-05-07T16:06:23Z</time>
      </trkpt>
      <trkpt lat="41.78627" lon="-1.69617">
        <ele>761.52</ele>
        <time>2013-05-07T16:05:48Z</time>
      </trkpt>
      <trkpt lat="41.78631" lon="-1.69616">
        <ele>761.508</ele>
        <time>2013-05-07T16:05:22Z</time>
      </trkpt>
      <trkpt lat="41.78632" lon="-1.69618">
        <ele>761.566</ele>
        <time>2013-05-07T16:04:56Z</time>
      </trkpt>
      <trkpt lat="41.7863" lon="-1.69617">
        <ele>761.557</ele>
        <time>2013-05-07T16:04:28Z</time>
      </trkpt>
      <trkpt lat="41.78629" lon="-1.69612">
        <ele>761.599</ele>
        <time>2013-05-07T16:04:05Z</time>
      </trkpt>
      <trkpt lat="41.78626" lon="-1.6961">
        <ele>761.074</ele>
        <time>2013-05-07T16:03:56Z</time>
      </trkpt>
      <trkpt lat="41.78626" lon="-1.69608">
        <ele>761.011</ele>
        <time>2013-05-07T16:03:55Z</time>
      </trkpt>
      <trkpt lat="41.78626" lon="-1.69603">
        <ele>760.538</ele>
        <time>2013-05-07T16:03:44Z</time>
      </trkpt>
      <trkpt lat="41.78624" lon="-1.69592">
        <ele>759.686</ele>
        <time>2013-05-07T16:03:33Z</time>
      </trkpt>
      <trkpt lat="41.78614" lon="-1.69563">
        <ele>757.779</ele>
        <time>2013-05-07T16:03:20Z</time>
      </trkpt>
      <trkpt lat="41.78605" lon="-1.69534">
        <ele>756.234</ele>
        <time>2013-05-07T16:03:08Z</time>
      </trkpt>
      <trkpt lat="41.78601" lon="-1.69503">
        <ele>754.855</ele>
        <time>2013-05-07T16:02:56Z</time>
      </trkpt>
      <trkpt lat="41.78603" lon="-1.69475">
        <ele>752.91</ele>
        <time>2013-05-07T16:02:43Z</time>
      </trkpt>
      <trkpt lat="41.78605" lon="-1.69451">
        <ele>750.908</ele>
        <time>2013-05-07T16:02:33Z</time>
      </trkpt>
      <trkpt lat="41.78607" lon="-1.69422">
        <ele>750.084</ele>
        <time>2013-05-07T16:02:23Z</time>
      </trkpt>
      <trkpt lat="41.78609" lon="-1.69378">
        <ele>748.535</ele>
        <time>2013-05-07T16:02:09Z</time>
      </trkpt>
      <trkpt lat="41.78611" lon="-1.69347">
        <ele>747.127</ele>
        <time>2013-05-07T16:01:57Z</time>
      </trkpt>
      <trkpt lat="41.7861" lon="-1.69336">
        <ele>746.622</ele>
        <time>2013-05-07T16:01:53Z</time>
      </trkpt>
      <trkpt lat="41.78612" lon="-1.69307">
        <ele>745.619</ele>
        <time>2013-05-07T16:01:41Z</time>
      </trkpt>
      <trkpt lat="41.78614" lon="-1.6928">
        <ele>744.766</ele>
        <time>2013-05-07T16:01:30Z</time>
      </trkpt>
      <trkpt lat="41.78614" lon="-1.69255">
        <ele>744.224</ele>
        <time>2013-05-07T16:01:19Z</time>
      </trkpt>
      <trkpt lat="41.78619" lon="-1.69231">
        <ele>742.327</ele>
        <time>2013-05-07T16:01:09Z</time>
      </trkpt>
      <trkpt lat="41.78621" lon="-1.69229">
        <ele>742.332</ele>
        <time>2013-05-07T16:01:08Z</time>
      </trkpt>
      <trkpt lat="41.78622" lon="-1.69227">
        <ele>741.892</ele>
        <time>2013-05-07T16:01:07Z</time>
      </trkpt>
      <trkpt lat="41.78637" lon="-1.6924">
        <ele>740.811</ele>
        <time>2013-05-07T16:00:59Z</time>
      </trkpt>
      <trkpt lat="41.78639" lon="-1.69293">
        <ele>738.908</ele>
        <time>2013-05-07T16:00:44Z</time>
      </trkpt>
      <trkpt lat="41.78649" lon="-1.69331">
        <ele>737.544</ele>
        <time>2013-05-07T16:00:32Z</time>
      </trkpt>
      <trkpt lat="41.78669" lon="-1.69365">
        <ele>736.065</ele>
        <time>2013-05-07T16:00:18Z</time>
      </trkpt>
      <trkpt lat="41.78694" lon="-1.69397">
        <ele>734.627</ele>
        <time>2013-05-07T16:00:05Z</time>
      </trkpt>
      <trkpt lat="41.78717" lon="-1.69426">
        <ele>733.132</ele>
        <time>2013-05-07T15:59:52Z</time>
      </trkpt>
      <trkpt lat="41.78734" lon="-1.6945">
        <ele>731.759</ele>
        <time>2013-05-07T15:59:41Z</time>
      </trkpt>
      <trkpt lat="41.78759" lon="-1.6947">
        <ele>730.316</ele>
        <time>2013-05-07T15:59:28Z</time>
      </trkpt>
      <trkpt lat="41.7879" lon="-1.69483">
        <ele>728.384</ele>
        <time>2013-05-07T15:59:13Z</time>
      </trkpt>
      <trkpt lat="41.78818" lon="-1.69496">
        <ele>725.527</ele>
        <time>2013-05-07T15:58:58Z</time>
      </trkpt>
      <trkpt lat="41.78843" lon="-1.69518">
        <ele>723.183</ele>
        <time>2013-05-07T15:58:44Z</time>
      </trkpt>
      <trkpt lat="41.78859" lon="-1.69547">
        <ele>721.625</ele>
        <time>2013-05-07T15:58:32Z</time>
      </trkpt>
      <trkpt lat="41.78866" lon="-1.69593">
        <ele>719.217</ele>
        <time>2013-05-07T15:58:19Z</time>
      </trkpt>
      <trkpt lat="41.78865" lon="-1.69656">
        <ele>716.808</ele>
        <time>2013-05-07T15:58:05Z</time>
      </trkpt>
      <trkpt lat="41.78863" lon="-1.69715">
        <ele>716.829</ele>
        <time>2013-05-07T15:57:56Z</time>
      </trkpt>
      <trkpt lat="41.78866" lon="-1.69798">
        <ele>717.36</ele>
        <time>2013-05-07T15:57:48Z</time>
      </trkpt>
      <trkpt lat="41.78899" lon="-1.69937">
        <ele>720.752</ele>
        <time>2013-05-07T15:57:36Z</time>
      </trkpt>
      <trkpt lat="41.78901" lon="-1.69949">
        <ele>721.167</ele>
        <time>2013-05-07T15:57:35Z</time>
      </trkpt>
      <trkpt lat="41.78904" lon="-1.69961">
        <ele>721.174</ele>
        <time>2013-05-07T15:57:34Z</time>
      </trkpt>
      <trkpt lat="41.78909" lon="-1.69973">
        <ele>721.691</ele>
        <time>2013-05-07T15:57:33Z</time>
      </trkpt>
      <trkpt lat="41.78917" lon="-1.69982">
        <ele>722.619</ele>
        <time>2013-05-07T15:57:32Z</time>
      </trkpt>
      <trkpt lat="41.78925" lon="-1.69988">
        <ele>723.542</ele>
        <time>2013-05-07T15:57:31Z</time>
      </trkpt>
      <trkpt lat="41.78935" lon="-1.6999">
        <ele>724.072</ele>
        <time>2013-05-07T15:57:30Z</time>
      </trkpt>
      <trkpt lat="41.78944" lon="-1.6999">
        <ele>724.513</ele>
        <time>2013-05-07T15:57:29Z</time>
      </trkpt>
      <trkpt lat="41.78968" lon="-1.69983">
        <ele>725.914</ele>
        <time>2013-05-07T15:57:26Z</time>
      </trkpt>
      <trkpt lat="41.78976" lon="-1.69979">
        <ele>726.408</ele>
        <time>2013-05-07T15:57:25Z</time>
      </trkpt>
      <trkpt lat="41.78983" lon="-1.69976">
        <ele>727.498</ele>
        <time>2013-05-07T15:57:24Z</time>
      </trkpt>
      <trkpt lat="41.79008" lon="-1.6997">
        <ele>728.819</ele>
        <time>2013-05-07T15:57:20Z</time>
      </trkpt>
      <trkpt lat="41.79014" lon="-1.6997">
        <ele>728.821</ele>
        <time>2013-05-07T15:57:19Z</time>
      </trkpt>
      <trkpt lat="41.79019" lon="-1.69969">
        <ele>729.816</ele>
        <time>2013-05-07T15:57:18Z</time>
      </trkpt>
      <trkpt lat="41.79024" lon="-1.6997">
        <ele>729.893</ele>
        <time>2013-05-07T15:57:17Z</time>
      </trkpt>
      <trkpt lat="41.79029" lon="-1.69972">
        <ele>729.89</ele>
        <time>2013-05-07T15:57:16Z</time>
      </trkpt>
      <trkpt lat="41.79032" lon="-1.69975">
        <ele>729.848</ele>
        <time>2013-05-07T15:57:15Z</time>
      </trkpt>
      <trkpt lat="41.79036" lon="-1.69978">
        <ele>729.891</ele>
        <time>2013-05-07T15:57:14Z</time>
      </trkpt>
      <trkpt lat="41.79038" lon="-1.69982">
        <ele>729.821</ele>
        <time>2013-05-07T15:57:13Z</time>
      </trkpt>
      <trkpt lat="41.79041" lon="-1.69986">
        <ele>729.841</ele>
        <time>2013-05-07T15:57:12Z</time>
      </trkpt>
      <trkpt lat="41.79044" lon="-1.69991">
        <ele>729.805</ele>
        <time>2013-05-07T15:57:11Z</time>
      </trkpt>
      <trkpt lat="41.79047" lon="-1.69994">
        <ele>729.808</ele>
        <time>2013-05-07T15:57:10Z</time>
      </trkpt>
      <trkpt lat="41.79074" lon="-1.69977">
        <ele>729.893</ele>
        <time>2013-05-07T15:57:01Z</time>
      </trkpt>
      <trkpt lat="41.79077" lon="-1.69973">
        <ele>729.824</ele>
        <time>2013-05-07T15:57:00Z</time>
      </trkpt>
      <trkpt lat="41.7908" lon="-1.6997">
        <ele>729.836</ele>
        <time>2013-05-07T15:56:59Z</time>
      </trkpt>
      <trkpt lat="41.79083" lon="-1.69967">
        <ele>729.371</ele>
        <time>2013-05-07T15:56:58Z</time>
      </trkpt>
      <trkpt lat="41.79086" lon="-1.69964">
        <ele>729.338</ele>
        <time>2013-05-07T15:56:57Z</time>
      </trkpt>
      <trkpt lat="41.7909" lon="-1.69962">
        <ele>729.335</ele>
        <time>2013-05-07T15:56:56Z</time>
      </trkpt>
      <trkpt lat="41.79154" lon="-1.69944">
        <ele>728.373</ele>
        <time>2013-05-07T15:56:41Z</time>
      </trkpt>
      <trkpt lat="41.79226" lon="-1.69926">
        <ele>726.986</ele>
        <time>2013-05-07T15:56:24Z</time>
      </trkpt>
      <trkpt lat="41.79259" lon="-1.69917">
        <ele>725.562</ele>
        <time>2013-05-07T15:56:17Z</time>
      </trkpt>
      <trkpt lat="41.79265" lon="-1.69916">
        <ele>725.583</ele>
        <time>2013-05-07T15:56:16Z</time>
      </trkpt>
      <trkpt lat="41.7927" lon="-1.69915">
        <ele>725.511</ele>
        <time>2013-05-07T15:56:15Z</time>
      </trkpt>
      <trkpt lat="41.79275" lon="-1.69914">
        <ele>725.508</ele>
        <time>2013-05-07T15:56:14Z</time>
      </trkpt>
      <trkpt lat="41.7928" lon="-1.69911">
        <ele>725.547</ele>
        <time>2013-05-07T15:56:13Z</time>
      </trkpt>
      <trkpt lat="41.79285" lon="-1.69908">
        <ele>725.588</ele>
        <time>2013-05-07T15:56:12Z</time>
      </trkpt>
      <trkpt lat="41.79289" lon="-1.69904">
        <ele>725.51</ele>
        <time>2013-05-07T15:56:11Z</time>
      </trkpt>
      <trkpt lat="41.79292" lon="-1.69899">
        <ele>725.545</ele>
        <time>2013-05-07T15:56:10Z</time>
      </trkpt>
      <trkpt lat="41.79295" lon="-1.69893">
        <ele>725.572</ele>
        <time>2013-05-07T15:56:09Z</time>
      </trkpt>
      <trkpt lat="41.79307" lon="-1.69859">
        <ele>725.539</ele>
        <time>2013-05-07T15:56:04Z</time>
      </trkpt>
      <trkpt lat="41.7931" lon="-1.69852">
        <ele>725.597</ele>
        <time>2013-05-07T15:56:03Z</time>
      </trkpt>
      <trkpt lat="41.79314" lon="-1.69846">
        <ele>725.57</ele>
        <time>2013-05-07T15:56:02Z</time>
      </trkpt>
      <trkpt lat="41.79318" lon="-1.6984">
        <ele>725.517</ele>
        <time>2013-05-07T15:56:01Z</time>
      </trkpt>
      <trkpt lat="41.79322" lon="-1.69835">
        <ele>725.987</ele>
        <time>2013-05-07T15:56:00Z</time>
      </trkpt>
      <trkpt lat="41.7935" lon="-1.69818">
        <ele>725.915</ele>
        <time>2013-05-07T15:55:54Z</time>
      </trkpt>
      <trkpt lat="41.79354" lon="-1.69815">
        <ele>725.908</ele>
        <time>2013-05-07T15:55:53Z</time>
      </trkpt>
      <trkpt lat="41.79419" lon="-1.69788">
        <ele>727.452</ele>
        <time>2013-05-07T15:55:40Z</time>
      </trkpt>
      <trkpt lat="41.7947" lon="-1.69765">
        <ele>727.463</ele>
        <time>2013-05-07T15:55:28Z</time>
      </trkpt>
      <trkpt lat="41.79505" lon="-1.6975">
        <ele>727.435</ele>
        <time>2013-05-07T15:55:17Z</time>
      </trkpt>
      <trkpt lat="41.79517" lon="-1.69747">
        <ele>727.48</ele>
        <time>2013-05-07T15:55:00Z</time>
      </trkpt>
      <trkpt lat="41.79521" lon="-1.69746">
        <ele>727.437</ele>
        <time>2013-05-07T15:54:52Z</time>
      </trkpt>
      <trkpt lat="41.79547" lon="-1.69734">
        <ele>727.444</ele>
        <time>2013-05-07T15:54:41Z</time>
      </trkpt>
      <trkpt lat="41.79571" lon="-1.69725">
        <ele>726.912</ele>
        <time>2013-05-07T15:54:30Z</time>
      </trkpt>
      <trkpt lat="41.79595" lon="-1.69717">
        <ele>726.465</ele>
        <time>2013-05-07T15:54:22Z</time>
      </trkpt>
      <trkpt lat="41.79624" lon="-1.69703">
        <ele>725.046</ele>
        <time>2013-05-07T15:54:12Z</time>
      </trkpt>
      <trkpt lat="41.79661" lon="-1.69687">
        <ele>723.588</ele>
        <time>2013-05-07T15:53:59Z</time>
      </trkpt>
      <trkpt lat="41.79705" lon="-1.69667">
        <ele>721.116</ele>
        <time>2013-05-07T15:53:43Z</time>
      </trkpt>
      <trkpt lat="41.79745" lon="-1.69646">
        <ele>719.208</ele>
        <time>2013-05-07T15:53:28Z</time>
      </trkpt>
      <trkpt lat="41.7979" lon="-1.6962">
        <ele>716.895</ele>
        <time>2013-05-07T15:53:11Z</time>
      </trkpt>
      <trkpt lat="41.79824" lon="-1.696">
        <ele>714.956</ele>
        <time>2013-05-07T15:52:58Z</time>
      </trkpt>
      <trkpt lat="41.79865" lon="-1.69577">
        <ele>713.468</ele>
        <time>2013-05-07T15:52:42Z</time>
      </trkpt>
      <trkpt lat="41.799" lon="-1.69555">
        <ele>711.553</ele>
        <time>2013-05-07T15:52:28Z</time>
      </trkpt>
      <trkpt lat="41.79943" lon="-1.69531">
        <ele>708.67</ele>
        <time>2013-05-07T15:52:12Z</time>
      </trkpt>
      <trkpt lat="41.79988" lon="-1.69505">
        <ele>706.777</ele>
        <time>2013-05-07T15:51:55Z</time>
      </trkpt>
      <trkpt lat="41.80027" lon="-1.69482">
        <ele>704.825</ele>
        <time>2013-05-07T15:51:40Z</time>
      </trkpt>
      <trkpt lat="41.80063" lon="-1.69461">
        <ele>703.388</ele>
        <time>2013-05-07T15:51:26Z</time>
      </trkpt>
      <trkpt lat="41.80101" lon="-1.69438">
        <ele>701.437</ele>
        <time>2013-05-07T15:51:12Z</time>
      </trkpt>
      <trkpt lat="41.80139" lon="-1.69418">
        <ele>699.549</ele>
        <time>2013-05-07T15:50:59Z</time>
      </trkpt>
      <trkpt lat="41.80192" lon="-1.69404">
        <ele>698.113</ele>
        <time>2013-05-07T15:50:42Z</time>
      </trkpt>
      <trkpt lat="41.80239" lon="-1.69395">
        <ele>697.108</ele>
        <time>2013-05-07T15:50:27Z</time>
      </trkpt>
      <trkpt lat="41.80288" lon="-1.69385">
        <ele>694.734</ele>
        <time>2013-05-07T15:50:10Z</time>
      </trkpt>
      <trkpt lat="41.80324" lon="-1.69379">
        <ele>692.865</ele>
        <time>2013-05-07T15:49:58Z</time>
      </trkpt>
      <trkpt lat="41.80364" lon="-1.69375">
        <ele>690.897</ele>
        <time>2013-05-07T15:49:43Z</time>
      </trkpt>
      <trkpt lat="41.8039" lon="-1.69387">
        <ele>689.472</ele>
        <time>2013-05-07T15:49:32Z</time>
      </trkpt>
      <trkpt lat="41.80421" lon="-1.69428">
        <ele>687.569</ele>
        <time>2013-05-07T15:49:14Z</time>
      </trkpt>
      <trkpt lat="41.80425" lon="-1.69431">
        <ele>687.086</ele>
        <time>2013-05-07T15:49:12Z</time>
      </trkpt>
      <trkpt lat="41.80452" lon="-1.69448">
        <ele>685.154</ele>
        <time>2013-05-07T15:48:58Z</time>
      </trkpt>
      <trkpt lat="41.80482" lon="-1.69456">
        <ele>683.647</ele>
        <time>2013-05-07T15:48:45Z</time>
      </trkpt>
      <trkpt lat="41.80518" lon="-1.69464">
        <ele>681.756</ele>
        <time>2013-05-07T15:48:31Z</time>
      </trkpt>
      <trkpt lat="41.8056" lon="-1.69475">
        <ele>680.359</ele>
        <time>2013-05-07T15:48:15Z</time>
      </trkpt>
      <trkpt lat="41.80603" lon="-1.69484">
        <ele>678.414</ele>
        <time>2013-05-07T15:47:59Z</time>
      </trkpt>
      <trkpt lat="41.80645" lon="-1.69495">
        <ele>676.408</ele>
        <time>2013-05-07T15:47:45Z</time>
      </trkpt>
      <trkpt lat="41.80711" lon="-1.69509">
        <ele>675.556</ele>
        <time>2013-05-07T15:47:30Z</time>
      </trkpt>
      <trkpt lat="41.80787" lon="-1.69527">
        <ele>674.597</ele>
        <time>2013-05-07T15:47:15Z</time>
      </trkpt>
      <trkpt lat="41.80888" lon="-1.6955">
        <ele>674.559</ele>
        <time>2013-05-07T15:46:56Z</time>
      </trkpt>
      <trkpt lat="41.80976" lon="-1.6957">
        <ele>673.564</ele>
        <time>2013-05-07T15:46:39Z</time>
      </trkpt>
      <trkpt lat="41.81057" lon="-1.69589">
        <ele>673.511</ele>
        <time>2013-05-07T15:46:23Z</time>
      </trkpt>
      <trkpt lat="41.81137" lon="-1.69607">
        <ele>673.178</ele>
        <time>2013-05-07T15:46:07Z</time>
      </trkpt>
      <trkpt lat="41.81192" lon="-1.69605">
        <ele>673.126</ele>
        <time>2013-05-07T15:45:55Z</time>
      </trkpt>
      <trkpt lat="41.81243" lon="-1.69581">
        <ele>672.179</ele>
        <time>2013-05-07T15:45:42Z</time>
      </trkpt>
      <trkpt lat="41.8128" lon="-1.69561">
        <ele>671.631</ele>
        <time>2013-05-07T15:45:30Z</time>
      </trkpt>
      <trkpt lat="41.81302" lon="-1.69547">
        <ele>671.161</ele>
        <time>2013-05-07T15:45:19Z</time>
      </trkpt>
      <trkpt lat="41.81301" lon="-1.69545">
        <ele>671.107</ele>
        <time>2013-05-07T15:44:58Z</time>
      </trkpt>
      <trkpt lat="41.81309" lon="-1.69544">
        <ele>671.108</ele>
        <time>2013-05-07T15:43:26Z</time>
      </trkpt>
      <trkpt lat="41.81315" lon="-1.69543">
        <ele>670.784</ele>
        <time>2013-05-07T15:43:23Z</time>
      </trkpt>
      <trkpt lat="41.81344" lon="-1.69528">
        <ele>669.215</ele>
        <time>2013-05-07T15:43:11Z</time>
      </trkpt>
      <trkpt lat="41.81373" lon="-1.69512">
        <ele>667.867</ele>
        <time>2013-05-07T15:43:00Z</time>
      </trkpt>
      <trkpt lat="41.81399" lon="-1.69498">
        <ele>666.892</ele>
        <time>2013-05-07T15:42:50Z</time>
      </trkpt>
      <trkpt lat="41.8143" lon="-1.6948">
        <ele>665.979</ele>
        <time>2013-05-07T15:42:38Z</time>
      </trkpt>
      <trkpt lat="41.81471" lon="-1.69458">
        <ele>664.986</ele>
        <time>2013-05-07T15:42:23Z</time>
      </trkpt>
      <trkpt lat="41.81508" lon="-1.69438">
        <ele>663.934</ele>
        <time>2013-05-07T15:42:09Z</time>
      </trkpt>
      <trkpt lat="41.8155" lon="-1.69415">
        <ele>662.527</ele>
        <time>2013-05-07T15:41:53Z</time>
      </trkpt>
      <trkpt lat="41.81589" lon="-1.69393">
        <ele>661.524</ele>
        <time>2013-05-07T15:41:38Z</time>
      </trkpt>
      <trkpt lat="41.81624" lon="-1.69374">
        <ele>660.104</ele>
        <time>2013-05-07T15:41:24Z</time>
      </trkpt>
      <trkpt lat="41.81656" lon="-1.69356">
        <ele>658.614</ele>
        <time>2013-05-07T15:41:11Z</time>
      </trkpt>
      <trkpt lat="41.81688" lon="-1.69339">
        <ele>657.708</ele>
        <time>2013-05-07T15:40:59Z</time>
      </trkpt>
      <trkpt lat="41.81719" lon="-1.69323">
        <ele>656.793</ele>
        <time>2013-05-07T15:40:47Z</time>
      </trkpt>
      <trkpt lat="41.81754" lon="-1.69303">
        <ele>655.854</ele>
        <time>2013-05-07T15:40:33Z</time>
      </trkpt>
      <trkpt lat="41.81788" lon="-1.69284">
        <ele>654.816</ele>
        <time>2013-05-07T15:40:20Z</time>
      </trkpt>
      <trkpt lat="41.81824" lon="-1.69264">
        <ele>653.471</ele>
        <time>2013-05-07T15:40:06Z</time>
      </trkpt>
      <trkpt lat="41.81861" lon="-1.69244">
        <ele>652.468</ele>
        <time>2013-05-07T15:39:51Z</time>
      </trkpt>
      <trkpt lat="41.8189" lon="-1.6923">
        <ele>651.095</ele>
        <time>2013-05-07T15:39:39Z</time>
      </trkpt>
      <trkpt lat="41.81922" lon="-1.69211">
        <ele>650.033</ele>
        <time>2013-05-07T15:39:26Z</time>
      </trkpt>
      <trkpt lat="41.8195" lon="-1.69189">
        <ele>648.656</ele>
        <time>2013-05-07T15:39:13Z</time>
      </trkpt>
      <trkpt lat="41.81979" lon="-1.69164">
        <ele>647.648</ele>
        <time>2013-05-07T15:39:01Z</time>
      </trkpt>
      <trkpt lat="41.82009" lon="-1.69135">
        <ele>646.161</ele>
        <time>2013-05-07T15:38:50Z</time>
      </trkpt>
      <trkpt lat="41.82042" lon="-1.69096">
        <ele>645.717</ele>
        <time>2013-05-07T15:38:35Z</time>
      </trkpt>
      <trkpt lat="41.82062" lon="-1.69069">
        <ele>645.708</ele>
        <time>2013-05-07T15:38:23Z</time>
      </trkpt>
      <trkpt lat="41.82064" lon="-1.69067">
        <ele>645.795</ele>
        <time>2013-05-07T15:38:22Z</time>
      </trkpt>
      <trkpt lat="41.82066" lon="-1.69065">
        <ele>645.786</ele>
        <time>2013-05-07T15:38:21Z</time>
      </trkpt>
      <trkpt lat="41.82093" lon="-1.69033">
        <ele>645.218</ele>
        <time>2013-05-07T15:37:11Z</time>
      </trkpt>
      <trkpt lat="41.82094" lon="-1.69029">
        <ele>645.293</ele>
        <time>2013-05-07T15:37:10Z</time>
      </trkpt>
      <trkpt lat="41.82095" lon="-1.69025">
        <ele>645.22</ele>
        <time>2013-05-07T15:37:09Z</time>
      </trkpt>
      <trkpt lat="41.82126" lon="-1.68984">
        <ele>644.787</ele>
        <time>2013-05-07T15:36:57Z</time>
      </trkpt>
      <trkpt lat="41.82156" lon="-1.68946">
        <ele>644.775</ele>
        <time>2013-05-07T15:36:46Z</time>
      </trkpt>
      <trkpt lat="41.82188" lon="-1.68916">
        <ele>644.798</ele>
        <time>2013-05-07T15:36:35Z</time>
      </trkpt>
      <trkpt lat="41.82201" lon="-1.68906">
        <ele>644.254</ele>
        <time>2013-05-07T15:36:30Z</time>
      </trkpt>
      <trkpt lat="41.82242" lon="-1.68878">
        <ele>643.756</ele>
        <time>2013-05-07T15:36:17Z</time>
      </trkpt>
      <trkpt lat="41.82267" lon="-1.68861">
        <ele>643.711</ele>
        <time>2013-05-07T15:36:08Z</time>
      </trkpt>
      <trkpt lat="41.82298" lon="-1.68841">
        <ele>643.708</ele>
        <time>2013-05-07T15:35:58Z</time>
      </trkpt>
      <trkpt lat="41.82318" lon="-1.68823">
        <ele>643.786</ele>
        <time>2013-05-07T15:35:48Z</time>
      </trkpt>
      <trkpt lat="41.82338" lon="-1.68794">
        <ele>643.717</ele>
        <time>2013-05-07T15:35:37Z</time>
      </trkpt>
      <trkpt lat="41.82368" lon="-1.68772">
        <ele>643.759</ele>
        <time>2013-05-07T15:35:24Z</time>
      </trkpt>
      <trkpt lat="41.82392" lon="-1.68758">
        <ele>643.354</ele>
        <time>2013-05-07T15:35:13Z</time>
      </trkpt>
      <trkpt lat="41.82416" lon="-1.68749">
        <ele>642.361</ele>
        <time>2013-05-07T15:35:02Z</time>
      </trkpt>
      <trkpt lat="41.82438" lon="-1.68723">
        <ele>642.318</ele>
        <time>2013-05-07T15:34:50Z</time>
      </trkpt>
      <trkpt lat="41.82458" lon="-1.68688">
        <ele>641.846</ele>
        <time>2013-05-07T15:34:37Z</time>
      </trkpt>
      <trkpt lat="41.82476" lon="-1.68667">
        <ele>639.989</ele>
        <time>2013-05-07T15:34:24Z</time>
      </trkpt>
      <trkpt lat="41.82495" lon="-1.68649">
        <ele>638.987</ele>
        <time>2013-05-07T15:34:12Z</time>
      </trkpt>
      <trkpt lat="41.82517" lon="-1.68622">
        <ele>638.542</ele>
        <time>2013-05-07T15:33:58Z</time>
      </trkpt>
      <trkpt lat="41.82534" lon="-1.68598">
        <ele>637.026</ele>
        <time>2013-05-07T15:33:46Z</time>
      </trkpt>
      <trkpt lat="41.82553" lon="-1.68579">
        <ele>635.608</ele>
        <time>2013-05-07T15:33:33Z</time>
      </trkpt>
      <trkpt lat="41.82574" lon="-1.68559">
        <ele>633.749</ele>
        <time>2013-05-07T15:33:17Z</time>
      </trkpt>
      <trkpt lat="41.82575" lon="-1.68557">
        <ele>633.73</ele>
        <time>2013-05-07T15:33:16Z</time>
      </trkpt>
      <trkpt lat="41.82577" lon="-1.68556">
        <ele>633.792</ele>
        <time>2013-05-07T15:33:15Z</time>
      </trkpt>
      <trkpt lat="41.82578" lon="-1.68555">
        <ele>633.287</ele>
        <time>2013-05-07T15:33:14Z</time>
      </trkpt>
      <trkpt lat="41.82579" lon="-1.68555">
        <ele>633.254</ele>
        <time>2013-05-07T15:33:13Z</time>
      </trkpt>
      <trkpt lat="41.82587" lon="-1.68549">
        <ele>632.731</ele>
        <time>2013-05-07T15:33:06Z</time>
      </trkpt>
      <trkpt lat="41.82605" lon="-1.68542">
        <ele>631.719</ele>
        <time>2013-05-07T15:32:52Z</time>
      </trkpt>
      <trkpt lat="41.82607" lon="-1.68542">
        <ele>631.722</ele>
        <time>2013-05-07T15:32:51Z</time>
      </trkpt>
      <trkpt lat="41.82609" lon="-1.68542">
        <ele>631.244</ele>
        <time>2013-05-07T15:32:50Z</time>
      </trkpt>
      <trkpt lat="41.82611" lon="-1.68541">
        <ele>631.205</ele>
        <time>2013-05-07T15:32:49Z</time>
      </trkpt>
      <trkpt lat="41.82613" lon="-1.68541">
        <ele>631.215</ele>
        <time>2013-05-07T15:32:48Z</time>
      </trkpt>
      <trkpt lat="41.82615" lon="-1.68541">
        <ele>631.208</ele>
        <time>2013-05-07T15:32:47Z</time>
      </trkpt>
      <trkpt lat="41.82617" lon="-1.68541">
        <ele>631.215</ele>
        <time>2013-05-07T15:32:46Z</time>
      </trkpt>
      <trkpt lat="41.82618" lon="-1.6854">
        <ele>631.296</ele>
        <time>2013-05-07T15:32:45Z</time>
      </trkpt>
      <trkpt lat="41.82619" lon="-1.68539">
        <ele>631.218</ele>
        <time>2013-05-07T15:32:44Z</time>
      </trkpt>
      <trkpt lat="41.82622" lon="-1.68536">
        <ele>630.823</ele>
        <time>2013-05-07T15:32:38Z</time>
      </trkpt>
      <trkpt lat="41.82627" lon="-1.68534">
        <ele>629.83</ele>
        <time>2013-05-07T15:31:54Z</time>
      </trkpt>
      <trkpt lat="41.82627" lon="-1.68536">
        <ele>629.817</ele>
        <time>2013-05-07T15:31:31Z</time>
      </trkpt>
      <trkpt lat="41.82626" lon="-1.68536">
        <ele>629.815</ele>
        <time>2013-05-07T15:31:10Z</time>
      </trkpt>
      <trkpt lat="41.82624" lon="-1.68539">
        <ele>629.878</ele>
        <time>2013-05-07T15:30:49Z</time>
      </trkpt>
      <trkpt lat="41.82622" lon="-1.68539">
        <ele>629.818</ele>
        <time>2013-05-07T15:30:25Z</time>
      </trkpt>
      <trkpt lat="41.82621" lon="-1.68539">
        <ele>629.898</ele>
        <time>2013-05-07T15:30:01Z</time>
      </trkpt>
      <trkpt lat="41.8262" lon="-1.68538">
        <ele>629.817</ele>
        <time>2013-05-07T15:29:07Z</time>
      </trkpt>
      <trkpt lat="41.82619" lon="-1.68539">
        <ele>629.808</ele>
        <time>2013-05-07T15:28:18Z</time>
      </trkpt>
      <trkpt lat="41.82619" lon="-1.6854">
        <ele>629.832</ele>
        <time>2013-05-07T15:27:54Z</time>
      </trkpt>
      <trkpt lat="41.82618" lon="-1.68536">
        <ele>629.863</ele>
        <time>2013-05-07T15:27:32Z</time>
      </trkpt>
      <trkpt lat="41.82617" lon="-1.68535">
        <ele>631.235</ele>
        <time>2013-05-07T15:26:59Z</time>
      </trkpt>
      <trkpt lat="41.82617" lon="-1.68534">
        <ele>630.36</ele>
        <time>2013-05-07T15:26:43Z</time>
      </trkpt>
      <trkpt lat="41.82616" lon="-1.68524">
        <ele>630.327</ele>
        <time>2013-05-07T15:26:22Z</time>
      </trkpt>
      <trkpt lat="41.82625" lon="-1.68524">
        <ele>628.474</ele>
        <time>2013-05-07T15:26:13Z</time>
      </trkpt>
      <trkpt lat="41.82643" lon="-1.68534">
        <ele>628.492</ele>
        <time>2013-05-07T15:26:03Z</time>
      </trkpt>
      <trkpt lat="41.82675" lon="-1.68551">
        <ele>628.475</ele>
        <time>2013-05-07T15:25:53Z</time>
      </trkpt>
      <trkpt lat="41.82703" lon="-1.68564">
        <ele>628.885</ele>
        <time>2013-05-07T15:25:47Z</time>
      </trkpt>
      <trkpt lat="41.82738" lon="-1.68576">
        <ele>629.889</ele>
        <time>2013-05-07T15:25:40Z</time>
      </trkpt>
      <trkpt lat="41.82805" lon="-1.68626">
        <ele>631.717</ele>
        <time>2013-05-07T15:25:27Z</time>
      </trkpt>
      <trkpt lat="41.82846" lon="-1.68652">
        <ele>632.708</ele>
        <time>2013-05-07T15:25:18Z</time>
      </trkpt>
      <trkpt lat="41.82859" lon="-1.68669">
        <ele>632.779</ele>
        <time>2013-05-07T15:25:14Z</time>
      </trkpt>
      <trkpt lat="41.82894" lon="-1.68727">
        <ele>633.79</ele>
        <time>2013-05-07T15:25:02Z</time>
      </trkpt>
      <trkpt lat="41.82932" lon="-1.68783">
        <ele>634.612</ele>
        <time>2013-05-07T15:24:50Z</time>
      </trkpt>
      <trkpt lat="41.82958" lon="-1.68845">
        <ele>635.647</ele>
        <time>2013-05-07T15:24:39Z</time>
      </trkpt>
      <trkpt lat="41.82996" lon="-1.6894">
        <ele>637.044</ele>
        <time>2013-05-07T15:24:23Z</time>
      </trkpt>
      <trkpt lat="41.83022" lon="-1.69009">
        <ele>638.021</ele>
        <time>2013-05-07T15:24:10Z</time>
      </trkpt>
      <trkpt lat="41.83031" lon="-1.69037">
        <ele>638.569</ele>
        <time>2013-05-07T15:24:05Z</time>
      </trkpt>
      <trkpt lat="41.83037" lon="-1.69073">
        <ele>638.942</ele>
        <time>2013-05-07T15:23:59Z</time>
      </trkpt>
      <trkpt lat="41.83042" lon="-1.69109">
        <ele>638.966</ele>
        <time>2013-05-07T15:23:53Z</time>
      </trkpt>
      <trkpt lat="41.83046" lon="-1.69119">
        <ele>638.929</ele>
        <time>2013-05-07T15:23:51Z</time>
      </trkpt>
      <trkpt lat="41.83052" lon="-1.69132">
        <ele>638.921</ele>
        <time>2013-05-07T15:23:48Z</time>
      </trkpt>
      <trkpt lat="41.83074" lon="-1.69167">
        <ele>638.908</ele>
        <time>2013-05-07T15:23:39Z</time>
      </trkpt>
      <trkpt lat="41.83105" lon="-1.69197">
        <ele>638.967</ele>
        <time>2013-05-07T15:23:28Z</time>
      </trkpt>
      <trkpt lat="41.83149" lon="-1.69221">
        <ele>638.918</ele>
        <time>2013-05-07T15:23:17Z</time>
      </trkpt>
      <trkpt lat="41.83198" lon="-1.69236">
        <ele>638.95</ele>
        <time>2013-05-07T15:23:05Z</time>
      </trkpt>
      <trkpt lat="41.83249" lon="-1.69249">
        <ele>638.935</ele>
        <time>2013-05-07T15:22:53Z</time>
      </trkpt>
      <trkpt lat="41.83314" lon="-1.69249">
        <ele>638.942</ele>
        <time>2013-05-07T15:22:38Z</time>
      </trkpt>
      <trkpt lat="41.83347" lon="-1.69245">
        <ele>638.919</ele>
        <time>2013-05-07T15:22:29Z</time>
      </trkpt>
      <trkpt lat="41.83371" lon="-1.69257">
        <ele>638.977</ele>
        <time>2013-05-07T15:22:21Z</time>
      </trkpt>
      <trkpt lat="41.834" lon="-1.693">
        <ele>639.41</ele>
        <time>2013-05-07T15:22:10Z</time>
      </trkpt>
      <trkpt lat="41.83437" lon="-1.69353">
        <ele>639.477</ele>
        <time>2013-05-07T15:21:57Z</time>
      </trkpt>
      <trkpt lat="41.83447" lon="-1.69365">
        <ele>639.461</ele>
        <time>2013-05-07T15:21:54Z</time>
      </trkpt>
      <trkpt lat="41.83472" lon="-1.694">
        <ele>639.427</ele>
        <time>2013-05-07T15:21:46Z</time>
      </trkpt>
      <trkpt lat="41.8349" lon="-1.69425">
        <ele>639.908</ele>
        <time>2013-05-07T15:21:41Z</time>
      </trkpt>
      <trkpt lat="41.83507" lon="-1.69439">
        <ele>639.928</ele>
        <time>2013-05-07T15:21:37Z</time>
      </trkpt>
      <trkpt lat="41.83555" lon="-1.69455">
        <ele>641.359</ele>
        <time>2013-05-07T15:21:27Z</time>
      </trkpt>
      <trkpt lat="41.83611" lon="-1.69472">
        <ele>641.321</ele>
        <time>2013-05-07T15:21:14Z</time>
      </trkpt>
      <trkpt lat="41.83653" lon="-1.69477">
        <ele>641.356</ele>
        <time>2013-05-07T15:21:01Z</time>
      </trkpt>
      <trkpt lat="41.83676" lon="-1.6948">
        <ele>639.473</ele>
        <time>2013-05-07T15:20:49Z</time>
      </trkpt>
      <trkpt lat="41.83702" lon="-1.69497">
        <ele>638.01</ele>
        <time>2013-05-07T15:20:38Z</time>
      </trkpt>
      <trkpt lat="41.83733" lon="-1.6952">
        <ele>638.018</ele>
        <time>2013-05-07T15:20:25Z</time>
      </trkpt>
      <trkpt lat="41.83767" lon="-1.69535">
        <ele>639.461</ele>
        <time>2013-05-07T15:20:14Z</time>
      </trkpt>
      <trkpt lat="41.83789" lon="-1.69545">
        <ele>638.931</ele>
        <time>2013-05-07T15:20:03Z</time>
      </trkpt>
      <trkpt lat="41.83806" lon="-1.69556">
        <ele>638.061</ele>
        <time>2013-05-07T15:19:50Z</time>
      </trkpt>
      <trkpt lat="41.8382" lon="-1.6957">
        <ele>635.607</ele>
        <time>2013-05-07T15:19:36Z</time>
      </trkpt>
      <trkpt lat="41.83831" lon="-1.6959">
        <ele>635.108</ele>
        <time>2013-05-07T15:19:23Z</time>
      </trkpt>
      <trkpt lat="41.83845" lon="-1.69605">
        <ele>636.134</ele>
        <time>2013-05-07T15:19:12Z</time>
      </trkpt>
      <trkpt lat="41.83859" lon="-1.69615">
        <ele>637.085</ele>
        <time>2013-05-07T15:19:04Z</time>
      </trkpt>
      <trkpt lat="41.83887" lon="-1.69623">
        <ele>638.097</ele>
        <time>2013-05-07T15:19:00Z</time>
      </trkpt>
      <trkpt lat="41.8397" lon="-1.69662">
        <ele>640.442</ele>
        <time>2013-05-07T15:18:49Z</time>
      </trkpt>
      <trkpt lat="41.84025" lon="-1.69678">
        <ele>645.249</ele>
        <time>2013-05-07T15:18:41Z</time>
      </trkpt>
      <trkpt lat="41.84044" lon="-1.69688">
        <ele>647.136</ele>
        <time>2013-05-07T15:18:37Z</time>
      </trkpt>
      <trkpt lat="41.84054" lon="-1.69694">
        <ele>648.124</ele>
        <time>2013-05-07T15:18:35Z</time>
      </trkpt>
      <trkpt lat="41.84068" lon="-1.69709">
        <ele>650.087</ele>
        <time>2013-05-07T15:18:31Z</time>
      </trkpt>
      <trkpt lat="41.84079" lon="-1.69732">
        <ele>651.437</ele>
        <time>2013-05-07T15:18:27Z</time>
      </trkpt>
      <trkpt lat="41.84092" lon="-1.69761">
        <ele>653.449</ele>
        <time>2013-05-07T15:18:23Z</time>
      </trkpt>
      <trkpt lat="41.84131" lon="-1.69812">
        <ele>656.713</ele>
        <time>2013-05-07T15:18:16Z</time>
      </trkpt>
      <trkpt lat="41.84138" lon="-1.69817">
        <ele>656.708</ele>
        <time>2013-05-07T15:18:15Z</time>
      </trkpt>
      <trkpt lat="41.84209" lon="-1.69853">
        <ele>660.174</ele>
        <time>2013-05-07T15:18:04Z</time>
      </trkpt>
      <trkpt lat="41.84268" lon="-1.6991">
        <ele>661.045</ele>
        <time>2013-05-07T15:17:52Z</time>
      </trkpt>
      <trkpt lat="41.84342" lon="-1.6998">
        <ele>662.547</ele>
        <time>2013-05-07T15:17:38Z</time>
      </trkpt>
      <trkpt lat="41.84378" lon="-1.70003">
        <ele>663.952</ele>
        <time>2013-05-07T15:17:31Z</time>
      </trkpt>
      <trkpt lat="41.84403" lon="-1.70004">
        <ele>666.389</ele>
        <time>2013-05-07T15:17:27Z</time>
      </trkpt>
      <trkpt lat="41.84447" lon="-1.70004">
        <ele>669.756</ele>
        <time>2013-05-07T15:17:22Z</time>
      </trkpt>
      <trkpt lat="41.84493" lon="-1.70005">
        <ele>673.114</ele>
        <time>2013-05-07T15:17:17Z</time>
      </trkpt>
      <trkpt lat="41.84552" lon="-1.70015">
        <ele>676.427</ele>
        <time>2013-05-07T15:17:09Z</time>
      </trkpt>
      <trkpt lat="41.84588" lon="-1.70021">
        <ele>678.835</ele>
        <time>2013-05-07T15:17:03Z</time>
      </trkpt>
      <trkpt lat="41.84601" lon="-1.70025">
        <ele>679.886</ele>
        <time>2013-05-07T15:17:01Z</time>
      </trkpt>
      <trkpt lat="41.84607" lon="-1.70027">
        <ele>680.314</ele>
        <time>2013-05-07T15:17:00Z</time>
      </trkpt>
      <trkpt lat="41.8464" lon="-1.70034">
        <ele>684.108</ele>
        <time>2013-05-07T15:16:54Z</time>
      </trkpt>
      <trkpt lat="41.84645" lon="-1.70036">
        <ele>684.614</ele>
        <time>2013-05-07T15:16:53Z</time>
      </trkpt>
      <trkpt lat="41.84669" lon="-1.70045">
        <ele>688.045</ele>
        <time>2013-05-07T15:16:48Z</time>
      </trkpt>
      <trkpt lat="41.84695" lon="-1.70048">
        <ele>691.817</ele>
        <time>2013-05-07T15:16:43Z</time>
      </trkpt>
      <trkpt lat="41.84729" lon="-1.70043">
        <ele>695.732</ele>
        <time>2013-05-07T15:16:36Z</time>
      </trkpt>
      <trkpt lat="41.84753" lon="-1.70042">
        <ele>699.049</ele>
        <time>2013-05-07T15:16:31Z</time>
      </trkpt>
      <trkpt lat="41.84774" lon="-1.70041">
        <ele>701.966</ele>
        <time>2013-05-07T15:16:27Z</time>
      </trkpt>
      <trkpt lat="41.84794" lon="-1.70039">
        <ele>705.824</ele>
        <time>2013-05-07T15:16:23Z</time>
      </trkpt>
      <trkpt lat="41.84814" lon="-1.70035">
        <ele>709.187</ele>
        <time>2013-05-07T15:16:18Z</time>
      </trkpt>
      <trkpt lat="41.84846" lon="-1.70028">
        <ele>713.044</ele>
        <time>2013-05-07T15:16:09Z</time>
      </trkpt>
      <trkpt lat="41.84875" lon="-1.70022">
        <ele>717.305</ele>
        <time>2013-05-07T15:16:03Z</time>
      </trkpt>
      <trkpt lat="41.84893" lon="-1.70021">
        <ele>719.215</ele>
        <time>2013-05-07T15:15:59Z</time>
      </trkpt>
      <trkpt lat="41.84903" lon="-1.70018">
        <ele>720.708</ele>
        <time>2013-05-07T15:15:56Z</time>
      </trkpt>
      <trkpt lat="41.8494" lon="-1.69998">
        <ele>724.015</ele>
        <time>2013-05-07T15:15:44Z</time>
      </trkpt>
      <trkpt lat="41.84948" lon="-1.69993">
        <ele>725.086</ele>
        <time>2013-05-07T15:15:29Z</time>
      </trkpt>
      <trkpt lat="41.8495" lon="-1.6999">
        <ele>725.098</ele>
        <time>2013-05-07T15:15:19Z</time>
      </trkpt>
      <trkpt lat="41.8495" lon="-1.69989">
        <ele>725.063</ele>
        <time>2013-05-07T15:15:03Z</time>
      </trkpt>
      <trkpt lat="41.8495" lon="-1.6999">
        <ele>725.01</ele>
        <time>2013-05-07T15:14:13Z</time>
      </trkpt>
      <trkpt lat="41.8495" lon="-1.69989">
        <ele>723.567</ele>
        <time>2013-05-07T15:12:48Z</time>
      </trkpt>
      <trkpt lat="41.8495" lon="-1.6999">
        <ele>725.025</ele>
        <time>2013-05-07T15:11:39Z</time>
      </trkpt>
      <trkpt lat="41.84955" lon="-1.69988">
        <ele>725.098</ele>
        <time>2013-05-07T15:11:28Z</time>
      </trkpt>
      <trkpt lat="41.84956" lon="-1.69986">
        <ele>725.045</ele>
        <time>2013-05-07T15:11:11Z</time>
      </trkpt>
      <trkpt lat="41.84956" lon="-1.69984">
        <ele>725.047</ele>
        <time>2013-05-07T15:10:36Z</time>
      </trkpt>
      <trkpt lat="41.84957" lon="-1.69985">
        <ele>725.011</ele>
        <time>2013-05-07T15:10:22Z</time>
      </trkpt>
      <trkpt lat="41.84988" lon="-1.69989">
        <ele>725.008</ele>
        <time>2013-05-07T15:10:11Z</time>
      </trkpt>
      <trkpt lat="41.85035" lon="-1.69993">
        <ele>725.045</ele>
        <time>2013-05-07T15:09:59Z</time>
      </trkpt>
      <trkpt lat="41.85086" lon="-1.69992">
        <ele>724.076</ele>
        <time>2013-05-07T15:09:47Z</time>
      </trkpt>
      <trkpt lat="41.8515" lon="-1.70001">
        <ele>722.658</ele>
        <time>2013-05-07T15:09:33Z</time>
      </trkpt>
      <trkpt lat="41.8522" lon="-1.70012">
        <ele>722.633</ele>
        <time>2013-05-07T15:09:19Z</time>
      </trkpt>
      <trkpt lat="41.85285" lon="-1.70022">
        <ele>722.67</ele>
        <time>2013-05-07T15:09:05Z</time>
      </trkpt>
      <trkpt lat="41.8531" lon="-1.70028">
        <ele>722.657</ele>
        <time>2013-05-07T15:08:59Z</time>
      </trkpt>
      <trkpt lat="41.85329" lon="-1.70039">
        <ele>722.615</ele>
        <time>2013-05-07T15:08:54Z</time>
      </trkpt>
      <trkpt lat="41.85377" lon="-1.70078">
        <ele>722.638</ele>
        <time>2013-05-07T15:08:40Z</time>
      </trkpt>
      <trkpt lat="41.85434" lon="-1.70132">
        <ele>724.052</ele>
        <time>2013-05-07T15:08:24Z</time>
      </trkpt>
      <trkpt lat="41.85459" lon="-1.70171">
        <ele>724.053</ele>
        <time>2013-05-07T15:08:14Z</time>
      </trkpt>
      <trkpt lat="41.85476" lon="-1.70206">
        <ele>724.008</ele>
        <time>2013-05-07T15:08:04Z</time>
      </trkpt>
      <trkpt lat="41.85488" lon="-1.70225">
        <ele>723.508</ele>
        <time>2013-05-07T15:07:55Z</time>
      </trkpt>
      <trkpt lat="41.85498" lon="-1.70256">
        <ele>722.616</ele>
        <time>2013-05-07T15:07:41Z</time>
      </trkpt>
      <trkpt lat="41.85505" lon="-1.70277">
        <ele>721.117</ele>
        <time>2013-05-07T15:07:29Z</time>
      </trkpt>
      <trkpt lat="41.85507" lon="-1.70297">
        <ele>719.779</ele>
        <time>2013-05-07T15:07:17Z</time>
      </trkpt>
      <trkpt lat="41.85515" lon="-1.70313">
        <ele>717.844</ele>
        <time>2013-05-07T15:07:04Z</time>
      </trkpt>
      <trkpt lat="41.85527" lon="-1.70329">
        <ele>714.921</ele>
        <time>2013-05-07T15:06:49Z</time>
      </trkpt>
      <trkpt lat="41.85537" lon="-1.70342">
        <ele>713.068</ele>
        <time>2013-05-07T15:06:36Z</time>
      </trkpt>
      <trkpt lat="41.85548" lon="-1.70351">
        <ele>711.096</ele>
        <time>2013-05-07T15:06:25Z</time>
      </trkpt>
      <trkpt lat="41.85552" lon="-1.70358">
        <ele>710.129</ele>
        <time>2013-05-07T15:06:19Z</time>
      </trkpt>
      <trkpt lat="41.85559" lon="-1.70362">
        <ele>709.637</ele>
        <time>2013-05-07T15:06:13Z</time>
      </trkpt>
      <trkpt lat="41.85573" lon="-1.70379">
        <ele>708.249</ele>
        <time>2013-05-07T15:06:00Z</time>
      </trkpt>
      <trkpt lat="41.85576" lon="-1.70386">
        <ele>707.713</ele>
        <time>2013-05-07T15:05:56Z</time>
      </trkpt>
      <trkpt lat="41.8559" lon="-1.70407">
        <ele>705.808</ele>
        <time>2013-05-07T15:05:43Z</time>
      </trkpt>
      <trkpt lat="41.85609" lon="-1.70431">
        <ele>704.854</ele>
        <time>2013-05-07T15:05:31Z</time>
      </trkpt>
      <trkpt lat="41.85637" lon="-1.70456">
        <ele>704.345</ele>
        <time>2013-05-07T15:05:18Z</time>
      </trkpt>
      <trkpt lat="41.85664" lon="-1.70479">
        <ele>704.357</ele>
        <time>2013-05-07T15:05:06Z</time>
      </trkpt>
      <trkpt lat="41.85692" lon="-1.70504">
        <ele>704.352</ele>
        <time>2013-05-07T15:04:54Z</time>
      </trkpt>
      <trkpt lat="41.85718" lon="-1.70522">
        <ele>703.889</ele>
        <time>2013-05-07T15:04:42Z</time>
      </trkpt>
      <trkpt lat="41.8574" lon="-1.70532">
        <ele>702.996</ele>
        <time>2013-05-07T15:04:31Z</time>
      </trkpt>
      <trkpt lat="41.85756" lon="-1.70542">
        <ele>701.914</ele>
        <time>2013-05-07T15:04:21Z</time>
      </trkpt>
      <trkpt lat="41.85779" lon="-1.7055">
        <ele>699.517</ele>
        <time>2013-05-07T15:04:04Z</time>
      </trkpt>
      <trkpt lat="41.85801" lon="-1.7056">
        <ele>698.145</ele>
        <time>2013-05-07T15:03:48Z</time>
      </trkpt>
      <trkpt lat="41.8581" lon="-1.70568">
        <ele>697.647</ele>
        <time>2013-05-07T15:03:40Z</time>
      </trkpt>
      <trkpt lat="41.85815" lon="-1.70576">
        <ele>696.611</ele>
        <time>2013-05-07T15:03:34Z</time>
      </trkpt>
      <trkpt lat="41.85817" lon="-1.70581">
        <ele>696.108</ele>
        <time>2013-05-07T15:03:30Z</time>
      </trkpt>
      <trkpt lat="41.85817" lon="-1.7059">
        <ele>695.295</ele>
        <time>2013-05-07T15:03:24Z</time>
      </trkpt>
      <trkpt lat="41.85811" lon="-1.70613">
        <ele>693.316</ele>
        <time>2013-05-07T15:03:12Z</time>
      </trkpt>
      <trkpt lat="41.85806" lon="-1.70645">
        <ele>691.838</ele>
        <time>2013-05-07T15:02:56Z</time>
      </trkpt>
      <trkpt lat="41.85814" lon="-1.7067">
        <ele>689.963</ele>
        <time>2013-05-07T15:02:41Z</time>
      </trkpt>
      <trkpt lat="41.85819" lon="-1.70675">
        <ele>688.94</ele>
        <time>2013-05-07T15:02:36Z</time>
      </trkpt>
      <trkpt lat="41.8583" lon="-1.70691">
        <ele>687.587</ele>
        <time>2013-05-07T15:02:25Z</time>
      </trkpt>
      <trkpt lat="41.85844" lon="-1.70709">
        <ele>686.075</ele>
        <time>2013-05-07T15:02:13Z</time>
      </trkpt>
      <trkpt lat="41.8586" lon="-1.70727">
        <ele>685.198</ele>
        <time>2013-05-07T15:02:00Z</time>
      </trkpt>
      <trkpt lat="41.85877" lon="-1.70743">
        <ele>683.274</ele>
        <time>2013-05-07T15:01:45Z</time>
      </trkpt>
      <trkpt lat="41.85891" lon="-1.70755">
        <ele>681.256</ele>
        <time>2013-05-07T15:01:31Z</time>
      </trkpt>
      <trkpt lat="41.85906" lon="-1.7077">
        <ele>678.421</ele>
        <time>2013-05-07T15:01:14Z</time>
      </trkpt>
      <trkpt lat="41.85915" lon="-1.70779">
        <ele>676.408</ele>
        <time>2013-05-07T15:01:04Z</time>
      </trkpt>
      <trkpt lat="41.85917" lon="-1.7078">
        <ele>676.458</ele>
        <time>2013-05-07T15:01:02Z</time>
      </trkpt>
      <trkpt lat="41.8593" lon="-1.70798">
        <ele>674.569</ele>
        <time>2013-05-07T15:00:47Z</time>
      </trkpt>
      <trkpt lat="41.8595" lon="-1.70826">
        <ele>672.611</ele>
        <time>2013-05-07T15:00:31Z</time>
      </trkpt>
      <trkpt lat="41.85965" lon="-1.70846">
        <ele>670.736</ele>
        <time>2013-05-07T15:00:17Z</time>
      </trkpt>
      <trkpt lat="41.85966" lon="-1.70847">
        <ele>670.243</ele>
        <time>2013-05-07T15:00:16Z</time>
      </trkpt>
      <trkpt lat="41.85976" lon="-1.70866">
        <ele>668.73</ele>
        <time>2013-05-07T15:00:04Z</time>
      </trkpt>
      <trkpt lat="41.8598" lon="-1.70869">
        <ele>668.348</ele>
        <time>2013-05-07T15:00:01Z</time>
      </trkpt>
      <trkpt lat="41.85997" lon="-1.70881">
        <ele>666.881</ele>
        <time>2013-05-07T14:59:49Z</time>
      </trkpt>
      <trkpt lat="41.86023" lon="-1.7089">
        <ele>665.995</ele>
        <time>2013-05-07T14:59:35Z</time>
      </trkpt>
      <trkpt lat="41.86049" lon="-1.70884">
        <ele>664.949</ele>
        <time>2013-05-07T14:59:22Z</time>
      </trkpt>
      <trkpt lat="41.86072" lon="-1.70881">
        <ele>663.923</ele>
        <time>2013-05-07T14:59:11Z</time>
      </trkpt>
      <trkpt lat="41.8609" lon="-1.70885">
        <ele>663.008</ele>
        <time>2013-05-07T14:58:58Z</time>
      </trkpt>
      <trkpt lat="41.86107" lon="-1.70898">
        <ele>663.05</ele>
        <time>2013-05-07T14:58:45Z</time>
      </trkpt>
      <trkpt lat="41.8612" lon="-1.7091">
        <ele>661.511</ele>
        <time>2013-05-07T14:58:33Z</time>
      </trkpt>
      <trkpt lat="41.86127" lon="-1.70918">
        <ele>660.153</ele>
        <time>2013-05-07T14:58:25Z</time>
      </trkpt>
      <trkpt lat="41.8613" lon="-1.70921">
        <ele>660.138</ele>
        <time>2013-05-07T14:58:22Z</time>
      </trkpt>
      <trkpt lat="41.86137" lon="-1.70928">
        <ele>660.135</ele>
        <time>2013-05-07T14:58:14Z</time>
      </trkpt>
      <trkpt lat="41.8614" lon="-1.70928">
        <ele>660.632</ele>
        <time>2013-05-07T14:57:27Z</time>
      </trkpt>
      <trkpt lat="41.86141" lon="-1.70931">
        <ele>660.65</ele>
        <time>2013-05-07T14:57:13Z</time>
      </trkpt>
      <trkpt lat="41.86142" lon="-1.7093">
        <ele>661.023</ele>
        <time>2013-05-07T14:56:25Z</time>
      </trkpt>
      <trkpt lat="41.8614" lon="-1.70929">
        <ele>661.097</ele>
        <time>2013-05-07T14:55:45Z</time>
      </trkpt>
      <trkpt lat="41.8614" lon="-1.70928">
        <ele>661.023</ele>
        <time>2013-05-07T14:55:16Z</time>
      </trkpt>
      <trkpt lat="41.86139" lon="-1.70928">
        <ele>662.025</ele>
        <time>2013-05-07T14:54:11Z</time>
      </trkpt>
      <trkpt lat="41.8614" lon="-1.70927">
        <ele>662.008</ele>
        <time>2013-05-07T14:52:40Z</time>
      </trkpt>
      <trkpt lat="41.86141" lon="-1.70927">
        <ele>662.01</ele>
        <time>2013-05-07T14:52:12Z</time>
      </trkpt>
      <trkpt lat="41.8614" lon="-1.70929">
        <ele>662.081</ele>
        <time>2013-05-07T14:51:48Z</time>
      </trkpt>
      <trkpt lat="41.86142" lon="-1.70929">
        <ele>662.033</ele>
        <time>2013-05-07T14:51:21Z</time>
      </trkpt>
      <trkpt lat="41.86142" lon="-1.7093">
        <ele>662.048</ele>
        <time>2013-05-07T14:50:35Z</time>
      </trkpt>
      <trkpt lat="41.86148" lon="-1.70938">
        <ele>661.545</ele>
        <time>2013-05-07T14:50:23Z</time>
      </trkpt>
      <trkpt lat="41.8615" lon="-1.7095">
        <ele>660.662</ele>
        <time>2013-05-07T14:50:15Z</time>
      </trkpt>
      <trkpt lat="41.86149" lon="-1.70968">
        <ele>658.63</ele>
        <time>2013-05-07T14:50:02Z</time>
      </trkpt>
      <trkpt lat="41.86147" lon="-1.70987">
        <ele>657.713</ele>
        <time>2013-05-07T14:49:49Z</time>
      </trkpt>
      <trkpt lat="41.86147" lon="-1.70991">
        <ele>656.779</ele>
        <time>2013-05-07T14:49:46Z</time>
      </trkpt>
      <trkpt lat="41.86148" lon="-1.70998">
        <ele>656.205</ele>
        <time>2013-05-07T14:49:41Z</time>
      </trkpt>
      <trkpt lat="41.8615" lon="-1.71003">
        <ele>655.825</ele>
        <time>2013-05-07T14:49:37Z</time>
      </trkpt>
      <trkpt lat="41.8616" lon="-1.71017">
        <ele>653.808</ele>
        <time>2013-05-07T14:49:25Z</time>
      </trkpt>
      <trkpt lat="41.86166" lon="-1.71027">
        <ele>652.448</ele>
        <time>2013-05-07T14:49:14Z</time>
      </trkpt>
      <trkpt lat="41.86168" lon="-1.71029">
        <ele>651.969</ele>
        <time>2013-05-07T14:49:12Z</time>
      </trkpt>
      <trkpt lat="41.86172" lon="-1.71036">
        <ele>651.481</ele>
        <time>2013-05-07T14:49:06Z</time>
      </trkpt>
      <trkpt lat="41.86183" lon="-1.71045">
        <ele>650.076</ele>
        <time>2013-05-07T14:48:53Z</time>
      </trkpt>
      <trkpt lat="41.86191" lon="-1.7105">
        <ele>648.113</ele>
        <time>2013-05-07T14:48:45Z</time>
      </trkpt>
      <trkpt lat="41.86206" lon="-1.71054">
        <ele>646.69</ele>
        <time>2013-05-07T14:48:31Z</time>
      </trkpt>
      <trkpt lat="41.8622" lon="-1.71052">
        <ele>644.778</ele>
        <time>2013-05-07T14:48:18Z</time>
      </trkpt>
      <trkpt lat="41.86233" lon="-1.71049">
        <ele>643.711</ele>
        <time>2013-05-07T14:48:06Z</time>
      </trkpt>
      <trkpt lat="41.86245" lon="-1.71047">
        <ele>641.373</ele>
        <time>2013-05-07T14:47:54Z</time>
      </trkpt>
      <trkpt lat="41.86256" lon="-1.71046">
        <ele>640.485</ele>
        <time>2013-05-07T14:47:43Z</time>
      </trkpt>
      <trkpt lat="41.86268" lon="-1.71055">
        <ele>638.513</ele>
        <time>2013-05-07T14:47:29Z</time>
      </trkpt>
      <trkpt lat="41.86274" lon="-1.71061">
        <ele>637.008</ele>
        <time>2013-05-07T14:47:22Z</time>
      </trkpt>
      <trkpt lat="41.86275" lon="-1.71063">
        <ele>637.098</ele>
        <time>2013-05-07T14:47:20Z</time>
      </trkpt>
      <trkpt lat="41.86277" lon="-1.7108">
        <ele>635.139</ele>
        <time>2013-05-07T14:47:08Z</time>
      </trkpt>
      <trkpt lat="41.8628" lon="-1.71105">
        <ele>632.761</ele>
        <time>2013-05-07T14:46:54Z</time>
      </trkpt>
      <trkpt lat="41.8629" lon="-1.71114">
        <ele>632.796</ele>
        <time>2013-05-07T14:46:16Z</time>
      </trkpt>
      <trkpt lat="41.86314" lon="-1.71135">
        <ele>632.733</ele>
        <time>2013-05-07T14:46:08Z</time>
      </trkpt>
      <trkpt lat="41.86328" lon="-1.71136">
        <ele>632.79</ele>
        <time>2013-05-07T14:46:05Z</time>
      </trkpt>
      <trkpt lat="41.86391" lon="-1.71162">
        <ele>634.128</ele>
        <time>2013-05-07T14:45:51Z</time>
      </trkpt>
      <trkpt lat="41.86437" lon="-1.71203">
        <ele>635.171</ele>
        <time>2013-05-07T14:45:36Z</time>
      </trkpt>
      <trkpt lat="41.86464" lon="-1.71231">
        <ele>634.695</ele>
        <time>2013-05-07T14:45:23Z</time>
      </trkpt>
      <trkpt lat="41.86495" lon="-1.71267">
        <ele>632.249</ele>
        <time>2013-05-07T14:45:07Z</time>
      </trkpt>
      <trkpt lat="41.86527" lon="-1.713">
        <ele>630.823</ele>
        <time>2013-05-07T14:44:51Z</time>
      </trkpt>
      <trkpt lat="41.8655" lon="-1.71324">
        <ele>628.408</ele>
        <time>2013-05-07T14:44:39Z</time>
      </trkpt>
      <trkpt lat="41.86578" lon="-1.71361">
        <ele>626.94</ele>
        <time>2013-05-07T14:44:27Z</time>
      </trkpt>
      <trkpt lat="41.86617" lon="-1.71395">
        <ele>626.061</ele>
        <time>2013-05-07T14:44:15Z</time>
      </trkpt>
      <trkpt lat="41.8668" lon="-1.7143">
        <ele>625.533</ele>
        <time>2013-05-07T14:44:01Z</time>
      </trkpt>
      <trkpt lat="41.86734" lon="-1.71458">
        <ele>625.578</ele>
        <time>2013-05-07T14:43:50Z</time>
      </trkpt>
      <trkpt lat="41.86764" lon="-1.71475">
        <ele>625.575</ele>
        <time>2013-05-07T14:43:42Z</time>
      </trkpt>
      <trkpt lat="41.86766" lon="-1.71479">
        <ele>625.512</ele>
        <time>2013-05-07T14:43:41Z</time>
      </trkpt>
      <trkpt lat="41.86778" lon="-1.71528">
        <ele>624.06</ele>
        <time>2013-05-07T14:43:32Z</time>
      </trkpt>
      <trkpt lat="41.86792" lon="-1.71587">
        <ele>624.033</ele>
        <time>2013-05-07T14:43:19Z</time>
      </trkpt>
      <trkpt lat="41.86792" lon="-1.71591">
        <ele>624.025</ele>
        <time>2013-05-07T14:43:18Z</time>
      </trkpt>
      <trkpt lat="41.86793" lon="-1.71595">
        <ele>624.026</ele>
        <time>2013-05-07T14:43:17Z</time>
      </trkpt>
      <trkpt lat="41.86794" lon="-1.71599">
        <ele>624.008</ele>
        <time>2013-05-07T14:43:16Z</time>
      </trkpt>
      <trkpt lat="41.86795" lon="-1.71603">
        <ele>624.008</ele>
        <time>2013-05-07T14:43:15Z</time>
      </trkpt>
      <trkpt lat="41.86796" lon="-1.71606">
        <ele>624.083</ele>
        <time>2013-05-07T14:43:14Z</time>
      </trkpt>
      <trkpt lat="41.86797" lon="-1.71609">
        <ele>624.034</ele>
        <time>2013-05-07T14:43:13Z</time>
      </trkpt>
      <trkpt lat="41.86797" lon="-1.71612">
        <ele>624.056</ele>
        <time>2013-05-07T14:43:12Z</time>
      </trkpt>
      <trkpt lat="41.86798" lon="-1.71616">
        <ele>624.021</ele>
        <time>2013-05-07T14:43:11Z</time>
      </trkpt>
      <trkpt lat="41.86799" lon="-1.71619">
        <ele>624.048</ele>
        <time>2013-05-07T14:43:10Z</time>
      </trkpt>
      <trkpt lat="41.868" lon="-1.71621">
        <ele>624.085</ele>
        <time>2013-05-07T14:43:09Z</time>
      </trkpt>
      <trkpt lat="41.86801" lon="-1.71633">
        <ele>624.033</ele>
        <time>2013-05-07T14:43:03Z</time>
      </trkpt>
      <trkpt lat="41.86809" lon="-1.7166">
        <ele>624.046</ele>
        <time>2013-05-07T14:42:50Z</time>
      </trkpt>
      <trkpt lat="41.86814" lon="-1.71674">
        <ele>624.518</ele>
        <time>2013-05-07T14:42:37Z</time>
      </trkpt>
      <trkpt lat="41.8682" lon="-1.71699">
        <ele>625.098</ele>
        <time>2013-05-07T14:42:22Z</time>
      </trkpt>
      <trkpt lat="41.86827" lon="-1.71721">
        <ele>626.017</ele>
        <time>2013-05-07T14:42:11Z</time>
      </trkpt>
      <trkpt lat="41.8683" lon="-1.71744">
        <ele>627.408</ele>
        <time>2013-05-07T14:42:01Z</time>
      </trkpt>
      <trkpt lat="41.86835" lon="-1.71792">
        <ele>630.322</ele>
        <time>2013-05-07T14:41:52Z</time>
      </trkpt>
      <trkpt lat="41.86836" lon="-1.71861">
        <ele>633.753</ele>
        <time>2013-05-07T14:41:44Z</time>
      </trkpt>
      <trkpt lat="41.86835" lon="-1.71953">
        <ele>635.675</ele>
        <time>2013-05-07T14:41:35Z</time>
      </trkpt>
      <trkpt lat="41.86836" lon="-1.71963">
        <ele>636.19</ele>
        <time>2013-05-07T14:41:34Z</time>
      </trkpt>
      <trkpt lat="41.86837" lon="-1.71973">
        <ele>636.127</ele>
        <time>2013-05-07T14:41:33Z</time>
      </trkpt>
      <trkpt lat="41.86838" lon="-1.71982">
        <ele>637.074</ele>
        <time>2013-05-07T14:41:32Z</time>
      </trkpt>
      <trkpt lat="41.86841" lon="-1.71991">
        <ele>637.082</ele>
        <time>2013-05-07T14:41:31Z</time>
      </trkpt>
      <trkpt lat="41.86844" lon="-1.71998">
        <ele>637.595</ele>
        <time>2013-05-07T14:41:30Z</time>
      </trkpt>
      <trkpt lat="41.86848" lon="-1.72003">
        <ele>638.065</ele>
        <time>2013-05-07T14:41:29Z</time>
      </trkpt>
      <trkpt lat="41.86853" lon="-1.72007">
        <ele>638.968</ele>
        <time>2013-05-07T14:41:28Z</time>
      </trkpt>
      <trkpt lat="41.86858" lon="-1.72009">
        <ele>638.914</ele>
        <time>2013-05-07T14:41:27Z</time>
      </trkpt>
      <trkpt lat="41.86918" lon="-1.72011">
        <ele>640.908</ele>
        <time>2013-05-07T14:41:16Z</time>
      </trkpt>
      <trkpt lat="41.86969" lon="-1.72028">
        <ele>641.387</ele>
        <time>2013-05-07T14:41:06Z</time>
      </trkpt>
      <trkpt lat="41.86974" lon="-1.72031">
        <ele>641.358</ele>
        <time>2013-05-07T14:41:05Z</time>
      </trkpt>
      <trkpt lat="41.86979" lon="-1.72035">
        <ele>641.37</ele>
        <time>2013-05-07T14:41:04Z</time>
      </trkpt>
      <trkpt lat="41.86983" lon="-1.72039">
        <ele>641.885</ele>
        <time>2013-05-07T14:41:03Z</time>
      </trkpt>
      <trkpt lat="41.86986" lon="-1.72044">
        <ele>641.872</ele>
        <time>2013-05-07T14:41:02Z</time>
      </trkpt>
      <trkpt lat="41.86987" lon="-1.7205">
        <ele>641.829</ele>
        <time>2013-05-07T14:41:01Z</time>
      </trkpt>
      <trkpt lat="41.86987" lon="-1.72056">
        <ele>642.897</ele>
        <time>2013-05-07T14:41:00Z</time>
      </trkpt>
      <trkpt lat="41.86985" lon="-1.72062">
        <ele>642.37</ele>
        <time>2013-05-07T14:40:59Z</time>
      </trkpt>
      <trkpt lat="41.86983" lon="-1.72066">
        <ele>642.892</ele>
        <time>2013-05-07T14:40:58Z</time>
      </trkpt>
      <trkpt lat="41.8698" lon="-1.7207">
        <ele>642.873</ele>
        <time>2013-05-07T14:40:57Z</time>
      </trkpt>
      <trkpt lat="41.86976" lon="-1.72074">
        <ele>643.32</ele>
        <time>2013-05-07T14:40:56Z</time>
      </trkpt>
      <trkpt lat="41.86972" lon="-1.72076">
        <ele>643.308</ele>
        <time>2013-05-07T14:40:55Z</time>
      </trkpt>
      <trkpt lat="41.86967" lon="-1.72077">
        <ele>643.34</ele>
        <time>2013-05-07T14:40:54Z</time>
      </trkpt>
      <trkpt lat="41.86963" lon="-1.72078">
        <ele>643.361</ele>
        <time>2013-05-07T14:40:53Z</time>
      </trkpt>
      <trkpt lat="41.86954" lon="-1.72079">
        <ele>643.333</ele>
        <time>2013-05-07T14:40:51Z</time>
      </trkpt>
      <trkpt lat="41.86949" lon="-1.72079">
        <ele>643.368</ele>
        <time>2013-05-07T14:40:50Z</time>
      </trkpt>
      <trkpt lat="41.86944" lon="-1.7208">
        <ele>643.385</ele>
        <time>2013-05-07T14:40:49Z</time>
      </trkpt>
      <trkpt lat="41.8694" lon="-1.72082">
        <ele>643.752</ele>
        <time>2013-05-07T14:40:48Z</time>
      </trkpt>
      <trkpt lat="41.86935" lon="-1.72085">
        <ele>643.74</ele>
        <time>2013-05-07T14:40:47Z</time>
      </trkpt>
      <trkpt lat="41.86931" lon="-1.72089">
        <ele>644.253</ele>
        <time>2013-05-07T14:40:46Z</time>
      </trkpt>
      <trkpt lat="41.86928" lon="-1.72094">
        <ele>643.746</ele>
        <time>2013-05-07T14:40:45Z</time>
      </trkpt>
      <trkpt lat="41.86919" lon="-1.72109">
        <ele>644.288</ele>
        <time>2013-05-07T14:40:42Z</time>
      </trkpt>
      <trkpt lat="41.86917" lon="-1.72114">
        <ele>644.716</ele>
        <time>2013-05-07T14:40:41Z</time>
      </trkpt>
      <trkpt lat="41.86915" lon="-1.72118">
        <ele>644.708</ele>
        <time>2013-05-07T14:40:40Z</time>
      </trkpt>
      <trkpt lat="41.86909" lon="-1.72127">
        <ele>645.765</ele>
        <time>2013-05-07T14:40:38Z</time>
      </trkpt>
      <trkpt lat="41.86907" lon="-1.72132">
        <ele>645.766</ele>
        <time>2013-05-07T14:40:37Z</time>
      </trkpt>
      <trkpt lat="41.86886" lon="-1.72163">
        <ele>646.618</ele>
        <time>2013-05-07T14:40:28Z</time>
      </trkpt>
      <trkpt lat="41.86878" lon="-1.72165">
        <ele>648.663</ele>
        <time>2013-05-07T14:40:22Z</time>
      </trkpt>
      <trkpt lat="41.86883" lon="-1.72189">
        <ele>647.17</ele>
        <time>2013-05-07T14:39:57Z</time>
      </trkpt>
      <trkpt lat="41.86884" lon="-1.72195">
        <ele>647.177</ele>
        <time>2013-05-07T14:39:56Z</time>
      </trkpt>
      <trkpt lat="41.86886" lon="-1.72201">
        <ele>647.135</ele>
        <time>2013-05-07T14:39:55Z</time>
      </trkpt>
      <trkpt lat="41.86903" lon="-1.72248">
        <ele>648.668</ele>
        <time>2013-05-07T14:39:47Z</time>
      </trkpt>
      <trkpt lat="41.86906" lon="-1.72254">
        <ele>648.673</ele>
        <time>2013-05-07T14:39:46Z</time>
      </trkpt>
      <trkpt lat="41.86919" lon="-1.72272">
        <ele>648.685</ele>
        <time>2013-05-07T14:39:42Z</time>
      </trkpt>
      <trkpt lat="41.86928" lon="-1.72296">
        <ele>648.613</ele>
        <time>2013-05-07T14:39:37Z</time>
      </trkpt>
      <trkpt lat="41.86933" lon="-1.72373">
        <ele>648.608</ele>
        <time>2013-05-07T14:39:23Z</time>
      </trkpt>
      <trkpt lat="41.86935" lon="-1.72439">
        <ele>647.618</ele>
        <time>2013-05-07T14:39:09Z</time>
      </trkpt>
      <trkpt lat="41.86938" lon="-1.72492">
        <ele>647.179</ele>
        <time>2013-05-07T14:38:55Z</time>
      </trkpt>
      <trkpt lat="41.8695" lon="-1.7253">
        <ele>645.221</ele>
        <time>2013-05-07T14:38:41Z</time>
      </trkpt>
      <trkpt lat="41.86959" lon="-1.72551">
        <ele>644.286</ele>
        <time>2013-05-07T14:38:32Z</time>
      </trkpt>
      <trkpt lat="41.86961" lon="-1.72553">
        <ele>643.723</ele>
        <time>2013-05-07T14:38:31Z</time>
      </trkpt>
      <trkpt lat="41.86962" lon="-1.72556">
        <ele>643.79</ele>
        <time>2013-05-07T14:38:30Z</time>
      </trkpt>
      <trkpt lat="41.86963" lon="-1.72558">
        <ele>643.748</ele>
        <time>2013-05-07T14:38:29Z</time>
      </trkpt>
      <trkpt lat="41.86964" lon="-1.7256">
        <ele>643.351</ele>
        <time>2013-05-07T14:38:28Z</time>
      </trkpt>
      <trkpt lat="41.86977" lon="-1.72583">
        <ele>642.366</ele>
        <time>2013-05-07T14:38:17Z</time>
      </trkpt>
      <trkpt lat="41.86978" lon="-1.72585">
        <ele>642.329</ele>
        <time>2013-05-07T14:38:16Z</time>
      </trkpt>
      <trkpt lat="41.86979" lon="-1.72587">
        <ele>642.321</ele>
        <time>2013-05-07T14:38:15Z</time>
      </trkpt>
      <trkpt lat="41.86981" lon="-1.72589">
        <ele>642.308</ele>
        <time>2013-05-07T14:38:14Z</time>
      </trkpt>
      <trkpt lat="41.86982" lon="-1.7259">
        <ele>642.397</ele>
        <time>2013-05-07T14:38:13Z</time>
      </trkpt>
      <trkpt lat="41.86983" lon="-1.72592">
        <ele>642.398</ele>
        <time>2013-05-07T14:38:12Z</time>
      </trkpt>
      <trkpt lat="41.86984" lon="-1.72593">
        <ele>642.35</ele>
        <time>2013-05-07T14:38:11Z</time>
      </trkpt>
      <trkpt lat="41.86985" lon="-1.72593">
        <ele>641.855</ele>
        <time>2013-05-07T14:37:59Z</time>
      </trkpt>
      <trkpt lat="41.86995" lon="-1.72612">
        <ele>640.972</ele>
        <time>2013-05-07T14:37:47Z</time>
      </trkpt>
      <trkpt lat="41.87008" lon="-1.7263">
        <ele>640.469</ele>
        <time>2013-05-07T14:37:39Z</time>
      </trkpt>
      <trkpt lat="41.87008" lon="-1.72636">
        <ele>640.467</ele>
        <time>2013-05-07T14:37:26Z</time>
      </trkpt>
      <trkpt lat="41.87019" lon="-1.7265">
        <ele>639.49</ele>
        <time>2013-05-07T14:37:15Z</time>
      </trkpt>
      <trkpt lat="41.8704" lon="-1.72677">
        <ele>638.973</ele>
        <time>2013-05-07T14:37:03Z</time>
      </trkpt>
      <trkpt lat="41.87063" lon="-1.72706">
        <ele>638.085</ele>
        <time>2013-05-07T14:36:50Z</time>
      </trkpt>
      <trkpt lat="41.87082" lon="-1.72734">
        <ele>637.513</ele>
        <time>2013-05-07T14:36:40Z</time>
      </trkpt>
      <trkpt lat="41.87084" lon="-1.72737">
        <ele>637.508</ele>
        <time>2013-05-07T14:36:39Z</time>
      </trkpt>
      <trkpt lat="41.87087" lon="-1.7274">
        <ele>637.538</ele>
        <time>2013-05-07T14:36:38Z</time>
      </trkpt>
      <trkpt lat="41.87089" lon="-1.72743">
        <ele>637.529</ele>
        <time>2013-05-07T14:36:37Z</time>
      </trkpt>
      <trkpt lat="41.87091" lon="-1.72745">
        <ele>637.591</ele>
        <time>2013-05-07T14:36:36Z</time>
      </trkpt>
      <trkpt lat="41.87094" lon="-1.72748">
        <ele>637.596</ele>
        <time>2013-05-07T14:36:35Z</time>
      </trkpt>
      <trkpt lat="41.87095" lon="-1.7275">
        <ele>637.513</ele>
        <time>2013-05-07T14:36:34Z</time>
      </trkpt>
      <trkpt lat="41.871" lon="-1.72752">
        <ele>637.57</ele>
        <time>2013-05-07T14:36:32Z</time>
      </trkpt>
      <trkpt lat="41.87127" lon="-1.72744">
        <ele>637.038</ele>
        <time>2013-05-07T14:36:17Z</time>
      </trkpt>
      <trkpt lat="41.87128" lon="-1.72743">
        <ele>637.061</ele>
        <time>2013-05-07T14:36:16Z</time>
      </trkpt>
      <trkpt lat="41.87129" lon="-1.72743">
        <ele>637.073</ele>
        <time>2013-05-07T14:36:15Z</time>
      </trkpt>
      <trkpt lat="41.8713" lon="-1.72743">
        <ele>637.085</ele>
        <time>2013-05-07T14:36:13Z</time>
      </trkpt>
      <trkpt lat="41.87132" lon="-1.7274">
        <ele>637.013</ele>
        <time>2013-05-07T14:35:55Z</time>
      </trkpt>
      <trkpt lat="41.87133" lon="-1.72738">
        <ele>637.008</ele>
        <time>2013-05-07T14:35:43Z</time>
      </trkpt>
      <trkpt lat="41.87152" lon="-1.72724">
        <ele>637.068</ele>
        <time>2013-05-07T14:35:32Z</time>
      </trkpt>
      <trkpt lat="41.87154" lon="-1.72722">
        <ele>637.059</ele>
        <time>2013-05-07T14:35:31Z</time>
      </trkpt>
      <trkpt lat="41.87156" lon="-1.72721">
        <ele>637.081</ele>
        <time>2013-05-07T14:35:30Z</time>
      </trkpt>
      <trkpt lat="41.87157" lon="-1.7272">
        <ele>637.046</ele>
        <time>2013-05-07T14:35:29Z</time>
      </trkpt>
      <trkpt lat="41.87158" lon="-1.72718">
        <ele>637.063</ele>
        <time>2013-05-07T14:35:28Z</time>
      </trkpt>
      <trkpt lat="41.87161" lon="-1.72717">
        <ele>636.59</ele>
        <time>2013-05-07T14:35:26Z</time>
      </trkpt>
      <trkpt lat="41.87163" lon="-1.72716">
        <ele>636.598</ele>
        <time>2013-05-07T14:35:25Z</time>
      </trkpt>
      <trkpt lat="41.87164" lon="-1.72715">
        <ele>636.571</ele>
        <time>2013-05-07T14:35:24Z</time>
      </trkpt>
      <trkpt lat="41.87173" lon="-1.72713">
        <ele>636.569</ele>
        <time>2013-05-07T14:35:18Z</time>
      </trkpt>
      <trkpt lat="41.87178" lon="-1.72714">
        <ele>636.504</ele>
        <time>2013-05-07T14:35:14Z</time>
      </trkpt>
      <trkpt lat="41.87185" lon="-1.72711">
        <ele>636.524</ele>
        <time>2013-05-07T14:35:07Z</time>
      </trkpt>
      <trkpt lat="41.87191" lon="-1.72704">
        <ele>635.608</ele>
        <time>2013-05-07T14:35:00Z</time>
      </trkpt>
      <trkpt lat="41.87193" lon="-1.72701">
        <ele>635.127</ele>
        <time>2013-05-07T14:34:57Z</time>
      </trkpt>
      <trkpt lat="41.87199" lon="-1.72692">
        <ele>633.288</ele>
        <time>2013-05-07T14:34:48Z</time>
      </trkpt>
      <trkpt lat="41.87212" lon="-1.72677">
        <ele>631.27</ele>
        <time>2013-05-07T14:34:34Z</time>
      </trkpt>
      <trkpt lat="41.87216" lon="-1.72674">
        <ele>630.815</ele>
        <time>2013-05-07T14:34:30Z</time>
      </trkpt>
      <trkpt lat="41.87219" lon="-1.72671">
        <ele>630.322</ele>
        <time>2013-05-07T14:34:27Z</time>
      </trkpt>
      <trkpt lat="41.87221" lon="-1.72669">
        <ele>629.869</ele>
        <time>2013-05-07T14:34:25Z</time>
      </trkpt>
      <trkpt lat="41.87229" lon="-1.72655">
        <ele>628.477</ele>
        <time>2013-05-07T14:34:14Z</time>
      </trkpt>
      <trkpt lat="41.87241" lon="-1.72639">
        <ele>626.45</ele>
        <time>2013-05-07T14:34:01Z</time>
      </trkpt>
      <trkpt lat="41.87249" lon="-1.72621">
        <ele>625.528</ele>
        <time>2013-05-07T14:33:51Z</time>
      </trkpt>
      <trkpt lat="41.87264" lon="-1.72597">
        <ele>623.189</ele>
        <time>2013-05-07T14:33:37Z</time>
      </trkpt>
      <trkpt lat="41.87282" lon="-1.72576">
        <ele>621.617</ele>
        <time>2013-05-07T14:33:24Z</time>
      </trkpt>
      <trkpt lat="41.87306" lon="-1.72558">
        <ele>620.708</ele>
        <time>2013-05-07T14:33:09Z</time>
      </trkpt>
      <trkpt lat="41.87325" lon="-1.72547">
        <ele>619.733</ele>
        <time>2013-05-07T14:32:58Z</time>
      </trkpt>
      <trkpt lat="41.8734" lon="-1.72526">
        <ele>617.374</ele>
        <time>2013-05-07T14:32:44Z</time>
      </trkpt>
      <trkpt lat="41.87355" lon="-1.72504">
        <ele>615.936</ele>
        <time>2013-05-07T14:32:31Z</time>
      </trkpt>
      <trkpt lat="41.87372" lon="-1.72485">
        <ele>614.451</ele>
        <time>2013-05-07T14:32:18Z</time>
      </trkpt>
      <trkpt lat="41.87388" lon="-1.72472">
        <ele>613.088</ele>
        <time>2013-05-07T14:32:07Z</time>
      </trkpt>
      <trkpt lat="41.87414" lon="-1.72459">
        <ele>610.655</ele>
        <time>2013-05-07T14:31:53Z</time>
      </trkpt>
      <trkpt lat="41.87438" lon="-1.72441">
        <ele>609.113</ele>
        <time>2013-05-07T14:31:40Z</time>
      </trkpt>
      <trkpt lat="41.87465" lon="-1.72405">
        <ele>607.736</ele>
        <time>2013-05-07T14:31:24Z</time>
      </trkpt>
      <trkpt lat="41.87489" lon="-1.72364">
        <ele>606.329</ele>
        <time>2013-05-07T14:31:08Z</time>
      </trkpt>
      <trkpt lat="41.87508" lon="-1.72333">
        <ele>605.3</ele>
        <time>2013-05-07T14:30:55Z</time>
      </trkpt>
      <trkpt lat="41.87532" lon="-1.7231">
        <ele>604.32</ele>
        <time>2013-05-07T14:30:42Z</time>
      </trkpt>
      <trkpt lat="41.87552" lon="-1.72288">
        <ele>603.908</ele>
        <time>2013-05-07T14:30:31Z</time>
      </trkpt>
      <trkpt lat="41.87561" lon="-1.72246">
        <ele>603.493</ele>
        <time>2013-05-07T14:30:18Z</time>
      </trkpt>
      <trkpt lat="41.87563" lon="-1.72243">
        <ele>603.414</ele>
        <time>2013-05-07T14:30:17Z</time>
      </trkpt>
      <trkpt lat="41.87588" lon="-1.72228">
        <ele>603.436</ele>
        <time>2013-05-07T14:30:07Z</time>
      </trkpt>
      <trkpt lat="41.87622" lon="-1.72249">
        <ele>602.991</ele>
        <time>2013-05-07T14:29:53Z</time>
      </trkpt>
      <trkpt lat="41.87655" lon="-1.72262">
        <ele>601.978</ele>
        <time>2013-05-07T14:29:39Z</time>
      </trkpt>
      <trkpt lat="41.87689" lon="-1.72254">
        <ele>600.515</ele>
        <time>2013-05-07T14:29:24Z</time>
      </trkpt>
      <trkpt lat="41.87726" lon="-1.72243">
        <ele>599.563</ele>
        <time>2013-05-07T14:29:08Z</time>
      </trkpt>
      <trkpt lat="41.87753" lon="-1.72238">
        <ele>599.026</ele>
        <time>2013-05-07T14:28:56Z</time>
      </trkpt>
      <trkpt lat="41.87781" lon="-1.72237">
        <ele>598.162</ele>
        <time>2013-05-07T14:28:43Z</time>
      </trkpt>
      <trkpt lat="41.87804" lon="-1.72233">
        <ele>596.683</ele>
        <time>2013-05-07T14:28:31Z</time>
      </trkpt>
      <trkpt lat="41.87825" lon="-1.72221">
        <ele>595.711</ele>
        <time>2013-05-07T14:28:20Z</time>
      </trkpt>
      <trkpt lat="41.87847" lon="-1.72206">
        <ele>594.708</ele>
        <time>2013-05-07T14:28:08Z</time>
      </trkpt>
      <trkpt lat="41.87877" lon="-1.72187">
        <ele>593.327</ele>
        <time>2013-05-07T14:27:53Z</time>
      </trkpt>
      <trkpt lat="41.87907" lon="-1.72174">
        <ele>592.358</ele>
        <time>2013-05-07T14:27:39Z</time>
      </trkpt>
      <trkpt lat="41.87935" lon="-1.72174">
        <ele>590.91</ele>
        <time>2013-05-07T14:27:26Z</time>
      </trkpt>
      <trkpt lat="41.87954" lon="-1.72179">
        <ele>589.985</ele>
        <time>2013-05-07T14:27:16Z</time>
      </trkpt>
      <trkpt lat="41.87972" lon="-1.72193">
        <ele>589.042</ele>
        <time>2013-05-07T14:27:05Z</time>
      </trkpt>
      <trkpt lat="41.87994" lon="-1.72213">
        <ele>587.059</ele>
        <time>2013-05-07T14:26:52Z</time>
      </trkpt>
      <trkpt lat="41.88027" lon="-1.72222">
        <ele>585.197</ele>
        <time>2013-05-07T14:26:37Z</time>
      </trkpt>
      <trkpt lat="41.88065" lon="-1.72233">
        <ele>584.15</ele>
        <time>2013-05-07T14:26:20Z</time>
      </trkpt>
      <trkpt lat="41.88101" lon="-1.72244">
        <ele>582.749</ele>
        <time>2013-05-07T14:26:04Z</time>
      </trkpt>
      <trkpt lat="41.88125" lon="-1.7225">
        <ele>581.702</ele>
        <time>2013-05-07T14:25:53Z</time>
      </trkpt>
      <trkpt lat="41.88156" lon="-1.72252">
        <ele>580.822</ele>
        <time>2013-05-07T14:25:39Z</time>
      </trkpt>
      <trkpt lat="41.88184" lon="-1.72255">
        <ele>579.808</ele>
        <time>2013-05-07T14:25:26Z</time>
      </trkpt>
      <trkpt lat="41.88211" lon="-1.7226">
        <ele>578.495</ele>
        <time>2013-05-07T14:25:12Z</time>
      </trkpt>
      <trkpt lat="41.88216" lon="-1.72265">
        <ele>578.466</ele>
        <time>2013-05-07T14:25:09Z</time>
      </trkpt>
      <trkpt lat="41.88223" lon="-1.72276">
        <ele>578.478</ele>
        <time>2013-05-07T14:25:00Z</time>
      </trkpt>
      <trkpt lat="41.88223" lon="-1.72272">
        <ele>578.483</ele>
        <time>2013-05-07T14:24:37Z</time>
      </trkpt>
      <trkpt lat="41.88223" lon="-1.72274">
        <ele>578.42</ele>
        <time>2013-05-07T14:24:03Z</time>
      </trkpt>
      <trkpt lat="41.88223" lon="-1.72275">
        <ele>578.487</ele>
        <time>2013-05-07T14:22:45Z</time>
      </trkpt>
      <trkpt lat="41.88223" lon="-1.72275">
        <ele>578.485</ele>
        <time>2013-05-07T14:22:26Z</time>
      </trkpt>
      <trkpt lat="41.8824" lon="-1.72287">
        <ele>578.458</ele>
        <time>2013-05-07T14:22:15Z</time>
      </trkpt>
      <trkpt lat="41.88284" lon="-1.72297">
        <ele>578.495</ele>
        <time>2013-05-07T14:22:02Z</time>
      </trkpt>
      <trkpt lat="41.88323" lon="-1.72307">
        <ele>579.849</ele>
        <time>2013-05-07T14:21:48Z</time>
      </trkpt>
      <trkpt lat="41.8835" lon="-1.72316">
        <ele>579.823</ele>
        <time>2013-05-07T14:21:35Z</time>
      </trkpt>
      <trkpt lat="41.88375" lon="-1.72325">
        <ele>579.308</ele>
        <time>2013-05-07T14:21:23Z</time>
      </trkpt>
      <trkpt lat="41.88412" lon="-1.7234">
        <ele>578.46</ele>
        <time>2013-05-07T14:21:07Z</time>
      </trkpt>
      <trkpt lat="41.88444" lon="-1.72351">
        <ele>577.411</ele>
        <time>2013-05-07T14:20:51Z</time>
      </trkpt>
      <trkpt lat="41.88472" lon="-1.7236">
        <ele>575.533</ele>
        <time>2013-05-07T14:20:37Z</time>
      </trkpt>
      <trkpt lat="41.88494" lon="-1.72362">
        <ele>574.538</ele>
        <time>2013-05-07T14:20:26Z</time>
      </trkpt>
      <trkpt lat="41.88529" lon="-1.72356">
        <ele>572.645</ele>
        <time>2013-05-07T14:20:10Z</time>
      </trkpt>
      <trkpt lat="41.88562" lon="-1.7235">
        <ele>570.712</ele>
        <time>2013-05-07T14:19:55Z</time>
      </trkpt>
      <trkpt lat="41.88592" lon="-1.7234">
        <ele>569.77</ele>
        <time>2013-05-07T14:19:41Z</time>
      </trkpt>
      <trkpt lat="41.88623" lon="-1.72337">
        <ele>569.283</ele>
        <time>2013-05-07T14:19:27Z</time>
      </trkpt>
      <trkpt lat="41.88657" lon="-1.72357">
        <ele>569.228</ele>
        <time>2013-05-07T14:19:14Z</time>
      </trkpt>
      <trkpt lat="41.88686" lon="-1.72364">
        <ele>569.289</ele>
        <time>2013-05-07T14:19:04Z</time>
      </trkpt>
      <trkpt lat="41.88714" lon="-1.72358">
        <ele>569.217</ele>
        <time>2013-05-07T14:18:53Z</time>
      </trkpt>
      <trkpt lat="41.88727" lon="-1.72357">
        <ele>569.208</ele>
        <time>2013-05-07T14:18:43Z</time>
      </trkpt>
      <trkpt lat="41.88739" lon="-1.7235">
        <ele>568.393</ele>
        <time>2013-05-07T14:18:33Z</time>
      </trkpt>
      <trkpt lat="41.88741" lon="-1.7235">
        <ele>568.394</ele>
        <time>2013-05-07T14:18:32Z</time>
      </trkpt>
      <trkpt lat="41.88742" lon="-1.72349">
        <ele>568.316</ele>
        <time>2013-05-07T14:18:31Z</time>
      </trkpt>
      <trkpt lat="41.88744" lon="-1.72348">
        <ele>568.351</ele>
        <time>2013-05-07T14:18:30Z</time>
      </trkpt>
      <trkpt lat="41.88745" lon="-1.72347">
        <ele>568.368</ele>
        <time>2013-05-07T14:18:29Z</time>
      </trkpt>
      <trkpt lat="41.88746" lon="-1.72347">
        <ele>568.365</ele>
        <time>2013-05-07T14:18:28Z</time>
      </trkpt>
      <trkpt lat="41.88748" lon="-1.72346">
        <ele>567.823</ele>
        <time>2013-05-07T14:18:26Z</time>
      </trkpt>
      <trkpt lat="41.88749" lon="-1.72345">
        <ele>567.816</ele>
        <time>2013-05-07T14:18:25Z</time>
      </trkpt>
      <trkpt lat="41.8875" lon="-1.72345">
        <ele>567.879</ele>
        <time>2013-05-07T14:18:24Z</time>
      </trkpt>
      <trkpt lat="41.88759" lon="-1.72342">
        <ele>566.405</ele>
        <time>2013-05-07T14:18:16Z</time>
      </trkpt>
      <trkpt lat="41.88761" lon="-1.72342">
        <ele>566.425</ele>
        <time>2013-05-07T14:18:15Z</time>
      </trkpt>
      <trkpt lat="41.88762" lon="-1.72342">
        <ele>566.408</ele>
        <time>2013-05-07T14:18:14Z</time>
      </trkpt>
      <trkpt lat="41.88763" lon="-1.72342">
        <ele>565.928</ele>
        <time>2013-05-07T14:18:13Z</time>
      </trkpt>
      <trkpt lat="41.88764" lon="-1.72342">
        <ele>565.959</ele>
        <time>2013-05-07T14:18:12Z</time>
      </trkpt>
      <trkpt lat="41.88766" lon="-1.72342">
        <ele>565.991</ele>
        <time>2013-05-07T14:18:11Z</time>
      </trkpt>
      <trkpt lat="41.88767" lon="-1.72342">
        <ele>565.476</ele>
        <time>2013-05-07T14:18:10Z</time>
      </trkpt>
      <trkpt lat="41.88768" lon="-1.72342">
        <ele>565.433</ele>
        <time>2013-05-07T14:18:09Z</time>
      </trkpt>
      <trkpt lat="41.88769" lon="-1.72342">
        <ele>565.45</ele>
        <time>2013-05-07T14:18:08Z</time>
      </trkpt>
      <trkpt lat="41.8877" lon="-1.72342">
        <ele>564.958</ele>
        <time>2013-05-07T14:18:07Z</time>
      </trkpt>
      <trkpt lat="41.88784" lon="-1.72343">
        <ele>563.551</ele>
        <time>2013-05-07T14:17:54Z</time>
      </trkpt>
      <trkpt lat="41.88797" lon="-1.72344">
        <ele>561.698</ele>
        <time>2013-05-07T14:17:42Z</time>
      </trkpt>
      <trkpt lat="41.88813" lon="-1.72351">
        <ele>559.615</ele>
        <time>2013-05-07T14:17:30Z</time>
      </trkpt>
      <trkpt lat="41.88832" lon="-1.72356">
        <ele>556.726</ele>
        <time>2013-05-07T14:17:17Z</time>
      </trkpt>
      <trkpt lat="41.8885" lon="-1.72366">
        <ele>554.308</ele>
        <time>2013-05-07T14:17:03Z</time>
      </trkpt>
      <trkpt lat="41.88872" lon="-1.72379">
        <ele>552.47</ele>
        <time>2013-05-07T14:16:49Z</time>
      </trkpt>
      <trkpt lat="41.88894" lon="-1.72394">
        <ele>550.031</ele>
        <time>2013-05-07T14:16:36Z</time>
      </trkpt>
      <trkpt lat="41.88917" lon="-1.72413">
        <ele>548.193</ele>
        <time>2013-05-07T14:16:23Z</time>
      </trkpt>
      <trkpt lat="41.88953" lon="-1.72429">
        <ele>547.198</ele>
        <time>2013-05-07T14:16:08Z</time>
      </trkpt>
      <trkpt lat="41.88995" lon="-1.72443">
        <ele>546.265</ele>
        <time>2013-05-07T14:15:52Z</time>
      </trkpt>
      <trkpt lat="41.89025" lon="-1.72448">
        <ele>544.762</ele>
        <time>2013-05-07T14:15:40Z</time>
      </trkpt>
      <trkpt lat="41.89063" lon="-1.72447">
        <ele>543.89</ele>
        <time>2013-05-07T14:15:26Z</time>
      </trkpt>
      <trkpt lat="41.891" lon="-1.72448">
        <ele>541.893</ele>
        <time>2013-05-07T14:15:12Z</time>
      </trkpt>
      <trkpt lat="41.8914" lon="-1.72442">
        <ele>540.969</ele>
        <time>2013-05-07T14:14:58Z</time>
      </trkpt>
      <trkpt lat="41.89186" lon="-1.7244">
        <ele>539.904</ele>
        <time>2013-05-07T14:14:43Z</time>
      </trkpt>
      <trkpt lat="41.89219" lon="-1.72418">
        <ele>539.024</ele>
        <time>2013-05-07T14:14:30Z</time>
      </trkpt>
      <trkpt lat="41.89251" lon="-1.72407">
        <ele>537.508</ele>
        <time>2013-05-07T14:14:18Z</time>
      </trkpt>
      <trkpt lat="41.89293" lon="-1.72406">
        <ele>535.617</ele>
        <time>2013-05-07T14:14:02Z</time>
      </trkpt>
      <trkpt lat="41.89335" lon="-1.72403">
        <ele>534.288</ele>
        <time>2013-05-07T14:13:47Z</time>
      </trkpt>
      <trkpt lat="41.89371" lon="-1.72398">
        <ele>533.21</ele>
        <time>2013-05-07T14:13:34Z</time>
      </trkpt>
      <trkpt lat="41.8941" lon="-1.72394">
        <ele>532.225</ele>
        <time>2013-05-07T14:13:18Z</time>
      </trkpt>
      <trkpt lat="41.89451" lon="-1.72387">
        <ele>531.842</ele>
        <time>2013-05-07T14:13:01Z</time>
      </trkpt>
      <trkpt lat="41.89471" lon="-1.72386">
        <ele>530.819</ele>
        <time>2013-05-07T14:12:51Z</time>
      </trkpt>
      <trkpt lat="41.89506" lon="-1.72385">
        <ele>529.897</ele>
        <time>2013-05-07T14:12:36Z</time>
      </trkpt>
      <trkpt lat="41.89541" lon="-1.72382">
        <ele>528.41</ele>
        <time>2013-05-07T14:12:21Z</time>
      </trkpt>
      <trkpt lat="41.89563" lon="-1.72381">
        <ele>527.984</ele>
        <time>2013-05-07T14:12:10Z</time>
      </trkpt>
      <trkpt lat="41.89565" lon="-1.72381">
        <ele>527.907</ele>
        <time>2013-05-07T14:12:09Z</time>
      </trkpt>
      <trkpt lat="41.89566" lon="-1.72381">
        <ele>527.917</ele>
        <time>2013-05-07T14:12:08Z</time>
      </trkpt>
      <trkpt lat="41.89567" lon="-1.72381">
        <ele>527.408</ele>
        <time>2013-05-07T14:11:52Z</time>
      </trkpt>
      <trkpt lat="41.89576" lon="-1.72377">
        <ele>526.919</ele>
        <time>2013-05-07T14:11:44Z</time>
      </trkpt>
      <trkpt lat="41.89601" lon="-1.72376">
        <ele>526.55</ele>
        <time>2013-05-07T14:11:32Z</time>
      </trkpt>
      <trkpt lat="41.89624" lon="-1.72367">
        <ele>526.082</ele>
        <time>2013-05-07T14:11:18Z</time>
      </trkpt>
      <trkpt lat="41.89625" lon="-1.72367">
        <ele>526.067</ele>
        <time>2013-05-07T14:11:17Z</time>
      </trkpt>
      <trkpt lat="41.89628" lon="-1.72367">
        <ele>526.034</ele>
        <time>2013-05-07T14:11:15Z</time>
      </trkpt>
      <trkpt lat="41.89656" lon="-1.72373">
        <ele>526.051</ele>
        <time>2013-05-07T14:11:03Z</time>
      </trkpt>
      <trkpt lat="41.89669" lon="-1.72375">
        <ele>524.519</ele>
        <time>2013-05-07T14:10:58Z</time>
      </trkpt>
      <trkpt lat="41.89719" lon="-1.72386">
        <ele>523.622</ele>
        <time>2013-05-07T14:10:41Z</time>
      </trkpt>
      <trkpt lat="41.89756" lon="-1.72397">
        <ele>522.652</ele>
        <time>2013-05-07T14:10:28Z</time>
      </trkpt>
      <trkpt lat="41.89794" lon="-1.72404">
        <ele>521.753</ele>
        <time>2013-05-07T14:10:15Z</time>
      </trkpt>
      <trkpt lat="41.8983" lon="-1.72412">
        <ele>520.708</ele>
        <time>2013-05-07T14:10:02Z</time>
      </trkpt>
      <trkpt lat="41.89859" lon="-1.72415">
        <ele>519.708</ele>
        <time>2013-05-07T14:09:49Z</time>
      </trkpt>
      <trkpt lat="41.89886" lon="-1.72419">
        <ele>519.346</ele>
        <time>2013-05-07T14:09:37Z</time>
      </trkpt>
      <trkpt lat="41.89924" lon="-1.72428">
        <ele>517.867</ele>
        <time>2013-05-07T14:09:19Z</time>
      </trkpt>
      <trkpt lat="41.89934" lon="-1.7243">
        <ele>517.859</ele>
        <time>2013-05-07T14:09:08Z</time>
      </trkpt>
      <trkpt lat="41.89936" lon="-1.72429">
        <ele>517.354</ele>
        <time>2013-05-07T14:08:44Z</time>
      </trkpt>
      <trkpt lat="41.89934" lon="-1.72421">
        <ele>517.381</ele>
        <time>2013-05-07T14:08:17Z</time>
      </trkpt>
      <trkpt lat="41.89936" lon="-1.72419">
        <ele>517.328</ele>
        <time>2013-05-07T14:07:53Z</time>
      </trkpt>
      <trkpt lat="41.89941" lon="-1.7242">
        <ele>516.936</ele>
        <time>2013-05-07T14:07:44Z</time>
      </trkpt>
      <trkpt lat="41.89961" lon="-1.72428">
        <ele>515.939</ele>
        <time>2013-05-07T14:07:29Z</time>
      </trkpt>
      <trkpt lat="41.89983" lon="-1.72439">
        <ele>514.916</ele>
        <time>2013-05-07T14:07:16Z</time>
      </trkpt>
      <trkpt lat="41.89985" lon="-1.7244">
        <ele>514.476</ele>
        <time>2013-05-07T14:07:15Z</time>
      </trkpt>
      <trkpt lat="41.89987" lon="-1.7244">
        <ele>514.413</ele>
        <time>2013-05-07T14:07:14Z</time>
      </trkpt>
      <trkpt lat="41.89989" lon="-1.72441">
        <ele>514.408</ele>
        <time>2013-05-07T14:07:13Z</time>
      </trkpt>
      <trkpt lat="41.89991" lon="-1.72441">
        <ele>514.422</ele>
        <time>2013-05-07T14:07:12Z</time>
      </trkpt>
      <trkpt lat="41.89993" lon="-1.72442">
        <ele>514.443</ele>
        <time>2013-05-07T14:07:11Z</time>
      </trkpt>
      <trkpt lat="41.89994" lon="-1.72443">
        <ele>514.475</ele>
        <time>2013-05-07T14:07:10Z</time>
      </trkpt>
      <trkpt lat="41.89996" lon="-1.72443">
        <ele>514.45</ele>
        <time>2013-05-07T14:07:09Z</time>
      </trkpt>
      <trkpt lat="41.89998" lon="-1.72444">
        <ele>514.417</ele>
        <time>2013-05-07T14:07:08Z</time>
      </trkpt>
      <trkpt lat="41.89999" lon="-1.72444">
        <ele>514.414</ele>
        <time>2013-05-07T14:06:52Z</time>
      </trkpt>
      <trkpt lat="41.9" lon="-1.72442">
        <ele>514.412</ele>
        <time>2013-05-07T14:06:33Z</time>
      </trkpt>
      <trkpt lat="41.9" lon="-1.72443">
        <ele>514.445</ele>
        <time>2013-05-07T14:05:57Z</time>
      </trkpt>
      <trkpt lat="41.90003" lon="-1.72443">
        <ele>514.449</ele>
        <time>2013-05-07T14:05:34Z</time>
      </trkpt>
      <trkpt lat="41.90002" lon="-1.72445">
        <ele>514.402</ele>
        <time>2013-05-07T14:05:14Z</time>
      </trkpt>
      <trkpt lat="41.90003" lon="-1.72445">
        <ele>514.422</ele>
        <time>2013-05-07T14:04:50Z</time>
      </trkpt>
      <trkpt lat="41.90004" lon="-1.72444">
        <ele>514.408</ele>
        <time>2013-05-07T14:04:30Z</time>
      </trkpt>
      <trkpt lat="41.90005" lon="-1.72445">
        <ele>514.435</ele>
        <time>2013-05-07T14:03:41Z</time>
      </trkpt>
      <trkpt lat="41.90004" lon="-1.72443">
        <ele>514.466</ele>
        <time>2013-05-07T14:03:08Z</time>
      </trkpt>
      <trkpt lat="41.90003" lon="-1.72441">
        <ele>514.498</ele>
        <time>2013-05-07T14:02:38Z</time>
      </trkpt>
      <trkpt lat="41.90005" lon="-1.72438">
        <ele>514.493</ele>
        <time>2013-05-07T14:02:11Z</time>
      </trkpt>
      <trkpt lat="41.90003" lon="-1.72436">
        <ele>514.49</ele>
        <time>2013-05-07T14:01:46Z</time>
      </trkpt>
      <trkpt lat="41.90003" lon="-1.7244">
        <ele>514.497</ele>
        <time>2013-05-07T14:01:21Z</time>
      </trkpt>
      <trkpt lat="41.90003" lon="-1.72445">
        <ele>514.445</ele>
        <time>2013-05-07T14:00:59Z</time>
      </trkpt>
      <trkpt lat="41.90005" lon="-1.72441">
        <ele>514.418</ele>
        <time>2013-05-07T14:00:31Z</time>
      </trkpt>
      <trkpt lat="41.90006" lon="-1.72436">
        <ele>514.479</ele>
        <time>2013-05-07T14:00:05Z</time>
      </trkpt>
      <trkpt lat="41.90008" lon="-1.72436">
        <ele>514.405</ele>
        <time>2013-05-07T13:59:45Z</time>
      </trkpt>
      <trkpt lat="41.9001" lon="-1.72434">
        <ele>514.425</ele>
        <time>2013-05-07T13:59:25Z</time>
      </trkpt>
      <trkpt lat="41.90009" lon="-1.72437">
        <ele>514.408</ele>
        <time>2013-05-07T13:59:01Z</time>
      </trkpt>
      <trkpt lat="41.90009" lon="-1.72438">
        <ele>514.468</ele>
        <time>2013-05-07T13:58:04Z</time>
      </trkpt>
      <trkpt lat="41.90006" lon="-1.72437">
        <ele>514.489</ele>
        <time>2013-05-07T13:57:45Z</time>
      </trkpt>
      <trkpt lat="41.90007" lon="-1.72438">
        <ele>514.051</ele>
        <time>2013-05-07T13:57:10Z</time>
      </trkpt>
      <trkpt lat="41.90005" lon="-1.72439">
        <ele>514.056</ele>
        <time>2013-05-07T13:56:41Z</time>
      </trkpt>
      <trkpt lat="41.90006" lon="-1.72436">
        <ele>514.093</ele>
        <time>2013-05-07T13:55:46Z</time>
      </trkpt>
      <trkpt lat="41.90007" lon="-1.72439">
        <ele>514.05</ele>
        <time>2013-05-07T13:55:20Z</time>
      </trkpt>
      <trkpt lat="41.90008" lon="-1.72441">
        <ele>514.078</ele>
        <time>2013-05-07T13:55:00Z</time>
      </trkpt>
      <trkpt lat="41.90012" lon="-1.72447">
        <ele>514.021</ele>
        <time>2013-05-07T13:54:31Z</time>
      </trkpt>
      <trkpt lat="41.90005" lon="-1.72448">
        <ele>514.028</ele>
        <time>2013-05-07T13:54:01Z</time>
      </trkpt>
      <trkpt lat="41.90004" lon="-1.72447">
        <ele>514.089</ele>
        <time>2013-05-07T13:53:42Z</time>
      </trkpt>
      <trkpt lat="41.90002" lon="-1.72449">
        <ele>514.017</ele>
        <time>2013-05-07T13:53:30Z</time>
      </trkpt>
      <trkpt lat="41.90011" lon="-1.72453">
        <ele>513.008</ele>
        <time>2013-05-07T13:53:21Z</time>
      </trkpt>
      <trkpt lat="41.90031" lon="-1.72462">
        <ele>512.593</ele>
        <time>2013-05-07T13:53:11Z</time>
      </trkpt>
      <trkpt lat="41.90033" lon="-1.72462">
        <ele>512.534</ele>
        <time>2013-05-07T13:53:10Z</time>
      </trkpt>
      <trkpt lat="41.90035" lon="-1.72463">
        <ele>512.516</ele>
        <time>2013-05-07T13:53:09Z</time>
      </trkpt>
      <trkpt lat="41.90037" lon="-1.72463">
        <ele>512.051</ele>
        <time>2013-05-07T13:53:08Z</time>
      </trkpt>
      <trkpt lat="41.90039" lon="-1.72463">
        <ele>512.088</ele>
        <time>2013-05-07T13:53:07Z</time>
      </trkpt>
      <trkpt lat="41.90041" lon="-1.72462">
        <ele>512.055</ele>
        <time>2013-05-07T13:53:06Z</time>
      </trkpt>
      <trkpt lat="41.90042" lon="-1.72461">
        <ele>512.043</ele>
        <time>2013-05-07T13:53:05Z</time>
      </trkpt>
      <trkpt lat="41.90044" lon="-1.7246">
        <ele>512.046</ele>
        <time>2013-05-07T13:53:04Z</time>
      </trkpt>
      <trkpt lat="41.90046" lon="-1.72458">
        <ele>512.079</ele>
        <time>2013-05-07T13:52:47Z</time>
      </trkpt>
      <trkpt lat="41.9005" lon="-1.72453">
        <ele>511.105</ele>
        <time>2013-05-07T13:52:38Z</time>
      </trkpt>
      <trkpt lat="41.90062" lon="-1.72447">
        <ele>510.125</ele>
        <time>2013-05-07T13:52:28Z</time>
      </trkpt>
      <trkpt lat="41.90082" lon="-1.7244">
        <ele>508.208</ele>
        <time>2013-05-07T13:52:18Z</time>
      </trkpt>
      <trkpt lat="41.90085" lon="-1.72438">
        <ele>508.268</ele>
        <time>2013-05-07T13:52:17Z</time>
      </trkpt>
      <trkpt lat="41.90087" lon="-1.72437">
        <ele>508.299</ele>
        <time>2013-05-07T13:52:16Z</time>
      </trkpt>
      <trkpt lat="41.9009" lon="-1.72434">
        <ele>508.241</ele>
        <time>2013-05-07T13:52:15Z</time>
      </trkpt>
      <trkpt lat="41.90092" lon="-1.72432">
        <ele>508.736</ele>
        <time>2013-05-07T13:52:14Z</time>
      </trkpt>
      <trkpt lat="41.90094" lon="-1.7243">
        <ele>508.753</ele>
        <time>2013-05-07T13:52:13Z</time>
      </trkpt>
      <trkpt lat="41.90096" lon="-1.72419">
        <ele>510.16</ele>
        <time>2013-05-07T13:52:09Z</time>
      </trkpt>
      <trkpt lat="41.90098" lon="-1.72351">
        <ele>512.018</ele>
        <time>2013-05-07T13:51:57Z</time>
      </trkpt>
      <trkpt lat="41.90099" lon="-1.72287">
        <ele>512.061</ele>
        <time>2013-05-07T13:51:45Z</time>
      </trkpt>
      <trkpt lat="41.90096" lon="-1.72199">
        <ele>513.055</ele>
        <time>2013-05-07T13:51:27Z</time>
      </trkpt>
      <trkpt lat="41.9009" lon="-1.72153">
        <ele>514.007</ele>
        <time>2013-05-07T13:51:15Z</time>
      </trkpt>
      <trkpt lat="41.9008" lon="-1.72113">
        <ele>514.417</ele>
        <time>2013-05-07T13:51:03Z</time>
      </trkpt>
      <trkpt lat="41.90075" lon="-1.72098">
        <ele>515.908</ele>
        <time>2013-05-07T13:50:58Z</time>
      </trkpt>
      <trkpt lat="41.90074" lon="-1.72095">
        <ele>515.916</ele>
        <time>2013-05-07T13:50:57Z</time>
      </trkpt>
      <trkpt lat="41.90073" lon="-1.72093">
        <ele>515.937</ele>
        <time>2013-05-07T13:50:56Z</time>
      </trkpt>
      <trkpt lat="41.90072" lon="-1.7209">
        <ele>515.929</ele>
        <time>2013-05-07T13:50:55Z</time>
      </trkpt>
      <trkpt lat="41.90071" lon="-1.72088">
        <ele>515.984</ele>
        <time>2013-05-07T13:50:54Z</time>
      </trkpt>
      <trkpt lat="41.90071" lon="-1.72086">
        <ele>515.941</ele>
        <time>2013-05-07T13:50:53Z</time>
      </trkpt>
      <trkpt lat="41.9007" lon="-1.72084">
        <ele>515.998</ele>
        <time>2013-05-07T13:50:52Z</time>
      </trkpt>
      <trkpt lat="41.90069" lon="-1.72082">
        <ele>515.926</ele>
        <time>2013-05-07T13:50:51Z</time>
      </trkpt>
      <trkpt lat="41.90068" lon="-1.7208">
        <ele>515.919</ele>
        <time>2013-05-07T13:50:50Z</time>
      </trkpt>
      <trkpt lat="41.90067" lon="-1.72079">
        <ele>515.939</ele>
        <time>2013-05-07T13:50:49Z</time>
      </trkpt>
      <trkpt lat="41.90066" lon="-1.72077">
        <ele>515.901</ele>
        <time>2013-05-07T13:50:48Z</time>
      </trkpt>
      <trkpt lat="41.90069" lon="-1.72051">
        <ele>515.921</ele>
        <time>2013-05-07T13:50:39Z</time>
      </trkpt>
      <trkpt lat="41.90087" lon="-1.72029">
        <ele>514.908</ele>
        <time>2013-05-07T13:50:29Z</time>
      </trkpt>
      <trkpt lat="41.90125" lon="-1.72021">
        <ele>514.054</ele>
        <time>2013-05-07T13:50:13Z</time>
      </trkpt>
      <trkpt lat="41.90158" lon="-1.72015">
        <ele>512.535</ele>
        <time>2013-05-07T13:49:59Z</time>
      </trkpt>
      <trkpt lat="41.90204" lon="-1.72008">
        <ele>511.657</ele>
        <time>2013-05-07T13:49:41Z</time>
      </trkpt>
      <trkpt lat="41.90241" lon="-1.72002">
        <ele>510.682</ele>
        <time>2013-05-07T13:49:26Z</time>
      </trkpt>
      <trkpt lat="41.90273" lon="-1.71999">
        <ele>509.699</ele>
        <time>2013-05-07T13:49:13Z</time>
      </trkpt>
      <trkpt lat="41.90318" lon="-1.71991">
        <ele>508.276</ele>
        <time>2013-05-07T13:48:55Z</time>
      </trkpt>
      <trkpt lat="41.90352" lon="-1.71985">
        <ele>507.214</ele>
        <time>2013-05-07T13:48:40Z</time>
      </trkpt>
      <trkpt lat="41.90381" lon="-1.71985">
        <ele>506.357</ele>
        <time>2013-05-07T13:48:26Z</time>
      </trkpt>
      <trkpt lat="41.90405" lon="-1.71982">
        <ele>505.837</ele>
        <time>2013-05-07T13:48:15Z</time>
      </trkpt>
      <trkpt lat="41.90419" lon="-1.7198">
        <ele>505.849</ele>
        <time>2013-05-07T13:48:05Z</time>
      </trkpt>
      <trkpt lat="41.90424" lon="-1.71985">
        <ele>503.913</ele>
        <time>2013-05-07T13:46:13Z</time>
      </trkpt>
      <trkpt lat="41.90425" lon="-1.71987">
        <ele>503.908</ele>
        <time>2013-05-07T13:46:12Z</time>
      </trkpt>
      <trkpt lat="41.90426" lon="-1.71988">
        <ele>503.924</ele>
        <time>2013-05-07T13:46:11Z</time>
      </trkpt>
      <trkpt lat="41.90427" lon="-1.7199">
        <ele>503.915</ele>
        <time>2013-05-07T13:46:10Z</time>
      </trkpt>
      <trkpt lat="41.90428" lon="-1.71992">
        <ele>503.997</ele>
        <time>2013-05-07T13:46:09Z</time>
      </trkpt>
      <trkpt lat="41.90429" lon="-1.71992">
        <ele>503.962</ele>
        <time>2013-05-07T13:46:08Z</time>
      </trkpt>
      <trkpt lat="41.90426" lon="-1.71999">
        <ele>503.479</ele>
        <time>2013-05-07T13:45:58Z</time>
      </trkpt>
      <trkpt lat="41.90431" lon="-1.72036">
        <ele>502.456</ele>
        <time>2013-05-07T13:45:42Z</time>
      </trkpt>
      <trkpt lat="41.90431" lon="-1.72038">
        <ele>502.484</ele>
        <time>2013-05-07T13:45:41Z</time>
      </trkpt>
      <trkpt lat="41.90432" lon="-1.72042">
        <ele>502.437</ele>
        <time>2013-05-07T13:45:38Z</time>
      </trkpt>
      <trkpt lat="41.90431" lon="-1.72051">
        <ele>502.056</ele>
        <time>2013-05-07T13:45:28Z</time>
      </trkpt>
      <trkpt lat="41.90432" lon="-1.72084">
        <ele>500.559</ele>
        <time>2013-05-07T13:45:13Z</time>
      </trkpt>
      <trkpt lat="41.90434" lon="-1.72114">
        <ele>499.114</ele>
        <time>2013-05-07T13:45:01Z</time>
      </trkpt>
      <trkpt lat="41.90438" lon="-1.72142">
        <ele>498.108</ele>
        <time>2013-05-07T13:44:49Z</time>
      </trkpt>
      <trkpt lat="41.90444" lon="-1.72189">
        <ele>496.276</ele>
        <time>2013-05-07T13:44:30Z</time>
      </trkpt>
      <trkpt lat="41.90448" lon="-1.72224">
        <ele>494.737</ele>
        <time>2013-05-07T13:44:16Z</time>
      </trkpt>
      <trkpt lat="41.90453" lon="-1.72264">
        <ele>493.359</ele>
        <time>2013-05-07T13:44:01Z</time>
      </trkpt>
      <trkpt lat="41.90456" lon="-1.72284">
        <ele>492.384</ele>
        <time>2013-05-07T13:43:51Z</time>
      </trkpt>
      <trkpt lat="41.90456" lon="-1.72286">
        <ele>492.351</ele>
        <time>2013-05-07T13:43:36Z</time>
      </trkpt>
      <trkpt lat="41.90456" lon="-1.723">
        <ele>491.928</ele>
        <time>2013-05-07T13:43:25Z</time>
      </trkpt>
      <trkpt lat="41.90456" lon="-1.72302">
        <ele>491.426</ele>
        <time>2013-05-07T13:43:24Z</time>
      </trkpt>
      <trkpt lat="41.90456" lon="-1.72305">
        <ele>491.439</ele>
        <time>2013-05-07T13:43:23Z</time>
      </trkpt>
      <trkpt lat="41.90456" lon="-1.72308">
        <ele>491.483</ele>
        <time>2013-05-07T13:43:22Z</time>
      </trkpt>
      <trkpt lat="41.90456" lon="-1.72311">
        <ele>491.425</ele>
        <time>2013-05-07T13:43:21Z</time>
      </trkpt>
      <trkpt lat="41.90457" lon="-1.72314">
        <ele>491.417</ele>
        <time>2013-05-07T13:43:20Z</time>
      </trkpt>
      <trkpt lat="41.90457" lon="-1.72317">
        <ele>490.908</ele>
        <time>2013-05-07T13:43:19Z</time>
      </trkpt>
      <trkpt lat="41.90456" lon="-1.72324">
        <ele>490.999</ele>
        <time>2013-05-07T13:43:14Z</time>
      </trkpt>
      <trkpt lat="41.90457" lon="-1.72323">
        <ele>491.49</ele>
        <time>2013-05-07T13:42:54Z</time>
      </trkpt>
      <trkpt lat="41.90455" lon="-1.72345">
        <ele>490.462</ele>
        <time>2013-05-07T13:42:43Z</time>
      </trkpt>
      <trkpt lat="41.90439" lon="-1.72383">
        <ele>489.957</ele>
        <time>2013-05-07T13:42:30Z</time>
      </trkpt>
      <trkpt lat="41.90431" lon="-1.72407">
        <ele>489.984</ele>
        <time>2013-05-07T13:42:20Z</time>
      </trkpt>
      <trkpt lat="41.9043" lon="-1.72408">
        <ele>489.991</ele>
        <time>2013-05-07T13:42:19Z</time>
      </trkpt>
      <trkpt lat="41.90429" lon="-1.7241">
        <ele>489.519</ele>
        <time>2013-05-07T13:42:13Z</time>
      </trkpt>
      <trkpt lat="41.90428" lon="-1.72415">
        <ele>489.072</ele>
        <time>2013-05-07T13:35:25Z</time>
      </trkpt>
      <trkpt lat="41.90418" lon="-1.72424">
        <ele>489.082</ele>
        <time>2013-05-07T13:35:10Z</time>
      </trkpt>
      <trkpt lat="41.90412" lon="-1.72423">
        <ele>489.043</ele>
        <time>2013-05-07T13:33:51Z</time>
      </trkpt>
      <trkpt lat="41.90411" lon="-1.72423">
        <ele>489.017</ele>
        <time>2013-05-07T13:33:50Z</time>
      </trkpt>
      <trkpt lat="41.90411" lon="-1.72425">
        <ele>489.008</ele>
        <time>2013-05-07T13:33:49Z</time>
      </trkpt>
      <trkpt lat="41.90411" lon="-1.72426">
        <ele>489.069</ele>
        <time>2013-05-07T13:33:48Z</time>
      </trkpt>
      <trkpt lat="41.90411" lon="-1.72428">
        <ele>489.03</ele>
        <time>2013-05-07T13:33:47Z</time>
      </trkpt>
      <trkpt lat="41.90411" lon="-1.72429">
        <ele>489.052</ele>
        <time>2013-05-07T13:33:46Z</time>
      </trkpt>
      <trkpt lat="41.90415" lon="-1.72434">
        <ele>489.057</ele>
        <time>2013-05-07T13:33:43Z</time>
      </trkpt>
      <trkpt lat="41.90416" lon="-1.72435">
        <ele>489.054</ele>
        <time>2013-05-07T13:33:42Z</time>
      </trkpt>
      <trkpt lat="41.90418" lon="-1.72437">
        <ele>489.041</ele>
        <time>2013-05-07T13:33:41Z</time>
      </trkpt>
      <trkpt lat="41.90419" lon="-1.72439">
        <ele>489.059</ele>
        <time>2013-05-07T13:33:40Z</time>
      </trkpt>
      <trkpt lat="41.9042" lon="-1.72441">
        <ele>489.072</ele>
        <time>2013-05-07T13:33:39Z</time>
      </trkpt>
      <trkpt lat="41.90422" lon="-1.72442">
        <ele>489.034</ele>
        <time>2013-05-07T13:33:38Z</time>
      </trkpt>
      <trkpt lat="41.90435" lon="-1.72443">
        <ele>489.055</ele>
        <time>2013-05-07T13:33:32Z</time>
      </trkpt>
      <trkpt lat="41.90438" lon="-1.72442">
        <ele>489.01</ele>
        <time>2013-05-07T13:33:31Z</time>
      </trkpt>
      <trkpt lat="41.9044" lon="-1.72441">
        <ele>489.008</ele>
        <time>2013-05-07T13:33:30Z</time>
      </trkpt>
      <trkpt lat="41.90443" lon="-1.72438">
        <ele>489.034</ele>
        <time>2013-05-07T13:33:29Z</time>
      </trkpt>
      <trkpt lat="41.90445" lon="-1.72435">
        <ele>489.065</ele>
        <time>2013-05-07T13:33:28Z</time>
      </trkpt>
      <trkpt lat="41.90446" lon="-1.72431">
        <ele>489.017</ele>
        <time>2013-05-07T13:33:27Z</time>
      </trkpt>
      <trkpt lat="41.90442" lon="-1.72411">
        <ele>489.092</ele>
        <time>2013-05-07T13:33:21Z</time>
      </trkpt>
      <trkpt lat="41.90445" lon="-1.72375">
        <ele>489.099</ele>
        <time>2013-05-07T13:33:09Z</time>
      </trkpt>
      <trkpt lat="41.90458" lon="-1.72339">
        <ele>489.536</ele>
        <time>2013-05-07T13:32:59Z</time>
      </trkpt>
      <trkpt lat="41.90471" lon="-1.72318">
        <ele>489.954</ele>
        <time>2013-05-07T13:32:51Z</time>
      </trkpt>
      <trkpt lat="41.90473" lon="-1.72315">
        <ele>489.947</ele>
        <time>2013-05-07T13:32:50Z</time>
      </trkpt>
      <trkpt lat="41.90475" lon="-1.7231">
        <ele>489.985</ele>
        <time>2013-05-07T13:32:49Z</time>
      </trkpt>
      <trkpt lat="41.90497" lon="-1.72284">
        <ele>490.989</ele>
        <time>2013-05-07T13:32:40Z</time>
      </trkpt>
      <trkpt lat="41.90533" lon="-1.72251">
        <ele>491.917</ele>
        <time>2013-05-07T13:32:28Z</time>
      </trkpt>
      <trkpt lat="41.90561" lon="-1.72227">
        <ele>491.908</ele>
        <time>2013-05-07T13:32:18Z</time>
      </trkpt>
      <trkpt lat="41.90595" lon="-1.72195">
        <ele>492.389</ele>
        <time>2013-05-07T13:32:06Z</time>
      </trkpt>
      <trkpt lat="41.90597" lon="-1.72193">
        <ele>492.38</ele>
        <time>2013-05-07T13:32:05Z</time>
      </trkpt>
      <trkpt lat="41.906" lon="-1.7219">
        <ele>492.312</ele>
        <time>2013-05-07T13:32:04Z</time>
      </trkpt>
      <trkpt lat="41.90602" lon="-1.72186">
        <ele>492.397</ele>
        <time>2013-05-07T13:32:03Z</time>
      </trkpt>
      <trkpt lat="41.90603" lon="-1.72181">
        <ele>492.324</ele>
        <time>2013-05-07T13:32:02Z</time>
      </trkpt>
      <trkpt lat="41.90602" lon="-1.72177">
        <ele>492.371</ele>
        <time>2013-05-07T13:32:01Z</time>
      </trkpt>
      <trkpt lat="41.906" lon="-1.72173">
        <ele>491.979</ele>
        <time>2013-05-07T13:32:00Z</time>
      </trkpt>
      <trkpt lat="41.90593" lon="-1.72166">
        <ele>492.382</ele>
        <time>2013-05-07T13:31:57Z</time>
      </trkpt>
      <trkpt lat="41.90563" lon="-1.72129">
        <ele>494.358</ele>
        <time>2013-05-07T13:31:48Z</time>
      </trkpt>
      <trkpt lat="41.90561" lon="-1.72126">
        <ele>494.752</ele>
        <time>2013-05-07T13:31:47Z</time>
      </trkpt>
      <trkpt lat="41.90559" lon="-1.72123">
        <ele>494.717</ele>
        <time>2013-05-07T13:31:46Z</time>
      </trkpt>
      <trkpt lat="41.90557" lon="-1.7212">
        <ele>494.708</ele>
        <time>2013-05-07T13:31:45Z</time>
      </trkpt>
      <trkpt lat="41.90556" lon="-1.72117">
        <ele>494.786</ele>
        <time>2013-05-07T13:31:44Z</time>
      </trkpt>
      <trkpt lat="41.90555" lon="-1.72114">
        <ele>494.787</ele>
        <time>2013-05-07T13:31:43Z</time>
      </trkpt>
      <trkpt lat="41.90554" lon="-1.72108">
        <ele>495.239</ele>
        <time>2013-05-07T13:31:40Z</time>
      </trkpt>
      <trkpt lat="41.90538" lon="-1.72086">
        <ele>496.244</ele>
        <time>2013-05-07T13:31:30Z</time>
      </trkpt>
      <trkpt lat="41.90535" lon="-1.7208">
        <ele>496.231</ele>
        <time>2013-05-07T13:19:10Z</time>
      </trkpt>
      <trkpt lat="41.90542" lon="-1.72086">
        <ele>497.198</ele>
        <time>2013-05-07T13:18:57Z</time>
      </trkpt>
      <trkpt lat="41.90545" lon="-1.72085">
        <ele>493.866</ele>
        <time>2013-05-07T13:18:45Z</time>
      </trkpt>
      <trkpt lat="41.90546" lon="-1.72084">
        <ele>493.859</ele>
        <time>2013-05-07T13:18:26Z</time>
      </trkpt>
      <trkpt lat="41.90546" lon="-1.72078">
        <ele>493.894</ele>
        <time>2013-05-07T13:18:16Z</time>
      </trkpt>
      <trkpt lat="41.90541" lon="-1.72075">
        <ele>493.857</ele>
        <time>2013-05-07T13:18:05Z</time>
      </trkpt>
      <trkpt lat="41.90537" lon="-1.72072">
        <ele>493.822</ele>
        <time>2013-05-07T13:17:54Z</time>
      </trkpt>
      <trkpt lat="41.90536" lon="-1.72066">
        <ele>495.208</ele>
        <time>2013-05-07T13:17:50Z</time>
      </trkpt>
      <trkpt lat="41.90549" lon="-1.72048">
        <ele>495.26</ele>
        <time>2013-05-07T13:17:39Z</time>
      </trkpt>
      <trkpt lat="41.90565" lon="-1.72028">
        <ele>495.231</ele>
        <time>2013-05-07T13:17:28Z</time>
      </trkpt>
      <trkpt lat="41.90567" lon="-1.72026">
        <ele>495.253</ele>
        <time>2013-05-07T13:17:07Z</time>
      </trkpt>
      <trkpt lat="41.90572" lon="-1.72017">
        <ele>495.228</ele>
        <time>2013-05-07T13:16:59Z</time>
      </trkpt>
      <trkpt lat="41.90603" lon="-1.71976">
        <ele>495.245</ele>
        <time>2013-05-07T13:16:44Z</time>
      </trkpt>
      <trkpt lat="41.90626" lon="-1.71947">
        <ele>494.362</ele>
        <time>2013-05-07T13:16:30Z</time>
      </trkpt>
      <trkpt lat="41.90638" lon="-1.71934">
        <ele>493.83</ele>
        <time>2013-05-07T13:16:21Z</time>
      </trkpt>
      <trkpt lat="41.90637" lon="-1.71933">
        <ele>493.833</ele>
        <time>2013-05-07T13:16:02Z</time>
      </trkpt>
      <trkpt lat="41.90663" lon="-1.71904">
        <ele>493.851</ele>
        <time>2013-05-07T13:15:49Z</time>
      </trkpt>
      <trkpt lat="41.90691" lon="-1.71865">
        <ele>493.801</ele>
        <time>2013-05-07T13:15:38Z</time>
      </trkpt>
      <trkpt lat="41.9073" lon="-1.71815">
        <ele>493.811</ele>
        <time>2013-05-07T13:15:24Z</time>
      </trkpt>
      <trkpt lat="41.90757" lon="-1.71779">
        <ele>493.808</ele>
        <time>2013-05-07T13:15:13Z</time>
      </trkpt>
      <trkpt lat="41.90795" lon="-1.71728">
        <ele>493.346</ele>
        <time>2013-05-07T13:14:58Z</time>
      </trkpt>
      <trkpt lat="41.90825" lon="-1.71688">
        <ele>492.897</ele>
        <time>2013-05-07T13:14:47Z</time>
      </trkpt>
      <trkpt lat="41.90841" lon="-1.71668">
        <ele>492.339</ele>
        <time>2013-05-07T13:14:34Z</time>
      </trkpt>
      <trkpt lat="41.90839" lon="-1.71667">
        <ele>492.344</ele>
        <time>2013-05-07T13:14:12Z</time>
      </trkpt>
      <trkpt lat="41.9084" lon="-1.71665">
        <ele>491.941</ele>
        <time>2013-05-07T13:14:04Z</time>
      </trkpt>
      <trkpt lat="41.90881" lon="-1.71612">
        <ele>491.458</ele>
        <time>2013-05-07T13:13:49Z</time>
      </trkpt>
      <trkpt lat="41.90926" lon="-1.71559">
        <ele>489.936</ele>
        <time>2013-05-07T13:13:34Z</time>
      </trkpt>
      <trkpt lat="41.90935" lon="-1.71548">
        <ele>489.919</ele>
        <time>2013-05-07T13:13:31Z</time>
      </trkpt>
      <trkpt lat="41.90971" lon="-1.71515">
        <ele>489.019</ele>
        <time>2013-05-07T13:13:20Z</time>
      </trkpt>
      <trkpt lat="41.91027" lon="-1.7146">
        <ele>488.009</ele>
        <time>2013-05-07T13:13:02Z</time>
      </trkpt>
      <trkpt lat="41.9108" lon="-1.71408">
        <ele>487.119</ele>
        <time>2013-05-07T13:12:44Z</time>
      </trkpt>
      <trkpt lat="41.91124" lon="-1.71365">
        <ele>486.108</ele>
        <time>2013-05-07T13:12:29Z</time>
      </trkpt>
      <trkpt lat="41.91165" lon="-1.71325">
        <ele>485.152</ele>
        <time>2013-05-07T13:12:15Z</time>
      </trkpt>
      <trkpt lat="41.91198" lon="-1.71291">
        <ele>485.123</ele>
        <time>2013-05-07T13:12:03Z</time>
      </trkpt>
      <trkpt lat="41.91236" lon="-1.71253">
        <ele>484.635</ele>
        <time>2013-05-07T13:11:49Z</time>
      </trkpt>
      <trkpt lat="41.91272" lon="-1.71218">
        <ele>484.28</ele>
        <time>2013-05-07T13:11:36Z</time>
      </trkpt>
      <trkpt lat="41.91306" lon="-1.71188">
        <ele>483.777</ele>
        <time>2013-05-07T13:11:24Z</time>
      </trkpt>
      <trkpt lat="41.91346" lon="-1.71149">
        <ele>483.754</ele>
        <time>2013-05-07T13:11:13Z</time>
      </trkpt>
      <trkpt lat="41.91391" lon="-1.71091">
        <ele>483.272</ele>
        <time>2013-05-07T13:10:58Z</time>
      </trkpt>
      <trkpt lat="41.91426" lon="-1.71024">
        <ele>483.245</ele>
        <time>2013-05-07T13:10:42Z</time>
      </trkpt>
      <trkpt lat="41.91449" lon="-1.70974">
        <ele>482.751</ele>
        <time>2013-05-07T13:10:29Z</time>
      </trkpt>
      <trkpt lat="41.91466" lon="-1.70941">
        <ele>482.201</ele>
        <time>2013-05-07T13:10:18Z</time>
      </trkpt>
      <trkpt lat="41.91488" lon="-1.70895">
        <ele>482.211</ele>
        <time>2013-05-07T13:10:07Z</time>
      </trkpt>
      <trkpt lat="41.91526" lon="-1.70817">
        <ele>481.808</ele>
        <time>2013-05-07T13:09:52Z</time>
      </trkpt>
      <trkpt lat="41.91559" lon="-1.70747">
        <ele>481.816</ele>
        <time>2013-05-07T13:09:39Z</time>
      </trkpt>
      <trkpt lat="41.91603" lon="-1.70656">
        <ele>480.887</ele>
        <time>2013-05-07T13:09:22Z</time>
      </trkpt>
      <trkpt lat="41.91637" lon="-1.70587">
        <ele>479.829</ele>
        <time>2013-05-07T13:09:09Z</time>
      </trkpt>
      <trkpt lat="41.91671" lon="-1.70516">
        <ele>479.444</ele>
        <time>2013-05-07T13:08:55Z</time>
      </trkpt>
      <trkpt lat="41.91706" lon="-1.70444">
        <ele>478.491</ele>
        <time>2013-05-07T13:08:41Z</time>
      </trkpt>
      <trkpt lat="41.91746" lon="-1.70362">
        <ele>477.938</ele>
        <time>2013-05-07T13:08:25Z</time>
      </trkpt>
      <trkpt lat="41.91785" lon="-1.70284">
        <ele>477.066</ele>
        <time>2013-05-07T13:08:09Z</time>
      </trkpt>
      <trkpt lat="41.91821" lon="-1.70209">
        <ele>476.099</ele>
        <time>2013-05-07T13:07:54Z</time>
      </trkpt>
      <trkpt lat="41.91851" lon="-1.70147">
        <ele>475.028</ele>
        <time>2013-05-07T13:07:41Z</time>
      </trkpt>
      <trkpt lat="41.91887" lon="-1.70072">
        <ele>474.189</ele>
        <time>2013-05-07T13:07:26Z</time>
      </trkpt>
      <trkpt lat="41.91921" lon="-1.70003">
        <ele>473.117</ele>
        <time>2013-05-07T13:07:12Z</time>
      </trkpt>
      <trkpt lat="41.91953" lon="-1.69937">
        <ele>472.608</ele>
        <time>2013-05-07T13:06:58Z</time>
      </trkpt>
      <trkpt lat="41.91988" lon="-1.69873">
        <ele>471.783</ele>
        <time>2013-05-07T13:06:44Z</time>
      </trkpt>
      <trkpt lat="41.92026" lon="-1.69812">
        <ele>470.764</ele>
        <time>2013-05-07T13:06:29Z</time>
      </trkpt>
      <trkpt lat="41.92071" lon="-1.69749">
        <ele>469.776</ele>
        <time>2013-05-07T13:06:13Z</time>
      </trkpt>
      <trkpt lat="41.92122" lon="-1.69689">
        <ele>468.821</ele>
        <time>2013-05-07T13:05:57Z</time>
      </trkpt>
      <trkpt lat="41.92175" lon="-1.69632">
        <ele>467.888</ele>
        <time>2013-05-07T13:05:41Z</time>
      </trkpt>
      <trkpt lat="41.92197" lon="-1.69612">
        <ele>467.385</ele>
        <time>2013-05-07T13:05:35Z</time>
      </trkpt>
      <trkpt lat="41.92247" lon="-1.6957">
        <ele>466.933</ele>
        <time>2013-05-07T13:05:22Z</time>
      </trkpt>
      <trkpt lat="41.92302" lon="-1.6953">
        <ele>465.966</ele>
        <time>2013-05-07T13:05:09Z</time>
      </trkpt>
      <trkpt lat="41.92362" lon="-1.69495">
        <ele>465.975</ele>
        <time>2013-05-07T13:04:55Z</time>
      </trkpt>
      <trkpt lat="41.92452" lon="-1.69455">
        <ele>465.428</ele>
        <time>2013-05-07T13:04:34Z</time>
      </trkpt>
      <trkpt lat="41.92528" lon="-1.6942">
        <ele>465.42</ele>
        <time>2013-05-07T13:04:15Z</time>
      </trkpt>
      <trkpt lat="41.92594" lon="-1.69394">
        <ele>463.008</ele>
        <time>2013-05-07T13:03:59Z</time>
      </trkpt>
      <trkpt lat="41.92654" lon="-1.69368">
        <ele>461.618</ele>
        <time>2013-05-07T13:03:44Z</time>
      </trkpt>
      <trkpt lat="41.92715" lon="-1.69342">
        <ele>461.159</ele>
        <time>2013-05-07T13:03:29Z</time>
      </trkpt>
      <trkpt lat="41.92773" lon="-1.69316">
        <ele>460.161</ele>
        <time>2013-05-07T13:03:14Z</time>
      </trkpt>
      <trkpt lat="41.92833" lon="-1.69291">
        <ele>459.246</ele>
        <time>2013-05-07T13:02:59Z</time>
      </trkpt>
      <trkpt lat="41.92881" lon="-1.69271">
        <ele>458.293</ele>
        <time>2013-05-07T13:02:48Z</time>
      </trkpt>
      <trkpt lat="41.92944" lon="-1.69243">
        <ele>457.74</ele>
        <time>2013-05-07T13:02:32Z</time>
      </trkpt>
      <trkpt lat="41.93011" lon="-1.69214">
        <ele>456.398</ele>
        <time>2013-05-07T13:02:14Z</time>
      </trkpt>
      <trkpt lat="41.93079" lon="-1.69184">
        <ele>455.311</ele>
        <time>2013-05-07T13:01:56Z</time>
      </trkpt>
      <trkpt lat="41.9314" lon="-1.69158">
        <ele>454.427</ele>
        <time>2013-05-07T13:01:40Z</time>
      </trkpt>
      <trkpt lat="41.93206" lon="-1.6913">
        <ele>453.468</ele>
        <time>2013-05-07T13:01:23Z</time>
      </trkpt>
      <trkpt lat="41.93266" lon="-1.69104">
        <ele>452.014</ele>
        <time>2013-05-07T13:01:07Z</time>
      </trkpt>
      <trkpt lat="41.93329" lon="-1.69078">
        <ele>451.508</ele>
        <time>2013-05-07T13:00:51Z</time>
      </trkpt>
      <trkpt lat="41.93391" lon="-1.69053">
        <ele>450.033</ele>
        <time>2013-05-07T13:00:35Z</time>
      </trkpt>
      <trkpt lat="41.93452" lon="-1.69027">
        <ele>449.124</ele>
        <time>2013-05-07T13:00:19Z</time>
      </trkpt>
      <trkpt lat="41.93512" lon="-1.69">
        <ele>448.166</ele>
        <time>2013-05-07T13:00:03Z</time>
      </trkpt>
      <trkpt lat="41.93581" lon="-1.6897">
        <ele>446.751</ele>
        <time>2013-05-07T12:59:45Z</time>
      </trkpt>
      <trkpt lat="41.93649" lon="-1.6894">
        <ele>446.238</ele>
        <time>2013-05-07T12:59:27Z</time>
      </trkpt>
      <trkpt lat="41.93713" lon="-1.68913">
        <ele>444.825</ele>
        <time>2013-05-07T12:59:10Z</time>
      </trkpt>
      <trkpt lat="41.93765" lon="-1.68892">
        <ele>443.893</ele>
        <time>2013-05-07T12:58:56Z</time>
      </trkpt>
      <trkpt lat="41.93822" lon="-1.68867">
        <ele>442.326</ele>
        <time>2013-05-07T12:58:40Z</time>
      </trkpt>
      <trkpt lat="41.93869" lon="-1.6884">
        <ele>441.436</ele>
        <time>2013-05-07T12:58:26Z</time>
      </trkpt>
      <trkpt lat="41.93925" lon="-1.68805">
        <ele>440.917</ele>
        <time>2013-05-07T12:58:10Z</time>
      </trkpt>
      <trkpt lat="41.93986" lon="-1.68758">
        <ele>439.518</ele>
        <time>2013-05-07T12:57:51Z</time>
      </trkpt>
      <trkpt lat="41.94035" lon="-1.6871">
        <ele>438.508</ele>
        <time>2013-05-07T12:57:35Z</time>
      </trkpt>
      <trkpt lat="41.94081" lon="-1.68665">
        <ele>437.114</ele>
        <time>2013-05-07T12:57:19Z</time>
      </trkpt>
      <trkpt lat="41.94119" lon="-1.68627">
        <ele>436.635</ele>
        <time>2013-05-07T12:57:06Z</time>
      </trkpt>
      <trkpt lat="41.94178" lon="-1.68569">
        <ele>435.167</ele>
        <time>2013-05-07T12:56:46Z</time>
      </trkpt>
      <trkpt lat="41.94232" lon="-1.68516">
        <ele>434.242</ele>
        <time>2013-05-07T12:56:28Z</time>
      </trkpt>
      <trkpt lat="41.9428" lon="-1.68468">
        <ele>433.719</ele>
        <time>2013-05-07T12:56:12Z</time>
      </trkpt>
      <trkpt lat="41.9432" lon="-1.68428">
        <ele>432.726</ele>
        <time>2013-05-07T12:55:58Z</time>
      </trkpt>
      <trkpt lat="41.94367" lon="-1.68382">
        <ele>431.384</ele>
        <time>2013-05-07T12:55:42Z</time>
      </trkpt>
      <trkpt lat="41.94412" lon="-1.68336">
        <ele>430.397</ele>
        <time>2013-05-07T12:55:26Z</time>
      </trkpt>
      <trkpt lat="41.94456" lon="-1.68292">
        <ele>429.428</ele>
        <time>2013-05-07T12:55:11Z</time>
      </trkpt>
      <trkpt lat="41.94515" lon="-1.68233">
        <ele>428.489</ele>
        <time>2013-05-07T12:54:51Z</time>
      </trkpt>
      <trkpt lat="41.94567" lon="-1.68182">
        <ele>427.417</ele>
        <time>2013-05-07T12:54:34Z</time>
      </trkpt>
      <trkpt lat="41.94616" lon="-1.68132">
        <ele>426.508</ele>
        <time>2013-05-07T12:54:18Z</time>
      </trkpt>
      <trkpt lat="41.94659" lon="-1.68091">
        <ele>426.083</ele>
        <time>2013-05-07T12:54:04Z</time>
      </trkpt>
      <trkpt lat="41.94705" lon="-1.68054">
        <ele>426.024</ele>
        <time>2013-05-07T12:53:49Z</time>
      </trkpt>
      <trkpt lat="41.94744" lon="-1.68024">
        <ele>425.526</ele>
        <time>2013-05-07T12:53:37Z</time>
      </trkpt>
      <trkpt lat="41.94785" lon="-1.67994">
        <ele>425.591</ele>
        <time>2013-05-07T12:53:23Z</time>
      </trkpt>
      <trkpt lat="41.94805" lon="-1.67976">
        <ele>425.588</ele>
        <time>2013-05-07T12:53:09Z</time>
      </trkpt>
      <trkpt lat="41.94807" lon="-1.67979">
        <ele>425.075</ele>
        <time>2013-05-07T12:52:37Z</time>
      </trkpt>
      <trkpt lat="41.94805" lon="-1.67976">
        <ele>425.093</ele>
        <time>2013-05-07T12:52:03Z</time>
      </trkpt>
      <trkpt lat="41.94804" lon="-1.67978">
        <ele>425.086</ele>
        <time>2013-05-07T12:51:33Z</time>
      </trkpt>
      <trkpt lat="41.94804" lon="-1.67977">
        <ele>424.668</ele>
        <time>2013-05-07T12:50:59Z</time>
      </trkpt>
      <trkpt lat="41.94805" lon="-1.67976">
        <ele>424.642</ele>
        <time>2013-05-07T12:49:53Z</time>
      </trkpt>
      <trkpt lat="41.94803" lon="-1.67976">
        <ele>424.126</ele>
        <time>2013-05-07T12:49:30Z</time>
      </trkpt>
      <trkpt lat="41.94805" lon="-1.67976">
        <ele>424.108</ele>
        <time>2013-05-07T12:48:33Z</time>
      </trkpt>
      <trkpt lat="41.94804" lon="-1.67976">
        <ele>423.657</ele>
        <time>2013-05-07T12:48:06Z</time>
      </trkpt>
      <trkpt lat="41.94806" lon="-1.67978">
        <ele>423.618</ele>
        <time>2013-05-07T12:47:43Z</time>
      </trkpt>
      <trkpt lat="41.94804" lon="-1.67976">
        <ele>423.63</ele>
        <time>2013-05-07T12:46:41Z</time>
      </trkpt>
      <trkpt lat="41.94804" lon="-1.67978">
        <ele>423.695</ele>
        <time>2013-05-07T12:45:40Z</time>
      </trkpt>
      <trkpt lat="41.94805" lon="-1.67978">
        <ele>423.642</ele>
        <time>2013-05-07T12:45:05Z</time>
      </trkpt>
      <trkpt lat="41.94804" lon="-1.67977">
        <ele>423.639</ele>
        <time>2013-05-07T12:44:35Z</time>
      </trkpt>
      <trkpt lat="41.94804" lon="-1.67975">
        <ele>423.697</ele>
        <time>2013-05-07T12:44:10Z</time>
      </trkpt>
      <trkpt lat="41.94804" lon="-1.67978">
        <ele>423.64</ele>
        <time>2013-05-07T12:43:41Z</time>
      </trkpt>
      <trkpt lat="41.94804" lon="-1.67976">
        <ele>423.689</ele>
        <time>2013-05-07T12:43:14Z</time>
      </trkpt>
      <trkpt lat="41.94802" lon="-1.67977">
        <ele>423.606</ele>
        <time>2013-05-07T12:42:57Z</time>
      </trkpt>
      <trkpt lat="41.94804" lon="-1.67976">
        <ele>423.626</ele>
        <time>2013-05-07T12:42:35Z</time>
      </trkpt>
      <trkpt lat="41.94804" lon="-1.67977">
        <ele>423.608</ele>
        <time>2013-05-07T12:42:20Z</time>
      </trkpt>
      <trkpt lat="41.94815" lon="-1.67973">
        <ele>423.669</ele>
        <time>2013-05-07T12:42:10Z</time>
      </trkpt>
      <trkpt lat="41.94838" lon="-1.67957">
        <ele>423.61</ele>
        <time>2013-05-07T12:41:59Z</time>
      </trkpt>
      <trkpt lat="41.94858" lon="-1.67944">
        <ele>423.682</ele>
        <time>2013-05-07T12:41:43Z</time>
      </trkpt>
      <trkpt lat="41.94857" lon="-1.67943">
        <ele>423.667</ele>
        <time>2013-05-07T12:41:25Z</time>
      </trkpt>
      <trkpt lat="41.94863" lon="-1.67942">
        <ele>423.664</ele>
        <time>2013-05-07T12:41:17Z</time>
      </trkpt>
      <trkpt lat="41.94897" lon="-1.67924">
        <ele>423.621</ele>
        <time>2013-05-07T12:41:06Z</time>
      </trkpt>
      <trkpt lat="41.94939" lon="-1.679">
        <ele>423.639</ele>
        <time>2013-05-07T12:40:54Z</time>
      </trkpt>
      <trkpt lat="41.94992" lon="-1.67876">
        <ele>423.632</ele>
        <time>2013-05-07T12:40:40Z</time>
      </trkpt>
      <trkpt lat="41.95042" lon="-1.67857">
        <ele>423.197</ele>
        <time>2013-05-07T12:40:28Z</time>
      </trkpt>
      <trkpt lat="41.95102" lon="-1.67837">
        <ele>422.623</ele>
        <time>2013-05-07T12:40:13Z</time>
      </trkpt>
      <trkpt lat="41.95162" lon="-1.67819">
        <ele>422.225</ele>
        <time>2013-05-07T12:39:58Z</time>
      </trkpt>
      <trkpt lat="41.95229" lon="-1.67799">
        <ele>421.208</ele>
        <time>2013-05-07T12:39:41Z</time>
      </trkpt>
      <trkpt lat="41.95291" lon="-1.67781">
        <ele>419.82</ele>
        <time>2013-05-07T12:39:25Z</time>
      </trkpt>
      <trkpt lat="41.95364" lon="-1.6776">
        <ele>418.321</ele>
        <time>2013-05-07T12:39:07Z</time>
      </trkpt>
      <trkpt lat="41.95389" lon="-1.67752">
        <ele>417.893</ele>
        <time>2013-05-07T12:39:01Z</time>
      </trkpt>
      <trkpt lat="41.95455" lon="-1.67733">
        <ele>416.988</ele>
        <time>2013-05-07T12:38:44Z</time>
      </trkpt>
      <trkpt lat="41.9551" lon="-1.67718">
        <ele>415.955</ele>
        <time>2013-05-07T12:38:30Z</time>
      </trkpt>
      <trkpt lat="41.95566" lon="-1.67702">
        <ele>415.022</ele>
        <time>2013-05-07T12:38:15Z</time>
      </trkpt>
      <trkpt lat="41.95623" lon="-1.67684">
        <ele>414.08</ele>
        <time>2013-05-07T12:38:00Z</time>
      </trkpt>
      <trkpt lat="41.95683" lon="-1.67666">
        <ele>413.033</ele>
        <time>2013-05-07T12:37:44Z</time>
      </trkpt>
      <trkpt lat="41.95748" lon="-1.67646">
        <ele>412.196</ele>
        <time>2013-05-07T12:37:27Z</time>
      </trkpt>
      <trkpt lat="41.95807" lon="-1.67629">
        <ele>411.131</ele>
        <time>2013-05-07T12:37:12Z</time>
      </trkpt>
      <trkpt lat="41.95867" lon="-1.67611">
        <ele>410.624</ele>
        <time>2013-05-07T12:36:57Z</time>
      </trkpt>
      <trkpt lat="41.95934" lon="-1.67591">
        <ele>409.708</ele>
        <time>2013-05-07T12:36:40Z</time>
      </trkpt>
      <trkpt lat="41.95985" lon="-1.67577">
        <ele>408.75</ele>
        <time>2013-05-07T12:36:27Z</time>
      </trkpt>
      <trkpt lat="41.96047" lon="-1.67558">
        <ele>407.711</ele>
        <time>2013-05-07T12:36:11Z</time>
      </trkpt>
      <trkpt lat="41.96105" lon="-1.67542">
        <ele>406.853</ele>
        <time>2013-05-07T12:35:56Z</time>
      </trkpt>
      <trkpt lat="41.96174" lon="-1.67521">
        <ele>405.848</ele>
        <time>2013-05-07T12:35:38Z</time>
      </trkpt>
      <trkpt lat="41.96222" lon="-1.67508">
        <ele>404.925</ele>
        <time>2013-05-07T12:35:25Z</time>
      </trkpt>
      <trkpt lat="41.9628" lon="-1.6749">
        <ele>403.952</ele>
        <time>2013-05-07T12:35:09Z</time>
      </trkpt>
      <trkpt lat="41.96335" lon="-1.67474">
        <ele>403.49</ele>
        <time>2013-05-07T12:34:54Z</time>
      </trkpt>
      <trkpt lat="41.96391" lon="-1.67458">
        <ele>402.583</ele>
        <time>2013-05-07T12:34:39Z</time>
      </trkpt>
      <trkpt lat="41.96442" lon="-1.67442">
        <ele>401.561</ele>
        <time>2013-05-07T12:34:25Z</time>
      </trkpt>
      <trkpt lat="41.96498" lon="-1.67426">
        <ele>401.021</ele>
        <time>2013-05-07T12:34:10Z</time>
      </trkpt>
      <trkpt lat="41.96557" lon="-1.67408">
        <ele>400.113</ele>
        <time>2013-05-07T12:33:54Z</time>
      </trkpt>
      <trkpt lat="41.96608" lon="-1.67394">
        <ele>399.608</ele>
        <time>2013-05-07T12:33:40Z</time>
      </trkpt>
      <trkpt lat="41.96656" lon="-1.6738">
        <ele>399.147</ele>
        <time>2013-05-07T12:33:28Z</time>
      </trkpt>
      <trkpt lat="41.96717" lon="-1.67361">
        <ele>398.118</ele>
        <time>2013-05-07T12:33:12Z</time>
      </trkpt>
      <trkpt lat="41.9677" lon="-1.67345">
        <ele>397.25</ele>
        <time>2013-05-07T12:32:58Z</time>
      </trkpt>
      <trkpt lat="41.96826" lon="-1.67329">
        <ele>397.265</ele>
        <time>2013-05-07T12:32:43Z</time>
      </trkpt>
      <trkpt lat="41.96883" lon="-1.67313">
        <ele>396.252</ele>
        <time>2013-05-07T12:32:27Z</time>
      </trkpt>
      <trkpt lat="41.96942" lon="-1.67306">
        <ele>394.869</ele>
        <time>2013-05-07T12:32:11Z</time>
      </trkpt>
      <trkpt lat="41.96994" lon="-1.67308">
        <ele>394.357</ele>
        <time>2013-05-07T12:31:57Z</time>
      </trkpt>
      <trkpt lat="41.97044" lon="-1.67319">
        <ele>393.86</ele>
        <time>2013-05-07T12:31:43Z</time>
      </trkpt>
      <trkpt lat="41.97089" lon="-1.67335">
        <ele>393.361</ele>
        <time>2013-05-07T12:31:31Z</time>
      </trkpt>
      <trkpt lat="41.97143" lon="-1.6736">
        <ele>392.421</ele>
        <time>2013-05-07T12:31:16Z</time>
      </trkpt>
      <trkpt lat="41.97193" lon="-1.67382">
        <ele>391.913</ele>
        <time>2013-05-07T12:31:02Z</time>
      </trkpt>
      <trkpt lat="41.97236" lon="-1.67402">
        <ele>391.408</ele>
        <time>2013-05-07T12:30:49Z</time>
      </trkpt>
      <trkpt lat="41.97279" lon="-1.67422">
        <ele>390.957</ele>
        <time>2013-05-07T12:30:36Z</time>
      </trkpt>
      <trkpt lat="41.97324" lon="-1.67442">
        <ele>390.018</ele>
        <time>2013-05-07T12:30:22Z</time>
      </trkpt>
      <trkpt lat="41.97384" lon="-1.67468">
        <ele>389.59</ele>
        <time>2013-05-07T12:30:04Z</time>
      </trkpt>
      <trkpt lat="41.97431" lon="-1.67483">
        <ele>388.015</ele>
        <time>2013-05-07T12:29:49Z</time>
      </trkpt>
      <trkpt lat="41.97465" lon="-1.67487">
        <ele>388.042</ele>
        <time>2013-05-07T12:29:38Z</time>
      </trkpt>
      <trkpt lat="41.97498" lon="-1.67485">
        <ele>388.079</ele>
        <time>2013-05-07T12:29:27Z</time>
      </trkpt>
      <trkpt lat="41.97527" lon="-1.67482">
        <ele>389.557</ele>
        <time>2013-05-07T12:29:17Z</time>
      </trkpt>
      <trkpt lat="41.9754" lon="-1.67479">
        <ele>389.54</ele>
        <time>2013-05-07T12:29:11Z</time>
      </trkpt>
      <trkpt lat="41.97543" lon="-1.67478">
        <ele>389.587</ele>
        <time>2013-05-07T12:29:08Z</time>
      </trkpt>
      <trkpt lat="41.97544" lon="-1.67477">
        <ele>388.542</ele>
        <time>2013-05-07T12:28:36Z</time>
      </trkpt>
      <trkpt lat="41.97546" lon="-1.67481">
        <ele>388.526</ele>
        <time>2013-05-07T12:28:17Z</time>
      </trkpt>
      <trkpt lat="41.97547" lon="-1.67479">
        <ele>388.508</ele>
        <time>2013-05-07T12:27:27Z</time>
      </trkpt>
      <trkpt lat="41.97547" lon="-1.67478">
        <ele>388.599</ele>
        <time>2013-05-07T12:27:09Z</time>
      </trkpt>
      <trkpt lat="41.97573" lon="-1.67472">
        <ele>388.09</ele>
        <time>2013-05-07T12:26:57Z</time>
      </trkpt>
      <trkpt lat="41.97616" lon="-1.67463">
        <ele>388.062</ele>
        <time>2013-05-07T12:26:45Z</time>
      </trkpt>
      <trkpt lat="41.97698" lon="-1.67447">
        <ele>387.647</ele>
        <time>2013-05-07T12:26:26Z</time>
      </trkpt>
      <trkpt lat="41.97731" lon="-1.6744">
        <ele>387.164</ele>
        <time>2013-05-07T12:26:18Z</time>
      </trkpt>
      <trkpt lat="41.97788" lon="-1.67428">
        <ele>386.661</ele>
        <time>2013-05-07T12:26:04Z</time>
      </trkpt>
      <trkpt lat="41.97839" lon="-1.67417">
        <ele>386.139</ele>
        <time>2013-05-07T12:25:51Z</time>
      </trkpt>
      <trkpt lat="41.97889" lon="-1.67407">
        <ele>385.642</ele>
        <time>2013-05-07T12:25:38Z</time>
      </trkpt>
      <trkpt lat="41.97937" lon="-1.67399">
        <ele>384.722</ele>
        <time>2013-05-07T12:25:25Z</time>
      </trkpt>
      <trkpt lat="41.97998" lon="-1.67386">
        <ele>384.262</ele>
        <time>2013-05-07T12:25:08Z</time>
      </trkpt>
      <trkpt lat="41.98049" lon="-1.67375">
        <ele>383.208</ele>
        <time>2013-05-07T12:24:55Z</time>
      </trkpt>
      <trkpt lat="41.98101" lon="-1.67365">
        <ele>382.708</ele>
        <time>2013-05-07T12:24:40Z</time>
      </trkpt>
      <trkpt lat="41.98159" lon="-1.67353">
        <ele>381.893</ele>
        <time>2013-05-07T12:24:24Z</time>
      </trkpt>
      <trkpt lat="41.98218" lon="-1.67339">
        <ele>380.854</ele>
        <time>2013-05-07T12:24:08Z</time>
      </trkpt>
      <trkpt lat="41.98277" lon="-1.67327">
        <ele>379.986</ele>
        <time>2013-05-07T12:23:52Z</time>
      </trkpt>
      <trkpt lat="41.98336" lon="-1.67315">
        <ele>379.431</ele>
        <time>2013-05-07T12:23:36Z</time>
      </trkpt>
      <trkpt lat="41.98397" lon="-1.67302">
        <ele>378.488</ele>
        <time>2013-05-07T12:23:20Z</time>
      </trkpt>
      <trkpt lat="41.9845" lon="-1.67291">
        <ele>377.915</ele>
        <time>2013-05-07T12:23:06Z</time>
      </trkpt>
      <trkpt lat="41.98497" lon="-1.67289">
        <ele>377.023</ele>
        <time>2013-05-07T12:22:53Z</time>
      </trkpt>
      <trkpt lat="41.98548" lon="-1.67292">
        <ele>376.556</ele>
        <time>2013-05-07T12:22:38Z</time>
      </trkpt>
      <trkpt lat="41.98594" lon="-1.67299">
        <ele>375.533</ele>
        <time>2013-05-07T12:22:24Z</time>
      </trkpt>
      <trkpt lat="41.98639" lon="-1.67315">
        <ele>374.623</ele>
        <time>2013-05-07T12:22:10Z</time>
      </trkpt>
      <trkpt lat="41.98699" lon="-1.67336">
        <ele>373.615</ele>
        <time>2013-05-07T12:21:51Z</time>
      </trkpt>
      <trkpt lat="41.98742" lon="-1.67352">
        <ele>373.608</ele>
        <time>2013-05-07T12:21:37Z</time>
      </trkpt>
      <trkpt lat="41.98773" lon="-1.67364">
        <ele>373.174</ele>
        <time>2013-05-07T12:21:26Z</time>
      </trkpt>
      <trkpt lat="41.98818" lon="-1.67381">
        <ele>372.265</ele>
        <time>2013-05-07T12:21:12Z</time>
      </trkpt>
      <trkpt lat="41.98869" lon="-1.674">
        <ele>371.267</ele>
        <time>2013-05-07T12:20:57Z</time>
      </trkpt>
      <trkpt lat="41.98917" lon="-1.67418">
        <ele>370.222</ele>
        <time>2013-05-07T12:20:43Z</time>
      </trkpt>
      <trkpt lat="41.9897" lon="-1.67437">
        <ele>369.359</ele>
        <time>2013-05-07T12:20:28Z</time>
      </trkpt>
      <trkpt lat="41.99015" lon="-1.67454">
        <ele>368.876</ele>
        <time>2013-05-07T12:20:15Z</time>
      </trkpt>
      <trkpt lat="41.99064" lon="-1.67467">
        <ele>368.354</ele>
        <time>2013-05-07T12:20:01Z</time>
      </trkpt>
      <trkpt lat="41.99113" lon="-1.67469">
        <ele>368.357</ele>
        <time>2013-05-07T12:19:47Z</time>
      </trkpt>
      <trkpt lat="41.99162" lon="-1.67464">
        <ele>366.919</ele>
        <time>2013-05-07T12:19:32Z</time>
      </trkpt>
      <trkpt lat="41.99219" lon="-1.67445">
        <ele>366.909</ele>
        <time>2013-05-07T12:19:15Z</time>
      </trkpt>
      <trkpt lat="41.99266" lon="-1.67424">
        <ele>366.919</ele>
        <time>2013-05-07T12:19:00Z</time>
      </trkpt>
      <trkpt lat="41.99312" lon="-1.67405">
        <ele>366.908</ele>
        <time>2013-05-07T12:18:44Z</time>
      </trkpt>
      <trkpt lat="41.9935" lon="-1.67388">
        <ele>366.972</ele>
        <time>2013-05-07T12:18:30Z</time>
      </trkpt>
      <trkpt lat="41.99384" lon="-1.67374">
        <ele>366.993</ele>
        <time>2013-05-07T12:18:17Z</time>
      </trkpt>
      <trkpt lat="41.99393" lon="-1.6737">
        <ele>366.945</ele>
        <time>2013-05-07T12:18:11Z</time>
      </trkpt>
      <trkpt lat="41.99395" lon="-1.67371">
        <ele>367.44</ele>
        <time>2013-05-07T12:18:05Z</time>
      </trkpt>
      <trkpt lat="41.99398" lon="-1.67374">
        <ele>367.467</ele>
        <time>2013-05-07T12:17:55Z</time>
      </trkpt>
      <trkpt lat="41.99397" lon="-1.67376">
        <ele>367.454</ele>
        <time>2013-05-07T12:17:40Z</time>
      </trkpt>
      <trkpt lat="41.99397" lon="-1.67379">
        <ele>368.352</ele>
        <time>2013-05-07T12:17:24Z</time>
      </trkpt>
      <trkpt lat="41.99397" lon="-1.6738">
        <ele>368.325</ele>
        <time>2013-05-07T12:17:08Z</time>
      </trkpt>
      <trkpt lat="41.99397" lon="-1.67382">
        <ele>367.858</ele>
        <time>2013-05-07T12:16:52Z</time>
      </trkpt>
      <trkpt lat="41.99399" lon="-1.67379">
        <ele>367.452</ele>
        <time>2013-05-07T12:16:19Z</time>
      </trkpt>
      <trkpt lat="41.99399" lon="-1.67381">
        <ele>367.417</ele>
        <time>2013-05-07T12:15:50Z</time>
      </trkpt>
      <trkpt lat="41.99398" lon="-1.67377">
        <ele>367.408</ele>
        <time>2013-05-07T12:15:23Z</time>
      </trkpt>
      <trkpt lat="41.99402" lon="-1.67379">
        <ele>367.416</ele>
        <time>2013-05-07T12:14:59Z</time>
      </trkpt>
      <trkpt lat="41.994" lon="-1.67385">
        <ele>367.437</ele>
        <time>2013-05-07T12:14:29Z</time>
      </trkpt>
      <trkpt lat="41.99399" lon="-1.6738">
        <ele>367.429</ele>
        <time>2013-05-07T12:13:59Z</time>
      </trkpt>
      <trkpt lat="41.99399" lon="-1.67379">
        <ele>367.474</ele>
        <time>2013-05-07T12:13:34Z</time>
      </trkpt>
      <trkpt lat="41.99397" lon="-1.67381">
        <ele>367.431</ele>
        <time>2013-05-07T12:13:09Z</time>
      </trkpt>
      <trkpt lat="41.99398" lon="-1.67374">
        <ele>366.998</ele>
        <time>2013-05-07T12:12:59Z</time>
      </trkpt>
      <trkpt lat="41.99398" lon="-1.67369">
        <ele>366.496</ele>
        <time>2013-05-07T12:12:47Z</time>
      </trkpt>
      <trkpt lat="41.99418" lon="-1.6736">
        <ele>366.479</ele>
        <time>2013-05-07T12:12:38Z</time>
      </trkpt>
      <trkpt lat="41.99454" lon="-1.67345">
        <ele>366.485</ele>
        <time>2013-05-07T12:12:26Z</time>
      </trkpt>
      <trkpt lat="41.99489" lon="-1.67331">
        <ele>366.489</ele>
        <time>2013-05-07T12:12:14Z</time>
      </trkpt>
      <trkpt lat="41.99521" lon="-1.67318">
        <ele>365.917</ele>
        <time>2013-05-07T12:12:03Z</time>
      </trkpt>
      <trkpt lat="41.99566" lon="-1.673">
        <ele>365.908</ele>
        <time>2013-05-07T12:11:49Z</time>
      </trkpt>
      <trkpt lat="41.99617" lon="-1.67279">
        <ele>365.929</ele>
        <time>2013-05-07T12:11:35Z</time>
      </trkpt>
      <trkpt lat="41.99681" lon="-1.67253">
        <ele>365.97</ele>
        <time>2013-05-07T12:11:19Z</time>
      </trkpt>
      <trkpt lat="41.99735" lon="-1.67231">
        <ele>365.992</ele>
        <time>2013-05-07T12:11:05Z</time>
      </trkpt>
      <trkpt lat="41.99777" lon="-1.67214">
        <ele>365.477</ele>
        <time>2013-05-07T12:10:54Z</time>
      </trkpt>
      <trkpt lat="41.99817" lon="-1.67197">
        <ele>365.094</ele>
        <time>2013-05-07T12:10:43Z</time>
      </trkpt>
      <trkpt lat="41.99869" lon="-1.67164">
        <ele>364.091</ele>
        <time>2013-05-07T12:10:28Z</time>
      </trkpt>
      <trkpt lat="41.99913" lon="-1.67127">
        <ele>363.079</ele>
        <time>2013-05-07T12:10:14Z</time>
      </trkpt>
      <trkpt lat="41.99959" lon="-1.67081">
        <ele>362.112</ele>
        <time>2013-05-07T12:09:59Z</time>
      </trkpt>
      <trkpt lat="41.99965" lon="-1.67075">
        <ele>361.697</ele>
        <time>2013-05-07T12:09:57Z</time>
      </trkpt>
      <trkpt lat="42.00009" lon="-1.67031">
        <ele>361.123</ele>
        <time>2013-05-07T12:09:43Z</time>
      </trkpt>
      <trkpt lat="42.00045" lon="-1.66994">
        <ele>360.625</ele>
        <time>2013-05-07T12:09:31Z</time>
      </trkpt>
      <trkpt lat="42.0009" lon="-1.66949">
        <ele>359.708</ele>
        <time>2013-05-07T12:09:16Z</time>
      </trkpt>
      <trkpt lat="42.00139" lon="-1.66899">
        <ele>359.27</ele>
        <time>2013-05-07T12:09:00Z</time>
      </trkpt>
      <trkpt lat="42.00186" lon="-1.66852">
        <ele>358.221</ele>
        <time>2013-05-07T12:08:45Z</time>
      </trkpt>
      <trkpt lat="42.00238" lon="-1.668">
        <ele>357.833</ele>
        <time>2013-05-07T12:08:28Z</time>
      </trkpt>
      <trkpt lat="42.00283" lon="-1.66753">
        <ele>357.838</ele>
        <time>2013-05-07T12:08:13Z</time>
      </trkpt>
      <trkpt lat="42.0031" lon="-1.66726">
        <ele>357.325</ele>
        <time>2013-05-07T12:08:04Z</time>
      </trkpt>
      <trkpt lat="42.00347" lon="-1.66689">
        <ele>356.332</ele>
        <time>2013-05-07T12:07:52Z</time>
      </trkpt>
      <trkpt lat="42.00393" lon="-1.66642">
        <ele>354.96</ele>
        <time>2013-05-07T12:07:37Z</time>
      </trkpt>
      <trkpt lat="42.00439" lon="-1.66595">
        <ele>354.993</ele>
        <time>2013-05-07T12:07:22Z</time>
      </trkpt>
      <trkpt lat="42.00482" lon="-1.66552">
        <ele>353.953</ele>
        <time>2013-05-07T12:07:09Z</time>
      </trkpt>
      <trkpt lat="42.00513" lon="-1.66519">
        <ele>353.404</ele>
        <time>2013-05-07T12:06:59Z</time>
      </trkpt>
      <trkpt lat="42.00562" lon="-1.6647">
        <ele>352.914</ele>
        <time>2013-05-07T12:06:44Z</time>
      </trkpt>
      <trkpt lat="42.00618" lon="-1.66412">
        <ele>352.508</ele>
        <time>2013-05-07T12:06:27Z</time>
      </trkpt>
      <trkpt lat="42.00679" lon="-1.6635">
        <ele>352.586</ele>
        <time>2013-05-07T12:06:09Z</time>
      </trkpt>
      <trkpt lat="42.0074" lon="-1.66288">
        <ele>351.527</ele>
        <time>2013-05-07T12:05:51Z</time>
      </trkpt>
      <trkpt lat="42.00801" lon="-1.66227">
        <ele>351.039</ele>
        <time>2013-05-07T12:05:33Z</time>
      </trkpt>
      <trkpt lat="42.00844" lon="-1.66183">
        <ele>350.534</ele>
        <time>2013-05-07T12:05:19Z</time>
      </trkpt>
      <trkpt lat="42.00878" lon="-1.66149">
        <ele>350.171</ele>
        <time>2013-05-07T12:05:08Z</time>
      </trkpt>
      <trkpt lat="42.00922" lon="-1.66104">
        <ele>349.118</ele>
        <time>2013-05-07T12:04:53Z</time>
      </trkpt>
      <trkpt lat="42.00969" lon="-1.66056">
        <ele>348.126</ele>
        <time>2013-05-07T12:04:37Z</time>
      </trkpt>
      <trkpt lat="42.01017" lon="-1.66007">
        <ele>347.219</ele>
        <time>2013-05-07T12:04:21Z</time>
      </trkpt>
      <trkpt lat="42.01061" lon="-1.65962">
        <ele>346.254</ele>
        <time>2013-05-07T12:04:06Z</time>
      </trkpt>
      <trkpt lat="42.01098" lon="-1.65926">
        <ele>345.756</ele>
        <time>2013-05-07T12:03:54Z</time>
      </trkpt>
      <trkpt lat="42.01138" lon="-1.65885">
        <ele>344.811</ele>
        <time>2013-05-07T12:03:40Z</time>
      </trkpt>
      <trkpt lat="42.01183" lon="-1.65839">
        <ele>343.808</ele>
        <time>2013-05-07T12:03:25Z</time>
      </trkpt>
      <trkpt lat="42.01224" lon="-1.65796">
        <ele>343.346</ele>
        <time>2013-05-07T12:03:11Z</time>
      </trkpt>
      <trkpt lat="42.01284" lon="-1.65735">
        <ele>342.417</ele>
        <time>2013-05-07T12:02:51Z</time>
      </trkpt>
      <trkpt lat="42.01322" lon="-1.65697">
        <ele>341.459</ele>
        <time>2013-05-07T12:02:38Z</time>
      </trkpt>
      <trkpt lat="42.01363" lon="-1.65656">
        <ele>340.954</ele>
        <time>2013-05-07T12:02:24Z</time>
      </trkpt>
      <trkpt lat="42.014" lon="-1.65619">
        <ele>340.041</ele>
        <time>2013-05-07T12:02:11Z</time>
      </trkpt>
      <trkpt lat="42.01441" lon="-1.65577">
        <ele>340.068</ele>
        <time>2013-05-07T12:01:56Z</time>
      </trkpt>
      <trkpt lat="42.01476" lon="-1.65543">
        <ele>339.066</ele>
        <time>2013-05-07T12:01:43Z</time>
      </trkpt>
      <trkpt lat="42.01514" lon="-1.65503">
        <ele>338.059</ele>
        <time>2013-05-07T12:01:29Z</time>
      </trkpt>
      <trkpt lat="42.01554" lon="-1.65462">
        <ele>337.199</ele>
        <time>2013-05-07T12:01:15Z</time>
      </trkpt>
      <trkpt lat="42.01585" lon="-1.65431">
        <ele>336.607</ele>
        <time>2013-05-07T12:01:04Z</time>
      </trkpt>
      <trkpt lat="42.01629" lon="-1.65387">
        <ele>335.627</ele>
        <time>2013-05-07T12:00:49Z</time>
      </trkpt>
      <trkpt lat="42.0167" lon="-1.65345">
        <ele>335.208</ele>
        <time>2013-05-07T12:00:35Z</time>
      </trkpt>
      <trkpt lat="42.01713" lon="-1.65301">
        <ele>334.79</ele>
        <time>2013-05-07T12:00:20Z</time>
      </trkpt>
      <trkpt lat="42.0175" lon="-1.65262">
        <ele>334.211</ele>
        <time>2013-05-07T12:00:07Z</time>
      </trkpt>
      <trkpt lat="42.01805" lon="-1.65205">
        <ele>333.233</ele>
        <time>2013-05-07T11:59:48Z</time>
      </trkpt>
      <trkpt lat="42.01855" lon="-1.65155">
        <ele>332.818</ele>
        <time>2013-05-07T11:59:32Z</time>
      </trkpt>
      <trkpt lat="42.01903" lon="-1.65104">
        <ele>332.345</ele>
        <time>2013-05-07T11:59:17Z</time>
      </trkpt>
      <trkpt lat="42.01936" lon="-1.65056">
        <ele>332.372</ele>
        <time>2013-05-07T11:59:05Z</time>
      </trkpt>
      <trkpt lat="42.01974" lon="-1.64987">
        <ele>332.37</ele>
        <time>2013-05-07T11:58:50Z</time>
      </trkpt>
      <trkpt lat="42.02009" lon="-1.6492">
        <ele>332.363</ele>
        <time>2013-05-07T11:58:36Z</time>
      </trkpt>
      <trkpt lat="42.02041" lon="-1.64858">
        <ele>332.344</ele>
        <time>2013-05-07T11:58:23Z</time>
      </trkpt>
      <trkpt lat="42.02072" lon="-1.64797">
        <ele>332.305</ele>
        <time>2013-05-07T11:58:10Z</time>
      </trkpt>
      <trkpt lat="42.02095" lon="-1.64751">
        <ele>332.315</ele>
        <time>2013-05-07T11:57:59Z</time>
      </trkpt>
      <trkpt lat="42.0211" lon="-1.64723">
        <ele>331.808</ele>
        <time>2013-05-07T11:57:50Z</time>
      </trkpt>
      <trkpt lat="42.02123" lon="-1.64699">
        <ele>331.885</ele>
        <time>2013-05-07T11:57:39Z</time>
      </trkpt>
      <trkpt lat="42.02124" lon="-1.64699">
        <ele>331.866</ele>
        <time>2013-05-07T11:57:16Z</time>
      </trkpt>
      <trkpt lat="42.02143" lon="-1.64659">
        <ele>331.878</ele>
        <time>2013-05-07T11:57:04Z</time>
      </trkpt>
      <trkpt lat="42.02177" lon="-1.64592">
        <ele>331.873</ele>
        <time>2013-05-07T11:56:49Z</time>
      </trkpt>
      <trkpt lat="42.02214" lon="-1.64524">
        <ele>331.81</ele>
        <time>2013-05-07T11:56:34Z</time>
      </trkpt>
      <trkpt lat="42.02256" lon="-1.64445">
        <ele>331.357</ele>
        <time>2013-05-07T11:56:16Z</time>
      </trkpt>
      <trkpt lat="42.02296" lon="-1.64368">
        <ele>330.885</ele>
        <time>2013-05-07T11:55:58Z</time>
      </trkpt>
      <trkpt lat="42.02331" lon="-1.64301">
        <ele>329.968</ele>
        <time>2013-05-07T11:55:42Z</time>
      </trkpt>
      <trkpt lat="42.02369" lon="-1.64227">
        <ele>328.977</ele>
        <time>2013-05-07T11:55:24Z</time>
      </trkpt>
      <trkpt lat="42.02401" lon="-1.64165">
        <ele>328.461</ele>
        <time>2013-05-07T11:55:08Z</time>
      </trkpt>
      <trkpt lat="42.0243" lon="-1.6411">
        <ele>328.427</ele>
        <time>2013-05-07T11:54:53Z</time>
      </trkpt>
      <trkpt lat="42.02456" lon="-1.64061">
        <ele>327.508</ele>
        <time>2013-05-07T11:54:39Z</time>
      </trkpt>
      <trkpt lat="42.02485" lon="-1.64006">
        <ele>327.078</ele>
        <time>2013-05-07T11:54:22Z</time>
      </trkpt>
      <trkpt lat="42.02503" lon="-1.63971">
        <ele>327.099</ele>
        <time>2013-05-07T11:54:08Z</time>
      </trkpt>
      <trkpt lat="42.02516" lon="-1.63947">
        <ele>326.531</ele>
        <time>2013-05-07T11:53:56Z</time>
      </trkpt>
      <trkpt lat="42.02521" lon="-1.63935">
        <ele>326.576</ele>
        <time>2013-05-07T11:53:47Z</time>
      </trkpt>
      <trkpt lat="42.02523" lon="-1.63932">
        <ele>326.543</ele>
        <time>2013-05-07T11:53:41Z</time>
      </trkpt>
      <trkpt lat="42.02523" lon="-1.6393">
        <ele>326.56</ele>
        <time>2013-05-07T11:53:00Z</time>
      </trkpt>
      <trkpt lat="42.02524" lon="-1.63932">
        <ele>326.028</ele>
        <time>2013-05-07T11:51:52Z</time>
      </trkpt>
      <trkpt lat="42.02524" lon="-1.63932">
        <ele>325.141</ele>
        <time>2013-05-07T11:50:07Z</time>
      </trkpt>
      <trkpt lat="42.02523" lon="-1.63932">
        <ele>325.118</ele>
        <time>2013-05-07T11:49:08Z</time>
      </trkpt>
      <trkpt lat="42.02538" lon="-1.63903">
        <ele>325.198</ele>
        <time>2013-05-07T11:48:56Z</time>
      </trkpt>
      <trkpt lat="42.02579" lon="-1.63824">
        <ele>324.117</ele>
        <time>2013-05-07T11:48:38Z</time>
      </trkpt>
      <trkpt lat="42.02593" lon="-1.63796">
        <ele>324.108</ele>
        <time>2013-05-07T11:48:32Z</time>
      </trkpt>
      <trkpt lat="42.02635" lon="-1.63716">
        <ele>323.612</ele>
        <time>2013-05-07T11:48:15Z</time>
      </trkpt>
      <trkpt lat="42.02668" lon="-1.63653">
        <ele>322.753</ele>
        <time>2013-05-07T11:48:01Z</time>
      </trkpt>
      <trkpt lat="42.02697" lon="-1.63598">
        <ele>322.715</ele>
        <time>2013-05-07T11:47:48Z</time>
      </trkpt>
      <trkpt lat="42.02729" lon="-1.63536">
        <ele>321.71</ele>
        <time>2013-05-07T11:47:34Z</time>
      </trkpt>
      <trkpt lat="42.02755" lon="-1.63486">
        <ele>321.247</ele>
        <time>2013-05-07T11:47:23Z</time>
      </trkpt>
      <trkpt lat="42.02782" lon="-1.63434">
        <ele>321.284</ele>
        <time>2013-05-07T11:47:12Z</time>
      </trkpt>
      <trkpt lat="42.02814" lon="-1.63373">
        <ele>320.722</ele>
        <time>2013-05-07T11:46:58Z</time>
      </trkpt>
      <trkpt lat="42.02851" lon="-1.63303">
        <ele>320.325</ele>
        <time>2013-05-07T11:46:43Z</time>
      </trkpt>
      <trkpt lat="42.02887" lon="-1.63233">
        <ele>319.828</ele>
        <time>2013-05-07T11:46:28Z</time>
      </trkpt>
      <trkpt lat="42.02924" lon="-1.63161">
        <ele>318.889</ele>
        <time>2013-05-07T11:46:13Z</time>
      </trkpt>
      <trkpt lat="42.02961" lon="-1.63095">
        <ele>318.317</ele>
        <time>2013-05-07T11:45:59Z</time>
      </trkpt>
      <trkpt lat="42.02968" lon="-1.63072">
        <ele>318.308</ele>
        <time>2013-05-07T11:45:55Z</time>
      </trkpt>
      <trkpt lat="42.0297" lon="-1.63067">
        <ele>318.393</ele>
        <time>2013-05-07T11:45:54Z</time>
      </trkpt>
      <trkpt lat="42.02975" lon="-1.63058">
        <ele>318.394</ele>
        <time>2013-05-07T11:45:52Z</time>
      </trkpt>
      <trkpt lat="42.03014" lon="-1.62989">
        <ele>317.436</ele>
        <time>2013-05-07T11:45:37Z</time>
      </trkpt>
      <trkpt lat="42.03047" lon="-1.62923">
        <ele>317.441</ele>
        <time>2013-05-07T11:45:23Z</time>
      </trkpt>
      <trkpt lat="42.03069" lon="-1.6288">
        <ele>316.978</ele>
        <time>2013-05-07T11:45:14Z</time>
      </trkpt>
      <trkpt lat="42.03072" lon="-1.62875">
        <ele>316.945</ele>
        <time>2013-05-07T11:45:13Z</time>
      </trkpt>
      <trkpt lat="42.03104" lon="-1.62815">
        <ele>315.943</ele>
        <time>2013-05-07T11:45:00Z</time>
      </trkpt>
      <trkpt lat="42.03119" lon="-1.62786">
        <ele>315.956</ele>
        <time>2013-05-07T11:44:54Z</time>
      </trkpt>
      <trkpt lat="42.03164" lon="-1.62702">
        <ele>315.027</ele>
        <time>2013-05-07T11:44:36Z</time>
      </trkpt>
      <trkpt lat="42.03168" lon="-1.62692">
        <ele>315.068</ele>
        <time>2013-05-07T11:44:34Z</time>
      </trkpt>
      <trkpt lat="42.03193" lon="-1.62644">
        <ele>315.014</ele>
        <time>2013-05-07T11:44:24Z</time>
      </trkpt>
      <trkpt lat="42.03226" lon="-1.6258">
        <ele>314.508</ele>
        <time>2013-05-07T11:44:11Z</time>
      </trkpt>
      <trkpt lat="42.03259" lon="-1.62517">
        <ele>313.573</ele>
        <time>2013-05-07T11:43:58Z</time>
      </trkpt>
      <trkpt lat="42.03305" lon="-1.62429">
        <ele>313.544</ele>
        <time>2013-05-07T11:43:40Z</time>
      </trkpt>
      <trkpt lat="42.0334" lon="-1.62363">
        <ele>313.516</ele>
        <time>2013-05-07T11:43:27Z</time>
      </trkpt>
      <trkpt lat="42.03375" lon="-1.62293">
        <ele>313.511</ele>
        <time>2013-05-07T11:43:15Z</time>
      </trkpt>
      <trkpt lat="42.03412" lon="-1.62219">
        <ele>313.588</ele>
        <time>2013-05-07T11:43:06Z</time>
      </trkpt>
      <trkpt lat="42.03426" lon="-1.62191">
        <ele>315.945</ele>
        <time>2013-05-07T11:43:03Z</time>
      </trkpt>
      <trkpt lat="42.03446" lon="-1.62154">
        <ele>317.913</ele>
        <time>2013-05-07T11:42:55Z</time>
      </trkpt>
      <trkpt lat="42.03459" lon="-1.6213">
        <ele>316.486</ele>
        <time>2013-05-07T11:42:43Z</time>
      </trkpt>
      <trkpt lat="42.03472" lon="-1.62106">
        <ele>313.569</ele>
        <time>2013-05-07T11:42:31Z</time>
      </trkpt>
      <trkpt lat="42.03496" lon="-1.62063">
        <ele>311.604</ele>
        <time>2013-05-07T11:42:19Z</time>
      </trkpt>
      <trkpt lat="42.03532" lon="-1.61993">
        <ele>311.124</ele>
        <time>2013-05-07T11:42:04Z</time>
      </trkpt>
      <trkpt lat="42.03567" lon="-1.61927">
        <ele>311.108</ele>
        <time>2013-05-07T11:41:49Z</time>
      </trkpt>
      <trkpt lat="42.03601" lon="-1.61861">
        <ele>309.797</ele>
        <time>2013-05-07T11:41:33Z</time>
      </trkpt>
      <trkpt lat="42.03639" lon="-1.61789">
        <ele>308.258</ele>
        <time>2013-05-07T11:41:16Z</time>
      </trkpt>
      <trkpt lat="42.03681" lon="-1.61708">
        <ele>307.81</ele>
        <time>2013-05-07T11:40:58Z</time>
      </trkpt>
      <trkpt lat="42.03714" lon="-1.61643">
        <ele>306.815</ele>
        <time>2013-05-07T11:40:43Z</time>
      </trkpt>
      <trkpt lat="42.03748" lon="-1.61578">
        <ele>306.312</ele>
        <time>2013-05-07T11:40:28Z</time>
      </trkpt>
      <trkpt lat="42.0379" lon="-1.615">
        <ele>305.419</ele>
        <time>2013-05-07T11:40:10Z</time>
      </trkpt>
      <trkpt lat="42.03827" lon="-1.61428">
        <ele>304.927</ele>
        <time>2013-05-07T11:39:53Z</time>
      </trkpt>
      <trkpt lat="42.03859" lon="-1.61365">
        <ele>303.95</ele>
        <time>2013-05-07T11:39:39Z</time>
      </trkpt>
      <trkpt lat="42.03881" lon="-1.61325">
        <ele>303.493</ele>
        <time>2013-05-07T11:39:30Z</time>
      </trkpt>
      <trkpt lat="42.03925" lon="-1.61239">
        <ele>302.565</ele>
        <time>2013-05-07T11:39:11Z</time>
      </trkpt>
      <trkpt lat="42.03967" lon="-1.61158">
        <ele>302.021</ele>
        <time>2013-05-07T11:38:53Z</time>
      </trkpt>
      <trkpt lat="42.04006" lon="-1.61082">
        <ele>301.008</ele>
        <time>2013-05-07T11:38:36Z</time>
      </trkpt>
      <trkpt lat="42.04046" lon="-1.61006">
        <ele>300.12</ele>
        <time>2013-05-07T11:38:19Z</time>
      </trkpt>
      <trkpt lat="42.04071" lon="-1.60957">
        <ele>299.621</ele>
        <time>2013-05-07T11:38:08Z</time>
      </trkpt>
      <trkpt lat="42.041" lon="-1.60904">
        <ele>299.183</ele>
        <time>2013-05-07T11:37:56Z</time>
      </trkpt>
      <trkpt lat="42.04122" lon="-1.60859">
        <ele>298.678</ele>
        <time>2013-05-07T11:37:46Z</time>
      </trkpt>
      <trkpt lat="42.04155" lon="-1.60797">
        <ele>297.725</ele>
        <time>2013-05-07T11:37:31Z</time>
      </trkpt>
      <trkpt lat="42.04188" lon="-1.60734">
        <ele>297.722</ele>
        <time>2013-05-07T11:37:16Z</time>
      </trkpt>
      <trkpt lat="42.0422" lon="-1.60674">
        <ele>297.28</ele>
        <time>2013-05-07T11:37:02Z</time>
      </trkpt>
      <trkpt lat="42.0425" lon="-1.60615">
        <ele>296.213</ele>
        <time>2013-05-07T11:36:50Z</time>
      </trkpt>
      <trkpt lat="42.04275" lon="-1.60567">
        <ele>295.759</ele>
        <time>2013-05-07T11:36:40Z</time>
      </trkpt>
      <trkpt lat="42.04307" lon="-1.60506">
        <ele>295.303</ele>
        <time>2013-05-07T11:36:26Z</time>
      </trkpt>
      <trkpt lat="42.04339" lon="-1.60443">
        <ele>294.823</ele>
        <time>2013-05-07T11:36:11Z</time>
      </trkpt>
      <trkpt lat="42.04372" lon="-1.6038">
        <ele>293.808</ele>
        <time>2013-05-07T11:35:56Z</time>
      </trkpt>
      <trkpt lat="42.04405" lon="-1.60315">
        <ele>293.376</ele>
        <time>2013-05-07T11:35:41Z</time>
      </trkpt>
      <trkpt lat="42.04439" lon="-1.6025">
        <ele>293.377</ele>
        <time>2013-05-07T11:35:26Z</time>
      </trkpt>
      <trkpt lat="42.04474" lon="-1.60183">
        <ele>291.929</ele>
        <time>2013-05-07T11:35:10Z</time>
      </trkpt>
      <trkpt lat="42.04499" lon="-1.60136">
        <ele>291.414</ele>
        <time>2013-05-07T11:34:59Z</time>
      </trkpt>
      <trkpt lat="42.04527" lon="-1.60081">
        <ele>290.921</ele>
        <time>2013-05-07T11:34:46Z</time>
      </trkpt>
      <trkpt lat="42.04572" lon="-1.59995">
        <ele>290.058</ele>
        <time>2013-05-07T11:34:26Z</time>
      </trkpt>
      <trkpt lat="42.04608" lon="-1.59924">
        <ele>289.096</ele>
        <time>2013-05-07T11:34:10Z</time>
      </trkpt>
      <trkpt lat="42.04643" lon="-1.59857">
        <ele>288.169</ele>
        <time>2013-05-07T11:33:55Z</time>
      </trkpt>
      <trkpt lat="42.04682" lon="-1.59782">
        <ele>287.675</ele>
        <time>2013-05-07T11:33:38Z</time>
      </trkpt>
      <trkpt lat="42.04714" lon="-1.59721">
        <ele>287.128</ele>
        <time>2013-05-07T11:33:24Z</time>
      </trkpt>
      <trkpt lat="42.0475" lon="-1.59652">
        <ele>286.12</ele>
        <time>2013-05-07T11:33:08Z</time>
      </trkpt>
      <trkpt lat="42.04774" lon="-1.59604">
        <ele>285.708</ele>
        <time>2013-05-07T11:32:56Z</time>
      </trkpt>
      <trkpt lat="42.048" lon="-1.59552">
        <ele>285.248</ele>
        <time>2013-05-07T11:32:43Z</time>
      </trkpt>
      <trkpt lat="42.04823" lon="-1.59494">
        <ele>284.229</ele>
        <time>2013-05-07T11:32:32Z</time>
      </trkpt>
      <trkpt lat="42.04826" lon="-1.59487">
        <ele>284.281</ele>
        <time>2013-05-07T11:32:31Z</time>
      </trkpt>
      <trkpt lat="42.04851" lon="-1.59457">
        <ele>284.276</ele>
        <time>2013-05-07T11:32:25Z</time>
      </trkpt>
      <trkpt lat="42.04878" lon="-1.59406">
        <ele>284.283</ele>
        <time>2013-05-07T11:32:15Z</time>
      </trkpt>
      <trkpt lat="42.04917" lon="-1.59333">
        <ele>283.75</ele>
        <time>2013-05-07T11:32:00Z</time>
      </trkpt>
      <trkpt lat="42.04959" lon="-1.59273">
        <ele>283.398</ele>
        <time>2013-05-07T11:31:46Z</time>
      </trkpt>
      <trkpt lat="42.05006" lon="-1.59226">
        <ele>282.371</ele>
        <time>2013-05-07T11:31:33Z</time>
      </trkpt>
      <trkpt lat="42.05076" lon="-1.59179">
        <ele>281.871</ele>
        <time>2013-05-07T11:31:16Z</time>
      </trkpt>
      <trkpt lat="42.05132" lon="-1.59158">
        <ele>281.841</ele>
        <time>2013-05-07T11:31:03Z</time>
      </trkpt>
      <trkpt lat="42.05173" lon="-1.5915">
        <ele>280.415</ele>
        <time>2013-05-07T11:30:54Z</time>
      </trkpt>
      <trkpt lat="42.05246" lon="-1.5915">
        <ele>280.408</ele>
        <time>2013-05-07T11:30:38Z</time>
      </trkpt>
      <trkpt lat="42.05254" lon="-1.59153">
        <ele>280.458</ele>
        <time>2013-05-07T11:30:36Z</time>
      </trkpt>
      <trkpt lat="42.05259" lon="-1.59154">
        <ele>280.429</ele>
        <time>2013-05-07T11:30:35Z</time>
      </trkpt>
      <trkpt lat="42.0531" lon="-1.59174">
        <ele>280.441</ele>
        <time>2013-05-07T11:30:24Z</time>
      </trkpt>
      <trkpt lat="42.05342" lon="-1.59201">
        <ele>281.366</ele>
        <time>2013-05-07T11:30:17Z</time>
      </trkpt>
      <trkpt lat="42.05375" lon="-1.59227">
        <ele>282.373</ele>
        <time>2013-05-07T11:30:10Z</time>
      </trkpt>
      <trkpt lat="42.05415" lon="-1.59264">
        <ele>282.36</ele>
        <time>2013-05-07T11:29:58Z</time>
      </trkpt>
      <trkpt lat="42.05421" lon="-1.59271">
        <ele>282.388</ele>
        <time>2013-05-07T11:29:54Z</time>
      </trkpt>
      <trkpt lat="42.05423" lon="-1.59274">
        <ele>282.341</ele>
        <time>2013-05-07T11:29:40Z</time>
      </trkpt>
      <trkpt lat="42.05426" lon="-1.59276">
        <ele>282.336</ele>
        <time>2013-05-07T11:29:30Z</time>
      </trkpt>
      <trkpt lat="42.05431" lon="-1.59297">
        <ele>282.317</ele>
        <time>2013-05-07T11:29:20Z</time>
      </trkpt>
      <trkpt lat="42.05453" lon="-1.59321">
        <ele>282.318</ele>
        <time>2013-05-07T11:29:08Z</time>
      </trkpt>
      <trkpt lat="42.05463" lon="-1.59331">
        <ele>281.808</ele>
        <time>2013-05-07T11:29:02Z</time>
      </trkpt>
      <trkpt lat="42.05475" lon="-1.59349">
        <ele>281.874</ele>
        <time>2013-05-07T11:28:54Z</time>
      </trkpt>
      <trkpt lat="42.05476" lon="-1.59353">
        <ele>281.825</ele>
        <time>2013-05-07T11:28:53Z</time>
      </trkpt>
      <trkpt lat="42.05477" lon="-1.59355">
        <ele>281.387</ele>
        <time>2013-05-07T11:28:52Z</time>
      </trkpt>
      <trkpt lat="42.05495" lon="-1.59387">
        <ele>281.372</ele>
        <time>2013-05-07T11:28:40Z</time>
      </trkpt>
      <trkpt lat="42.05508" lon="-1.59412">
        <ele>281.399</ele>
        <time>2013-05-07T11:28:27Z</time>
      </trkpt>
      <trkpt lat="42.05506" lon="-1.59414">
        <ele>281.396</ele>
        <time>2013-05-07T11:27:58Z</time>
      </trkpt>
      <trkpt lat="42.05512" lon="-1.59426">
        <ele>281.354</ele>
        <time>2013-05-07T11:27:49Z</time>
      </trkpt>
      <trkpt lat="42.05532" lon="-1.59466">
        <ele>281.357</ele>
        <time>2013-05-07T11:27:38Z</time>
      </trkpt>
      <trkpt lat="42.05546" lon="-1.59491">
        <ele>281.311</ele>
        <time>2013-05-07T11:27:30Z</time>
      </trkpt>
      <trkpt lat="42.05562" lon="-1.59515">
        <ele>281.321</ele>
        <time>2013-05-07T11:27:22Z</time>
      </trkpt>
      <trkpt lat="42.05584" lon="-1.59561">
        <ele>280.803</ele>
        <time>2013-05-07T11:27:09Z</time>
      </trkpt>
      <trkpt lat="42.05603" lon="-1.59584">
        <ele>280.808</ele>
        <time>2013-05-07T11:27:01Z</time>
      </trkpt>
      <trkpt lat="42.05627" lon="-1.59627">
        <ele>280.442</ele>
        <time>2013-05-07T11:26:49Z</time>
      </trkpt>
      <trkpt lat="42.05646" lon="-1.59666">
        <ele>280.413</ele>
        <time>2013-05-07T11:26:38Z</time>
      </trkpt>
      <trkpt lat="42.05647" lon="-1.59669">
        <ele>280.485</ele>
        <time>2013-05-07T11:26:37Z</time>
      </trkpt>
      <trkpt lat="42.05648" lon="-1.59671">
        <ele>280.43</ele>
        <time>2013-05-07T11:26:36Z</time>
      </trkpt>
      <trkpt lat="42.05648" lon="-1.59674">
        <ele>280.427</ele>
        <time>2013-05-07T11:26:35Z</time>
      </trkpt>
      <trkpt lat="42.05648" lon="-1.59677">
        <ele>280.464</ele>
        <time>2013-05-07T11:26:34Z</time>
      </trkpt>
      <trkpt lat="42.05647" lon="-1.5968">
        <ele>280.412</ele>
        <time>2013-05-07T11:26:33Z</time>
      </trkpt>
      <trkpt lat="42.05646" lon="-1.59682">
        <ele>280.425</ele>
        <time>2013-05-07T11:26:32Z</time>
      </trkpt>
      <trkpt lat="42.05645" lon="-1.59685">
        <ele>280.477</ele>
        <time>2013-05-07T11:26:31Z</time>
      </trkpt>
      <trkpt lat="42.05645" lon="-1.59687">
        <ele>280.461</ele>
        <time>2013-05-07T11:26:30Z</time>
      </trkpt>
      <trkpt lat="42.05644" lon="-1.59689">
        <ele>279.927</ele>
        <time>2013-05-07T11:26:29Z</time>
      </trkpt>
      <trkpt lat="42.05646" lon="-1.59695">
        <ele>280.408</ele>
        <time>2013-05-07T11:26:27Z</time>
      </trkpt>
      <trkpt lat="42.05649" lon="-1.59703">
        <ele>280.428</ele>
        <time>2013-05-07T11:26:13Z</time>
      </trkpt>
      <trkpt lat="42.05652" lon="-1.59705">
        <ele>280.429</ele>
        <time>2013-05-07T11:25:56Z</time>
      </trkpt>
      <trkpt lat="42.05662" lon="-1.59726">
        <ele>279.911</ele>
        <time>2013-05-07T11:25:45Z</time>
      </trkpt>
      <trkpt lat="42.05663" lon="-1.59728">
        <ele>279.996</ele>
        <time>2013-05-07T11:25:44Z</time>
      </trkpt>
      <trkpt lat="42.05666" lon="-1.59731">
        <ele>279.933</ele>
        <time>2013-05-07T11:25:41Z</time>
      </trkpt>
      <trkpt lat="42.05667" lon="-1.59731">
        <ele>279.99</ele>
        <time>2013-05-07T11:25:40Z</time>
      </trkpt>
      <trkpt lat="42.05697" lon="-1.59717">
        <ele>279.428</ele>
        <time>2013-05-07T11:25:27Z</time>
      </trkpt>
      <trkpt lat="42.05718" lon="-1.59702">
        <ele>279.481</ele>
        <time>2013-05-07T11:25:16Z</time>
      </trkpt>
      <trkpt lat="42.0572" lon="-1.59699">
        <ele>279.426</ele>
        <time>2013-05-07T11:25:00Z</time>
      </trkpt>
      <trkpt lat="42.05723" lon="-1.59702">
        <ele>279.447</ele>
        <time>2013-05-07T11:24:35Z</time>
      </trkpt>
      <trkpt lat="42.05721" lon="-1.59697">
        <ele>279.411</ele>
        <time>2013-05-07T11:24:14Z</time>
      </trkpt>
      <trkpt lat="42.0572" lon="-1.59699">
        <ele>279.408</ele>
        <time>2013-05-07T11:23:51Z</time>
      </trkpt>
      <trkpt lat="42.05721" lon="-1.597">
        <ele>279.463</ele>
        <time>2013-05-07T11:23:25Z</time>
      </trkpt>
      <trkpt lat="42.05723" lon="-1.597">
        <ele>279.484</ele>
        <time>2013-05-07T11:23:05Z</time>
      </trkpt>
      <trkpt lat="42.05723" lon="-1.59702">
        <ele>278.916</ele>
        <time>2013-05-07T11:22:49Z</time>
      </trkpt>
      <trkpt lat="42.05723" lon="-1.59697">
        <ele>278.961</ele>
        <time>2013-05-07T11:22:40Z</time>
      </trkpt>
      <trkpt lat="42.05742" lon="-1.59684">
        <ele>278.928</ele>
        <time>2013-05-07T11:22:27Z</time>
      </trkpt>
      <trkpt lat="42.05752" lon="-1.5968">
        <ele>278.995</ele>
        <time>2013-05-07T11:22:21Z</time>
      </trkpt>
      <trkpt lat="42.05754" lon="-1.59679">
        <ele>278.943</ele>
        <time>2013-05-07T11:22:20Z</time>
      </trkpt>
      <trkpt lat="42.05776" lon="-1.59675">
        <ele>278.956</ele>
        <time>2013-05-07T11:22:06Z</time>
      </trkpt>
      <trkpt lat="42.05797" lon="-1.5968">
        <ele>278.427</ele>
        <time>2013-05-07T11:21:53Z</time>
      </trkpt>
      <trkpt lat="42.05813" lon="-1.59688">
        <ele>278.068</ele>
        <time>2013-05-07T11:21:44Z</time>
      </trkpt>
      <trkpt lat="42.05833" lon="-1.59718">
        <ele>276.014</ele>
        <time>2013-05-07T11:21:32Z</time>
      </trkpt>
      <trkpt lat="42.0586" lon="-1.59748">
        <ele>276.008</ele>
        <time>2013-05-07T11:21:20Z</time>
      </trkpt>
      <trkpt lat="42.05891" lon="-1.59782">
        <ele>275.663</ele>
        <time>2013-05-07T11:21:05Z</time>
      </trkpt>
      <trkpt lat="42.05893" lon="-1.59784">
        <ele>275.654</ele>
        <time>2013-05-07T11:21:04Z</time>
      </trkpt>
      <trkpt lat="42.05895" lon="-1.59786">
        <ele>275.686</ele>
        <time>2013-05-07T11:21:03Z</time>
      </trkpt>
      <trkpt lat="42.05902" lon="-1.59787">
        <ele>275.681</ele>
        <time>2013-05-07T11:21:00Z</time>
      </trkpt>
      <trkpt lat="42.05905" lon="-1.59787">
        <ele>275.648</ele>
        <time>2013-05-07T11:20:59Z</time>
      </trkpt>
      <trkpt lat="42.05908" lon="-1.59786">
        <ele>275.685</ele>
        <time>2013-05-07T11:20:58Z</time>
      </trkpt>
      <trkpt lat="42.05911" lon="-1.59786">
        <ele>275.693</ele>
        <time>2013-05-07T11:20:57Z</time>
      </trkpt>
      <trkpt lat="42.05913" lon="-1.59785">
        <ele>275.616</ele>
        <time>2013-05-07T11:20:56Z</time>
      </trkpt>
      <trkpt lat="42.05916" lon="-1.59785">
        <ele>275.653</ele>
        <time>2013-05-07T11:20:55Z</time>
      </trkpt>
      <trkpt lat="42.05935" lon="-1.59801">
        <ele>275.604</ele>
        <time>2013-05-07T11:20:46Z</time>
      </trkpt>
      <trkpt lat="42.05937" lon="-1.59804">
        <ele>275.614</ele>
        <time>2013-05-07T11:20:45Z</time>
      </trkpt>
      <trkpt lat="42.05938" lon="-1.59806">
        <ele>275.608</ele>
        <time>2013-05-07T11:20:44Z</time>
      </trkpt>
      <trkpt lat="42.05941" lon="-1.5981">
        <ele>275.616</ele>
        <time>2013-05-07T11:20:29Z</time>
      </trkpt>
      <trkpt lat="42.05942" lon="-1.5981">
        <ele>275.697</ele>
        <time>2013-05-07T11:20:28Z</time>
      </trkpt>
      <trkpt lat="42.05943" lon="-1.59812">
        <ele>275.689</ele>
        <time>2013-05-07T11:20:16Z</time>
      </trkpt>
      <trkpt lat="42.05942" lon="-1.59816">
        <ele>275.644</ele>
        <time>2013-05-07T11:20:07Z</time>
      </trkpt>
      <trkpt lat="42.05941" lon="-1.59818">
        <ele>275.691</ele>
        <time>2013-05-07T11:20:06Z</time>
      </trkpt>
      <trkpt lat="42.05941" lon="-1.5982">
        <ele>275.648</ele>
        <time>2013-05-07T11:20:05Z</time>
      </trkpt>
      <trkpt lat="42.05939" lon="-1.59823">
        <ele>275.146</ele>
        <time>2013-05-07T11:19:53Z</time>
      </trkpt>
      <trkpt lat="42.05959" lon="-1.59842">
        <ele>275.189</ele>
        <time>2013-05-07T11:19:43Z</time>
      </trkpt>
      <trkpt lat="42.05983" lon="-1.59869">
        <ele>274.135</ele>
        <time>2013-05-07T11:19:33Z</time>
      </trkpt>
      <trkpt lat="42.0601" lon="-1.59895">
        <ele>274.186</ele>
        <time>2013-05-07T11:19:23Z</time>
      </trkpt>
      <trkpt lat="42.06043" lon="-1.59921">
        <ele>273.614</ele>
        <time>2013-05-07T11:19:12Z</time>
      </trkpt>
      <trkpt lat="42.06076" lon="-1.59952">
        <ele>273.208</ele>
        <time>2013-05-07T11:19:01Z</time>
      </trkpt>
      <trkpt lat="42.06103" lon="-1.59981">
        <ele>272.744</ele>
        <time>2013-05-07T11:18:49Z</time>
      </trkpt>
      <trkpt lat="42.06104" lon="-1.59983">
        <ele>272.715</ele>
        <time>2013-05-07T11:18:48Z</time>
      </trkpt>
      <trkpt lat="42.06106" lon="-1.59986">
        <ele>272.797</ele>
        <time>2013-05-07T11:18:47Z</time>
      </trkpt>
      <trkpt lat="42.06108" lon="-1.59988">
        <ele>272.752</ele>
        <time>2013-05-07T11:18:46Z</time>
      </trkpt>
      <trkpt lat="42.0612" lon="-1.59995">
        <ele>272.799</ele>
        <time>2013-05-07T11:18:06Z</time>
      </trkpt>
      <trkpt lat="42.06121" lon="-1.59998">
        <ele>272.726</ele>
        <time>2013-05-07T11:18:05Z</time>
      </trkpt>
      <trkpt lat="42.06122" lon="-1.60001">
        <ele>272.714</ele>
        <time>2013-05-07T11:18:04Z</time>
      </trkpt>
      <trkpt lat="42.06123" lon="-1.60004">
        <ele>272.727</ele>
        <time>2013-05-07T11:18:03Z</time>
      </trkpt>
      <trkpt lat="42.06124" lon="-1.60005">
        <ele>272.775</ele>
        <time>2013-05-07T11:18:02Z</time>
      </trkpt>
      <trkpt lat="42.06126" lon="-1.60006">
        <ele>272.728</ele>
        <time>2013-05-07T11:18:01Z</time>
      </trkpt>
      <trkpt lat="42.06127" lon="-1.60007">
        <ele>272.72</ele>
        <time>2013-05-07T11:18:00Z</time>
      </trkpt>
      <trkpt lat="42.06128" lon="-1.60007">
        <ele>272.708</ele>
        <time>2013-05-07T11:17:59Z</time>
      </trkpt>
      <trkpt lat="42.06129" lon="-1.60007">
        <ele>272.788</ele>
        <time>2013-05-07T11:17:58Z</time>
      </trkpt>
      <trkpt lat="42.06131" lon="-1.60005">
        <ele>272.729</ele>
        <time>2013-05-07T11:17:57Z</time>
      </trkpt>
      <trkpt lat="42.06132" lon="-1.60003">
        <ele>272.251</ele>
        <time>2013-05-07T11:17:56Z</time>
      </trkpt>
      <trkpt lat="42.06132" lon="-1.6">
        <ele>272.246</ele>
        <time>2013-05-07T11:17:55Z</time>
      </trkpt>
      <trkpt lat="42.06125" lon="-1.59965">
        <ele>269.883</ele>
        <time>2013-05-07T11:17:45Z</time>
      </trkpt>
      <trkpt lat="42.06117" lon="-1.59931">
        <ele>269.87</ele>
        <time>2013-05-07T11:17:35Z</time>
      </trkpt>
      <trkpt lat="42.06117" lon="-1.59928">
        <ele>269.848</ele>
        <time>2013-05-07T11:17:34Z</time>
      </trkpt>
      <trkpt lat="42.06116" lon="-1.59926">
        <ele>269.811</ele>
        <time>2013-05-07T11:17:33Z</time>
      </trkpt>
      <trkpt lat="42.06115" lon="-1.59924">
        <ele>269.837</ele>
        <time>2013-05-07T11:17:32Z</time>
      </trkpt>
      <trkpt lat="42.06116" lon="-1.59921">
        <ele>269.849</ele>
        <time>2013-05-07T11:17:31Z</time>
      </trkpt>
      <trkpt lat="42.06119" lon="-1.5992">
        <ele>269.813</ele>
        <time>2013-05-07T11:17:18Z</time>
      </trkpt>
      <trkpt lat="42.06121" lon="-1.5992">
        <ele>270.308</ele>
        <time>2013-05-07T11:17:06Z</time>
      </trkpt>
      <trkpt lat="42.06122" lon="-1.5992">
        <ele>271.254</ele>
        <time>2013-05-07T11:17:05Z</time>
      </trkpt>
      <trkpt lat="42.06126" lon="-1.59923">
        <ele>271.715</ele>
        <time>2013-05-07T11:17:03Z</time>
      </trkpt>
      <trkpt lat="42.06136" lon="-1.59939">
        <ele>272.787</ele>
        <time>2013-05-07T11:16:58Z</time>
      </trkpt>
      <trkpt lat="42.06169" lon="-1.59974">
        <ele>272.772</ele>
        <time>2013-05-07T11:16:46Z</time>
      </trkpt>
      <trkpt lat="42.06198" lon="-1.60003">
        <ele>272.729</ele>
        <time>2013-05-07T11:16:35Z</time>
      </trkpt>
      <trkpt lat="42.06227" lon="-1.60035">
        <ele>272.786</ele>
        <time>2013-05-07T11:16:23Z</time>
      </trkpt>
      <trkpt lat="42.06252" lon="-1.60062">
        <ele>272.274</ele>
        <time>2013-05-07T11:16:12Z</time>
      </trkpt>
      <trkpt lat="42.06272" lon="-1.60085">
        <ele>272.267</ele>
        <time>2013-05-07T11:16:00Z</time>
      </trkpt>
      <trkpt lat="42.06297" lon="-1.6011">
        <ele>269.394</ele>
        <time>2013-05-07T11:15:47Z</time>
      </trkpt>
      <trkpt lat="42.06302" lon="-1.60114">
        <ele>267.957</ele>
        <time>2013-05-07T11:15:44Z</time>
      </trkpt>
      <trkpt lat="42.06316" lon="-1.60118">
        <ele>267.922</ele>
        <time>2013-05-07T11:15:36Z</time>
      </trkpt>
      <trkpt lat="42.06319" lon="-1.60112">
        <ele>267.908</ele>
        <time>2013-05-07T11:15:33Z</time>
      </trkpt>
      <trkpt lat="42.06318" lon="-1.60104">
        <ele>267.99</ele>
        <time>2013-05-07T11:15:30Z</time>
      </trkpt>
      <trkpt lat="42.06319" lon="-1.60084">
        <ele>267.911</ele>
        <time>2013-05-07T11:15:23Z</time>
      </trkpt>
      <trkpt lat="42.06327" lon="-1.60081">
        <ele>267.913</ele>
        <time>2013-05-07T11:15:15Z</time>
      </trkpt>
      <trkpt lat="42.06326" lon="-1.60102">
        <ele>269.328</ele>
        <time>2013-05-07T11:15:07Z</time>
      </trkpt>
      <trkpt lat="42.06321" lon="-1.60116">
        <ele>269.395</ele>
        <time>2013-05-07T11:15:02Z</time>
      </trkpt>
      <trkpt lat="42.06319" lon="-1.60123">
        <ele>269.352</ele>
        <time>2013-05-07T11:15:00Z</time>
      </trkpt>
      <trkpt lat="42.06313" lon="-1.60145">
        <ele>269.36</ele>
        <time>2013-05-07T11:13:57Z</time>
      </trkpt>
      <trkpt lat="42.06312" lon="-1.60148">
        <ele>269.323</ele>
        <time>2013-05-07T11:13:56Z</time>
      </trkpt>
      <trkpt lat="42.06311" lon="-1.6015">
        <ele>269.332</ele>
        <time>2013-05-07T11:13:55Z</time>
      </trkpt>
      <trkpt lat="42.06298" lon="-1.60159">
        <ele>269.392</ele>
        <time>2013-05-07T11:13:48Z</time>
      </trkpt>
      <trkpt lat="42.06296" lon="-1.60165">
        <ele>269.311</ele>
        <time>2013-05-07T11:13:45Z</time>
      </trkpt>
      <trkpt lat="42.06299" lon="-1.60167">
        <ele>269.308</ele>
        <time>2013-05-07T11:13:43Z</time>
      </trkpt>
      <trkpt lat="42.063" lon="-1.60169">
        <ele>269.354</ele>
        <time>2013-05-07T11:13:42Z</time>
      </trkpt>
      <trkpt lat="42.06293" lon="-1.6019">
        <ele>269.395</ele>
        <time>2013-05-07T11:13:36Z</time>
      </trkpt>
      <trkpt lat="42.06278" lon="-1.60229">
        <ele>269.317</ele>
        <time>2013-05-07T11:13:25Z</time>
      </trkpt>
      <trkpt lat="42.06263" lon="-1.60268">
        <ele>269.342</ele>
        <time>2013-05-07T11:13:14Z</time>
      </trkpt>
      <trkpt lat="42.06247" lon="-1.60305">
        <ele>269.319</ele>
        <time>2013-05-07T11:13:03Z</time>
      </trkpt>
      <trkpt lat="42.06246" lon="-1.60309">
        <ele>269.396</ele>
        <time>2013-05-07T11:13:02Z</time>
      </trkpt>
      <trkpt lat="42.06244" lon="-1.60312">
        <ele>269.394</ele>
        <time>2013-05-07T11:13:01Z</time>
      </trkpt>
      <trkpt lat="42.06243" lon="-1.60316">
        <ele>269.337</ele>
        <time>2013-05-07T11:13:00Z</time>
      </trkpt>
      <trkpt lat="42.06242" lon="-1.60319">
        <ele>269.387</ele>
        <time>2013-05-07T11:12:59Z</time>
      </trkpt>
      <trkpt lat="42.06242" lon="-1.60321">
        <ele>269.342</ele>
        <time>2013-05-07T11:12:58Z</time>
      </trkpt>
      <trkpt lat="42.06247" lon="-1.60337">
        <ele>269.326</ele>
        <time>2013-05-07T11:12:52Z</time>
      </trkpt>
      <trkpt lat="42.06248" lon="-1.6034">
        <ele>269.308</ele>
        <time>2013-05-07T11:12:51Z</time>
      </trkpt>
      <trkpt lat="42.06249" lon="-1.60342">
        <ele>269.389</ele>
        <time>2013-05-07T11:12:50Z</time>
      </trkpt>
      <trkpt lat="42.06254" lon="-1.60346">
        <ele>268.82</ele>
        <time>2013-05-07T11:12:46Z</time>
      </trkpt>
      <trkpt lat="42.06255" lon="-1.60347">
        <ele>268.822</ele>
        <time>2013-05-07T11:12:45Z</time>
      </trkpt>
      <trkpt lat="42.06256" lon="-1.60349">
        <ele>268.897</ele>
        <time>2013-05-07T11:12:44Z</time>
      </trkpt>
      <trkpt lat="42.0626" lon="-1.6035">
        <ele>268.874</ele>
        <time>2013-05-07T11:12:42Z</time>
      </trkpt>
      <trkpt lat="42.06262" lon="-1.60351">
        <ele>268.831</ele>
        <time>2013-05-07T11:12:41Z</time>
      </trkpt>
      <trkpt lat="42.06263" lon="-1.60351">
        <ele>268.889</ele>
        <time>2013-05-07T11:12:40Z</time>
      </trkpt>
      <trkpt lat="42.06264" lon="-1.60351">
        <ele>268.882</ele>
        <time>2013-05-07T11:12:39Z</time>
      </trkpt>
      <trkpt lat="42.06265" lon="-1.60365">
        <ele>268.457</ele>
        <time>2013-05-07T11:12:28Z</time>
      </trkpt>
      <trkpt lat="42.06264" lon="-1.60376">
        <ele>266.9</ele>
        <time>2013-05-07T11:12:24Z</time>
      </trkpt>
      <trkpt lat="42.06264" lon="-1.60378">
        <ele>266.92</ele>
        <time>2013-05-07T11:12:23Z</time>
      </trkpt>
      <trkpt lat="42.06264" lon="-1.60381">
        <ele>266.908</ele>
        <time>2013-05-07T11:12:22Z</time>
      </trkpt>
      <trkpt lat="42.06266" lon="-1.6039">
        <ele>266.916</ele>
        <time>2013-05-07T11:12:19Z</time>
      </trkpt>
      <trkpt lat="42.06275" lon="-1.60393">
        <ele>267.457</ele>
        <time>2013-05-07T11:12:14Z</time>
      </trkpt>
      <trkpt lat="42.06277" lon="-1.60393">
        <ele>267.419</ele>
        <time>2013-05-07T11:12:13Z</time>
      </trkpt>
      <trkpt lat="42.06279" lon="-1.60392">
        <ele>267.474</ele>
        <time>2013-05-07T11:12:12Z</time>
      </trkpt>
      <trkpt lat="42.06281" lon="-1.60392">
        <ele>267.481</ele>
        <time>2013-05-07T11:12:11Z</time>
      </trkpt>
      <trkpt lat="42.06283" lon="-1.60391">
        <ele>267.468</ele>
        <time>2013-05-07T11:12:10Z</time>
      </trkpt>
      <trkpt lat="42.06284" lon="-1.60391">
        <ele>267.446</ele>
        <time>2013-05-07T11:12:09Z</time>
      </trkpt>
      <trkpt lat="42.06287" lon="-1.60411">
        <ele>267.979</ele>
        <time>2013-05-07T11:11:59Z</time>
      </trkpt>
      <trkpt lat="42.06291" lon="-1.60441">
        <ele>268.464</ele>
        <time>2013-05-07T11:11:48Z</time>
      </trkpt>
      <trkpt lat="42.06291" lon="-1.60444">
        <ele>268.406</ele>
        <time>2013-05-07T11:11:47Z</time>
      </trkpt>
      <trkpt lat="42.06291" lon="-1.60446">
        <ele>268.416</ele>
        <time>2013-05-07T11:11:46Z</time>
      </trkpt>
      <trkpt lat="42.06291" lon="-1.60448">
        <ele>268.408</ele>
        <time>2013-05-07T11:11:45Z</time>
      </trkpt>
      <trkpt lat="42.06292" lon="-1.60451">
        <ele>268.427</ele>
        <time>2013-05-07T11:11:44Z</time>
      </trkpt>
      <trkpt lat="42.06291" lon="-1.60454">
        <ele>268.498</ele>
        <time>2013-05-07T11:11:43Z</time>
      </trkpt>
      <trkpt lat="42.06291" lon="-1.60456">
        <ele>268.49</ele>
        <time>2013-05-07T11:11:42Z</time>
      </trkpt>
      <trkpt lat="42.06289" lon="-1.60459">
        <ele>268.855</ele>
        <time>2013-05-07T11:11:40Z</time>
      </trkpt>
      <trkpt lat="42.06288" lon="-1.6046">
        <ele>268.882</ele>
        <time>2013-05-07T11:11:39Z</time>
      </trkpt>
      <trkpt lat="42.06294" lon="-1.6048">
        <ele>269.829</ele>
        <time>2013-05-07T11:11:29Z</time>
      </trkpt>
      <trkpt lat="42.06296" lon="-1.60533">
        <ele>271.737</ele>
        <time>2013-05-07T11:11:17Z</time>
      </trkpt>
      <trkpt lat="42.06295" lon="-1.60537">
        <ele>271.77</ele>
        <time>2013-05-07T11:11:16Z</time>
      </trkpt>
      <trkpt lat="42.06295" lon="-1.60541">
        <ele>271.746</ele>
        <time>2013-05-07T11:11:15Z</time>
      </trkpt>
      <trkpt lat="42.06295" lon="-1.60544">
        <ele>271.788</ele>
        <time>2013-05-07T11:11:14Z</time>
      </trkpt>
      <trkpt lat="42.06295" lon="-1.60548">
        <ele>271.716</ele>
        <time>2013-05-07T11:11:13Z</time>
      </trkpt>
      <trkpt lat="42.06308" lon="-1.60568">
        <ele>273.208</ele>
        <time>2013-05-07T11:11:05Z</time>
      </trkpt>
      <trkpt lat="42.06315" lon="-1.60578">
        <ele>274.685</ele>
        <time>2013-05-07T11:10:59Z</time>
      </trkpt>
      <trkpt lat="42.06317" lon="-1.60579">
        <ele>274.696</ele>
        <time>2013-05-07T11:10:58Z</time>
      </trkpt>
      <trkpt lat="42.06319" lon="-1.6058">
        <ele>274.678</ele>
        <time>2013-05-07T11:10:57Z</time>
      </trkpt>
      <trkpt lat="42.06329" lon="-1.60563">
        <ele>274.643</ele>
        <time>2013-05-07T11:10:46Z</time>
      </trkpt>
      <trkpt lat="42.06329" lon="-1.60561">
        <ele>274.61</ele>
        <time>2013-05-07T11:10:45Z</time>
      </trkpt>
      <trkpt lat="42.0633" lon="-1.60558">
        <ele>274.657</ele>
        <time>2013-05-07T11:10:44Z</time>
      </trkpt>
      <trkpt lat="42.06341" lon="-1.60555">
        <ele>274.685</ele>
        <time>2013-05-07T11:10:31Z</time>
      </trkpt>
      <trkpt lat="42.06342" lon="-1.60555">
        <ele>274.688</ele>
        <time>2013-05-07T11:10:30Z</time>
      </trkpt>
      <trkpt lat="42.06361" lon="-1.60569">
        <ele>274.693</ele>
        <time>2013-05-07T11:09:46Z</time>
      </trkpt>
      <trkpt lat="42.06365" lon="-1.60572">
        <ele>274.165</ele>
        <time>2013-05-07T10:42:18Z</time>
      </trkpt>
      <trkpt lat="42.06372" lon="-1.60574">
        <ele>274.121</ele>
        <time>2013-05-07T10:42:04Z</time>
      </trkpt>
      <trkpt lat="42.0638" lon="-1.60579">
        <ele>273.608</ele>
        <time>2013-05-07T10:22:38Z</time>
      </trkpt>
      <trkpt lat="42.06389" lon="-1.60559">
        <ele>272.76</ele>
        <time>2013-05-07T10:22:29Z</time>
      </trkpt>
      <trkpt lat="42.06395" lon="-1.60548">
        <ele>272.751</ele>
        <time>2013-05-07T10:22:22Z</time>
      </trkpt>
      <trkpt lat="42.06397" lon="-1.60534">
        <ele>272.243</ele>
        <time>2013-05-07T10:21:51Z</time>
      </trkpt>
      <trkpt lat="42.06404" lon="-1.60513">
        <ele>271.768</ele>
        <time>2013-05-07T10:21:41Z</time>
      </trkpt>
      <trkpt lat="42.06397" lon="-1.60498">
        <ele>271.755</ele>
        <time>2013-05-07T10:21:34Z</time>
      </trkpt>
      <trkpt lat="42.06381" lon="-1.60483">
        <ele>270.842</ele>
        <time>2013-05-07T10:21:26Z</time>
      </trkpt>
      <trkpt lat="42.06379" lon="-1.60482">
        <ele>270.85</ele>
        <time>2013-05-07T10:21:25Z</time>
      </trkpt>
      <trkpt lat="42.06377" lon="-1.6048">
        <ele>270.853</ele>
        <time>2013-05-07T10:21:24Z</time>
      </trkpt>
      <trkpt lat="42.06375" lon="-1.60478">
        <ele>270.817</ele>
        <time>2013-05-07T10:21:23Z</time>
      </trkpt>
      <trkpt lat="42.06373" lon="-1.60476">
        <ele>270.887</ele>
        <time>2013-05-07T10:21:22Z</time>
      </trkpt>
      <trkpt lat="42.06371" lon="-1.60474">
        <ele>270.815</ele>
        <time>2013-05-07T10:21:21Z</time>
      </trkpt>
      <trkpt lat="42.06369" lon="-1.60472">
        <ele>270.808</ele>
        <time>2013-05-07T10:21:20Z</time>
      </trkpt>
      <trkpt lat="42.06367" lon="-1.60471">
        <ele>270.852</ele>
        <time>2013-05-07T10:21:19Z</time>
      </trkpt>
      <trkpt lat="42.06366" lon="-1.60467">
        <ele>270.843</ele>
        <time>2013-05-07T10:19:03Z</time>
      </trkpt>
      <trkpt lat="42.06367" lon="-1.60465">
        <ele>270.825</ele>
        <time>2013-05-07T10:19:02Z</time>
      </trkpt>
      <trkpt lat="42.06368" lon="-1.60463">
        <ele>270.89</ele>
        <time>2013-05-07T10:19:01Z</time>
      </trkpt>
      <trkpt lat="42.06371" lon="-1.6046">
        <ele>270.887</ele>
        <time>2013-05-07T10:15:31Z</time>
      </trkpt>
      <trkpt lat="42.06375" lon="-1.6046">
        <ele>270.834</ele>
        <time>2013-05-07T10:15:26Z</time>
      </trkpt>
      <trkpt lat="42.06395" lon="-1.60442">
        <ele>269.352</ele>
        <time>2013-05-07T10:15:13Z</time>
      </trkpt>
      <trkpt lat="42.06414" lon="-1.60425">
        <ele>267.985</ele>
        <time>2013-05-07T10:15:00Z</time>
      </trkpt>
      <trkpt lat="42.06429" lon="-1.60413">
        <ele>266.927</ele>
        <time>2013-05-07T10:14:51Z</time>
      </trkpt>
      <trkpt lat="42.06436" lon="-1.60409">
        <ele>266.968</ele>
        <time>2013-05-07T10:14:47Z</time>
      </trkpt>
      <trkpt lat="42.06442" lon="-1.60406">
        <ele>266.414</ele>
        <time>2013-05-07T10:13:41Z</time>
      </trkpt>
      <trkpt lat="42.06444" lon="-1.60405">
        <ele>266.408</ele>
        <time>2013-05-07T10:13:40Z</time>
      </trkpt>
      <trkpt lat="42.06446" lon="-1.60405">
        <ele>266.443</ele>
        <time>2013-05-07T10:13:39Z</time>
      </trkpt>
      <trkpt lat="42.06448" lon="-1.60404">
        <ele>266.454</ele>
        <time>2013-05-07T10:13:38Z</time>
      </trkpt>
      <trkpt lat="42.06451" lon="-1.60404">
        <ele>266.466</ele>
        <time>2013-05-07T10:13:37Z</time>
      </trkpt>
      <trkpt lat="42.06453" lon="-1.60404">
        <ele>266.431</ele>
        <time>2013-05-07T10:13:36Z</time>
      </trkpt>
      <trkpt lat="42.06455" lon="-1.60404">
        <ele>266.498</ele>
        <time>2013-05-07T10:13:35Z</time>
      </trkpt>
      <trkpt lat="42.06457" lon="-1.60404">
        <ele>266.435</ele>
        <time>2013-05-07T10:13:34Z</time>
      </trkpt>
      <trkpt lat="42.06461" lon="-1.60403">
        <ele>266.423</ele>
        <time>2013-05-07T10:13:31Z</time>
      </trkpt>
      <trkpt lat="42.06463" lon="-1.60403">
        <ele>266.426</ele>
        <time>2013-05-07T10:13:10Z</time>
      </trkpt>
      <trkpt lat="42.06465" lon="-1.60404">
        <ele>266.415</ele>
        <time>2013-05-07T10:12:55Z</time>
      </trkpt>
      <trkpt lat="42.06474" lon="-1.60394">
        <ele>267.465</ele>
        <time>2013-05-07T10:12:47Z</time>
      </trkpt>
      <trkpt lat="42.06499" lon="-1.60376">
        <ele>268.411</ele>
        <time>2013-05-07T10:12:37Z</time>
      </trkpt>
      <trkpt lat="42.06501" lon="-1.60374">
        <ele>268.408</ele>
        <time>2013-05-07T10:12:36Z</time>
      </trkpt>
      <trkpt lat="42.06503" lon="-1.60372">
        <ele>268.442</ele>
        <time>2013-05-07T10:12:35Z</time>
      </trkpt>
      <trkpt lat="42.06511" lon="-1.60373">
        <ele>268.413</ele>
        <time>2013-05-07T10:12:30Z</time>
      </trkpt>
      <trkpt lat="42.06518" lon="-1.60372">
        <ele>268.465</ele>
        <time>2013-05-07T10:12:26Z</time>
      </trkpt>
      <trkpt lat="42.06529" lon="-1.60361">
        <ele>268.48</ele>
        <time>2013-05-07T10:12:18Z</time>
      </trkpt>
      <trkpt lat="42.06531" lon="-1.6036">
        <ele>268.427</ele>
        <time>2013-05-07T10:12:17Z</time>
      </trkpt>
      <trkpt lat="42.06532" lon="-1.60359">
        <ele>268.424</ele>
        <time>2013-05-07T10:12:16Z</time>
      </trkpt>
      <trkpt lat="42.06536" lon="-1.60357">
        <ele>268.492</ele>
        <time>2013-05-07T10:12:05Z</time>
      </trkpt>
      <trkpt lat="42.06537" lon="-1.60356">
        <ele>268.495</ele>
        <time>2013-05-07T10:11:47Z</time>
      </trkpt>
      <trkpt lat="42.06537" lon="-1.60357">
        <ele>268.477</ele>
        <time>2013-05-07T10:11:21Z</time>
      </trkpt>
      <trkpt lat="42.06539" lon="-1.6036">
        <ele>268.461</ele>
        <time>2013-05-07T10:10:51Z</time>
      </trkpt>
      <trkpt lat="42.0654" lon="-1.60357">
        <ele>268.427</ele>
        <time>2013-05-07T10:10:50Z</time>
      </trkpt>
      <trkpt lat="42.06545" lon="-1.60345">
        <ele>269.308</ele>
        <time>2013-05-07T10:09:35Z</time>
      </trkpt>
      <trkpt lat="42.06542" lon="-1.60345">
        <ele>269.318</ele>
        <time>2013-05-07T10:08:57Z</time>
      </trkpt>
      <trkpt lat="42.06545" lon="-1.60344">
        <ele>269.369</ele>
        <time>2013-05-07T10:08:31Z</time>
      </trkpt>
      <trkpt lat="42.06546" lon="-1.60344">
        <ele>269.311</ele>
        <time>2013-05-07T10:08:08Z</time>
      </trkpt>
      <trkpt lat="42.06546" lon="-1.60343">
        <ele>269.326</ele>
        <time>2013-05-07T10:07:43Z</time>
      </trkpt>
      <trkpt lat="42.06546" lon="-1.60345">
        <ele>269.393</ele>
        <time>2013-05-07T10:07:20Z</time>
      </trkpt>
      <trkpt lat="42.06554" lon="-1.60333">
        <ele>269.33</ele>
        <time>2013-05-07T10:07:11Z</time>
      </trkpt>
      <trkpt lat="42.06585" lon="-1.60274">
        <ele>269.388</ele>
        <time>2013-05-07T10:06:55Z</time>
      </trkpt>
      <trkpt lat="42.06616" lon="-1.60204">
        <ele>269.331</ele>
        <time>2013-05-07T10:06:39Z</time>
      </trkpt>
      <trkpt lat="42.06641" lon="-1.60148">
        <ele>269.389</ele>
        <time>2013-05-07T10:06:24Z</time>
      </trkpt>
      <trkpt lat="42.06642" lon="-1.60145">
        <ele>269.306</ele>
        <time>2013-05-07T10:06:23Z</time>
      </trkpt>
      <trkpt lat="42.06644" lon="-1.60142">
        <ele>269.326</ele>
        <time>2013-05-07T10:06:22Z</time>
      </trkpt>
      <trkpt lat="42.06646" lon="-1.60138">
        <ele>269.308</ele>
        <time>2013-05-07T10:06:21Z</time>
      </trkpt>
      <trkpt lat="42.06647" lon="-1.60135">
        <ele>269.379</ele>
        <time>2013-05-07T10:06:20Z</time>
      </trkpt>
      <trkpt lat="42.06648" lon="-1.60132">
        <ele>269.36</ele>
        <time>2013-05-07T10:06:19Z</time>
      </trkpt>
      <trkpt lat="42.06648" lon="-1.6013">
        <ele>269.352</ele>
        <time>2013-05-07T10:06:18Z</time>
      </trkpt>
      <trkpt lat="42.06653" lon="-1.60123">
        <ele>269.367</ele>
        <time>2013-05-07T10:06:11Z</time>
      </trkpt>
      <trkpt lat="42.06655" lon="-1.6012">
        <ele>269.374</ele>
        <time>2013-05-07T10:05:14Z</time>
      </trkpt>
      <trkpt lat="42.06654" lon="-1.60119">
        <ele>268.811</ele>
        <time>2013-05-07T10:03:56Z</time>
      </trkpt>
      <trkpt lat="42.06653" lon="-1.6012">
        <ele>268.419</ele>
        <time>2013-05-07T10:03:46Z</time>
      </trkpt>
      <trkpt lat="42.06669" lon="-1.60083">
        <ele>268.832</ele>
        <time>2013-05-07T10:03:33Z</time>
      </trkpt>
      <trkpt lat="42.06687" lon="-1.6004">
        <ele>267.946</ele>
        <time>2013-05-07T10:03:18Z</time>
      </trkpt>
      <trkpt lat="42.06688" lon="-1.60038">
        <ele>266.988</ele>
        <time>2013-05-07T10:03:17Z</time>
      </trkpt>
      <trkpt lat="42.06689" lon="-1.60036">
        <ele>266.916</ele>
        <time>2013-05-07T10:03:16Z</time>
      </trkpt>
      <trkpt lat="42.0669" lon="-1.60034">
        <ele>266.908</ele>
        <time>2013-05-07T10:03:15Z</time>
      </trkpt>
      <trkpt lat="42.06691" lon="-1.60031">
        <ele>266.935</ele>
        <time>2013-05-07T10:03:14Z</time>
      </trkpt>
      <trkpt lat="42.06691" lon="-1.60029">
        <ele>266.996</ele>
        <time>2013-05-07T10:03:13Z</time>
      </trkpt>
      <trkpt lat="42.06691" lon="-1.60026">
        <ele>266.918</ele>
        <time>2013-05-07T10:03:12Z</time>
      </trkpt>
      <trkpt lat="42.06698" lon="-1.60024">
        <ele>266.923</ele>
        <time>2013-05-07T10:03:06Z</time>
      </trkpt>
      <trkpt lat="42.06704" lon="-1.60028">
        <ele>266.97</ele>
        <time>2013-05-07T10:02:56Z</time>
      </trkpt>
      <trkpt lat="42.06704" lon="-1.60028">
        <ele>266.997</ele>
        <time>2013-05-07T10:02:05Z</time>
      </trkpt>
      <trkpt lat="42.06706" lon="-1.60029">
        <ele>266.955</ele>
        <time>2013-05-07T10:01:36Z</time>
      </trkpt>
      <trkpt lat="42.06719" lon="-1.60039">
        <ele>266.948</ele>
        <time>2013-05-07T10:01:28Z</time>
      </trkpt>
      <trkpt lat="42.06765" lon="-1.60041">
        <ele>266.937</ele>
        <time>2013-05-07T10:01:17Z</time>
      </trkpt>
      <trkpt lat="42.0677" lon="-1.60041">
        <ele>266.949</ele>
        <time>2013-05-07T10:01:16Z</time>
      </trkpt>
      <trkpt lat="42.06774" lon="-1.6004">
        <ele>266.913</ele>
        <time>2013-05-07T10:01:15Z</time>
      </trkpt>
      <trkpt lat="42.06798" lon="-1.6004">
        <ele>266.908</ele>
        <time>2013-05-07T10:01:10Z</time>
      </trkpt>
      <trkpt lat="42.0687" lon="-1.60037">
        <ele>266.964</ele>
        <time>2013-05-07T10:00:57Z</time>
      </trkpt>
      <trkpt lat="42.06906" lon="-1.60025">
        <ele>266.985</ele>
        <time>2013-05-07T10:00:50Z</time>
      </trkpt>
      <trkpt lat="42.06964" lon="-1.59997">
        <ele>266.957</ele>
        <time>2013-05-07T10:00:38Z</time>
      </trkpt>
      <trkpt lat="42.07027" lon="-1.59976">
        <ele>266.952</ele>
        <time>2013-05-07T10:00:25Z</time>
      </trkpt>
      <trkpt lat="42.07049" lon="-1.59966">
        <ele>266.969</ele>
        <time>2013-05-07T10:00:20Z</time>
      </trkpt>
      <trkpt lat="42.07115" lon="-1.5994">
        <ele>266.996</ele>
        <time>2013-05-07T10:00:06Z</time>
      </trkpt>
      <trkpt lat="42.07169" lon="-1.59912">
        <ele>267.474</ele>
        <time>2013-05-07T09:59:55Z</time>
      </trkpt>
      <trkpt lat="42.07232" lon="-1.59894">
        <ele>267.487</ele>
        <time>2013-05-07T09:59:43Z</time>
      </trkpt>
      <trkpt lat="42.07306" lon="-1.59884">
        <ele>267.415</ele>
        <time>2013-05-07T09:59:29Z</time>
      </trkpt>
      <trkpt lat="42.07367" lon="-1.59884">
        <ele>267.465</ele>
        <time>2013-05-07T09:59:17Z</time>
      </trkpt>
      <trkpt lat="42.07372" lon="-1.59883">
        <ele>267.411</ele>
        <time>2013-05-07T09:59:16Z</time>
      </trkpt>
      <trkpt lat="42.07381" lon="-1.59883">
        <ele>267.408</ele>
        <time>2013-05-07T09:59:14Z</time>
      </trkpt>
      <trkpt lat="42.07391" lon="-1.59882">
        <ele>267.432</ele>
        <time>2013-05-07T09:59:12Z</time>
      </trkpt>
      <trkpt lat="42.07395" lon="-1.59882">
        <ele>267.443</ele>
        <time>2013-05-07T09:59:11Z</time>
      </trkpt>
      <trkpt lat="42.07409" lon="-1.59882">
        <ele>267.425</ele>
        <time>2013-05-07T09:59:08Z</time>
      </trkpt>
      <trkpt lat="42.07469" lon="-1.59872">
        <ele>267.44</ele>
        <time>2013-05-07T09:58:57Z</time>
      </trkpt>
      <trkpt lat="42.07561" lon="-1.59847">
        <ele>267.947</ele>
        <time>2013-05-07T09:58:40Z</time>
      </trkpt>
      <trkpt lat="42.07642" lon="-1.59823">
        <ele>267.914</ele>
        <time>2013-05-07T09:58:25Z</time>
      </trkpt>
      <trkpt lat="42.07647" lon="-1.59822">
        <ele>267.982</ele>
        <time>2013-05-07T09:58:24Z</time>
      </trkpt>
      <trkpt lat="42.0768" lon="-1.59817">
        <ele>267.985</ele>
        <time>2013-05-07T09:58:18Z</time>
      </trkpt>
      <trkpt lat="42.07767" lon="-1.59808">
        <ele>267.954</ele>
        <time>2013-05-07T09:58:02Z</time>
      </trkpt>
      <trkpt lat="42.07851" lon="-1.59803">
        <ele>267.956</ele>
        <time>2013-05-07T09:57:47Z</time>
      </trkpt>
      <trkpt lat="42.07879" lon="-1.59795">
        <ele>267.911</ele>
        <time>2013-05-07T09:57:42Z</time>
      </trkpt>
      <trkpt lat="42.07884" lon="-1.59793">
        <ele>267.908</ele>
        <time>2013-05-07T09:57:41Z</time>
      </trkpt>
      <trkpt lat="42.07889" lon="-1.5979">
        <ele>267.926</ele>
        <time>2013-05-07T09:57:40Z</time>
      </trkpt>
      <trkpt lat="42.07894" lon="-1.59787">
        <ele>267.947</ele>
        <time>2013-05-07T09:57:39Z</time>
      </trkpt>
      <trkpt lat="42.07899" lon="-1.59783">
        <ele>267.959</ele>
        <time>2013-05-07T09:57:38Z</time>
      </trkpt>
      <trkpt lat="42.07942" lon="-1.59739">
        <ele>267.954</ele>
        <time>2013-05-07T09:57:28Z</time>
      </trkpt>
      <trkpt lat="42.0795" lon="-1.59729">
        <ele>267.981</ele>
        <time>2013-05-07T09:57:26Z</time>
      </trkpt>
      <trkpt lat="42.07964" lon="-1.59706">
        <ele>267.948</ele>
        <time>2013-05-07T09:57:22Z</time>
      </trkpt>
      <trkpt lat="42.07967" lon="-1.597">
        <ele>267.986</ele>
        <time>2013-05-07T09:57:21Z</time>
      </trkpt>
      <trkpt lat="42.07971" lon="-1.59693">
        <ele>267.969</ele>
        <time>2013-05-07T09:57:20Z</time>
      </trkpt>
      <trkpt lat="42.07975" lon="-1.59688">
        <ele>267.936</ele>
        <time>2013-05-07T09:57:19Z</time>
      </trkpt>
      <trkpt lat="42.07979" lon="-1.59682">
        <ele>267.917</ele>
        <time>2013-05-07T09:57:18Z</time>
      </trkpt>
      <trkpt lat="42.07984" lon="-1.59678">
        <ele>267.918</ele>
        <time>2013-05-07T09:57:17Z</time>
      </trkpt>
      <trkpt lat="42.07999" lon="-1.59667">
        <ele>267.908</ele>
        <time>2013-05-07T09:57:14Z</time>
      </trkpt>
      <trkpt lat="42.08058" lon="-1.59651">
        <ele>267.984</ele>
        <time>2013-05-07T09:57:03Z</time>
      </trkpt>
      <trkpt lat="42.08119" lon="-1.59662">
        <ele>267.935</ele>
        <time>2013-05-07T09:56:51Z</time>
      </trkpt>
      <trkpt lat="42.08184" lon="-1.59698">
        <ele>267.967</ele>
        <time>2013-05-07T09:56:37Z</time>
      </trkpt>
      <trkpt lat="42.0822" lon="-1.59718">
        <ele>267.942</ele>
        <time>2013-05-07T09:56:29Z</time>
      </trkpt>
      <trkpt lat="42.08272" lon="-1.59764">
        <ele>268.899</ele>
        <time>2013-05-07T09:56:17Z</time>
      </trkpt>
      <trkpt lat="42.08301" lon="-1.5982">
        <ele>268.856</ele>
        <time>2013-05-07T09:56:07Z</time>
      </trkpt>
      <trkpt lat="42.08304" lon="-1.59826">
        <ele>268.844</ele>
        <time>2013-05-07T09:56:06Z</time>
      </trkpt>
      <trkpt lat="42.08307" lon="-1.59832">
        <ele>268.867</ele>
        <time>2013-05-07T09:56:05Z</time>
      </trkpt>
      <trkpt lat="42.08311" lon="-1.59836">
        <ele>268.827</ele>
        <time>2013-05-07T09:56:04Z</time>
      </trkpt>
      <trkpt lat="42.08316" lon="-1.5984">
        <ele>268.868</ele>
        <time>2013-05-07T09:56:03Z</time>
      </trkpt>
      <trkpt lat="42.0832" lon="-1.59844">
        <ele>268.814</ele>
        <time>2013-05-07T09:56:02Z</time>
      </trkpt>
      <trkpt lat="42.08325" lon="-1.59846">
        <ele>268.808</ele>
        <time>2013-05-07T09:56:01Z</time>
      </trkpt>
      <trkpt lat="42.0833" lon="-1.59848">
        <ele>268.843</ele>
        <time>2013-05-07T09:56:00Z</time>
      </trkpt>
      <trkpt lat="42.08335" lon="-1.59849">
        <ele>268.844</ele>
        <time>2013-05-07T09:55:59Z</time>
      </trkpt>
      <trkpt lat="42.08341" lon="-1.5985">
        <ele>268.886</ele>
        <time>2013-05-07T09:55:58Z</time>
      </trkpt>
      <trkpt lat="42.0838" lon="-1.59878">
        <ele>268.881</ele>
        <time>2013-05-07T09:55:50Z</time>
      </trkpt>
      <trkpt lat="42.08385" lon="-1.59882">
        <ele>268.868</ele>
        <time>2013-05-07T09:55:49Z</time>
      </trkpt>
      <trkpt lat="42.0839" lon="-1.59886">
        <ele>268.875</ele>
        <time>2013-05-07T09:55:48Z</time>
      </trkpt>
      <trkpt lat="42.08445" lon="-1.59901">
        <ele>268.853</ele>
        <time>2013-05-07T09:55:38Z</time>
      </trkpt>
      <trkpt lat="42.08492" lon="-1.59929">
        <ele>268.816</ele>
        <time>2013-05-07T09:55:29Z</time>
      </trkpt>
      <trkpt lat="42.08561" lon="-1.60007">
        <ele>268.811</ele>
        <time>2013-05-07T09:55:13Z</time>
      </trkpt>
      <trkpt lat="42.08612" lon="-1.60052">
        <ele>268.821</ele>
        <time>2013-05-07T09:55:02Z</time>
      </trkpt>
      <trkpt lat="42.08617" lon="-1.60054">
        <ele>268.803</ele>
        <time>2013-05-07T09:55:01Z</time>
      </trkpt>
      <trkpt lat="42.08642" lon="-1.60063">
        <ele>268.808</ele>
        <time>2013-05-07T09:54:56Z</time>
      </trkpt>
      <trkpt lat="42.08715" lon="-1.60068">
        <ele>268.812</ele>
        <time>2013-05-07T09:54:42Z</time>
      </trkpt>
      <trkpt lat="42.08772" lon="-1.60071">
        <ele>268.893</ele>
        <time>2013-05-07T09:54:31Z</time>
      </trkpt>
      <trkpt lat="42.08826" lon="-1.60089">
        <ele>268.895</ele>
        <time>2013-05-07T09:54:20Z</time>
      </trkpt>
      <trkpt lat="42.0883" lon="-1.60091">
        <ele>268.86</ele>
        <time>2013-05-07T09:54:19Z</time>
      </trkpt>
      <trkpt lat="42.08835" lon="-1.60092">
        <ele>268.817</ele>
        <time>2013-05-07T09:54:18Z</time>
      </trkpt>
      <trkpt lat="42.08839" lon="-1.60092">
        <ele>268.834</ele>
        <time>2013-05-07T09:54:17Z</time>
      </trkpt>
      <trkpt lat="42.08843" lon="-1.60091">
        <ele>268.832</ele>
        <time>2013-05-07T09:54:16Z</time>
      </trkpt>
      <trkpt lat="42.08896" lon="-1.60055">
        <ele>267.915</ele>
        <time>2013-05-07T09:54:04Z</time>
      </trkpt>
      <trkpt lat="42.089" lon="-1.60051">
        <ele>267.959</ele>
        <time>2013-05-07T09:54:03Z</time>
      </trkpt>
      <trkpt lat="42.08904" lon="-1.60047">
        <ele>267.903</ele>
        <time>2013-05-07T09:54:02Z</time>
      </trkpt>
      <trkpt lat="42.08926" lon="-1.60028">
        <ele>266.423</ele>
        <time>2013-05-07T09:53:57Z</time>
      </trkpt>
      <trkpt lat="42.0899" lon="-1.59982">
        <ele>266.408</ele>
        <time>2013-05-07T09:53:43Z</time>
      </trkpt>
      <trkpt lat="42.09017" lon="-1.59962">
        <ele>266.476</ele>
        <time>2013-05-07T09:53:37Z</time>
      </trkpt>
      <trkpt lat="42.09088" lon="-1.59911">
        <ele>266.487</ele>
        <time>2013-05-07T09:53:21Z</time>
      </trkpt>
      <trkpt lat="42.09142" lon="-1.59869">
        <ele>266.429</ele>
        <time>2013-05-07T09:53:08Z</time>
      </trkpt>
      <trkpt lat="42.09146" lon="-1.59865">
        <ele>266.424</ele>
        <time>2013-05-07T09:53:07Z</time>
      </trkpt>
      <trkpt lat="42.09168" lon="-1.59851">
        <ele>266.471</ele>
        <time>2013-05-07T09:53:02Z</time>
      </trkpt>
      <trkpt lat="42.09225" lon="-1.59805">
        <ele>266.468</ele>
        <time>2013-05-07T09:52:48Z</time>
      </trkpt>
      <trkpt lat="42.09233" lon="-1.59797">
        <ele>266.486</ele>
        <time>2013-05-07T09:52:46Z</time>
      </trkpt>
      <trkpt lat="42.09237" lon="-1.59792">
        <ele>266.419</ele>
        <time>2013-05-07T09:52:45Z</time>
      </trkpt>
      <trkpt lat="42.0924" lon="-1.59787">
        <ele>266.497</ele>
        <time>2013-05-07T09:52:44Z</time>
      </trkpt>
      <trkpt lat="42.09243" lon="-1.59782">
        <ele>266.423</ele>
        <time>2013-05-07T09:52:43Z</time>
      </trkpt>
      <trkpt lat="42.09245" lon="-1.59778">
        <ele>266.425</ele>
        <time>2013-05-07T09:52:42Z</time>
      </trkpt>
      <trkpt lat="42.09247" lon="-1.59773">
        <ele>266.408</ele>
        <time>2013-05-07T09:52:41Z</time>
      </trkpt>
      <trkpt lat="42.09248" lon="-1.59767">
        <ele>266.42</ele>
        <time>2013-05-07T09:52:40Z</time>
      </trkpt>
      <trkpt lat="42.09261" lon="-1.59682">
        <ele>266.421</ele>
        <time>2013-05-07T09:52:27Z</time>
      </trkpt>
      <trkpt lat="42.09269" lon="-1.59628">
        <ele>266.483</ele>
        <time>2013-05-07T09:52:19Z</time>
      </trkpt>
      <trkpt lat="42.0928" lon="-1.59543">
        <ele>266.458</ele>
        <time>2013-05-07T09:52:06Z</time>
      </trkpt>
      <trkpt lat="42.09297" lon="-1.59461">
        <ele>266.425</ele>
        <time>2013-05-07T09:51:53Z</time>
      </trkpt>
      <trkpt lat="42.09312" lon="-1.59372">
        <ele>266.462</ele>
        <time>2013-05-07T09:51:39Z</time>
      </trkpt>
      <trkpt lat="42.09335" lon="-1.59277">
        <ele>266.43</ele>
        <time>2013-05-07T09:51:23Z</time>
      </trkpt>
      <trkpt lat="42.09357" lon="-1.59199">
        <ele>266.993</ele>
        <time>2013-05-07T09:51:09Z</time>
      </trkpt>
      <trkpt lat="42.09377" lon="-1.59133">
        <ele>267.465</ele>
        <time>2013-05-07T09:50:57Z</time>
      </trkpt>
      <trkpt lat="42.09391" lon="-1.59084">
        <ele>267.468</ele>
        <time>2013-05-07T09:50:46Z</time>
      </trkpt>
      <trkpt lat="42.094" lon="-1.59048">
        <ele>267.414</ele>
        <time>2013-05-07T09:50:35Z</time>
      </trkpt>
      <trkpt lat="42.09403" lon="-1.59039">
        <ele>267.408</ele>
        <time>2013-05-07T09:50:09Z</time>
      </trkpt>
      <trkpt lat="42.09403" lon="-1.59039">
        <ele>267.487</ele>
        <time>2013-05-07T09:49:07Z</time>
      </trkpt>
      <trkpt lat="42.09406" lon="-1.59027">
        <ele>267.498</ele>
        <time>2013-05-07T09:48:57Z</time>
      </trkpt>
      <trkpt lat="42.09414" lon="-1.59023">
        <ele>269.35</ele>
        <time>2013-05-07T09:48:51Z</time>
      </trkpt>
      <trkpt lat="42.09413" lon="-1.59037">
        <ele>270.365</ele>
        <time>2013-05-07T09:48:47Z</time>
      </trkpt>
      <trkpt lat="42.09413" lon="-1.59039">
        <ele>270.352</ele>
        <time>2013-05-07T09:48:46Z</time>
      </trkpt>
      <trkpt lat="42.09415" lon="-1.59048">
        <ele>269.819</ele>
        <time>2013-05-07T09:48:41Z</time>
      </trkpt>
      <trkpt lat="42.09416" lon="-1.59051">
        <ele>269.817</ele>
        <time>2013-05-07T09:48:40Z</time>
      </trkpt>
      <trkpt lat="42.0942" lon="-1.59057">
        <ele>268.48</ele>
        <time>2013-05-07T09:48:38Z</time>
      </trkpt>
      <trkpt lat="42.09459" lon="-1.59076">
        <ele>268.436</ele>
        <time>2013-05-07T09:48:28Z</time>
      </trkpt>
      <trkpt lat="42.09463" lon="-1.59077">
        <ele>268.417</ele>
        <time>2013-05-07T09:48:27Z</time>
      </trkpt>
      <trkpt lat="42.09468" lon="-1.59078">
        <ele>268.418</ele>
        <time>2013-05-07T09:48:26Z</time>
      </trkpt>
      <trkpt lat="42.09473" lon="-1.59079">
        <ele>268.408</ele>
        <time>2013-05-07T09:48:25Z</time>
      </trkpt>
      <trkpt lat="42.09477" lon="-1.59079">
        <ele>268.484</ele>
        <time>2013-05-07T09:48:24Z</time>
      </trkpt>
      <trkpt lat="42.09482" lon="-1.59078">
        <ele>268.485</ele>
        <time>2013-05-07T09:48:23Z</time>
      </trkpt>
      <trkpt lat="42.09486" lon="-1.59076">
        <ele>268.427</ele>
        <time>2013-05-07T09:48:22Z</time>
      </trkpt>
      <trkpt lat="42.09506" lon="-1.59062">
        <ele>268.422</ele>
        <time>2013-05-07T09:48:17Z</time>
      </trkpt>
      <trkpt lat="42.09526" lon="-1.59049">
        <ele>268.469</ele>
        <time>2013-05-07T09:48:12Z</time>
      </trkpt>
      <trkpt lat="42.09531" lon="-1.59047">
        <ele>268.416</ele>
        <time>2013-05-07T09:48:11Z</time>
      </trkpt>
      <trkpt lat="42.09535" lon="-1.59045">
        <ele>268.464</ele>
        <time>2013-05-07T09:48:10Z</time>
      </trkpt>
      <trkpt lat="42.096" lon="-1.59025">
        <ele>268.897</ele>
        <time>2013-05-07T09:47:57Z</time>
      </trkpt>
      <trkpt lat="42.09657" lon="-1.59007">
        <ele>268.899</ele>
        <time>2013-05-07T09:47:46Z</time>
      </trkpt>
      <trkpt lat="42.09663" lon="-1.59006">
        <ele>268.807</ele>
        <time>2013-05-07T09:47:45Z</time>
      </trkpt>
      <trkpt lat="42.09695" lon="-1.58993">
        <ele>268.827</ele>
        <time>2013-05-07T09:47:39Z</time>
      </trkpt>
      <trkpt lat="42.09699" lon="-1.58989">
        <ele>269.308</ele>
        <time>2013-05-07T09:47:38Z</time>
      </trkpt>
      <trkpt lat="42.09704" lon="-1.58986">
        <ele>269.34</ele>
        <time>2013-05-07T09:47:37Z</time>
      </trkpt>
      <trkpt lat="42.09737" lon="-1.58983">
        <ele>269.371</ele>
        <time>2013-05-07T09:47:31Z</time>
      </trkpt>
      <trkpt lat="42.09802" lon="-1.58982">
        <ele>269.363</ele>
        <time>2013-05-07T09:47:19Z</time>
      </trkpt>
      <trkpt lat="42.09881" lon="-1.5898">
        <ele>269.388</ele>
        <time>2013-05-07T09:47:05Z</time>
      </trkpt>
      <trkpt lat="42.09926" lon="-1.58983">
        <ele>270.865</ele>
        <time>2013-05-07T09:46:57Z</time>
      </trkpt>
      <trkpt lat="42.10025" lon="-1.58994">
        <ele>270.812</ele>
        <time>2013-05-07T09:46:39Z</time>
      </trkpt>
      <trkpt lat="42.10072" lon="-1.58998">
        <ele>270.86</ele>
        <time>2013-05-07T09:46:30Z</time>
      </trkpt>
      <trkpt lat="42.10168" lon="-1.59005">
        <ele>270.833</ele>
        <time>2013-05-07T09:46:12Z</time>
      </trkpt>
      <trkpt lat="42.10234" lon="-1.59026">
        <ele>270.826</ele>
        <time>2013-05-07T09:45:59Z</time>
      </trkpt>
      <trkpt lat="42.10311" lon="-1.59057">
        <ele>270.847</ele>
        <time>2013-05-07T09:45:44Z</time>
      </trkpt>
      <trkpt lat="42.10377" lon="-1.59083">
        <ele>270.811</ele>
        <time>2013-05-07T09:45:31Z</time>
      </trkpt>
      <trkpt lat="42.10452" lon="-1.59114">
        <ele>270.808</ele>
        <time>2013-05-07T09:45:16Z</time>
      </trkpt>
      <trkpt lat="42.1052" lon="-1.59143">
        <ele>270.833</ele>
        <time>2013-05-07T09:45:02Z</time>
      </trkpt>
      <trkpt lat="42.10591" lon="-1.59171">
        <ele>270.834</ele>
        <time>2013-05-07T09:44:47Z</time>
      </trkpt>
      <trkpt lat="42.10662" lon="-1.592">
        <ele>270.846</ele>
        <time>2013-05-07T09:44:31Z</time>
      </trkpt>
      <trkpt lat="42.10723" lon="-1.59227">
        <ele>270.811</ele>
        <time>2013-05-07T09:44:17Z</time>
      </trkpt>
      <trkpt lat="42.10727" lon="-1.59228">
        <ele>270.838</ele>
        <time>2013-05-07T09:44:16Z</time>
      </trkpt>
      <trkpt lat="42.10731" lon="-1.5923">
        <ele>270.815</ele>
        <time>2013-05-07T09:44:15Z</time>
      </trkpt>
      <trkpt lat="42.10736" lon="-1.5923">
        <ele>270.843</ele>
        <time>2013-05-07T09:44:14Z</time>
      </trkpt>
      <trkpt lat="42.1074" lon="-1.5923">
        <ele>270.896</ele>
        <time>2013-05-07T09:44:13Z</time>
      </trkpt>
      <trkpt lat="42.10744" lon="-1.5923">
        <ele>270.833</ele>
        <time>2013-05-07T09:44:12Z</time>
      </trkpt>
      <trkpt lat="42.1081" lon="-1.592">
        <ele>270.823</ele>
        <time>2013-05-07T09:43:58Z</time>
      </trkpt>
      <trkpt lat="42.10885" lon="-1.59162">
        <ele>270.815</ele>
        <time>2013-05-07T09:43:42Z</time>
      </trkpt>
      <trkpt lat="42.1095" lon="-1.5912">
        <ele>270.808</ele>
        <time>2013-05-07T09:43:28Z</time>
      </trkpt>
      <trkpt lat="42.11009" lon="-1.59098">
        <ele>270.844</ele>
        <time>2013-05-07T09:43:16Z</time>
      </trkpt>
      <trkpt lat="42.11059" lon="-1.59095">
        <ele>270.855</ele>
        <time>2013-05-07T09:43:06Z</time>
      </trkpt>
      <trkpt lat="42.11064" lon="-1.59096">
        <ele>270.847</ele>
        <time>2013-05-07T09:43:05Z</time>
      </trkpt>
      <trkpt lat="42.11069" lon="-1.59095">
        <ele>270.842</ele>
        <time>2013-05-07T09:43:04Z</time>
      </trkpt>
      <trkpt lat="42.11074" lon="-1.59094">
        <ele>270.819</ele>
        <time>2013-05-07T09:43:03Z</time>
      </trkpt>
      <trkpt lat="42.11078" lon="-1.59091">
        <ele>270.876</ele>
        <time>2013-05-07T09:43:02Z</time>
      </trkpt>
      <trkpt lat="42.11082" lon="-1.59087">
        <ele>270.864</ele>
        <time>2013-05-07T09:43:01Z</time>
      </trkpt>
      <trkpt lat="42.11085" lon="-1.59083">
        <ele>270.847</ele>
        <time>2013-05-07T09:43:00Z</time>
      </trkpt>
      <trkpt lat="42.11088" lon="-1.59078">
        <ele>270.896</ele>
        <time>2013-05-07T09:42:59Z</time>
      </trkpt>
      <trkpt lat="42.11092" lon="-1.59073">
        <ele>270.831</ele>
        <time>2013-05-07T09:42:58Z</time>
      </trkpt>
      <trkpt lat="42.11095" lon="-1.59068">
        <ele>270.824</ele>
        <time>2013-05-07T09:42:57Z</time>
      </trkpt>
      <trkpt lat="42.11099" lon="-1.59065">
        <ele>270.808</ele>
        <time>2013-05-07T09:42:56Z</time>
      </trkpt>
      <trkpt lat="42.11103" lon="-1.59061">
        <ele>270.81</ele>
        <time>2013-05-07T09:42:55Z</time>
      </trkpt>
      <trkpt lat="42.11107" lon="-1.59058">
        <ele>270.881</ele>
        <time>2013-05-07T09:42:54Z</time>
      </trkpt>
      <trkpt lat="42.11112" lon="-1.59055">
        <ele>270.853</ele>
        <time>2013-05-07T09:42:53Z</time>
      </trkpt>
      <trkpt lat="42.11117" lon="-1.59053">
        <ele>270.818</ele>
        <time>2013-05-07T09:42:52Z</time>
      </trkpt>
      <trkpt lat="42.11121" lon="-1.59052">
        <ele>270.835</ele>
        <time>2013-05-07T09:42:51Z</time>
      </trkpt>
      <trkpt lat="42.11126" lon="-1.59052">
        <ele>270.822</ele>
        <time>2013-05-07T09:42:50Z</time>
      </trkpt>
      <trkpt lat="42.1113" lon="-1.59053">
        <ele>270.86</ele>
        <time>2013-05-07T09:42:49Z</time>
      </trkpt>
      <trkpt lat="42.11134" lon="-1.59055">
        <ele>270.863</ele>
        <time>2013-05-07T09:42:48Z</time>
      </trkpt>
      <trkpt lat="42.11138" lon="-1.59058">
        <ele>270.892</ele>
        <time>2013-05-07T09:42:47Z</time>
      </trkpt>
      <trkpt lat="42.11145" lon="-1.59062">
        <ele>270.873</ele>
        <time>2013-05-07T09:42:45Z</time>
      </trkpt>
      <trkpt lat="42.11149" lon="-1.59062">
        <ele>270.82</ele>
        <time>2013-05-07T09:42:44Z</time>
      </trkpt>
      <trkpt lat="42.11152" lon="-1.59062">
        <ele>270.808</ele>
        <time>2013-05-07T09:42:43Z</time>
      </trkpt>
      <trkpt lat="42.11156" lon="-1.5906">
        <ele>270.81</ele>
        <time>2013-05-07T09:42:42Z</time>
      </trkpt>
      <trkpt lat="42.1116" lon="-1.59056">
        <ele>270.821</ele>
        <time>2013-05-07T09:42:41Z</time>
      </trkpt>
      <trkpt lat="42.11174" lon="-1.59034">
        <ele>270.833</ele>
        <time>2013-05-07T09:42:36Z</time>
      </trkpt>
      <trkpt lat="42.11177" lon="-1.59029">
        <ele>270.868</ele>
        <time>2013-05-07T09:42:35Z</time>
      </trkpt>
      <trkpt lat="42.11186" lon="-1.59015">
        <ele>270.855</ele>
        <time>2013-05-07T09:42:32Z</time>
      </trkpt>
      <trkpt lat="42.11193" lon="-1.58999">
        <ele>270.822</ele>
        <time>2013-05-07T09:42:29Z</time>
      </trkpt>
      <trkpt lat="42.11195" lon="-1.58994">
        <ele>270.88</ele>
        <time>2013-05-07T09:42:28Z</time>
      </trkpt>
      <trkpt lat="42.11229" lon="-1.58947">
        <ele>270.853</ele>
        <time>2013-05-07T09:42:18Z</time>
      </trkpt>
      <trkpt lat="42.11243" lon="-1.58928">
        <ele>270.834</ele>
        <time>2013-05-07T09:42:14Z</time>
      </trkpt>
      <trkpt lat="42.1128" lon="-1.58865">
        <ele>270.855</ele>
        <time>2013-05-07T09:42:02Z</time>
      </trkpt>
      <trkpt lat="42.11284" lon="-1.5886">
        <ele>270.81</ele>
        <time>2013-05-07T09:42:01Z</time>
      </trkpt>
      <trkpt lat="42.11288" lon="-1.58856">
        <ele>270.808</ele>
        <time>2013-05-07T09:42:00Z</time>
      </trkpt>
      <trkpt lat="42.11297" lon="-1.58848">
        <ele>270.884</ele>
        <time>2013-05-07T09:41:58Z</time>
      </trkpt>
      <trkpt lat="42.11314" lon="-1.58833">
        <ele>270.835</ele>
        <time>2013-05-07T09:41:54Z</time>
      </trkpt>
      <trkpt lat="42.11327" lon="-1.5882">
        <ele>270.847</ele>
        <time>2013-05-07T09:41:51Z</time>
      </trkpt>
      <trkpt lat="42.11331" lon="-1.58815">
        <ele>270.852</ele>
        <time>2013-05-07T09:41:50Z</time>
      </trkpt>
      <trkpt lat="42.11335" lon="-1.5881">
        <ele>270.819</ele>
        <time>2013-05-07T09:41:49Z</time>
      </trkpt>
      <trkpt lat="42.11352" lon="-1.5877">
        <ele>270.846</ele>
        <time>2013-05-07T09:41:42Z</time>
      </trkpt>
      <trkpt lat="42.11354" lon="-1.58764">
        <ele>270.824</ele>
        <time>2013-05-07T09:41:41Z</time>
      </trkpt>
      <trkpt lat="42.11359" lon="-1.58701">
        <ele>270.867</ele>
        <time>2013-05-07T09:41:31Z</time>
      </trkpt>
      <trkpt lat="42.11365" lon="-1.5863">
        <ele>270.846</ele>
        <time>2013-05-07T09:41:19Z</time>
      </trkpt>
      <trkpt lat="42.11366" lon="-1.58624">
        <ele>270.888</ele>
        <time>2013-05-07T09:41:18Z</time>
      </trkpt>
      <trkpt lat="42.11367" lon="-1.58618">
        <ele>270.816</ele>
        <time>2013-05-07T09:41:17Z</time>
      </trkpt>
      <trkpt lat="42.11369" lon="-1.58593">
        <ele>270.808</ele>
        <time>2013-05-07T09:41:13Z</time>
      </trkpt>
      <trkpt lat="42.11369" lon="-1.58586">
        <ele>270.875</ele>
        <time>2013-05-07T09:41:12Z</time>
      </trkpt>
      <trkpt lat="42.1138" lon="-1.585">
        <ele>269.336</ele>
        <time>2013-05-07T09:40:58Z</time>
      </trkpt>
      <trkpt lat="42.11385" lon="-1.58391">
        <ele>269.378</ele>
        <time>2013-05-07T09:40:41Z</time>
      </trkpt>
      <trkpt lat="42.11395" lon="-1.583">
        <ele>269.343</ele>
        <time>2013-05-07T09:40:27Z</time>
      </trkpt>
      <trkpt lat="42.11395" lon="-1.58294">
        <ele>269.33</ele>
        <time>2013-05-07T09:40:26Z</time>
      </trkpt>
      <trkpt lat="42.11397" lon="-1.58287">
        <ele>269.337</ele>
        <time>2013-05-07T09:40:25Z</time>
      </trkpt>
      <trkpt lat="42.11403" lon="-1.58198">
        <ele>269.325</ele>
        <time>2013-05-07T09:40:12Z</time>
      </trkpt>
      <trkpt lat="42.11407" lon="-1.58116">
        <ele>269.398</ele>
        <time>2013-05-07T09:39:59Z</time>
      </trkpt>
      <trkpt lat="42.1141" lon="-1.58053">
        <ele>269.363</ele>
        <time>2013-05-07T09:39:47Z</time>
      </trkpt>
      <trkpt lat="42.1141" lon="-1.5803">
        <ele>269.844</ele>
        <time>2013-05-07T09:39:39Z</time>
      </trkpt>
      <trkpt lat="42.1141" lon="-1.57999">
        <ele>269.818</ele>
        <time>2013-05-07T09:39:30Z</time>
      </trkpt>
      <trkpt lat="42.11412" lon="-1.5795">
        <ele>270.808</ele>
        <time>2013-05-07T09:39:20Z</time>
      </trkpt>
      <trkpt lat="42.1141" lon="-1.57902">
        <ele>270.877</ele>
        <time>2013-05-07T09:39:09Z</time>
      </trkpt>
      <trkpt lat="42.1141" lon="-1.57899">
        <ele>270.838</ele>
        <time>2013-05-07T09:39:08Z</time>
      </trkpt>
      <trkpt lat="42.11411" lon="-1.57896">
        <ele>270.87</ele>
        <time>2013-05-07T09:39:07Z</time>
      </trkpt>
      <trkpt lat="42.11412" lon="-1.57893">
        <ele>270.855</ele>
        <time>2013-05-07T09:39:06Z</time>
      </trkpt>
      <trkpt lat="42.11413" lon="-1.5789">
        <ele>270.822</ele>
        <time>2013-05-07T09:39:05Z</time>
      </trkpt>
      <trkpt lat="42.11415" lon="-1.57888">
        <ele>270.869</ele>
        <time>2013-05-07T09:39:04Z</time>
      </trkpt>
      <trkpt lat="42.11426" lon="-1.57891">
        <ele>270.827</ele>
        <time>2013-05-07T09:38:27Z</time>
      </trkpt>
      <trkpt lat="42.11426" lon="-1.57893">
        <ele>270.31</ele>
        <time>2013-05-07T09:37:32Z</time>
      </trkpt>
      <trkpt lat="42.11456" lon="-1.57902">
        <ele>270.373</ele>
        <time>2013-05-07T09:37:20Z</time>
      </trkpt>
      <trkpt lat="42.11459" lon="-1.57903">
        <ele>270.385</ele>
        <time>2013-05-07T09:37:19Z</time>
      </trkpt>
      <trkpt lat="42.11462" lon="-1.57904">
        <ele>270.313</ele>
        <time>2013-05-07T09:37:18Z</time>
      </trkpt>
      <trkpt lat="42.11468" lon="-1.57932">
        <ele>270.308</ele>
        <time>2013-05-07T09:37:10Z</time>
      </trkpt>
      <trkpt lat="42.11463" lon="-1.57997">
        <ele>270.348</ele>
        <time>2013-05-07T09:36:58Z</time>
      </trkpt>
      <trkpt lat="42.11458" lon="-1.58072">
        <ele>270.319</ele>
        <time>2013-05-07T09:36:44Z</time>
      </trkpt>
      <trkpt lat="42.11454" lon="-1.58145">
        <ele>270.341</ele>
        <time>2013-05-07T09:36:30Z</time>
      </trkpt>
      <trkpt lat="42.11448" lon="-1.58209">
        <ele>270.386</ele>
        <time>2013-05-07T09:36:17Z</time>
      </trkpt>
      <trkpt lat="42.11445" lon="-1.5827">
        <ele>270.383</ele>
        <time>2013-05-07T09:36:04Z</time>
      </trkpt>
      <trkpt lat="42.11439" lon="-1.58353">
        <ele>270.31</ele>
        <time>2013-05-07T09:35:47Z</time>
      </trkpt>
      <trkpt lat="42.11433" lon="-1.5841">
        <ele>270.348</ele>
        <time>2013-05-07T09:35:34Z</time>
      </trkpt>
      <trkpt lat="42.11431" lon="-1.5845">
        <ele>270.391</ele>
        <time>2013-05-07T09:35:22Z</time>
      </trkpt>
      <trkpt lat="42.11428" lon="-1.58476">
        <ele>270.333</ele>
        <time>2013-05-07T09:35:08Z</time>
      </trkpt>
      <trkpt lat="42.11428" lon="-1.58476">
        <ele>270.323</ele>
        <time>2013-05-07T09:34:40Z</time>
      </trkpt>
      <trkpt lat="42.11427" lon="-1.58478">
        <ele>270.315</ele>
        <time>2013-05-07T09:34:30Z</time>
      </trkpt>
      <trkpt lat="42.11427" lon="-1.58476">
        <ele>269.808</ele>
        <time>2013-05-07T09:34:08Z</time>
      </trkpt>
      <trkpt lat="42.11425" lon="-1.58476">
        <ele>269.374</ele>
        <time>2013-05-07T09:33:43Z</time>
      </trkpt>
      <trkpt lat="42.11428" lon="-1.58478">
        <ele>269.385</ele>
        <time>2013-05-07T09:33:16Z</time>
      </trkpt>
      <trkpt lat="42.11427" lon="-1.58478">
        <ele>269.337</ele>
        <time>2013-05-07T09:33:08Z</time>
      </trkpt>
      <trkpt lat="42.11425" lon="-1.58479">
        <ele>269.332</ele>
        <time>2013-05-07T09:32:57Z</time>
      </trkpt>
      <trkpt lat="42.1142" lon="-1.58478">
        <ele>268.899</ele>
        <time>2013-05-07T09:32:47Z</time>
      </trkpt>
      <trkpt lat="42.11416" lon="-1.58479">
        <ele>268.856</ele>
        <time>2013-05-07T09:32:37Z</time>
      </trkpt>
      <trkpt lat="42.11409" lon="-1.58487">
        <ele>267.954</ele>
        <time>2013-05-07T09:32:27Z</time>
      </trkpt>
      <trkpt lat="42.11407" lon="-1.58495">
        <ele>267.977</ele>
        <time>2013-05-07T09:32:18Z</time>
      </trkpt>
      <trkpt lat="42.11407" lon="-1.58498">
        <ele>268.498</ele>
        <time>2013-05-07T09:32:16Z</time>
      </trkpt>
      <trkpt lat="42.11413" lon="-1.58502">
        <ele>268.415</ele>
        <time>2013-05-07T09:32:08Z</time>
      </trkpt>
      <trkpt lat="42.11422" lon="-1.58506">
        <ele>268.826</ele>
        <time>2013-05-07T09:31:58Z</time>
      </trkpt>
      <trkpt lat="42.11424" lon="-1.58507">
        <ele>270.308</ele>
        <time>2013-05-07T09:31:55Z</time>
      </trkpt>
      <trkpt lat="42.11426" lon="-1.58506">
        <ele>270.34</ele>
        <time>2013-05-07T09:31:48Z</time>
      </trkpt>
      <trkpt lat="42.11426" lon="-1.58505">
        <ele>270.371</ele>
        <time>2013-05-07T09:31:12Z</time>
      </trkpt>
      <trkpt lat="42.11424" lon="-1.58541">
        <ele>270.313</ele>
        <time>2013-05-07T09:31:02Z</time>
      </trkpt>
      <trkpt lat="42.11423" lon="-1.58546">
        <ele>270.358</ele>
        <time>2013-05-07T09:31:01Z</time>
      </trkpt>
      <trkpt lat="42.11422" lon="-1.58565">
        <ele>270.365</ele>
        <time>2013-05-07T09:30:58Z</time>
      </trkpt>
      <trkpt lat="42.11421" lon="-1.58572">
        <ele>270.352</ele>
        <time>2013-05-07T09:30:57Z</time>
      </trkpt>
      <trkpt lat="42.11421" lon="-1.58579">
        <ele>270.36</ele>
        <time>2013-05-07T09:30:56Z</time>
      </trkpt>
      <trkpt lat="42.11413" lon="-1.58681">
        <ele>270.313</ele>
        <time>2013-05-07T09:30:41Z</time>
      </trkpt>
      <trkpt lat="42.1141" lon="-1.58734">
        <ele>270.337</ele>
        <time>2013-05-07T09:30:33Z</time>
      </trkpt>
      <trkpt lat="42.11402" lon="-1.58836">
        <ele>270.349</ele>
        <time>2013-05-07T09:30:18Z</time>
      </trkpt>
      <trkpt lat="42.11395" lon="-1.58913">
        <ele>270.313</ele>
        <time>2013-05-07T09:30:07Z</time>
      </trkpt>
      <trkpt lat="42.11394" lon="-1.5892">
        <ele>270.308</ele>
        <time>2013-05-07T09:30:06Z</time>
      </trkpt>
      <trkpt lat="42.11394" lon="-1.58928">
        <ele>270.314</ele>
        <time>2013-05-07T09:30:05Z</time>
      </trkpt>
      <trkpt lat="42.11394" lon="-1.58935">
        <ele>270.365</ele>
        <time>2013-05-07T09:30:04Z</time>
      </trkpt>
      <trkpt lat="42.11395" lon="-1.58943">
        <ele>270.397</ele>
        <time>2013-05-07T09:30:03Z</time>
      </trkpt>
      <trkpt lat="42.11397" lon="-1.58949">
        <ele>270.332</ele>
        <time>2013-05-07T09:30:02Z</time>
      </trkpt>
      <trkpt lat="42.11399" lon="-1.58955">
        <ele>270.389</ele>
        <time>2013-05-07T09:30:01Z</time>
      </trkpt>
      <trkpt lat="42.11403" lon="-1.5896">
        <ele>270.336</ele>
        <time>2013-05-07T09:30:00Z</time>
      </trkpt>
      <trkpt lat="42.11407" lon="-1.58964">
        <ele>270.374</ele>
        <time>2013-05-07T09:29:59Z</time>
      </trkpt>
      <trkpt lat="42.11422" lon="-1.58973">
        <ele>270.377</ele>
        <time>2013-05-07T09:29:56Z</time>
      </trkpt>
      <trkpt lat="42.11485" lon="-1.5899">
        <ele>270.399</ele>
        <time>2013-05-07T09:29:44Z</time>
      </trkpt>
      <trkpt lat="42.11577" lon="-1.58987">
        <ele>270.307</ele>
        <time>2013-05-07T09:29:27Z</time>
      </trkpt>
      <trkpt lat="42.11663" lon="-1.58981">
        <ele>270.327</ele>
        <time>2013-05-07T09:29:11Z</time>
      </trkpt>
      <trkpt lat="42.11714" lon="-1.58981">
        <ele>270.308</ele>
        <time>2013-05-07T09:29:02Z</time>
      </trkpt>
      <trkpt lat="42.11799" lon="-1.5898">
        <ele>270.32</ele>
        <time>2013-05-07T09:28:47Z</time>
      </trkpt>
      <trkpt lat="42.11881" lon="-1.5898">
        <ele>270.371</ele>
        <time>2013-05-07T09:28:32Z</time>
      </trkpt>
      <trkpt lat="42.11955" lon="-1.58977">
        <ele>270.313</ele>
        <time>2013-05-07T09:28:18Z</time>
      </trkpt>
      <trkpt lat="42.12032" lon="-1.58974">
        <ele>270.348</ele>
        <time>2013-05-07T09:28:03Z</time>
      </trkpt>
      <trkpt lat="42.12037" lon="-1.58974">
        <ele>270.335</ele>
        <time>2013-05-07T09:28:02Z</time>
      </trkpt>
      <trkpt lat="42.12042" lon="-1.58974">
        <ele>270.332</ele>
        <time>2013-05-07T09:28:01Z</time>
      </trkpt>
      <trkpt lat="42.12047" lon="-1.58974">
        <ele>270.37</ele>
        <time>2013-05-07T09:28:00Z</time>
      </trkpt>
      <trkpt lat="42.12052" lon="-1.58973">
        <ele>270.353</ele>
        <time>2013-05-07T09:27:59Z</time>
      </trkpt>
      <trkpt lat="42.12057" lon="-1.58973">
        <ele>270.376</ele>
        <time>2013-05-07T09:27:58Z</time>
      </trkpt>
      <trkpt lat="42.12071" lon="-1.58972">
        <ele>270.39</ele>
        <time>2013-05-07T09:27:55Z</time>
      </trkpt>
      <trkpt lat="42.12076" lon="-1.58971">
        <ele>270.319</ele>
        <time>2013-05-07T09:27:54Z</time>
      </trkpt>
      <trkpt lat="42.12148" lon="-1.58951">
        <ele>270.308</ele>
        <time>2013-05-07T09:27:40Z</time>
      </trkpt>
      <trkpt lat="42.12239" lon="-1.58926">
        <ele>270.318</ele>
        <time>2013-05-07T09:27:22Z</time>
      </trkpt>
      <trkpt lat="42.12303" lon="-1.58907">
        <ele>270.359</ele>
        <time>2013-05-07T09:27:09Z</time>
      </trkpt>
      <trkpt lat="42.12376" lon="-1.58885">
        <ele>270.321</ele>
        <time>2013-05-07T09:26:54Z</time>
      </trkpt>
      <trkpt lat="42.12438" lon="-1.58867">
        <ele>270.346</ele>
        <time>2013-05-07T09:26:41Z</time>
      </trkpt>
      <trkpt lat="42.12506" lon="-1.58854">
        <ele>270.373</ele>
        <time>2013-05-07T09:26:27Z</time>
      </trkpt>
      <trkpt lat="42.12573" lon="-1.58851">
        <ele>270.37</ele>
        <time>2013-05-07T09:26:13Z</time>
      </trkpt>
      <trkpt lat="42.12634" lon="-1.58853">
        <ele>270.378</ele>
        <time>2013-05-07T09:26:00Z</time>
      </trkpt>
      <trkpt lat="42.12697" lon="-1.58866">
        <ele>270.391</ele>
        <time>2013-05-07T09:25:46Z</time>
      </trkpt>
      <trkpt lat="42.12755" lon="-1.58885">
        <ele>270.331</ele>
        <time>2013-05-07T09:25:33Z</time>
      </trkpt>
      <trkpt lat="42.12807" lon="-1.58922">
        <ele>270.361</ele>
        <time>2013-05-07T09:25:19Z</time>
      </trkpt>
      <trkpt lat="42.12845" lon="-1.58947">
        <ele>270.307</ele>
        <time>2013-05-07T09:25:07Z</time>
      </trkpt>
      <trkpt lat="42.12877" lon="-1.58926">
        <ele>268.408</ele>
        <time>2013-05-07T09:24:57Z</time>
      </trkpt>
      <trkpt lat="42.12882" lon="-1.58917">
        <ele>268.454</ele>
        <time>2013-05-07T09:24:55Z</time>
      </trkpt>
      <trkpt lat="42.12885" lon="-1.58914">
        <ele>268.495</ele>
        <time>2013-05-07T09:24:54Z</time>
      </trkpt>
      <trkpt lat="42.12904" lon="-1.58914">
        <ele>268.437</ele>
        <time>2013-05-07T09:24:49Z</time>
      </trkpt>
      <trkpt lat="42.12908" lon="-1.58916">
        <ele>268.442</ele>
        <time>2013-05-07T09:24:48Z</time>
      </trkpt>
      <trkpt lat="42.12911" lon="-1.58918">
        <ele>268.489</ele>
        <time>2013-05-07T09:24:47Z</time>
      </trkpt>
      <trkpt lat="42.12915" lon="-1.58921">
        <ele>268.446</ele>
        <time>2013-05-07T09:24:46Z</time>
      </trkpt>
      <trkpt lat="42.12917" lon="-1.58926">
        <ele>268.484</ele>
        <time>2013-05-07T09:24:45Z</time>
      </trkpt>
      <trkpt lat="42.12918" lon="-1.58932">
        <ele>268.437</ele>
        <time>2013-05-07T09:24:44Z</time>
      </trkpt>
      <trkpt lat="42.12918" lon="-1.58938">
        <ele>268.433</ele>
        <time>2013-05-07T09:24:43Z</time>
      </trkpt>
      <trkpt lat="42.12916" lon="-1.58944">
        <ele>268.423</ele>
        <time>2013-05-07T09:24:42Z</time>
      </trkpt>
      <trkpt lat="42.12911" lon="-1.58955">
        <ele>268.415</ele>
        <time>2013-05-07T09:24:40Z</time>
      </trkpt>
      <trkpt lat="42.12903" lon="-1.58966">
        <ele>268.408</ele>
        <time>2013-05-07T09:24:38Z</time>
      </trkpt>
      <trkpt lat="42.129" lon="-1.58971">
        <ele>268.864</ele>
        <time>2013-05-07T09:24:37Z</time>
      </trkpt>
      <trkpt lat="42.12896" lon="-1.58977">
        <ele>268.855</ele>
        <time>2013-05-07T09:24:36Z</time>
      </trkpt>
      <trkpt lat="42.12894" lon="-1.58983">
        <ele>269.877</ele>
        <time>2013-05-07T09:24:35Z</time>
      </trkpt>
      <trkpt lat="42.12892" lon="-1.58989">
        <ele>270.372</ele>
        <time>2013-05-07T09:24:34Z</time>
      </trkpt>
      <trkpt lat="42.12891" lon="-1.58994">
        <ele>270.379</ele>
        <time>2013-05-07T09:24:33Z</time>
      </trkpt>
      <trkpt lat="42.1291" lon="-1.5903">
        <ele>270.346</ele>
        <time>2013-05-07T09:24:24Z</time>
      </trkpt>
      <trkpt lat="42.12951" lon="-1.59085">
        <ele>270.394</ele>
        <time>2013-05-07T09:24:12Z</time>
      </trkpt>
      <trkpt lat="42.12995" lon="-1.59152">
        <ele>270.877</ele>
        <time>2013-05-07T09:23:58Z</time>
      </trkpt>
      <trkpt lat="42.13046" lon="-1.59227">
        <ele>270.825</ele>
        <time>2013-05-07T09:23:43Z</time>
      </trkpt>
      <trkpt lat="42.13089" lon="-1.59292">
        <ele>270.826</ele>
        <time>2013-05-07T09:23:30Z</time>
      </trkpt>
      <trkpt lat="42.13096" lon="-1.59301">
        <ele>270.808</ele>
        <time>2013-05-07T09:23:28Z</time>
      </trkpt>
      <trkpt lat="42.13099" lon="-1.59306">
        <ele>270.808</ele>
        <time>2013-05-07T09:23:27Z</time>
      </trkpt>
      <trkpt lat="42.13106" lon="-1.59315">
        <ele>270.863</ele>
        <time>2013-05-07T09:23:25Z</time>
      </trkpt>
      <trkpt lat="42.13109" lon="-1.59319">
        <ele>270.814</ele>
        <time>2013-05-07T09:23:24Z</time>
      </trkpt>
      <trkpt lat="42.1315" lon="-1.59379">
        <ele>272.216</ele>
        <time>2013-05-07T09:23:11Z</time>
      </trkpt>
      <trkpt lat="42.13168" lon="-1.59406">
        <ele>272.281</ele>
        <time>2013-05-07T09:23:05Z</time>
      </trkpt>
      <trkpt lat="42.13205" lon="-1.59462">
        <ele>272.228</ele>
        <time>2013-05-07T09:22:53Z</time>
      </trkpt>
      <trkpt lat="42.13237" lon="-1.59519">
        <ele>272.275</ele>
        <time>2013-05-07T09:22:41Z</time>
      </trkpt>
      <trkpt lat="42.13267" lon="-1.59593">
        <ele>272.223</ele>
        <time>2013-05-07T09:22:27Z</time>
      </trkpt>
      <trkpt lat="42.13269" lon="-1.59598">
        <ele>272.276</ele>
        <time>2013-05-07T09:22:26Z</time>
      </trkpt>
      <trkpt lat="42.13281" lon="-1.59624">
        <ele>272.272</ele>
        <time>2013-05-07T09:22:21Z</time>
      </trkpt>
      <trkpt lat="42.13284" lon="-1.59628">
        <ele>272.213</ele>
        <time>2013-05-07T09:22:20Z</time>
      </trkpt>
      <trkpt lat="42.13311" lon="-1.59672">
        <ele>272.214</ele>
        <time>2013-05-07T09:22:10Z</time>
      </trkpt>
      <trkpt lat="42.13355" lon="-1.5974">
        <ele>272.208</ele>
        <time>2013-05-07T09:21:55Z</time>
      </trkpt>
      <trkpt lat="42.134" lon="-1.59806">
        <ele>272.288</ele>
        <time>2013-05-07T09:21:40Z</time>
      </trkpt>
      <trkpt lat="42.13443" lon="-1.5987">
        <ele>272.249</ele>
        <time>2013-05-07T09:21:26Z</time>
      </trkpt>
      <trkpt lat="42.13494" lon="-1.59946">
        <ele>272.291</ele>
        <time>2013-05-07T09:21:09Z</time>
      </trkpt>
      <trkpt lat="42.13535" lon="-1.60008">
        <ele>272.276</ele>
        <time>2013-05-07T09:20:55Z</time>
      </trkpt>
      <trkpt lat="42.1358" lon="-1.60077">
        <ele>272.263</ele>
        <time>2013-05-07T09:20:39Z</time>
      </trkpt>
      <trkpt lat="42.13618" lon="-1.60133">
        <ele>272.22</ele>
        <time>2013-05-07T09:20:26Z</time>
      </trkpt>
      <trkpt lat="42.13659" lon="-1.60192">
        <ele>272.228</ele>
        <time>2013-05-07T09:20:12Z</time>
      </trkpt>
      <trkpt lat="42.13701" lon="-1.60252">
        <ele>272.231</ele>
        <time>2013-05-07T09:19:57Z</time>
      </trkpt>
      <trkpt lat="42.13738" lon="-1.603">
        <ele>272.218</ele>
        <time>2013-05-07T09:19:45Z</time>
      </trkpt>
      <trkpt lat="42.13787" lon="-1.60348">
        <ele>272.298</ele>
        <time>2013-05-07T09:19:30Z</time>
      </trkpt>
      <trkpt lat="42.1382" lon="-1.6038">
        <ele>272.217</ele>
        <time>2013-05-07T09:19:18Z</time>
      </trkpt>
      <trkpt lat="42.13847" lon="-1.60406">
        <ele>272.208</ele>
        <time>2013-05-07T09:19:07Z</time>
      </trkpt>
      <trkpt lat="42.1387" lon="-1.60428">
        <ele>272.292</ele>
        <time>2013-05-07T09:18:56Z</time>
      </trkpt>
      <trkpt lat="42.13891" lon="-1.60449">
        <ele>272.213</ele>
        <time>2013-05-07T09:18:45Z</time>
      </trkpt>
      <trkpt lat="42.13906" lon="-1.60463">
        <ele>272.215</ele>
        <time>2013-05-07T09:18:34Z</time>
      </trkpt>
      <trkpt lat="42.13913" lon="-1.60473">
        <ele>272.23</ele>
        <time>2013-05-07T09:18:23Z</time>
      </trkpt>
      <trkpt lat="42.13914" lon="-1.60475">
        <ele>272.297</ele>
        <time>2013-05-07T09:18:01Z</time>
      </trkpt>
      <trkpt lat="42.13915" lon="-1.60474">
        <ele>272.224</ele>
        <time>2013-05-07T09:17:44Z</time>
      </trkpt>
      <trkpt lat="42.13914" lon="-1.60472">
        <ele>272.222</ele>
        <time>2013-05-07T09:17:27Z</time>
      </trkpt>
      <trkpt lat="42.13914" lon="-1.60473">
        <ele>271.755</ele>
        <time>2013-05-07T09:16:39Z</time>
      </trkpt>
      <trkpt lat="42.13916" lon="-1.60474">
        <ele>271.733</ele>
        <time>2013-05-07T09:16:12Z</time>
      </trkpt>
      <trkpt lat="42.13914" lon="-1.60474">
        <ele>271.723</ele>
        <time>2013-05-07T09:15:46Z</time>
      </trkpt>
      <trkpt lat="42.13913" lon="-1.60473">
        <ele>271.715</ele>
        <time>2013-05-07T09:15:18Z</time>
      </trkpt>
      <trkpt lat="42.13936" lon="-1.60495">
        <ele>271.708</ele>
        <time>2013-05-07T09:15:09Z</time>
      </trkpt>
      <trkpt lat="42.1394" lon="-1.60499">
        <ele>271.744</ele>
        <time>2013-05-07T09:15:08Z</time>
      </trkpt>
      <trkpt lat="42.13943" lon="-1.60502">
        <ele>271.785</ele>
        <time>2013-05-07T09:15:07Z</time>
      </trkpt>
      <trkpt lat="42.13947" lon="-1.60506">
        <ele>271.797</ele>
        <time>2013-05-07T09:15:06Z</time>
      </trkpt>
      <trkpt lat="42.1395" lon="-1.60509">
        <ele>271.722</ele>
        <time>2013-05-07T09:15:05Z</time>
      </trkpt>
      <trkpt lat="42.13954" lon="-1.60512">
        <ele>271.779</ele>
        <time>2013-05-07T09:15:04Z</time>
      </trkpt>
      <trkpt lat="42.14" lon="-1.60557">
        <ele>271.786</ele>
        <time>2013-05-07T09:14:50Z</time>
      </trkpt>
      <trkpt lat="42.1404" lon="-1.60596">
        <ele>271.754</ele>
        <time>2013-05-07T09:14:38Z</time>
      </trkpt>
      <trkpt lat="42.14082" lon="-1.60639">
        <ele>271.727</ele>
        <time>2013-05-07T09:14:25Z</time>
      </trkpt>
      <trkpt lat="42.14129" lon="-1.60694">
        <ele>271.748</ele>
        <time>2013-05-07T09:14:09Z</time>
      </trkpt>
      <trkpt lat="42.14164" lon="-1.60745">
        <ele>271.761</ele>
        <time>2013-05-07T09:13:56Z</time>
      </trkpt>
      <trkpt lat="42.14192" lon="-1.60799">
        <ele>271.717</ele>
        <time>2013-05-07T09:13:43Z</time>
      </trkpt>
      <trkpt lat="42.1422" lon="-1.6086">
        <ele>272.208</ele>
        <time>2013-05-07T09:13:29Z</time>
      </trkpt>
      <trkpt lat="42.1424" lon="-1.60905">
        <ele>272.225</ele>
        <time>2013-05-07T09:13:18Z</time>
      </trkpt>
      <trkpt lat="42.14256" lon="-1.60952">
        <ele>272.226</ele>
        <time>2013-05-07T09:13:06Z</time>
      </trkpt>
      <trkpt lat="42.1427" lon="-1.60988">
        <ele>272.278</ele>
        <time>2013-05-07T09:12:57Z</time>
      </trkpt>
      <trkpt lat="42.1429" lon="-1.61046">
        <ele>272.273</ele>
        <time>2013-05-07T09:12:45Z</time>
      </trkpt>
      <trkpt lat="42.14314" lon="-1.61108">
        <ele>272.21</ele>
        <time>2013-05-07T09:12:33Z</time>
      </trkpt>
      <trkpt lat="42.14336" lon="-1.61169">
        <ele>272.277</ele>
        <time>2013-05-07T09:12:21Z</time>
      </trkpt>
      <trkpt lat="42.14338" lon="-1.61174">
        <ele>272.285</ele>
        <time>2013-05-07T09:12:20Z</time>
      </trkpt>
      <trkpt lat="42.1434" lon="-1.61179">
        <ele>272.258</ele>
        <time>2013-05-07T09:12:19Z</time>
      </trkpt>
      <trkpt lat="42.14341" lon="-1.61184">
        <ele>272.227</ele>
        <time>2013-05-07T09:12:18Z</time>
      </trkpt>
      <trkpt lat="42.14343" lon="-1.61189">
        <ele>271.768</ele>
        <time>2013-05-07T09:12:17Z</time>
      </trkpt>
      <trkpt lat="42.14345" lon="-1.61194">
        <ele>271.714</ele>
        <time>2013-05-07T09:12:16Z</time>
      </trkpt>
      <trkpt lat="42.14362" lon="-1.6124">
        <ele>272.208</ele>
        <time>2013-05-07T09:12:07Z</time>
      </trkpt>
      <trkpt lat="42.14386" lon="-1.61311">
        <ele>272.283</ele>
        <time>2013-05-07T09:11:54Z</time>
      </trkpt>
      <trkpt lat="42.14388" lon="-1.61316">
        <ele>272.234</ele>
        <time>2013-05-07T09:11:53Z</time>
      </trkpt>
      <trkpt lat="42.14394" lon="-1.61332">
        <ele>272.226</ele>
        <time>2013-05-07T09:11:50Z</time>
      </trkpt>
      <trkpt lat="42.14421" lon="-1.61408">
        <ele>272.211</ele>
        <time>2013-05-07T09:11:35Z</time>
      </trkpt>
      <trkpt lat="42.14445" lon="-1.61473">
        <ele>272.248</ele>
        <time>2013-05-07T09:11:22Z</time>
      </trkpt>
      <trkpt lat="42.14476" lon="-1.61541">
        <ele>272.235</ele>
        <time>2013-05-07T09:11:08Z</time>
      </trkpt>
      <trkpt lat="42.14491" lon="-1.61574">
        <ele>272.243</ele>
        <time>2013-05-07T09:11:01Z</time>
      </trkpt>
      <trkpt lat="42.14524" lon="-1.61638">
        <ele>272.256</ele>
        <time>2013-05-07T09:10:47Z</time>
      </trkpt>
      <trkpt lat="42.14566" lon="-1.61704">
        <ele>272.298</ele>
        <time>2013-05-07T09:10:31Z</time>
      </trkpt>
      <trkpt lat="42.14599" lon="-1.61754">
        <ele>272.215</ele>
        <time>2013-05-07T09:10:19Z</time>
      </trkpt>
      <trkpt lat="42.14634" lon="-1.61806">
        <ele>272.226</ele>
        <time>2013-05-07T09:10:07Z</time>
      </trkpt>
      <trkpt lat="42.14636" lon="-1.6181">
        <ele>272.208</ele>
        <time>2013-05-07T09:10:06Z</time>
      </trkpt>
      <trkpt lat="42.14664" lon="-1.61855">
        <ele>272.21</ele>
        <time>2013-05-07T09:09:55Z</time>
      </trkpt>
      <trkpt lat="42.14693" lon="-1.61899">
        <ele>272.221</ele>
        <time>2013-05-07T09:09:44Z</time>
      </trkpt>
      <trkpt lat="42.14722" lon="-1.6194">
        <ele>272.273</ele>
        <time>2013-05-07T09:09:33Z</time>
      </trkpt>
      <trkpt lat="42.14725" lon="-1.61944">
        <ele>272.298</ele>
        <time>2013-05-07T09:09:32Z</time>
      </trkpt>
      <trkpt lat="42.14753" lon="-1.61986">
        <ele>272.255</ele>
        <time>2013-05-07T09:09:22Z</time>
      </trkpt>
      <trkpt lat="42.14777" lon="-1.62055">
        <ele>272.222</ele>
        <time>2013-05-07T09:09:08Z</time>
      </trkpt>
      <trkpt lat="42.14789" lon="-1.62111">
        <ele>272.29</ele>
        <time>2013-05-07T09:08:57Z</time>
      </trkpt>
      <trkpt lat="42.14803" lon="-1.62181">
        <ele>272.253</ele>
        <time>2013-05-07T09:08:43Z</time>
      </trkpt>
      <trkpt lat="42.14803" lon="-1.62187">
        <ele>272.246</ele>
        <time>2013-05-07T09:08:42Z</time>
      </trkpt>
      <trkpt lat="42.14813" lon="-1.62231">
        <ele>272.288</ele>
        <time>2013-05-07T09:08:33Z</time>
      </trkpt>
      <trkpt lat="42.14824" lon="-1.62263">
        <ele>272.216</ele>
        <time>2013-05-07T09:08:27Z</time>
      </trkpt>
      <trkpt lat="42.14826" lon="-1.62267">
        <ele>272.208</ele>
        <time>2013-05-07T09:08:26Z</time>
      </trkpt>
      <trkpt lat="42.14833" lon="-1.62286">
        <ele>272.245</ele>
        <time>2013-05-07T09:08:22Z</time>
      </trkpt>
      <trkpt lat="42.14864" lon="-1.62348">
        <ele>272.216</ele>
        <time>2013-05-07T09:08:09Z</time>
      </trkpt>
      <trkpt lat="42.1487" lon="-1.62356">
        <ele>272.258</ele>
        <time>2013-05-07T09:08:07Z</time>
      </trkpt>
      <trkpt lat="42.14878" lon="-1.62368">
        <ele>272.243</ele>
        <time>2013-05-07T09:08:04Z</time>
      </trkpt>
      <trkpt lat="42.14899" lon="-1.62397">
        <ele>272.24</ele>
        <time>2013-05-07T09:07:57Z</time>
      </trkpt>
      <trkpt lat="42.14901" lon="-1.62401">
        <ele>272.277</ele>
        <time>2013-05-07T09:07:56Z</time>
      </trkpt>
      <trkpt lat="42.14907" lon="-1.62409">
        <ele>272.215</ele>
        <time>2013-05-07T09:07:54Z</time>
      </trkpt>
      <trkpt lat="42.14945" lon="-1.62451">
        <ele>272.258</ele>
        <time>2013-05-07T09:07:42Z</time>
      </trkpt>
      <trkpt lat="42.14982" lon="-1.62481">
        <ele>272.259</ele>
        <time>2013-05-07T09:07:31Z</time>
      </trkpt>
      <trkpt lat="42.15014" lon="-1.62508">
        <ele>272.203</ele>
        <time>2013-05-07T09:07:21Z</time>
      </trkpt>
      <trkpt lat="42.15017" lon="-1.62512">
        <ele>272.223</ele>
        <time>2013-05-07T09:07:20Z</time>
      </trkpt>
      <trkpt lat="42.15024" lon="-1.62518">
        <ele>272.208</ele>
        <time>2013-05-07T09:07:18Z</time>
      </trkpt>
      <trkpt lat="42.15028" lon="-1.62521">
        <ele>272.226</ele>
        <time>2013-05-07T09:07:17Z</time>
      </trkpt>
      <trkpt lat="42.15031" lon="-1.62524">
        <ele>272.227</ele>
        <time>2013-05-07T09:07:16Z</time>
      </trkpt>
      <trkpt lat="42.15054" lon="-1.62539">
        <ele>273.699</ele>
        <time>2013-05-07T09:07:10Z</time>
      </trkpt>
      <trkpt lat="42.15067" lon="-1.62547">
        <ele>273.624</ele>
        <time>2013-05-07T09:07:06Z</time>
      </trkpt>
      <trkpt lat="42.15071" lon="-1.62549">
        <ele>273.621</ele>
        <time>2013-05-07T09:07:05Z</time>
      </trkpt>
      <trkpt lat="42.15075" lon="-1.62551">
        <ele>273.688</ele>
        <time>2013-05-07T09:07:04Z</time>
      </trkpt>
      <trkpt lat="42.15125" lon="-1.62583">
        <ele>273.636</ele>
        <time>2013-05-07T09:06:52Z</time>
      </trkpt>
      <trkpt lat="42.15181" lon="-1.62617">
        <ele>273.699</ele>
        <time>2013-05-07T09:06:39Z</time>
      </trkpt>
      <trkpt lat="42.15201" lon="-1.62634">
        <ele>273.623</ele>
        <time>2013-05-07T09:06:34Z</time>
      </trkpt>
      <trkpt lat="42.15243" lon="-1.62669">
        <ele>273.683</ele>
        <time>2013-05-07T09:06:23Z</time>
      </trkpt>
      <trkpt lat="42.15251" lon="-1.62675">
        <ele>273.611</ele>
        <time>2013-05-07T09:06:21Z</time>
      </trkpt>
      <trkpt lat="42.15296" lon="-1.62713">
        <ele>273.608</ele>
        <time>2013-05-07T09:06:09Z</time>
      </trkpt>
      <trkpt lat="42.15328" lon="-1.62743">
        <ele>273.663</ele>
        <time>2013-05-07T09:06:00Z</time>
      </trkpt>
      <trkpt lat="42.15363" lon="-1.62779">
        <ele>273.654</ele>
        <time>2013-05-07T09:05:49Z</time>
      </trkpt>
      <trkpt lat="42.15391" lon="-1.62813">
        <ele>273.656</ele>
        <time>2013-05-07T09:05:39Z</time>
      </trkpt>
      <trkpt lat="42.15414" lon="-1.62846">
        <ele>273.651</ele>
        <time>2013-05-07T09:05:30Z</time>
      </trkpt>
      <trkpt lat="42.15438" lon="-1.62889">
        <ele>273.618</ele>
        <time>2013-05-07T09:05:19Z</time>
      </trkpt>
      <trkpt lat="42.15468" lon="-1.62944">
        <ele>273.675</ele>
        <time>2013-05-07T09:05:08Z</time>
      </trkpt>
      <trkpt lat="42.15502" lon="-1.63006">
        <ele>273.613</ele>
        <time>2013-05-07T09:04:56Z</time>
      </trkpt>
      <trkpt lat="42.15507" lon="-1.63018">
        <ele>273.696</ele>
        <time>2013-05-07T09:04:54Z</time>
      </trkpt>
      <trkpt lat="42.15535" lon="-1.63092">
        <ele>273.616</ele>
        <time>2013-05-07T09:04:41Z</time>
      </trkpt>
      <trkpt lat="42.15562" lon="-1.63157">
        <ele>273.676</ele>
        <time>2013-05-07T09:04:29Z</time>
      </trkpt>
      <trkpt lat="42.15567" lon="-1.63173">
        <ele>273.613</ele>
        <time>2013-05-07T09:04:26Z</time>
      </trkpt>
      <trkpt lat="42.15577" lon="-1.63199">
        <ele>273.608</ele>
        <time>2013-05-07T09:04:21Z</time>
      </trkpt>
      <trkpt lat="42.15593" lon="-1.63242">
        <ele>273.692</ele>
        <time>2013-05-07T09:04:13Z</time>
      </trkpt>
      <trkpt lat="42.156" lon="-1.63252">
        <ele>273.633</ele>
        <time>2013-05-07T09:04:11Z</time>
      </trkpt>
      <trkpt lat="42.15614" lon="-1.63277">
        <ele>273.695</ele>
        <time>2013-05-07T09:04:06Z</time>
      </trkpt>
      <trkpt lat="42.15649" lon="-1.63332">
        <ele>273.66</ele>
        <time>2013-05-07T09:03:54Z</time>
      </trkpt>
      <trkpt lat="42.15687" lon="-1.63395">
        <ele>273.627</ele>
        <time>2013-05-07T09:03:40Z</time>
      </trkpt>
      <trkpt lat="42.15699" lon="-1.63416">
        <ele>273.674</ele>
        <time>2013-05-07T09:03:35Z</time>
      </trkpt>
      <trkpt lat="42.1573" lon="-1.63483">
        <ele>273.632</ele>
        <time>2013-05-07T09:03:22Z</time>
      </trkpt>
      <trkpt lat="42.15738" lon="-1.63499">
        <ele>273.625</ele>
        <time>2013-05-07T09:03:19Z</time>
      </trkpt>
      <trkpt lat="42.15762" lon="-1.63566">
        <ele>273.615</ele>
        <time>2013-05-07T09:03:07Z</time>
      </trkpt>
      <trkpt lat="42.15788" lon="-1.63628">
        <ele>273.665</ele>
        <time>2013-05-07T09:02:55Z</time>
      </trkpt>
      <trkpt lat="42.1579" lon="-1.63633">
        <ele>273.611</ele>
        <time>2013-05-07T09:02:54Z</time>
      </trkpt>
      <trkpt lat="42.15821" lon="-1.63703">
        <ele>273.608</ele>
        <time>2013-05-07T09:02:40Z</time>
      </trkpt>
      <trkpt lat="42.15859" lon="-1.63767">
        <ele>273.642</ele>
        <time>2013-05-07T09:02:26Z</time>
      </trkpt>
      <trkpt lat="42.15896" lon="-1.63821">
        <ele>273.673</ele>
        <time>2013-05-07T09:02:12Z</time>
      </trkpt>
      <trkpt lat="42.15922" lon="-1.63849">
        <ele>273.665</ele>
        <time>2013-05-07T09:02:02Z</time>
      </trkpt>
      <trkpt lat="42.15951" lon="-1.63878">
        <ele>273.63</ele>
        <time>2013-05-07T09:01:50Z</time>
      </trkpt>
      <trkpt lat="42.15956" lon="-1.63882">
        <ele>273.687</ele>
        <time>2013-05-07T09:01:46Z</time>
      </trkpt>
      <trkpt lat="42.15957" lon="-1.63883">
        <ele>273.674</ele>
        <time>2013-05-07T09:01:39Z</time>
      </trkpt>
      <trkpt lat="42.1596" lon="-1.63886">
        <ele>273.242</ele>
        <time>2013-05-07T09:01:29Z</time>
      </trkpt>
      <trkpt lat="42.15962" lon="-1.63879">
        <ele>272.295</ele>
        <time>2013-05-07T09:01:18Z</time>
      </trkpt>
      <trkpt lat="42.15973" lon="-1.63884">
        <ele>272.219</ele>
        <time>2013-05-07T09:01:10Z</time>
      </trkpt>
      <trkpt lat="42.16009" lon="-1.63888">
        <ele>272.209</ele>
        <time>2013-05-07T09:00:58Z</time>
      </trkpt>
      <trkpt lat="42.16035" lon="-1.63873">
        <ele>272.219</ele>
        <time>2013-05-07T09:00:48Z</time>
      </trkpt>
      <trkpt lat="42.1607" lon="-1.63858">
        <ele>272.208</ele>
        <time>2013-05-07T09:00:35Z</time>
      </trkpt>
      <trkpt lat="42.1611" lon="-1.63841">
        <ele>272.272</ele>
        <time>2013-05-07T09:00:21Z</time>
      </trkpt>
      <trkpt lat="42.16141" lon="-1.63829">
        <ele>272.253</ele>
        <time>2013-05-07T09:00:09Z</time>
      </trkpt>
      <trkpt lat="42.16161" lon="-1.6382">
        <ele>272.235</ele>
        <time>2013-05-07T08:59:57Z</time>
      </trkpt>
      <trkpt lat="42.1617" lon="-1.63816">
        <ele>272.27</ele>
        <time>2013-05-07T08:59:51Z</time>
      </trkpt>
      <trkpt lat="42.16178" lon="-1.63814">
        <ele>272.237</ele>
        <time>2013-05-07T08:59:45Z</time>
      </trkpt>
      <trkpt lat="42.16181" lon="-1.63812">
        <ele>272.264</ele>
        <time>2013-05-07T08:59:42Z</time>
      </trkpt>
      <trkpt lat="42.16199" lon="-1.63806">
        <ele>272.292</ele>
        <time>2013-05-07T08:59:31Z</time>
      </trkpt>
      <trkpt lat="42.16207" lon="-1.63803">
        <ele>272.245</ele>
        <time>2013-05-07T08:59:26Z</time>
      </trkpt>
      <trkpt lat="42.16208" lon="-1.63802">
        <ele>272.222</ele>
        <time>2013-05-07T08:59:25Z</time>
      </trkpt>
      <trkpt lat="42.16226" lon="-1.63789">
        <ele>272.262</ele>
        <time>2013-05-07T08:59:13Z</time>
      </trkpt>
      <trkpt lat="42.16244" lon="-1.63779">
        <ele>272.208</ele>
        <time>2013-05-07T08:59:02Z</time>
      </trkpt>
      <trkpt lat="42.16263" lon="-1.63771">
        <ele>272.208</ele>
        <time>2013-05-07T08:58:51Z</time>
      </trkpt>
      <trkpt lat="42.16282" lon="-1.63764">
        <ele>272.233</ele>
        <time>2013-05-07T08:58:39Z</time>
      </trkpt>
      <trkpt lat="42.16298" lon="-1.63758">
        <ele>272.294</ele>
        <time>2013-05-07T08:58:28Z</time>
      </trkpt>
      <trkpt lat="42.16302" lon="-1.63755">
        <ele>272.266</ele>
        <time>2013-05-07T08:58:24Z</time>
      </trkpt>
      <trkpt lat="42.16303" lon="-1.63755">
        <ele>272.221</ele>
        <time>2013-05-07T08:58:20Z</time>
      </trkpt>
      <trkpt lat="42.16307" lon="-1.63753">
        <ele>272.218</ele>
        <time>2013-05-07T08:58:09Z</time>
      </trkpt>
      <trkpt lat="42.1631" lon="-1.6375">
        <ele>272.235</ele>
        <time>2013-05-07T08:58:01Z</time>
      </trkpt>
      <trkpt lat="42.1632" lon="-1.63746">
        <ele>272.263</ele>
        <time>2013-05-07T08:57:49Z</time>
      </trkpt>
      <trkpt lat="42.16336" lon="-1.63744">
        <ele>270.876</ele>
        <time>2013-05-07T08:57:34Z</time>
      </trkpt>
      <trkpt lat="42.16338" lon="-1.63743">
        <ele>272.234</ele>
        <time>2013-05-07T08:57:22Z</time>
      </trkpt>
      <trkpt lat="42.16341" lon="-1.63742">
        <ele>272.255</ele>
        <time>2013-05-07T08:57:17Z</time>
      </trkpt>
      <trkpt lat="42.16347" lon="-1.63739">
        <ele>272.21</ele>
        <time>2013-05-07T08:57:05Z</time>
      </trkpt>
      <trkpt lat="42.16345" lon="-1.63739">
        <ele>270.308</ele>
        <time>2013-05-07T08:56:43Z</time>
      </trkpt>
      <trkpt lat="42.16344" lon="-1.63738">
        <ele>270.324</ele>
        <time>2013-05-07T08:55:41Z</time>
      </trkpt>
      <trkpt lat="42.16345" lon="-1.63738">
        <ele>270.395</ele>
        <time>2013-05-07T08:54:46Z</time>
      </trkpt>
      <trkpt lat="42.16346" lon="-1.6374">
        <ele>270.397</ele>
        <time>2013-05-07T08:54:28Z</time>
      </trkpt>
      <trkpt lat="42.16349" lon="-1.6373">
        <ele>270.352</ele>
        <time>2013-05-07T08:54:15Z</time>
      </trkpt>
      <trkpt lat="42.16354" lon="-1.63721">
        <ele>270.389</ele>
        <time>2013-05-07T08:53:59Z</time>
      </trkpt>
      <trkpt lat="42.16356" lon="-1.63713">
        <ele>270.356</ele>
        <time>2013-05-07T08:53:49Z</time>
      </trkpt>
      <trkpt lat="42.16359" lon="-1.63707">
        <ele>270.344</ele>
        <time>2013-05-07T08:53:44Z</time>
      </trkpt>
      <trkpt lat="42.16366" lon="-1.63708">
        <ele>270.397</ele>
        <time>2013-05-07T08:53:37Z</time>
      </trkpt>
      <trkpt lat="42.16369" lon="-1.63715">
        <ele>270.321</ele>
        <time>2013-05-07T08:53:33Z</time>
      </trkpt>
      <trkpt lat="42.16372" lon="-1.63744">
        <ele>270.841</ele>
        <time>2013-05-07T08:53:15Z</time>
      </trkpt>
      <trkpt lat="42.16383" lon="-1.63744">
        <ele>270.805</ele>
        <time>2013-05-07T08:53:05Z</time>
      </trkpt>
      <trkpt lat="42.16398" lon="-1.63746">
        <ele>270.808</ele>
        <time>2013-05-07T08:52:56Z</time>
      </trkpt>
      <trkpt lat="42.16416" lon="-1.63744">
        <ele>270.853</ele>
        <time>2013-05-07T08:52:46Z</time>
      </trkpt>
      <trkpt lat="42.1646" lon="-1.63741">
        <ele>270.894</ele>
        <time>2013-05-07T08:52:34Z</time>
      </trkpt>
      <trkpt lat="42.16468" lon="-1.63741">
        <ele>270.886</ele>
        <time>2013-05-07T08:52:32Z</time>
      </trkpt>
      <trkpt lat="42.16521" lon="-1.63738">
        <ele>270.861</ele>
        <time>2013-05-07T08:52:20Z</time>
      </trkpt>
      <trkpt lat="42.16589" lon="-1.63741">
        <ele>270.818</ele>
        <time>2013-05-07T08:52:04Z</time>
      </trkpt>
      <trkpt lat="42.16631" lon="-1.63735">
        <ele>270.895</ele>
        <time>2013-05-07T08:51:53Z</time>
      </trkpt>
      <trkpt lat="42.1666" lon="-1.63741">
        <ele>270.863</ele>
        <time>2013-05-07T08:51:46Z</time>
      </trkpt>
      <trkpt lat="42.16688" lon="-1.63767">
        <ele>270.826</ele>
        <time>2013-05-07T08:51:37Z</time>
      </trkpt>
      <trkpt lat="42.16719" lon="-1.63822">
        <ele>270.884</ele>
        <time>2013-05-07T08:51:24Z</time>
      </trkpt>
      <trkpt lat="42.16746" lon="-1.6388">
        <ele>270.807</ele>
        <time>2013-05-07T08:51:12Z</time>
      </trkpt>
      <trkpt lat="42.16775" lon="-1.63909">
        <ele>270.817</ele>
        <time>2013-05-07T08:51:02Z</time>
      </trkpt>
      <trkpt lat="42.16813" lon="-1.63923">
        <ele>270.808</ele>
        <time>2013-05-07T08:50:52Z</time>
      </trkpt>
      <trkpt lat="42.16829" lon="-1.63935">
        <ele>270.819</ele>
        <time>2013-05-07T08:50:48Z</time>
      </trkpt>
      <trkpt lat="42.16848" lon="-1.63954">
        <ele>270.89</ele>
        <time>2013-05-07T08:50:43Z</time>
      </trkpt>
      <trkpt lat="42.16852" lon="-1.63957">
        <ele>270.872</ele>
        <time>2013-05-07T08:50:42Z</time>
      </trkpt>
      <trkpt lat="42.16925" lon="-1.63982">
        <ele>270.817</ele>
        <time>2013-05-07T08:50:27Z</time>
      </trkpt>
      <trkpt lat="42.16993" lon="-1.64003">
        <ele>270.824</ele>
        <time>2013-05-07T08:50:13Z</time>
      </trkpt>
      <trkpt lat="42.1701" lon="-1.64014">
        <ele>270.891</ele>
        <time>2013-05-07T08:50:09Z</time>
      </trkpt>
      <trkpt lat="42.17041" lon="-1.64046">
        <ele>270.889</ele>
        <time>2013-05-07T08:50:01Z</time>
      </trkpt>
      <trkpt lat="42.17058" lon="-1.64054">
        <ele>270.852</ele>
        <time>2013-05-07T08:49:57Z</time>
      </trkpt>
      <trkpt lat="42.17085" lon="-1.64055">
        <ele>270.883</ele>
        <time>2013-05-07T08:49:51Z</time>
      </trkpt>
      <trkpt lat="42.17133" lon="-1.64045">
        <ele>270.825</ele>
        <time>2013-05-07T08:49:40Z</time>
      </trkpt>
      <trkpt lat="42.17151" lon="-1.64048">
        <ele>270.817</ele>
        <time>2013-05-07T08:49:36Z</time>
      </trkpt>
      <trkpt lat="42.17188" lon="-1.6406">
        <ele>270.808</ele>
        <time>2013-05-07T08:49:27Z</time>
      </trkpt>
      <trkpt lat="42.17222" lon="-1.6407">
        <ele>270.889</ele>
        <time>2013-05-07T08:49:17Z</time>
      </trkpt>
      <trkpt lat="42.17288" lon="-1.64078">
        <ele>271.71</ele>
        <time>2013-05-07T08:49:02Z</time>
      </trkpt>
      <trkpt lat="42.17366" lon="-1.64094">
        <ele>271.722</ele>
        <time>2013-05-07T08:48:46Z</time>
      </trkpt>
      <trkpt lat="42.17427" lon="-1.64111">
        <ele>271.787</ele>
        <time>2013-05-07T08:48:33Z</time>
      </trkpt>
      <trkpt lat="42.17493" lon="-1.64134">
        <ele>271.714</ele>
        <time>2013-05-07T08:48:19Z</time>
      </trkpt>
      <trkpt lat="42.17564" lon="-1.6416">
        <ele>271.751</ele>
        <time>2013-05-07T08:48:03Z</time>
      </trkpt>
      <trkpt lat="42.17628" lon="-1.64177">
        <ele>271.719</ele>
        <time>2013-05-07T08:47:49Z</time>
      </trkpt>
      <trkpt lat="42.17692" lon="-1.64195">
        <ele>271.772</ele>
        <time>2013-05-07T08:47:35Z</time>
      </trkpt>
      <trkpt lat="42.1776" lon="-1.64214">
        <ele>271.797</ele>
        <time>2013-05-07T08:47:20Z</time>
      </trkpt>
      <trkpt lat="42.17772" lon="-1.6422">
        <ele>271.723</ele>
        <time>2013-05-07T08:47:17Z</time>
      </trkpt>
      <trkpt lat="42.17789" lon="-1.64229">
        <ele>271.725</ele>
        <time>2013-05-07T08:47:13Z</time>
      </trkpt>
      <trkpt lat="42.1785" lon="-1.64255">
        <ele>271.708</ele>
        <time>2013-05-07T08:46:59Z</time>
      </trkpt>
      <trkpt lat="42.17901" lon="-1.64266">
        <ele>272.22</ele>
        <time>2013-05-07T08:46:48Z</time>
      </trkpt>
      <trkpt lat="42.17961" lon="-1.64271">
        <ele>272.211</ele>
        <time>2013-05-07T08:46:35Z</time>
      </trkpt>
      <trkpt lat="42.17975" lon="-1.64273">
        <ele>272.273</ele>
        <time>2013-05-07T08:46:32Z</time>
      </trkpt>
      <trkpt lat="42.17999" lon="-1.64277">
        <ele>272.758</ele>
        <time>2013-05-07T08:46:27Z</time>
      </trkpt>
      <trkpt lat="42.1804" lon="-1.64293">
        <ele>272.755</ele>
        <time>2013-05-07T08:46:18Z</time>
      </trkpt>
      <trkpt lat="42.1806" lon="-1.6431">
        <ele>272.742</ele>
        <time>2013-05-07T08:46:13Z</time>
      </trkpt>
      <trkpt lat="42.18085" lon="-1.64372">
        <ele>272.78</ele>
        <time>2013-05-07T08:46:02Z</time>
      </trkpt>
      <trkpt lat="42.18099" lon="-1.64434">
        <ele>272.753</ele>
        <time>2013-05-07T08:45:51Z</time>
      </trkpt>
      <trkpt lat="42.18102" lon="-1.64455">
        <ele>273.232</ele>
        <time>2013-05-07T08:45:47Z</time>
      </trkpt>
      <trkpt lat="42.18104" lon="-1.64476">
        <ele>273.292</ele>
        <time>2013-05-07T08:45:42Z</time>
      </trkpt>
      <trkpt lat="42.18107" lon="-1.64507">
        <ele>273.211</ele>
        <time>2013-05-07T08:45:33Z</time>
      </trkpt>
      <trkpt lat="42.18097" lon="-1.64567">
        <ele>273.208</ele>
        <time>2013-05-07T08:45:20Z</time>
      </trkpt>
      <trkpt lat="42.18112" lon="-1.6461">
        <ele>273.254</ele>
        <time>2013-05-07T08:45:10Z</time>
      </trkpt>
      <trkpt lat="42.18142" lon="-1.64659">
        <ele>273.215</ele>
        <time>2013-05-07T08:44:56Z</time>
      </trkpt>
      <trkpt lat="42.18147" lon="-1.64666">
        <ele>273.217</ele>
        <time>2013-05-07T08:44:52Z</time>
      </trkpt>
      <trkpt lat="42.18151" lon="-1.64669">
        <ele>273.262</ele>
        <time>2013-05-07T08:44:16Z</time>
      </trkpt>
      <trkpt lat="42.18151" lon="-1.64672">
        <ele>273.629</ele>
        <time>2013-05-07T08:44:03Z</time>
      </trkpt>
      <trkpt lat="42.18151" lon="-1.6467">
        <ele>273.626</ele>
        <time>2013-05-07T08:43:24Z</time>
      </trkpt>
      <trkpt lat="42.18152" lon="-1.64676">
        <ele>273.694</ele>
        <time>2013-05-07T08:43:16Z</time>
      </trkpt>
      <trkpt lat="42.18174" lon="-1.64723">
        <ele>273.687</ele>
        <time>2013-05-07T08:43:04Z</time>
      </trkpt>
      <trkpt lat="42.18202" lon="-1.64782">
        <ele>273.642</ele>
        <time>2013-05-07T08:42:52Z</time>
      </trkpt>
      <trkpt lat="42.18239" lon="-1.64859">
        <ele>273.622</ele>
        <time>2013-05-07T08:42:36Z</time>
      </trkpt>
      <trkpt lat="42.18266" lon="-1.64941">
        <ele>273.614</ele>
        <time>2013-05-07T08:42:21Z</time>
      </trkpt>
      <trkpt lat="42.18273" lon="-1.64976">
        <ele>273.608</ele>
        <time>2013-05-07T08:42:15Z</time>
      </trkpt>
      <trkpt lat="42.18276" lon="-1.64998">
        <ele>273.645</ele>
        <time>2013-05-07T08:42:11Z</time>
      </trkpt>
      <trkpt lat="42.18276" lon="-1.65004">
        <ele>273.656</ele>
        <time>2013-05-07T08:42:10Z</time>
      </trkpt>
      <trkpt lat="42.18285" lon="-1.65098">
        <ele>274.178</ele>
        <time>2013-05-07T08:41:54Z</time>
      </trkpt>
      <trkpt lat="42.18286" lon="-1.65174">
        <ele>274.133</ele>
        <time>2013-05-07T08:41:41Z</time>
      </trkpt>
      <trkpt lat="42.18285" lon="-1.65225">
        <ele>274.15</ele>
        <time>2013-05-07T08:41:32Z</time>
      </trkpt>
      <trkpt lat="42.1828" lon="-1.65271">
        <ele>274.167</ele>
        <time>2013-05-07T08:41:24Z</time>
      </trkpt>
      <trkpt lat="42.18263" lon="-1.65351">
        <ele>274.155</ele>
        <time>2013-05-07T08:41:09Z</time>
      </trkpt>
      <trkpt lat="42.18256" lon="-1.65372">
        <ele>274.178</ele>
        <time>2013-05-07T08:41:05Z</time>
      </trkpt>
      <trkpt lat="42.18246" lon="-1.65409">
        <ele>274.143</ele>
        <time>2013-05-07T08:40:58Z</time>
      </trkpt>
      <trkpt lat="42.18219" lon="-1.65491">
        <ele>274.164</ele>
        <time>2013-05-07T08:40:42Z</time>
      </trkpt>
      <trkpt lat="42.18186" lon="-1.65554">
        <ele>274.11</ele>
        <time>2013-05-07T08:40:28Z</time>
      </trkpt>
      <trkpt lat="42.18181" lon="-1.65563">
        <ele>274.108</ele>
        <time>2013-05-07T08:40:26Z</time>
      </trkpt>
      <trkpt lat="42.18145" lon="-1.6562">
        <ele>274.655</ele>
        <time>2013-05-07T08:40:13Z</time>
      </trkpt>
      <trkpt lat="42.1812" lon="-1.65651">
        <ele>274.636</ele>
        <time>2013-05-07T08:40:05Z</time>
      </trkpt>
      <trkpt lat="42.1811" lon="-1.65662">
        <ele>274.668</ele>
        <time>2013-05-07T08:40:02Z</time>
      </trkpt>
      <trkpt lat="42.1809" lon="-1.65682">
        <ele>274.663</ele>
        <time>2013-05-07T08:39:56Z</time>
      </trkpt>
      <trkpt lat="42.18061" lon="-1.65706">
        <ele>274.61</ele>
        <time>2013-05-07T08:39:48Z</time>
      </trkpt>
      <trkpt lat="42.18005" lon="-1.65727">
        <ele>274.627</ele>
        <time>2013-05-07T08:39:34Z</time>
      </trkpt>
      <trkpt lat="42.17959" lon="-1.6573">
        <ele>274.625</ele>
        <time>2013-05-07T08:39:22Z</time>
      </trkpt>
      <trkpt lat="42.17906" lon="-1.65726">
        <ele>274.118</ele>
        <time>2013-05-07T08:39:09Z</time>
      </trkpt>
      <trkpt lat="42.17844" lon="-1.65728">
        <ele>274.683</ele>
        <time>2013-05-07T08:38:54Z</time>
      </trkpt>
      <trkpt lat="42.1784" lon="-1.6573">
        <ele>274.625</ele>
        <time>2013-05-07T08:38:53Z</time>
      </trkpt>
      <trkpt lat="42.17802" lon="-1.65757">
        <ele>274.617</ele>
        <time>2013-05-07T08:38:42Z</time>
      </trkpt>
      <trkpt lat="42.17755" lon="-1.65804">
        <ele>274.608</ele>
        <time>2013-05-07T08:38:28Z</time>
      </trkpt>
      <trkpt lat="42.17727" lon="-1.65832">
        <ele>274.689</ele>
        <time>2013-05-07T08:38:20Z</time>
      </trkpt>
      <trkpt lat="42.17716" lon="-1.65842">
        <ele>274.62</ele>
        <time>2013-05-07T08:38:17Z</time>
      </trkpt>
      <trkpt lat="42.17661" lon="-1.65899">
        <ele>274.662</ele>
        <time>2013-05-07T08:38:01Z</time>
      </trkpt>
      <trkpt lat="42.17614" lon="-1.65947">
        <ele>275.127</ele>
        <time>2013-05-07T08:37:47Z</time>
      </trkpt>
      <trkpt lat="42.17563" lon="-1.6599">
        <ele>275.694</ele>
        <time>2013-05-07T08:37:33Z</time>
      </trkpt>
      <trkpt lat="42.17535" lon="-1.66016">
        <ele>275.621</ele>
        <time>2013-05-07T08:37:24Z</time>
      </trkpt>
      <trkpt lat="42.17508" lon="-1.66078">
        <ele>275.699</ele>
        <time>2013-05-07T08:37:11Z</time>
      </trkpt>
      <trkpt lat="42.17487" lon="-1.66145">
        <ele>277.032</ele>
        <time>2013-05-07T08:36:58Z</time>
      </trkpt>
      <trkpt lat="42.17471" lon="-1.6622">
        <ele>277.016</ele>
        <time>2013-05-07T08:36:44Z</time>
      </trkpt>
      <trkpt lat="42.17462" lon="-1.66304">
        <ele>277.076</ele>
        <time>2013-05-07T08:36:29Z</time>
      </trkpt>
      <trkpt lat="42.17456" lon="-1.6638">
        <ele>277.013</ele>
        <time>2013-05-07T08:36:15Z</time>
      </trkpt>
      <trkpt lat="42.17451" lon="-1.66448">
        <ele>277.008</ele>
        <time>2013-05-07T08:36:02Z</time>
      </trkpt>
      <trkpt lat="42.17449" lon="-1.66529">
        <ele>277.082</ele>
        <time>2013-05-07T08:35:48Z</time>
      </trkpt>
      <trkpt lat="42.17441" lon="-1.66612">
        <ele>277.053</ele>
        <time>2013-05-07T08:35:33Z</time>
      </trkpt>
      <trkpt lat="42.17441" lon="-1.66645">
        <ele>277.065</ele>
        <time>2013-05-07T08:35:27Z</time>
      </trkpt>
      <trkpt lat="42.17441" lon="-1.66656">
        <ele>277.09</ele>
        <time>2013-05-07T08:35:25Z</time>
      </trkpt>
      <trkpt lat="42.17441" lon="-1.66678">
        <ele>277.057</ele>
        <time>2013-05-07T08:35:21Z</time>
      </trkpt>
      <trkpt lat="42.17441" lon="-1.66699">
        <ele>277.064</ele>
        <time>2013-05-07T08:35:17Z</time>
      </trkpt>
      <trkpt lat="42.17437" lon="-1.66769">
        <ele>277.092</ele>
        <time>2013-05-07T08:35:04Z</time>
      </trkpt>
      <trkpt lat="42.17431" lon="-1.66837">
        <ele>277.015</ele>
        <time>2013-05-07T08:34:50Z</time>
      </trkpt>
      <trkpt lat="42.17433" lon="-1.66896">
        <ele>277.086</ele>
        <time>2013-05-07T08:34:37Z</time>
      </trkpt>
      <trkpt lat="42.17443" lon="-1.66947">
        <ele>277.06</ele>
        <time>2013-05-07T08:34:25Z</time>
      </trkpt>
      <trkpt lat="42.17443" lon="-1.66999">
        <ele>277.026</ele>
        <time>2013-05-07T08:34:14Z</time>
      </trkpt>
      <trkpt lat="42.17442" lon="-1.67041">
        <ele>277.008</ele>
        <time>2013-05-07T08:34:02Z</time>
      </trkpt>
      <trkpt lat="42.17447" lon="-1.67069">
        <ele>276.529</ele>
        <time>2013-05-07T08:33:50Z</time>
      </trkpt>
      <trkpt lat="42.17444" lon="-1.67076">
        <ele>276.05</ele>
        <time>2013-05-07T08:33:45Z</time>
      </trkpt>
      <trkpt lat="42.1744" lon="-1.67081">
        <ele>275.152</ele>
        <time>2013-05-07T08:33:41Z</time>
      </trkpt>
      <trkpt lat="42.17429" lon="-1.67103">
        <ele>273.217</ele>
        <time>2013-05-07T08:33:30Z</time>
      </trkpt>
      <trkpt lat="42.1743" lon="-1.67109">
        <ele>273.294</ele>
        <time>2013-05-07T08:33:27Z</time>
      </trkpt>
      <trkpt lat="42.1743" lon="-1.6711">
        <ele>273.231</ele>
        <time>2013-05-07T08:33:24Z</time>
      </trkpt>
      <trkpt lat="42.17432" lon="-1.67112">
        <ele>274.689</ele>
        <time>2013-05-07T08:32:46Z</time>
      </trkpt>
      <trkpt lat="42.17431" lon="-1.67111">
        <ele>274.682</ele>
        <time>2013-05-07T08:32:29Z</time>
      </trkpt>
      <trkpt lat="42.17436" lon="-1.67121">
        <ele>274.648</ele>
        <time>2013-05-07T08:32:14Z</time>
      </trkpt>
      <trkpt lat="42.17444" lon="-1.67127">
        <ele>274.661</ele>
        <time>2013-05-07T08:32:02Z</time>
      </trkpt>
      <trkpt lat="42.17453" lon="-1.6714">
        <ele>274.617</ele>
        <time>2013-05-07T08:31:48Z</time>
      </trkpt>
      <trkpt lat="42.17456" lon="-1.67143">
        <ele>274.608</ele>
        <time>2013-05-07T08:31:36Z</time>
      </trkpt>
      <trkpt lat="42.17456" lon="-1.67141">
        <ele>274.665</ele>
        <time>2013-05-07T08:31:19Z</time>
      </trkpt>
      <trkpt lat="42.17463" lon="-1.67151">
        <ele>274.666</ele>
        <time>2013-05-07T08:31:05Z</time>
      </trkpt>
      <trkpt lat="42.17468" lon="-1.6716">
        <ele>274.618</ele>
        <time>2013-05-07T08:30:52Z</time>
      </trkpt>
      <trkpt lat="42.17469" lon="-1.67169">
        <ele>274.663</ele>
        <time>2013-05-07T08:30:40Z</time>
      </trkpt>
      <trkpt lat="42.17471" lon="-1.67174">
        <ele>273.23</ele>
        <time>2013-05-07T08:30:21Z</time>
      </trkpt>
      <trkpt lat="42.17472" lon="-1.67175">
        <ele>273.677</ele>
        <time>2013-05-07T08:30:07Z</time>
      </trkpt>
      <trkpt lat="42.1748" lon="-1.67179">
        <ele>274.645</ele>
        <time>2013-05-07T08:29:54Z</time>
      </trkpt>
      <trkpt lat="42.17484" lon="-1.67181">
        <ele>276.048</ele>
        <time>2013-05-07T08:29:46Z</time>
      </trkpt>
      <trkpt lat="42.17486" lon="-1.67183">
        <ele>276.056</ele>
        <time>2013-05-07T08:29:39Z</time>
      </trkpt>
      <trkpt lat="42.17497" lon="-1.67206">
        <ele>276.059</ele>
        <time>2013-05-07T08:29:28Z</time>
      </trkpt>
      <trkpt lat="42.17512" lon="-1.67228">
        <ele>276.014</ele>
        <time>2013-05-07T08:29:17Z</time>
      </trkpt>
      <trkpt lat="42.17516" lon="-1.67229">
        <ele>276.008</ele>
        <time>2013-05-07T08:29:04Z</time>
      </trkpt>
      <trkpt lat="42.17516" lon="-1.67232">
        <ele>275.636</ele>
        <time>2013-05-07T08:28:40Z</time>
      </trkpt>
      <trkpt lat="42.17516" lon="-1.67233">
        <ele>275.627</ele>
        <time>2013-05-07T08:28:06Z</time>
      </trkpt>
      <trkpt lat="42.17514" lon="-1.67233">
        <ele>275.189</ele>
        <time>2013-05-07T08:27:55Z</time>
      </trkpt>
      <trkpt lat="42.17516" lon="-1.67234">
        <ele>275.154</ele>
        <time>2013-05-07T08:27:46Z</time>
      </trkpt>
      <trkpt lat="42.17522" lon="-1.67241">
        <ele>275.111</ele>
        <time>2013-05-07T08:27:33Z</time>
      </trkpt>
      <trkpt lat="42.17524" lon="-1.67244">
        <ele>275.168</ele>
        <time>2013-05-07T08:27:12Z</time>
      </trkpt>
      <trkpt lat="42.17529" lon="-1.67248">
        <ele>275.186</ele>
        <time>2013-05-07T08:27:01Z</time>
      </trkpt>
      <trkpt lat="42.17529" lon="-1.67252">
        <ele>274.159</ele>
        <time>2013-05-07T08:26:51Z</time>
      </trkpt>
      <trkpt lat="42.17527" lon="-1.67256">
        <ele>274.192</ele>
        <time>2013-05-07T08:26:40Z</time>
      </trkpt>
      <trkpt lat="42.17528" lon="-1.67259">
        <ele>272.773</ele>
        <time>2013-05-07T08:26:35Z</time>
      </trkpt>
      <trkpt lat="42.17529" lon="-1.6726">
        <ele>272.72</ele>
        <time>2013-05-07T08:26:27Z</time>
      </trkpt>
      <trkpt lat="42.1754" lon="-1.67274">
        <ele>272.708</ele>
        <time>2013-05-07T08:26:16Z</time>
      </trkpt>
      <trkpt lat="42.17555" lon="-1.67281">
        <ele>272.71</ele>
        <time>2013-05-07T08:26:05Z</time>
      </trkpt>
      <trkpt lat="42.17557" lon="-1.67283">
        <ele>272.761</ele>
        <time>2013-05-07T08:25:59Z</time>
      </trkpt>
      <trkpt lat="42.1756" lon="-1.67285">
        <ele>272.753</ele>
        <time>2013-05-07T08:25:55Z</time>
      </trkpt>
      <trkpt lat="42.17563" lon="-1.67286">
        <ele>272.788</ele>
        <time>2013-05-07T08:25:43Z</time>
      </trkpt>
      <trkpt lat="42.17583" lon="-1.67288">
        <ele>272.735</ele>
        <time>2013-05-07T08:25:30Z</time>
      </trkpt>
      <trkpt lat="42.17594" lon="-1.6729">
        <ele>272.732</ele>
        <time>2013-05-07T08:25:22Z</time>
      </trkpt>
      <trkpt lat="42.17604" lon="-1.67292">
        <ele>273.24</ele>
        <time>2013-05-07T08:25:09Z</time>
      </trkpt>
      <trkpt lat="42.17606" lon="-1.67293">
        <ele>273.293</ele>
        <time>2013-05-07T08:25:07Z</time>
      </trkpt>
      <trkpt lat="42.17616" lon="-1.67294">
        <ele>273.233</ele>
        <time>2013-05-07T08:24:54Z</time>
      </trkpt>
      <trkpt lat="42.17619" lon="-1.67294">
        <ele>273.623</ele>
        <time>2013-05-07T08:24:52Z</time>
      </trkpt>
      <trkpt lat="42.17627" lon="-1.67291">
        <ele>275.615</ele>
        <time>2013-05-07T08:24:42Z</time>
      </trkpt>
      <trkpt lat="42.17631" lon="-1.67291">
        <ele>275.608</ele>
        <time>2013-05-07T08:24:13Z</time>
      </trkpt>
      <trkpt lat="42.17643" lon="-1.67296">
        <ele>275.674</ele>
        <time>2013-05-07T08:24:02Z</time>
      </trkpt>
      <trkpt lat="42.17667" lon="-1.67306">
        <ele>275.675</ele>
        <time>2013-05-07T08:23:53Z</time>
      </trkpt>
      <trkpt lat="42.1769" lon="-1.67318">
        <ele>275.627</ele>
        <time>2013-05-07T08:23:45Z</time>
      </trkpt>
      <trkpt lat="42.17744" lon="-1.67343">
        <ele>275.662</ele>
        <time>2013-05-07T08:23:30Z</time>
      </trkpt>
      <trkpt lat="42.17807" lon="-1.67371">
        <ele>275.629</ele>
        <time>2013-05-07T08:23:13Z</time>
      </trkpt>
      <trkpt lat="42.17815" lon="-1.67373">
        <ele>275.676</ele>
        <time>2013-05-07T08:23:11Z</time>
      </trkpt>
      <trkpt lat="42.17822" lon="-1.67377">
        <ele>275.624</ele>
        <time>2013-05-07T08:23:09Z</time>
      </trkpt>
      <trkpt lat="42.17838" lon="-1.67385">
        <ele>275.637</ele>
        <time>2013-05-07T08:23:05Z</time>
      </trkpt>
      <trkpt lat="42.17871" lon="-1.674">
        <ele>275.627</ele>
        <time>2013-05-07T08:22:56Z</time>
      </trkpt>
      <trkpt lat="42.17922" lon="-1.67432">
        <ele>275.668</ele>
        <time>2013-05-07T08:22:41Z</time>
      </trkpt>
      <trkpt lat="42.17964" lon="-1.6747">
        <ele>275.614</ele>
        <time>2013-05-07T08:22:27Z</time>
      </trkpt>
      <trkpt lat="42.17995" lon="-1.67509">
        <ele>275.608</ele>
        <time>2013-05-07T08:22:15Z</time>
      </trkpt>
      <trkpt lat="42.18025" lon="-1.6756">
        <ele>275.643</ele>
        <time>2013-05-07T08:22:01Z</time>
      </trkpt>
      <trkpt lat="42.18044" lon="-1.6761">
        <ele>275.614</ele>
        <time>2013-05-07T08:21:49Z</time>
      </trkpt>
      <trkpt lat="42.18071" lon="-1.67694">
        <ele>275.676</ele>
        <time>2013-05-07T08:21:32Z</time>
      </trkpt>
      <trkpt lat="42.18093" lon="-1.67772">
        <ele>275.631</ele>
        <time>2013-05-07T08:21:16Z</time>
      </trkpt>
      <trkpt lat="42.18105" lon="-1.6784">
        <ele>275.668</ele>
        <time>2013-05-07T08:21:03Z</time>
      </trkpt>
      <trkpt lat="42.1811" lon="-1.67909">
        <ele>275.685</ele>
        <time>2013-05-07T08:20:48Z</time>
      </trkpt>
      <trkpt lat="42.18112" lon="-1.67972">
        <ele>275.633</ele>
        <time>2013-05-07T08:20:31Z</time>
      </trkpt>
      <trkpt lat="42.18117" lon="-1.68009">
        <ele>275.626</ele>
        <time>2013-05-07T08:20:18Z</time>
      </trkpt>
      <trkpt lat="42.18117" lon="-1.6801">
        <ele>275.698</ele>
        <time>2013-05-07T08:19:53Z</time>
      </trkpt>
      <trkpt lat="42.18116" lon="-1.68011">
        <ele>275.615</ele>
        <time>2013-05-07T08:19:34Z</time>
      </trkpt>
      <trkpt lat="42.18116" lon="-1.6801">
        <ele>275.626</ele>
        <time>2013-05-07T08:18:59Z</time>
      </trkpt>
      <trkpt lat="42.18116" lon="-1.68008">
        <ele>274.108</ele>
        <time>2013-05-07T08:18:27Z</time>
      </trkpt>
      <trkpt lat="42.18116" lon="-1.68012">
        <ele>274.14</ele>
        <time>2013-05-07T08:18:15Z</time>
      </trkpt>
      <trkpt lat="42.18119" lon="-1.68016">
        <ele>274.161</ele>
        <time>2013-05-07T08:18:04Z</time>
      </trkpt>
      <trkpt lat="42.18121" lon="-1.68028">
        <ele>274.173</ele>
        <time>2013-05-07T08:17:52Z</time>
      </trkpt>
      <trkpt lat="42.18118" lon="-1.68035">
        <ele>275.648</ele>
        <time>2013-05-07T08:17:45Z</time>
      </trkpt>
      <trkpt lat="42.18117" lon="-1.68039">
        <ele>275.695</ele>
        <time>2013-05-07T08:17:40Z</time>
      </trkpt>
      <trkpt lat="42.18116" lon="-1.68065">
        <ele>275.652</ele>
        <time>2013-05-07T08:17:29Z</time>
      </trkpt>
      <trkpt lat="42.18118" lon="-1.68088">
        <ele>275.66</ele>
        <time>2013-05-07T08:17:20Z</time>
      </trkpt>
      <trkpt lat="42.18119" lon="-1.68091">
        <ele>275.613</ele>
        <time>2013-05-07T08:16:39Z</time>
      </trkpt>
      <trkpt lat="42.18119" lon="-1.68089">
        <ele>275.637</ele>
        <time>2013-05-07T08:15:33Z</time>
      </trkpt>
      <trkpt lat="42.1812" lon="-1.68091">
        <ele>275.649</ele>
        <time>2013-05-07T08:15:01Z</time>
      </trkpt>
      <trkpt lat="42.18118" lon="-1.68089">
        <ele>275.613</ele>
        <time>2013-05-07T08:14:37Z</time>
      </trkpt>
      <trkpt lat="42.18119" lon="-1.68096">
        <ele>275.608</ele>
        <time>2013-05-07T08:14:30Z</time>
      </trkpt>
      <trkpt lat="42.18121" lon="-1.68162">
        <ele>275.694</ele>
        <time>2013-05-07T08:14:17Z</time>
      </trkpt>
      <trkpt lat="42.18123" lon="-1.68247">
        <ele>275.635</ele>
        <time>2013-05-07T08:14:02Z</time>
      </trkpt>
      <trkpt lat="42.18127" lon="-1.68331">
        <ele>275.617</ele>
        <time>2013-05-07T08:13:47Z</time>
      </trkpt>
      <trkpt lat="42.18131" lon="-1.68428">
        <ele>275.612</ele>
        <time>2013-05-07T08:13:29Z</time>
      </trkpt>
      <trkpt lat="42.18134" lon="-1.68478">
        <ele>275.619</ele>
        <time>2013-05-07T08:13:20Z</time>
      </trkpt>
      <trkpt lat="42.18136" lon="-1.68574">
        <ele>275.626</ele>
        <time>2013-05-07T08:13:03Z</time>
      </trkpt>
      <trkpt lat="42.18137" lon="-1.6859">
        <ele>275.684</ele>
        <time>2013-05-07T08:13:00Z</time>
      </trkpt>
      <trkpt lat="42.18142" lon="-1.6867">
        <ele>275.657</ele>
        <time>2013-05-07T08:12:46Z</time>
      </trkpt>
      <trkpt lat="42.18145" lon="-1.68717">
        <ele>275.654</ele>
        <time>2013-05-07T08:12:38Z</time>
      </trkpt>
      <trkpt lat="42.18147" lon="-1.68764">
        <ele>275.656</ele>
        <time>2013-05-07T08:12:30Z</time>
      </trkpt>
      <trkpt lat="42.18152" lon="-1.68852">
        <ele>275.611</ele>
        <time>2013-05-07T08:12:15Z</time>
      </trkpt>
      <trkpt lat="42.18154" lon="-1.68914">
        <ele>275.608</ele>
        <time>2013-05-07T08:12:04Z</time>
      </trkpt>
      <trkpt lat="42.18157" lon="-1.68995">
        <ele>275.676</ele>
        <time>2013-05-07T08:11:49Z</time>
      </trkpt>
      <trkpt lat="42.18159" lon="-1.69076">
        <ele>275.637</ele>
        <time>2013-05-07T08:11:34Z</time>
      </trkpt>
      <trkpt lat="42.18163" lon="-1.69116">
        <ele>275.699</ele>
        <time>2013-05-07T08:11:26Z</time>
      </trkpt>
      <trkpt lat="42.18166" lon="-1.69188">
        <ele>275.614</ele>
        <time>2013-05-07T08:11:11Z</time>
      </trkpt>
      <trkpt lat="42.1817" lon="-1.69259">
        <ele>275.681</ele>
        <time>2013-05-07T08:10:57Z</time>
      </trkpt>
      <trkpt lat="42.18179" lon="-1.69343">
        <ele>275.678</ele>
        <time>2013-05-07T08:10:41Z</time>
      </trkpt>
      <trkpt lat="42.18187" lon="-1.69414">
        <ele>275.666</ele>
        <time>2013-05-07T08:10:27Z</time>
      </trkpt>
      <trkpt lat="42.18197" lon="-1.69472">
        <ele>275.699</ele>
        <time>2013-05-07T08:10:16Z</time>
      </trkpt>
      <trkpt lat="42.18222" lon="-1.69537">
        <ele>275.642</ele>
        <time>2013-05-07T08:10:02Z</time>
      </trkpt>
      <trkpt lat="42.1825" lon="-1.69587">
        <ele>275.622</ele>
        <time>2013-05-07T08:09:50Z</time>
      </trkpt>
      <trkpt lat="42.18262" lon="-1.69603">
        <ele>275.614</ele>
        <time>2013-05-07T08:09:46Z</time>
      </trkpt>
      <trkpt lat="42.1828" lon="-1.69629">
        <ele>275.608</ele>
        <time>2013-05-07T08:09:40Z</time>
      </trkpt>
      <trkpt lat="42.18303" lon="-1.69663">
        <ele>275.695</ele>
        <time>2013-05-07T08:09:32Z</time>
      </trkpt>
      <trkpt lat="42.18326" lon="-1.69697">
        <ele>275.636</ele>
        <time>2013-05-07T08:09:24Z</time>
      </trkpt>
      <trkpt lat="42.18348" lon="-1.69731">
        <ele>275.158</ele>
        <time>2013-05-07T08:09:14Z</time>
      </trkpt>
      <trkpt lat="42.18358" lon="-1.69749">
        <ele>275.183</ele>
        <time>2013-05-07T08:09:06Z</time>
      </trkpt>
      <trkpt lat="42.18358" lon="-1.69751">
        <ele>275.11</ele>
        <time>2013-05-07T08:08:45Z</time>
      </trkpt>
      <trkpt lat="42.18365" lon="-1.69767">
        <ele>273.627</ele>
        <time>2013-05-07T08:08:35Z</time>
      </trkpt>
      <trkpt lat="42.18378" lon="-1.69792">
        <ele>273.665</ele>
        <time>2013-05-07T08:08:23Z</time>
      </trkpt>
      <trkpt lat="42.1838" lon="-1.69796">
        <ele>273.618</ele>
        <time>2013-05-07T08:08:11Z</time>
      </trkpt>
      <trkpt lat="42.18382" lon="-1.69805">
        <ele>273.683</ele>
        <time>2013-05-07T08:08:01Z</time>
      </trkpt>
      <trkpt lat="42.18387" lon="-1.69811">
        <ele>273.625</ele>
        <time>2013-05-07T08:07:52Z</time>
      </trkpt>
      <trkpt lat="42.18396" lon="-1.69824">
        <ele>273.617</ele>
        <time>2013-05-07T08:07:45Z</time>
      </trkpt>
      <trkpt lat="42.18397" lon="-1.69825">
        <ele>273.608</ele>
        <time>2013-05-07T08:07:39Z</time>
      </trkpt>
      <trkpt lat="42.18405" lon="-1.6984">
        <ele>273.669</ele>
        <time>2013-05-07T08:07:25Z</time>
      </trkpt>
      <trkpt lat="42.1841" lon="-1.69843">
        <ele>273.63</ele>
        <time>2013-05-07T08:07:15Z</time>
      </trkpt>
      <trkpt lat="42.18412" lon="-1.69847">
        <ele>273.622</ele>
        <time>2013-05-07T08:07:04Z</time>
      </trkpt>
      <trkpt lat="42.18415" lon="-1.69854">
        <ele>274.177</ele>
        <time>2013-05-07T08:06:58Z</time>
      </trkpt>
      <trkpt lat="42.18419" lon="-1.69861">
        <ele>275.184</ele>
        <time>2013-05-07T08:06:40Z</time>
      </trkpt>
      <trkpt lat="42.18434" lon="-1.69881">
        <ele>276.551</ele>
        <time>2013-05-07T08:06:31Z</time>
      </trkpt>
      <trkpt lat="42.18445" lon="-1.69892">
        <ele>276.579</ele>
        <time>2013-05-07T08:06:28Z</time>
      </trkpt>
      <trkpt lat="42.18492" lon="-1.69938">
        <ele>276.572</ele>
        <time>2013-05-07T08:06:16Z</time>
      </trkpt>
      <trkpt lat="42.18548" lon="-1.69985">
        <ele>276.528</ele>
        <time>2013-05-07T08:06:02Z</time>
      </trkpt>
      <trkpt lat="42.18604" lon="-1.70027">
        <ele>276.589</ele>
        <time>2013-05-07T08:05:49Z</time>
      </trkpt>
      <trkpt lat="42.18646" lon="-1.70081">
        <ele>276.517</ele>
        <time>2013-05-07T08:05:36Z</time>
      </trkpt>
      <trkpt lat="42.18654" lon="-1.70104">
        <ele>276.508</ele>
        <time>2013-05-07T08:05:32Z</time>
      </trkpt>
      <trkpt lat="42.18671" lon="-1.7018">
        <ele>276.583</ele>
        <time>2013-05-07T08:05:19Z</time>
      </trkpt>
      <trkpt lat="42.18691" lon="-1.70227">
        <ele>276.584</ele>
        <time>2013-05-07T08:05:08Z</time>
      </trkpt>
      <trkpt lat="42.18714" lon="-1.70272">
        <ele>276.526</ele>
        <time>2013-05-07T08:04:56Z</time>
      </trkpt>
      <trkpt lat="42.18719" lon="-1.70285">
        <ele>275.131</ele>
        <time>2013-05-07T08:04:52Z</time>
      </trkpt>
      <trkpt lat="42.18717" lon="-1.70296">
        <ele>275.148</ele>
        <time>2013-05-07T08:04:48Z</time>
      </trkpt>
      <trkpt lat="42.18711" lon="-1.703">
        <ele>275.125</ele>
        <time>2013-05-07T08:04:46Z</time>
      </trkpt>
      <trkpt lat="42.18699" lon="-1.70316">
        <ele>275.163</ele>
        <time>2013-05-07T08:04:41Z</time>
      </trkpt>
      <trkpt lat="42.18697" lon="-1.70328">
        <ele>275.176</ele>
        <time>2013-05-07T08:04:38Z</time>
      </trkpt>
      <trkpt lat="42.18699" lon="-1.70357">
        <ele>275.693</ele>
        <time>2013-05-07T08:04:31Z</time>
      </trkpt>
      <trkpt lat="42.18695" lon="-1.70394">
        <ele>276.065</ele>
        <time>2013-05-07T08:04:22Z</time>
      </trkpt>
      <trkpt lat="42.18701" lon="-1.70426">
        <ele>276.021</ele>
        <time>2013-05-07T08:04:11Z</time>
      </trkpt>
      <trkpt lat="42.18703" lon="-1.7043">
        <ele>276.508</ele>
        <time>2013-05-07T08:03:51Z</time>
      </trkpt>
      <trkpt lat="42.18705" lon="-1.70435">
        <ele>276.52</ele>
        <time>2013-05-07T08:03:40Z</time>
      </trkpt>
      <trkpt lat="42.18707" lon="-1.70435">
        <ele>276.561</ele>
        <time>2013-05-07T08:03:30Z</time>
      </trkpt>
      <trkpt lat="42.18706" lon="-1.70437">
        <ele>276.543</ele>
        <time>2013-05-07T08:03:01Z</time>
      </trkpt>
      <trkpt lat="42.18705" lon="-1.70438">
        <ele>276.578</ele>
        <time>2013-05-07T08:02:36Z</time>
      </trkpt>
      <trkpt lat="42.18706" lon="-1.70442">
        <ele>277.095</ele>
        <time>2013-05-07T08:02:29Z</time>
      </trkpt>
      <trkpt lat="42.18738" lon="-1.70492">
        <ele>277.052</ele>
        <time>2013-05-07T08:02:17Z</time>
      </trkpt>
      <trkpt lat="42.18781" lon="-1.70552">
        <ele>277.59</ele>
        <time>2013-05-07T08:02:03Z</time>
      </trkpt>
      <trkpt lat="42.18826" lon="-1.70609">
        <ele>277.553</ele>
        <time>2013-05-07T08:01:49Z</time>
      </trkpt>
      <trkpt lat="42.18859" lon="-1.70664">
        <ele>277.562</ele>
        <time>2013-05-07T08:01:37Z</time>
      </trkpt>
      <trkpt lat="42.18887" lon="-1.70725">
        <ele>277.583</ele>
        <time>2013-05-07T08:01:25Z</time>
      </trkpt>
      <trkpt lat="42.18918" lon="-1.70793">
        <ele>277.511</ele>
        <time>2013-05-07T08:01:11Z</time>
      </trkpt>
      <trkpt lat="42.18925" lon="-1.70808">
        <ele>277.508</ele>
        <time>2013-05-07T08:01:08Z</time>
      </trkpt>
      <trkpt lat="42.1895" lon="-1.70874">
        <ele>277.557</ele>
        <time>2013-05-07T08:00:56Z</time>
      </trkpt>
      <trkpt lat="42.18964" lon="-1.709">
        <ele>278.098</ele>
        <time>2013-05-07T08:00:51Z</time>
      </trkpt>
      <trkpt lat="42.18971" lon="-1.7091">
        <ele>278.05</ele>
        <time>2013-05-07T08:00:49Z</time>
      </trkpt>
      <trkpt lat="42.18988" lon="-1.70938">
        <ele>278.085</ele>
        <time>2013-05-07T08:00:43Z</time>
      </trkpt>
      <trkpt lat="42.19002" lon="-1.7096">
        <ele>278.092</ele>
        <time>2013-05-07T08:00:38Z</time>
      </trkpt>
      <trkpt lat="42.19012" lon="-1.70986">
        <ele>278.089</ele>
        <time>2013-05-07T08:00:33Z</time>
      </trkpt>
      <trkpt lat="42.19016" lon="-1.71003">
        <ele>278.057</ele>
        <time>2013-05-07T08:00:30Z</time>
      </trkpt>
      <trkpt lat="42.1902" lon="-1.7103">
        <ele>278.06</ele>
        <time>2013-05-07T08:00:25Z</time>
      </trkpt>
      <trkpt lat="42.19022" lon="-1.71052">
        <ele>278.039</ele>
        <time>2013-05-07T08:00:21Z</time>
      </trkpt>
      <trkpt lat="42.19021" lon="-1.71069">
        <ele>278.001</ele>
        <time>2013-05-07T08:00:18Z</time>
      </trkpt>
      <trkpt lat="42.1902" lon="-1.71075">
        <ele>278.021</ele>
        <time>2013-05-07T08:00:17Z</time>
      </trkpt>
      <trkpt lat="42.1901" lon="-1.71139">
        <ele>278.008</ele>
        <time>2013-05-07T08:00:05Z</time>
      </trkpt>
      <trkpt lat="42.18991" lon="-1.71205">
        <ele>278.994</ele>
        <time>2013-05-07T07:59:52Z</time>
      </trkpt>
      <trkpt lat="42.18989" lon="-1.71217">
        <ele>278.965</ele>
        <time>2013-05-07T07:59:50Z</time>
      </trkpt>
      <trkpt lat="42.18981" lon="-1.71252">
        <ele>278.967</ele>
        <time>2013-05-07T07:59:44Z</time>
      </trkpt>
      <trkpt lat="42.18973" lon="-1.71295">
        <ele>278.962</ele>
        <time>2013-05-07T07:59:36Z</time>
      </trkpt>
      <trkpt lat="42.18969" lon="-1.71363">
        <ele>278.949</ele>
        <time>2013-05-07T07:59:22Z</time>
      </trkpt>
      <trkpt lat="42.18968" lon="-1.7139">
        <ele>278.926</ele>
        <time>2013-05-07T07:59:17Z</time>
      </trkpt>
      <trkpt lat="42.18965" lon="-1.71447">
        <ele>278.994</ele>
        <time>2013-05-07T07:59:04Z</time>
      </trkpt>
      <trkpt lat="42.18965" lon="-1.71451">
        <ele>278.987</ele>
        <time>2013-05-07T07:59:03Z</time>
      </trkpt>
      <trkpt lat="42.18963" lon="-1.71474">
        <ele>278.988</ele>
        <time>2013-05-07T07:58:54Z</time>
      </trkpt>
      <trkpt lat="42.18954" lon="-1.71514">
        <ele>278.924</ele>
        <time>2013-05-07T07:58:46Z</time>
      </trkpt>
      <trkpt lat="42.18953" lon="-1.71573">
        <ele>278.926</ele>
        <time>2013-05-07T07:58:35Z</time>
      </trkpt>
      <trkpt lat="42.18956" lon="-1.71577">
        <ele>278.908</ele>
        <time>2013-05-07T07:58:34Z</time>
      </trkpt>
      <trkpt lat="42.19004" lon="-1.71586">
        <ele>278.929</ele>
        <time>2013-05-07T07:58:21Z</time>
      </trkpt>
      <trkpt lat="42.19044" lon="-1.71604">
        <ele>278.91</ele>
        <time>2013-05-07T07:58:10Z</time>
      </trkpt>
      <trkpt lat="42.19078" lon="-1.7162">
        <ele>278.912</ele>
        <time>2013-05-07T07:58:00Z</time>
      </trkpt>
      <trkpt lat="42.19124" lon="-1.71656">
        <ele>278.957</ele>
        <time>2013-05-07T07:57:45Z</time>
      </trkpt>
      <trkpt lat="42.19149" lon="-1.71686">
        <ele>278.084</ele>
        <time>2013-05-07T07:57:35Z</time>
      </trkpt>
      <trkpt lat="42.1917" lon="-1.71722">
        <ele>278.091</ele>
        <time>2013-05-07T07:57:23Z</time>
      </trkpt>
      <trkpt lat="42.19183" lon="-1.71749">
        <ele>278.059</ele>
        <time>2013-05-07T07:57:11Z</time>
      </trkpt>
      <trkpt lat="42.19185" lon="-1.71756">
        <ele>278.032</ele>
        <time>2013-05-07T07:57:08Z</time>
      </trkpt>
      <trkpt lat="42.19188" lon="-1.71764">
        <ele>278.095</ele>
        <time>2013-05-07T07:57:01Z</time>
      </trkpt>
      <trkpt lat="42.19188" lon="-1.71765">
        <ele>278.049</ele>
        <time>2013-05-07T07:56:47Z</time>
      </trkpt>
      <trkpt lat="42.19188" lon="-1.71767">
        <ele>278.023</ele>
        <time>2013-05-07T07:56:30Z</time>
      </trkpt>
      <trkpt lat="42.19187" lon="-1.71768">
        <ele>278.008</ele>
        <time>2013-05-07T07:56:12Z</time>
      </trkpt>
      <trkpt lat="42.19187" lon="-1.71771">
        <ele>278.09</ele>
        <time>2013-05-07T07:55:07Z</time>
      </trkpt>
      <trkpt lat="42.19188" lon="-1.7177">
        <ele>278.071</ele>
        <time>2013-05-07T07:54:36Z</time>
      </trkpt>
      <trkpt lat="42.19188" lon="-1.71768">
        <ele>278.493</ele>
        <time>2013-05-07T07:54:25Z</time>
      </trkpt>
      <trkpt lat="42.19189" lon="-1.71763">
        <ele>278.438</ele>
        <time>2013-05-07T07:53:58Z</time>
      </trkpt>
      <trkpt lat="42.19206" lon="-1.71765">
        <ele>278.425</ele>
        <time>2013-05-07T07:53:51Z</time>
      </trkpt>
      <trkpt lat="42.19272" lon="-1.71751">
        <ele>278.412</ele>
        <time>2013-05-07T07:53:37Z</time>
      </trkpt>
      <trkpt lat="42.19311" lon="-1.7174">
        <ele>278.46</ele>
        <time>2013-05-07T07:53:29Z</time>
      </trkpt>
      <trkpt lat="42.19321" lon="-1.71741">
        <ele>278.493</ele>
        <time>2013-05-07T07:53:27Z</time>
      </trkpt>
      <trkpt lat="42.19406" lon="-1.71749">
        <ele>278.433</ele>
        <time>2013-05-07T07:53:09Z</time>
      </trkpt>
      <trkpt lat="42.1942" lon="-1.71748">
        <ele>278.423</ele>
        <time>2013-05-07T07:53:06Z</time>
      </trkpt>
      <trkpt lat="42.19447" lon="-1.71757">
        <ele>278.415</ele>
        <time>2013-05-07T07:52:59Z</time>
      </trkpt>
      <trkpt lat="42.19456" lon="-1.71771">
        <ele>278.408</ele>
        <time>2013-05-07T07:52:56Z</time>
      </trkpt>
      <trkpt lat="42.19503" lon="-1.71823">
        <ele>278.494</ele>
        <time>2013-05-07T07:52:43Z</time>
      </trkpt>
      <trkpt lat="42.19515" lon="-1.71835">
        <ele>278.465</ele>
        <time>2013-05-07T07:52:40Z</time>
      </trkpt>
      <trkpt lat="42.19536" lon="-1.71872">
        <ele>278.487</ele>
        <time>2013-05-07T07:52:33Z</time>
      </trkpt>
      <trkpt lat="42.19573" lon="-1.71944">
        <ele>278.412</ele>
        <time>2013-05-07T07:52:20Z</time>
      </trkpt>
      <trkpt lat="42.19602" lon="-1.71978">
        <ele>278.419</ele>
        <time>2013-05-07T07:52:12Z</time>
      </trkpt>
      <trkpt lat="42.19651" lon="-1.72022">
        <ele>278.416</ele>
        <time>2013-05-07T07:52:00Z</time>
      </trkpt>
      <trkpt lat="42.1967" lon="-1.7203">
        <ele>278.424</ele>
        <time>2013-05-07T07:51:56Z</time>
      </trkpt>
      <trkpt lat="42.19685" lon="-1.72033">
        <ele>278.487</ele>
        <time>2013-05-07T07:51:53Z</time>
      </trkpt>
      <trkpt lat="42.19752" lon="-1.72045">
        <ele>278.435</ele>
        <time>2013-05-07T07:51:38Z</time>
      </trkpt>
      <trkpt lat="42.19807" lon="-1.7206">
        <ele>278.486</ele>
        <time>2013-05-07T07:51:23Z</time>
      </trkpt>
      <trkpt lat="42.1983" lon="-1.72069">
        <ele>278.414</ele>
        <time>2013-05-07T07:51:13Z</time>
      </trkpt>
      <trkpt lat="42.1983" lon="-1.7207">
        <ele>278.408</ele>
        <time>2013-05-07T07:50:41Z</time>
      </trkpt>
      <trkpt lat="42.19847" lon="-1.72074">
        <ele>278.494</ele>
        <time>2013-05-07T07:50:33Z</time>
      </trkpt>
      <trkpt lat="42.19892" lon="-1.72093">
        <ele>278.455</ele>
        <time>2013-05-07T07:50:21Z</time>
      </trkpt>
      <trkpt lat="42.19908" lon="-1.72102">
        <ele>278.497</ele>
        <time>2013-05-07T07:50:17Z</time>
      </trkpt>
      <trkpt lat="42.19923" lon="-1.72109">
        <ele>278.432</ele>
        <time>2013-05-07T07:50:13Z</time>
      </trkpt>
      <trkpt lat="42.19958" lon="-1.72134">
        <ele>278.929</ele>
        <time>2013-05-07T07:50:02Z</time>
      </trkpt>
      <trkpt lat="42.19972" lon="-1.72148">
        <ele>278.946</ele>
        <time>2013-05-07T07:49:58Z</time>
      </trkpt>
      <trkpt lat="42.19984" lon="-1.7216">
        <ele>278.924</ele>
        <time>2013-05-07T07:49:55Z</time>
      </trkpt>
      <trkpt lat="42.20031" lon="-1.72225">
        <ele>278.987</ele>
        <time>2013-05-07T07:49:42Z</time>
      </trkpt>
      <trkpt lat="42.20048" lon="-1.72267">
        <ele>278.995</ele>
        <time>2013-05-07T07:49:35Z</time>
      </trkpt>
      <trkpt lat="42.20077" lon="-1.72359">
        <ele>278.949</ele>
        <time>2013-05-07T07:49:19Z</time>
      </trkpt>
      <trkpt lat="42.20083" lon="-1.72386">
        <ele>278.923</ele>
        <time>2013-05-07T07:49:14Z</time>
      </trkpt>
      <trkpt lat="42.20091" lon="-1.7242">
        <ele>278.908</ele>
        <time>2013-05-07T07:49:08Z</time>
      </trkpt>
      <trkpt lat="42.20096" lon="-1.72492">
        <ele>278.96</ele>
        <time>2013-05-07T07:48:56Z</time>
      </trkpt>
      <trkpt lat="42.20084" lon="-1.72593">
        <ele>278.991</ele>
        <time>2013-05-07T07:48:39Z</time>
      </trkpt>
      <trkpt lat="42.2009" lon="-1.72623">
        <ele>278.973</ele>
        <time>2013-05-07T07:48:34Z</time>
      </trkpt>
      <trkpt lat="42.20118" lon="-1.72668">
        <ele>278.978</ele>
        <time>2013-05-07T07:48:25Z</time>
      </trkpt>
      <trkpt lat="42.2014" lon="-1.72703">
        <ele>278.915</ele>
        <time>2013-05-07T07:48:18Z</time>
      </trkpt>
      <trkpt lat="42.2015" lon="-1.72719">
        <ele>278.922</ele>
        <time>2013-05-07T07:48:15Z</time>
      </trkpt>
      <trkpt lat="42.2018" lon="-1.7277">
        <ele>279.41</ele>
        <time>2013-05-07T07:48:05Z</time>
      </trkpt>
      <trkpt lat="42.20185" lon="-1.72788">
        <ele>279.423</ele>
        <time>2013-05-07T07:48:02Z</time>
      </trkpt>
      <trkpt lat="42.20188" lon="-1.72805">
        <ele>279.471</ele>
        <time>2013-05-07T07:47:59Z</time>
      </trkpt>
      <trkpt lat="42.20187" lon="-1.72824">
        <ele>279.441</ele>
        <time>2013-05-07T07:47:56Z</time>
      </trkpt>
      <trkpt lat="42.2018" lon="-1.7286">
        <ele>279.415</ele>
        <time>2013-05-07T07:47:50Z</time>
      </trkpt>
      <trkpt lat="42.20178" lon="-1.72878">
        <ele>279.408</ele>
        <time>2013-05-07T07:47:47Z</time>
      </trkpt>
      <trkpt lat="42.20182" lon="-1.72907">
        <ele>279.468</ele>
        <time>2013-05-07T07:47:42Z</time>
      </trkpt>
      <trkpt lat="42.20198" lon="-1.72962">
        <ele>279.429</ele>
        <time>2013-05-07T07:47:32Z</time>
      </trkpt>
      <trkpt lat="42.20217" lon="-1.73033">
        <ele>279.451</ele>
        <time>2013-05-07T07:47:19Z</time>
      </trkpt>
      <trkpt lat="42.20222" lon="-1.73112">
        <ele>279.466</ele>
        <time>2013-05-07T07:47:05Z</time>
      </trkpt>
      <trkpt lat="42.20218" lon="-1.73184">
        <ele>279.473</ele>
        <time>2013-05-07T07:46:53Z</time>
      </trkpt>
      <trkpt lat="42.20208" lon="-1.73264">
        <ele>279.43</ele>
        <time>2013-05-07T07:46:39Z</time>
      </trkpt>
      <trkpt lat="42.20206" lon="-1.73282">
        <ele>279.498</ele>
        <time>2013-05-07T07:46:36Z</time>
      </trkpt>
      <trkpt lat="42.20203" lon="-1.73352">
        <ele>279.941</ele>
        <time>2013-05-07T07:46:24Z</time>
      </trkpt>
      <trkpt lat="42.20211" lon="-1.73435">
        <ele>279.928</ele>
        <time>2013-05-07T07:46:09Z</time>
      </trkpt>
      <trkpt lat="42.20217" lon="-1.73469">
        <ele>279.989</ele>
        <time>2013-05-07T07:46:03Z</time>
      </trkpt>
      <trkpt lat="42.20222" lon="-1.73485">
        <ele>279.917</ele>
        <time>2013-05-07T07:46:00Z</time>
      </trkpt>
      <trkpt lat="42.2023" lon="-1.73506">
        <ele>279.908</ele>
        <time>2013-05-07T07:45:56Z</time>
      </trkpt>
      <trkpt lat="42.20232" lon="-1.73511">
        <ele>279.993</ele>
        <time>2013-05-07T07:45:55Z</time>
      </trkpt>
      <trkpt lat="42.20258" lon="-1.73566">
        <ele>279.914</ele>
        <time>2013-05-07T07:45:43Z</time>
      </trkpt>
      <trkpt lat="42.20289" lon="-1.73597">
        <ele>279.986</ele>
        <time>2013-05-07T07:45:33Z</time>
      </trkpt>
      <trkpt lat="42.20332" lon="-1.73615">
        <ele>279.941</ele>
        <time>2013-05-07T07:45:21Z</time>
      </trkpt>
      <trkpt lat="42.20383" lon="-1.73634">
        <ele>279.918</ele>
        <time>2013-05-07T07:45:07Z</time>
      </trkpt>
      <trkpt lat="42.20424" lon="-1.73649">
        <ele>279.925</ele>
        <time>2013-05-07T07:44:54Z</time>
      </trkpt>
      <trkpt lat="42.20464" lon="-1.73668">
        <ele>279.983</ele>
        <time>2013-05-07T07:44:43Z</time>
      </trkpt>
      <trkpt lat="42.2049" lon="-1.73686">
        <ele>279.996</ele>
        <time>2013-05-07T07:44:34Z</time>
      </trkpt>
      <trkpt lat="42.20497" lon="-1.73692">
        <ele>279.943</ele>
        <time>2013-05-07T07:44:32Z</time>
      </trkpt>
      <trkpt lat="42.20537" lon="-1.7372">
        <ele>279.964</ele>
        <time>2013-05-07T07:44:22Z</time>
      </trkpt>
      <trkpt lat="42.20547" lon="-1.7373">
        <ele>279.91</ele>
        <time>2013-05-07T07:44:19Z</time>
      </trkpt>
      <trkpt lat="42.20591" lon="-1.73779">
        <ele>280.408</ele>
        <time>2013-05-07T07:44:06Z</time>
      </trkpt>
      <trkpt lat="42.20635" lon="-1.73839">
        <ele>280.415</ele>
        <time>2013-05-07T07:43:52Z</time>
      </trkpt>
      <trkpt lat="42.20641" lon="-1.73847">
        <ele>280.436</ele>
        <time>2013-05-07T07:43:50Z</time>
      </trkpt>
      <trkpt lat="42.20687" lon="-1.73912">
        <ele>280.428</ele>
        <time>2013-05-07T07:43:35Z</time>
      </trkpt>
      <trkpt lat="42.20714" lon="-1.73955">
        <ele>280.413</ele>
        <time>2013-05-07T07:43:25Z</time>
      </trkpt>
      <trkpt lat="42.20744" lon="-1.74008">
        <ele>280.89</ele>
        <time>2013-05-07T07:43:13Z</time>
      </trkpt>
      <trkpt lat="42.20762" lon="-1.74074">
        <ele>280.897</ele>
        <time>2013-05-07T07:43:01Z</time>
      </trkpt>
      <trkpt lat="42.20797" lon="-1.74144">
        <ele>280.835</ele>
        <time>2013-05-07T07:42:47Z</time>
      </trkpt>
      <trkpt lat="42.208" lon="-1.74148">
        <ele>280.848</ele>
        <time>2013-05-07T07:42:46Z</time>
      </trkpt>
      <trkpt lat="42.20835" lon="-1.74172">
        <ele>280.823</ele>
        <time>2013-05-07T07:42:36Z</time>
      </trkpt>
      <trkpt lat="42.20883" lon="-1.74188">
        <ele>280.883</ele>
        <time>2013-05-07T07:42:24Z</time>
      </trkpt>
      <trkpt lat="42.20928" lon="-1.74208">
        <ele>280.811</ele>
        <time>2013-05-07T07:42:13Z</time>
      </trkpt>
      <trkpt lat="42.20981" lon="-1.74231">
        <ele>280.808</ele>
        <time>2013-05-07T07:42:00Z</time>
      </trkpt>
      <trkpt lat="42.21027" lon="-1.74261">
        <ele>280.853</ele>
        <time>2013-05-07T07:41:48Z</time>
      </trkpt>
      <trkpt lat="42.21083" lon="-1.74315">
        <ele>281.334</ele>
        <time>2013-05-07T07:41:33Z</time>
      </trkpt>
      <trkpt lat="42.21119" lon="-1.74355">
        <ele>281.356</ele>
        <time>2013-05-07T07:41:22Z</time>
      </trkpt>
      <trkpt lat="42.21133" lon="-1.74376">
        <ele>281.361</ele>
        <time>2013-05-07T07:41:17Z</time>
      </trkpt>
      <trkpt lat="42.21169" lon="-1.74438">
        <ele>281.398</ele>
        <time>2013-05-07T07:41:03Z</time>
      </trkpt>
      <trkpt lat="42.2118" lon="-1.74456">
        <ele>281.355</ele>
        <time>2013-05-07T07:40:59Z</time>
      </trkpt>
      <trkpt lat="42.21213" lon="-1.74518">
        <ele>281.313</ele>
        <time>2013-05-07T07:40:46Z</time>
      </trkpt>
      <trkpt lat="42.21239" lon="-1.74568">
        <ele>281.336</ele>
        <time>2013-05-07T07:40:35Z</time>
      </trkpt>
      <trkpt lat="42.21273" lon="-1.74617">
        <ele>281.383</ele>
        <time>2013-05-07T07:40:23Z</time>
      </trkpt>
      <trkpt lat="42.21306" lon="-1.7466">
        <ele>281.325</ele>
        <time>2013-05-07T07:40:12Z</time>
      </trkpt>
      <trkpt lat="42.21336" lon="-1.74704">
        <ele>281.317</ele>
        <time>2013-05-07T07:40:01Z</time>
      </trkpt>
      <trkpt lat="42.21359" lon="-1.74724">
        <ele>281.308</ele>
        <time>2013-05-07T07:39:53Z</time>
      </trkpt>
      <trkpt lat="42.21392" lon="-1.74706">
        <ele>281.329</ele>
        <time>2013-05-07T07:39:42Z</time>
      </trkpt>
      <trkpt lat="42.21408" lon="-1.74701">
        <ele>281.32</ele>
        <time>2013-05-07T07:39:34Z</time>
      </trkpt>
      <trkpt lat="42.21411" lon="-1.74707">
        <ele>281.372</ele>
        <time>2013-05-07T07:39:31Z</time>
      </trkpt>
      <trkpt lat="42.21423" lon="-1.74756">
        <ele>281.357</ele>
        <time>2013-05-07T07:39:18Z</time>
      </trkpt>
      <trkpt lat="42.21442" lon="-1.74805">
        <ele>281.354</ele>
        <time>2013-05-07T07:39:06Z</time>
      </trkpt>
      <trkpt lat="42.2148" lon="-1.74843">
        <ele>282.321</ele>
        <time>2013-05-07T07:38:53Z</time>
      </trkpt>
      <trkpt lat="42.21508" lon="-1.74862">
        <ele>282.319</ele>
        <time>2013-05-07T07:38:43Z</time>
      </trkpt>
      <trkpt lat="42.21525" lon="-1.74893">
        <ele>282.342</ele>
        <time>2013-05-07T07:38:34Z</time>
      </trkpt>
      <trkpt lat="42.21544" lon="-1.74928">
        <ele>282.316</ele>
        <time>2013-05-07T07:38:25Z</time>
      </trkpt>
      <trkpt lat="42.21569" lon="-1.74968">
        <ele>282.376</ele>
        <time>2013-05-07T07:38:14Z</time>
      </trkpt>
      <trkpt lat="42.21613" lon="-1.74994">
        <ele>282.313</ele>
        <time>2013-05-07T07:38:01Z</time>
      </trkpt>
      <trkpt lat="42.21653" lon="-1.75008">
        <ele>282.308</ele>
        <time>2013-05-07T07:37:49Z</time>
      </trkpt>
      <trkpt lat="42.21695" lon="-1.75027">
        <ele>282.382</ele>
        <time>2013-05-07T07:37:36Z</time>
      </trkpt>
      <trkpt lat="42.2173" lon="-1.75042">
        <ele>282.313</ele>
        <time>2013-05-07T07:37:25Z</time>
      </trkpt>
      <trkpt lat="42.21769" lon="-1.75072">
        <ele>282.345</ele>
        <time>2013-05-07T07:37:12Z</time>
      </trkpt>
      <trkpt lat="42.21785" lon="-1.75104">
        <ele>282.32</ele>
        <time>2013-05-07T07:37:02Z</time>
      </trkpt>
      <trkpt lat="42.21797" lon="-1.75152">
        <ele>282.377</ele>
        <time>2013-05-07T07:36:51Z</time>
      </trkpt>
      <trkpt lat="42.21811" lon="-1.75201">
        <ele>282.384</ele>
        <time>2013-05-07T07:36:39Z</time>
      </trkpt>
      <trkpt lat="42.21837" lon="-1.75253">
        <ele>282.312</ele>
        <time>2013-05-07T07:36:27Z</time>
      </trkpt>
      <trkpt lat="42.21868" lon="-1.75272">
        <ele>282.395</ele>
        <time>2013-05-07T07:36:18Z</time>
      </trkpt>
      <trkpt lat="42.21922" lon="-1.75294">
        <ele>282.375</ele>
        <time>2013-05-07T07:36:04Z</time>
      </trkpt>
      <trkpt lat="42.21978" lon="-1.75308">
        <ele>282.328</ele>
        <time>2013-05-07T07:35:49Z</time>
      </trkpt>
      <trkpt lat="42.22031" lon="-1.75317">
        <ele>282.32</ele>
        <time>2013-05-07T07:35:35Z</time>
      </trkpt>
      <trkpt lat="42.22071" lon="-1.75302">
        <ele>282.308</ele>
        <time>2013-05-07T07:35:23Z</time>
      </trkpt>
      <trkpt lat="42.2211" lon="-1.75291">
        <ele>282.328</ele>
        <time>2013-05-07T07:35:12Z</time>
      </trkpt>
      <trkpt lat="42.22155" lon="-1.75285">
        <ele>282.379</ele>
        <time>2013-05-07T07:35:00Z</time>
      </trkpt>
      <trkpt lat="42.22193" lon="-1.75272">
        <ele>282.361</ele>
        <time>2013-05-07T07:34:49Z</time>
      </trkpt>
      <trkpt lat="42.22224" lon="-1.75253">
        <ele>282.336</ele>
        <time>2013-05-07T07:34:39Z</time>
      </trkpt>
      <trkpt lat="42.22253" lon="-1.75233">
        <ele>282.343</ele>
        <time>2013-05-07T07:34:28Z</time>
      </trkpt>
      <trkpt lat="42.22288" lon="-1.75216">
        <ele>282.38</ele>
        <time>2013-05-07T07:34:13Z</time>
      </trkpt>
      <trkpt lat="42.22292" lon="-1.75216">
        <ele>282.358</ele>
        <time>2013-05-07T07:34:11Z</time>
      </trkpt>
      <trkpt lat="42.22309" lon="-1.75213">
        <ele>282.361</ele>
        <time>2013-05-07T07:34:00Z</time>
      </trkpt>
      <trkpt lat="42.22311" lon="-1.75212">
        <ele>282.393</ele>
        <time>2013-05-07T07:33:58Z</time>
      </trkpt>
      <trkpt lat="42.22307" lon="-1.75212">
        <ele>282.365</ele>
        <time>2013-05-07T07:33:51Z</time>
      </trkpt>
      <trkpt lat="42.223" lon="-1.75211">
        <ele>282.321</ele>
        <time>2013-05-07T07:33:45Z</time>
      </trkpt>
      <trkpt lat="42.22301" lon="-1.75213">
        <ele>282.308</ele>
        <time>2013-05-07T07:33:37Z</time>
      </trkpt>
      <trkpt lat="42.22303" lon="-1.75214">
        <ele>282.38</ele>
        <time>2013-05-07T07:33:25Z</time>
      </trkpt>
      <trkpt lat="42.22307" lon="-1.75211">
        <ele>282.331</ele>
        <time>2013-05-07T07:33:21Z</time>
      </trkpt>
      <trkpt lat="42.22309" lon="-1.7521">
        <ele>282.333</ele>
        <time>2013-05-07T07:33:03Z</time>
      </trkpt>
      <trkpt lat="42.2231" lon="-1.75212">
        <ele>281.868</ele>
        <time>2013-05-07T07:32:47Z</time>
      </trkpt>
      <trkpt lat="42.22317" lon="-1.75214">
        <ele>281.885</ele>
        <time>2013-05-07T07:32:38Z</time>
      </trkpt>
      <trkpt lat="42.2234" lon="-1.75209">
        <ele>281.842</ele>
        <time>2013-05-07T07:32:28Z</time>
      </trkpt>
      <trkpt lat="42.22389" lon="-1.75187">
        <ele>281.81</ele>
        <time>2013-05-07T07:32:14Z</time>
      </trkpt>
      <trkpt lat="42.22426" lon="-1.75164">
        <ele>281.893</ele>
        <time>2013-05-07T07:32:04Z</time>
      </trkpt>
      <trkpt lat="42.22455" lon="-1.75146">
        <ele>281.892</ele>
        <time>2013-05-07T07:31:56Z</time>
      </trkpt>
      <trkpt lat="42.22503" lon="-1.75118">
        <ele>281.873</ele>
        <time>2013-05-07T07:31:42Z</time>
      </trkpt>
      <trkpt lat="42.22551" lon="-1.75093">
        <ele>281.82</ele>
        <time>2013-05-07T07:31:29Z</time>
      </trkpt>
      <trkpt lat="42.22604" lon="-1.7507">
        <ele>281.808</ele>
        <time>2013-05-07T07:31:15Z</time>
      </trkpt>
      <trkpt lat="42.22662" lon="-1.7505">
        <ele>281.81</ele>
        <time>2013-05-07T07:31:00Z</time>
      </trkpt>
      <trkpt lat="42.22704" lon="-1.75031">
        <ele>282.881</ele>
        <time>2013-05-07T07:30:49Z</time>
      </trkpt>
      <trkpt lat="42.2278" lon="-1.75005">
        <ele>282.863</ele>
        <time>2013-05-07T07:30:30Z</time>
      </trkpt>
      <trkpt lat="42.22834" lon="-1.74988">
        <ele>282.898</ele>
        <time>2013-05-07T07:30:17Z</time>
      </trkpt>
      <trkpt lat="42.22883" lon="-1.74984">
        <ele>282.875</ele>
        <time>2013-05-07T07:30:06Z</time>
      </trkpt>
      <trkpt lat="42.22944" lon="-1.74976">
        <ele>282.832</ele>
        <time>2013-05-07T07:29:52Z</time>
      </trkpt>
      <trkpt lat="42.23002" lon="-1.74971">
        <ele>282.84</ele>
        <time>2013-05-07T07:29:39Z</time>
      </trkpt>
      <trkpt lat="42.23028" lon="-1.74977">
        <ele>282.863</ele>
        <time>2013-05-07T07:29:33Z</time>
      </trkpt>
      <trkpt lat="42.23086" lon="-1.74996">
        <ele>282.811</ele>
        <time>2013-05-07T07:29:19Z</time>
      </trkpt>
      <trkpt lat="42.23139" lon="-1.75027">
        <ele>282.821</ele>
        <time>2013-05-07T07:29:05Z</time>
      </trkpt>
      <trkpt lat="42.2318" lon="-1.75059">
        <ele>282.803</ele>
        <time>2013-05-07T07:28:53Z</time>
      </trkpt>
      <trkpt lat="42.23221" lon="-1.75101">
        <ele>282.808</ele>
        <time>2013-05-07T07:28:39Z</time>
      </trkpt>
      <trkpt lat="42.23266" lon="-1.75147">
        <ele>282.842</ele>
        <time>2013-05-07T07:28:24Z</time>
      </trkpt>
      <trkpt lat="42.23289" lon="-1.75167">
        <ele>282.833</ele>
        <time>2013-05-07T07:28:16Z</time>
      </trkpt>
      <trkpt lat="42.23327" lon="-1.75207">
        <ele>282.895</ele>
        <time>2013-05-07T07:28:03Z</time>
      </trkpt>
      <trkpt lat="42.23365" lon="-1.75246">
        <ele>282.81</ele>
        <time>2013-05-07T07:27:50Z</time>
      </trkpt>
      <trkpt lat="42.23383" lon="-1.75269">
        <ele>282.817</ele>
        <time>2013-05-07T07:27:41Z</time>
      </trkpt>
      <trkpt lat="42.23414" lon="-1.75293">
        <ele>282.884</ele>
        <time>2013-05-07T07:27:29Z</time>
      </trkpt>
      <trkpt lat="42.2345" lon="-1.75322">
        <ele>282.882</ele>
        <time>2013-05-07T07:27:16Z</time>
      </trkpt>
      <trkpt lat="42.23484" lon="-1.75358">
        <ele>282.855</ele>
        <time>2013-05-07T07:27:01Z</time>
      </trkpt>
      <trkpt lat="42.23493" lon="-1.75367">
        <ele>282.816</ele>
        <time>2013-05-07T07:26:45Z</time>
      </trkpt>
      <trkpt lat="42.23496" lon="-1.75367">
        <ele>282.876</ele>
        <time>2013-05-07T07:26:35Z</time>
      </trkpt>
      <trkpt lat="42.23497" lon="-1.75367">
        <ele>282.813</ele>
        <time>2013-05-07T07:26:34Z</time>
      </trkpt>
      <trkpt lat="42.23498" lon="-1.75366">
        <ele>281.808</ele>
        <time>2013-05-07T07:26:33Z</time>
      </trkpt>
      <trkpt lat="42.23506" lon="-1.75347">
        <ele>281.842</ele>
        <time>2013-05-07T07:26:25Z</time>
      </trkpt>
      <trkpt lat="42.23508" lon="-1.75344">
        <ele>281.813</ele>
        <time>2013-05-07T07:26:24Z</time>
      </trkpt>
      <trkpt lat="42.23509" lon="-1.75341">
        <ele>281.875</ele>
        <time>2013-05-07T07:26:23Z</time>
      </trkpt>
      <trkpt lat="42.2351" lon="-1.75338">
        <ele>281.83</ele>
        <time>2013-05-07T07:26:22Z</time>
      </trkpt>
      <trkpt lat="42.2351" lon="-1.75334">
        <ele>281.887</ele>
        <time>2013-05-07T07:26:21Z</time>
      </trkpt>
      <trkpt lat="42.23508" lon="-1.75323">
        <ele>281.854</ele>
        <time>2013-05-07T07:26:18Z</time>
      </trkpt>
      <trkpt lat="42.23504" lon="-1.75291">
        <ele>282.342</ele>
        <time>2013-05-07T07:26:09Z</time>
      </trkpt>
      <trkpt lat="42.23527" lon="-1.7526">
        <ele>283.335</ele>
        <time>2013-05-07T07:25:58Z</time>
      </trkpt>
      <trkpt lat="42.23552" lon="-1.7521">
        <ele>281.828</ele>
        <time>2013-05-07T07:25:46Z</time>
      </trkpt>
      <trkpt lat="42.23581" lon="-1.75156">
        <ele>281.889</ele>
        <time>2013-05-07T07:25:35Z</time>
      </trkpt>
      <trkpt lat="42.23613" lon="-1.75089">
        <ele>281.817</ele>
        <time>2013-05-07T07:25:22Z</time>
      </trkpt>
      <trkpt lat="42.23652" lon="-1.75001">
        <ele>281.808</ele>
        <time>2013-05-07T07:25:06Z</time>
      </trkpt>
      <trkpt lat="42.23675" lon="-1.7495">
        <ele>282.383</ele>
        <time>2013-05-07T07:24:56Z</time>
      </trkpt>
      <trkpt lat="42.23677" lon="-1.74944">
        <ele>282.344</ele>
        <time>2013-05-07T07:24:55Z</time>
      </trkpt>
      <trkpt lat="42.23688" lon="-1.74923">
        <ele>282.386</ele>
        <time>2013-05-07T07:24:51Z</time>
      </trkpt>
      <trkpt lat="42.23699" lon="-1.74898">
        <ele>282.321</ele>
        <time>2013-05-07T07:24:45Z</time>
      </trkpt>
      <trkpt lat="42.23727" lon="-1.74837">
        <ele>282.318</ele>
        <time>2013-05-07T07:24:32Z</time>
      </trkpt>
      <trkpt lat="42.23734" lon="-1.74822">
        <ele>283.725</ele>
        <time>2013-05-07T07:24:29Z</time>
      </trkpt>
      <trkpt lat="42.23768" lon="-1.74752">
        <ele>283.733</ele>
        <time>2013-05-07T07:24:14Z</time>
      </trkpt>
      <trkpt lat="42.23798" lon="-1.74686">
        <ele>283.736</ele>
        <time>2013-05-07T07:24:00Z</time>
      </trkpt>
      <trkpt lat="42.23827" lon="-1.74625">
        <ele>283.713</ele>
        <time>2013-05-07T07:23:48Z</time>
      </trkpt>
      <trkpt lat="42.23857" lon="-1.74556">
        <ele>283.743</ele>
        <time>2013-05-07T07:23:35Z</time>
      </trkpt>
      <trkpt lat="42.23889" lon="-1.74485">
        <ele>283.707</ele>
        <time>2013-05-07T07:23:21Z</time>
      </trkpt>
      <trkpt lat="42.23899" lon="-1.74464">
        <ele>283.708</ele>
        <time>2013-05-07T07:23:17Z</time>
      </trkpt>
      <trkpt lat="42.23923" lon="-1.74412">
        <ele>282.822</ele>
        <time>2013-05-07T07:23:06Z</time>
      </trkpt>
      <trkpt lat="42.23926" lon="-1.74407">
        <ele>282.833</ele>
        <time>2013-05-07T07:23:05Z</time>
      </trkpt>
      <trkpt lat="42.23928" lon="-1.74402">
        <ele>282.855</ele>
        <time>2013-05-07T07:23:04Z</time>
      </trkpt>
      <trkpt lat="42.2393" lon="-1.74397">
        <ele>282.89</ele>
        <time>2013-05-07T07:23:03Z</time>
      </trkpt>
      <trkpt lat="42.23932" lon="-1.74391">
        <ele>282.817</ele>
        <time>2013-05-07T07:23:02Z</time>
      </trkpt>
      <trkpt lat="42.23956" lon="-1.74339">
        <ele>282.834</ele>
        <time>2013-05-07T07:22:52Z</time>
      </trkpt>
      <trkpt lat="42.23982" lon="-1.74273">
        <ele>284.252</ele>
        <time>2013-05-07T07:22:40Z</time>
      </trkpt>
      <trkpt lat="42.24" lon="-1.74222">
        <ele>283.745</ele>
        <time>2013-05-07T07:22:31Z</time>
      </trkpt>
      <trkpt lat="42.24015" lon="-1.74159">
        <ele>281.831</ele>
        <time>2013-05-07T07:22:18Z</time>
      </trkpt>
      <trkpt lat="42.24034" lon="-1.7406">
        <ele>281.861</ele>
        <time>2013-05-07T07:22:02Z</time>
      </trkpt>
      <trkpt lat="42.24045" lon="-1.73969">
        <ele>281.807</ele>
        <time>2013-05-07T07:21:47Z</time>
      </trkpt>
      <trkpt lat="42.24051" lon="-1.7392">
        <ele>281.808</ele>
        <time>2013-05-07T07:21:37Z</time>
      </trkpt>
      <trkpt lat="42.24058" lon="-1.73845">
        <ele>281.354</ele>
        <time>2013-05-07T07:21:24Z</time>
      </trkpt>
      <trkpt lat="42.24058" lon="-1.73839">
        <ele>281.345</ele>
        <time>2013-05-07T07:21:23Z</time>
      </trkpt>
      <trkpt lat="42.24062" lon="-1.73803">
        <ele>281.867</ele>
        <time>2013-05-07T07:21:17Z</time>
      </trkpt>
      <trkpt lat="42.24064" lon="-1.73763">
        <ele>281.892</ele>
        <time>2013-05-07T07:21:09Z</time>
      </trkpt>
      <trkpt lat="42.24067" lon="-1.73729">
        <ele>281.339</ele>
        <time>2013-05-07T07:21:03Z</time>
      </trkpt>
      <trkpt lat="42.24069" lon="-1.73703">
        <ele>281.386</ele>
        <time>2013-05-07T07:20:59Z</time>
      </trkpt>
      <trkpt lat="42.24072" lon="-1.7368">
        <ele>282.884</ele>
        <time>2013-05-07T07:20:55Z</time>
      </trkpt>
      <trkpt lat="42.24073" lon="-1.73675">
        <ele>282.847</ele>
        <time>2013-05-07T07:20:54Z</time>
      </trkpt>
      <trkpt lat="42.24074" lon="-1.73671">
        <ele>283.332</ele>
        <time>2013-05-07T07:20:53Z</time>
      </trkpt>
      <trkpt lat="42.2408" lon="-1.73655">
        <ele>283.392</ele>
        <time>2013-05-07T07:20:48Z</time>
      </trkpt>
      <trkpt lat="42.24088" lon="-1.73627">
        <ele>284.211</ele>
        <time>2013-05-07T07:20:42Z</time>
      </trkpt>
      <trkpt lat="42.24093" lon="-1.73561">
        <ele>284.208</ele>
        <time>2013-05-07T07:20:28Z</time>
      </trkpt>
      <trkpt lat="42.24091" lon="-1.73525">
        <ele>284.214</ele>
        <time>2013-05-07T07:20:18Z</time>
      </trkpt>
      <trkpt lat="42.24095" lon="-1.73509">
        <ele>284.225</ele>
        <time>2013-05-07T07:20:06Z</time>
      </trkpt>
      <trkpt lat="42.24096" lon="-1.73506">
        <ele>283.787</ele>
        <time>2013-05-07T07:19:32Z</time>
      </trkpt>
      <trkpt lat="42.24096" lon="-1.73508">
        <ele>283.392</ele>
        <time>2013-05-07T07:19:04Z</time>
      </trkpt>
      <trkpt lat="42.24099" lon="-1.73483">
        <ele>283.349</ele>
        <time>2013-05-07T07:18:55Z</time>
      </trkpt>
      <trkpt lat="42.24104" lon="-1.73418">
        <ele>283.386</ele>
        <time>2013-05-07T07:18:42Z</time>
      </trkpt>
      <trkpt lat="42.2411" lon="-1.73357">
        <ele>283.374</ele>
        <time>2013-05-07T07:18:29Z</time>
      </trkpt>
      <trkpt lat="42.24112" lon="-1.7333">
        <ele>283.367</ele>
        <time>2013-05-07T07:18:21Z</time>
      </trkpt>
      <trkpt lat="42.24133" lon="-1.73326">
        <ele>281.887</ele>
        <time>2013-05-07T07:18:12Z</time>
      </trkpt>
      <trkpt lat="42.24188" lon="-1.73341">
        <ele>281.842</ele>
        <time>2013-05-07T07:17:58Z</time>
      </trkpt>
      <trkpt lat="42.24208" lon="-1.73349">
        <ele>281.826</ele>
        <time>2013-05-07T07:17:53Z</time>
      </trkpt>
      <trkpt lat="42.24223" lon="-1.7336">
        <ele>281.808</ele>
        <time>2013-05-07T07:17:49Z</time>
      </trkpt>
      <trkpt lat="42.24243" lon="-1.7337">
        <ele>281.859</ele>
        <time>2013-05-07T07:17:44Z</time>
      </trkpt>
      <trkpt lat="42.24251" lon="-1.73373">
        <ele>281.83</ele>
        <time>2013-05-07T07:17:42Z</time>
      </trkpt>
      <trkpt lat="42.24294" lon="-1.73387">
        <ele>281.872</ele>
        <time>2013-05-07T07:17:31Z</time>
      </trkpt>
      <trkpt lat="42.24298" lon="-1.7339">
        <ele>281.827</ele>
        <time>2013-05-07T07:17:30Z</time>
      </trkpt>
      <trkpt lat="42.24349" lon="-1.7341">
        <ele>281.854</ele>
        <time>2013-05-07T07:17:16Z</time>
      </trkpt>
      <trkpt lat="42.24381" lon="-1.73422">
        <ele>281.841</ele>
        <time>2013-05-07T07:17:08Z</time>
      </trkpt>
      <trkpt lat="42.24389" lon="-1.73425">
        <ele>281.849</ele>
        <time>2013-05-07T07:17:06Z</time>
      </trkpt>
      <trkpt lat="42.24417" lon="-1.73434">
        <ele>281.812</ele>
        <time>2013-05-07T07:16:59Z</time>
      </trkpt>
      <trkpt lat="42.24437" lon="-1.73442">
        <ele>281.856</ele>
        <time>2013-05-07T07:16:54Z</time>
      </trkpt>
      <trkpt lat="42.24454" lon="-1.73449">
        <ele>281.859</ele>
        <time>2013-05-07T07:16:50Z</time>
      </trkpt>
      <trkpt lat="42.24477" lon="-1.73458">
        <ele>281.814</ele>
        <time>2013-05-07T07:16:45Z</time>
      </trkpt>
      <trkpt lat="42.24529" lon="-1.7348">
        <ele>281.808</ele>
        <time>2013-05-07T07:16:33Z</time>
      </trkpt>
      <trkpt lat="42.24537" lon="-1.73484">
        <ele>281.856</ele>
        <time>2013-05-07T07:16:31Z</time>
      </trkpt>
      <trkpt lat="42.24592" lon="-1.73507">
        <ele>281.857</ele>
        <time>2013-05-07T07:16:17Z</time>
      </trkpt>
      <trkpt lat="42.24662" lon="-1.73535">
        <ele>281.839</ele>
        <time>2013-05-07T07:16:00Z</time>
      </trkpt>
      <trkpt lat="42.24724" lon="-1.73558">
        <ele>281.844</ele>
        <time>2013-05-07T07:15:45Z</time>
      </trkpt>
      <trkpt lat="42.24769" lon="-1.73577">
        <ele>281.851</ele>
        <time>2013-05-07T07:15:34Z</time>
      </trkpt>
      <trkpt lat="42.24825" lon="-1.73603">
        <ele>282.358</ele>
        <time>2013-05-07T07:15:20Z</time>
      </trkpt>
      <trkpt lat="42.24842" lon="-1.7361">
        <ele>282.386</ele>
        <time>2013-05-07T07:15:16Z</time>
      </trkpt>
      <trkpt lat="42.24862" lon="-1.73618">
        <ele>282.379</ele>
        <time>2013-05-07T07:15:11Z</time>
      </trkpt>
      <trkpt lat="42.24922" lon="-1.73641">
        <ele>282.383</ele>
        <time>2013-05-07T07:14:56Z</time>
      </trkpt>
      <trkpt lat="42.24934" lon="-1.73645">
        <ele>282.325</ele>
        <time>2013-05-07T07:14:53Z</time>
      </trkpt>
      <trkpt lat="42.24977" lon="-1.73663">
        <ele>282.317</ele>
        <time>2013-05-07T07:14:42Z</time>
      </trkpt>
      <trkpt lat="42.25021" lon="-1.73681">
        <ele>282.308</ele>
        <time>2013-05-07T07:14:30Z</time>
      </trkpt>
      <trkpt lat="42.25063" lon="-1.73698">
        <ele>282.329</ele>
        <time>2013-05-07T07:14:18Z</time>
      </trkpt>
      <trkpt lat="42.25067" lon="-1.737">
        <ele>282.34</ele>
        <time>2013-05-07T07:14:17Z</time>
      </trkpt>
      <trkpt lat="42.25076" lon="-1.73724">
        <ele>282.312</ele>
        <time>2013-05-07T07:14:11Z</time>
      </trkpt>
      <trkpt lat="42.25054" lon="-1.73819">
        <ele>282.317</ele>
        <time>2013-05-07T07:13:52Z</time>
      </trkpt>
      <trkpt lat="42.25038" lon="-1.73886">
        <ele>282.354</ele>
        <time>2013-05-07T07:13:38Z</time>
      </trkpt>
      <trkpt lat="42.25028" lon="-1.73926">
        <ele>282.331</ele>
        <time>2013-05-07T07:13:29Z</time>
      </trkpt>
      <trkpt lat="42.25041" lon="-1.73954">
        <ele>282.369</ele>
        <time>2013-05-07T07:13:21Z</time>
      </trkpt>
      <trkpt lat="42.25093" lon="-1.73974">
        <ele>282.322</ele>
        <time>2013-05-07T07:13:08Z</time>
      </trkpt>
      <trkpt lat="42.25167" lon="-1.74004">
        <ele>282.393</ele>
        <time>2013-05-07T07:12:50Z</time>
      </trkpt>
      <trkpt lat="42.25223" lon="-1.74027">
        <ele>282.365</ele>
        <time>2013-05-07T07:12:37Z</time>
      </trkpt>
      <trkpt lat="42.25285" lon="-1.74052">
        <ele>282.321</ele>
        <time>2013-05-07T07:12:22Z</time>
      </trkpt>
      <trkpt lat="42.25341" lon="-1.74076">
        <ele>282.308</ele>
        <time>2013-05-07T07:12:09Z</time>
      </trkpt>
      <trkpt lat="42.2541" lon="-1.74104">
        <ele>282.32</ele>
        <time>2013-05-07T07:11:53Z</time>
      </trkpt>
      <trkpt lat="42.25475" lon="-1.7413">
        <ele>282.311</ele>
        <time>2013-05-07T07:11:38Z</time>
      </trkpt>
      <trkpt lat="42.25539" lon="-1.74157">
        <ele>282.323</ele>
        <time>2013-05-07T07:11:22Z</time>
      </trkpt>
      <trkpt lat="42.2559" lon="-1.74177">
        <ele>282.338</ele>
        <time>2013-05-07T07:11:09Z</time>
      </trkpt>
      <trkpt lat="42.25644" lon="-1.742">
        <ele>282.395</ele>
        <time>2013-05-07T07:10:55Z</time>
      </trkpt>
      <trkpt lat="42.25708" lon="-1.74227">
        <ele>283.322</ele>
        <time>2013-05-07T07:10:39Z</time>
      </trkpt>
      <trkpt lat="42.25763" lon="-1.74249">
        <ele>282.86</ele>
        <time>2013-05-07T07:10:25Z</time>
      </trkpt>
      <trkpt lat="42.25822" lon="-1.74273">
        <ele>282.853</ele>
        <time>2013-05-07T07:10:10Z</time>
      </trkpt>
      <trkpt lat="42.25874" lon="-1.74295">
        <ele>282.896</ele>
        <time>2013-05-07T07:09:57Z</time>
      </trkpt>
      <trkpt lat="42.2593" lon="-1.74318">
        <ele>283.331</ele>
        <time>2013-05-07T07:09:43Z</time>
      </trkpt>
      <trkpt lat="42.25977" lon="-1.74336">
        <ele>283.324</ele>
        <time>2013-05-07T07:09:31Z</time>
      </trkpt>
      <trkpt lat="42.26028" lon="-1.74358">
        <ele>283.308</ele>
        <time>2013-05-07T07:09:17Z</time>
      </trkpt>
      <trkpt lat="42.26073" lon="-1.74377">
        <ele>283.36</ele>
        <time>2013-05-07T07:09:04Z</time>
      </trkpt>
      <trkpt lat="42.2612" lon="-1.74397">
        <ele>283.311</ele>
        <time>2013-05-07T07:08:51Z</time>
      </trkpt>
      <trkpt lat="42.26179" lon="-1.74421">
        <ele>283.363</ele>
        <time>2013-05-07T07:08:35Z</time>
      </trkpt>
      <trkpt lat="42.26228" lon="-1.74439">
        <ele>283.718</ele>
        <time>2013-05-07T07:08:21Z</time>
      </trkpt>
      <trkpt lat="42.26268" lon="-1.74456">
        <ele>283.795</ele>
        <time>2013-05-07T07:08:08Z</time>
      </trkpt>
      <trkpt lat="42.26282" lon="-1.74453">
        <ele>283.762</ele>
        <time>2013-05-07T07:08:02Z</time>
      </trkpt>
      <trkpt lat="42.26291" lon="-1.74421">
        <ele>283.79</ele>
        <time>2013-05-07T07:07:54Z</time>
      </trkpt>
      <trkpt lat="42.26302" lon="-1.74369">
        <ele>283.793</ele>
        <time>2013-05-07T07:07:42Z</time>
      </trkpt>
      <trkpt lat="42.2632" lon="-1.74356">
        <ele>283.749</ele>
        <time>2013-05-07T07:07:34Z</time>
      </trkpt>
      <trkpt lat="42.26365" lon="-1.74373">
        <ele>283.702</ele>
        <time>2013-05-07T07:07:21Z</time>
      </trkpt>
      <trkpt lat="42.26416" lon="-1.74394">
        <ele>284.722</ele>
        <time>2013-05-07T07:07:07Z</time>
      </trkpt>
      <trkpt lat="42.26467" lon="-1.74418">
        <ele>286.108</ele>
        <time>2013-05-07T07:06:56Z</time>
      </trkpt>
      <trkpt lat="42.26479" lon="-1.7443">
        <ele>286.175</ele>
        <time>2013-05-07T07:06:52Z</time>
      </trkpt>
      <trkpt lat="42.26503" lon="-1.74437">
        <ele>286.146</ele>
        <time>2013-05-07T07:06:46Z</time>
      </trkpt>
      <trkpt lat="42.26516" lon="-1.74435">
        <ele>286.178</ele>
        <time>2013-05-07T07:06:43Z</time>
      </trkpt>
      <trkpt lat="42.26538" lon="-1.7444">
        <ele>286.653</ele>
        <time>2013-05-07T07:06:38Z</time>
      </trkpt>
      <trkpt lat="42.26562" lon="-1.74451">
        <ele>286.66</ele>
        <time>2013-05-07T07:06:32Z</time>
      </trkpt>
      <trkpt lat="42.26597" lon="-1.74467">
        <ele>286.697</ele>
        <time>2013-05-07T07:06:23Z</time>
      </trkpt>
      <trkpt lat="42.26617" lon="-1.74475">
        <ele>286.665</ele>
        <time>2013-05-07T07:06:18Z</time>
      </trkpt>
      <trkpt lat="42.26623" lon="-1.74479">
        <ele>286.698</ele>
        <time>2013-05-07T07:06:16Z</time>
      </trkpt>
      <trkpt lat="42.26667" lon="-1.74494">
        <ele>286.628</ele>
        <time>2013-05-07T07:06:04Z</time>
      </trkpt>
      <trkpt lat="42.26718" lon="-1.74518">
        <ele>286.689</ele>
        <time>2013-05-07T07:05:51Z</time>
      </trkpt>
      <trkpt lat="42.26757" lon="-1.74531">
        <ele>286.617</ele>
        <time>2013-05-07T07:05:41Z</time>
      </trkpt>
      <trkpt lat="42.26774" lon="-1.74531">
        <ele>286.608</ele>
        <time>2013-05-07T07:05:37Z</time>
      </trkpt>
      <trkpt lat="42.26795" lon="-1.7453">
        <ele>286.643</ele>
        <time>2013-05-07T07:05:32Z</time>
      </trkpt>
      <trkpt lat="42.26817" lon="-1.74539">
        <ele>287.194</ele>
        <time>2013-05-07T07:05:27Z</time>
      </trkpt>
      <trkpt lat="42.26853" lon="-1.74568">
        <ele>287.166</ele>
        <time>2013-05-07T07:05:17Z</time>
      </trkpt>
      <trkpt lat="42.26867" lon="-1.74591">
        <ele>287.121</ele>
        <time>2013-05-07T07:05:12Z</time>
      </trkpt>
      <trkpt lat="42.26888" lon="-1.74637">
        <ele>287.138</ele>
        <time>2013-05-07T07:05:02Z</time>
      </trkpt>
      <trkpt lat="42.26919" lon="-1.74684">
        <ele>287.175</ele>
        <time>2013-05-07T07:04:50Z</time>
      </trkpt>
      <trkpt lat="42.2695" lon="-1.74723">
        <ele>287.163</ele>
        <time>2013-05-07T07:04:38Z</time>
      </trkpt>
      <trkpt lat="42.26966" lon="-1.74744">
        <ele>288.516</ele>
        <time>2013-05-07T07:04:32Z</time>
      </trkpt>
      <trkpt lat="42.27007" lon="-1.74769">
        <ele>288.524</ele>
        <time>2013-05-07T07:04:20Z</time>
      </trkpt>
      <trkpt lat="42.27044" lon="-1.74784">
        <ele>288.504</ele>
        <time>2013-05-07T07:04:08Z</time>
      </trkpt>
      <trkpt lat="42.27079" lon="-1.74803">
        <ele>288.514</ele>
        <time>2013-05-07T07:03:57Z</time>
      </trkpt>
      <trkpt lat="42.27111" lon="-1.74818">
        <ele>287.608</ele>
        <time>2013-05-07T07:03:47Z</time>
      </trkpt>
      <trkpt lat="42.2717" lon="-1.74814">
        <ele>287.683</ele>
        <time>2013-05-07T07:03:32Z</time>
      </trkpt>
      <trkpt lat="42.27188" lon="-1.74812">
        <ele>287.684</ele>
        <time>2013-05-07T07:03:28Z</time>
      </trkpt>
      <trkpt lat="42.27233" lon="-1.74813">
        <ele>288.136</ele>
        <time>2013-05-07T07:03:16Z</time>
      </trkpt>
      <trkpt lat="42.27259" lon="-1.74804">
        <ele>288.191</ele>
        <time>2013-05-07T07:03:06Z</time>
      </trkpt>
      <trkpt lat="42.27278" lon="-1.74783">
        <ele>288.158</ele>
        <time>2013-05-07T07:02:56Z</time>
      </trkpt>
      <trkpt lat="42.27301" lon="-1.74781">
        <ele>288.565</ele>
        <time>2013-05-07T07:02:43Z</time>
      </trkpt>
      <trkpt lat="42.27306" lon="-1.7478">
        <ele>288.513</ele>
        <time>2013-05-07T07:02:23Z</time>
      </trkpt>
      <trkpt lat="42.27312" lon="-1.74778">
        <ele>288.566</ele>
        <time>2013-05-07T07:02:14Z</time>
      </trkpt>
      <trkpt lat="42.27313" lon="-1.74777">
        <ele>288.558</ele>
        <time>2013-05-07T07:02:13Z</time>
      </trkpt>
      <trkpt lat="42.27315" lon="-1.74777">
        <ele>288.552</ele>
        <time>2013-05-07T07:02:12Z</time>
      </trkpt>
      <trkpt lat="42.2732" lon="-1.74777">
        <ele>288.517</ele>
        <time>2013-05-07T07:02:09Z</time>
      </trkpt>
      <trkpt lat="42.27322" lon="-1.74777">
        <ele>288.508</ele>
        <time>2013-05-07T07:02:08Z</time>
      </trkpt>
      <trkpt lat="42.27324" lon="-1.74777">
        <ele>288.526</ele>
        <time>2013-05-07T07:02:07Z</time>
      </trkpt>
      <trkpt lat="42.27326" lon="-1.74777">
        <ele>288.587</ele>
        <time>2013-05-07T07:02:06Z</time>
      </trkpt>
      <trkpt lat="42.27327" lon="-1.74777">
        <ele>288.519</ele>
        <time>2013-05-07T07:02:05Z</time>
      </trkpt>
      <trkpt lat="42.27329" lon="-1.74776">
        <ele>288.534</ele>
        <time>2013-05-07T07:02:04Z</time>
      </trkpt>
      <trkpt lat="42.27331" lon="-1.74776">
        <ele>288.531</ele>
        <time>2013-05-07T07:02:03Z</time>
      </trkpt>
      <trkpt lat="42.27333" lon="-1.74776">
        <ele>288.538</ele>
        <time>2013-05-07T07:02:02Z</time>
      </trkpt>
      <trkpt lat="42.27335" lon="-1.74775">
        <ele>288.516</ele>
        <time>2013-05-07T07:02:01Z</time>
      </trkpt>
      <trkpt lat="42.27337" lon="-1.74774">
        <ele>288.599</ele>
        <time>2013-05-07T07:02:00Z</time>
      </trkpt>
      <trkpt lat="42.27339" lon="-1.74774">
        <ele>288.583</ele>
        <time>2013-05-07T07:01:59Z</time>
      </trkpt>
      <trkpt lat="42.27341" lon="-1.74773">
        <ele>288.525</ele>
        <time>2013-05-07T07:01:58Z</time>
      </trkpt>
      <trkpt lat="42.27343" lon="-1.74773">
        <ele>288.517</ele>
        <time>2013-05-07T07:01:57Z</time>
      </trkpt>
      <trkpt lat="42.27362" lon="-1.74773">
        <ele>288.508</ele>
        <time>2013-05-07T07:01:47Z</time>
      </trkpt>
      <trkpt lat="42.27372" lon="-1.74773">
        <ele>289.059</ele>
        <time>2013-05-07T07:01:16Z</time>
      </trkpt>
      <trkpt lat="42.27389" lon="-1.74769">
        <ele>289.08</ele>
        <time>2013-05-07T07:01:09Z</time>
      </trkpt>
      <trkpt lat="42.27449" lon="-1.74751">
        <ele>289.062</ele>
        <time>2013-05-07T07:00:57Z</time>
      </trkpt>
      <trkpt lat="42.27509" lon="-1.7473">
        <ele>290.537</ele>
        <time>2013-05-07T07:00:47Z</time>
      </trkpt>
      <trkpt lat="42.27515" lon="-1.74727">
        <ele>290.914</ele>
        <time>2013-05-07T07:00:46Z</time>
      </trkpt>
      <trkpt lat="42.27543" lon="-1.74709">
        <ele>293.381</ele>
        <time>2013-05-07T07:00:38Z</time>
      </trkpt>
      <trkpt lat="42.27546" lon="-1.74708">
        <ele>293.339</ele>
        <time>2013-05-07T07:00:37Z</time>
      </trkpt>
      <trkpt lat="42.27569" lon="-1.74716">
        <ele>294.822</ele>
        <time>2013-05-07T07:00:33Z</time>
      </trkpt>
      <trkpt lat="42.27577" lon="-1.74719">
        <ele>294.895</ele>
        <time>2013-05-07T07:00:32Z</time>
      </trkpt>
      <trkpt lat="42.27637" lon="-1.74738">
        <ele>298.649</ele>
        <time>2013-05-07T07:00:23Z</time>
      </trkpt>
      <trkpt lat="42.27653" lon="-1.74739">
        <ele>299.123</ele>
        <time>2013-05-07T07:00:20Z</time>
      </trkpt>
      <trkpt lat="42.27688" lon="-1.74739">
        <ele>300.108</ele>
        <time>2013-05-07T07:00:10Z</time>
      </trkpt>
      <trkpt lat="42.27724" lon="-1.74739">
        <ele>300.11</ele>
        <time>2013-05-07T06:59:57Z</time>
      </trkpt>
      <trkpt lat="42.27741" lon="-1.74737">
        <ele>300.161</ele>
        <time>2013-05-07T06:59:48Z</time>
      </trkpt>
      <trkpt lat="42.27766" lon="-1.7473">
        <ele>300.113</ele>
        <time>2013-05-07T06:59:38Z</time>
      </trkpt>
      <trkpt lat="42.27766" lon="-1.747">
        <ele>301.538</ele>
        <time>2013-05-07T06:59:29Z</time>
      </trkpt>
      <trkpt lat="42.27758" lon="-1.74664">
        <ele>302.015</ele>
        <time>2013-05-07T06:59:17Z</time>
      </trkpt>
      <trkpt lat="42.27755" lon="-1.74639">
        <ele>302.062</ele>
        <time>2013-05-07T06:59:04Z</time>
      </trkpt>
      <trkpt lat="42.27756" lon="-1.74638">
        <ele>302.08</ele>
        <time>2013-05-07T06:58:51Z</time>
      </trkpt>
      <trkpt lat="42.27754" lon="-1.74639">
        <ele>302.073</ele>
        <time>2013-05-07T06:58:22Z</time>
      </trkpt>
      <trkpt lat="42.27754" lon="-1.74637">
        <ele>302.063</ele>
        <time>2013-05-07T06:57:43Z</time>
      </trkpt>
      <trkpt lat="42.2775" lon="-1.74632">
        <ele>302.044</ele>
        <time>2013-05-07T06:57:29Z</time>
      </trkpt>
      <trkpt lat="42.27752" lon="-1.7463">
        <ele>302.018</ele>
        <time>2013-05-07T06:57:06Z</time>
      </trkpt>
      <trkpt lat="42.27752" lon="-1.74634">
        <ele>302.008</ele>
        <time>2013-05-07T06:56:43Z</time>
      </trkpt>
      <trkpt lat="42.2775" lon="-1.74636">
        <ele>302.047</ele>
        <time>2013-05-07T06:56:14Z</time>
      </trkpt>
      <trkpt lat="42.27751" lon="-1.74634">
        <ele>302.098</ele>
        <time>2013-05-07T06:55:46Z</time>
      </trkpt>
      <trkpt lat="42.27752" lon="-1.74632">
        <ele>302.04</ele>
        <time>2013-05-07T06:55:15Z</time>
      </trkpt>
      <trkpt lat="42.27752" lon="-1.74631">
        <ele>302.025</ele>
        <time>2013-05-07T06:54:42Z</time>
      </trkpt>
      <trkpt lat="42.27755" lon="-1.74631">
        <ele>302.032</ele>
        <time>2013-05-07T06:54:09Z</time>
      </trkpt>
      <trkpt lat="42.27756" lon="-1.74628">
        <ele>302.049</ele>
        <time>2013-05-07T06:53:46Z</time>
      </trkpt>
      <trkpt lat="42.27755" lon="-1.74627">
        <ele>302.097</ele>
        <time>2013-05-07T06:53:14Z</time>
      </trkpt>
      <trkpt lat="42.27754" lon="-1.7463">
        <ele>302.09</ele>
        <time>2013-05-07T06:52:22Z</time>
      </trkpt>
      <trkpt lat="42.27753" lon="-1.74633">
        <ele>302.072</ele>
        <time>2013-05-07T06:51:52Z</time>
      </trkpt>
      <trkpt lat="42.27752" lon="-1.7463">
        <ele>302.013</ele>
        <time>2013-05-07T06:51:22Z</time>
      </trkpt>
      <trkpt lat="42.27752" lon="-1.74632">
        <ele>302.014</ele>
        <time>2013-05-07T06:51:09Z</time>
      </trkpt>
      <trkpt lat="42.27754" lon="-1.74646">
        <ele>302.008</ele>
        <time>2013-05-07T06:50:58Z</time>
      </trkpt>
      <trkpt lat="42.27755" lon="-1.74649">
        <ele>302.018</ele>
        <time>2013-05-07T06:50:42Z</time>
      </trkpt>
      <trkpt lat="42.27755" lon="-1.74647">
        <ele>302.089</ele>
        <time>2013-05-07T06:50:22Z</time>
      </trkpt>
      <trkpt lat="42.27757" lon="-1.74649">
        <ele>302.091</ele>
        <time>2013-05-07T06:49:34Z</time>
      </trkpt>
      <trkpt lat="42.27758" lon="-1.74648">
        <ele>302.096</ele>
        <time>2013-05-07T06:48:49Z</time>
      </trkpt>
      <trkpt lat="42.27756" lon="-1.74648">
        <ele>302.023</ele>
        <time>2013-05-07T06:48:29Z</time>
      </trkpt>
      <trkpt lat="42.27757" lon="-1.74648">
        <ele>302.02</ele>
        <time>2013-05-07T06:47:35Z</time>
      </trkpt>
      <trkpt lat="42.27756" lon="-1.74647">
        <ele>302.018</ele>
        <time>2013-05-07T06:47:09Z</time>
      </trkpt>
      <trkpt lat="42.27758" lon="-1.74647">
        <ele>303.081</ele>
        <time>2013-05-07T06:46:47Z</time>
      </trkpt>
      <trkpt lat="42.27755" lon="-1.74648">
        <ele>303.084</ele>
        <time>2013-05-07T06:46:28Z</time>
      </trkpt>
      <trkpt lat="42.27754" lon="-1.74648">
        <ele>303.007</ele>
        <time>2013-05-07T06:46:13Z</time>
      </trkpt>
      <trkpt lat="42.27753" lon="-1.74644">
        <ele>303.017</ele>
        <time>2013-05-07T06:45:37Z</time>
      </trkpt>
      <trkpt lat="42.27755" lon="-1.74643">
        <ele>303.008</ele>
        <time>2013-05-07T06:45:14Z</time>
      </trkpt>
      <trkpt lat="42.27753" lon="-1.74626">
        <ele>303.059</ele>
        <time>2013-05-07T06:45:03Z</time>
      </trkpt>
      <trkpt lat="42.27753" lon="-1.74624">
        <ele>303.09</ele>
        <time>2013-05-07T06:45:02Z</time>
      </trkpt>
      <trkpt lat="42.27753" lon="-1.74621">
        <ele>302.032</ele>
        <time>2013-05-07T06:45:01Z</time>
      </trkpt>
      <trkpt lat="42.27753" lon="-1.74619">
        <ele>302.047</ele>
        <time>2013-05-07T06:45:00Z</time>
      </trkpt>
      <trkpt lat="42.27754" lon="-1.74616">
        <ele>302.064</ele>
        <time>2013-05-07T06:44:59Z</time>
      </trkpt>
      <trkpt lat="42.27754" lon="-1.74615">
        <ele>302.081</ele>
        <time>2013-05-07T06:44:58Z</time>
      </trkpt>
      <trkpt lat="42.27757" lon="-1.74613">
        <ele>302.079</ele>
        <time>2013-05-07T06:44:56Z</time>
      </trkpt>
      <trkpt lat="42.27786" lon="-1.74604">
        <ele>300.192</ele>
        <time>2013-05-07T06:44:42Z</time>
      </trkpt>
      <trkpt lat="42.27806" lon="-1.74596">
        <ele>299.138</ele>
        <time>2013-05-07T06:44:31Z</time>
      </trkpt>
      <trkpt lat="42.27832" lon="-1.74587">
        <ele>298.27</ele>
        <time>2013-05-07T06:44:19Z</time>
      </trkpt>
      <trkpt lat="42.27858" lon="-1.74576">
        <ele>296.217</ele>
        <time>2013-05-07T06:44:06Z</time>
      </trkpt>
      <trkpt lat="42.27859" lon="-1.74576">
        <ele>296.208</ele>
        <time>2013-05-07T06:44:05Z</time>
      </trkpt>
      <trkpt lat="42.27874" lon="-1.74571">
        <ele>294.844</ele>
        <time>2013-05-07T06:43:57Z</time>
      </trkpt>
      <trkpt lat="42.27877" lon="-1.74571">
        <ele>294.815</ele>
        <time>2013-05-07T06:43:56Z</time>
      </trkpt>
      <trkpt lat="42.27879" lon="-1.7457">
        <ele>294.847</ele>
        <time>2013-05-07T06:43:55Z</time>
      </trkpt>
      <trkpt lat="42.27881" lon="-1.7457">
        <ele>294.892</ele>
        <time>2013-05-07T06:43:54Z</time>
      </trkpt>
      <trkpt lat="42.27883" lon="-1.7457">
        <ele>294.869</ele>
        <time>2013-05-07T06:43:53Z</time>
      </trkpt>
      <trkpt lat="42.27884" lon="-1.7457">
        <ele>294.816</ele>
        <time>2013-05-07T06:43:24Z</time>
      </trkpt>
      <trkpt lat="42.27885" lon="-1.74572">
        <ele>294.874</ele>
        <time>2013-05-07T06:42:58Z</time>
      </trkpt>
      <trkpt lat="42.27883" lon="-1.74572">
        <ele>294.897</ele>
        <time>2013-05-07T06:42:43Z</time>
      </trkpt>
      <trkpt lat="42.27917" lon="-1.74558">
        <ele>294.851</ele>
        <time>2013-05-07T06:42:31Z</time>
      </trkpt>
      <trkpt lat="42.27968" lon="-1.7454">
        <ele>294.801</ele>
        <time>2013-05-07T06:42:15Z</time>
      </trkpt>
      <trkpt lat="42.28015" lon="-1.74524">
        <ele>296.211</ele>
        <time>2013-05-07T06:42:00Z</time>
      </trkpt>
      <trkpt lat="42.28071" lon="-1.74504">
        <ele>295.708</ele>
        <time>2013-05-07T06:41:43Z</time>
      </trkpt>
      <trkpt lat="42.28115" lon="-1.74471">
        <ele>294.396</ele>
        <time>2013-05-07T06:41:28Z</time>
      </trkpt>
      <trkpt lat="42.28171" lon="-1.74431">
        <ele>293.887</ele>
        <time>2013-05-07T06:41:11Z</time>
      </trkpt>
      <trkpt lat="42.28202" lon="-1.74408">
        <ele>293.839</ele>
        <time>2013-05-07T06:41:00Z</time>
      </trkpt>
      <trkpt lat="42.28232" lon="-1.74383">
        <ele>293.344</ele>
        <time>2013-05-07T06:40:48Z</time>
      </trkpt>
      <trkpt lat="42.28234" lon="-1.74381">
        <ele>293.371</ele>
        <time>2013-05-07T06:40:47Z</time>
      </trkpt>
      <trkpt lat="42.28236" lon="-1.74379">
        <ele>293.398</ele>
        <time>2013-05-07T06:40:46Z</time>
      </trkpt>
      <trkpt lat="42.28237" lon="-1.74376">
        <ele>292.966</ele>
        <time>2013-05-07T06:40:45Z</time>
      </trkpt>
      <trkpt lat="42.28239" lon="-1.74374">
        <ele>292.929</ele>
        <time>2013-05-07T06:40:44Z</time>
      </trkpt>
      <trkpt lat="42.28239" lon="-1.74371">
        <ele>292.983</ele>
        <time>2013-05-07T06:40:43Z</time>
      </trkpt>
      <trkpt lat="42.28239" lon="-1.74369">
        <ele>292.925</ele>
        <time>2013-05-07T06:40:42Z</time>
      </trkpt>
      <trkpt lat="42.2824" lon="-1.74367">
        <ele>292.917</ele>
        <time>2013-05-07T06:40:41Z</time>
      </trkpt>
      <trkpt lat="42.28241" lon="-1.74366">
        <ele>292.908</ele>
        <time>2013-05-07T06:40:40Z</time>
      </trkpt>
      <trkpt lat="42.28242" lon="-1.74364">
        <ele>292.949</ele>
        <time>2013-05-07T06:40:39Z</time>
      </trkpt>
      <trkpt lat="42.28243" lon="-1.74363">
        <ele>292.92</ele>
        <time>2013-05-07T06:40:38Z</time>
      </trkpt>
      <trkpt lat="42.28244" lon="-1.74362">
        <ele>292.482</ele>
        <time>2013-05-07T06:40:37Z</time>
      </trkpt>
      <trkpt lat="42.28249" lon="-1.74351">
        <ele>292.417</ele>
        <time>2013-05-07T06:40:32Z</time>
      </trkpt>
      <trkpt lat="42.28258" lon="-1.7431">
        <ele>292.444</ele>
        <time>2013-05-07T06:40:18Z</time>
      </trkpt>
      <trkpt lat="42.28263" lon="-1.74305">
        <ele>292.421</ele>
        <time>2013-05-07T06:40:12Z</time>
      </trkpt>
      <trkpt lat="42.28271" lon="-1.74296">
        <ele>292.469</ele>
        <time>2013-05-07T06:40:00Z</time>
      </trkpt>
      <trkpt lat="42.28294" lon="-1.74291">
        <ele>316.992</ele>
        <time>2013-05-06T18:03:45Z</time>
      </trkpt>
      <trkpt lat="42.28294" lon="-1.74292">
        <ele>318.398</ele>
        <time>2013-05-06T18:03:31Z</time>
      </trkpt>
      <trkpt lat="42.28295" lon="-1.74297">
        <ele>317.915</ele>
        <time>2013-05-06T18:03:10Z</time>
      </trkpt>
      <trkpt lat="42.28296" lon="-1.7432">
        <ele>317.926</ele>
        <time>2013-05-06T18:03:03Z</time>
      </trkpt>
      <trkpt lat="42.28294" lon="-1.74325">
        <ele>317.908</ele>
        <time>2013-05-06T18:03:02Z</time>
      </trkpt>
      <trkpt lat="42.28291" lon="-1.74329">
        <ele>317.94</ele>
        <time>2013-05-06T18:03:01Z</time>
      </trkpt>
      <trkpt lat="42.28245" lon="-1.74368">
        <ele>318.331</ele>
        <time>2013-05-06T18:02:48Z</time>
      </trkpt>
      <trkpt lat="42.28223" lon="-1.74384">
        <ele>318.883</ele>
        <time>2013-05-06T18:02:42Z</time>
      </trkpt>
      <trkpt lat="42.28168" lon="-1.74425">
        <ele>319.348</ele>
        <time>2013-05-06T18:02:28Z</time>
      </trkpt>
      <trkpt lat="42.28114" lon="-1.74465">
        <ele>320.355</ele>
        <time>2013-05-06T18:02:13Z</time>
      </trkpt>
      <trkpt lat="42.28063" lon="-1.74498">
        <ele>320.762</ele>
        <time>2013-05-06T18:02:00Z</time>
      </trkpt>
      <trkpt lat="42.28014" lon="-1.74517">
        <ele>320.72</ele>
        <time>2013-05-06T18:01:48Z</time>
      </trkpt>
      <trkpt lat="42.27954" lon="-1.74539">
        <ele>321.253</ele>
        <time>2013-05-06T18:01:36Z</time>
      </trkpt>
      <trkpt lat="42.27878" lon="-1.74566">
        <ele>322.249</ele>
        <time>2013-05-06T18:01:25Z</time>
      </trkpt>
      <trkpt lat="42.27819" lon="-1.74585">
        <ele>325.102</ele>
        <time>2013-05-06T18:01:17Z</time>
      </trkpt>
      <trkpt lat="42.27768" lon="-1.74602">
        <ele>327.522</ele>
        <time>2013-05-06T18:01:08Z</time>
      </trkpt>
      <trkpt lat="42.27763" lon="-1.74603">
        <ele>327.508</ele>
        <time>2013-05-06T18:01:07Z</time>
      </trkpt>
      <trkpt lat="42.2776" lon="-1.74605">
        <ele>328.995</ele>
        <time>2013-05-06T18:01:06Z</time>
      </trkpt>
      <trkpt lat="42.27756" lon="-1.74606">
        <ele>328.936</ele>
        <time>2013-05-06T18:01:05Z</time>
      </trkpt>
      <trkpt lat="42.27753" lon="-1.74608">
        <ele>328.918</ele>
        <time>2013-05-06T18:01:04Z</time>
      </trkpt>
      <trkpt lat="42.2775" lon="-1.7461">
        <ele>328.923</ele>
        <time>2013-05-06T18:01:03Z</time>
      </trkpt>
      <trkpt lat="42.27748" lon="-1.74612">
        <ele>328.96</ele>
        <time>2013-05-06T18:01:02Z</time>
      </trkpt>
      <trkpt lat="42.27746" lon="-1.74616">
        <ele>328.917</ele>
        <time>2013-05-06T18:01:00Z</time>
      </trkpt>
      <trkpt lat="42.27745" lon="-1.74619">
        <ele>328.965</ele>
        <time>2013-05-06T18:00:57Z</time>
      </trkpt>
      <trkpt lat="42.27748" lon="-1.74635">
        <ele>328.918</ele>
        <time>2013-05-06T18:00:50Z</time>
      </trkpt>
      <trkpt lat="42.2777" lon="-1.74665">
        <ele>328.961</ele>
        <time>2013-05-06T18:00:40Z</time>
      </trkpt>
      <trkpt lat="42.27777" lon="-1.74668">
        <ele>328.921</ele>
        <time>2013-05-06T18:00:36Z</time>
      </trkpt>
      <trkpt lat="42.2778" lon="-1.74669">
        <ele>328.913</ele>
        <time>2013-05-06T18:00:34Z</time>
      </trkpt>
      <trkpt lat="42.27787" lon="-1.74667">
        <ele>328.408</ele>
        <time>2013-05-06T18:00:30Z</time>
      </trkpt>
      <trkpt lat="42.27808" lon="-1.7466">
        <ele>327.077</ele>
        <time>2013-05-06T18:00:17Z</time>
      </trkpt>
      <trkpt lat="42.27827" lon="-1.74649">
        <ele>325.518</ele>
        <time>2013-05-06T18:00:04Z</time>
      </trkpt>
      <trkpt lat="42.2783" lon="-1.74649">
        <ele>325.59</ele>
        <time>2013-05-06T18:00:02Z</time>
      </trkpt>
      <trkpt lat="42.27829" lon="-1.74651">
        <ele>325.575</ele>
        <time>2013-05-06T18:00:00Z</time>
      </trkpt>
      <trkpt lat="42.27826" lon="-1.74652">
        <ele>325.192</ele>
        <time>2013-05-06T17:59:58Z</time>
      </trkpt>
      <trkpt lat="42.27824" lon="-1.74653">
        <ele>325.149</ele>
        <time>2013-05-06T17:59:56Z</time>
      </trkpt>
      <trkpt lat="42.27825" lon="-1.74655">
        <ele>324.627</ele>
        <time>2013-05-06T17:59:54Z</time>
      </trkpt>
      <trkpt lat="42.27827" lon="-1.74655">
        <ele>324.69</ele>
        <time>2013-05-06T17:59:52Z</time>
      </trkpt>
      <trkpt lat="42.2783" lon="-1.74654">
        <ele>324.153</ele>
        <time>2013-05-06T17:59:50Z</time>
      </trkpt>
      <trkpt lat="42.27833" lon="-1.74654">
        <ele>324.104</ele>
        <time>2013-05-06T17:59:48Z</time>
      </trkpt>
      <trkpt lat="42.27835" lon="-1.74654">
        <ele>324.114</ele>
        <time>2013-05-06T17:59:46Z</time>
      </trkpt>
      <trkpt lat="42.27838" lon="-1.74654">
        <ele>323.608</ele>
        <time>2013-05-06T17:59:43Z</time>
      </trkpt>
      <trkpt lat="42.27861" lon="-1.74651">
        <ele>322.246</ele>
        <time>2013-05-06T17:59:34Z</time>
      </trkpt>
      <trkpt lat="42.27897" lon="-1.74636">
        <ele>321.277</ele>
        <time>2013-05-06T17:59:23Z</time>
      </trkpt>
      <trkpt lat="42.2793" lon="-1.74622">
        <ele>319.889</ele>
        <time>2013-05-06T17:59:14Z</time>
      </trkpt>
      <trkpt lat="42.27971" lon="-1.74604">
        <ele>319.894</ele>
        <time>2013-05-06T17:59:02Z</time>
      </trkpt>
      <trkpt lat="42.27974" lon="-1.74604">
        <ele>319.811</ele>
        <time>2013-05-06T17:59:01Z</time>
      </trkpt>
      <trkpt lat="42.27977" lon="-1.74603">
        <ele>319.838</ele>
        <time>2013-05-06T17:59:00Z</time>
      </trkpt>
      <trkpt lat="42.27979" lon="-1.74602">
        <ele>319.846</ele>
        <time>2013-05-06T17:58:59Z</time>
      </trkpt>
      <trkpt lat="42.2798" lon="-1.74598">
        <ele>319.829</ele>
        <time>2013-05-06T17:58:57Z</time>
      </trkpt>
      <trkpt lat="42.27978" lon="-1.74596">
        <ele>319.827</ele>
        <time>2013-05-06T17:58:42Z</time>
      </trkpt>
      <trkpt lat="42.27977" lon="-1.74599">
        <ele>319.868</ele>
        <time>2013-05-06T17:58:31Z</time>
      </trkpt>
      <trkpt lat="42.27977" lon="-1.74602">
        <ele>319.814</ele>
        <time>2013-05-06T17:58:25Z</time>
      </trkpt>
      <trkpt lat="42.28006" lon="-1.74593">
        <ele>319.808</ele>
        <time>2013-05-06T17:58:14Z</time>
      </trkpt>
      <trkpt lat="42.28037" lon="-1.74589">
        <ele>320.363</ele>
        <time>2013-05-06T17:58:06Z</time>
      </trkpt>
      <trkpt lat="42.28041" lon="-1.74589">
        <ele>320.384</ele>
        <time>2013-05-06T17:58:05Z</time>
      </trkpt>
      <trkpt lat="42.28062" lon="-1.74589">
        <ele>320.726</ele>
        <time>2013-05-06T17:57:59Z</time>
      </trkpt>
      <trkpt lat="42.28078" lon="-1.7459">
        <ele>322.261</ele>
        <time>2013-05-06T17:57:49Z</time>
      </trkpt>
      <trkpt lat="42.2808" lon="-1.74591">
        <ele>322.248</ele>
        <time>2013-05-06T17:57:18Z</time>
      </trkpt>
      <trkpt lat="42.28079" lon="-1.74586">
        <ele>321.215</ele>
        <time>2013-05-06T17:56:23Z</time>
      </trkpt>
      <trkpt lat="42.28079" lon="-1.7459">
        <ele>321.763</ele>
        <time>2013-05-06T17:55:00Z</time>
      </trkpt>
      <trkpt lat="42.28107" lon="-1.74579">
        <ele>320.776</ele>
        <time>2013-05-06T17:54:45Z</time>
      </trkpt>
      <trkpt lat="42.28127" lon="-1.74566">
        <ele>319.889</ele>
        <time>2013-05-06T17:54:37Z</time>
      </trkpt>
      <trkpt lat="42.28139" lon="-1.74548">
        <ele>318.306</ele>
        <time>2013-05-06T17:54:31Z</time>
      </trkpt>
      <trkpt lat="42.28174" lon="-1.74528">
        <ele>318.326</ele>
        <time>2013-05-06T17:54:20Z</time>
      </trkpt>
      <trkpt lat="42.28199" lon="-1.74518">
        <ele>318.308</ele>
        <time>2013-05-06T17:54:14Z</time>
      </trkpt>
      <trkpt lat="42.28259" lon="-1.74491">
        <ele>318.379</ele>
        <time>2013-05-06T17:54:00Z</time>
      </trkpt>
      <trkpt lat="42.28289" lon="-1.7448">
        <ele>318.33</ele>
        <time>2013-05-06T17:53:53Z</time>
      </trkpt>
      <trkpt lat="42.28341" lon="-1.74456">
        <ele>318.312</ele>
        <time>2013-05-06T17:53:39Z</time>
      </trkpt>
      <trkpt lat="42.28349" lon="-1.74452">
        <ele>318.387</ele>
        <time>2013-05-06T17:53:37Z</time>
      </trkpt>
      <trkpt lat="42.28362" lon="-1.74446">
        <ele>318.854</ele>
        <time>2013-05-06T17:53:34Z</time>
      </trkpt>
      <trkpt lat="42.28397" lon="-1.74433">
        <ele>318.821</ele>
        <time>2013-05-06T17:53:27Z</time>
      </trkpt>
      <trkpt lat="42.28453" lon="-1.74409">
        <ele>318.819</ele>
        <time>2013-05-06T17:53:16Z</time>
      </trkpt>
      <trkpt lat="42.2854" lon="-1.74372">
        <ele>319.342</ele>
        <time>2013-05-06T17:52:59Z</time>
      </trkpt>
      <trkpt lat="42.286" lon="-1.74348">
        <ele>319.335</ele>
        <time>2013-05-06T17:52:47Z</time>
      </trkpt>
      <trkpt lat="42.28649" lon="-1.74327">
        <ele>319.886</ele>
        <time>2013-05-06T17:52:38Z</time>
      </trkpt>
      <trkpt lat="42.28745" lon="-1.74288">
        <ele>320.314</ele>
        <time>2013-05-06T17:52:22Z</time>
      </trkpt>
      <trkpt lat="42.28822" lon="-1.74258">
        <ele>321.208</ele>
        <time>2013-05-06T17:52:08Z</time>
      </trkpt>
      <trkpt lat="42.2889" lon="-1.74231">
        <ele>322.734</ele>
        <time>2013-05-06T17:51:55Z</time>
      </trkpt>
      <trkpt lat="42.28958" lon="-1.74207">
        <ele>322.255</ele>
        <time>2013-05-06T17:51:41Z</time>
      </trkpt>
      <trkpt lat="42.28999" lon="-1.74191">
        <ele>320.727</ele>
        <time>2013-05-06T17:51:33Z</time>
      </trkpt>
      <trkpt lat="42.29069" lon="-1.74162">
        <ele>320.732</ele>
        <time>2013-05-06T17:51:19Z</time>
      </trkpt>
      <trkpt lat="42.29134" lon="-1.74133">
        <ele>320.789</ele>
        <time>2013-05-06T17:51:06Z</time>
      </trkpt>
      <trkpt lat="42.29217" lon="-1.741">
        <ele>320.786</ele>
        <time>2013-05-06T17:50:52Z</time>
      </trkpt>
      <trkpt lat="42.29313" lon="-1.74062">
        <ele>320.764</ele>
        <time>2013-05-06T17:50:36Z</time>
      </trkpt>
      <trkpt lat="42.29405" lon="-1.74027">
        <ele>321.257</ele>
        <time>2013-05-06T17:50:21Z</time>
      </trkpt>
      <trkpt lat="42.29502" lon="-1.73991">
        <ele>321.253</ele>
        <time>2013-05-06T17:50:05Z</time>
      </trkpt>
      <trkpt lat="42.29582" lon="-1.73963">
        <ele>322.204</ele>
        <time>2013-05-06T17:49:52Z</time>
      </trkpt>
      <trkpt lat="42.29642" lon="-1.73941">
        <ele>322.714</ele>
        <time>2013-05-06T17:49:41Z</time>
      </trkpt>
      <trkpt lat="42.29698" lon="-1.73916">
        <ele>322.708</ele>
        <time>2013-05-06T17:49:30Z</time>
      </trkpt>
      <trkpt lat="42.29767" lon="-1.73886">
        <ele>322.746</ele>
        <time>2013-05-06T17:49:19Z</time>
      </trkpt>
      <trkpt lat="42.29852" lon="-1.73854">
        <ele>323.127</ele>
        <time>2013-05-06T17:49:07Z</time>
      </trkpt>
      <trkpt lat="42.29936" lon="-1.73824">
        <ele>325.169</ele>
        <time>2013-05-06T17:48:57Z</time>
      </trkpt>
      <trkpt lat="42.30026" lon="-1.73792">
        <ele>328.464</ele>
        <time>2013-05-06T17:48:46Z</time>
      </trkpt>
      <trkpt lat="42.30105" lon="-1.73758">
        <ele>331.851</ele>
        <time>2013-05-06T17:48:35Z</time>
      </trkpt>
      <trkpt lat="42.30161" lon="-1.73737">
        <ele>333.758</ele>
        <time>2013-05-06T17:48:25Z</time>
      </trkpt>
      <trkpt lat="42.30165" lon="-1.73736">
        <ele>334.226</ele>
        <time>2013-05-06T17:48:24Z</time>
      </trkpt>
      <trkpt lat="42.3017" lon="-1.73736">
        <ele>333.729</ele>
        <time>2013-05-06T17:48:23Z</time>
      </trkpt>
      <trkpt lat="42.30174" lon="-1.73737">
        <ele>334.251</ele>
        <time>2013-05-06T17:48:22Z</time>
      </trkpt>
      <trkpt lat="42.30206" lon="-1.73742">
        <ele>335.201</ele>
        <time>2013-05-06T17:48:13Z</time>
      </trkpt>
      <trkpt lat="42.30249" lon="-1.73745">
        <ele>335.211</ele>
        <time>2013-05-06T17:48:01Z</time>
      </trkpt>
      <trkpt lat="42.30296" lon="-1.73746">
        <ele>335.208</ele>
        <time>2013-05-06T17:47:50Z</time>
      </trkpt>
      <trkpt lat="42.30337" lon="-1.73747">
        <ele>335.246</ele>
        <time>2013-05-06T17:47:39Z</time>
      </trkpt>
      <trkpt lat="42.30354" lon="-1.73742">
        <ele>335.237</ele>
        <time>2013-05-06T17:47:30Z</time>
      </trkpt>
      <trkpt lat="42.30358" lon="-1.73741">
        <ele>335.249</ele>
        <time>2013-05-06T17:46:45Z</time>
      </trkpt>
      <trkpt lat="42.30362" lon="-1.73733">
        <ele>335.294</ele>
        <time>2013-05-06T17:46:37Z</time>
      </trkpt>
      <trkpt lat="42.3036" lon="-1.7371">
        <ele>334.741</ele>
        <time>2013-05-06T17:46:30Z</time>
      </trkpt>
      <trkpt lat="42.30361" lon="-1.73685">
        <ele>334.238</ele>
        <time>2013-05-06T17:46:21Z</time>
      </trkpt>
      <trkpt lat="42.30378" lon="-1.73658">
        <ele>333.776</ele>
        <time>2013-05-06T17:46:11Z</time>
      </trkpt>
      <trkpt lat="42.30436" lon="-1.73631">
        <ele>333.219</ele>
        <time>2013-05-06T17:45:53Z</time>
      </trkpt>
      <trkpt lat="42.30488" lon="-1.73609">
        <ele>330.476</ele>
        <time>2013-05-06T17:45:38Z</time>
      </trkpt>
      <trkpt lat="42.30549" lon="-1.73583">
        <ele>328.49</ele>
        <time>2013-05-06T17:45:22Z</time>
      </trkpt>
      <trkpt lat="42.30619" lon="-1.73553">
        <ele>327.019</ele>
        <time>2013-05-06T17:45:08Z</time>
      </trkpt>
      <trkpt lat="42.30716" lon="-1.73511">
        <ele>327.008</ele>
        <time>2013-05-06T17:44:51Z</time>
      </trkpt>
      <trkpt lat="42.30832" lon="-1.73456">
        <ele>327.568</ele>
        <time>2013-05-06T17:44:31Z</time>
      </trkpt>
      <trkpt lat="42.30908" lon="-1.73423">
        <ele>328.089</ele>
        <time>2013-05-06T17:44:18Z</time>
      </trkpt>
      <trkpt lat="42.31005" lon="-1.73385">
        <ele>328.061</ele>
        <time>2013-05-06T17:44:01Z</time>
      </trkpt>
      <trkpt lat="42.31102" lon="-1.73348">
        <ele>328.086</ele>
        <time>2013-05-06T17:43:44Z</time>
      </trkpt>
      <trkpt lat="42.31107" lon="-1.73345">
        <ele>328.073</ele>
        <time>2013-05-06T17:43:43Z</time>
      </trkpt>
      <trkpt lat="42.31153" lon="-1.73328">
        <ele>328.48</ele>
        <time>2013-05-06T17:43:35Z</time>
      </trkpt>
      <trkpt lat="42.31227" lon="-1.73299">
        <ele>328.938</ele>
        <time>2013-05-06T17:43:23Z</time>
      </trkpt>
      <trkpt lat="42.3132" lon="-1.73264">
        <ele>328.961</ele>
        <time>2013-05-06T17:43:10Z</time>
      </trkpt>
      <trkpt lat="42.31406" lon="-1.7321">
        <ele>332.838</ele>
        <time>2013-05-06T17:42:58Z</time>
      </trkpt>
      <trkpt lat="42.31436" lon="-1.73187">
        <ele>333.77</ele>
        <time>2013-05-06T17:42:53Z</time>
      </trkpt>
      <trkpt lat="42.3151" lon="-1.73134">
        <ele>335.217</ele>
        <time>2013-05-06T17:42:39Z</time>
      </trkpt>
      <trkpt lat="42.31582" lon="-1.7308">
        <ele>335.208</ele>
        <time>2013-05-06T17:42:24Z</time>
      </trkpt>
      <trkpt lat="42.31636" lon="-1.73039">
        <ele>335.244</ele>
        <time>2013-05-06T17:42:12Z</time>
      </trkpt>
      <trkpt lat="42.31727" lon="-1.72974">
        <ele>335.285</ele>
        <time>2013-05-06T17:41:55Z</time>
      </trkpt>
      <trkpt lat="42.3181" lon="-1.72915">
        <ele>334.277</ele>
        <time>2013-05-06T17:41:39Z</time>
      </trkpt>
      <trkpt lat="42.31896" lon="-1.72852">
        <ele>334.252</ele>
        <time>2013-05-06T17:41:22Z</time>
      </trkpt>
      <trkpt lat="42.31981" lon="-1.72792">
        <ele>335.669</ele>
        <time>2013-05-06T17:41:05Z</time>
      </trkpt>
      <trkpt lat="42.32043" lon="-1.72748">
        <ele>334.226</ele>
        <time>2013-05-06T17:40:52Z</time>
      </trkpt>
      <trkpt lat="42.3209" lon="-1.72714">
        <ele>334.244</ele>
        <time>2013-05-06T17:40:39Z</time>
      </trkpt>
      <trkpt lat="42.32117" lon="-1.72699">
        <ele>333.237</ele>
        <time>2013-05-06T17:40:28Z</time>
      </trkpt>
      <trkpt lat="42.32119" lon="-1.72699">
        <ele>333.272</ele>
        <time>2013-05-06T17:40:27Z</time>
      </trkpt>
      <trkpt lat="42.32124" lon="-1.72713">
        <ele>332.813</ele>
        <time>2013-05-06T17:40:20Z</time>
      </trkpt>
      <trkpt lat="42.32124" lon="-1.72715">
        <ele>332.814</ele>
        <time>2013-05-06T17:40:19Z</time>
      </trkpt>
      <trkpt lat="42.32123" lon="-1.72717">
        <ele>332.808</ele>
        <time>2013-05-06T17:40:18Z</time>
      </trkpt>
      <trkpt lat="42.32095" lon="-1.72736">
        <ele>330.468</ele>
        <time>2013-05-06T17:40:05Z</time>
      </trkpt>
      <trkpt lat="42.32063" lon="-1.72763">
        <ele>328.979</ele>
        <time>2013-05-06T17:39:51Z</time>
      </trkpt>
      <trkpt lat="42.3206" lon="-1.72765">
        <ele>328.991</ele>
        <time>2013-05-06T17:39:50Z</time>
      </trkpt>
      <trkpt lat="42.32047" lon="-1.72774">
        <ele>327.566</ele>
        <time>2013-05-06T17:39:44Z</time>
      </trkpt>
      <trkpt lat="42.32045" lon="-1.72775">
        <ele>327.583</ele>
        <time>2013-05-06T17:39:43Z</time>
      </trkpt>
      <trkpt lat="42.32042" lon="-1.72777">
        <ele>327.52</ele>
        <time>2013-05-06T17:39:42Z</time>
      </trkpt>
      <trkpt lat="42.3204" lon="-1.72779">
        <ele>327.528</ele>
        <time>2013-05-06T17:39:41Z</time>
      </trkpt>
      <trkpt lat="42.32038" lon="-1.7278">
        <ele>327.551</ele>
        <time>2013-05-06T17:39:40Z</time>
      </trkpt>
      <trkpt lat="42.32036" lon="-1.72782">
        <ele>327.551</ele>
        <time>2013-05-06T17:39:39Z</time>
      </trkpt>
      <trkpt lat="42.32034" lon="-1.72784">
        <ele>327.501</ele>
        <time>2013-05-06T17:39:38Z</time>
      </trkpt>
      <trkpt lat="42.32032" lon="-1.72786">
        <ele>327.511</ele>
        <time>2013-05-06T17:39:37Z</time>
      </trkpt>
      <trkpt lat="42.32016" lon="-1.72784">
        <ele>327.508</ele>
        <time>2013-05-06T17:39:30Z</time>
      </trkpt>
      <trkpt lat="42.32012" lon="-1.72786">
        <ele>327.046</ele>
        <time>2013-05-06T17:36:15Z</time>
      </trkpt>
      <trkpt lat="42.32048" lon="-1.72814">
        <ele>327.587</ele>
        <time>2013-05-06T17:36:03Z</time>
      </trkpt>
      <trkpt lat="42.32085" lon="-1.72842">
        <ele>327.519</ele>
        <time>2013-05-06T17:35:51Z</time>
      </trkpt>
      <trkpt lat="42.32139" lon="-1.72892">
        <ele>327.554</ele>
        <time>2013-05-06T17:35:36Z</time>
      </trkpt>
      <trkpt lat="42.32153" lon="-1.72908">
        <ele>327.561</ele>
        <time>2013-05-06T17:35:32Z</time>
      </trkpt>
      <trkpt lat="42.3216" lon="-1.72923">
        <ele>327.548</ele>
        <time>2013-05-06T17:35:29Z</time>
      </trkpt>
      <trkpt lat="42.3218" lon="-1.72965">
        <ele>327.576</ele>
        <time>2013-05-06T17:35:21Z</time>
      </trkpt>
      <trkpt lat="42.32215" lon="-1.73023">
        <ele>327.589</ele>
        <time>2013-05-06T17:35:09Z</time>
      </trkpt>
      <trkpt lat="42.32229" lon="-1.73042">
        <ele>328.034</ele>
        <time>2013-05-06T17:35:05Z</time>
      </trkpt>
      <trkpt lat="42.32246" lon="-1.73056">
        <ele>328.055</ele>
        <time>2013-05-06T17:35:01Z</time>
      </trkpt>
      <trkpt lat="42.32291" lon="-1.73085">
        <ele>328.01</ele>
        <time>2013-05-06T17:34:51Z</time>
      </trkpt>
      <trkpt lat="42.3232" lon="-1.73106">
        <ele>328.908</ele>
        <time>2013-05-06T17:34:44Z</time>
      </trkpt>
      <trkpt lat="42.3235" lon="-1.73125">
        <ele>328.964</ele>
        <time>2013-05-06T17:34:36Z</time>
      </trkpt>
      <trkpt lat="42.32354" lon="-1.73128">
        <ele>328.925</ele>
        <time>2013-05-06T17:34:35Z</time>
      </trkpt>
      <trkpt lat="42.32422" lon="-1.73175">
        <ele>328.927</ele>
        <time>2013-05-06T17:34:19Z</time>
      </trkpt>
      <trkpt lat="42.32475" lon="-1.7321">
        <ele>328.012</ele>
        <time>2013-05-06T17:34:07Z</time>
      </trkpt>
      <trkpt lat="42.32539" lon="-1.73254">
        <ele>328.049</ele>
        <time>2013-05-06T17:33:52Z</time>
      </trkpt>
      <trkpt lat="42.32599" lon="-1.73295">
        <ele>328.096</ele>
        <time>2013-05-06T17:33:37Z</time>
      </trkpt>
      <trkpt lat="42.32653" lon="-1.73332">
        <ele>328.014</ele>
        <time>2013-05-06T17:33:23Z</time>
      </trkpt>
      <trkpt lat="42.32711" lon="-1.73371">
        <ele>328.027</ele>
        <time>2013-05-06T17:33:08Z</time>
      </trkpt>
      <trkpt lat="42.32719" lon="-1.73377">
        <ele>328.436</ele>
        <time>2013-05-06T17:33:06Z</time>
      </trkpt>
      <trkpt lat="42.32753" lon="-1.73398">
        <ele>328.917</ele>
        <time>2013-05-06T17:32:58Z</time>
      </trkpt>
      <trkpt lat="42.32757" lon="-1.73401">
        <ele>328.918</ele>
        <time>2013-05-06T17:32:57Z</time>
      </trkpt>
      <trkpt lat="42.32761" lon="-1.73404">
        <ele>328.908</ele>
        <time>2013-05-06T17:32:56Z</time>
      </trkpt>
      <trkpt lat="42.32799" lon="-1.73428">
        <ele>328.914</ele>
        <time>2013-05-06T17:32:47Z</time>
      </trkpt>
      <trkpt lat="42.32862" lon="-1.73467">
        <ele>329.425</ele>
        <time>2013-05-06T17:32:34Z</time>
      </trkpt>
      <trkpt lat="42.32914" lon="-1.73508">
        <ele>329.927</ele>
        <time>2013-05-06T17:32:24Z</time>
      </trkpt>
      <trkpt lat="42.32961" lon="-1.73538">
        <ele>331.382</ele>
        <time>2013-05-06T17:32:14Z</time>
      </trkpt>
      <trkpt lat="42.32965" lon="-1.7354">
        <ele>331.399</ele>
        <time>2013-05-06T17:32:13Z</time>
      </trkpt>
      <trkpt lat="42.32969" lon="-1.73541">
        <ele>331.376</ele>
        <time>2013-05-06T17:32:12Z</time>
      </trkpt>
      <trkpt lat="42.32993" lon="-1.7351">
        <ele>332.354</ele>
        <time>2013-05-06T17:32:03Z</time>
      </trkpt>
      <trkpt lat="42.32996" lon="-1.73505">
        <ele>332.347</ele>
        <time>2013-05-06T17:32:02Z</time>
      </trkpt>
      <trkpt lat="42.33008" lon="-1.73496">
        <ele>333.729</ele>
        <time>2013-05-06T17:31:59Z</time>
      </trkpt>
      <trkpt lat="42.33012" lon="-1.73493">
        <ele>333.7</ele>
        <time>2013-05-06T17:31:58Z</time>
      </trkpt>
      <trkpt lat="42.33016" lon="-1.73489">
        <ele>333.72</ele>
        <time>2013-05-06T17:31:57Z</time>
      </trkpt>
      <trkpt lat="42.33028" lon="-1.73466">
        <ele>333.708</ele>
        <time>2013-05-06T17:31:53Z</time>
      </trkpt>
      <trkpt lat="42.33072" lon="-1.73373">
        <ele>333.733</ele>
        <time>2013-05-06T17:31:38Z</time>
      </trkpt>
      <trkpt lat="42.33124" lon="-1.73261">
        <ele>332.864</ele>
        <time>2013-05-06T17:31:24Z</time>
      </trkpt>
      <trkpt lat="42.33187" lon="-1.73125">
        <ele>331.396</ele>
        <time>2013-05-06T17:31:09Z</time>
      </trkpt>
      <trkpt lat="42.3324" lon="-1.72983">
        <ele>331.341</ele>
        <time>2013-05-06T17:30:55Z</time>
      </trkpt>
      <trkpt lat="42.33275" lon="-1.72832">
        <ele>331.878</ele>
        <time>2013-05-06T17:30:43Z</time>
      </trkpt>
      <trkpt lat="42.33292" lon="-1.72754">
        <ele>335.285</ele>
        <time>2013-05-06T17:30:37Z</time>
      </trkpt>
      <trkpt lat="42.33313" lon="-1.72645">
        <ele>338.033</ele>
        <time>2013-05-06T17:30:26Z</time>
      </trkpt>
      <trkpt lat="42.3334" lon="-1.72517">
        <ele>337.146</ele>
        <time>2013-05-06T17:30:08Z</time>
      </trkpt>
      <trkpt lat="42.33364" lon="-1.72404">
        <ele>333.722</ele>
        <time>2013-05-06T17:29:51Z</time>
      </trkpt>
      <trkpt lat="42.33387" lon="-1.72301">
        <ele>330.462</ele>
        <time>2013-05-06T17:29:35Z</time>
      </trkpt>
      <trkpt lat="42.33402" lon="-1.72212">
        <ele>328.008</ele>
        <time>2013-05-06T17:29:23Z</time>
      </trkpt>
      <trkpt lat="42.33403" lon="-1.72203">
        <ele>328.008</ele>
        <time>2013-05-06T17:29:22Z</time>
      </trkpt>
      <trkpt lat="42.33431" lon="-1.72061">
        <ele>326.523</ele>
        <time>2013-05-06T17:29:06Z</time>
      </trkpt>
      <trkpt lat="42.33433" lon="-1.72052">
        <ele>326.534</ele>
        <time>2013-05-06T17:29:05Z</time>
      </trkpt>
      <trkpt lat="42.33436" lon="-1.72043">
        <ele>326.516</ele>
        <time>2013-05-06T17:29:04Z</time>
      </trkpt>
      <trkpt lat="42.33439" lon="-1.72035">
        <ele>326.541</ele>
        <time>2013-05-06T17:29:03Z</time>
      </trkpt>
      <trkpt lat="42.33442" lon="-1.72027">
        <ele>326.518</ele>
        <time>2013-05-06T17:29:02Z</time>
      </trkpt>
      <trkpt lat="42.33446" lon="-1.72019">
        <ele>326.535</ele>
        <time>2013-05-06T17:29:01Z</time>
      </trkpt>
      <trkpt lat="42.33451" lon="-1.72012">
        <ele>326.573</ele>
        <time>2013-05-06T17:29:00Z</time>
      </trkpt>
      <trkpt lat="42.33454" lon="-1.72004">
        <ele>326.516</ele>
        <time>2013-05-06T17:28:59Z</time>
      </trkpt>
      <trkpt lat="42.33457" lon="-1.71996">
        <ele>326.522</ele>
        <time>2013-05-06T17:28:58Z</time>
      </trkpt>
      <trkpt lat="42.33459" lon="-1.71987">
        <ele>326.562</ele>
        <time>2013-05-06T17:28:57Z</time>
      </trkpt>
      <trkpt lat="42.33462" lon="-1.71978">
        <ele>326.508</ele>
        <time>2013-05-06T17:28:56Z</time>
      </trkpt>
      <trkpt lat="42.33465" lon="-1.71971">
        <ele>327.008</ele>
        <time>2013-05-06T17:28:55Z</time>
      </trkpt>
      <trkpt lat="42.3347" lon="-1.71963">
        <ele>327.063</ele>
        <time>2013-05-06T17:28:54Z</time>
      </trkpt>
      <trkpt lat="42.33475" lon="-1.71956">
        <ele>327.094</ele>
        <time>2013-05-06T17:28:53Z</time>
      </trkpt>
      <trkpt lat="42.33486" lon="-1.71943">
        <ele>327.036</ele>
        <time>2013-05-06T17:28:51Z</time>
      </trkpt>
      <trkpt lat="42.33547" lon="-1.71913">
        <ele>327.011</ele>
        <time>2013-05-06T17:28:43Z</time>
      </trkpt>
      <trkpt lat="42.33641" lon="-1.7188">
        <ele>327.038</ele>
        <time>2013-05-06T17:28:30Z</time>
      </trkpt>
      <trkpt lat="42.33733" lon="-1.71808">
        <ele>327.085</ele>
        <time>2013-05-06T17:28:15Z</time>
      </trkpt>
      <trkpt lat="42.3382" lon="-1.71713">
        <ele>327.043</ele>
        <time>2013-05-06T17:27:59Z</time>
      </trkpt>
      <trkpt lat="42.33884" lon="-1.71607">
        <ele>329.466</ele>
        <time>2013-05-06T17:27:46Z</time>
      </trkpt>
      <trkpt lat="42.3392" lon="-1.71523">
        <ele>332.363</ele>
        <time>2013-05-06T17:27:37Z</time>
      </trkpt>
      <trkpt lat="42.33923" lon="-1.71514">
        <ele>332.344</ele>
        <time>2013-05-06T17:27:36Z</time>
      </trkpt>
      <trkpt lat="42.33949" lon="-1.71422">
        <ele>335.618</ele>
        <time>2013-05-06T17:27:25Z</time>
      </trkpt>
      <trkpt lat="42.33965" lon="-1.71332">
        <ele>336.608</ele>
        <time>2013-05-06T17:27:11Z</time>
      </trkpt>
      <trkpt lat="42.3397" lon="-1.71244">
        <ele>336.627</ele>
        <time>2013-05-06T17:26:55Z</time>
      </trkpt>
      <trkpt lat="42.33967" lon="-1.71166">
        <ele>335.638</ele>
        <time>2013-05-06T17:26:39Z</time>
      </trkpt>
      <trkpt lat="42.33966" lon="-1.71107">
        <ele>334.25</ele>
        <time>2013-05-06T17:26:25Z</time>
      </trkpt>
      <trkpt lat="42.33966" lon="-1.71077">
        <ele>332.895</ele>
        <time>2013-05-06T17:26:18Z</time>
      </trkpt>
      <trkpt lat="42.33967" lon="-1.71002">
        <ele>329.412</ele>
        <time>2013-05-06T17:26:02Z</time>
      </trkpt>
      <trkpt lat="42.33973" lon="-1.70927">
        <ele>326.569</ele>
        <time>2013-05-06T17:25:48Z</time>
      </trkpt>
      <trkpt lat="42.33992" lon="-1.70825">
        <ele>325.117</ele>
        <time>2013-05-06T17:25:32Z</time>
      </trkpt>
      <trkpt lat="42.3402" lon="-1.70715">
        <ele>325.51</ele>
        <time>2013-05-06T17:25:15Z</time>
      </trkpt>
      <trkpt lat="42.34051" lon="-1.70613">
        <ele>325.529</ele>
        <time>2013-05-06T17:24:59Z</time>
      </trkpt>
      <trkpt lat="42.34086" lon="-1.70516">
        <ele>326</ele>
        <time>2013-05-06T17:24:43Z</time>
      </trkpt>
      <trkpt lat="42.34122" lon="-1.70445">
        <ele>326.52</ele>
        <time>2013-05-06T17:24:29Z</time>
      </trkpt>
      <trkpt lat="42.3417" lon="-1.70352">
        <ele>326.508</ele>
        <time>2013-05-06T17:24:10Z</time>
      </trkpt>
      <trkpt lat="42.34203" lon="-1.70288">
        <ele>327.013</ele>
        <time>2013-05-06T17:23:56Z</time>
      </trkpt>
      <trkpt lat="42.34205" lon="-1.70283">
        <ele>327.074</ele>
        <time>2013-05-06T17:23:55Z</time>
      </trkpt>
      <trkpt lat="42.34224" lon="-1.70248">
        <ele>327.076</ele>
        <time>2013-05-06T17:23:47Z</time>
      </trkpt>
      <trkpt lat="42.34226" lon="-1.70245">
        <ele>327.081</ele>
        <time>2013-05-06T17:23:46Z</time>
      </trkpt>
      <trkpt lat="42.34229" lon="-1.70242">
        <ele>327.058</ele>
        <time>2013-05-06T17:23:45Z</time>
      </trkpt>
      <trkpt lat="42.34236" lon="-1.70242">
        <ele>327.065</ele>
        <time>2013-05-06T17:23:41Z</time>
      </trkpt>
      <trkpt lat="42.34263" lon="-1.70268">
        <ele>327.543</ele>
        <time>2013-05-06T17:23:32Z</time>
      </trkpt>
      <trkpt lat="42.34315" lon="-1.70338">
        <ele>329.496</ele>
        <time>2013-05-06T17:23:23Z</time>
      </trkpt>
      <trkpt lat="42.34357" lon="-1.7039">
        <ele>332.869</ele>
        <time>2013-05-06T17:23:16Z</time>
      </trkpt>
      <trkpt lat="42.34395" lon="-1.70432">
        <ele>336.104</ele>
        <time>2013-05-06T17:23:08Z</time>
      </trkpt>
      <trkpt lat="42.34423" lon="-1.70462">
        <ele>337.624</ele>
        <time>2013-05-06T17:22:58Z</time>
      </trkpt>
      <trkpt lat="42.34424" lon="-1.70464">
        <ele>337.608</ele>
        <time>2013-05-06T17:22:57Z</time>
      </trkpt>
      <trkpt lat="42.34426" lon="-1.70466">
        <ele>337.697</ele>
        <time>2013-05-06T17:22:56Z</time>
      </trkpt>
      <trkpt lat="42.34428" lon="-1.70469">
        <ele>337.658</ele>
        <time>2013-05-06T17:22:54Z</time>
      </trkpt>
      <trkpt lat="42.3443" lon="-1.70472">
        <ele>337.18</ele>
        <time>2013-05-06T17:21:40Z</time>
      </trkpt>
      <trkpt lat="42.34451" lon="-1.70494">
        <ele>336.615</ele>
        <time>2013-05-06T17:21:27Z</time>
      </trkpt>
      <trkpt lat="42.34479" lon="-1.70522">
        <ele>335.222</ele>
        <time>2013-05-06T17:21:12Z</time>
      </trkpt>
      <trkpt lat="42.34502" lon="-1.70541">
        <ele>333.259</ele>
        <time>2013-05-06T17:20:59Z</time>
      </trkpt>
      <trkpt lat="42.34526" lon="-1.7056">
        <ele>330.827</ele>
        <time>2013-05-06T17:20:46Z</time>
      </trkpt>
      <trkpt lat="42.34552" lon="-1.70577">
        <ele>328.42</ele>
        <time>2013-05-06T17:20:35Z</time>
      </trkpt>
      <trkpt lat="42.34555" lon="-1.7058">
        <ele>328.077</ele>
        <time>2013-05-06T17:20:34Z</time>
      </trkpt>
      <trkpt lat="42.34622" lon="-1.70623">
        <ele>327.061</ele>
        <time>2013-05-06T17:20:19Z</time>
      </trkpt>
      <trkpt lat="42.34662" lon="-1.7065">
        <ele>327.027</ele>
        <time>2013-05-06T17:20:10Z</time>
      </trkpt>
      <trkpt lat="42.34683" lon="-1.70661">
        <ele>327.008</ele>
        <time>2013-05-06T17:20:03Z</time>
      </trkpt>
      <trkpt lat="42.34684" lon="-1.70662">
        <ele>327.088</ele>
        <time>2013-05-06T17:20:02Z</time>
      </trkpt>
      <trkpt lat="42.34699" lon="-1.70659">
        <ele>327.029</ele>
        <time>2013-05-06T17:19:56Z</time>
      </trkpt>
      <trkpt lat="42.34696" lon="-1.70639">
        <ele>327.521</ele>
        <time>2013-05-06T17:19:52Z</time>
      </trkpt>
      <trkpt lat="42.34692" lon="-1.70617">
        <ele>327.516</ele>
        <time>2013-05-06T17:19:48Z</time>
      </trkpt>
      <trkpt lat="42.34691" lon="-1.70604">
        <ele>328.093</ele>
        <time>2013-05-06T17:19:46Z</time>
      </trkpt>
      <trkpt lat="42.34705" lon="-1.70509">
        <ele>328.06</ele>
        <time>2013-05-06T17:19:31Z</time>
      </trkpt>
      <trkpt lat="42.34725" lon="-1.70397">
        <ele>328.068</ele>
        <time>2013-05-06T17:19:13Z</time>
      </trkpt>
      <trkpt lat="42.34739" lon="-1.70317">
        <ele>328.081</ele>
        <time>2013-05-06T17:19:00Z</time>
      </trkpt>
      <trkpt lat="42.34741" lon="-1.70304">
        <ele>328.052</ele>
        <time>2013-05-06T17:18:58Z</time>
      </trkpt>
      <trkpt lat="42.3476" lon="-1.702">
        <ele>328.053</ele>
        <time>2013-05-06T17:18:41Z</time>
      </trkpt>
      <trkpt lat="42.34777" lon="-1.70105">
        <ele>328.008</ele>
        <time>2013-05-06T17:18:25Z</time>
      </trkpt>
      <trkpt lat="42.34781" lon="-1.70084">
        <ele>328.008</ele>
        <time>2013-05-06T17:18:21Z</time>
      </trkpt>
      <trkpt lat="42.34795" lon="-1.70004">
        <ele>328.016</ele>
        <time>2013-05-06T17:18:06Z</time>
      </trkpt>
      <trkpt lat="42.34809" lon="-1.69936">
        <ele>329.477</ele>
        <time>2013-05-06T17:17:53Z</time>
      </trkpt>
      <trkpt lat="42.3481" lon="-1.69931">
        <ele>329.439</ele>
        <time>2013-05-06T17:17:52Z</time>
      </trkpt>
      <trkpt lat="42.34811" lon="-1.6992">
        <ele>328.044</ele>
        <time>2013-05-06T17:17:50Z</time>
      </trkpt>
      <trkpt lat="42.34812" lon="-1.69903">
        <ele>328.031</ele>
        <time>2013-05-06T17:17:47Z</time>
      </trkpt>
      <trkpt lat="42.34818" lon="-1.69883">
        <ele>328.078</ele>
        <time>2013-05-06T17:17:43Z</time>
      </trkpt>
      <trkpt lat="42.34827" lon="-1.69869">
        <ele>328.076</ele>
        <time>2013-05-06T17:17:40Z</time>
      </trkpt>
      <trkpt lat="42.34887" lon="-1.69771">
        <ele>328.049</ele>
        <time>2013-05-06T17:17:21Z</time>
      </trkpt>
      <trkpt lat="42.34934" lon="-1.69692">
        <ele>328.467</ele>
        <time>2013-05-06T17:17:04Z</time>
      </trkpt>
      <trkpt lat="42.34971" lon="-1.6963">
        <ele>329.481</ele>
        <time>2013-05-06T17:16:50Z</time>
      </trkpt>
      <trkpt lat="42.34982" lon="-1.69609">
        <ele>329.419</ele>
        <time>2013-05-06T17:16:45Z</time>
      </trkpt>
      <trkpt lat="42.35022" lon="-1.69546">
        <ele>329.408</ele>
        <time>2013-05-06T17:16:32Z</time>
      </trkpt>
      <trkpt lat="42.35031" lon="-1.6953">
        <ele>328.057</ele>
        <time>2013-05-06T17:16:29Z</time>
      </trkpt>
      <trkpt lat="42.35089" lon="-1.69438">
        <ele>328.968</ele>
        <time>2013-05-06T17:16:11Z</time>
      </trkpt>
      <trkpt lat="42.35117" lon="-1.69394">
        <ele>328.92</ele>
        <time>2013-05-06T17:16:01Z</time>
      </trkpt>
      <trkpt lat="42.35121" lon="-1.69385">
        <ele>330.495</ele>
        <time>2013-05-06T17:15:59Z</time>
      </trkpt>
      <trkpt lat="42.35124" lon="-1.69374">
        <ele>328.992</ele>
        <time>2013-05-06T17:15:57Z</time>
      </trkpt>
      <trkpt lat="42.3513" lon="-1.69356">
        <ele>328.999</ele>
        <time>2013-05-06T17:15:54Z</time>
      </trkpt>
      <trkpt lat="42.35156" lon="-1.6933">
        <ele>328.967</ele>
        <time>2013-05-06T17:15:47Z</time>
      </trkpt>
      <trkpt lat="42.35196" lon="-1.69327">
        <ele>329.44</ele>
        <time>2013-05-06T17:15:39Z</time>
      </trkpt>
      <trkpt lat="42.35213" lon="-1.69326">
        <ele>329.461</ele>
        <time>2013-05-06T17:15:36Z</time>
      </trkpt>
      <trkpt lat="42.35303" lon="-1.69317">
        <ele>329.421</ele>
        <time>2013-05-06T17:15:22Z</time>
      </trkpt>
      <trkpt lat="42.35398" lon="-1.69307">
        <ele>329.913</ele>
        <time>2013-05-06T17:15:08Z</time>
      </trkpt>
      <trkpt lat="42.35493" lon="-1.69295">
        <ele>330.408</ele>
        <time>2013-05-06T17:14:53Z</time>
      </trkpt>
      <trkpt lat="42.35548" lon="-1.69292">
        <ele>331.337</ele>
        <time>2013-05-06T17:14:43Z</time>
      </trkpt>
      <trkpt lat="42.35566" lon="-1.69289">
        <ele>331.368</ele>
        <time>2013-05-06T17:14:39Z</time>
      </trkpt>
      <trkpt lat="42.35641" lon="-1.69279">
        <ele>331.87</ele>
        <time>2013-05-06T17:14:25Z</time>
      </trkpt>
      <trkpt lat="42.35716" lon="-1.6927">
        <ele>332.855</ele>
        <time>2013-05-06T17:14:12Z</time>
      </trkpt>
      <trkpt lat="42.35778" lon="-1.69263">
        <ele>333.242</ele>
        <time>2013-05-06T17:14:00Z</time>
      </trkpt>
      <trkpt lat="42.35791" lon="-1.6926">
        <ele>333.249</ele>
        <time>2013-05-06T17:13:57Z</time>
      </trkpt>
      <trkpt lat="42.35856" lon="-1.69253">
        <ele>333.277</ele>
        <time>2013-05-06T17:13:44Z</time>
      </trkpt>
      <trkpt lat="42.3592" lon="-1.69249">
        <ele>333.79</ele>
        <time>2013-05-06T17:13:31Z</time>
      </trkpt>
      <trkpt lat="42.35973" lon="-1.69241">
        <ele>333.723</ele>
        <time>2013-05-06T17:13:20Z</time>
      </trkpt>
      <trkpt lat="42.35982" lon="-1.69238">
        <ele>333.783</ele>
        <time>2013-05-06T17:13:18Z</time>
      </trkpt>
      <trkpt lat="42.35995" lon="-1.69234">
        <ele>334.211</ele>
        <time>2013-05-06T17:13:15Z</time>
      </trkpt>
      <trkpt lat="42.36017" lon="-1.69223">
        <ele>334.208</ele>
        <time>2013-05-06T17:13:09Z</time>
      </trkpt>
      <trkpt lat="42.36024" lon="-1.69214">
        <ele>334.753</ele>
        <time>2013-05-06T17:13:07Z</time>
      </trkpt>
      <trkpt lat="42.36039" lon="-1.69204">
        <ele>335.234</ele>
        <time>2013-05-06T17:13:04Z</time>
      </trkpt>
      <trkpt lat="42.36075" lon="-1.6921">
        <ele>336.696</ele>
        <time>2013-05-06T17:12:59Z</time>
      </trkpt>
      <trkpt lat="42.36099" lon="-1.69247">
        <ele>339.061</ele>
        <time>2013-05-06T17:12:55Z</time>
      </trkpt>
      <trkpt lat="42.36107" lon="-1.69278">
        <ele>340.968</ele>
        <time>2013-05-06T17:12:52Z</time>
      </trkpt>
      <trkpt lat="42.36122" lon="-1.69343">
        <ele>344.325</ele>
        <time>2013-05-06T17:12:43Z</time>
      </trkpt>
      <trkpt lat="42.36127" lon="-1.69355">
        <ele>344.863</ele>
        <time>2013-05-06T17:12:40Z</time>
      </trkpt>
      <trkpt lat="42.36148" lon="-1.69372">
        <ele>345.346</ele>
        <time>2013-05-06T17:12:32Z</time>
      </trkpt>
      <trkpt lat="42.36214" lon="-1.69396">
        <ele>345.747</ele>
        <time>2013-05-06T17:12:17Z</time>
      </trkpt>
      <trkpt lat="42.36266" lon="-1.69426">
        <ele>346.229</ele>
        <time>2013-05-06T17:12:06Z</time>
      </trkpt>
      <trkpt lat="42.36328" lon="-1.69451">
        <ele>346.221</ele>
        <time>2013-05-06T17:11:55Z</time>
      </trkpt>
      <trkpt lat="42.36415" lon="-1.69475">
        <ele>346.208</ele>
        <time>2013-05-06T17:11:40Z</time>
      </trkpt>
      <trkpt lat="42.36499" lon="-1.695">
        <ele>347.765</ele>
        <time>2013-05-06T17:11:26Z</time>
      </trkpt>
      <trkpt lat="42.36572" lon="-1.69522">
        <ele>347.786</ele>
        <time>2013-05-06T17:11:12Z</time>
      </trkpt>
      <trkpt lat="42.36622" lon="-1.69536">
        <ele>347.758</ele>
        <time>2013-05-06T17:11:00Z</time>
      </trkpt>
      <trkpt lat="42.36646" lon="-1.69528">
        <ele>348.183</ele>
        <time>2013-05-06T17:10:52Z</time>
      </trkpt>
      <trkpt lat="42.3667" lon="-1.69536">
        <ele>348.61</ele>
        <time>2013-05-06T17:10:47Z</time>
      </trkpt>
      <trkpt lat="42.36692" lon="-1.69536">
        <ele>348.667</ele>
        <time>2013-05-06T17:10:43Z</time>
      </trkpt>
      <trkpt lat="42.36727" lon="-1.69557">
        <ele>350.545</ele>
        <time>2013-05-06T17:10:35Z</time>
      </trkpt>
      <trkpt lat="42.36791" lon="-1.6958">
        <ele>350.558</ele>
        <time>2013-05-06T17:10:22Z</time>
      </trkpt>
      <trkpt lat="42.36832" lon="-1.69585">
        <ele>350.526</ele>
        <time>2013-05-06T17:10:10Z</time>
      </trkpt>
      <trkpt lat="42.36857" lon="-1.69589">
        <ele>349.147</ele>
        <time>2013-05-06T17:09:58Z</time>
      </trkpt>
      <trkpt lat="42.36874" lon="-1.69595">
        <ele>345.311</ele>
        <time>2013-05-06T17:09:49Z</time>
      </trkpt>
      <trkpt lat="42.3691" lon="-1.696">
        <ele>345.308</ele>
        <time>2013-05-06T17:09:39Z</time>
      </trkpt>
      <trkpt lat="42.3695" lon="-1.69607">
        <ele>345.733</ele>
        <time>2013-05-06T17:09:28Z</time>
      </trkpt>
      <trkpt lat="42.36996" lon="-1.69628">
        <ele>346.264</ele>
        <time>2013-05-06T17:09:18Z</time>
      </trkpt>
      <trkpt lat="42.37056" lon="-1.69654">
        <ele>346.756</ele>
        <time>2013-05-06T17:09:04Z</time>
      </trkpt>
      <trkpt lat="42.37092" lon="-1.6967">
        <ele>346.781</ele>
        <time>2013-05-06T17:08:51Z</time>
      </trkpt>
      <trkpt lat="42.37097" lon="-1.6967">
        <ele>346.718</ele>
        <time>2013-05-06T17:08:49Z</time>
      </trkpt>
      <trkpt lat="42.37128" lon="-1.69673">
        <ele>347.225</ele>
        <time>2013-05-06T17:08:40Z</time>
      </trkpt>
      <trkpt lat="42.3718" lon="-1.69658">
        <ele>347.723</ele>
        <time>2013-05-06T17:08:27Z</time>
      </trkpt>
      <trkpt lat="42.37223" lon="-1.69655">
        <ele>347.726</ele>
        <time>2013-05-06T17:08:14Z</time>
      </trkpt>
      <trkpt lat="42.37237" lon="-1.69653">
        <ele>348.165</ele>
        <time>2013-05-06T17:07:00Z</time>
      </trkpt>
      <trkpt lat="42.37239" lon="-1.69652">
        <ele>348.168</ele>
        <time>2013-05-06T17:06:27Z</time>
      </trkpt>
      <trkpt lat="42.37242" lon="-1.69651">
        <ele>348.114</ele>
        <time>2013-05-06T17:06:18Z</time>
      </trkpt>
      <trkpt lat="42.37251" lon="-1.69651">
        <ele>349.108</ele>
        <time>2013-05-06T17:06:14Z</time>
      </trkpt>
      <trkpt lat="42.37269" lon="-1.69659">
        <ele>349.117</ele>
        <time>2013-05-06T17:06:04Z</time>
      </trkpt>
      <trkpt lat="42.37315" lon="-1.69686">
        <ele>349.168</ele>
        <time>2013-05-06T17:05:53Z</time>
      </trkpt>
      <trkpt lat="42.37346" lon="-1.69692">
        <ele>349.69</ele>
        <time>2013-05-06T17:05:47Z</time>
      </trkpt>
      <trkpt lat="42.37415" lon="-1.69694">
        <ele>350.115</ele>
        <time>2013-05-06T17:05:33Z</time>
      </trkpt>
      <trkpt lat="42.37489" lon="-1.6969">
        <ele>350.532</ele>
        <time>2013-05-06T17:05:19Z</time>
      </trkpt>
      <trkpt lat="42.37506" lon="-1.69696">
        <ele>350.569</ele>
        <time>2013-05-06T17:05:16Z</time>
      </trkpt>
      <trkpt lat="42.37569" lon="-1.69718">
        <ele>352.057</ele>
        <time>2013-05-06T17:05:05Z</time>
      </trkpt>
      <trkpt lat="42.37574" lon="-1.69721">
        <ele>352.04</ele>
        <time>2013-05-06T17:05:04Z</time>
      </trkpt>
      <trkpt lat="42.37651" lon="-1.69755">
        <ele>352.587</ele>
        <time>2013-05-06T17:04:50Z</time>
      </trkpt>
      <trkpt lat="42.37669" lon="-1.69763">
        <ele>352.942</ele>
        <time>2013-05-06T17:04:46Z</time>
      </trkpt>
      <trkpt lat="42.3771" lon="-1.69785">
        <ele>353.426</ele>
        <time>2013-05-06T17:04:37Z</time>
      </trkpt>
      <trkpt lat="42.37769" lon="-1.69807">
        <ele>355.308</ele>
        <time>2013-05-06T17:04:23Z</time>
      </trkpt>
      <trkpt lat="42.37779" lon="-1.69813">
        <ele>355.329</ele>
        <time>2013-05-06T17:04:19Z</time>
      </trkpt>
      <trkpt lat="42.3779" lon="-1.69848">
        <ele>355.39</ele>
        <time>2013-05-06T17:04:12Z</time>
      </trkpt>
      <trkpt lat="42.37805" lon="-1.69911">
        <ele>353.972</ele>
        <time>2013-05-06T17:04:00Z</time>
      </trkpt>
      <trkpt lat="42.37816" lon="-1.69923">
        <ele>353.927</ele>
        <time>2013-05-06T17:03:56Z</time>
      </trkpt>
      <trkpt lat="42.37839" lon="-1.69907">
        <ele>354.974</ele>
        <time>2013-05-06T17:03:51Z</time>
      </trkpt>
      <trkpt lat="42.37851" lon="-1.699">
        <ele>354.981</ele>
        <time>2013-05-06T17:03:49Z</time>
      </trkpt>
      <trkpt lat="42.3787" lon="-1.69892">
        <ele>355.359</ele>
        <time>2013-05-06T17:03:46Z</time>
      </trkpt>
      <trkpt lat="42.37891" lon="-1.6989">
        <ele>355.312</ele>
        <time>2013-05-06T17:03:43Z</time>
      </trkpt>
      <trkpt lat="42.37917" lon="-1.69894">
        <ele>355.379</ele>
        <time>2013-05-06T17:03:39Z</time>
      </trkpt>
      <trkpt lat="42.37942" lon="-1.69893">
        <ele>355.805</ele>
        <time>2013-05-06T17:03:35Z</time>
      </trkpt>
      <trkpt lat="42.37982" lon="-1.69886">
        <ele>356.825</ele>
        <time>2013-05-06T17:03:29Z</time>
      </trkpt>
      <trkpt lat="42.38058" lon="-1.69908">
        <ele>359.208</ele>
        <time>2013-05-06T17:03:17Z</time>
      </trkpt>
      <trkpt lat="42.38078" lon="-1.69904">
        <ele>359.218</ele>
        <time>2013-05-06T17:03:13Z</time>
      </trkpt>
      <trkpt lat="42.38097" lon="-1.69894">
        <ele>359.239</ele>
        <time>2013-05-06T17:03:09Z</time>
      </trkpt>
      <trkpt lat="42.38129" lon="-1.69884">
        <ele>359.281</ele>
        <time>2013-05-06T17:03:03Z</time>
      </trkpt>
      <trkpt lat="42.38196" lon="-1.69874">
        <ele>360.256</ele>
        <time>2013-05-06T17:02:51Z</time>
      </trkpt>
      <trkpt lat="42.38212" lon="-1.69872">
        <ele>360.233</ele>
        <time>2013-05-06T17:02:48Z</time>
      </trkpt>
      <trkpt lat="42.38239" lon="-1.69879">
        <ele>360.21</ele>
        <time>2013-05-06T17:02:43Z</time>
      </trkpt>
      <trkpt lat="42.38248" lon="-1.69886">
        <ele>360.288</ele>
        <time>2013-05-06T17:02:41Z</time>
      </trkpt>
      <trkpt lat="42.38269" lon="-1.69891">
        <ele>360.231</ele>
        <time>2013-05-06T17:02:37Z</time>
      </trkpt>
      <trkpt lat="42.38289" lon="-1.69884">
        <ele>360.672</ele>
        <time>2013-05-06T17:02:33Z</time>
      </trkpt>
      <trkpt lat="42.38321" lon="-1.69885">
        <ele>361.113</ele>
        <time>2013-05-06T17:02:27Z</time>
      </trkpt>
      <trkpt lat="42.38329" lon="-1.69891">
        <ele>361.114</ele>
        <time>2013-05-06T17:02:25Z</time>
      </trkpt>
      <trkpt lat="42.38377" lon="-1.6991">
        <ele>362.108</ele>
        <time>2013-05-06T17:02:15Z</time>
      </trkpt>
      <trkpt lat="42.38428" lon="-1.69908">
        <ele>362.688</ele>
        <time>2013-05-06T17:02:05Z</time>
      </trkpt>
      <trkpt lat="42.38489" lon="-1.69918">
        <ele>363.599</ele>
        <time>2013-05-06T17:01:53Z</time>
      </trkpt>
      <trkpt lat="42.38551" lon="-1.69942">
        <ele>363.541</ele>
        <time>2013-05-06T17:01:40Z</time>
      </trkpt>
      <trkpt lat="42.38639" lon="-1.69974">
        <ele>364.596</ele>
        <time>2013-05-06T17:01:23Z</time>
      </trkpt>
      <trkpt lat="42.38659" lon="-1.6999">
        <ele>365.023</ele>
        <time>2013-05-06T17:01:18Z</time>
      </trkpt>
      <trkpt lat="42.3868" lon="-1.70018">
        <ele>365.07</ele>
        <time>2013-05-06T17:01:12Z</time>
      </trkpt>
      <trkpt lat="42.38693" lon="-1.70025">
        <ele>365.078</ele>
        <time>2013-05-06T17:01:09Z</time>
      </trkpt>
      <trkpt lat="42.38751" lon="-1.70053">
        <ele>365.911</ele>
        <time>2013-05-06T17:00:56Z</time>
      </trkpt>
      <trkpt lat="42.38804" lon="-1.70091">
        <ele>366.494</ele>
        <time>2013-05-06T17:00:43Z</time>
      </trkpt>
      <trkpt lat="42.38852" lon="-1.70136">
        <ele>367.457</ele>
        <time>2013-05-06T17:00:30Z</time>
      </trkpt>
      <trkpt lat="42.38873" lon="-1.70148">
        <ele>367.422</ele>
        <time>2013-05-06T17:00:25Z</time>
      </trkpt>
      <trkpt lat="42.38924" lon="-1.70161">
        <ele>367.808</ele>
        <time>2013-05-06T17:00:15Z</time>
      </trkpt>
      <trkpt lat="42.39004" lon="-1.7018">
        <ele>368.33</ele>
        <time>2013-05-06T17:00:01Z</time>
      </trkpt>
      <trkpt lat="42.39044" lon="-1.70193">
        <ele>369.391</ele>
        <time>2013-05-06T16:59:54Z</time>
      </trkpt>
      <trkpt lat="42.39113" lon="-1.7019">
        <ele>370.213</ele>
        <time>2013-05-06T16:59:42Z</time>
      </trkpt>
      <trkpt lat="42.39186" lon="-1.70215">
        <ele>371.258</ele>
        <time>2013-05-06T16:59:29Z</time>
      </trkpt>
      <trkpt lat="42.39223" lon="-1.70236">
        <ele>372.275</ele>
        <time>2013-05-06T16:59:22Z</time>
      </trkpt>
      <trkpt lat="42.39284" lon="-1.70261">
        <ele>373.192</ele>
        <time>2013-05-06T16:59:10Z</time>
      </trkpt>
      <trkpt lat="42.39336" lon="-1.70291">
        <ele>373.16</ele>
        <time>2013-05-06T16:58:59Z</time>
      </trkpt>
      <trkpt lat="42.39395" lon="-1.70326">
        <ele>373.643</ele>
        <time>2013-05-06T16:58:45Z</time>
      </trkpt>
      <trkpt lat="42.3945" lon="-1.70348">
        <ele>373.615</ele>
        <time>2013-05-06T16:58:33Z</time>
      </trkpt>
      <trkpt lat="42.39496" lon="-1.70373">
        <ele>373.665</ele>
        <time>2013-05-06T16:58:22Z</time>
      </trkpt>
      <trkpt lat="42.39529" lon="-1.70387">
        <ele>374.611</ele>
        <time>2013-05-06T16:58:13Z</time>
      </trkpt>
      <trkpt lat="42.39568" lon="-1.70408">
        <ele>375.108</ele>
        <time>2013-05-06T16:58:02Z</time>
      </trkpt>
      <trkpt lat="42.39608" lon="-1.70429">
        <ele>375.592</ele>
        <time>2013-05-06T16:57:50Z</time>
      </trkpt>
      <trkpt lat="42.39628" lon="-1.70439">
        <ele>375.573</ele>
        <time>2013-05-06T16:57:39Z</time>
      </trkpt>
      <trkpt lat="42.39657" lon="-1.70459">
        <ele>377.915</ele>
        <time>2013-05-06T16:57:30Z</time>
      </trkpt>
      <trkpt lat="42.39716" lon="-1.70489">
        <ele>380.33</ele>
        <time>2013-05-06T16:57:20Z</time>
      </trkpt>
      <trkpt lat="42.39789" lon="-1.70502">
        <ele>382.717</ele>
        <time>2013-05-06T16:57:08Z</time>
      </trkpt>
      <trkpt lat="42.39855" lon="-1.70514">
        <ele>383.744</ele>
        <time>2013-05-06T16:56:55Z</time>
      </trkpt>
      <trkpt lat="42.39931" lon="-1.70535">
        <ele>385.292</ele>
        <time>2013-05-06T16:56:39Z</time>
      </trkpt>
      <trkpt lat="42.39983" lon="-1.70552">
        <ele>384.755</ele>
        <time>2013-05-06T16:56:26Z</time>
      </trkpt>
      <trkpt lat="42.40018" lon="-1.70583">
        <ele>383.297</ele>
        <time>2013-05-06T16:56:16Z</time>
      </trkpt>
      <trkpt lat="42.40034" lon="-1.70592">
        <ele>383.723</ele>
        <time>2013-05-06T16:56:12Z</time>
      </trkpt>
      <trkpt lat="42.40053" lon="-1.70596">
        <ele>384.225</ele>
        <time>2013-05-06T16:56:08Z</time>
      </trkpt>
      <trkpt lat="42.40073" lon="-1.70605">
        <ele>385.608</ele>
        <time>2013-05-06T16:56:04Z</time>
      </trkpt>
      <trkpt lat="42.40125" lon="-1.70621">
        <ele>386.13</ele>
        <time>2013-05-06T16:55:52Z</time>
      </trkpt>
      <trkpt lat="42.40162" lon="-1.70634">
        <ele>385.671</ele>
        <time>2013-05-06T16:55:42Z</time>
      </trkpt>
      <trkpt lat="42.40197" lon="-1.70638">
        <ele>383.223</ele>
        <time>2013-05-06T16:55:32Z</time>
      </trkpt>
      <trkpt lat="42.40206" lon="-1.70641">
        <ele>383.278</ele>
        <time>2013-05-06T16:55:30Z</time>
      </trkpt>
      <trkpt lat="42.40215" lon="-1.70645">
        <ele>383.775</ele>
        <time>2013-05-06T16:55:28Z</time>
      </trkpt>
      <trkpt lat="42.40233" lon="-1.70656">
        <ele>384.742</ele>
        <time>2013-05-06T16:55:25Z</time>
      </trkpt>
      <trkpt lat="42.40294" lon="-1.70676">
        <ele>388.54</ele>
        <time>2013-05-06T16:55:14Z</time>
      </trkpt>
      <trkpt lat="42.40357" lon="-1.70691">
        <ele>389.033</ele>
        <time>2013-05-06T16:55:00Z</time>
      </trkpt>
      <trkpt lat="42.404" lon="-1.70696">
        <ele>390.428</ele>
        <time>2013-05-06T16:54:50Z</time>
      </trkpt>
      <trkpt lat="42.4045" lon="-1.70692">
        <ele>389.589</ele>
        <time>2013-05-06T16:54:34Z</time>
      </trkpt>
      <trkpt lat="42.40484" lon="-1.70691">
        <ele>388.017</ele>
        <time>2013-05-06T16:54:22Z</time>
      </trkpt>
      <trkpt lat="42.40509" lon="-1.70693">
        <ele>388.008</ele>
        <time>2013-05-06T16:54:12Z</time>
      </trkpt>
      <trkpt lat="42.40526" lon="-1.70692">
        <ele>388.033</ele>
        <time>2013-05-06T16:54:03Z</time>
      </trkpt>
      <trkpt lat="42.40539" lon="-1.70692">
        <ele>388.574</ele>
        <time>2013-05-06T16:53:32Z</time>
      </trkpt>
      <trkpt lat="42.40542" lon="-1.70692">
        <ele>388.546</ele>
        <time>2013-05-06T16:53:23Z</time>
      </trkpt>
      <trkpt lat="42.40576" lon="-1.70688">
        <ele>390.081</ele>
        <time>2013-05-06T16:53:13Z</time>
      </trkpt>
      <trkpt lat="42.4062" lon="-1.70687">
        <ele>391.428</ele>
        <time>2013-05-06T16:53:02Z</time>
      </trkpt>
      <trkpt lat="42.40679" lon="-1.70686">
        <ele>391.415</ele>
        <time>2013-05-06T16:52:47Z</time>
      </trkpt>
      <trkpt lat="42.40728" lon="-1.70686">
        <ele>391.473</ele>
        <time>2013-05-06T16:52:35Z</time>
      </trkpt>
      <trkpt lat="42.40756" lon="-1.70687">
        <ele>391.496</ele>
        <time>2013-05-06T16:52:27Z</time>
      </trkpt>
      <trkpt lat="42.40786" lon="-1.70688">
        <ele>390.969</ele>
        <time>2013-05-06T16:52:17Z</time>
      </trkpt>
      <trkpt lat="42.40821" lon="-1.70683">
        <ele>390.004</ele>
        <time>2013-05-06T16:52:10Z</time>
      </trkpt>
      <trkpt lat="42.40842" lon="-1.70681">
        <ele>391.424</ele>
        <time>2013-05-06T16:52:06Z</time>
      </trkpt>
      <trkpt lat="42.40884" lon="-1.70684">
        <ele>391.908</ele>
        <time>2013-05-06T16:51:59Z</time>
      </trkpt>
      <trkpt lat="42.40963" lon="-1.70676">
        <ele>391.927</ele>
        <time>2013-05-06T16:51:49Z</time>
      </trkpt>
      <trkpt lat="42.41001" lon="-1.70682">
        <ele>392.838</ele>
        <time>2013-05-06T16:51:45Z</time>
      </trkpt>
      <trkpt lat="42.41046" lon="-1.70697">
        <ele>394.33</ele>
        <time>2013-05-06T16:51:40Z</time>
      </trkpt>
      <trkpt lat="42.41115" lon="-1.70699">
        <ele>397.275</ele>
        <time>2013-05-06T16:51:33Z</time>
      </trkpt>
      <trkpt lat="42.4115" lon="-1.70699">
        <ele>399.192</ele>
        <time>2013-05-06T16:51:29Z</time>
      </trkpt>
      <trkpt lat="42.41192" lon="-1.70701">
        <ele>402.069</ele>
        <time>2013-05-06T16:51:23Z</time>
      </trkpt>
      <trkpt lat="42.41211" lon="-1.70699">
        <ele>402.597</ele>
        <time>2013-05-06T16:51:20Z</time>
      </trkpt>
      <trkpt lat="42.41231" lon="-1.70701">
        <ele>403.97</ele>
        <time>2013-05-06T16:51:16Z</time>
      </trkpt>
      <trkpt lat="42.41252" lon="-1.70721">
        <ele>406.336</ele>
        <time>2013-05-06T16:51:08Z</time>
      </trkpt>
      <trkpt lat="42.41266" lon="-1.70748">
        <ele>406.317</ele>
        <time>2013-05-06T16:50:57Z</time>
      </trkpt>
      <trkpt lat="42.41284" lon="-1.70782">
        <ele>405.818</ele>
        <time>2013-05-06T16:50:44Z</time>
      </trkpt>
      <trkpt lat="42.41303" lon="-1.70813">
        <ele>404.908</ele>
        <time>2013-05-06T16:50:33Z</time>
      </trkpt>
      <trkpt lat="42.41306" lon="-1.70817">
        <ele>404.444</ele>
        <time>2013-05-06T16:50:32Z</time>
      </trkpt>
      <trkpt lat="42.41309" lon="-1.7082">
        <ele>403.925</ele>
        <time>2013-05-06T16:50:31Z</time>
      </trkpt>
      <trkpt lat="42.41313" lon="-1.70823">
        <ele>403.917</ele>
        <time>2013-05-06T16:50:30Z</time>
      </trkpt>
      <trkpt lat="42.41317" lon="-1.70826">
        <ele>403.412</ele>
        <time>2013-05-06T16:50:29Z</time>
      </trkpt>
      <trkpt lat="42.41321" lon="-1.70828">
        <ele>403.469</ele>
        <time>2013-05-06T16:50:28Z</time>
      </trkpt>
      <trkpt lat="42.41325" lon="-1.70829">
        <ele>403.476</ele>
        <time>2013-05-06T16:50:27Z</time>
      </trkpt>
      <trkpt lat="42.41329" lon="-1.7083">
        <ele>403.464</ele>
        <time>2013-05-06T16:50:26Z</time>
      </trkpt>
      <trkpt lat="42.41334" lon="-1.70831">
        <ele>403.447</ele>
        <time>2013-05-06T16:50:25Z</time>
      </trkpt>
      <trkpt lat="42.41338" lon="-1.7083">
        <ele>403.428</ele>
        <time>2013-05-06T16:50:24Z</time>
      </trkpt>
      <trkpt lat="42.41343" lon="-1.7083">
        <ele>403.489</ele>
        <time>2013-05-06T16:50:23Z</time>
      </trkpt>
      <trkpt lat="42.4136" lon="-1.70825">
        <ele>403.417</ele>
        <time>2013-05-06T16:50:19Z</time>
      </trkpt>
      <trkpt lat="42.41424" lon="-1.70801">
        <ele>402.008</ele>
        <time>2013-05-06T16:50:03Z</time>
      </trkpt>
      <trkpt lat="42.41437" lon="-1.70799">
        <ele>402.033</ele>
        <time>2013-05-06T16:50:00Z</time>
      </trkpt>
      <trkpt lat="42.41441" lon="-1.70799">
        <ele>402.094</ele>
        <time>2013-05-06T16:49:59Z</time>
      </trkpt>
      <trkpt lat="42.41445" lon="-1.70799">
        <ele>402.066</ele>
        <time>2013-05-06T16:49:58Z</time>
      </trkpt>
      <trkpt lat="42.4145" lon="-1.708">
        <ele>402.061</ele>
        <time>2013-05-06T16:49:57Z</time>
      </trkpt>
      <trkpt lat="42.41455" lon="-1.70801">
        <ele>402.038</ele>
        <time>2013-05-06T16:49:56Z</time>
      </trkpt>
      <trkpt lat="42.41486" lon="-1.70815">
        <ele>402.975</ele>
        <time>2013-05-06T16:49:50Z</time>
      </trkpt>
      <trkpt lat="42.41497" lon="-1.70821">
        <ele>402.933</ele>
        <time>2013-05-06T16:49:48Z</time>
      </trkpt>
      <trkpt lat="42.41535" lon="-1.70854">
        <ele>405.356</ele>
        <time>2013-05-06T16:49:39Z</time>
      </trkpt>
      <trkpt lat="42.41554" lon="-1.70885">
        <ele>407.394</ele>
        <time>2013-05-06T16:49:28Z</time>
      </trkpt>
      <trkpt lat="42.41562" lon="-1.7089">
        <ele>405.857</ele>
        <time>2013-05-06T16:49:17Z</time>
      </trkpt>
      <trkpt lat="42.41581" lon="-1.70887">
        <ele>405.822</ele>
        <time>2013-05-06T16:49:08Z</time>
      </trkpt>
      <trkpt lat="42.41613" lon="-1.70878">
        <ele>405.808</ele>
        <time>2013-05-06T16:48:57Z</time>
      </trkpt>
      <trkpt lat="42.41633" lon="-1.7088">
        <ele>405.83</ele>
        <time>2013-05-06T16:48:46Z</time>
      </trkpt>
      <trkpt lat="42.41635" lon="-1.70891">
        <ele>405.881</ele>
        <time>2013-05-06T16:48:42Z</time>
      </trkpt>
      <trkpt lat="42.41636" lon="-1.70904">
        <ele>405.893</ele>
        <time>2013-05-06T16:48:36Z</time>
      </trkpt>
      <trkpt lat="42.41636" lon="-1.70908">
        <ele>405.868</ele>
        <time>2013-05-06T16:48:28Z</time>
      </trkpt>
      <trkpt lat="42.41638" lon="-1.70918">
        <ele>405.855</ele>
        <time>2013-05-06T16:48:23Z</time>
      </trkpt>
      <trkpt lat="42.41641" lon="-1.70923">
        <ele>405.822</ele>
        <time>2013-05-06T16:48:20Z</time>
      </trkpt>
      <trkpt lat="42.41647" lon="-1.70947">
        <ele>407.36</ele>
        <time>2013-05-06T16:48:13Z</time>
      </trkpt>
      <trkpt lat="42.41654" lon="-1.7098">
        <ele>407.393</ele>
        <time>2013-05-06T16:48:00Z</time>
      </trkpt>
      <trkpt lat="42.41667" lon="-1.71001">
        <ele>405.399</ele>
        <time>2013-05-06T16:47:47Z</time>
      </trkpt>
      <trkpt lat="42.41685" lon="-1.71012">
        <ele>405.307</ele>
        <time>2013-05-06T16:47:37Z</time>
      </trkpt>
      <trkpt lat="42.41712" lon="-1.7102">
        <ele>405.327</ele>
        <time>2013-05-06T16:47:28Z</time>
      </trkpt>
      <trkpt lat="42.41745" lon="-1.71055">
        <ele>406.308</ele>
        <time>2013-05-06T16:47:16Z</time>
      </trkpt>
      <trkpt lat="42.41792" lon="-1.71107">
        <ele>408.78</ele>
        <time>2013-05-06T16:47:05Z</time>
      </trkpt>
      <trkpt lat="42.41842" lon="-1.71155">
        <ele>410.611</ele>
        <time>2013-05-06T16:46:56Z</time>
      </trkpt>
      <trkpt lat="42.41898" lon="-1.71191">
        <ele>414.013</ele>
        <time>2013-05-06T16:46:46Z</time>
      </trkpt>
      <trkpt lat="42.41916" lon="-1.71202">
        <ele>415.418</ele>
        <time>2013-05-06T16:46:42Z</time>
      </trkpt>
      <trkpt lat="42.41925" lon="-1.71206">
        <ele>415.925</ele>
        <time>2013-05-06T16:46:40Z</time>
      </trkpt>
      <trkpt lat="42.41933" lon="-1.71206">
        <ele>416.992</ele>
        <time>2013-05-06T16:46:38Z</time>
      </trkpt>
      <trkpt lat="42.4194" lon="-1.71204">
        <ele>417.48</ele>
        <time>2013-05-06T16:46:36Z</time>
      </trkpt>
      <trkpt lat="42.41963" lon="-1.71227">
        <ele>417.463</ele>
        <time>2013-05-06T16:46:27Z</time>
      </trkpt>
      <trkpt lat="42.41965" lon="-1.71257">
        <ele>417.869</ele>
        <time>2013-05-06T16:46:19Z</time>
      </trkpt>
      <trkpt lat="42.41993" lon="-1.71301">
        <ele>419.804</ele>
        <time>2013-05-06T16:46:08Z</time>
      </trkpt>
      <trkpt lat="42.42022" lon="-1.7134">
        <ele>420.224</ele>
        <time>2013-05-06T16:46:00Z</time>
      </trkpt>
      <trkpt lat="42.42052" lon="-1.71366">
        <ele>423.108</ele>
        <time>2013-05-06T16:45:52Z</time>
      </trkpt>
      <trkpt lat="42.42068" lon="-1.71385">
        <ele>424.697</ele>
        <time>2013-05-06T16:45:48Z</time>
      </trkpt>
      <trkpt lat="42.4209" lon="-1.71408">
        <ele>427.938</ele>
        <time>2013-05-06T16:45:42Z</time>
      </trkpt>
      <trkpt lat="42.42106" lon="-1.7142">
        <ele>429.94</ele>
        <time>2013-05-06T16:45:38Z</time>
      </trkpt>
      <trkpt lat="42.42122" lon="-1.71425">
        <ele>432.385</ele>
        <time>2013-05-06T16:45:34Z</time>
      </trkpt>
      <trkpt lat="42.42144" lon="-1.71418">
        <ele>435.682</ele>
        <time>2013-05-06T16:45:27Z</time>
      </trkpt>
      <trkpt lat="42.4217" lon="-1.71407">
        <ele>438.079</ele>
        <time>2013-05-06T16:44:52Z</time>
      </trkpt>
      <trkpt lat="42.42189" lon="-1.71404">
        <ele>438.527</ele>
        <time>2013-05-06T16:44:41Z</time>
      </trkpt>
      <trkpt lat="42.42215" lon="-1.71409">
        <ele>439.03</ele>
        <time>2013-05-06T16:44:30Z</time>
      </trkpt>
      <trkpt lat="42.42223" lon="-1.7141">
        <ele>439.056</ele>
        <time>2013-05-06T16:44:18Z</time>
      </trkpt>
      <trkpt lat="42.42248" lon="-1.71422">
        <ele>439.959</ele>
        <time>2013-05-06T16:44:05Z</time>
      </trkpt>
      <trkpt lat="42.42257" lon="-1.71427">
        <ele>439.914</ele>
        <time>2013-05-06T16:43:24Z</time>
      </trkpt>
      <trkpt lat="42.42283" lon="-1.71437">
        <ele>440.908</ele>
        <time>2013-05-06T16:43:13Z</time>
      </trkpt>
      <trkpt lat="42.423" lon="-1.71448">
        <ele>440.926</ele>
        <time>2013-05-06T16:43:02Z</time>
      </trkpt>
      <trkpt lat="42.42309" lon="-1.71456">
        <ele>440.927</ele>
        <time>2013-05-06T16:42:55Z</time>
      </trkpt>
      <trkpt lat="42.42335" lon="-1.71469">
        <ele>438.599</ele>
        <time>2013-05-06T16:42:39Z</time>
      </trkpt>
      <trkpt lat="42.42358" lon="-1.71479">
        <ele>436.664</ele>
        <time>2013-05-06T16:42:25Z</time>
      </trkpt>
      <trkpt lat="42.42389" lon="-1.71494">
        <ele>434.261</ele>
        <time>2013-05-06T16:42:06Z</time>
      </trkpt>
      <trkpt lat="42.42412" lon="-1.71506">
        <ele>432.718</ele>
        <time>2013-05-06T16:41:53Z</time>
      </trkpt>
      <trkpt lat="42.42437" lon="-1.71517">
        <ele>431.326</ele>
        <time>2013-05-06T16:41:40Z</time>
      </trkpt>
      <trkpt lat="42.42457" lon="-1.71529">
        <ele>429.479</ele>
        <time>2013-05-06T16:41:29Z</time>
      </trkpt>
      <trkpt lat="42.42491" lon="-1.71548">
        <ele>429.487</ele>
        <time>2013-05-06T16:41:15Z</time>
      </trkpt>
      <trkpt lat="42.42518" lon="-1.71559">
        <ele>428.942</ele>
        <time>2013-05-06T16:41:02Z</time>
      </trkpt>
      <trkpt lat="42.4255" lon="-1.71568">
        <ele>432.726</ele>
        <time>2013-05-06T16:40:51Z</time>
      </trkpt>
      <trkpt lat="42.42568" lon="-1.71569">
        <ele>431.808</ele>
        <time>2013-05-06T16:40:47Z</time>
      </trkpt>
      <trkpt lat="42.42589" lon="-1.71563">
        <ele>433.299</ele>
        <time>2013-05-06T16:40:42Z</time>
      </trkpt>
      <trkpt lat="42.42597" lon="-1.71564">
        <ele>433.29</ele>
        <time>2013-05-06T16:40:40Z</time>
      </trkpt>
      <trkpt lat="42.42644" lon="-1.7159">
        <ele>435.612</ele>
        <time>2013-05-06T16:40:26Z</time>
      </trkpt>
      <trkpt lat="42.42647" lon="-1.71592">
        <ele>435.647</ele>
        <time>2013-05-06T16:40:25Z</time>
      </trkpt>
      <trkpt lat="42.42678" lon="-1.71627">
        <ele>434.264</ele>
        <time>2013-05-06T16:40:11Z</time>
      </trkpt>
      <trkpt lat="42.42713" lon="-1.71654">
        <ele>434.741</ele>
        <time>2013-05-06T16:39:59Z</time>
      </trkpt>
      <trkpt lat="42.42756" lon="-1.7169">
        <ele>437.589</ele>
        <time>2013-05-06T16:39:47Z</time>
      </trkpt>
      <trkpt lat="42.42796" lon="-1.7171">
        <ele>439.952</ele>
        <time>2013-05-06T16:39:36Z</time>
      </trkpt>
      <trkpt lat="42.42827" lon="-1.7172">
        <ele>440.417</ele>
        <time>2013-05-06T16:39:24Z</time>
      </trkpt>
      <trkpt lat="42.4285" lon="-1.71731">
        <ele>440.487</ele>
        <time>2013-05-06T16:39:13Z</time>
      </trkpt>
      <trkpt lat="42.42867" lon="-1.71743">
        <ele>439.915</ele>
        <time>2013-05-06T16:39:02Z</time>
      </trkpt>
      <trkpt lat="42.42882" lon="-1.71754">
        <ele>439.508</ele>
        <time>2013-05-06T16:38:51Z</time>
      </trkpt>
      <trkpt lat="42.42892" lon="-1.71762">
        <ele>438.022</ele>
        <time>2013-05-06T16:38:41Z</time>
      </trkpt>
      <trkpt lat="42.42897" lon="-1.71762">
        <ele>437.133</ele>
        <time>2013-05-06T16:38:36Z</time>
      </trkpt>
      <trkpt lat="42.4291" lon="-1.71773">
        <ele>434.745</ele>
        <time>2013-05-06T16:38:21Z</time>
      </trkpt>
      <trkpt lat="42.42924" lon="-1.71789">
        <ele>431.31</ele>
        <time>2013-05-06T16:38:04Z</time>
      </trkpt>
      <trkpt lat="42.42926" lon="-1.71793">
        <ele>431.347</ele>
        <time>2013-05-06T16:38:01Z</time>
      </trkpt>
      <trkpt lat="42.42929" lon="-1.71797">
        <ele>431.344</ele>
        <time>2013-05-06T16:37:57Z</time>
      </trkpt>
      <trkpt lat="42.42933" lon="-1.71804">
        <ele>429.922</ele>
        <time>2013-05-06T16:37:51Z</time>
      </trkpt>
      <trkpt lat="42.42944" lon="-1.71816">
        <ele>428.495</ele>
        <time>2013-05-06T16:37:38Z</time>
      </trkpt>
      <trkpt lat="42.42958" lon="-1.71835">
        <ele>427.458</ele>
        <time>2013-05-06T16:37:24Z</time>
      </trkpt>
      <trkpt lat="42.42965" lon="-1.71852">
        <ele>427.452</ele>
        <time>2013-05-06T16:37:14Z</time>
      </trkpt>
      <trkpt lat="42.42979" lon="-1.71866">
        <ele>427.417</ele>
        <time>2013-05-06T16:37:02Z</time>
      </trkpt>
      <trkpt lat="42.43" lon="-1.7188">
        <ele>427.408</ele>
        <time>2013-05-06T16:36:51Z</time>
      </trkpt>
      <trkpt lat="42.43019" lon="-1.71906">
        <ele>426.056</ele>
        <time>2013-05-06T16:36:42Z</time>
      </trkpt>
      <trkpt lat="42.43042" lon="-1.71942">
        <ele>426.047</ele>
        <time>2013-05-06T16:36:30Z</time>
      </trkpt>
      <trkpt lat="42.43065" lon="-1.71985">
        <ele>426.539</ele>
        <time>2013-05-06T16:36:19Z</time>
      </trkpt>
      <trkpt lat="42.43082" lon="-1.72016">
        <ele>426.574</ele>
        <time>2013-05-06T16:36:08Z</time>
      </trkpt>
      <trkpt lat="42.43102" lon="-1.72032">
        <ele>427.091</ele>
        <time>2013-05-06T16:35:59Z</time>
      </trkpt>
      <trkpt lat="42.43137" lon="-1.7205">
        <ele>427.028</ele>
        <time>2013-05-06T16:35:46Z</time>
      </trkpt>
      <trkpt lat="42.43161" lon="-1.72075">
        <ele>427.966</ele>
        <time>2013-05-06T16:35:35Z</time>
      </trkpt>
      <trkpt lat="42.43196" lon="-1.72109">
        <ele>428.449</ele>
        <time>2013-05-06T16:35:23Z</time>
      </trkpt>
      <trkpt lat="42.43252" lon="-1.72161">
        <ele>430.352</ele>
        <time>2013-05-06T16:35:08Z</time>
      </trkpt>
      <trkpt lat="42.43277" lon="-1.72189">
        <ele>431.353</ele>
        <time>2013-05-06T16:34:59Z</time>
      </trkpt>
      <trkpt lat="42.43299" lon="-1.72218">
        <ele>430.808</ele>
        <time>2013-05-06T16:34:45Z</time>
      </trkpt>
      <trkpt lat="42.43333" lon="-1.72262">
        <ele>432.708</ele>
        <time>2013-05-06T16:34:32Z</time>
      </trkpt>
      <trkpt lat="42.43368" lon="-1.72301">
        <ele>435.186</ele>
        <time>2013-05-06T16:34:22Z</time>
      </trkpt>
      <trkpt lat="42.43392" lon="-1.72331">
        <ele>435.627</ele>
        <time>2013-05-06T16:34:11Z</time>
      </trkpt>
      <trkpt lat="42.43413" lon="-1.72352">
        <ele>434.279</ele>
        <time>2013-05-06T16:34:00Z</time>
      </trkpt>
      <trkpt lat="42.43432" lon="-1.7238">
        <ele>432.744</ele>
        <time>2013-05-06T16:33:48Z</time>
      </trkpt>
      <trkpt lat="42.43466" lon="-1.72406">
        <ele>433.281</ele>
        <time>2013-05-06T16:33:38Z</time>
      </trkpt>
      <trkpt lat="42.43479" lon="-1.72422">
        <ele>434.288</ele>
        <time>2013-05-06T16:33:34Z</time>
      </trkpt>
      <trkpt lat="42.43512" lon="-1.7246">
        <ele>435.646</ele>
        <time>2013-05-06T16:33:22Z</time>
      </trkpt>
      <trkpt lat="42.4353" lon="-1.72482">
        <ele>434.249</ele>
        <time>2013-05-06T16:33:12Z</time>
      </trkpt>
      <trkpt lat="42.43543" lon="-1.72508">
        <ele>434.238</ele>
        <time>2013-05-06T16:33:01Z</time>
      </trkpt>
      <trkpt lat="42.43563" lon="-1.72531">
        <ele>435.17</ele>
        <time>2013-05-06T16:32:48Z</time>
      </trkpt>
      <trkpt lat="42.43586" lon="-1.72554">
        <ele>435.117</ele>
        <time>2013-05-06T16:32:37Z</time>
      </trkpt>
      <trkpt lat="42.43608" lon="-1.72565">
        <ele>434.208</ele>
        <time>2013-05-06T16:32:25Z</time>
      </trkpt>
      <trkpt lat="42.43631" lon="-1.72572">
        <ele>432.374</ele>
        <time>2013-05-06T16:32:13Z</time>
      </trkpt>
      <trkpt lat="42.43657" lon="-1.72589">
        <ele>430.345</ele>
        <time>2013-05-06T16:31:59Z</time>
      </trkpt>
      <trkpt lat="42.43679" lon="-1.72608">
        <ele>429.447</ele>
        <time>2013-05-06T16:31:50Z</time>
      </trkpt>
      <trkpt lat="42.43713" lon="-1.72632">
        <ele>429.472</ele>
        <time>2013-05-06T16:31:39Z</time>
      </trkpt>
      <trkpt lat="42.43751" lon="-1.72668">
        <ele>429.459</ele>
        <time>2013-05-06T16:31:25Z</time>
      </trkpt>
      <trkpt lat="42.43783" lon="-1.727">
        <ele>429.476</ele>
        <time>2013-05-06T16:31:12Z</time>
      </trkpt>
      <trkpt lat="42.43808" lon="-1.7273">
        <ele>429.924</ele>
        <time>2013-05-06T16:31:01Z</time>
      </trkpt>
      <trkpt lat="42.43833" lon="-1.72765">
        <ele>429.977</ele>
        <time>2013-05-06T16:30:50Z</time>
      </trkpt>
      <trkpt lat="42.43858" lon="-1.72795">
        <ele>430.384</ele>
        <time>2013-05-06T16:30:38Z</time>
      </trkpt>
      <trkpt lat="42.43879" lon="-1.72829">
        <ele>430.307</ele>
        <time>2013-05-06T16:30:27Z</time>
      </trkpt>
      <trkpt lat="42.43889" lon="-1.72859">
        <ele>430.817</ele>
        <time>2013-05-06T16:30:17Z</time>
      </trkpt>
      <trkpt lat="42.439" lon="-1.72886">
        <ele>431.808</ele>
        <time>2013-05-06T16:30:06Z</time>
      </trkpt>
      <trkpt lat="42.43905" lon="-1.7289">
        <ele>431.819</ele>
        <time>2013-05-06T16:29:09Z</time>
      </trkpt>
      <trkpt lat="42.43904" lon="-1.72893">
        <ele>431.88</ele>
        <time>2013-05-06T16:28:46Z</time>
      </trkpt>
      <trkpt lat="42.43905" lon="-1.7289">
        <ele>431.342</ele>
        <time>2013-05-06T16:26:29Z</time>
      </trkpt>
      <trkpt lat="42.43911" lon="-1.72901">
        <ele>431.317</ele>
        <time>2013-05-06T16:26:19Z</time>
      </trkpt>
      <trkpt lat="42.43915" lon="-1.72904">
        <ele>431.334</ele>
        <time>2013-05-06T16:26:16Z</time>
      </trkpt>
      <trkpt lat="42.43934" lon="-1.72931">
        <ele>430.371</ele>
        <time>2013-05-06T16:26:03Z</time>
      </trkpt>
      <trkpt lat="42.43952" lon="-1.72959">
        <ele>429.999</ele>
        <time>2013-05-06T16:25:49Z</time>
      </trkpt>
      <trkpt lat="42.4397" lon="-1.72979">
        <ele>428.932</ele>
        <time>2013-05-06T16:25:34Z</time>
      </trkpt>
      <trkpt lat="42.43971" lon="-1.72982">
        <ele>428.934</ele>
        <time>2013-05-06T16:25:32Z</time>
      </trkpt>
      <trkpt lat="42.43973" lon="-1.72984">
        <ele>428.955</ele>
        <time>2013-05-06T16:25:30Z</time>
      </trkpt>
      <trkpt lat="42.43981" lon="-1.72994">
        <ele>428.91</ele>
        <time>2013-05-06T16:25:23Z</time>
      </trkpt>
      <trkpt lat="42.43983" lon="-1.73008">
        <ele>428.908</ele>
        <time>2013-05-06T16:25:15Z</time>
      </trkpt>
      <trkpt lat="42.43992" lon="-1.73037">
        <ele>430.314</ele>
        <time>2013-05-06T16:25:06Z</time>
      </trkpt>
      <trkpt lat="42.44015" lon="-1.73069">
        <ele>431.835</ele>
        <time>2013-05-06T16:24:55Z</time>
      </trkpt>
      <trkpt lat="42.44025" lon="-1.73079">
        <ele>432.367</ele>
        <time>2013-05-06T16:24:41Z</time>
      </trkpt>
      <trkpt lat="42.44029" lon="-1.73084">
        <ele>432.342</ele>
        <time>2013-05-06T16:24:33Z</time>
      </trkpt>
      <trkpt lat="42.44046" lon="-1.73125">
        <ele>433.229</ele>
        <time>2013-05-06T16:24:25Z</time>
      </trkpt>
      <trkpt lat="42.44071" lon="-1.73158">
        <ele>433.726</ele>
        <time>2013-05-06T16:24:19Z</time>
      </trkpt>
      <trkpt lat="42.4413" lon="-1.73237">
        <ele>433.754</ele>
        <time>2013-05-06T16:24:05Z</time>
      </trkpt>
      <trkpt lat="42.44206" lon="-1.73333">
        <ele>435.677</ele>
        <time>2013-05-06T16:23:49Z</time>
      </trkpt>
      <trkpt lat="42.44289" lon="-1.73432">
        <ele>438.597</ele>
        <time>2013-05-06T16:23:33Z</time>
      </trkpt>
      <trkpt lat="42.4436" lon="-1.73518">
        <ele>441.423</ele>
        <time>2013-05-06T16:23:18Z</time>
      </trkpt>
      <trkpt lat="42.44427" lon="-1.73587">
        <ele>442.325</ele>
        <time>2013-05-06T16:23:02Z</time>
      </trkpt>
      <trkpt lat="42.4448" lon="-1.73626">
        <ele>442.308</ele>
        <time>2013-05-06T16:22:50Z</time>
      </trkpt>
      <trkpt lat="42.44499" lon="-1.73629">
        <ele>442.34</ele>
        <time>2013-05-06T16:22:46Z</time>
      </trkpt>
      <trkpt lat="42.44519" lon="-1.73627">
        <ele>442.361</ele>
        <time>2013-05-06T16:22:42Z</time>
      </trkpt>
      <trkpt lat="42.44549" lon="-1.73639">
        <ele>441.913</ele>
        <time>2013-05-06T16:22:36Z</time>
      </trkpt>
      <trkpt lat="42.44558" lon="-1.73648">
        <ele>441.988</ele>
        <time>2013-05-06T16:22:34Z</time>
      </trkpt>
      <trkpt lat="42.44616" lon="-1.73716">
        <ele>443.385</ele>
        <time>2013-05-06T16:22:20Z</time>
      </trkpt>
      <trkpt lat="42.44627" lon="-1.73729">
        <ele>444.842</ele>
        <time>2013-05-06T16:22:17Z</time>
      </trkpt>
      <trkpt lat="42.44663" lon="-1.7377">
        <ele>443.85</ele>
        <time>2013-05-06T16:22:05Z</time>
      </trkpt>
      <trkpt lat="42.44697" lon="-1.73794">
        <ele>443.823</ele>
        <time>2013-05-06T16:21:55Z</time>
      </trkpt>
      <trkpt lat="42.44751" lon="-1.73843">
        <ele>443.366</ele>
        <time>2013-05-06T16:21:44Z</time>
      </trkpt>
      <trkpt lat="42.44802" lon="-1.73918">
        <ele>444.329</ele>
        <time>2013-05-06T16:21:32Z</time>
      </trkpt>
      <trkpt lat="42.44869" lon="-1.73995">
        <ele>446.721</ele>
        <time>2013-05-06T16:21:18Z</time>
      </trkpt>
      <trkpt lat="42.44899" lon="-1.74027">
        <ele>449.108</ele>
        <time>2013-05-06T16:21:10Z</time>
      </trkpt>
      <trkpt lat="42.44933" lon="-1.74063">
        <ele>449.197</ele>
        <time>2013-05-06T16:20:54Z</time>
      </trkpt>
      <trkpt lat="42.44956" lon="-1.74086">
        <ele>448.128</ele>
        <time>2013-05-06T16:20:41Z</time>
      </trkpt>
      <trkpt lat="42.44975" lon="-1.74105">
        <ele>446.78</ele>
        <time>2013-05-06T16:20:29Z</time>
      </trkpt>
      <trkpt lat="42.45002" lon="-1.74115">
        <ele>445.225</ele>
        <time>2013-05-06T16:20:15Z</time>
      </trkpt>
      <trkpt lat="42.45026" lon="-1.74116">
        <ele>443.872</ele>
        <time>2013-05-06T16:20:03Z</time>
      </trkpt>
      <trkpt lat="42.45056" lon="-1.7412">
        <ele>441.479</ele>
        <time>2013-05-06T16:19:48Z</time>
      </trkpt>
      <trkpt lat="42.45085" lon="-1.74129">
        <ele>439.997</ele>
        <time>2013-05-06T16:19:34Z</time>
      </trkpt>
      <trkpt lat="42.45113" lon="-1.74141">
        <ele>438.08</ele>
        <time>2013-05-06T16:19:20Z</time>
      </trkpt>
      <trkpt lat="42.45146" lon="-1.74157">
        <ele>436.131</ele>
        <time>2013-05-06T16:19:05Z</time>
      </trkpt>
      <trkpt lat="42.45178" lon="-1.7418">
        <ele>434.761</ele>
        <time>2013-05-06T16:18:51Z</time>
      </trkpt>
      <trkpt lat="42.45202" lon="-1.7422">
        <ele>433.207</ele>
        <time>2013-05-06T16:18:36Z</time>
      </trkpt>
      <trkpt lat="42.45228" lon="-1.74275">
        <ele>431.808</ele>
        <time>2013-05-06T16:18:20Z</time>
      </trkpt>
      <trkpt lat="42.45247" lon="-1.74316">
        <ele>431.814</ele>
        <time>2013-05-06T16:18:09Z</time>
      </trkpt>
      <trkpt lat="42.45272" lon="-1.74336">
        <ele>430.855</ele>
        <time>2013-05-06T16:17:59Z</time>
      </trkpt>
      <trkpt lat="42.45301" lon="-1.74345">
        <ele>429.967</ele>
        <time>2013-05-06T16:17:50Z</time>
      </trkpt>
      <trkpt lat="42.45346" lon="-1.74391">
        <ele>429.932</ele>
        <time>2013-05-06T16:17:35Z</time>
      </trkpt>
      <trkpt lat="42.45372" lon="-1.74437">
        <ele>428.939</ele>
        <time>2013-05-06T16:17:21Z</time>
      </trkpt>
      <trkpt lat="42.45391" lon="-1.74472">
        <ele>427.056</ele>
        <time>2013-05-06T16:17:08Z</time>
      </trkpt>
      <trkpt lat="42.45409" lon="-1.74499">
        <ele>425.594</ele>
        <time>2013-05-06T16:16:59Z</time>
      </trkpt>
      <trkpt lat="42.45426" lon="-1.74511">
        <ele>425.547</ele>
        <time>2013-05-06T16:16:55Z</time>
      </trkpt>
      <trkpt lat="42.45454" lon="-1.74518">
        <ele>426.087</ele>
        <time>2013-05-06T16:16:49Z</time>
      </trkpt>
      <trkpt lat="42.45504" lon="-1.74555">
        <ele>425.542</ele>
        <time>2013-05-06T16:16:37Z</time>
      </trkpt>
      <trkpt lat="42.45568" lon="-1.74609">
        <ele>426.026</ele>
        <time>2013-05-06T16:16:23Z</time>
      </trkpt>
      <trkpt lat="42.45602" lon="-1.74647">
        <ele>427.408</ele>
        <time>2013-05-06T16:16:12Z</time>
      </trkpt>
      <trkpt lat="42.45634" lon="-1.74688">
        <ele>427.049</ele>
        <time>2013-05-06T16:15:58Z</time>
      </trkpt>
      <trkpt lat="42.45656" lon="-1.74716">
        <ele>425.04</ele>
        <time>2013-05-06T16:15:45Z</time>
      </trkpt>
      <trkpt lat="42.4568" lon="-1.74748">
        <ele>423.162</ele>
        <time>2013-05-06T16:15:32Z</time>
      </trkpt>
      <trkpt lat="42.45715" lon="-1.74794">
        <ele>421.797</ele>
        <time>2013-05-06T16:15:19Z</time>
      </trkpt>
      <trkpt lat="42.45724" lon="-1.74807">
        <ele>420.294</ele>
        <time>2013-05-06T16:15:16Z</time>
      </trkpt>
      <trkpt lat="42.45763" lon="-1.74856">
        <ele>421.241</ele>
        <time>2013-05-06T16:15:05Z</time>
      </trkpt>
      <trkpt lat="42.45813" lon="-1.74913">
        <ele>421.799</ele>
        <time>2013-05-06T16:14:52Z</time>
      </trkpt>
      <trkpt lat="42.45857" lon="-1.74973">
        <ele>421.722</ele>
        <time>2013-05-06T16:14:38Z</time>
      </trkpt>
      <trkpt lat="42.45897" lon="-1.75039">
        <ele>422.681</ele>
        <time>2013-05-06T16:14:25Z</time>
      </trkpt>
      <trkpt lat="42.4591" lon="-1.75062">
        <ele>423.161</ele>
        <time>2013-05-06T16:14:21Z</time>
      </trkpt>
      <trkpt lat="42.45927" lon="-1.7509">
        <ele>423.617</ele>
        <time>2013-05-06T16:14:16Z</time>
      </trkpt>
      <trkpt lat="42.45962" lon="-1.75146">
        <ele>425.008</ele>
        <time>2013-05-06T16:14:05Z</time>
      </trkpt>
      <trkpt lat="42.45967" lon="-1.75154">
        <ele>426.039</ele>
        <time>2013-05-06T16:14:03Z</time>
      </trkpt>
      <trkpt lat="42.45993" lon="-1.75196">
        <ele>426.58</ele>
        <time>2013-05-06T16:13:50Z</time>
      </trkpt>
      <trkpt lat="42.46012" lon="-1.75228">
        <ele>426.592</ele>
        <time>2013-05-06T16:13:38Z</time>
      </trkpt>
      <trkpt lat="42.46035" lon="-1.75268">
        <ele>425.057</ele>
        <time>2013-05-06T16:13:20Z</time>
      </trkpt>
      <trkpt lat="42.46061" lon="-1.75297">
        <ele>422.234</ele>
        <time>2013-05-06T16:13:03Z</time>
      </trkpt>
      <trkpt lat="42.46089" lon="-1.75316">
        <ele>420.251</ele>
        <time>2013-05-06T16:12:48Z</time>
      </trkpt>
      <trkpt lat="42.46126" lon="-1.75341">
        <ele>418.399</ele>
        <time>2013-05-06T16:12:32Z</time>
      </trkpt>
      <trkpt lat="42.46165" lon="-1.75364">
        <ele>416.952</ele>
        <time>2013-05-06T16:12:17Z</time>
      </trkpt>
      <trkpt lat="42.46201" lon="-1.75384">
        <ele>415.442</ele>
        <time>2013-05-06T16:12:03Z</time>
      </trkpt>
      <trkpt lat="42.46212" lon="-1.75389">
        <ele>414.022</ele>
        <time>2013-05-06T16:11:59Z</time>
      </trkpt>
      <trkpt lat="42.46254" lon="-1.75412">
        <ele>414.014</ele>
        <time>2013-05-06T16:11:45Z</time>
      </trkpt>
      <trkpt lat="42.46308" lon="-1.75447">
        <ele>415.008</ele>
        <time>2013-05-06T16:11:31Z</time>
      </trkpt>
      <trkpt lat="42.46347" lon="-1.75472">
        <ele>415.975</ele>
        <time>2013-05-06T16:11:18Z</time>
      </trkpt>
      <trkpt lat="42.46366" lon="-1.75485">
        <ele>415.496</ele>
        <time>2013-05-06T16:11:08Z</time>
      </trkpt>
      <trkpt lat="42.46398" lon="-1.75504">
        <ele>414.048</ele>
        <time>2013-05-06T16:10:52Z</time>
      </trkpt>
      <trkpt lat="42.46425" lon="-1.75521">
        <ele>411.653</ele>
        <time>2013-05-06T16:10:38Z</time>
      </trkpt>
      <trkpt lat="42.46449" lon="-1.75538">
        <ele>409.75</ele>
        <time>2013-05-06T16:10:24Z</time>
      </trkpt>
      <trkpt lat="42.46475" lon="-1.7556">
        <ele>408.267</ele>
        <time>2013-05-06T16:10:08Z</time>
      </trkpt>
      <trkpt lat="42.46497" lon="-1.75581">
        <ele>405.855</ele>
        <time>2013-05-06T16:09:54Z</time>
      </trkpt>
      <trkpt lat="42.46518" lon="-1.75604">
        <ele>403.968</ele>
        <time>2013-05-06T16:09:40Z</time>
      </trkpt>
      <trkpt lat="42.46535" lon="-1.75623">
        <ele>402.587</ele>
        <time>2013-05-06T16:09:28Z</time>
      </trkpt>
      <trkpt lat="42.46561" lon="-1.75649">
        <ele>400.142</ele>
        <time>2013-05-06T16:09:14Z</time>
      </trkpt>
      <trkpt lat="42.46603" lon="-1.75692">
        <ele>398.126</ele>
        <time>2013-05-06T16:08:57Z</time>
      </trkpt>
      <trkpt lat="42.46641" lon="-1.75729">
        <ele>397.208</ele>
        <time>2013-05-06T16:08:43Z</time>
      </trkpt>
      <trkpt lat="42.46678" lon="-1.75759">
        <ele>396.769</ele>
        <time>2013-05-06T16:08:30Z</time>
      </trkpt>
      <trkpt lat="42.46728" lon="-1.75797">
        <ele>395.24</ele>
        <time>2013-05-06T16:08:12Z</time>
      </trkpt>
      <trkpt lat="42.4677" lon="-1.75829">
        <ele>393.832</ele>
        <time>2013-05-06T16:07:57Z</time>
      </trkpt>
      <trkpt lat="42.46823" lon="-1.75868">
        <ele>392.847</ele>
        <time>2013-05-06T16:07:39Z</time>
      </trkpt>
      <trkpt lat="42.46872" lon="-1.75902">
        <ele>391.994</ele>
        <time>2013-05-06T16:07:24Z</time>
      </trkpt>
      <trkpt lat="42.46917" lon="-1.75921">
        <ele>391.451</ele>
        <time>2013-05-06T16:07:12Z</time>
      </trkpt>
      <trkpt lat="42.46969" lon="-1.75936">
        <ele>390.929</ele>
        <time>2013-05-06T16:06:56Z</time>
      </trkpt>
      <trkpt lat="42.47019" lon="-1.75947">
        <ele>390.082</ele>
        <time>2013-05-06T16:06:40Z</time>
      </trkpt>
      <trkpt lat="42.47075" lon="-1.75958">
        <ele>390.038</ele>
        <time>2013-05-06T16:06:24Z</time>
      </trkpt>
      <trkpt lat="42.47117" lon="-1.75962">
        <ele>389.57</ele>
        <time>2013-05-06T16:06:11Z</time>
      </trkpt>
      <trkpt lat="42.47149" lon="-1.7596">
        <ele>387.617</ele>
        <time>2013-05-06T16:05:58Z</time>
      </trkpt>
      <trkpt lat="42.4719" lon="-1.75957">
        <ele>385.608</ele>
        <time>2013-05-06T16:05:42Z</time>
      </trkpt>
      <trkpt lat="42.47229" lon="-1.75954">
        <ele>384.244</ele>
        <time>2013-05-06T16:05:28Z</time>
      </trkpt>
      <trkpt lat="42.47278" lon="-1.75952">
        <ele>383.235</ele>
        <time>2013-05-06T16:05:13Z</time>
      </trkpt>
      <trkpt lat="42.47322" lon="-1.75949">
        <ele>383.267</ele>
        <time>2013-05-06T16:05:01Z</time>
      </trkpt>
      <trkpt lat="42.47367" lon="-1.75947">
        <ele>381.832</ele>
        <time>2013-05-06T16:04:46Z</time>
      </trkpt>
      <trkpt lat="42.47388" lon="-1.75946">
        <ele>380.899</ele>
        <time>2013-05-06T16:04:40Z</time>
      </trkpt>
      <trkpt lat="42.47459" lon="-1.75945">
        <ele>380.836</ele>
        <time>2013-05-06T16:04:25Z</time>
      </trkpt>
      <trkpt lat="42.47537" lon="-1.75948">
        <ele>382.764</ele>
        <time>2013-05-06T16:04:10Z</time>
      </trkpt>
      <trkpt lat="42.47597" lon="-1.7596">
        <ele>382.757</ele>
        <time>2013-05-06T16:03:55Z</time>
      </trkpt>
      <trkpt lat="42.47639" lon="-1.7597">
        <ele>382.318</ele>
        <time>2013-05-06T16:03:41Z</time>
      </trkpt>
      <trkpt lat="42.47677" lon="-1.75983">
        <ele>380.398</ele>
        <time>2013-05-06T16:03:25Z</time>
      </trkpt>
      <trkpt lat="42.47707" lon="-1.75998">
        <ele>378.417</ele>
        <time>2013-05-06T16:03:10Z</time>
      </trkpt>
      <trkpt lat="42.47739" lon="-1.76015">
        <ele>376.508</ele>
        <time>2013-05-06T16:02:56Z</time>
      </trkpt>
      <trkpt lat="42.47792" lon="-1.7604">
        <ele>374.182</ele>
        <time>2013-05-06T16:02:38Z</time>
      </trkpt>
      <trkpt lat="42.47837" lon="-1.76058">
        <ele>374.123</ele>
        <time>2013-05-06T16:02:27Z</time>
      </trkpt>
      <trkpt lat="42.47898" lon="-1.76086">
        <ele>374.135</ele>
        <time>2013-05-06T16:02:14Z</time>
      </trkpt>
      <trkpt lat="42.4792" lon="-1.76094">
        <ele>373.63</ele>
        <time>2013-05-06T16:02:09Z</time>
      </trkpt>
      <trkpt lat="42.47929" lon="-1.76099">
        <ele>373.647</ele>
        <time>2013-05-06T16:02:07Z</time>
      </trkpt>
      <trkpt lat="42.47947" lon="-1.76106">
        <ele>373.664</ele>
        <time>2013-05-06T16:02:03Z</time>
      </trkpt>
      <trkpt lat="42.48024" lon="-1.76139">
        <ele>373.672</ele>
        <time>2013-05-06T16:01:47Z</time>
      </trkpt>
      <trkpt lat="42.48098" lon="-1.76154">
        <ele>372.275</ele>
        <time>2013-05-06T16:01:32Z</time>
      </trkpt>
      <trkpt lat="42.48173" lon="-1.76175">
        <ele>374.165</ele>
        <time>2013-05-06T16:01:20Z</time>
      </trkpt>
      <trkpt lat="42.48241" lon="-1.76192">
        <ele>376.068</ele>
        <time>2013-05-06T16:01:09Z</time>
      </trkpt>
      <trkpt lat="42.48278" lon="-1.7619">
        <ele>377.514</ele>
        <time>2013-05-06T16:01:02Z</time>
      </trkpt>
      <trkpt lat="42.48341" lon="-1.76194">
        <ele>376.508</ele>
        <time>2013-05-06T16:00:46Z</time>
      </trkpt>
      <trkpt lat="42.48404" lon="-1.76213">
        <ele>376.577</ele>
        <time>2013-05-06T16:00:32Z</time>
      </trkpt>
      <trkpt lat="42.48427" lon="-1.7622">
        <ele>377.968</ele>
        <time>2013-05-06T16:00:27Z</time>
      </trkpt>
      <trkpt lat="42.4847" lon="-1.76235">
        <ele>377.91</ele>
        <time>2013-05-06T16:00:15Z</time>
      </trkpt>
      <trkpt lat="42.48518" lon="-1.76251">
        <ele>376.095</ele>
        <time>2013-05-06T16:00:00Z</time>
      </trkpt>
      <trkpt lat="42.48577" lon="-1.76271">
        <ele>373.692</ele>
        <time>2013-05-06T15:59:43Z</time>
      </trkpt>
      <trkpt lat="42.48636" lon="-1.76303">
        <ele>372.799</ele>
        <time>2013-05-06T15:59:28Z</time>
      </trkpt>
      <trkpt lat="42.48691" lon="-1.7634">
        <ele>372.767</ele>
        <time>2013-05-06T15:59:14Z</time>
      </trkpt>
      <trkpt lat="42.48738" lon="-1.76383">
        <ele>373.16</ele>
        <time>2013-05-06T15:59:01Z</time>
      </trkpt>
      <trkpt lat="42.48795" lon="-1.76438">
        <ele>373.135</ele>
        <time>2013-05-06T15:58:48Z</time>
      </trkpt>
      <trkpt lat="42.48857" lon="-1.76502">
        <ele>374.686</ele>
        <time>2013-05-06T15:58:35Z</time>
      </trkpt>
      <trkpt lat="42.48867" lon="-1.76511">
        <ele>374.614</ele>
        <time>2013-05-06T15:58:33Z</time>
      </trkpt>
      <trkpt lat="42.48935" lon="-1.76578">
        <ele>376.008</ele>
        <time>2013-05-06T15:58:19Z</time>
      </trkpt>
      <trkpt lat="42.48994" lon="-1.76627">
        <ele>377.044</ele>
        <time>2013-05-06T15:58:06Z</time>
      </trkpt>
      <trkpt lat="42.4904" lon="-1.76673">
        <ele>377.925</ele>
        <time>2013-05-06T15:57:55Z</time>
      </trkpt>
      <trkpt lat="42.49094" lon="-1.76724">
        <ele>378.977</ele>
        <time>2013-05-06T15:57:43Z</time>
      </trkpt>
      <trkpt lat="42.49164" lon="-1.76791">
        <ele>380.352</ele>
        <time>2013-05-06T15:57:27Z</time>
      </trkpt>
      <trkpt lat="42.49225" lon="-1.76843">
        <ele>380.839</ele>
        <time>2013-05-06T15:57:13Z</time>
      </trkpt>
      <trkpt lat="42.49284" lon="-1.76895">
        <ele>381.896</ele>
        <time>2013-05-06T15:57:00Z</time>
      </trkpt>
      <trkpt lat="42.49351" lon="-1.76945">
        <ele>382.394</ele>
        <time>2013-05-06T15:56:45Z</time>
      </trkpt>
      <trkpt lat="42.49365" lon="-1.7695">
        <ele>382.797</ele>
        <time>2013-05-06T15:56:42Z</time>
      </trkpt>
      <trkpt lat="42.49394" lon="-1.76952">
        <ele>383.731</ele>
        <time>2013-05-06T15:56:36Z</time>
      </trkpt>
      <trkpt lat="42.49427" lon="-1.76952">
        <ele>384.761</ele>
        <time>2013-05-06T15:56:30Z</time>
      </trkpt>
      <trkpt lat="42.49485" lon="-1.76954">
        <ele>386.607</ele>
        <time>2013-05-06T15:56:19Z</time>
      </trkpt>
      <trkpt lat="42.49495" lon="-1.76957">
        <ele>387.108</ele>
        <time>2013-05-06T15:56:17Z</time>
      </trkpt>
      <trkpt lat="42.4954" lon="-1.76968">
        <ele>388.534</ele>
        <time>2013-05-06T15:56:06Z</time>
      </trkpt>
      <trkpt lat="42.49557" lon="-1.7697">
        <ele>389.585</ele>
        <time>2013-05-06T15:56:01Z</time>
      </trkpt>
      <trkpt lat="42.49597" lon="-1.76973">
        <ele>390.047</ele>
        <time>2013-05-06T15:55:47Z</time>
      </trkpt>
      <trkpt lat="42.49619" lon="-1.7698">
        <ele>390.952</ele>
        <time>2013-05-06T15:55:35Z</time>
      </trkpt>
      <trkpt lat="42.49636" lon="-1.76989">
        <ele>390.979</ele>
        <time>2013-05-06T15:55:22Z</time>
      </trkpt>
      <trkpt lat="42.49646" lon="-1.76995">
        <ele>390.986</ele>
        <time>2013-05-06T15:55:15Z</time>
      </trkpt>
      <trkpt lat="42.49663" lon="-1.77003">
        <ele>390.474</ele>
        <time>2013-05-06T15:55:07Z</time>
      </trkpt>
      <trkpt lat="42.49685" lon="-1.7701">
        <ele>390.027</ele>
        <time>2013-05-06T15:54:57Z</time>
      </trkpt>
      <trkpt lat="42.49712" lon="-1.77009">
        <ele>389.592</ele>
        <time>2013-05-06T15:54:44Z</time>
      </trkpt>
      <trkpt lat="42.49732" lon="-1.77009">
        <ele>388.573</ele>
        <time>2013-05-06T15:54:34Z</time>
      </trkpt>
      <trkpt lat="42.49755" lon="-1.77012">
        <ele>386.62</ele>
        <time>2013-05-06T15:54:22Z</time>
      </trkpt>
      <trkpt lat="42.49773" lon="-1.77015">
        <ele>384.708</ele>
        <time>2013-05-06T15:54:12Z</time>
      </trkpt>
      <trkpt lat="42.49794" lon="-1.77017">
        <ele>383.24</ele>
        <time>2013-05-06T15:54:00Z</time>
      </trkpt>
      <trkpt lat="42.49821" lon="-1.77022">
        <ele>381.311</ele>
        <time>2013-05-06T15:53:46Z</time>
      </trkpt>
      <trkpt lat="42.49852" lon="-1.7703">
        <ele>379.923</ele>
        <time>2013-05-06T15:53:32Z</time>
      </trkpt>
      <trkpt lat="42.49886" lon="-1.77038">
        <ele>378.468</ele>
        <time>2013-05-06T15:53:17Z</time>
      </trkpt>
      <trkpt lat="42.49918" lon="-1.7705">
        <ele>377.085</ele>
        <time>2013-05-06T15:53:05Z</time>
      </trkpt>
      <trkpt lat="42.49966" lon="-1.77068">
        <ele>376.572</ele>
        <time>2013-05-06T15:52:50Z</time>
      </trkpt>
      <trkpt lat="42.50007" lon="-1.77081">
        <ele>375.52</ele>
        <time>2013-05-06T15:52:36Z</time>
      </trkpt>
      <trkpt lat="42.50039" lon="-1.7709">
        <ele>374.193</ele>
        <time>2013-05-06T15:52:24Z</time>
      </trkpt>
      <trkpt lat="42.50078" lon="-1.77093">
        <ele>373.688</ele>
        <time>2013-05-06T15:52:11Z</time>
      </trkpt>
      <trkpt lat="42.50093" lon="-1.77095">
        <ele>373.624</ele>
        <time>2013-05-06T15:52:06Z</time>
      </trkpt>
      <trkpt lat="42.50118" lon="-1.77101">
        <ele>373.126</ele>
        <time>2013-05-06T15:51:58Z</time>
      </trkpt>
      <trkpt lat="42.50149" lon="-1.77106">
        <ele>371.208</ele>
        <time>2013-05-06T15:51:45Z</time>
      </trkpt>
      <trkpt lat="42.50178" lon="-1.77124">
        <ele>370.269</ele>
        <time>2013-05-06T15:51:35Z</time>
      </trkpt>
      <trkpt lat="42.50196" lon="-1.77133">
        <ele>370.28</ele>
        <time>2013-05-06T15:51:31Z</time>
      </trkpt>
      <trkpt lat="42.50221" lon="-1.77146">
        <ele>370.772</ele>
        <time>2013-05-06T15:51:25Z</time>
      </trkpt>
      <trkpt lat="42.50256" lon="-1.7716">
        <ele>369.347</ele>
        <time>2013-05-06T15:51:14Z</time>
      </trkpt>
      <trkpt lat="42.50312" lon="-1.77205">
        <ele>368.814</ele>
        <time>2013-05-06T15:50:59Z</time>
      </trkpt>
      <trkpt lat="42.50333" lon="-1.77214">
        <ele>368.861</ele>
        <time>2013-05-06T15:50:54Z</time>
      </trkpt>
      <trkpt lat="42.50383" lon="-1.77228">
        <ele>368.869</ele>
        <time>2013-05-06T15:50:42Z</time>
      </trkpt>
      <trkpt lat="42.50407" lon="-1.77243">
        <ele>368.812</ele>
        <time>2013-05-06T15:50:36Z</time>
      </trkpt>
      <trkpt lat="42.50431" lon="-1.77268">
        <ele>368.813</ele>
        <time>2013-05-06T15:50:29Z</time>
      </trkpt>
      <trkpt lat="42.50477" lon="-1.77311">
        <ele>368.843</ele>
        <time>2013-05-06T15:50:16Z</time>
      </trkpt>
      <trkpt lat="42.50518" lon="-1.77343">
        <ele>368.307</ele>
        <time>2013-05-06T15:50:05Z</time>
      </trkpt>
      <trkpt lat="42.50571" lon="-1.77406">
        <ele>367.408</ele>
        <time>2013-05-06T15:49:49Z</time>
      </trkpt>
      <trkpt lat="42.50581" lon="-1.77413">
        <ele>367.432</ele>
        <time>2013-05-06T15:49:46Z</time>
      </trkpt>
      <trkpt lat="42.50584" lon="-1.77416">
        <ele>367.433</ele>
        <time>2013-05-06T15:49:45Z</time>
      </trkpt>
      <trkpt lat="42.50605" lon="-1.77449">
        <ele>367.875</ele>
        <time>2013-05-06T15:49:37Z</time>
      </trkpt>
      <trkpt lat="42.5062" lon="-1.7747">
        <ele>367.82</ele>
        <time>2013-05-06T15:49:32Z</time>
      </trkpt>
      <trkpt lat="42.50659" lon="-1.77502">
        <ele>367.877</ele>
        <time>2013-05-06T15:49:20Z</time>
      </trkpt>
      <trkpt lat="42.50688" lon="-1.77507">
        <ele>367.484</ele>
        <time>2013-05-06T15:49:11Z</time>
      </trkpt>
      <trkpt lat="42.50717" lon="-1.77523">
        <ele>367.872</ele>
        <time>2013-05-06T15:49:01Z</time>
      </trkpt>
      <trkpt lat="42.50725" lon="-1.77527">
        <ele>367.845</ele>
        <time>2013-05-06T15:48:59Z</time>
      </trkpt>
      <trkpt lat="42.50755" lon="-1.77554">
        <ele>368.312</ele>
        <time>2013-05-06T15:48:51Z</time>
      </trkpt>
      <trkpt lat="42.50783" lon="-1.77568">
        <ele>368.332</ele>
        <time>2013-05-06T15:48:45Z</time>
      </trkpt>
      <trkpt lat="42.50813" lon="-1.77576">
        <ele>368.305</ele>
        <time>2013-05-06T15:48:39Z</time>
      </trkpt>
      <trkpt lat="42.50866" lon="-1.77581">
        <ele>368.308</ele>
        <time>2013-05-06T15:48:28Z</time>
      </trkpt>
      <trkpt lat="42.50927" lon="-1.77588">
        <ele>368.392</ele>
        <time>2013-05-06T15:48:15Z</time>
      </trkpt>
      <trkpt lat="42.50978" lon="-1.77586">
        <ele>368.313</ele>
        <time>2013-05-06T15:48:03Z</time>
      </trkpt>
      <trkpt lat="42.51011" lon="-1.7759">
        <ele>368.395</ele>
        <time>2013-05-06T15:47:55Z</time>
      </trkpt>
      <trkpt lat="42.51037" lon="-1.776">
        <ele>368.36</ele>
        <time>2013-05-06T15:47:49Z</time>
      </trkpt>
      <trkpt lat="42.51041" lon="-1.77601">
        <ele>368.327</ele>
        <time>2013-05-06T15:47:48Z</time>
      </trkpt>
      <trkpt lat="42.51094" lon="-1.776">
        <ele>369.364</ele>
        <time>2013-05-06T15:47:38Z</time>
      </trkpt>
      <trkpt lat="42.5115" lon="-1.77625">
        <ele>371.222</ele>
        <time>2013-05-06T15:47:28Z</time>
      </trkpt>
      <trkpt lat="42.51169" lon="-1.77629">
        <ele>372.265</ele>
        <time>2013-05-06T15:47:24Z</time>
      </trkpt>
      <trkpt lat="42.51179" lon="-1.7763">
        <ele>372.761</ele>
        <time>2013-05-06T15:47:22Z</time>
      </trkpt>
      <trkpt lat="42.51184" lon="-1.77631">
        <ele>372.721</ele>
        <time>2013-05-06T15:47:21Z</time>
      </trkpt>
      <trkpt lat="42.51246" lon="-1.77669">
        <ele>373.113</ele>
        <time>2013-05-06T15:47:10Z</time>
      </trkpt>
      <trkpt lat="42.51287" lon="-1.77698">
        <ele>376.008</ele>
        <time>2013-05-06T15:47:03Z</time>
      </trkpt>
      <trkpt lat="42.51337" lon="-1.77718">
        <ele>377.057</ele>
        <time>2013-05-06T15:46:52Z</time>
      </trkpt>
      <trkpt lat="42.51395" lon="-1.77721">
        <ele>375.518</ele>
        <time>2013-05-06T15:46:41Z</time>
      </trkpt>
      <trkpt lat="42.51422" lon="-1.77727">
        <ele>375.53</ele>
        <time>2013-05-06T15:46:37Z</time>
      </trkpt>
      <trkpt lat="42.51479" lon="-1.77744">
        <ele>377.965</ele>
        <time>2013-05-06T15:46:29Z</time>
      </trkpt>
      <trkpt lat="42.51524" lon="-1.77748">
        <ele>381.342</ele>
        <time>2013-05-06T15:46:21Z</time>
      </trkpt>
      <trkpt lat="42.51539" lon="-1.77754">
        <ele>381.399</ele>
        <time>2013-05-06T15:46:17Z</time>
      </trkpt>
      <trkpt lat="42.51577" lon="-1.7777">
        <ele>380.387</ele>
        <time>2013-05-06T15:46:04Z</time>
      </trkpt>
      <trkpt lat="42.5161" lon="-1.77778">
        <ele>378.96</ele>
        <time>2013-05-06T15:45:53Z</time>
      </trkpt>
      <trkpt lat="42.51635" lon="-1.7778">
        <ele>377.583</ele>
        <time>2013-05-06T15:45:42Z</time>
      </trkpt>
      <trkpt lat="42.51677" lon="-1.77778">
        <ele>376.025</ele>
        <time>2013-05-06T15:45:31Z</time>
      </trkpt>
      <trkpt lat="42.51742" lon="-1.77762">
        <ele>375.517</ele>
        <time>2013-05-06T15:45:19Z</time>
      </trkpt>
      <trkpt lat="42.51748" lon="-1.7776">
        <ele>375.508</ele>
        <time>2013-05-06T15:45:18Z</time>
      </trkpt>
      <trkpt lat="42.51834" lon="-1.77736">
        <ele>378.439</ele>
        <time>2013-05-06T15:45:06Z</time>
      </trkpt>
      <trkpt lat="42.51909" lon="-1.77726">
        <ele>381.31</ele>
        <time>2013-05-06T15:44:56Z</time>
      </trkpt>
      <trkpt lat="42.51984" lon="-1.77721">
        <ele>384.762</ele>
        <time>2013-05-06T15:44:46Z</time>
      </trkpt>
      <trkpt lat="42.52052" lon="-1.77714">
        <ele>387.157</ele>
        <time>2013-05-06T15:44:35Z</time>
      </trkpt>
      <trkpt lat="42.52137" lon="-1.77671">
        <ele>390.074</ele>
        <time>2013-05-06T15:44:19Z</time>
      </trkpt>
      <trkpt lat="42.5223" lon="-1.77604">
        <ele>392.841</ele>
        <time>2013-05-06T15:44:01Z</time>
      </trkpt>
      <trkpt lat="42.52255" lon="-1.77597">
        <ele>393.359</ele>
        <time>2013-05-06T15:43:57Z</time>
      </trkpt>
      <trkpt lat="42.52336" lon="-1.776">
        <ele>396.732</ele>
        <time>2013-05-06T15:43:44Z</time>
      </trkpt>
      <trkpt lat="42.52412" lon="-1.77584">
        <ele>398.623</ele>
        <time>2013-05-06T15:43:29Z</time>
      </trkpt>
      <trkpt lat="42.52467" lon="-1.77567">
        <ele>400.583</ele>
        <time>2013-05-06T15:43:16Z</time>
      </trkpt>
      <trkpt lat="42.52501" lon="-1.77557">
        <ele>401.011</ele>
        <time>2013-05-06T15:43:04Z</time>
      </trkpt>
      <trkpt lat="42.52511" lon="-1.77554">
        <ele>402.508</ele>
        <time>2013-05-06T15:43:00Z</time>
      </trkpt>
      <trkpt lat="42.52516" lon="-1.77551">
        <ele>400.513</ele>
        <time>2013-05-06T15:42:58Z</time>
      </trkpt>
      <trkpt lat="42.52532" lon="-1.77543">
        <ele>402.944</ele>
        <time>2013-05-06T15:42:19Z</time>
      </trkpt>
      <trkpt lat="42.52534" lon="-1.7754">
        <ele>402.926</ele>
        <time>2013-05-06T15:42:09Z</time>
      </trkpt>
      <trkpt lat="42.52549" lon="-1.77532">
        <ele>402.521</ele>
        <time>2013-05-06T15:42:04Z</time>
      </trkpt>
      <trkpt lat="42.52611" lon="-1.77491">
        <ele>402.548</ele>
        <time>2013-05-06T15:41:44Z</time>
      </trkpt>
      <trkpt lat="42.52656" lon="-1.77464">
        <ele>402.095</ele>
        <time>2013-05-06T15:41:30Z</time>
      </trkpt>
      <trkpt lat="42.52693" lon="-1.77445">
        <ele>401.023</ele>
        <time>2013-05-06T15:41:19Z</time>
      </trkpt>
      <trkpt lat="42.52727" lon="-1.77431">
        <ele>399.616</ele>
        <time>2013-05-06T15:41:08Z</time>
      </trkpt>
      <trkpt lat="42.52798" lon="-1.77403">
        <ele>399.666</ele>
        <time>2013-05-06T15:40:50Z</time>
      </trkpt>
      <trkpt lat="42.5286" lon="-1.77379">
        <ele>399.629</ele>
        <time>2013-05-06T15:40:35Z</time>
      </trkpt>
      <trkpt lat="42.5293" lon="-1.77361">
        <ele>400.121</ele>
        <time>2013-05-06T15:40:19Z</time>
      </trkpt>
      <trkpt lat="42.52993" lon="-1.77363">
        <ele>401.008</ele>
        <time>2013-05-06T15:40:06Z</time>
      </trkpt>
      <trkpt lat="42.53058" lon="-1.77369">
        <ele>402.037</ele>
        <time>2013-05-06T15:39:52Z</time>
      </trkpt>
      <trkpt lat="42.53096" lon="-1.77355">
        <ele>402.048</ele>
        <time>2013-05-06T15:39:43Z</time>
      </trkpt>
      <trkpt lat="42.53161" lon="-1.77337">
        <ele>402.55</ele>
        <time>2013-05-06T15:39:28Z</time>
      </trkpt>
      <trkpt lat="42.53236" lon="-1.7732">
        <ele>402.915</ele>
        <time>2013-05-06T15:39:12Z</time>
      </trkpt>
      <trkpt lat="42.53301" lon="-1.77306">
        <ele>403.922</ele>
        <time>2013-05-06T15:38:57Z</time>
      </trkpt>
      <trkpt lat="42.53326" lon="-1.77301">
        <ele>405.369</ele>
        <time>2013-05-06T15:38:51Z</time>
      </trkpt>
      <trkpt lat="42.53351" lon="-1.77302">
        <ele>405.367</ele>
        <time>2013-05-06T15:38:43Z</time>
      </trkpt>
      <trkpt lat="42.53364" lon="-1.77343">
        <ele>404.92</ele>
        <time>2013-05-06T15:38:31Z</time>
      </trkpt>
      <trkpt lat="42.53372" lon="-1.77405">
        <ele>403.485</ele>
        <time>2013-05-06T15:38:14Z</time>
      </trkpt>
      <trkpt lat="42.53382" lon="-1.77462">
        <ele>402.589</ele>
        <time>2013-05-06T15:37:57Z</time>
      </trkpt>
      <trkpt lat="42.53389" lon="-1.77489">
        <ele>402.517</ele>
        <time>2013-05-06T15:37:01Z</time>
      </trkpt>
      <trkpt lat="42.53391" lon="-1.7749">
        <ele>401.508</ele>
        <time>2013-05-06T15:36:15Z</time>
      </trkpt>
      <trkpt lat="42.53393" lon="-1.77488">
        <ele>401.549</ele>
        <time>2013-05-06T15:35:17Z</time>
      </trkpt>
      <trkpt lat="42.53391" lon="-1.77487">
        <ele>401.57</ele>
        <time>2013-05-06T15:34:35Z</time>
      </trkpt>
      <trkpt lat="42.53393" lon="-1.77491">
        <ele>402.062</ele>
        <time>2013-05-06T15:26:05Z</time>
      </trkpt>
      <trkpt lat="42.53391" lon="-1.7749">
        <ele>402.087</ele>
        <time>2013-05-06T15:25:35Z</time>
      </trkpt>
      <trkpt lat="42.53393" lon="-1.77493">
        <ele>402.094</ele>
        <time>2013-05-06T15:25:14Z</time>
      </trkpt>
      <trkpt lat="42.53398" lon="-1.77495">
        <ele>402.031</ele>
        <time>2013-05-06T15:25:02Z</time>
      </trkpt>
      <trkpt lat="42.53401" lon="-1.77492">
        <ele>402.019</ele>
        <time>2013-05-06T15:24:53Z</time>
      </trkpt>
      <trkpt lat="42.53411" lon="-1.77486">
        <ele>402.522</ele>
        <time>2013-05-06T15:24:40Z</time>
      </trkpt>
      <trkpt lat="42.53419" lon="-1.7748">
        <ele>402.516</ele>
        <time>2013-05-06T15:24:29Z</time>
      </trkpt>
      <trkpt lat="42.53424" lon="-1.77476">
        <ele>402.576</ele>
        <time>2013-05-06T15:24:20Z</time>
      </trkpt>
      <trkpt lat="42.53426" lon="-1.77473">
        <ele>402.513</ele>
        <time>2013-05-06T15:24:10Z</time>
      </trkpt>
      <trkpt lat="42.53433" lon="-1.77469">
        <ele>403.908</ele>
        <time>2013-05-06T15:23:57Z</time>
      </trkpt>
      <trkpt lat="42.53434" lon="-1.77465">
        <ele>404.442</ele>
        <time>2013-05-06T15:23:54Z</time>
      </trkpt>
      <trkpt lat="42.53435" lon="-1.77458">
        <ele>404.493</ele>
        <time>2013-05-06T15:23:45Z</time>
      </trkpt>
      <trkpt lat="42.53436" lon="-1.77455">
        <ele>404.435</ele>
        <time>2013-05-06T15:23:21Z</time>
      </trkpt>
      <trkpt lat="42.53437" lon="-1.77446">
        <ele>404.43</ele>
        <time>2013-05-06T15:23:11Z</time>
      </trkpt>
      <trkpt lat="42.53439" lon="-1.77423">
        <ele>404.927</ele>
        <time>2013-05-06T15:23:03Z</time>
      </trkpt>
      <trkpt lat="42.53439" lon="-1.77417">
        <ele>404.984</ele>
        <time>2013-05-06T15:22:51Z</time>
      </trkpt>
      <trkpt lat="42.5344" lon="-1.77407">
        <ele>405.342</ele>
        <time>2013-05-06T15:22:39Z</time>
      </trkpt>
      <trkpt lat="42.5344" lon="-1.77404">
        <ele>405.375</ele>
        <time>2013-05-06T15:22:36Z</time>
      </trkpt>
      <trkpt lat="42.53446" lon="-1.77395">
        <ele>405.829</ele>
        <time>2013-05-06T15:22:21Z</time>
      </trkpt>
      <trkpt lat="42.53448" lon="-1.77393">
        <ele>405.3</ele>
        <time>2013-05-06T15:22:16Z</time>
      </trkpt>
      <trkpt lat="42.53453" lon="-1.77371">
        <ele>406.82</ele>
        <time>2013-05-06T15:22:06Z</time>
      </trkpt>
      <trkpt lat="42.53469" lon="-1.77346">
        <ele>408.208</ele>
        <time>2013-05-06T15:21:55Z</time>
      </trkpt>
      <trkpt lat="42.53489" lon="-1.77336">
        <ele>408.223</ele>
        <time>2013-05-06T15:21:46Z</time>
      </trkpt>
      <trkpt lat="42.53518" lon="-1.77334">
        <ele>409.784</ele>
        <time>2013-05-06T15:21:34Z</time>
      </trkpt>
      <trkpt lat="42.53552" lon="-1.77327">
        <ele>411.656</ele>
        <time>2013-05-06T15:21:20Z</time>
      </trkpt>
      <trkpt lat="42.53565" lon="-1.77325">
        <ele>412.561</ele>
        <time>2013-05-06T15:20:11Z</time>
      </trkpt>
      <trkpt lat="42.53582" lon="-1.77325">
        <ele>412.528</ele>
        <time>2013-05-06T15:20:00Z</time>
      </trkpt>
      <trkpt lat="42.53611" lon="-1.7732">
        <ele>412.565</ele>
        <time>2013-05-06T15:19:46Z</time>
      </trkpt>
      <trkpt lat="42.53613" lon="-1.77317">
        <ele>412.553</ele>
        <time>2013-05-06T15:19:38Z</time>
      </trkpt>
      <trkpt lat="42.53606" lon="-1.77318">
        <ele>412.596</ele>
        <time>2013-05-06T15:19:29Z</time>
      </trkpt>
      <trkpt lat="42.53584" lon="-1.77322">
        <ele>412.599</ele>
        <time>2013-05-06T15:19:18Z</time>
      </trkpt>
      <trkpt lat="42.53565" lon="-1.77322">
        <ele>412.507</ele>
        <time>2013-05-06T15:19:01Z</time>
      </trkpt>
      <trkpt lat="42.53562" lon="-1.77325">
        <ele>412.127</ele>
        <time>2013-05-06T15:18:06Z</time>
      </trkpt>
      <trkpt lat="42.53584" lon="-1.77325">
        <ele>412.508</ele>
        <time>2013-05-06T15:17:55Z</time>
      </trkpt>
      <trkpt lat="42.53625" lon="-1.77317">
        <ele>413.58</ele>
        <time>2013-05-06T15:17:42Z</time>
      </trkpt>
      <trkpt lat="42.53663" lon="-1.77311">
        <ele>415.021</ele>
        <time>2013-05-06T15:17:30Z</time>
      </trkpt>
      <trkpt lat="42.53683" lon="-1.77316">
        <ele>415.933</ele>
        <time>2013-05-06T15:17:20Z</time>
      </trkpt>
      <trkpt lat="42.53684" lon="-1.77319">
        <ele>416.448</ele>
        <time>2013-05-06T15:17:19Z</time>
      </trkpt>
      <trkpt lat="42.53686" lon="-1.77321">
        <ele>416.495</ele>
        <time>2013-05-06T15:17:18Z</time>
      </trkpt>
      <trkpt lat="42.53691" lon="-1.77322">
        <ele>417.452</ele>
        <time>2013-05-06T15:17:15Z</time>
      </trkpt>
      <trkpt lat="42.53695" lon="-1.77317">
        <ele>417.42</ele>
        <time>2013-05-06T15:17:12Z</time>
      </trkpt>
      <trkpt lat="42.53696" lon="-1.77315">
        <ele>417.433</ele>
        <time>2013-05-06T15:17:11Z</time>
      </trkpt>
      <trkpt lat="42.53696" lon="-1.77298">
        <ele>418.867</ele>
        <time>2013-05-06T15:17:05Z</time>
      </trkpt>
      <trkpt lat="42.53696" lon="-1.77278">
        <ele>416.981</ele>
        <time>2013-05-06T15:16:11Z</time>
      </trkpt>
      <trkpt lat="42.53696" lon="-1.77278">
        <ele>416.919</ele>
        <time>2013-05-06T15:16:11Z</time>
      </trkpt>
      <trkpt lat="42.53722" lon="-1.77275">
        <ele>416.908</ele>
        <time>2013-05-06T15:15:59Z</time>
      </trkpt>
      <trkpt lat="42.53747" lon="-1.77269">
        <ele>417.447</ele>
        <time>2013-05-06T15:15:48Z</time>
      </trkpt>
      <trkpt lat="42.5376" lon="-1.77266">
        <ele>417.828</ele>
        <time>2013-05-06T15:15:39Z</time>
      </trkpt>
      <trkpt lat="42.53773" lon="-1.77266">
        <ele>418.31</ele>
        <time>2013-05-06T15:15:27Z</time>
      </trkpt>
      <trkpt lat="42.53785" lon="-1.77263">
        <ele>418.365</ele>
        <time>2013-05-06T15:15:14Z</time>
      </trkpt>
      <trkpt lat="42.53789" lon="-1.77261">
        <ele>418.812</ele>
        <time>2013-05-06T15:15:10Z</time>
      </trkpt>
      <trkpt lat="42.53807" lon="-1.77254">
        <ele>418.859</ele>
        <time>2013-05-06T15:14:54Z</time>
      </trkpt>
      <trkpt lat="42.53811" lon="-1.77252">
        <ele>418.897</ele>
        <time>2013-05-06T15:14:43Z</time>
      </trkpt>
      <trkpt lat="42.53819" lon="-1.77253">
        <ele>419.31</ele>
        <time>2013-05-06T15:14:31Z</time>
      </trkpt>
      <trkpt lat="42.53824" lon="-1.77253">
        <ele>419.323</ele>
        <time>2013-05-06T15:14:19Z</time>
      </trkpt>
      <trkpt lat="42.53828" lon="-1.77252">
        <ele>419.383</ele>
        <time>2013-05-06T15:14:09Z</time>
      </trkpt>
      <trkpt lat="42.53831" lon="-1.77253">
        <ele>419.811</ele>
        <time>2013-05-06T15:13:48Z</time>
      </trkpt>
      <trkpt lat="42.53839" lon="-1.77244">
        <ele>419.808</ele>
        <time>2013-05-06T15:13:36Z</time>
      </trkpt>
      <trkpt lat="42.53843" lon="-1.77227">
        <ele>420.283</ele>
        <time>2013-05-06T15:13:23Z</time>
      </trkpt>
      <trkpt lat="42.53853" lon="-1.77209">
        <ele>420.774</ele>
        <time>2013-05-06T15:13:11Z</time>
      </trkpt>
      <trkpt lat="42.53868" lon="-1.77196">
        <ele>421.226</ele>
        <time>2013-05-06T15:13:00Z</time>
      </trkpt>
      <trkpt lat="42.53883" lon="-1.7719">
        <ele>421.291</ele>
        <time>2013-05-06T15:12:48Z</time>
      </trkpt>
      <trkpt lat="42.53896" lon="-1.77182">
        <ele>421.718</ele>
        <time>2013-05-06T15:12:38Z</time>
      </trkpt>
      <trkpt lat="42.53916" lon="-1.7717">
        <ele>422.215</ele>
        <time>2013-05-06T15:12:25Z</time>
      </trkpt>
      <trkpt lat="42.53939" lon="-1.77163">
        <ele>422.613</ele>
        <time>2013-05-06T15:12:12Z</time>
      </trkpt>
      <trkpt lat="42.53963" lon="-1.77161">
        <ele>424.126</ele>
        <time>2013-05-06T15:12:03Z</time>
      </trkpt>
      <trkpt lat="42.53996" lon="-1.77169">
        <ele>426.529</ele>
        <time>2013-05-06T15:11:54Z</time>
      </trkpt>
      <trkpt lat="42.54026" lon="-1.7717">
        <ele>428.9</ele>
        <time>2013-05-06T15:11:45Z</time>
      </trkpt>
      <trkpt lat="42.54055" lon="-1.7717">
        <ele>430.32</ele>
        <time>2013-05-06T15:11:37Z</time>
      </trkpt>
      <trkpt lat="42.54094" lon="-1.77172">
        <ele>430.308</ele>
        <time>2013-05-06T15:11:23Z</time>
      </trkpt>
      <trkpt lat="42.54121" lon="-1.77168">
        <ele>430.343</ele>
        <time>2013-05-06T15:11:10Z</time>
      </trkpt>
      <trkpt lat="42.54126" lon="-1.77166">
        <ele>430.334</ele>
        <time>2013-05-06T15:10:39Z</time>
      </trkpt>
      <trkpt lat="42.5413" lon="-1.77165">
        <ele>430.326</ele>
        <time>2013-05-06T15:10:29Z</time>
      </trkpt>
      <trkpt lat="42.54139" lon="-1.77175">
        <ele>430.331</ele>
        <time>2013-05-06T15:10:21Z</time>
      </trkpt>
      <trkpt lat="42.54154" lon="-1.77196">
        <ele>430.318</ele>
        <time>2013-05-06T15:10:07Z</time>
      </trkpt>
      <trkpt lat="42.54172" lon="-1.77208">
        <ele>430.385</ele>
        <time>2013-05-06T15:09:52Z</time>
      </trkpt>
      <trkpt lat="42.54197" lon="-1.77207">
        <ele>430.813</ele>
        <time>2013-05-06T15:09:35Z</time>
      </trkpt>
      <trkpt lat="42.54217" lon="-1.772">
        <ele>431.336</ele>
        <time>2013-05-06T15:09:21Z</time>
      </trkpt>
      <trkpt lat="42.54237" lon="-1.77196">
        <ele>432.777</ele>
        <time>2013-05-06T15:09:06Z</time>
      </trkpt>
      <trkpt lat="42.54254" lon="-1.77201">
        <ele>433.261</ele>
        <time>2013-05-06T15:08:54Z</time>
      </trkpt>
      <trkpt lat="42.54274" lon="-1.77209">
        <ele>434.227</ele>
        <time>2013-05-06T15:08:39Z</time>
      </trkpt>
      <trkpt lat="42.5429" lon="-1.77212">
        <ele>434.708</ele>
        <time>2013-05-06T15:08:26Z</time>
      </trkpt>
      <trkpt lat="42.54306" lon="-1.77218">
        <ele>435.688</ele>
        <time>2013-05-06T15:08:14Z</time>
      </trkpt>
      <trkpt lat="42.54331" lon="-1.77218">
        <ele>437.129</ele>
        <time>2013-05-06T15:07:57Z</time>
      </trkpt>
      <trkpt lat="42.54352" lon="-1.77218">
        <ele>438.091</ele>
        <time>2013-05-06T15:07:44Z</time>
      </trkpt>
      <trkpt lat="42.54373" lon="-1.77222">
        <ele>439.056</ele>
        <time>2013-05-06T15:07:31Z</time>
      </trkpt>
      <trkpt lat="42.54396" lon="-1.77224">
        <ele>439.963</ele>
        <time>2013-05-06T15:07:19Z</time>
      </trkpt>
      <trkpt lat="42.54427" lon="-1.77236">
        <ele>442.83</ele>
        <time>2013-05-06T15:07:06Z</time>
      </trkpt>
      <trkpt lat="42.54449" lon="-1.77242">
        <ele>445.218</ele>
        <time>2013-05-06T15:06:56Z</time>
      </trkpt>
      <trkpt lat="42.54463" lon="-1.77236">
        <ele>446.791</ele>
        <time>2013-05-06T15:06:47Z</time>
      </trkpt>
      <trkpt lat="42.54484" lon="-1.77237">
        <ele>447.298</ele>
        <time>2013-05-06T15:06:35Z</time>
      </trkpt>
      <trkpt lat="42.54501" lon="-1.77232">
        <ele>448.615</ele>
        <time>2013-05-06T15:06:24Z</time>
      </trkpt>
      <trkpt lat="42.54509" lon="-1.77231">
        <ele>451.026</ele>
        <time>2013-05-06T15:06:14Z</time>
      </trkpt>
      <trkpt lat="42.5451" lon="-1.77234">
        <ele>450.508</ele>
        <time>2013-05-06T15:05:32Z</time>
      </trkpt>
      <trkpt lat="42.54515" lon="-1.77234">
        <ele>450.58</ele>
        <time>2013-05-06T15:05:21Z</time>
      </trkpt>
      <trkpt lat="42.54525" lon="-1.77236">
        <ele>451.571</ele>
        <time>2013-05-06T15:05:09Z</time>
      </trkpt>
      <trkpt lat="42.54528" lon="-1.77238">
        <ele>451.583</ele>
        <time>2013-05-06T15:05:05Z</time>
      </trkpt>
      <trkpt lat="42.54537" lon="-1.77255">
        <ele>452.948</ele>
        <time>2013-05-06T15:04:51Z</time>
      </trkpt>
      <trkpt lat="42.54543" lon="-1.7726">
        <ele>453.985</ele>
        <time>2013-05-06T15:04:42Z</time>
      </trkpt>
      <trkpt lat="42.54554" lon="-1.77266">
        <ele>453.982</ele>
        <time>2013-05-06T15:04:31Z</time>
      </trkpt>
      <trkpt lat="42.54565" lon="-1.77273">
        <ele>453.99</ele>
        <time>2013-05-06T15:04:19Z</time>
      </trkpt>
      <trkpt lat="42.54571" lon="-1.77283">
        <ele>453.953</ele>
        <time>2013-05-06T15:04:06Z</time>
      </trkpt>
      <trkpt lat="42.54576" lon="-1.77297">
        <ele>453.969</ele>
        <time>2013-05-06T15:03:51Z</time>
      </trkpt>
      <trkpt lat="42.54582" lon="-1.77311">
        <ele>453.904</ele>
        <time>2013-05-06T15:03:40Z</time>
      </trkpt>
      <trkpt lat="42.54583" lon="-1.77316">
        <ele>453.924</ele>
        <time>2013-05-06T15:03:36Z</time>
      </trkpt>
      <trkpt lat="42.54583" lon="-1.7732">
        <ele>453.908</ele>
        <time>2013-05-06T15:03:33Z</time>
      </trkpt>
      <trkpt lat="42.54591" lon="-1.77331">
        <ele>453.457</ele>
        <time>2013-05-06T15:03:21Z</time>
      </trkpt>
      <trkpt lat="42.54594" lon="-1.77336">
        <ele>452.978</ele>
        <time>2013-05-06T15:03:11Z</time>
      </trkpt>
      <trkpt lat="42.54603" lon="-1.77342">
        <ele>452.46</ele>
        <time>2013-05-06T15:02:59Z</time>
      </trkpt>
      <trkpt lat="42.54609" lon="-1.7734">
        <ele>452.465</ele>
        <time>2013-05-06T15:02:45Z</time>
      </trkpt>
      <trkpt lat="42.54608" lon="-1.77335">
        <ele>450.512</ele>
        <time>2013-05-06T15:02:34Z</time>
      </trkpt>
      <trkpt lat="42.5461" lon="-1.77337">
        <ele>450.529</ele>
        <time>2013-05-06T15:02:24Z</time>
      </trkpt>
      <trkpt lat="42.54613" lon="-1.77338">
        <ele>451.077</ele>
        <time>2013-05-06T15:02:13Z</time>
      </trkpt>
      <trkpt lat="42.54612" lon="-1.77342">
        <ele>452.47</ele>
        <time>2013-05-06T15:02:07Z</time>
      </trkpt>
      <trkpt lat="42.54611" lon="-1.77349">
        <ele>452.461</ele>
        <time>2013-05-06T15:01:56Z</time>
      </trkpt>
      <trkpt lat="42.54612" lon="-1.77353">
        <ele>451.021</ele>
        <time>2013-05-06T15:01:44Z</time>
      </trkpt>
      <trkpt lat="42.54615" lon="-1.77356">
        <ele>451.013</ele>
        <time>2013-05-06T15:01:02Z</time>
      </trkpt>
      <trkpt lat="42.54618" lon="-1.77359">
        <ele>451.008</ele>
        <time>2013-05-06T15:00:50Z</time>
      </trkpt>
      <trkpt lat="42.54631" lon="-1.77371">
        <ele>451.517</ele>
        <time>2013-05-06T15:00:39Z</time>
      </trkpt>
      <trkpt lat="42.54634" lon="-1.77384">
        <ele>452.428</ele>
        <time>2013-05-06T15:00:32Z</time>
      </trkpt>
      <trkpt lat="42.5464" lon="-1.77382">
        <ele>452.08</ele>
        <time>2013-05-06T14:59:00Z</time>
      </trkpt>
      <trkpt lat="42.54664" lon="-1.77373">
        <ele>450.575</ele>
        <time>2013-05-06T14:58:46Z</time>
      </trkpt>
      <trkpt lat="42.54689" lon="-1.77376">
        <ele>449.612</ele>
        <time>2013-05-06T14:58:31Z</time>
      </trkpt>
      <trkpt lat="42.54695" lon="-1.77378">
        <ele>449.129</ele>
        <time>2013-05-06T14:58:27Z</time>
      </trkpt>
      <trkpt lat="42.54702" lon="-1.77377">
        <ele>448.687</ele>
        <time>2013-05-06T14:58:23Z</time>
      </trkpt>
      <trkpt lat="42.54714" lon="-1.77375">
        <ele>447.22</ele>
        <time>2013-05-06T14:58:14Z</time>
      </trkpt>
      <trkpt lat="42.54718" lon="-1.77374">
        <ele>446.227</ele>
        <time>2013-05-06T14:58:11Z</time>
      </trkpt>
      <trkpt lat="42.54729" lon="-1.7737">
        <ele>445.268</ele>
        <time>2013-05-06T14:58:02Z</time>
      </trkpt>
      <trkpt lat="42.54741" lon="-1.77366">
        <ele>443.314</ele>
        <time>2013-05-06T14:57:52Z</time>
      </trkpt>
      <trkpt lat="42.54756" lon="-1.77359">
        <ele>441.908</ele>
        <time>2013-05-06T14:57:40Z</time>
      </trkpt>
      <trkpt lat="42.54763" lon="-1.77355">
        <ele>440.413</ele>
        <time>2013-05-06T14:57:35Z</time>
      </trkpt>
      <trkpt lat="42.54769" lon="-1.77355">
        <ele>440.464</ele>
        <time>2013-05-06T14:57:31Z</time>
      </trkpt>
      <trkpt lat="42.54793" lon="-1.77345">
        <ele>439.056</ele>
        <time>2013-05-06T14:57:16Z</time>
      </trkpt>
      <trkpt lat="42.5482" lon="-1.77335">
        <ele>438.061</ele>
        <time>2013-05-06T14:57:00Z</time>
      </trkpt>
      <trkpt lat="42.54831" lon="-1.77331">
        <ele>436.648</ele>
        <time>2013-05-06T14:56:53Z</time>
      </trkpt>
      <trkpt lat="42.54853" lon="-1.77323">
        <ele>435.145</ele>
        <time>2013-05-06T14:56:39Z</time>
      </trkpt>
      <trkpt lat="42.54874" lon="-1.77316">
        <ele>433.733</ele>
        <time>2013-05-06T14:56:25Z</time>
      </trkpt>
      <trkpt lat="42.54897" lon="-1.77307">
        <ele>431.856</ele>
        <time>2013-05-06T14:56:09Z</time>
      </trkpt>
      <trkpt lat="42.5492" lon="-1.77299">
        <ele>429.983</ele>
        <time>2013-05-06T14:55:54Z</time>
      </trkpt>
      <trkpt lat="42.5494" lon="-1.77294">
        <ele>428.425</ele>
        <time>2013-05-06T14:55:40Z</time>
      </trkpt>
      <trkpt lat="42.54964" lon="-1.77292">
        <ele>426.017</ele>
        <time>2013-05-06T14:55:24Z</time>
      </trkpt>
      <trkpt lat="42.54989" lon="-1.77294">
        <ele>424.108</ele>
        <time>2013-05-06T14:55:09Z</time>
      </trkpt>
      <trkpt lat="42.55015" lon="-1.77296">
        <ele>422.229</ele>
        <time>2013-05-06T14:54:55Z</time>
      </trkpt>
      <trkpt lat="42.55042" lon="-1.77297">
        <ele>420.78</ele>
        <time>2013-05-06T14:54:42Z</time>
      </trkpt>
      <trkpt lat="42.55074" lon="-1.773">
        <ele>419.312</ele>
        <time>2013-05-06T14:54:28Z</time>
      </trkpt>
      <trkpt lat="42.55102" lon="-1.77294">
        <ele>419.327</ele>
        <time>2013-05-06T14:54:19Z</time>
      </trkpt>
      <trkpt lat="42.55111" lon="-1.77286">
        <ele>419.314</ele>
        <time>2013-05-06T14:54:17Z</time>
      </trkpt>
      <trkpt lat="42.55124" lon="-1.77268">
        <ele>420.711</ele>
        <time>2013-05-06T14:54:13Z</time>
      </trkpt>
      <trkpt lat="42.5514" lon="-1.77232">
        <ele>420.749</ele>
        <time>2013-05-06T14:54:02Z</time>
      </trkpt>
      <trkpt lat="42.55157" lon="-1.77201">
        <ele>420.212</ele>
        <time>2013-05-06T14:53:50Z</time>
      </trkpt>
      <trkpt lat="42.55179" lon="-1.77179">
        <ele>419.899</ele>
        <time>2013-05-06T14:53:35Z</time>
      </trkpt>
      <trkpt lat="42.55199" lon="-1.77162">
        <ele>418.307</ele>
        <time>2013-05-06T14:53:21Z</time>
      </trkpt>
      <trkpt lat="42.55222" lon="-1.77143">
        <ele>416.427</ele>
        <time>2013-05-06T14:53:06Z</time>
      </trkpt>
      <trkpt lat="42.55244" lon="-1.77127">
        <ele>414.508</ele>
        <time>2013-05-06T14:52:51Z</time>
      </trkpt>
      <trkpt lat="42.55267" lon="-1.77125">
        <ele>412.16</ele>
        <time>2013-05-06T14:52:36Z</time>
      </trkpt>
      <trkpt lat="42.55296" lon="-1.77133">
        <ele>410.671</ele>
        <time>2013-05-06T14:52:22Z</time>
      </trkpt>
      <trkpt lat="42.5532" lon="-1.7714">
        <ele>409.743</ele>
        <time>2013-05-06T14:52:12Z</time>
      </trkpt>
      <trkpt lat="42.55353" lon="-1.77145">
        <ele>409.248</ele>
        <time>2013-05-06T14:51:59Z</time>
      </trkpt>
      <trkpt lat="42.55383" lon="-1.77132">
        <ele>408.255</ele>
        <time>2013-05-06T14:51:46Z</time>
      </trkpt>
      <trkpt lat="42.55416" lon="-1.77114">
        <ele>408.262</ele>
        <time>2013-05-06T14:51:32Z</time>
      </trkpt>
      <trkpt lat="42.55438" lon="-1.77096">
        <ele>407.37</ele>
        <time>2013-05-06T14:51:20Z</time>
      </trkpt>
      <trkpt lat="42.55462" lon="-1.77075">
        <ele>405.853</ele>
        <time>2013-05-06T14:51:05Z</time>
      </trkpt>
      <trkpt lat="42.55469" lon="-1.77069">
        <ele>404.986</ele>
        <time>2013-05-06T14:51:00Z</time>
      </trkpt>
      <trkpt lat="42.55494" lon="-1.77049">
        <ele>403.46</ele>
        <time>2013-05-06T14:50:46Z</time>
      </trkpt>
      <trkpt lat="42.55527" lon="-1.77019">
        <ele>402.026</ele>
        <time>2013-05-06T14:50:30Z</time>
      </trkpt>
      <trkpt lat="42.55561" lon="-1.7699">
        <ele>401.008</ele>
        <time>2013-05-06T14:50:15Z</time>
      </trkpt>
      <trkpt lat="42.55598" lon="-1.76968">
        <ele>399.629</ele>
        <time>2013-05-06T14:50:00Z</time>
      </trkpt>
      <trkpt lat="42.55635" lon="-1.76959">
        <ele>398.14</ele>
        <time>2013-05-06T14:49:50Z</time>
      </trkpt>
      <trkpt lat="42.55674" lon="-1.7695">
        <ele>396.732</ele>
        <time>2013-05-06T14:49:44Z</time>
      </trkpt>
      <trkpt lat="42.55754" lon="-1.76925">
        <ele>398.687</ele>
        <time>2013-05-06T14:49:34Z</time>
      </trkpt>
      <trkpt lat="42.55803" lon="-1.76902">
        <ele>402.564</ele>
        <time>2013-05-06T14:49:28Z</time>
      </trkpt>
      <trkpt lat="42.55831" lon="-1.76888">
        <ele>404.431</ele>
        <time>2013-05-06T14:49:24Z</time>
      </trkpt>
      <trkpt lat="42.55837" lon="-1.76885">
        <ele>404.439</ele>
        <time>2013-05-06T14:49:23Z</time>
      </trkpt>
      <trkpt lat="42.55877" lon="-1.76867">
        <ele>408.292</ele>
        <time>2013-05-06T14:49:15Z</time>
      </trkpt>
      <trkpt lat="42.55912" lon="-1.76854">
        <ele>408.236</ele>
        <time>2013-05-06T14:49:03Z</time>
      </trkpt>
      <trkpt lat="42.55927" lon="-1.7685">
        <ele>406.317</ele>
        <time>2013-05-06T14:48:58Z</time>
      </trkpt>
      <trkpt lat="42.5598" lon="-1.76835">
        <ele>405.318</ele>
        <time>2013-05-06T14:48:43Z</time>
      </trkpt>
      <trkpt lat="42.5603" lon="-1.76817">
        <ele>405.308</ele>
        <time>2013-05-06T14:48:31Z</time>
      </trkpt>
      <trkpt lat="42.56043" lon="-1.76812">
        <ele>406.874</ele>
        <time>2013-05-06T14:48:28Z</time>
      </trkpt>
      <trkpt lat="42.56061" lon="-1.76807">
        <ele>406.825</ele>
        <time>2013-05-06T14:48:24Z</time>
      </trkpt>
      <trkpt lat="42.56119" lon="-1.76783">
        <ele>406.377</ele>
        <time>2013-05-06T14:48:10Z</time>
      </trkpt>
      <trkpt lat="42.56161" lon="-1.76752">
        <ele>405.872</ele>
        <time>2013-05-06T14:47:57Z</time>
      </trkpt>
      <trkpt lat="42.56169" lon="-1.76746">
        <ele>404.499</ele>
        <time>2013-05-06T14:47:55Z</time>
      </trkpt>
      <trkpt lat="42.56223" lon="-1.76707">
        <ele>404.466</ele>
        <time>2013-05-06T14:47:43Z</time>
      </trkpt>
      <trkpt lat="42.56283" lon="-1.76634">
        <ele>406.334</ele>
        <time>2013-05-06T14:47:31Z</time>
      </trkpt>
      <trkpt lat="42.56342" lon="-1.76568">
        <ele>408.727</ele>
        <time>2013-05-06T14:47:19Z</time>
      </trkpt>
      <trkpt lat="42.56368" lon="-1.76555">
        <ele>409.761</ele>
        <time>2013-05-06T14:47:14Z</time>
      </trkpt>
      <trkpt lat="42.5639" lon="-1.76555">
        <ele>410.621</ele>
        <time>2013-05-06T14:47:10Z</time>
      </trkpt>
      <trkpt lat="42.56409" lon="-1.76559">
        <ele>411.113</ele>
        <time>2013-05-06T14:47:06Z</time>
      </trkpt>
      <trkpt lat="42.56459" lon="-1.76567">
        <ele>411.608</ele>
        <time>2013-05-06T14:46:53Z</time>
      </trkpt>
      <trkpt lat="42.56506" lon="-1.76568">
        <ele>412.137</ele>
        <time>2013-05-06T14:46:40Z</time>
      </trkpt>
      <trkpt lat="42.56513" lon="-1.76568">
        <ele>413.598</ele>
        <time>2013-05-06T14:46:38Z</time>
      </trkpt>
      <trkpt lat="42.56569" lon="-1.76567">
        <ele>413.56</ele>
        <time>2013-05-06T14:46:24Z</time>
      </trkpt>
      <trkpt lat="42.56614" lon="-1.76561">
        <ele>413.545</ele>
        <time>2013-05-06T14:46:11Z</time>
      </trkpt>
      <trkpt lat="42.56652" lon="-1.76551">
        <ele>413.072</ele>
        <time>2013-05-06T14:45:55Z</time>
      </trkpt>
      <trkpt lat="42.56679" lon="-1.76547">
        <ele>411.649</ele>
        <time>2013-05-06T14:45:43Z</time>
      </trkpt>
      <trkpt lat="42.56707" lon="-1.76552">
        <ele>410.697</ele>
        <time>2013-05-06T14:45:29Z</time>
      </trkpt>
      <trkpt lat="42.56732" lon="-1.76559">
        <ele>409.72</ele>
        <time>2013-05-06T14:45:16Z</time>
      </trkpt>
      <trkpt lat="42.56761" lon="-1.76558">
        <ele>408.236</ele>
        <time>2013-05-06T14:45:01Z</time>
      </trkpt>
      <trkpt lat="42.56787" lon="-1.76553">
        <ele>406.817</ele>
        <time>2013-05-06T14:44:47Z</time>
      </trkpt>
      <trkpt lat="42.5681" lon="-1.76548">
        <ele>405.818</ele>
        <time>2013-05-06T14:44:35Z</time>
      </trkpt>
      <trkpt lat="42.5684" lon="-1.76543">
        <ele>404.408</ele>
        <time>2013-05-06T14:44:22Z</time>
      </trkpt>
      <trkpt lat="42.56889" lon="-1.76544">
        <ele>403.464</ele>
        <time>2013-05-06T14:44:06Z</time>
      </trkpt>
      <trkpt lat="42.56944" lon="-1.76541">
        <ele>402.965</ele>
        <time>2013-05-06T14:43:50Z</time>
      </trkpt>
      <trkpt lat="42.56977" lon="-1.76522">
        <ele>402.097</ele>
        <time>2013-05-06T14:43:40Z</time>
      </trkpt>
      <trkpt lat="42.57031" lon="-1.76492">
        <ele>403.482</ele>
        <time>2013-05-06T14:43:30Z</time>
      </trkpt>
      <trkpt lat="42.57117" lon="-1.76446">
        <ele>405.889</ele>
        <time>2013-05-06T14:43:16Z</time>
      </trkpt>
      <trkpt lat="42.57154" lon="-1.76446">
        <ele>407.726</ele>
        <time>2013-05-06T14:43:10Z</time>
      </trkpt>
      <trkpt lat="42.57188" lon="-1.76469">
        <ele>408.214</ele>
        <time>2013-05-06T14:43:03Z</time>
      </trkpt>
      <trkpt lat="42.57253" lon="-1.76483">
        <ele>409.247</ele>
        <time>2013-05-06T14:42:50Z</time>
      </trkpt>
      <trkpt lat="42.57302" lon="-1.76481">
        <ele>410.625</ele>
        <time>2013-05-06T14:42:40Z</time>
      </trkpt>
      <trkpt lat="42.57326" lon="-1.76469">
        <ele>410.626</ele>
        <time>2013-05-06T14:42:35Z</time>
      </trkpt>
      <trkpt lat="42.57382" lon="-1.76432">
        <ele>412.508</ele>
        <time>2013-05-06T14:42:23Z</time>
      </trkpt>
      <trkpt lat="42.57432" lon="-1.76418">
        <ele>413.008</ele>
        <time>2013-05-06T14:42:12Z</time>
      </trkpt>
      <trkpt lat="42.57462" lon="-1.76416">
        <ele>413.033</ele>
        <time>2013-05-06T14:42:05Z</time>
      </trkpt>
      <trkpt lat="42.57518" lon="-1.7641">
        <ele>413.014</ele>
        <time>2013-05-06T14:41:51Z</time>
      </trkpt>
      <trkpt lat="42.57576" lon="-1.76389">
        <ele>413.096</ele>
        <time>2013-05-06T14:41:35Z</time>
      </trkpt>
      <trkpt lat="42.57619" lon="-1.76365">
        <ele>413.061</ele>
        <time>2013-05-06T14:41:22Z</time>
      </trkpt>
      <trkpt lat="42.57658" lon="-1.76347">
        <ele>413.028</ele>
        <time>2013-05-06T14:41:11Z</time>
      </trkpt>
      <trkpt lat="42.57729" lon="-1.76346">
        <ele>414.065</ele>
        <time>2013-05-06T14:40:56Z</time>
      </trkpt>
      <trkpt lat="42.57799" lon="-1.76348">
        <ele>414.563</ele>
        <time>2013-05-06T14:40:42Z</time>
      </trkpt>
      <trkpt lat="42.57823" lon="-1.76351">
        <ele>415.066</ele>
        <time>2013-05-06T14:40:37Z</time>
      </trkpt>
      <trkpt lat="42.57828" lon="-1.76352">
        <ele>415.035</ele>
        <time>2013-05-06T14:40:36Z</time>
      </trkpt>
      <trkpt lat="42.57884" lon="-1.76382">
        <ele>415.986</ele>
        <time>2013-05-06T14:40:24Z</time>
      </trkpt>
      <trkpt lat="42.57909" lon="-1.76391">
        <ele>415.914</ele>
        <time>2013-05-06T14:40:19Z</time>
      </trkpt>
      <trkpt lat="42.57924" lon="-1.76397">
        <ele>416.408</ele>
        <time>2013-05-06T14:40:16Z</time>
      </trkpt>
      <trkpt lat="42.57929" lon="-1.76398">
        <ele>417.474</ele>
        <time>2013-05-06T14:40:15Z</time>
      </trkpt>
      <trkpt lat="42.57955" lon="-1.764">
        <ele>417.495</ele>
        <time>2013-05-06T14:40:10Z</time>
      </trkpt>
      <trkpt lat="42.5796" lon="-1.76399">
        <ele>417.827</ele>
        <time>2013-05-06T14:40:09Z</time>
      </trkpt>
      <trkpt lat="42.57982" lon="-1.76391">
        <ele>418.862</ele>
        <time>2013-05-06T14:40:05Z</time>
      </trkpt>
      <trkpt lat="42.58045" lon="-1.76374">
        <ele>417.449</ele>
        <time>2013-05-06T14:39:54Z</time>
      </trkpt>
      <trkpt lat="42.58124" lon="-1.76369">
        <ele>421.266</ele>
        <time>2013-05-06T14:39:42Z</time>
      </trkpt>
      <trkpt lat="42.58184" lon="-1.76371">
        <ele>423.684</ele>
        <time>2013-05-06T14:39:32Z</time>
      </trkpt>
      <trkpt lat="42.58188" lon="-1.76372">
        <ele>424.187</ele>
        <time>2013-05-06T14:39:31Z</time>
      </trkpt>
      <trkpt lat="42.58192" lon="-1.76373">
        <ele>424.629</ele>
        <time>2013-05-06T14:39:30Z</time>
      </trkpt>
      <trkpt lat="42.58239" lon="-1.76378">
        <ele>427</ele>
        <time>2013-05-06T14:39:18Z</time>
      </trkpt>
      <trkpt lat="42.58274" lon="-1.76387">
        <ele>428.42</ele>
        <time>2013-05-06T14:39:07Z</time>
      </trkpt>
      <trkpt lat="42.58321" lon="-1.76398">
        <ele>429.908</ele>
        <time>2013-05-06T14:38:52Z</time>
      </trkpt>
      <trkpt lat="42.58365" lon="-1.76411">
        <ele>430.863</ele>
        <time>2013-05-06T14:38:39Z</time>
      </trkpt>
      <trkpt lat="42.58412" lon="-1.7644">
        <ele>430.874</ele>
        <time>2013-05-06T14:38:25Z</time>
      </trkpt>
      <trkpt lat="42.58449" lon="-1.76476">
        <ele>431.386</ele>
        <time>2013-05-06T14:38:12Z</time>
      </trkpt>
      <trkpt lat="42.58483" lon="-1.76511">
        <ele>431.381</ele>
        <time>2013-05-06T14:37:58Z</time>
      </trkpt>
      <trkpt lat="42.58508" lon="-1.76538">
        <ele>431.318</ele>
        <time>2013-05-06T14:37:45Z</time>
      </trkpt>
      <trkpt lat="42.58524" lon="-1.76561">
        <ele>431.365</ele>
        <time>2013-05-06T14:37:34Z</time>
      </trkpt>
      <trkpt lat="42.58543" lon="-1.76578">
        <ele>431.363</ele>
        <time>2013-05-06T14:37:24Z</time>
      </trkpt>
      <trkpt lat="42.58557" lon="-1.76584">
        <ele>431.856</ele>
        <time>2013-05-06T14:37:17Z</time>
      </trkpt>
      <trkpt lat="42.5859" lon="-1.76572">
        <ele>431.889</ele>
        <time>2013-05-06T14:37:07Z</time>
      </trkpt>
      <trkpt lat="42.58593" lon="-1.76569">
        <ele>431.806</ele>
        <time>2013-05-06T14:37:06Z</time>
      </trkpt>
      <trkpt lat="42.58596" lon="-1.76566">
        <ele>431.826</ele>
        <time>2013-05-06T14:37:05Z</time>
      </trkpt>
      <trkpt lat="42.58613" lon="-1.76545">
        <ele>432.308</ele>
        <time>2013-05-06T14:37:00Z</time>
      </trkpt>
      <trkpt lat="42.58621" lon="-1.76537">
        <ele>432.399</ele>
        <time>2013-05-06T14:36:58Z</time>
      </trkpt>
      <trkpt lat="42.58673" lon="-1.76488">
        <ele>433.72</ele>
        <time>2013-05-06T14:36:46Z</time>
      </trkpt>
      <trkpt lat="42.58715" lon="-1.76451">
        <ele>435.172</ele>
        <time>2013-05-06T14:36:34Z</time>
      </trkpt>
      <trkpt lat="42.58734" lon="-1.7643">
        <ele>436.177</ele>
        <time>2013-05-06T14:36:25Z</time>
      </trkpt>
      <trkpt lat="42.5873" lon="-1.76448">
        <ele>428.974</ele>
        <time>2013-05-06T13:38:48Z</time>
      </trkpt>
      <trkpt lat="42.58731" lon="-1.76452">
        <ele>428.981</ele>
        <time>2013-05-06T13:38:38Z</time>
      </trkpt>
      <trkpt lat="42.58734" lon="-1.76475">
        <ele>429.499</ele>
        <time>2013-05-06T13:38:29Z</time>
      </trkpt>
      <trkpt lat="42.58734" lon="-1.76478">
        <ele>429.472</ele>
        <time>2013-05-06T13:38:28Z</time>
      </trkpt>
      <trkpt lat="42.58736" lon="-1.76481">
        <ele>429.944</ele>
        <time>2013-05-06T13:38:26Z</time>
      </trkpt>
      <trkpt lat="42.58739" lon="-1.76482">
        <ele>429.905</ele>
        <time>2013-05-06T13:38:24Z</time>
      </trkpt>
      <trkpt lat="42.58741" lon="-1.76483">
        <ele>429.915</ele>
        <time>2013-05-06T13:38:22Z</time>
      </trkpt>
      <trkpt lat="42.58778" lon="-1.76467">
        <ele>432.308</ele>
        <time>2013-05-06T13:38:12Z</time>
      </trkpt>
      <trkpt lat="42.58817" lon="-1.76452">
        <ele>435.685</ele>
        <time>2013-05-06T13:38:02Z</time>
      </trkpt>
      <trkpt lat="42.58833" lon="-1.76447">
        <ele>436.166</ele>
        <time>2013-05-06T13:37:54Z</time>
      </trkpt>
      <trkpt lat="42.58864" lon="-1.76425">
        <ele>439.088</ele>
        <time>2013-05-06T13:37:45Z</time>
      </trkpt>
      <trkpt lat="42.58905" lon="-1.76416">
        <ele>442.383</ele>
        <time>2013-05-06T13:37:34Z</time>
      </trkpt>
      <trkpt lat="42.58931" lon="-1.7641">
        <ele>444.82</ele>
        <time>2013-05-06T13:37:25Z</time>
      </trkpt>
      <trkpt lat="42.58935" lon="-1.76408">
        <ele>444.867</ele>
        <time>2013-05-06T13:37:11Z</time>
      </trkpt>
      <trkpt lat="42.58953" lon="-1.76405">
        <ele>447.295</ele>
        <time>2013-05-06T13:37:02Z</time>
      </trkpt>
      <trkpt lat="42.5898" lon="-1.76398">
        <ele>449.128</ele>
        <time>2013-05-06T13:36:53Z</time>
      </trkpt>
      <trkpt lat="42.58982" lon="-1.76398">
        <ele>450.084</ele>
        <time>2013-05-06T13:36:52Z</time>
      </trkpt>
      <trkpt lat="42.58991" lon="-1.76401">
        <ele>450.507</ele>
        <time>2013-05-06T13:36:46Z</time>
      </trkpt>
      <trkpt lat="42.58992" lon="-1.76402">
        <ele>450.517</ele>
        <time>2013-05-06T13:36:45Z</time>
      </trkpt>
      <trkpt lat="42.58994" lon="-1.76404">
        <ele>450.508</ele>
        <time>2013-05-06T13:36:44Z</time>
      </trkpt>
      <trkpt lat="42.58994" lon="-1.76409">
        <ele>450.599</ele>
        <time>2013-05-06T13:36:15Z</time>
      </trkpt>
      <trkpt lat="42.58994" lon="-1.76409">
        <ele>450.53</ele>
        <time>2013-05-06T13:33:41Z</time>
      </trkpt>
      <trkpt lat="42.58996" lon="-1.76412">
        <ele>450.512</ele>
        <time>2013-05-06T13:33:24Z</time>
      </trkpt>
      <trkpt lat="42.59009" lon="-1.76419">
        <ele>452.057</ele>
        <time>2013-05-06T13:33:15Z</time>
      </trkpt>
      <trkpt lat="42.59027" lon="-1.7643">
        <ele>453.914</ele>
        <time>2013-05-06T13:33:06Z</time>
      </trkpt>
      <trkpt lat="42.59029" lon="-1.7643">
        <ele>453.961</ele>
        <time>2013-05-06T13:33:05Z</time>
      </trkpt>
      <trkpt lat="42.59031" lon="-1.76431">
        <ele>454.489</ele>
        <time>2013-05-06T13:33:04Z</time>
      </trkpt>
      <trkpt lat="42.59034" lon="-1.76434">
        <ele>454.472</ele>
        <time>2013-05-06T13:33:02Z</time>
      </trkpt>
      <trkpt lat="42.59036" lon="-1.76434">
        <ele>454.817</ele>
        <time>2013-05-06T13:33:01Z</time>
      </trkpt>
      <trkpt lat="42.59049" lon="-1.7643">
        <ele>458.287</ele>
        <time>2013-05-06T13:32:55Z</time>
      </trkpt>
      <trkpt lat="42.59052" lon="-1.76429">
        <ele>458.215</ele>
        <time>2013-05-06T13:32:54Z</time>
      </trkpt>
      <trkpt lat="42.59054" lon="-1.76428">
        <ele>458.708</ele>
        <time>2013-05-06T13:32:53Z</time>
      </trkpt>
      <trkpt lat="42.59059" lon="-1.76422">
        <ele>460.162</ele>
        <time>2013-05-06T13:32:50Z</time>
      </trkpt>
      <trkpt lat="42.59069" lon="-1.76405">
        <ele>463.583</ele>
        <time>2013-05-06T13:32:44Z</time>
      </trkpt>
      <trkpt lat="42.59071" lon="-1.76403">
        <ele>463.585</ele>
        <time>2013-05-06T13:32:43Z</time>
      </trkpt>
      <trkpt lat="42.59085" lon="-1.76387">
        <ele>466.97</ele>
        <time>2013-05-06T13:32:36Z</time>
      </trkpt>
      <trkpt lat="42.59088" lon="-1.76385">
        <ele>468.337</ele>
        <time>2013-05-06T13:32:35Z</time>
      </trkpt>
      <trkpt lat="42.5909" lon="-1.76384">
        <ele>468.334</ele>
        <time>2013-05-06T13:32:34Z</time>
      </trkpt>
      <trkpt lat="42.59093" lon="-1.76383">
        <ele>468.822</ele>
        <time>2013-05-06T13:32:33Z</time>
      </trkpt>
      <trkpt lat="42.59095" lon="-1.76382">
        <ele>468.855</ele>
        <time>2013-05-06T13:32:32Z</time>
      </trkpt>
      <trkpt lat="42.59097" lon="-1.76381">
        <ele>469.341</ele>
        <time>2013-05-06T13:32:31Z</time>
      </trkpt>
      <trkpt lat="42.59102" lon="-1.76398">
        <ele>471.781</ele>
        <time>2013-05-06T13:32:24Z</time>
      </trkpt>
      <trkpt lat="42.59107" lon="-1.76418">
        <ele>475.009</ele>
        <time>2013-05-06T13:32:15Z</time>
      </trkpt>
      <trkpt lat="42.59107" lon="-1.76427">
        <ele>475.508</ele>
        <time>2013-05-06T13:32:11Z</time>
      </trkpt>
      <trkpt lat="42.59107" lon="-1.76448">
        <ele>477.465</ele>
        <time>2013-05-06T13:32:06Z</time>
      </trkpt>
      <trkpt lat="42.59108" lon="-1.76486">
        <ele>481.396</ele>
        <time>2013-05-06T13:31:57Z</time>
      </trkpt>
      <trkpt lat="42.59109" lon="-1.76495">
        <ele>481.858</ele>
        <time>2013-05-06T13:31:55Z</time>
      </trkpt>
      <trkpt lat="42.59111" lon="-1.76533">
        <ele>483.763</ele>
        <time>2013-05-06T13:31:44Z</time>
      </trkpt>
      <trkpt lat="42.59111" lon="-1.76548">
        <ele>483.72</ele>
        <time>2013-05-06T13:31:35Z</time>
      </trkpt>
      <trkpt lat="42.59113" lon="-1.76559">
        <ele>483.717</ele>
        <time>2013-05-06T13:31:24Z</time>
      </trkpt>
      <trkpt lat="42.59116" lon="-1.76561">
        <ele>484.215</ele>
        <time>2013-05-06T13:31:18Z</time>
      </trkpt>
      <trkpt lat="42.59121" lon="-1.76558">
        <ele>486.648</ele>
        <time>2013-05-06T13:31:03Z</time>
      </trkpt>
      <trkpt lat="42.59126" lon="-1.76558">
        <ele>488.096</ele>
        <time>2013-05-06T13:30:51Z</time>
      </trkpt>
      <trkpt lat="42.59129" lon="-1.76558">
        <ele>489.531</ele>
        <time>2013-05-06T13:30:47Z</time>
      </trkpt>
      <trkpt lat="42.59133" lon="-1.76552">
        <ele>488.024</ele>
        <time>2013-05-06T13:28:03Z</time>
      </trkpt>
      <trkpt lat="42.59127" lon="-1.76531">
        <ele>488.008</ele>
        <time>2013-05-06T13:27:53Z</time>
      </trkpt>
      <trkpt lat="42.59122" lon="-1.7651">
        <ele>488.07</ele>
        <time>2013-05-06T13:27:42Z</time>
      </trkpt>
      <trkpt lat="42.59121" lon="-1.76506">
        <ele>488.051</ele>
        <time>2013-05-06T13:26:03Z</time>
      </trkpt>
      <trkpt lat="42.59124" lon="-1.76499">
        <ele>488.033</ele>
        <time>2013-05-06T13:25:54Z</time>
      </trkpt>
      <trkpt lat="42.59125" lon="-1.76497">
        <ele>488.058</ele>
        <time>2013-05-06T13:25:52Z</time>
      </trkpt>
      <trkpt lat="42.59126" lon="-1.76493">
        <ele>488.095</ele>
        <time>2013-05-06T13:25:50Z</time>
      </trkpt>
      <trkpt lat="42.59128" lon="-1.76491">
        <ele>488.092</ele>
        <time>2013-05-06T13:25:49Z</time>
      </trkpt>
      <trkpt lat="42.5913" lon="-1.76491">
        <ele>488.08</ele>
        <time>2013-05-06T13:25:48Z</time>
      </trkpt>
      <trkpt lat="42.59133" lon="-1.76492">
        <ele>489.583</ele>
        <time>2013-05-06T13:25:47Z</time>
      </trkpt>
      <trkpt lat="42.59146" lon="-1.76508">
        <ele>489.569</ele>
        <time>2013-05-06T13:25:39Z</time>
      </trkpt>
      <trkpt lat="42.59149" lon="-1.76537">
        <ele>489.004</ele>
        <time>2013-05-06T13:25:28Z</time>
      </trkpt>
      <trkpt lat="42.59142" lon="-1.76557">
        <ele>489.024</ele>
        <time>2013-05-06T13:25:19Z</time>
      </trkpt>
      <trkpt lat="42.59141" lon="-1.7656">
        <ele>489.008</ele>
        <time>2013-05-06T13:25:18Z</time>
      </trkpt>
      <trkpt lat="42.5914" lon="-1.76563">
        <ele>489.017</ele>
        <time>2013-05-06T13:25:17Z</time>
      </trkpt>
      <trkpt lat="42.5914" lon="-1.76566">
        <ele>489.088</ele>
        <time>2013-05-06T13:25:16Z</time>
      </trkpt>
      <trkpt lat="42.5914" lon="-1.76569">
        <ele>489.06</ele>
        <time>2013-05-06T13:25:15Z</time>
      </trkpt>
      <trkpt lat="42.59139" lon="-1.76573">
        <ele>489.015</ele>
        <time>2013-05-06T13:25:14Z</time>
      </trkpt>
      <trkpt lat="42.59143" lon="-1.76573">
        <ele>488.062</ele>
        <time>2013-05-06T13:24:23Z</time>
      </trkpt>
      <trkpt lat="42.59145" lon="-1.76571">
        <ele>488.099</ele>
        <time>2013-05-06T13:24:21Z</time>
      </trkpt>
      <trkpt lat="42.59147" lon="-1.7657">
        <ele>487.547</ele>
        <time>2013-05-06T13:24:19Z</time>
      </trkpt>
      <trkpt lat="42.5915" lon="-1.76569">
        <ele>487.13</ele>
        <time>2013-05-06T13:24:17Z</time>
      </trkpt>
      <trkpt lat="42.59153" lon="-1.76569">
        <ele>486.651</ele>
        <time>2013-05-06T13:24:15Z</time>
      </trkpt>
      <trkpt lat="42.59159" lon="-1.76567">
        <ele>485.601</ele>
        <time>2013-05-06T13:24:10Z</time>
      </trkpt>
      <trkpt lat="42.59161" lon="-1.76566">
        <ele>485.111</ele>
        <time>2013-05-06T13:24:08Z</time>
      </trkpt>
      <trkpt lat="42.59164" lon="-1.76566">
        <ele>485.108</ele>
        <time>2013-05-06T13:24:06Z</time>
      </trkpt>
      <trkpt lat="42.59166" lon="-1.76565">
        <ele>484.626</ele>
        <time>2013-05-06T13:24:04Z</time>
      </trkpt>
      <trkpt lat="42.59168" lon="-1.76563">
        <ele>484.237</ele>
        <time>2013-05-06T13:24:02Z</time>
      </trkpt>
      <trkpt lat="42.5917" lon="-1.76562">
        <ele>483.769</ele>
        <time>2013-05-06T13:24:00Z</time>
      </trkpt>
      <trkpt lat="42.59172" lon="-1.7656">
        <ele>483.744</ele>
        <time>2013-05-06T13:23:30Z</time>
      </trkpt>
      <trkpt lat="42.5918" lon="-1.76552">
        <ele>481.861</ele>
        <time>2013-05-06T13:23:22Z</time>
      </trkpt>
      <trkpt lat="42.59181" lon="-1.7655">
        <ele>481.838</ele>
        <time>2013-05-06T13:23:20Z</time>
      </trkpt>
      <trkpt lat="42.59184" lon="-1.76543">
        <ele>481.356</ele>
        <time>2013-05-06T13:22:58Z</time>
      </trkpt>
      <trkpt lat="42.59189" lon="-1.76541">
        <ele>480.379</ele>
        <time>2013-05-06T13:22:47Z</time>
      </trkpt>
      <trkpt lat="42.59203" lon="-1.76536">
        <ele>478.455</ele>
        <time>2013-05-06T13:22:34Z</time>
      </trkpt>
      <trkpt lat="42.59205" lon="-1.76535">
        <ele>478.407</ele>
        <time>2013-05-06T13:22:32Z</time>
      </trkpt>
      <trkpt lat="42.59208" lon="-1.76534">
        <ele>477.017</ele>
        <time>2013-05-06T13:22:30Z</time>
      </trkpt>
      <trkpt lat="42.5921" lon="-1.76535">
        <ele>477.008</ele>
        <time>2013-05-06T13:22:28Z</time>
      </trkpt>
      <trkpt lat="42.59212" lon="-1.76536">
        <ele>477.016</ele>
        <time>2013-05-06T13:22:26Z</time>
      </trkpt>
      <trkpt lat="42.59214" lon="-1.76539">
        <ele>477.097</ele>
        <time>2013-05-06T13:22:24Z</time>
      </trkpt>
      <trkpt lat="42.59214" lon="-1.76543">
        <ele>477.059</ele>
        <time>2013-05-06T13:22:22Z</time>
      </trkpt>
      <trkpt lat="42.59211" lon="-1.76592">
        <ele>479.844</ele>
        <time>2013-05-06T13:22:10Z</time>
      </trkpt>
      <trkpt lat="42.59217" lon="-1.76617">
        <ele>479.871</ele>
        <time>2013-05-06T13:22:01Z</time>
      </trkpt>
      <trkpt lat="42.59235" lon="-1.76634">
        <ele>479.438</ele>
        <time>2013-05-06T13:21:49Z</time>
      </trkpt>
      <trkpt lat="42.59242" lon="-1.76637">
        <ele>479.436</ele>
        <time>2013-05-06T13:21:44Z</time>
      </trkpt>
      <trkpt lat="42.59255" lon="-1.7664">
        <ele>478.469</ele>
        <time>2013-05-06T13:21:26Z</time>
      </trkpt>
      <trkpt lat="42.59271" lon="-1.76636">
        <ele>477.914</ele>
        <time>2013-05-06T13:21:15Z</time>
      </trkpt>
      <trkpt lat="42.59285" lon="-1.76638">
        <ele>477.954</ele>
        <time>2013-05-06T13:21:04Z</time>
      </trkpt>
      <trkpt lat="42.59288" lon="-1.76643">
        <ele>477.409</ele>
        <time>2013-05-06T13:21:00Z</time>
      </trkpt>
      <trkpt lat="42.59287" lon="-1.76661">
        <ele>476.008</ele>
        <time>2013-05-06T13:20:48Z</time>
      </trkpt>
      <trkpt lat="42.59286" lon="-1.76682">
        <ele>473.192</ele>
        <time>2013-05-06T13:20:34Z</time>
      </trkpt>
      <trkpt lat="42.59281" lon="-1.76693">
        <ele>471.723</ele>
        <time>2013-05-06T13:20:24Z</time>
      </trkpt>
      <trkpt lat="42.59278" lon="-1.76694">
        <ele>471.725</ele>
        <time>2013-05-06T13:16:38Z</time>
      </trkpt>
      <trkpt lat="42.59282" lon="-1.76693">
        <ele>471.75</ele>
        <time>2013-05-06T13:16:30Z</time>
      </trkpt>
      <trkpt lat="42.59288" lon="-1.76701">
        <ele>470.747</ele>
        <time>2013-05-06T13:16:23Z</time>
      </trkpt>
      <trkpt lat="42.59289" lon="-1.76702">
        <ele>470.744</ele>
        <time>2013-05-06T13:16:21Z</time>
      </trkpt>
      <trkpt lat="42.59303" lon="-1.76711">
        <ele>467.882</ele>
        <time>2013-05-06T13:16:06Z</time>
      </trkpt>
      <trkpt lat="42.59314" lon="-1.76722">
        <ele>466.495</ele>
        <time>2013-05-06T13:15:53Z</time>
      </trkpt>
      <trkpt lat="42.59326" lon="-1.76734">
        <ele>463.586</ele>
        <time>2013-05-06T13:15:38Z</time>
      </trkpt>
      <trkpt lat="42.59327" lon="-1.76736">
        <ele>463.56</ele>
        <time>2013-05-06T13:15:36Z</time>
      </trkpt>
      <trkpt lat="42.59336" lon="-1.76741">
        <ele>462.526</ele>
        <time>2013-05-06T13:15:27Z</time>
      </trkpt>
      <trkpt lat="42.59345" lon="-1.76751">
        <ele>460.608</ele>
        <time>2013-05-06T13:15:16Z</time>
      </trkpt>
      <trkpt lat="42.59349" lon="-1.76754">
        <ele>460.189</ele>
        <time>2013-05-06T13:15:12Z</time>
      </trkpt>
      <trkpt lat="42.5936" lon="-1.76764">
        <ele>458.29</ele>
        <time>2013-05-06T13:14:59Z</time>
      </trkpt>
      <trkpt lat="42.59372" lon="-1.76775">
        <ele>456.332</ele>
        <time>2013-05-06T13:14:45Z</time>
      </trkpt>
      <trkpt lat="42.59387" lon="-1.76787">
        <ele>453.927</ele>
        <time>2013-05-06T13:14:30Z</time>
      </trkpt>
      <trkpt lat="42.59399" lon="-1.76799">
        <ele>452.044</ele>
        <time>2013-05-06T13:14:17Z</time>
      </trkpt>
      <trkpt lat="42.59415" lon="-1.76813">
        <ele>450.071</ele>
        <time>2013-05-06T13:14:04Z</time>
      </trkpt>
      <trkpt lat="42.59429" lon="-1.76826">
        <ele>448.689</ele>
        <time>2013-05-06T13:13:53Z</time>
      </trkpt>
      <trkpt lat="42.59447" lon="-1.76844">
        <ele>447.242</ele>
        <time>2013-05-06T13:13:38Z</time>
      </trkpt>
      <trkpt lat="42.59461" lon="-1.76858">
        <ele>446.279</ele>
        <time>2013-05-06T13:13:26Z</time>
      </trkpt>
      <trkpt lat="42.59478" lon="-1.76873">
        <ele>445.205</ele>
        <time>2013-05-06T13:13:12Z</time>
      </trkpt>
      <trkpt lat="42.59492" lon="-1.76887">
        <ele>443.825</ele>
        <time>2013-05-06T13:13:00Z</time>
      </trkpt>
      <trkpt lat="42.59509" lon="-1.76902">
        <ele>442.808</ele>
        <time>2013-05-06T13:12:46Z</time>
      </trkpt>
      <trkpt lat="42.59511" lon="-1.76904">
        <ele>442.338</ele>
        <time>2013-05-06T13:12:44Z</time>
      </trkpt>
      <trkpt lat="42.5952" lon="-1.7691">
        <ele>441.469</ele>
        <time>2013-05-06T13:12:35Z</time>
      </trkpt>
      <trkpt lat="42.59531" lon="-1.76925">
        <ele>440.991</ele>
        <time>2013-05-06T13:12:28Z</time>
      </trkpt>
      <trkpt lat="42.59545" lon="-1.76945">
        <ele>440.976</ele>
        <time>2013-05-06T13:12:20Z</time>
      </trkpt>
      <trkpt lat="42.59555" lon="-1.76958">
        <ele>439.583</ele>
        <time>2013-05-06T13:12:17Z</time>
      </trkpt>
      <trkpt lat="42.59592" lon="-1.77035">
        <ele>439.92</ele>
        <time>2013-05-06T13:12:08Z</time>
      </trkpt>
      <trkpt lat="42.59615" lon="-1.7711">
        <ele>442.838</ele>
        <time>2013-05-06T13:12:01Z</time>
      </trkpt>
      <trkpt lat="42.59633" lon="-1.77163">
        <ele>445.731</ele>
        <time>2013-05-06T13:11:55Z</time>
      </trkpt>
      <trkpt lat="42.59638" lon="-1.77177">
        <ele>447.266</ele>
        <time>2013-05-06T13:11:53Z</time>
      </trkpt>
      <trkpt lat="42.59659" lon="-1.77246">
        <ele>448.129</ele>
        <time>2013-05-06T13:11:41Z</time>
      </trkpt>
      <trkpt lat="42.59683" lon="-1.7732">
        <ele>448.621</ele>
        <time>2013-05-06T13:11:24Z</time>
      </trkpt>
      <trkpt lat="42.59701" lon="-1.77369">
        <ele>450.008</ele>
        <time>2013-05-06T13:11:11Z</time>
      </trkpt>
      <trkpt lat="42.59719" lon="-1.77399">
        <ele>448.697</ele>
        <time>2013-05-06T13:10:58Z</time>
      </trkpt>
      <trkpt lat="42.59744" lon="-1.77425">
        <ele>446.758</ele>
        <time>2013-05-06T13:10:45Z</time>
      </trkpt>
      <trkpt lat="42.59774" lon="-1.77448">
        <ele>446.27</ele>
        <time>2013-05-06T13:10:32Z</time>
      </trkpt>
      <trkpt lat="42.59804" lon="-1.77469">
        <ele>444.835</ele>
        <time>2013-05-06T13:10:20Z</time>
      </trkpt>
      <trkpt lat="42.59838" lon="-1.77501">
        <ele>445.252</ele>
        <time>2013-05-06T13:10:09Z</time>
      </trkpt>
      <trkpt lat="42.59866" lon="-1.77568">
        <ele>445.729</ele>
        <time>2013-05-06T13:09:55Z</time>
      </trkpt>
      <trkpt lat="42.59875" lon="-1.77594">
        <ele>446.217</ele>
        <time>2013-05-06T13:09:50Z</time>
      </trkpt>
      <trkpt lat="42.59883" lon="-1.7762">
        <ele>447.68</ele>
        <time>2013-05-06T13:09:44Z</time>
      </trkpt>
      <trkpt lat="42.59896" lon="-1.77656">
        <ele>447.627</ele>
        <time>2013-05-06T13:09:31Z</time>
      </trkpt>
      <trkpt lat="42.59897" lon="-1.77666">
        <ele>447.268</ele>
        <time>2013-05-06T13:09:25Z</time>
      </trkpt>
      <trkpt lat="42.59911" lon="-1.77694">
        <ele>445.714</ele>
        <time>2013-05-06T13:09:10Z</time>
      </trkpt>
      <trkpt lat="42.59932" lon="-1.77716">
        <ele>443.808</ele>
        <time>2013-05-06T13:08:55Z</time>
      </trkpt>
      <trkpt lat="42.59954" lon="-1.77729">
        <ele>442.353</ele>
        <time>2013-05-06T13:08:40Z</time>
      </trkpt>
      <trkpt lat="42.59974" lon="-1.77737">
        <ele>440.474</ele>
        <time>2013-05-06T13:08:27Z</time>
      </trkpt>
      <trkpt lat="42.59995" lon="-1.7774">
        <ele>439.076</ele>
        <time>2013-05-06T13:08:14Z</time>
      </trkpt>
      <trkpt lat="42.60019" lon="-1.77741">
        <ele>437.171</ele>
        <time>2013-05-06T13:08:00Z</time>
      </trkpt>
      <trkpt lat="42.60054" lon="-1.77731">
        <ele>435.648</ele>
        <time>2013-05-06T13:07:43Z</time>
      </trkpt>
      <trkpt lat="42.6009" lon="-1.77726">
        <ele>434.785</ele>
        <time>2013-05-06T13:07:28Z</time>
      </trkpt>
      <trkpt lat="42.6012" lon="-1.77739">
        <ele>434.263</ele>
        <time>2013-05-06T13:07:15Z</time>
      </trkpt>
      <trkpt lat="42.60145" lon="-1.77756">
        <ele>433.746</ele>
        <time>2013-05-06T13:07:02Z</time>
      </trkpt>
      <trkpt lat="42.60173" lon="-1.77777">
        <ele>432.334</ele>
        <time>2013-05-06T13:06:48Z</time>
      </trkpt>
      <trkpt lat="42.60198" lon="-1.77801">
        <ele>430.355</ele>
        <time>2013-05-06T13:06:33Z</time>
      </trkpt>
      <trkpt lat="42.60218" lon="-1.77822">
        <ele>428.41</ele>
        <time>2013-05-06T13:06:21Z</time>
      </trkpt>
      <trkpt lat="42.60243" lon="-1.77848">
        <ele>427.008</ele>
        <time>2013-05-06T13:06:06Z</time>
      </trkpt>
      <trkpt lat="42.60266" lon="-1.77871">
        <ele>425.564</ele>
        <time>2013-05-06T13:05:55Z</time>
      </trkpt>
      <trkpt lat="42.60276" lon="-1.77883">
        <ele>424.155</ele>
        <time>2013-05-06T13:05:52Z</time>
      </trkpt>
      <trkpt lat="42.60325" lon="-1.77939">
        <ele>424.627</ele>
        <time>2013-05-06T13:05:42Z</time>
      </trkpt>
      <trkpt lat="42.60359" lon="-1.78008">
        <ele>426.542</ele>
        <time>2013-05-06T13:05:35Z</time>
      </trkpt>
      <trkpt lat="42.60373" lon="-1.78039">
        <ele>428.499</ele>
        <time>2013-05-06T13:05:32Z</time>
      </trkpt>
      <trkpt lat="42.60391" lon="-1.78078">
        <ele>429.926</ele>
        <time>2013-05-06T13:05:28Z</time>
      </trkpt>
      <trkpt lat="42.60423" lon="-1.78148">
        <ele>433.274</ele>
        <time>2013-05-06T13:05:19Z</time>
      </trkpt>
      <trkpt lat="42.60444" lon="-1.78223">
        <ele>436.187</ele>
        <time>2013-05-06T13:05:06Z</time>
      </trkpt>
      <trkpt lat="42.60454" lon="-1.78265">
        <ele>436.152</ele>
        <time>2013-05-06T13:04:55Z</time>
      </trkpt>
      <trkpt lat="42.60459" lon="-1.78279">
        <ele>436.153</ele>
        <time>2013-05-06T13:03:19Z</time>
      </trkpt>
      <trkpt lat="42.60471" lon="-1.78317">
        <ele>435.608</ele>
        <time>2013-05-06T13:03:07Z</time>
      </trkpt>
      <trkpt lat="42.60483" lon="-1.78349">
        <ele>434.708</ele>
        <time>2013-05-06T13:02:55Z</time>
      </trkpt>
      <trkpt lat="42.60493" lon="-1.78376">
        <ele>433.786</ele>
        <time>2013-05-06T13:02:43Z</time>
      </trkpt>
      <trkpt lat="42.60503" lon="-1.78405">
        <ele>431.317</ele>
        <time>2013-05-06T13:02:29Z</time>
      </trkpt>
      <trkpt lat="42.60517" lon="-1.78439">
        <ele>428.989</ele>
        <time>2013-05-06T13:02:13Z</time>
      </trkpt>
      <trkpt lat="42.60529" lon="-1.78469">
        <ele>426.534</ele>
        <time>2013-05-06T13:01:58Z</time>
      </trkpt>
      <trkpt lat="42.60539" lon="-1.78493">
        <ele>425.021</ele>
        <time>2013-05-06T13:01:45Z</time>
      </trkpt>
      <trkpt lat="42.60551" lon="-1.78516">
        <ele>422.648</ele>
        <time>2013-05-06T13:01:32Z</time>
      </trkpt>
      <trkpt lat="42.60563" lon="-1.78538">
        <ele>420.776</ele>
        <time>2013-05-06T13:01:19Z</time>
      </trkpt>
      <trkpt lat="42.60576" lon="-1.78555">
        <ele>418.339</ele>
        <time>2013-05-06T13:01:07Z</time>
      </trkpt>
      <trkpt lat="42.60592" lon="-1.78574">
        <ele>416.964</ele>
        <time>2013-05-06T13:00:54Z</time>
      </trkpt>
      <trkpt lat="42.6061" lon="-1.78594">
        <ele>415.006</ele>
        <time>2013-05-06T13:00:43Z</time>
      </trkpt>
      <trkpt lat="42.60642" lon="-1.78622">
        <ele>413.516</ele>
        <time>2013-05-06T13:00:31Z</time>
      </trkpt>
      <trkpt lat="42.60697" lon="-1.78663">
        <ele>414.008</ele>
        <time>2013-05-06T13:00:19Z</time>
      </trkpt>
      <trkpt lat="42.60708" lon="-1.78667">
        <ele>414.047</ele>
        <time>2013-05-06T13:00:17Z</time>
      </trkpt>
      <trkpt lat="42.60797" lon="-1.78674">
        <ele>415.468</ele>
        <time>2013-05-06T13:00:02Z</time>
      </trkpt>
      <trkpt lat="42.60878" lon="-1.78678">
        <ele>416.49</ele>
        <time>2013-05-06T12:59:48Z</time>
      </trkpt>
      <trkpt lat="42.60968" lon="-1.78684">
        <ele>418.395</ele>
        <time>2013-05-06T12:59:34Z</time>
      </trkpt>
      <trkpt lat="42.61053" lon="-1.78713">
        <ele>420.742</ele>
        <time>2013-05-06T12:59:21Z</time>
      </trkpt>
      <trkpt lat="42.61111" lon="-1.78735">
        <ele>423.659</ele>
        <time>2013-05-06T12:59:10Z</time>
      </trkpt>
      <trkpt lat="42.61135" lon="-1.78741">
        <ele>425.057</ele>
        <time>2013-05-06T12:58:38Z</time>
      </trkpt>
      <trkpt lat="42.61144" lon="-1.7875">
        <ele>426.56</ele>
        <time>2013-05-06T12:58:30Z</time>
      </trkpt>
      <trkpt lat="42.61167" lon="-1.78774">
        <ele>428.478</ele>
        <time>2013-05-06T12:58:18Z</time>
      </trkpt>
      <trkpt lat="42.61189" lon="-1.78804">
        <ele>430.333</ele>
        <time>2013-05-06T12:58:06Z</time>
      </trkpt>
      <trkpt lat="42.612" lon="-1.78818">
        <ele>430.326</ele>
        <time>2013-05-06T12:57:58Z</time>
      </trkpt>
      <trkpt lat="42.61218" lon="-1.78839">
        <ele>430.308</ele>
        <time>2013-05-06T12:57:46Z</time>
      </trkpt>
      <trkpt lat="42.61243" lon="-1.78862">
        <ele>427.948</ele>
        <time>2013-05-06T12:57:32Z</time>
      </trkpt>
      <trkpt lat="42.61271" lon="-1.78891">
        <ele>426.589</ele>
        <time>2013-05-06T12:57:18Z</time>
      </trkpt>
      <trkpt lat="42.61299" lon="-1.78939">
        <ele>426.031</ele>
        <time>2013-05-06T12:57:03Z</time>
      </trkpt>
      <trkpt lat="42.61315" lon="-1.78995">
        <ele>424.646</ele>
        <time>2013-05-06T12:56:47Z</time>
      </trkpt>
      <trkpt lat="42.6132" lon="-1.79039">
        <ele>422.613</ele>
        <time>2013-05-06T12:56:33Z</time>
      </trkpt>
      <trkpt lat="42.61327" lon="-1.79069">
        <ele>421.71</ele>
        <time>2013-05-06T12:56:24Z</time>
      </trkpt>
      <trkpt lat="42.61363" lon="-1.79099">
        <ele>419.328</ele>
        <time>2013-05-06T12:56:11Z</time>
      </trkpt>
      <trkpt lat="42.61403" lon="-1.79151">
        <ele>419.841</ele>
        <time>2013-05-06T12:55:59Z</time>
      </trkpt>
      <trkpt lat="42.61409" lon="-1.79163">
        <ele>419.345</ele>
        <time>2013-05-06T12:55:57Z</time>
      </trkpt>
      <trkpt lat="42.61435" lon="-1.79188">
        <ele>419.847</ele>
        <time>2013-05-06T12:55:51Z</time>
      </trkpt>
      <trkpt lat="42.61485" lon="-1.792">
        <ele>420.711</ele>
        <time>2013-05-06T12:55:43Z</time>
      </trkpt>
      <trkpt lat="42.6153" lon="-1.79201">
        <ele>422.208</ele>
        <time>2013-05-06T12:55:36Z</time>
      </trkpt>
      <trkpt lat="42.61568" lon="-1.79215">
        <ele>422.625</ele>
        <time>2013-05-06T12:55:29Z</time>
      </trkpt>
      <trkpt lat="42.6159" lon="-1.79239">
        <ele>423.686</ele>
        <time>2013-05-06T12:55:24Z</time>
      </trkpt>
      <trkpt lat="42.6164" lon="-1.7933">
        <ele>424.648</ele>
        <time>2013-05-06T12:55:10Z</time>
      </trkpt>
      <trkpt lat="42.61668" lon="-1.79397">
        <ele>427.443</ele>
        <time>2013-05-06T12:55:01Z</time>
      </trkpt>
      <trkpt lat="42.61709" lon="-1.79485">
        <ele>428.49</ele>
        <time>2013-05-06T12:54:48Z</time>
      </trkpt>
      <trkpt lat="42.61722" lon="-1.79501">
        <ele>429.497</ele>
        <time>2013-05-06T12:54:45Z</time>
      </trkpt>
      <trkpt lat="42.61759" lon="-1.79534">
        <ele>431.365</ele>
        <time>2013-05-06T12:54:36Z</time>
      </trkpt>
      <trkpt lat="42.61786" lon="-1.79543">
        <ele>432.358</ele>
        <time>2013-05-06T12:54:26Z</time>
      </trkpt>
      <trkpt lat="42.61806" lon="-1.79549">
        <ele>433.713</ele>
        <time>2013-05-06T12:51:56Z</time>
      </trkpt>
      <trkpt lat="42.61808" lon="-1.79556">
        <ele>435.143</ele>
        <time>2013-05-06T12:51:45Z</time>
      </trkpt>
      <trkpt lat="42.61809" lon="-1.79562">
        <ele>435.107</ele>
        <time>2013-05-06T12:51:41Z</time>
      </trkpt>
      <trkpt lat="42.61804" lon="-1.79575">
        <ele>435.108</ele>
        <time>2013-05-06T12:51:34Z</time>
      </trkpt>
      <trkpt lat="42.61805" lon="-1.79585">
        <ele>435.152</ele>
        <time>2013-05-06T12:51:28Z</time>
      </trkpt>
      <trkpt lat="42.61811" lon="-1.79627">
        <ele>434.773</ele>
        <time>2013-05-06T12:51:14Z</time>
      </trkpt>
      <trkpt lat="42.6182" lon="-1.79682">
        <ele>433.225</ele>
        <time>2013-05-06T12:50:58Z</time>
      </trkpt>
      <trkpt lat="42.61829" lon="-1.7973">
        <ele>432.79</ele>
        <time>2013-05-06T12:50:44Z</time>
      </trkpt>
      <trkpt lat="42.61837" lon="-1.79776">
        <ele>431.817</ele>
        <time>2013-05-06T12:50:30Z</time>
      </trkpt>
      <trkpt lat="42.6185" lon="-1.79824">
        <ele>430.334</ele>
        <time>2013-05-06T12:50:14Z</time>
      </trkpt>
      <trkpt lat="42.6187" lon="-1.79867">
        <ele>428.492</ele>
        <time>2013-05-06T12:49:57Z</time>
      </trkpt>
      <trkpt lat="42.61883" lon="-1.79915">
        <ele>426.525</ele>
        <time>2013-05-06T12:49:42Z</time>
      </trkpt>
      <trkpt lat="42.61882" lon="-1.79971">
        <ele>425.565</ele>
        <time>2013-05-06T12:49:27Z</time>
      </trkpt>
      <trkpt lat="42.61882" lon="-1.80026">
        <ele>424.668</ele>
        <time>2013-05-06T12:49:12Z</time>
      </trkpt>
      <trkpt lat="42.61885" lon="-1.8009">
        <ele>424.614</ele>
        <time>2013-05-06T12:48:55Z</time>
      </trkpt>
      <trkpt lat="42.61885" lon="-1.80141">
        <ele>423.108</ele>
        <time>2013-05-06T12:48:39Z</time>
      </trkpt>
      <trkpt lat="42.61884" lon="-1.80186">
        <ele>422.227</ele>
        <time>2013-05-06T12:48:24Z</time>
      </trkpt>
      <trkpt lat="42.61887" lon="-1.80223">
        <ele>420.258</ele>
        <time>2013-05-06T12:48:10Z</time>
      </trkpt>
      <trkpt lat="42.6189" lon="-1.80257">
        <ele>419.35</ele>
        <time>2013-05-06T12:47:56Z</time>
      </trkpt>
      <trkpt lat="42.61897" lon="-1.80282">
        <ele>417.855</ele>
        <time>2013-05-06T12:47:45Z</time>
      </trkpt>
      <trkpt lat="42.61911" lon="-1.80307">
        <ele>416.472</ele>
        <time>2013-05-06T12:47:32Z</time>
      </trkpt>
      <trkpt lat="42.61923" lon="-1.80322">
        <ele>416.449</ele>
        <time>2013-05-06T12:47:02Z</time>
      </trkpt>
      <trkpt lat="42.61928" lon="-1.80325">
        <ele>416.437</ele>
        <time>2013-05-06T12:46:52Z</time>
      </trkpt>
      <trkpt lat="42.61934" lon="-1.80328">
        <ele>416.96</ele>
        <time>2013-05-06T12:46:48Z</time>
      </trkpt>
      <trkpt lat="42.6195" lon="-1.80305">
        <ele>417.834</ele>
        <time>2013-05-06T12:46:42Z</time>
      </trkpt>
      <trkpt lat="42.6198" lon="-1.80249">
        <ele>420.755</ele>
        <time>2013-05-06T12:46:32Z</time>
      </trkpt>
      <trkpt lat="42.6199" lon="-1.80229">
        <ele>421.71</ele>
        <time>2013-05-06T12:46:28Z</time>
      </trkpt>
      <trkpt lat="42.62002" lon="-1.80189">
        <ele>421.708</ele>
        <time>2013-05-06T12:46:20Z</time>
      </trkpt>
      <trkpt lat="42.6201" lon="-1.80118">
        <ele>421.794</ele>
        <time>2013-05-06T12:46:06Z</time>
      </trkpt>
      <trkpt lat="42.62024" lon="-1.80062">
        <ele>420.725</ele>
        <time>2013-05-06T12:45:53Z</time>
      </trkpt>
      <trkpt lat="42.62044" lon="-1.80007">
        <ele>419.347</ele>
        <time>2013-05-06T12:45:42Z</time>
      </trkpt>
      <trkpt lat="42.62049" lon="-1.79978">
        <ele>419.882</ele>
        <time>2013-05-06T12:45:38Z</time>
      </trkpt>
      <trkpt lat="42.62049" lon="-1.79877">
        <ele>421.299</ele>
        <time>2013-05-06T12:45:25Z</time>
      </trkpt>
      <trkpt lat="42.62065" lon="-1.79845">
        <ele>422.236</ele>
        <time>2013-05-06T12:45:18Z</time>
      </trkpt>
      <trkpt lat="42.62081" lon="-1.79836">
        <ele>423.634</ele>
        <time>2013-05-06T12:45:15Z</time>
      </trkpt>
      <trkpt lat="42.62097" lon="-1.79829">
        <ele>424.647</ele>
        <time>2013-05-06T12:45:13Z</time>
      </trkpt>
      <trkpt lat="42.6216" lon="-1.79798">
        <ele>427.477</ele>
        <time>2013-05-06T12:45:06Z</time>
      </trkpt>
      <trkpt lat="42.62232" lon="-1.79767">
        <ele>430.861</ele>
        <time>2013-05-06T12:44:58Z</time>
      </trkpt>
      <trkpt lat="42.62268" lon="-1.79754">
        <ele>432.727</ele>
        <time>2013-05-06T12:44:54Z</time>
      </trkpt>
      <trkpt lat="42.62327" lon="-1.79734">
        <ele>436.108</ele>
        <time>2013-05-06T12:44:47Z</time>
      </trkpt>
      <trkpt lat="42.6239" lon="-1.79711">
        <ele>439.938</ele>
        <time>2013-05-06T12:44:37Z</time>
      </trkpt>
      <trkpt lat="42.62403" lon="-1.79716">
        <ele>441.489</ele>
        <time>2013-05-06T12:44:33Z</time>
      </trkpt>
      <trkpt lat="42.62406" lon="-1.7973">
        <ele>441.461</ele>
        <time>2013-05-06T12:44:30Z</time>
      </trkpt>
      <trkpt lat="42.62423" lon="-1.79816">
        <ele>443.346</ele>
        <time>2013-05-06T12:44:16Z</time>
      </trkpt>
      <trkpt lat="42.62455" lon="-1.79873">
        <ele>444.393</ele>
        <time>2013-05-06T12:44:05Z</time>
      </trkpt>
      <trkpt lat="42.62492" lon="-1.79902">
        <ele>445.79</ele>
        <time>2013-05-06T12:43:53Z</time>
      </trkpt>
      <trkpt lat="42.62506" lon="-1.79916">
        <ele>445.758</ele>
        <time>2013-05-06T12:43:41Z</time>
      </trkpt>
      <trkpt lat="42.62508" lon="-1.79917">
        <ele>444.371</ele>
        <time>2013-05-06T12:42:29Z</time>
      </trkpt>
      <trkpt lat="42.62507" lon="-1.79914">
        <ele>444.327</ele>
        <time>2013-05-06T12:39:28Z</time>
      </trkpt>
      <trkpt lat="42.62505" lon="-1.79916">
        <ele>445.268</ele>
        <time>2013-05-06T12:38:42Z</time>
      </trkpt>
      <trkpt lat="42.62523" lon="-1.7992">
        <ele>445.214</ele>
        <time>2013-05-06T12:38:34Z</time>
      </trkpt>
      <trkpt lat="42.62555" lon="-1.79949">
        <ele>443.808</ele>
        <time>2013-05-06T12:38:23Z</time>
      </trkpt>
      <trkpt lat="42.62568" lon="-1.79997">
        <ele>443.893</ele>
        <time>2013-05-06T12:38:13Z</time>
      </trkpt>
      <trkpt lat="42.62562" lon="-1.8006">
        <ele>443.334</ele>
        <time>2013-05-06T12:38:00Z</time>
      </trkpt>
      <trkpt lat="42.62559" lon="-1.80114">
        <ele>442.846</ele>
        <time>2013-05-06T12:37:47Z</time>
      </trkpt>
      <trkpt lat="42.62571" lon="-1.8017">
        <ele>441.911</ele>
        <time>2013-05-06T12:37:35Z</time>
      </trkpt>
      <trkpt lat="42.6258" lon="-1.80211">
        <ele>441.998</ele>
        <time>2013-05-06T12:37:29Z</time>
      </trkpt>
      <trkpt lat="42.62579" lon="-1.80286">
        <ele>442.815</ele>
        <time>2013-05-06T12:37:18Z</time>
      </trkpt>
      <trkpt lat="42.62581" lon="-1.80355">
        <ele>441.983</ele>
        <time>2013-05-06T12:37:03Z</time>
      </trkpt>
      <trkpt lat="42.62596" lon="-1.80415">
        <ele>439.596</ele>
        <time>2013-05-06T12:36:48Z</time>
      </trkpt>
      <trkpt lat="42.62615" lon="-1.80471">
        <ele>438.027</ele>
        <time>2013-05-06T12:36:36Z</time>
      </trkpt>
      <trkpt lat="42.62631" lon="-1.80529">
        <ele>437.568</ele>
        <time>2013-05-06T12:36:27Z</time>
      </trkpt>
      <trkpt lat="42.62631" lon="-1.80562">
        <ele>438.014</ele>
        <time>2013-05-06T12:36:23Z</time>
      </trkpt>
      <trkpt lat="42.6263" lon="-1.80587">
        <ele>439.508</ele>
        <time>2013-05-06T12:36:20Z</time>
      </trkpt>
      <trkpt lat="42.62631" lon="-1.80685">
        <ele>439.553</ele>
        <time>2013-05-06T12:36:06Z</time>
      </trkpt>
      <trkpt lat="42.6264" lon="-1.80769">
        <ele>439.074</ele>
        <time>2013-05-06T12:35:51Z</time>
      </trkpt>
      <trkpt lat="42.62649" lon="-1.80849">
        <ele>437.176</ele>
        <time>2013-05-06T12:35:36Z</time>
      </trkpt>
      <trkpt lat="42.62658" lon="-1.80918">
        <ele>435.631</ele>
        <time>2013-05-06T12:35:21Z</time>
      </trkpt>
      <trkpt lat="42.62668" lon="-1.80983">
        <ele>434.718</ele>
        <time>2013-05-06T12:35:06Z</time>
      </trkpt>
      <trkpt lat="42.62671" lon="-1.81026">
        <ele>432.715</ele>
        <time>2013-05-06T12:34:53Z</time>
      </trkpt>
      <trkpt lat="42.62675" lon="-1.81058">
        <ele>431.323</ele>
        <time>2013-05-06T12:34:42Z</time>
      </trkpt>
      <trkpt lat="42.62694" lon="-1.81096">
        <ele>429.916</ele>
        <time>2013-05-06T12:34:28Z</time>
      </trkpt>
      <trkpt lat="42.62706" lon="-1.81134">
        <ele>428.411</ele>
        <time>2013-05-06T12:34:18Z</time>
      </trkpt>
      <trkpt lat="42.62694" lon="-1.81181">
        <ele>428.421</ele>
        <time>2013-05-06T12:34:04Z</time>
      </trkpt>
      <trkpt lat="42.62682" lon="-1.81218">
        <ele>427.003</ele>
        <time>2013-05-06T12:33:49Z</time>
      </trkpt>
      <trkpt lat="42.62677" lon="-1.81244">
        <ele>425.508</ele>
        <time>2013-05-06T12:33:37Z</time>
      </trkpt>
      <trkpt lat="42.62673" lon="-1.81267">
        <ele>423.172</ele>
        <time>2013-05-06T12:33:25Z</time>
      </trkpt>
      <trkpt lat="42.62667" lon="-1.81298">
        <ele>420.273</ele>
        <time>2013-05-06T12:33:09Z</time>
      </trkpt>
      <trkpt lat="42.62663" lon="-1.81323">
        <ele>417.825</ele>
        <time>2013-05-06T12:32:56Z</time>
      </trkpt>
      <trkpt lat="42.62658" lon="-1.81354">
        <ele>415.91</ele>
        <time>2013-05-06T12:32:42Z</time>
      </trkpt>
      <trkpt lat="42.62648" lon="-1.81394">
        <ele>414.537</ele>
        <time>2013-05-06T12:32:28Z</time>
      </trkpt>
      <trkpt lat="42.62639" lon="-1.81442">
        <ele>413.574</ele>
        <time>2013-05-06T12:32:11Z</time>
      </trkpt>
      <trkpt lat="42.62631" lon="-1.81484">
        <ele>411.692</ele>
        <time>2013-05-06T12:31:54Z</time>
      </trkpt>
      <trkpt lat="42.62627" lon="-1.81517">
        <ele>409.295</ele>
        <time>2013-05-06T12:31:39Z</time>
      </trkpt>
      <trkpt lat="42.62627" lon="-1.81548">
        <ele>406.829</ele>
        <time>2013-05-06T12:31:25Z</time>
      </trkpt>
      <trkpt lat="42.62629" lon="-1.81579">
        <ele>404.4</ele>
        <time>2013-05-06T12:31:11Z</time>
      </trkpt>
      <trkpt lat="42.62633" lon="-1.81612">
        <ele>402.52</ele>
        <time>2013-05-06T12:30:57Z</time>
      </trkpt>
      <trkpt lat="42.62633" lon="-1.81641">
        <ele>401.008</ele>
        <time>2013-05-06T12:30:45Z</time>
      </trkpt>
      <trkpt lat="42.62628" lon="-1.81682">
        <ele>399.693</ele>
        <time>2013-05-06T12:30:30Z</time>
      </trkpt>
      <trkpt lat="42.62624" lon="-1.81723">
        <ele>398.114</ele>
        <time>2013-05-06T12:30:14Z</time>
      </trkpt>
      <trkpt lat="42.62632" lon="-1.81758">
        <ele>397.616</ele>
        <time>2013-05-06T12:30:00Z</time>
      </trkpt>
      <trkpt lat="42.62639" lon="-1.81788">
        <ele>395.271</ele>
        <time>2013-05-06T12:29:46Z</time>
      </trkpt>
      <trkpt lat="42.62647" lon="-1.81819">
        <ele>392.828</ele>
        <time>2013-05-06T12:29:31Z</time>
      </trkpt>
      <trkpt lat="42.62653" lon="-1.81847">
        <ele>390.475</ele>
        <time>2013-05-06T12:29:18Z</time>
      </trkpt>
      <trkpt lat="42.62658" lon="-1.81881">
        <ele>388.533</ele>
        <time>2013-05-06T12:29:03Z</time>
      </trkpt>
      <trkpt lat="42.62661" lon="-1.81915">
        <ele>386.646</ele>
        <time>2013-05-06T12:28:49Z</time>
      </trkpt>
      <trkpt lat="42.62664" lon="-1.8196">
        <ele>384.269</ele>
        <time>2013-05-06T12:28:33Z</time>
      </trkpt>
      <trkpt lat="42.62668" lon="-1.82011">
        <ele>382.304</ele>
        <time>2013-05-06T12:28:19Z</time>
      </trkpt>
      <trkpt lat="42.62687" lon="-1.82076">
        <ele>381.324</ele>
        <time>2013-05-06T12:28:05Z</time>
      </trkpt>
      <trkpt lat="42.62694" lon="-1.82094">
        <ele>381.308</ele>
        <time>2013-05-06T12:28:02Z</time>
      </trkpt>
      <trkpt lat="42.62736" lon="-1.82198">
        <ele>382.787</ele>
        <time>2013-05-06T12:27:50Z</time>
      </trkpt>
      <trkpt lat="42.62747" lon="-1.82239">
        <ele>384.758</ele>
        <time>2013-05-06T12:27:46Z</time>
      </trkpt>
      <trkpt lat="42.62751" lon="-1.82286">
        <ele>387.13</ele>
        <time>2013-05-06T12:27:41Z</time>
      </trkpt>
      <trkpt lat="42.62759" lon="-1.82331">
        <ele>390.425</ele>
        <time>2013-05-06T12:27:36Z</time>
      </trkpt>
      <trkpt lat="42.62764" lon="-1.82366">
        <ele>393.862</ele>
        <time>2013-05-06T12:27:32Z</time>
      </trkpt>
      <trkpt lat="42.62768" lon="-1.82392">
        <ele>395.289</ele>
        <time>2013-05-06T12:27:29Z</time>
      </trkpt>
      <trkpt lat="42.62769" lon="-1.824">
        <ele>395.747</ele>
        <time>2013-05-06T12:27:28Z</time>
      </trkpt>
      <trkpt lat="42.6277" lon="-1.82408">
        <ele>395.71</ele>
        <time>2013-05-06T12:27:27Z</time>
      </trkpt>
      <trkpt lat="42.62774" lon="-1.82422">
        <ele>396.712</ele>
        <time>2013-05-06T12:27:25Z</time>
      </trkpt>
      <trkpt lat="42.62776" lon="-1.82429">
        <ele>397.232</ele>
        <time>2013-05-06T12:27:24Z</time>
      </trkpt>
      <trkpt lat="42.62784" lon="-1.82474">
        <ele>399.605</ele>
        <time>2013-05-06T12:27:18Z</time>
      </trkpt>
      <trkpt lat="42.62785" lon="-1.82482">
        <ele>399.608</ele>
        <time>2013-05-06T12:27:17Z</time>
      </trkpt>
      <trkpt lat="42.62784" lon="-1.82509">
        <ele>401.552</ele>
        <time>2013-05-06T12:27:13Z</time>
      </trkpt>
      <trkpt lat="42.62783" lon="-1.82544">
        <ele>403.443</ele>
        <time>2013-05-06T12:27:05Z</time>
      </trkpt>
      <trkpt lat="42.62784" lon="-1.82581">
        <ele>405.875</ele>
        <time>2013-05-06T12:26:56Z</time>
      </trkpt>
      <trkpt lat="42.62784" lon="-1.82584">
        <ele>405.82</ele>
        <time>2013-05-06T12:26:55Z</time>
      </trkpt>
      <trkpt lat="42.62784" lon="-1.82587">
        <ele>405.877</ele>
        <time>2013-05-06T12:26:54Z</time>
      </trkpt>
      <trkpt lat="42.62785" lon="-1.8259">
        <ele>405.884</ele>
        <time>2013-05-06T12:26:53Z</time>
      </trkpt>
      <trkpt lat="42.62785" lon="-1.82592">
        <ele>405.892</ele>
        <time>2013-05-06T12:26:52Z</time>
      </trkpt>
      <trkpt lat="42.62785" lon="-1.82595">
        <ele>405.815</ele>
        <time>2013-05-06T12:26:51Z</time>
      </trkpt>
      <trkpt lat="42.62785" lon="-1.82598">
        <ele>405.849</ele>
        <time>2013-05-06T12:26:50Z</time>
      </trkpt>
      <trkpt lat="42.62787" lon="-1.82605">
        <ele>405.802</ele>
        <time>2013-05-06T12:26:28Z</time>
      </trkpt>
      <trkpt lat="42.62787" lon="-1.82651">
        <ele>404.922</ele>
        <time>2013-05-06T12:26:14Z</time>
      </trkpt>
      <trkpt lat="42.62787" lon="-1.82661">
        <ele>403.408</ele>
        <time>2013-05-06T12:26:11Z</time>
      </trkpt>
      <trkpt lat="42.6279" lon="-1.82688">
        <ele>403.445</ele>
        <time>2013-05-06T12:26:02Z</time>
      </trkpt>
      <trkpt lat="42.62797" lon="-1.82734">
        <ele>403.426</ele>
        <time>2013-05-06T12:25:52Z</time>
      </trkpt>
      <trkpt lat="42.62802" lon="-1.82799">
        <ele>404.958</ele>
        <time>2013-05-06T12:25:36Z</time>
      </trkpt>
      <trkpt lat="42.62808" lon="-1.82852">
        <ele>404.983</ele>
        <time>2013-05-06T12:25:24Z</time>
      </trkpt>
      <trkpt lat="42.62815" lon="-1.82909">
        <ele>404.95</ele>
        <time>2013-05-06T12:25:11Z</time>
      </trkpt>
      <trkpt lat="42.62821" lon="-1.82956">
        <ele>404.997</ele>
        <time>2013-05-06T12:24:59Z</time>
      </trkpt>
      <trkpt lat="42.62822" lon="-1.82958">
        <ele>404.935</ele>
        <time>2013-05-06T12:24:58Z</time>
      </trkpt>
      <trkpt lat="42.62821" lon="-1.82963">
        <ele>404.958</ele>
        <time>2013-05-06T12:24:56Z</time>
      </trkpt>
      <trkpt lat="42.62822" lon="-1.82967">
        <ele>404.913</ele>
        <time>2013-05-06T12:24:03Z</time>
      </trkpt>
      <trkpt lat="42.6282" lon="-1.82967">
        <ele>404.943</ele>
        <time>2013-05-06T12:23:19Z</time>
      </trkpt>
      <trkpt lat="42.62829" lon="-1.82968">
        <ele>404.407</ele>
        <time>2013-05-06T12:23:10Z</time>
      </trkpt>
      <trkpt lat="42.62831" lon="-1.82967">
        <ele>404.408</ele>
        <time>2013-05-06T12:22:33Z</time>
      </trkpt>
      <trkpt lat="42.6284" lon="-1.82967">
        <ele>404.482</ele>
        <time>2013-05-06T12:22:24Z</time>
      </trkpt>
      <trkpt lat="42.62857" lon="-1.82949">
        <ele>402.533</ele>
        <time>2013-05-06T12:22:10Z</time>
      </trkpt>
      <trkpt lat="42.62878" lon="-1.82934">
        <ele>401.055</ele>
        <time>2013-05-06T12:21:57Z</time>
      </trkpt>
      <trkpt lat="42.62894" lon="-1.82918">
        <ele>398.65</ele>
        <time>2013-05-06T12:21:46Z</time>
      </trkpt>
      <trkpt lat="42.62901" lon="-1.82891">
        <ele>396.717</ele>
        <time>2013-05-06T12:21:35Z</time>
      </trkpt>
      <trkpt lat="42.62912" lon="-1.8286">
        <ele>394.894</ele>
        <time>2013-05-06T12:21:22Z</time>
      </trkpt>
      <trkpt lat="42.62938" lon="-1.82834">
        <ele>392.422</ele>
        <time>2013-05-06T12:21:06Z</time>
      </trkpt>
      <trkpt lat="42.62961" lon="-1.82819">
        <ele>390.955</ele>
        <time>2013-05-06T12:20:54Z</time>
      </trkpt>
      <trkpt lat="42.62993" lon="-1.82807">
        <ele>389.096</ele>
        <time>2013-05-06T12:20:37Z</time>
      </trkpt>
      <trkpt lat="42.63015" lon="-1.82803">
        <ele>387.131</ele>
        <time>2013-05-06T12:20:25Z</time>
      </trkpt>
      <trkpt lat="42.63038" lon="-1.82796">
        <ele>385.224</ele>
        <time>2013-05-06T12:20:13Z</time>
      </trkpt>
      <trkpt lat="42.6306" lon="-1.82782">
        <ele>383.708</ele>
        <time>2013-05-06T12:20:01Z</time>
      </trkpt>
      <trkpt lat="42.63068" lon="-1.82749">
        <ele>381.82</ele>
        <time>2013-05-06T12:19:48Z</time>
      </trkpt>
      <trkpt lat="42.63065" lon="-1.82716">
        <ele>380.361</ele>
        <time>2013-05-06T12:19:36Z</time>
      </trkpt>
      <trkpt lat="42.63063" lon="-1.82682">
        <ele>378.473</ele>
        <time>2013-05-06T12:19:22Z</time>
      </trkpt>
      <trkpt lat="42.63063" lon="-1.82673">
        <ele>378.458</ele>
        <time>2013-05-06T12:19:15Z</time>
      </trkpt>
      <trkpt lat="42.63065" lon="-1.82649">
        <ele>377.525</ele>
        <time>2013-05-06T12:19:03Z</time>
      </trkpt>
      <trkpt lat="42.63077" lon="-1.82627">
        <ele>375.132</ele>
        <time>2013-05-06T12:18:49Z</time>
      </trkpt>
      <trkpt lat="42.63094" lon="-1.82606">
        <ele>372.71</ele>
        <time>2013-05-06T12:18:34Z</time>
      </trkpt>
      <trkpt lat="42.63113" lon="-1.82586">
        <ele>370.763</ele>
        <time>2013-05-06T12:18:18Z</time>
      </trkpt>
      <trkpt lat="42.63117" lon="-1.82581">
        <ele>370.279</ele>
        <time>2013-05-06T12:17:43Z</time>
      </trkpt>
      <trkpt lat="42.63122" lon="-1.82573">
        <ele>369.305</ele>
        <time>2013-05-06T12:17:32Z</time>
      </trkpt>
      <trkpt lat="42.63131" lon="-1.82557">
        <ele>368.325</ele>
        <time>2013-05-06T12:17:23Z</time>
      </trkpt>
      <trkpt lat="42.63141" lon="-1.82532">
        <ele>367.408</ele>
        <time>2013-05-06T12:17:13Z</time>
      </trkpt>
      <trkpt lat="42.63143" lon="-1.82528">
        <ele>367.498</ele>
        <time>2013-05-06T12:17:12Z</time>
      </trkpt>
      <trkpt lat="42.63173" lon="-1.82452">
        <ele>367.849</ele>
        <time>2013-05-06T12:17:01Z</time>
      </trkpt>
      <trkpt lat="42.63207" lon="-1.8241">
        <ele>368.831</ele>
        <time>2013-05-06T12:16:55Z</time>
      </trkpt>
      <trkpt lat="42.63229" lon="-1.82379">
        <ele>371.216</ele>
        <time>2013-05-06T12:16:51Z</time>
      </trkpt>
      <trkpt lat="42.63263" lon="-1.82294">
        <ele>373.193</ele>
        <time>2013-05-06T12:16:42Z</time>
      </trkpt>
      <trkpt lat="42.63273" lon="-1.82275">
        <ele>373.66</ele>
        <time>2013-05-06T12:16:40Z</time>
      </trkpt>
      <trkpt lat="42.633" lon="-1.82245">
        <ele>376.068</ele>
        <time>2013-05-06T12:16:36Z</time>
      </trkpt>
      <trkpt lat="42.6332" lon="-1.82233">
        <ele>378.451</ele>
        <time>2013-05-06T12:16:33Z</time>
      </trkpt>
      <trkpt lat="42.6335" lon="-1.82217">
        <ele>383.277</ele>
        <time>2013-05-06T12:16:28Z</time>
      </trkpt>
      <trkpt lat="42.63378" lon="-1.82216">
        <ele>387.661</ele>
        <time>2013-05-06T12:16:23Z</time>
      </trkpt>
      <trkpt lat="42.63384" lon="-1.82218">
        <ele>388.527</ele>
        <time>2013-05-06T12:16:22Z</time>
      </trkpt>
      <trkpt lat="42.63413" lon="-1.82235">
        <ele>392.408</ele>
        <time>2013-05-06T12:16:16Z</time>
      </trkpt>
      <trkpt lat="42.63425" lon="-1.82248">
        <ele>393.818</ele>
        <time>2013-05-06T12:16:13Z</time>
      </trkpt>
      <trkpt lat="42.63444" lon="-1.82255">
        <ele>395.239</ele>
        <time>2013-05-06T12:16:09Z</time>
      </trkpt>
      <trkpt lat="42.6346" lon="-1.82253">
        <ele>396.231</ele>
        <time>2013-05-06T12:16:06Z</time>
      </trkpt>
      <trkpt lat="42.63504" lon="-1.82245">
        <ele>399.626</ele>
        <time>2013-05-06T12:15:58Z</time>
      </trkpt>
      <trkpt lat="42.63551" lon="-1.82238">
        <ele>402.923</ele>
        <time>2013-05-06T12:15:48Z</time>
      </trkpt>
      <trkpt lat="42.63589" lon="-1.82208">
        <ele>404.46</ele>
        <time>2013-05-06T12:15:36Z</time>
      </trkpt>
      <trkpt lat="42.63633" lon="-1.82146">
        <ele>405.878</ele>
        <time>2013-05-06T12:15:22Z</time>
      </trkpt>
      <trkpt lat="42.63672" lon="-1.82104">
        <ele>408.291</ele>
        <time>2013-05-06T12:15:10Z</time>
      </trkpt>
      <trkpt lat="42.63704" lon="-1.82078">
        <ele>408.722</ele>
        <time>2013-05-06T12:14:59Z</time>
      </trkpt>
      <trkpt lat="42.63711" lon="-1.82071">
        <ele>409.762</ele>
        <time>2013-05-06T12:13:41Z</time>
      </trkpt>
      <trkpt lat="42.63718" lon="-1.82068">
        <ele>409.708</ele>
        <time>2013-05-06T12:13:32Z</time>
      </trkpt>
      <trkpt lat="42.63737" lon="-1.82059">
        <ele>409.208</ele>
        <time>2013-05-06T12:13:21Z</time>
      </trkpt>
      <trkpt lat="42.63752" lon="-1.82024">
        <ele>407.783</ele>
        <time>2013-05-06T12:13:06Z</time>
      </trkpt>
      <trkpt lat="42.63753" lon="-1.81981">
        <ele>406.324</ele>
        <time>2013-05-06T12:12:52Z</time>
      </trkpt>
      <trkpt lat="42.63758" lon="-1.81936">
        <ele>405.896</ele>
        <time>2013-05-06T12:12:40Z</time>
      </trkpt>
      <trkpt lat="42.63767" lon="-1.81889">
        <ele>404.911</ele>
        <time>2013-05-06T12:12:32Z</time>
      </trkpt>
      <trkpt lat="42.6377" lon="-1.81872">
        <ele>403.438</ele>
        <time>2013-05-06T12:12:30Z</time>
      </trkpt>
      <trkpt lat="42.63787" lon="-1.81835">
        <ele>403.415</ele>
        <time>2013-05-06T12:12:26Z</time>
      </trkpt>
      <trkpt lat="42.63802" lon="-1.8182">
        <ele>404.423</ele>
        <time>2013-05-06T12:12:24Z</time>
      </trkpt>
      <trkpt lat="42.63834" lon="-1.81811">
        <ele>408.226</ele>
        <time>2013-05-06T12:12:20Z</time>
      </trkpt>
      <trkpt lat="42.6384" lon="-1.81813">
        <ele>409.221</ele>
        <time>2013-05-06T12:12:19Z</time>
      </trkpt>
      <trkpt lat="42.63879" lon="-1.8183">
        <ele>412.141</ele>
        <time>2013-05-06T12:12:12Z</time>
      </trkpt>
      <trkpt lat="42.639" lon="-1.81838">
        <ele>413.505</ele>
        <time>2013-05-06T12:12:04Z</time>
      </trkpt>
      <trkpt lat="42.63924" lon="-1.81824">
        <ele>411.608</ele>
        <time>2013-05-06T12:11:49Z</time>
      </trkpt>
      <trkpt lat="42.63944" lon="-1.81799">
        <ele>408.713</ele>
        <time>2013-05-06T12:11:33Z</time>
      </trkpt>
      <trkpt lat="42.63963" lon="-1.81773">
        <ele>407.354</ele>
        <time>2013-05-06T12:11:19Z</time>
      </trkpt>
      <trkpt lat="42.63977" lon="-1.81739">
        <ele>405.886</ele>
        <time>2013-05-06T12:11:05Z</time>
      </trkpt>
      <trkpt lat="42.6397" lon="-1.81703">
        <ele>404.431</ele>
        <time>2013-05-06T12:10:55Z</time>
      </trkpt>
      <trkpt lat="42.63976" lon="-1.81663">
        <ele>404.958</ele>
        <time>2013-05-06T12:10:49Z</time>
      </trkpt>
      <trkpt lat="42.63994" lon="-1.81636">
        <ele>406.325</ele>
        <time>2013-05-06T12:10:43Z</time>
      </trkpt>
      <trkpt lat="42.64007" lon="-1.81616">
        <ele>406.363</ele>
        <time>2013-05-06T12:10:33Z</time>
      </trkpt>
      <trkpt lat="42.64017" lon="-1.81598">
        <ele>404.956</ele>
        <time>2013-05-06T12:10:22Z</time>
      </trkpt>
      <trkpt lat="42.6403" lon="-1.81568">
        <ele>402.534</ele>
        <time>2013-05-06T12:10:03Z</time>
      </trkpt>
      <trkpt lat="42.64043" lon="-1.81542">
        <ele>399.655</ele>
        <time>2013-05-06T12:09:45Z</time>
      </trkpt>
      <trkpt lat="42.64051" lon="-1.8152">
        <ele>397.61</ele>
        <time>2013-05-06T12:09:29Z</time>
      </trkpt>
      <trkpt lat="42.6406" lon="-1.81502">
        <ele>394.808</ele>
        <time>2013-05-06T12:09:15Z</time>
      </trkpt>
      <trkpt lat="42.64069" lon="-1.81489">
        <ele>393.864</ele>
        <time>2013-05-06T12:09:05Z</time>
      </trkpt>
      <trkpt lat="42.64082" lon="-1.81472">
        <ele>391.985</ele>
        <time>2013-05-06T12:08:51Z</time>
      </trkpt>
      <trkpt lat="42.64096" lon="-1.81459">
        <ele>389.527</ele>
        <time>2013-05-06T12:08:39Z</time>
      </trkpt>
      <trkpt lat="42.64112" lon="-1.81447">
        <ele>387.122</ele>
        <time>2013-05-06T12:08:26Z</time>
      </trkpt>
      <trkpt lat="42.64132" lon="-1.81443">
        <ele>385.289</ele>
        <time>2013-05-06T12:08:11Z</time>
      </trkpt>
      <trkpt lat="42.64145" lon="-1.81443">
        <ele>383.796</ele>
        <time>2013-05-06T12:08:00Z</time>
      </trkpt>
      <trkpt lat="42.64149" lon="-1.81441">
        <ele>383.254</ele>
        <time>2013-05-06T12:07:57Z</time>
      </trkpt>
      <trkpt lat="42.64167" lon="-1.81435">
        <ele>380.887</ele>
        <time>2013-05-06T12:07:43Z</time>
      </trkpt>
      <trkpt lat="42.64185" lon="-1.8143">
        <ele>379.423</ele>
        <time>2013-05-06T12:07:30Z</time>
      </trkpt>
      <trkpt lat="42.64201" lon="-1.81424">
        <ele>377.983</ele>
        <time>2013-05-06T12:07:18Z</time>
      </trkpt>
      <trkpt lat="42.64226" lon="-1.81418">
        <ele>376.011</ele>
        <time>2013-05-06T12:07:03Z</time>
      </trkpt>
      <trkpt lat="42.6425" lon="-1.81412">
        <ele>376.008</ele>
        <time>2013-05-06T12:06:50Z</time>
      </trkpt>
      <trkpt lat="42.64275" lon="-1.81402">
        <ele>375.193</ele>
        <time>2013-05-06T12:06:35Z</time>
      </trkpt>
      <trkpt lat="42.64297" lon="-1.81394">
        <ele>372.724</ele>
        <time>2013-05-06T12:06:21Z</time>
      </trkpt>
      <trkpt lat="42.64305" lon="-1.81389">
        <ele>372.776</ele>
        <time>2013-05-06T12:03:40Z</time>
      </trkpt>
      <trkpt lat="42.6432" lon="-1.81382">
        <ele>371.771</ele>
        <time>2013-05-06T12:03:28Z</time>
      </trkpt>
      <trkpt lat="42.6434" lon="-1.81374">
        <ele>370.748</ele>
        <time>2013-05-06T12:03:16Z</time>
      </trkpt>
      <trkpt lat="42.64367" lon="-1.81367">
        <ele>369.855</ele>
        <time>2013-05-06T12:03:02Z</time>
      </trkpt>
      <trkpt lat="42.64388" lon="-1.81367">
        <ele>369.363</ele>
        <time>2013-05-06T12:02:51Z</time>
      </trkpt>
      <trkpt lat="42.64415" lon="-1.8138">
        <ele>368.826</ele>
        <time>2013-05-06T12:02:39Z</time>
      </trkpt>
      <trkpt lat="42.64446" lon="-1.81411">
        <ele>368.352</ele>
        <time>2013-05-06T12:02:28Z</time>
      </trkpt>
      <trkpt lat="42.64477" lon="-1.81483">
        <ele>368.353</ele>
        <time>2013-05-06T12:02:12Z</time>
      </trkpt>
      <trkpt lat="42.64486" lon="-1.81506">
        <ele>366.908</ele>
        <time>2013-05-06T12:02:07Z</time>
      </trkpt>
      <trkpt lat="42.64494" lon="-1.81527">
        <ele>367.408</ele>
        <time>2013-05-06T12:02:03Z</time>
      </trkpt>
      <trkpt lat="42.64518" lon="-1.81595">
        <ele>366.916</ele>
        <time>2013-05-06T12:01:50Z</time>
      </trkpt>
      <trkpt lat="42.6455" lon="-1.81682">
        <ele>366.427</ele>
        <time>2013-05-06T12:01:34Z</time>
      </trkpt>
      <trkpt lat="42.64569" lon="-1.81758">
        <ele>366.479</ele>
        <time>2013-05-06T12:01:21Z</time>
      </trkpt>
      <trkpt lat="42.64575" lon="-1.81797">
        <ele>365.074</ele>
        <time>2013-05-06T12:01:14Z</time>
      </trkpt>
      <trkpt lat="42.64589" lon="-1.81881">
        <ele>365.051</ele>
        <time>2013-05-06T12:01:01Z</time>
      </trkpt>
      <trkpt lat="42.6459" lon="-1.81889">
        <ele>365.028</ele>
        <time>2013-05-06T12:01:00Z</time>
      </trkpt>
      <trkpt lat="42.64589" lon="-1.81988">
        <ele>365.016</ele>
        <time>2013-05-06T12:00:48Z</time>
      </trkpt>
      <trkpt lat="42.64609" lon="-1.82136">
        <ele>367.419</ele>
        <time>2013-05-06T12:00:33Z</time>
      </trkpt>
      <trkpt lat="42.64624" lon="-1.82194">
        <ele>370.799</ele>
        <time>2013-05-06T12:00:26Z</time>
      </trkpt>
      <trkpt lat="42.64647" lon="-1.82239">
        <ele>371.207</ele>
        <time>2013-05-06T12:00:15Z</time>
      </trkpt>
      <trkpt lat="42.64664" lon="-1.82265">
        <ele>371.227</ele>
        <time>2013-05-06T12:00:03Z</time>
      </trkpt>
      <trkpt lat="42.64673" lon="-1.82279">
        <ele>371.208</ele>
        <time>2013-05-06T11:59:53Z</time>
      </trkpt>
      <trkpt lat="42.64675" lon="-1.82282">
        <ele>371.22</ele>
        <time>2013-05-06T11:59:28Z</time>
      </trkpt>
      <trkpt lat="42.64677" lon="-1.82287">
        <ele>371.771</ele>
        <time>2013-05-06T11:59:23Z</time>
      </trkpt>
      <trkpt lat="42.647" lon="-1.82283">
        <ele>372.783</ele>
        <time>2013-05-06T11:59:17Z</time>
      </trkpt>
      <trkpt lat="42.64733" lon="-1.82237">
        <ele>375.128</ele>
        <time>2013-05-06T11:59:11Z</time>
      </trkpt>
      <trkpt lat="42.64796" lon="-1.82147">
        <ele>378.495</ele>
        <time>2013-05-06T11:59:01Z</time>
      </trkpt>
      <trkpt lat="42.64848" lon="-1.82075">
        <ele>381.842</ele>
        <time>2013-05-06T11:58:54Z</time>
      </trkpt>
      <trkpt lat="42.64897" lon="-1.82005">
        <ele>385.61</ele>
        <time>2013-05-06T11:58:48Z</time>
      </trkpt>
      <trkpt lat="42.64933" lon="-1.81954">
        <ele>389.023</ele>
        <time>2013-05-06T11:58:44Z</time>
      </trkpt>
      <trkpt lat="42.6496" lon="-1.81916">
        <ele>392.419</ele>
        <time>2013-05-06T11:58:41Z</time>
      </trkpt>
      <trkpt lat="42.64986" lon="-1.8188">
        <ele>395.709</ele>
        <time>2013-05-06T11:58:38Z</time>
      </trkpt>
      <trkpt lat="42.6501" lon="-1.81845">
        <ele>399.119</ele>
        <time>2013-05-06T11:58:35Z</time>
      </trkpt>
      <trkpt lat="42.65039" lon="-1.81804">
        <ele>402.908</ele>
        <time>2013-05-06T11:58:31Z</time>
      </trkpt>
      <trkpt lat="42.65076" lon="-1.81752">
        <ele>405.812</ele>
        <time>2013-05-06T11:58:25Z</time>
      </trkpt>
      <trkpt lat="42.65126" lon="-1.81689">
        <ele>409.733</ele>
        <time>2013-05-06T11:58:15Z</time>
      </trkpt>
      <trkpt lat="42.65155" lon="-1.81658">
        <ele>411.185</ele>
        <time>2013-05-06T11:58:08Z</time>
      </trkpt>
      <trkpt lat="42.65209" lon="-1.81599">
        <ele>410.64</ele>
        <time>2013-05-06T11:57:53Z</time>
      </trkpt>
      <trkpt lat="42.65254" lon="-1.81549">
        <ele>409.277</ele>
        <time>2013-05-06T11:57:43Z</time>
      </trkpt>
      <trkpt lat="42.6532" lon="-1.81477">
        <ele>409.774</ele>
        <time>2013-05-06T11:57:33Z</time>
      </trkpt>
      <trkpt lat="42.6539" lon="-1.81415">
        <ele>414.052</ele>
        <time>2013-05-06T11:57:25Z</time>
      </trkpt>
      <trkpt lat="42.6542" lon="-1.81403">
        <ele>416.425</ele>
        <time>2013-05-06T11:57:22Z</time>
      </trkpt>
      <trkpt lat="42.65467" lon="-1.81385">
        <ele>419.899</ele>
        <time>2013-05-06T11:57:17Z</time>
      </trkpt>
      <trkpt lat="42.65534" lon="-1.81356">
        <ele>423.107</ele>
        <time>2013-05-06T11:57:09Z</time>
      </trkpt>
      <trkpt lat="42.65548" lon="-1.81343">
        <ele>424.127</ele>
        <time>2013-05-06T11:57:07Z</time>
      </trkpt>
      <trkpt lat="42.65643" lon="-1.81252">
        <ele>426.508</ele>
        <time>2013-05-06T11:56:54Z</time>
      </trkpt>
      <trkpt lat="42.65699" lon="-1.81198">
        <ele>429.93</ele>
        <time>2013-05-06T11:56:47Z</time>
      </trkpt>
      <trkpt lat="42.65742" lon="-1.81151">
        <ele>433.271</ele>
        <time>2013-05-06T11:56:41Z</time>
      </trkpt>
      <trkpt lat="42.65768" lon="-1.81119">
        <ele>434.743</ele>
        <time>2013-05-06T11:56:37Z</time>
      </trkpt>
      <trkpt lat="42.65819" lon="-1.81058">
        <ele>438.018</ele>
        <time>2013-05-06T11:56:29Z</time>
      </trkpt>
      <trkpt lat="42.6587" lon="-1.81">
        <ele>440.925</ele>
        <time>2013-05-06T11:56:20Z</time>
      </trkpt>
      <trkpt lat="42.65914" lon="-1.8097">
        <ele>444.322</ele>
        <time>2013-05-06T11:56:11Z</time>
      </trkpt>
      <trkpt lat="42.65938" lon="-1.80954">
        <ele>445.74</ele>
        <time>2013-05-06T11:56:01Z</time>
      </trkpt>
      <trkpt lat="42.65977" lon="-1.8093">
        <ele>448.673</ele>
        <time>2013-05-06T11:55:45Z</time>
      </trkpt>
      <trkpt lat="42.65994" lon="-1.80919">
        <ele>450.048</ele>
        <time>2013-05-06T11:55:36Z</time>
      </trkpt>
      <trkpt lat="42.66021" lon="-1.80902">
        <ele>451.561</ele>
        <time>2013-05-06T11:55:25Z</time>
      </trkpt>
      <trkpt lat="42.66052" lon="-1.80884">
        <ele>452.917</ele>
        <time>2013-05-06T11:55:13Z</time>
      </trkpt>
      <trkpt lat="42.6609" lon="-1.80857">
        <ele>452.008</ele>
        <time>2013-05-06T11:54:58Z</time>
      </trkpt>
      <trkpt lat="42.66102" lon="-1.80845">
        <ele>451.095</ele>
        <time>2013-05-06T11:54:53Z</time>
      </trkpt>
      <trkpt lat="42.66141" lon="-1.80811">
        <ele>451.016</ele>
        <time>2013-05-06T11:54:40Z</time>
      </trkpt>
      <trkpt lat="42.66179" lon="-1.80804">
        <ele>451.578</ele>
        <time>2013-05-06T11:54:29Z</time>
      </trkpt>
      <trkpt lat="42.66212" lon="-1.80794">
        <ele>452.043</ele>
        <time>2013-05-06T11:54:18Z</time>
      </trkpt>
      <trkpt lat="42.66226" lon="-1.80775">
        <ele>452.47</ele>
        <time>2013-05-06T11:54:08Z</time>
      </trkpt>
      <trkpt lat="42.66252" lon="-1.8077">
        <ele>453.417</ele>
        <time>2013-05-06T11:53:54Z</time>
      </trkpt>
      <trkpt lat="42.66275" lon="-1.8078">
        <ele>454.815</ele>
        <time>2013-05-06T11:53:42Z</time>
      </trkpt>
      <trkpt lat="42.66293" lon="-1.80785">
        <ele>454.828</ele>
        <time>2013-05-06T11:51:25Z</time>
      </trkpt>
      <trkpt lat="42.66297" lon="-1.80785">
        <ele>454.891</ele>
        <time>2013-05-06T11:51:14Z</time>
      </trkpt>
      <trkpt lat="42.66323" lon="-1.80796">
        <ele>454.481</ele>
        <time>2013-05-06T11:50:59Z</time>
      </trkpt>
      <trkpt lat="42.66343" lon="-1.80809">
        <ele>452.919</ele>
        <time>2013-05-06T11:50:46Z</time>
      </trkpt>
      <trkpt lat="42.66359" lon="-1.8082">
        <ele>452.408</ele>
        <time>2013-05-06T11:50:35Z</time>
      </trkpt>
      <trkpt lat="42.66376" lon="-1.80826">
        <ele>451.56</ele>
        <time>2013-05-06T11:50:24Z</time>
      </trkpt>
      <trkpt lat="42.66402" lon="-1.80829">
        <ele>449.621</ele>
        <time>2013-05-06T11:50:08Z</time>
      </trkpt>
      <trkpt lat="42.66409" lon="-1.80829">
        <ele>449.653</ele>
        <time>2013-05-06T11:50:03Z</time>
      </trkpt>
      <trkpt lat="42.66416" lon="-1.80831">
        <ele>449.188</ele>
        <time>2013-05-06T11:49:58Z</time>
      </trkpt>
      <trkpt lat="42.66429" lon="-1.80837">
        <ele>448.185</ele>
        <time>2013-05-06T11:49:48Z</time>
      </trkpt>
      <trkpt lat="42.66431" lon="-1.8084">
        <ele>447.222</ele>
        <time>2013-05-06T11:49:46Z</time>
      </trkpt>
      <trkpt lat="42.66446" lon="-1.80861">
        <ele>447.27</ele>
        <time>2013-05-06T11:49:32Z</time>
      </trkpt>
      <trkpt lat="42.6645" lon="-1.80875">
        <ele>445.783</ele>
        <time>2013-05-06T11:49:26Z</time>
      </trkpt>
      <trkpt lat="42.66446" lon="-1.80898">
        <ele>445.296</ele>
        <time>2013-05-06T11:49:16Z</time>
      </trkpt>
      <trkpt lat="42.66448" lon="-1.80899">
        <ele>445.231</ele>
        <time>2013-05-06T11:48:59Z</time>
      </trkpt>
      <trkpt lat="42.66445" lon="-1.80903">
        <ele>444.824</ele>
        <time>2013-05-06T11:48:48Z</time>
      </trkpt>
      <trkpt lat="42.66435" lon="-1.80919">
        <ele>444.308</ele>
        <time>2013-05-06T11:48:38Z</time>
      </trkpt>
      <trkpt lat="42.66427" lon="-1.80945">
        <ele>442.83</ele>
        <time>2013-05-06T11:48:24Z</time>
      </trkpt>
      <trkpt lat="42.66426" lon="-1.80959">
        <ele>441.491</ele>
        <time>2013-05-06T11:48:17Z</time>
      </trkpt>
      <trkpt lat="42.66424" lon="-1.80979">
        <ele>439.563</ele>
        <time>2013-05-06T11:48:07Z</time>
      </trkpt>
      <trkpt lat="42.66425" lon="-1.80983">
        <ele>439.028</ele>
        <time>2013-05-06T11:48:05Z</time>
      </trkpt>
      <trkpt lat="42.66435" lon="-1.81005">
        <ele>437.175</ele>
        <time>2013-05-06T11:47:51Z</time>
      </trkpt>
      <trkpt lat="42.66443" lon="-1.81015">
        <ele>436.172</ele>
        <time>2013-05-06T11:47:44Z</time>
      </trkpt>
      <trkpt lat="42.66457" lon="-1.81028">
        <ele>434.78</ele>
        <time>2013-05-06T11:47:33Z</time>
      </trkpt>
      <trkpt lat="42.66461" lon="-1.81032">
        <ele>434.743</ele>
        <time>2013-05-06T11:47:30Z</time>
      </trkpt>
      <trkpt lat="42.66481" lon="-1.8105">
        <ele>433.245</ele>
        <time>2013-05-06T11:47:16Z</time>
      </trkpt>
      <trkpt lat="42.66498" lon="-1.81071">
        <ele>432.347</ele>
        <time>2013-05-06T11:47:04Z</time>
      </trkpt>
      <trkpt lat="42.66518" lon="-1.81101">
        <ele>430.811</ele>
        <time>2013-05-06T11:46:48Z</time>
      </trkpt>
      <trkpt lat="42.66534" lon="-1.81127">
        <ele>429.408</ele>
        <time>2013-05-06T11:46:35Z</time>
      </trkpt>
      <trkpt lat="42.6655" lon="-1.81145">
        <ele>427.915</ele>
        <time>2013-05-06T11:46:23Z</time>
      </trkpt>
      <trkpt lat="42.66568" lon="-1.81161">
        <ele>427.016</ele>
        <time>2013-05-06T11:46:10Z</time>
      </trkpt>
      <trkpt lat="42.66587" lon="-1.81179">
        <ele>425.038</ele>
        <time>2013-05-06T11:45:56Z</time>
      </trkpt>
      <trkpt lat="42.66593" lon="-1.81188">
        <ele>424.623</ele>
        <time>2013-05-06T11:45:50Z</time>
      </trkpt>
      <trkpt lat="42.66597" lon="-1.81192">
        <ele>424.16</ele>
        <time>2013-05-06T11:45:47Z</time>
      </trkpt>
      <trkpt lat="42.66603" lon="-1.81198">
        <ele>423.697</ele>
        <time>2013-05-06T11:45:42Z</time>
      </trkpt>
      <trkpt lat="42.66613" lon="-1.81213">
        <ele>422.645</ele>
        <time>2013-05-06T11:45:31Z</time>
      </trkpt>
      <trkpt lat="42.66622" lon="-1.8122">
        <ele>422.668</ele>
        <time>2013-05-06T11:45:08Z</time>
      </trkpt>
      <trkpt lat="42.6663" lon="-1.8123">
        <ele>421.715</ele>
        <time>2013-05-06T11:44:57Z</time>
      </trkpt>
      <trkpt lat="42.66645" lon="-1.81246">
        <ele>420.765</ele>
        <time>2013-05-06T11:44:45Z</time>
      </trkpt>
      <trkpt lat="42.66661" lon="-1.81261">
        <ele>419.311</ele>
        <time>2013-05-06T11:44:32Z</time>
      </trkpt>
      <trkpt lat="42.66677" lon="-1.81266">
        <ele>417.808</ele>
        <time>2013-05-06T11:44:18Z</time>
      </trkpt>
      <trkpt lat="42.6668" lon="-1.81264">
        <ele>417.452</ele>
        <time>2013-05-06T11:44:15Z</time>
      </trkpt>
      <trkpt lat="42.66687" lon="-1.81257">
        <ele>416.463</ele>
        <time>2013-05-06T11:44:08Z</time>
      </trkpt>
      <trkpt lat="42.66694" lon="-1.81252">
        <ele>415.475</ele>
        <time>2013-05-06T11:44:01Z</time>
      </trkpt>
      <trkpt lat="42.66696" lon="-1.8125">
        <ele>415.42</ele>
        <time>2013-05-06T11:43:59Z</time>
      </trkpt>
      <trkpt lat="42.66698" lon="-1.8125">
        <ele>415.047</ele>
        <time>2013-05-06T11:43:57Z</time>
      </trkpt>
      <trkpt lat="42.66702" lon="-1.81248">
        <ele>414.534</ele>
        <time>2013-05-06T11:43:53Z</time>
      </trkpt>
      <trkpt lat="42.66716" lon="-1.81241">
        <ele>413.012</ele>
        <time>2013-05-06T11:43:40Z</time>
      </trkpt>
      <trkpt lat="42.66729" lon="-1.81235">
        <ele>411.185</ele>
        <time>2013-05-06T11:43:27Z</time>
      </trkpt>
      <trkpt lat="42.66742" lon="-1.81226">
        <ele>409.718</ele>
        <time>2013-05-06T11:43:13Z</time>
      </trkpt>
      <trkpt lat="42.66744" lon="-1.81225">
        <ele>409.298</ele>
        <time>2013-05-06T11:43:11Z</time>
      </trkpt>
      <trkpt lat="42.66758" lon="-1.81211">
        <ele>407.317</ele>
        <time>2013-05-06T11:42:55Z</time>
      </trkpt>
      <trkpt lat="42.66759" lon="-1.81209">
        <ele>407.308</ele>
        <time>2013-05-06T11:42:53Z</time>
      </trkpt>
      <trkpt lat="42.66769" lon="-1.812">
        <ele>404.942</ele>
        <time>2013-05-06T11:42:41Z</time>
      </trkpt>
      <trkpt lat="42.6678" lon="-1.81188">
        <ele>402.923</ele>
        <time>2013-05-06T11:42:27Z</time>
      </trkpt>
      <trkpt lat="42.66781" lon="-1.81187">
        <ele>402.525</ele>
        <time>2013-05-06T11:42:25Z</time>
      </trkpt>
      <trkpt lat="42.66784" lon="-1.81184">
        <ele>402.55</ele>
        <time>2013-05-06T11:42:22Z</time>
      </trkpt>
      <trkpt lat="42.66788" lon="-1.81181">
        <ele>401.527</ele>
        <time>2013-05-06T11:42:18Z</time>
      </trkpt>
      <trkpt lat="42.66789" lon="-1.8118">
        <ele>401.584</ele>
        <time>2013-05-06T11:42:16Z</time>
      </trkpt>
      <trkpt lat="42.66791" lon="-1.81177">
        <ele>401.062</ele>
        <time>2013-05-06T11:42:14Z</time>
      </trkpt>
      <trkpt lat="42.66793" lon="-1.81175">
        <ele>400.555</ele>
        <time>2013-05-06T11:42:12Z</time>
      </trkpt>
      <trkpt lat="42.66797" lon="-1.81169">
        <ele>400.117</ele>
        <time>2013-05-06T11:42:06Z</time>
      </trkpt>
      <trkpt lat="42.66799" lon="-1.81168">
        <ele>399.687</ele>
        <time>2013-05-06T11:42:04Z</time>
      </trkpt>
      <trkpt lat="42.66806" lon="-1.81162">
        <ele>398.115</ele>
        <time>2013-05-06T11:41:56Z</time>
      </trkpt>
      <trkpt lat="42.66817" lon="-1.81153">
        <ele>396.208</ele>
        <time>2013-05-06T11:41:43Z</time>
      </trkpt>
      <trkpt lat="42.66831" lon="-1.81142">
        <ele>394.392</ele>
        <time>2013-05-06T11:41:28Z</time>
      </trkpt>
      <trkpt lat="42.66842" lon="-1.81128">
        <ele>392.453</ele>
        <time>2013-05-06T11:41:15Z</time>
      </trkpt>
      <trkpt lat="42.66854" lon="-1.81117">
        <ele>390.465</ele>
        <time>2013-05-06T11:41:01Z</time>
      </trkpt>
      <trkpt lat="42.66869" lon="-1.81115">
        <ele>388.58</ele>
        <time>2013-05-06T11:40:47Z</time>
      </trkpt>
      <trkpt lat="42.66871" lon="-1.81116">
        <ele>388.527</ele>
        <time>2013-05-06T11:40:45Z</time>
      </trkpt>
      <trkpt lat="42.66879" lon="-1.81122">
        <ele>387.194</ele>
        <time>2013-05-06T11:40:36Z</time>
      </trkpt>
      <trkpt lat="42.66889" lon="-1.81127">
        <ele>385.282</ele>
        <time>2013-05-06T11:40:25Z</time>
      </trkpt>
      <trkpt lat="42.66891" lon="-1.81129">
        <ele>385.295</ele>
        <time>2013-05-06T11:40:23Z</time>
      </trkpt>
      <trkpt lat="42.66893" lon="-1.8113">
        <ele>384.777</ele>
        <time>2013-05-06T11:40:21Z</time>
      </trkpt>
      <trkpt lat="42.66908" lon="-1.81137">
        <ele>381.861</ele>
        <time>2013-05-06T11:40:05Z</time>
      </trkpt>
      <trkpt lat="42.6692" lon="-1.81143">
        <ele>379.427</ele>
        <time>2013-05-06T11:39:52Z</time>
      </trkpt>
      <trkpt lat="42.66931" lon="-1.81149">
        <ele>377.008</ele>
        <time>2013-05-06T11:39:38Z</time>
      </trkpt>
      <trkpt lat="42.66944" lon="-1.81154">
        <ele>374.668</ele>
        <time>2013-05-06T11:39:24Z</time>
      </trkpt>
      <trkpt lat="42.66956" lon="-1.81161">
        <ele>373.189</ele>
        <time>2013-05-06T11:39:11Z</time>
      </trkpt>
      <trkpt lat="42.66967" lon="-1.81167">
        <ele>370.761</ele>
        <time>2013-05-06T11:38:59Z</time>
      </trkpt>
      <trkpt lat="42.66983" lon="-1.81175">
        <ele>369.316</ele>
        <time>2013-05-06T11:38:45Z</time>
      </trkpt>
      <trkpt lat="42.66997" lon="-1.81183">
        <ele>367.893</ele>
        <time>2013-05-06T11:38:33Z</time>
      </trkpt>
      <trkpt lat="42.66999" lon="-1.81186">
        <ele>367.42</ele>
        <time>2013-05-06T11:38:31Z</time>
      </trkpt>
      <trkpt lat="42.67002" lon="-1.81188">
        <ele>367.418</ele>
        <time>2013-05-06T11:38:29Z</time>
      </trkpt>
      <trkpt lat="42.67018" lon="-1.81203">
        <ele>365.411</ele>
        <time>2013-05-06T11:34:07Z</time>
      </trkpt>
      <trkpt lat="42.67034" lon="-1.81222">
        <ele>364.075</ele>
        <time>2013-05-06T11:33:56Z</time>
      </trkpt>
      <trkpt lat="42.67067" lon="-1.81229">
        <ele>362.128</ele>
        <time>2013-05-06T11:33:43Z</time>
      </trkpt>
      <trkpt lat="42.67101" lon="-1.81232">
        <ele>362.12</ele>
        <time>2013-05-06T11:33:31Z</time>
      </trkpt>
      <trkpt lat="42.67124" lon="-1.81246">
        <ele>363.008</ele>
        <time>2013-05-06T11:33:22Z</time>
      </trkpt>
      <trkpt lat="42.67128" lon="-1.81247">
        <ele>363.088</ele>
        <time>2013-05-06T11:31:35Z</time>
      </trkpt>
      <trkpt lat="42.67131" lon="-1.81252">
        <ele>363.039</ele>
        <time>2013-05-06T11:31:28Z</time>
      </trkpt>
      <trkpt lat="42.67125" lon="-1.81289">
        <ele>363.051</ele>
        <time>2013-05-06T11:31:17Z</time>
      </trkpt>
      <trkpt lat="42.67114" lon="-1.81342">
        <ele>362.666</ele>
        <time>2013-05-06T11:31:01Z</time>
      </trkpt>
      <trkpt lat="42.67106" lon="-1.81377">
        <ele>362.153</ele>
        <time>2013-05-06T11:30:49Z</time>
      </trkpt>
      <trkpt lat="42.67102" lon="-1.81407">
        <ele>362.16</ele>
        <time>2013-05-06T11:30:38Z</time>
      </trkpt>
      <trkpt lat="42.671" lon="-1.81437">
        <ele>361.628</ele>
        <time>2013-05-06T11:30:28Z</time>
      </trkpt>
      <trkpt lat="42.67099" lon="-1.81447">
        <ele>361.681</ele>
        <time>2013-05-06T11:30:25Z</time>
      </trkpt>
      <trkpt lat="42.67091" lon="-1.81488">
        <ele>361.621</ele>
        <time>2013-05-06T11:30:12Z</time>
      </trkpt>
      <trkpt lat="42.67091" lon="-1.81515">
        <ele>361.641</ele>
        <time>2013-05-06T11:30:03Z</time>
      </trkpt>
      <trkpt lat="42.67092" lon="-1.81517">
        <ele>361.605</ele>
        <time>2013-05-06T11:30:02Z</time>
      </trkpt>
      <trkpt lat="42.6709" lon="-1.81529">
        <ele>361.608</ele>
        <time>2013-05-06T11:29:57Z</time>
      </trkpt>
      <trkpt lat="42.67089" lon="-1.81535">
        <ele>361.663</ele>
        <time>2013-05-06T11:29:55Z</time>
      </trkpt>
      <trkpt lat="42.67096" lon="-1.81544">
        <ele>361.624</ele>
        <time>2013-05-06T11:29:48Z</time>
      </trkpt>
      <trkpt lat="42.67124" lon="-1.81555">
        <ele>361.666</ele>
        <time>2013-05-06T11:29:38Z</time>
      </trkpt>
      <trkpt lat="42.67145" lon="-1.81554">
        <ele>361.631</ele>
        <time>2013-05-06T11:29:27Z</time>
      </trkpt>
      <trkpt lat="42.6716" lon="-1.81556">
        <ele>361.648</ele>
        <time>2013-05-06T11:29:19Z</time>
      </trkpt>
      <trkpt lat="42.67176" lon="-1.81569">
        <ele>361.695</ele>
        <time>2013-05-06T11:29:08Z</time>
      </trkpt>
      <trkpt lat="42.67183" lon="-1.81568">
        <ele>361.653</ele>
        <time>2013-05-06T11:28:50Z</time>
      </trkpt>
      <trkpt lat="42.67194" lon="-1.81545">
        <ele>359.246</ele>
        <time>2013-05-06T10:51:25Z</time>
      </trkpt>
      <trkpt lat="42.67201" lon="-1.81522">
        <ele>359.218</ele>
        <time>2013-05-06T10:51:17Z</time>
      </trkpt>
      <trkpt lat="42.67208" lon="-1.81495">
        <ele>359.798</ele>
        <time>2013-05-06T10:51:08Z</time>
      </trkpt>
      <trkpt lat="42.67213" lon="-1.81457">
        <ele>359.717</ele>
        <time>2013-05-06T10:50:56Z</time>
      </trkpt>
      <trkpt lat="42.67214" lon="-1.81453">
        <ele>359.708</ele>
        <time>2013-05-06T10:50:55Z</time>
      </trkpt>
      <trkpt lat="42.67215" lon="-1.81449">
        <ele>359.722</ele>
        <time>2013-05-06T10:50:54Z</time>
      </trkpt>
      <trkpt lat="42.67218" lon="-1.81441">
        <ele>359.773</ele>
        <time>2013-05-06T10:50:46Z</time>
      </trkpt>
      <trkpt lat="42.67219" lon="-1.81437">
        <ele>359.795</ele>
        <time>2013-05-06T10:50:32Z</time>
      </trkpt>
      <trkpt lat="42.67221" lon="-1.81411">
        <ele>360.63</ele>
        <time>2013-05-06T10:50:25Z</time>
      </trkpt>
      <trkpt lat="42.67226" lon="-1.81373">
        <ele>360.697</ele>
        <time>2013-05-06T10:50:17Z</time>
      </trkpt>
      <trkpt lat="42.67232" lon="-1.81335">
        <ele>360.674</ele>
        <time>2013-05-06T10:50:08Z</time>
      </trkpt>
      <trkpt lat="42.6724" lon="-1.813">
        <ele>360.612</ele>
        <time>2013-05-06T10:49:59Z</time>
      </trkpt>
      <trkpt lat="42.67241" lon="-1.81297">
        <ele>360.645</ele>
        <time>2013-05-06T10:49:58Z</time>
      </trkpt>
      <trkpt lat="42.67242" lon="-1.81294">
        <ele>360.682</ele>
        <time>2013-05-06T10:49:57Z</time>
      </trkpt>
      <trkpt lat="42.67243" lon="-1.81291">
        <ele>360.643</ele>
        <time>2013-05-06T10:49:56Z</time>
      </trkpt>
      <trkpt lat="42.67244" lon="-1.81286">
        <ele>360.617</ele>
        <time>2013-05-06T10:49:54Z</time>
      </trkpt>
      <trkpt lat="42.67249" lon="-1.81277">
        <ele>360.608</ele>
        <time>2013-05-06T10:44:24Z</time>
      </trkpt>
      <trkpt lat="42.67249" lon="-1.81273">
        <ele>360.699</ele>
        <time>2013-05-06T10:44:04Z</time>
      </trkpt>
      <trkpt lat="42.67251" lon="-1.81264">
        <ele>360.69</ele>
        <time>2013-05-06T10:43:55Z</time>
      </trkpt>
      <trkpt lat="42.67259" lon="-1.81224">
        <ele>361.172</ele>
        <time>2013-05-06T10:43:44Z</time>
      </trkpt>
      <trkpt lat="42.67265" lon="-1.812">
        <ele>361.127</ele>
        <time>2013-05-06T10:43:37Z</time>
      </trkpt>
      <trkpt lat="42.67272" lon="-1.81173">
        <ele>361.194</ele>
        <time>2013-05-06T10:43:26Z</time>
      </trkpt>
      <trkpt lat="42.67277" lon="-1.81157">
        <ele>362.141</ele>
        <time>2013-05-06T10:43:21Z</time>
      </trkpt>
      <trkpt lat="42.67284" lon="-1.81131">
        <ele>362.189</ele>
        <time>2013-05-06T10:43:13Z</time>
      </trkpt>
      <trkpt lat="42.67294" lon="-1.81095">
        <ele>362.152</ele>
        <time>2013-05-06T10:43:02Z</time>
      </trkpt>
      <trkpt lat="42.67297" lon="-1.81083">
        <ele>362.134</ele>
        <time>2013-05-06T10:42:56Z</time>
      </trkpt>
      <trkpt lat="42.67304" lon="-1.81075">
        <ele>361.655</ele>
        <time>2013-05-06T10:36:51Z</time>
      </trkpt>
      <trkpt lat="42.67308" lon="-1.81062">
        <ele>362.11</ele>
        <time>2013-05-06T10:36:40Z</time>
      </trkpt>
      <trkpt lat="42.67321" lon="-1.81037">
        <ele>362.108</ele>
        <time>2013-05-06T10:36:26Z</time>
      </trkpt>
      <trkpt lat="42.67335" lon="-1.81037">
        <ele>363.554</ele>
        <time>2013-05-06T10:36:19Z</time>
      </trkpt>
      <trkpt lat="42.67363" lon="-1.81041">
        <ele>364.525</ele>
        <time>2013-05-06T10:36:08Z</time>
      </trkpt>
      <trkpt lat="42.67368" lon="-1.81042">
        <ele>364.577</ele>
        <time>2013-05-06T10:36:06Z</time>
      </trkpt>
      <trkpt lat="42.6737" lon="-1.81044">
        <ele>364.572</ele>
        <time>2013-05-06T10:35:50Z</time>
      </trkpt>
      <trkpt lat="42.6737" lon="-1.8105">
        <ele>364.569</ele>
        <time>2013-05-06T10:35:47Z</time>
      </trkpt>
      <trkpt lat="42.67392" lon="-1.81005">
        <ele>365.046</ele>
        <time>2013-05-06T10:35:00Z</time>
      </trkpt>
      <trkpt lat="42.67405" lon="-1.80985">
        <ele>365.084</ele>
        <time>2013-05-06T10:34:56Z</time>
      </trkpt>
      <trkpt lat="42.67456" lon="-1.80912">
        <ele>365.067</ele>
        <time>2013-05-06T10:34:42Z</time>
      </trkpt>
      <trkpt lat="42.67517" lon="-1.80825">
        <ele>364.514</ele>
        <time>2013-05-06T10:34:26Z</time>
      </trkpt>
      <trkpt lat="42.67575" lon="-1.80747">
        <ele>365.454</ele>
        <time>2013-05-06T10:34:12Z</time>
      </trkpt>
      <trkpt lat="42.67636" lon="-1.80693">
        <ele>366.909</ele>
        <time>2013-05-06T10:33:59Z</time>
      </trkpt>
      <trkpt lat="42.67666" lon="-1.80666">
        <ele>368.308</ele>
        <time>2013-05-06T10:33:51Z</time>
      </trkpt>
      <trkpt lat="42.67671" lon="-1.80654">
        <ele>368.332</ele>
        <time>2013-05-06T10:33:48Z</time>
      </trkpt>
      <trkpt lat="42.67674" lon="-1.8064">
        <ele>368.323</ele>
        <time>2013-05-06T10:33:43Z</time>
      </trkpt>
      <trkpt lat="42.67673" lon="-1.80638">
        <ele>368.345</ele>
        <time>2013-05-06T10:33:38Z</time>
      </trkpt>
      <trkpt lat="42.67674" lon="-1.8064">
        <ele>368.35</ele>
        <time>2013-05-06T10:33:20Z</time>
      </trkpt>
      <trkpt lat="42.6767" lon="-1.80631">
        <ele>367.437</ele>
        <time>2013-05-06T10:33:08Z</time>
      </trkpt>
      <trkpt lat="42.67666" lon="-1.80624">
        <ele>366.964</ele>
        <time>2013-05-06T10:33:05Z</time>
      </trkpt>
      <trkpt lat="42.67654" lon="-1.80598">
        <ele>365.452</ele>
        <time>2013-05-06T10:32:55Z</time>
      </trkpt>
      <trkpt lat="42.67659" lon="-1.8056">
        <ele>365.455</ele>
        <time>2013-05-06T10:32:45Z</time>
      </trkpt>
      <trkpt lat="42.67659" lon="-1.80543">
        <ele>365.035</ele>
        <time>2013-05-06T10:32:38Z</time>
      </trkpt>
      <trkpt lat="42.67662" lon="-1.80537">
        <ele>364.586</ele>
        <time>2013-05-06T10:32:35Z</time>
      </trkpt>
      <trkpt lat="42.67668" lon="-1.805">
        <ele>364.014</ele>
        <time>2013-05-06T10:32:23Z</time>
      </trkpt>
      <trkpt lat="42.67669" lon="-1.80468">
        <ele>364.508</ele>
        <time>2013-05-06T10:32:14Z</time>
      </trkpt>
      <trkpt lat="42.67675" lon="-1.80436">
        <ele>365.434</ele>
        <time>2013-05-06T10:32:05Z</time>
      </trkpt>
      <trkpt lat="42.67688" lon="-1.8035">
        <ele>366.415</ele>
        <time>2013-05-06T10:31:49Z</time>
      </trkpt>
      <trkpt lat="42.67696" lon="-1.80287">
        <ele>367.427</ele>
        <time>2013-05-06T10:31:36Z</time>
      </trkpt>
      <trkpt lat="42.67706" lon="-1.80234">
        <ele>367.412</ele>
        <time>2013-05-06T10:31:25Z</time>
      </trkpt>
      <trkpt lat="42.6771" lon="-1.80175">
        <ele>367.489</ele>
        <time>2013-05-06T10:31:13Z</time>
      </trkpt>
      <trkpt lat="42.67699" lon="-1.8014">
        <ele>367.416</ele>
        <time>2013-05-06T10:31:03Z</time>
      </trkpt>
      <trkpt lat="42.67686" lon="-1.80101">
        <ele>367.484</ele>
        <time>2013-05-06T10:30:53Z</time>
      </trkpt>
      <trkpt lat="42.67689" lon="-1.80028">
        <ele>367.417</ele>
        <time>2013-05-06T10:30:39Z</time>
      </trkpt>
      <trkpt lat="42.67705" lon="-1.80008">
        <ele>368.848</ele>
        <time>2013-05-06T10:30:33Z</time>
      </trkpt>
      <trkpt lat="42.67718" lon="-1.79986">
        <ele>368.861</ele>
        <time>2013-05-06T10:30:27Z</time>
      </trkpt>
      <trkpt lat="42.67729" lon="-1.79956">
        <ele>369.317</ele>
        <time>2013-05-06T10:30:19Z</time>
      </trkpt>
      <trkpt lat="42.67748" lon="-1.79909">
        <ele>370.208</ele>
        <time>2013-05-06T10:30:11Z</time>
      </trkpt>
      <trkpt lat="42.6777" lon="-1.79821">
        <ele>372.765</ele>
        <time>2013-05-06T10:30:01Z</time>
      </trkpt>
      <trkpt lat="42.67778" lon="-1.79738">
        <ele>376.046</ele>
        <time>2013-05-06T10:29:53Z</time>
      </trkpt>
      <trkpt lat="42.67784" lon="-1.79684">
        <ele>378.938</ele>
        <time>2013-05-06T10:29:48Z</time>
      </trkpt>
      <trkpt lat="42.67791" lon="-1.79644">
        <ele>382.313</ele>
        <time>2013-05-06T10:29:43Z</time>
      </trkpt>
      <trkpt lat="42.67796" lon="-1.79614">
        <ele>384.22</ele>
        <time>2013-05-06T10:29:39Z</time>
      </trkpt>
      <trkpt lat="42.67807" lon="-1.7956">
        <ele>387.657</ele>
        <time>2013-05-06T10:29:30Z</time>
      </trkpt>
      <trkpt lat="42.67816" lon="-1.79518">
        <ele>390.025</ele>
        <time>2013-05-06T10:29:22Z</time>
      </trkpt>
      <trkpt lat="42.67822" lon="-1.79492">
        <ele>392.848</ele>
        <time>2013-05-06T10:29:16Z</time>
      </trkpt>
      <trkpt lat="42.67825" lon="-1.79472">
        <ele>395.724</ele>
        <time>2013-05-06T10:29:09Z</time>
      </trkpt>
      <trkpt lat="42.67828" lon="-1.79445">
        <ele>399.104</ele>
        <time>2013-05-06T10:29:05Z</time>
      </trkpt>
      <trkpt lat="42.67829" lon="-1.79421">
        <ele>402.514</ele>
        <time>2013-05-06T10:29:02Z</time>
      </trkpt>
      <trkpt lat="42.67831" lon="-1.79392">
        <ele>404.408</ele>
        <time>2013-05-06T10:28:58Z</time>
      </trkpt>
      <trkpt lat="42.67847" lon="-1.7932">
        <ele>407.773</ele>
        <time>2013-05-06T10:28:47Z</time>
      </trkpt>
      <trkpt lat="42.67863" lon="-1.79293">
        <ele>408.784</ele>
        <time>2013-05-06T10:28:42Z</time>
      </trkpt>
      <trkpt lat="42.67883" lon="-1.79253">
        <ele>411.636</ele>
        <time>2013-05-06T10:28:34Z</time>
      </trkpt>
      <trkpt lat="42.67918" lon="-1.79185">
        <ele>414.041</ele>
        <time>2013-05-06T10:28:19Z</time>
      </trkpt>
      <trkpt lat="42.67935" lon="-1.79134">
        <ele>413.518</ele>
        <time>2013-05-06T10:28:09Z</time>
      </trkpt>
      <trkpt lat="42.67944" lon="-1.79049">
        <ele>415.475</ele>
        <time>2013-05-06T10:27:57Z</time>
      </trkpt>
      <trkpt lat="42.67944" lon="-1.79035">
        <ele>415.433</ele>
        <time>2013-05-06T10:27:55Z</time>
      </trkpt>
      <trkpt lat="42.67936" lon="-1.78981">
        <ele>416.466</ele>
        <time>2013-05-06T10:27:46Z</time>
      </trkpt>
      <trkpt lat="42.67933" lon="-1.78964">
        <ele>416.454</ele>
        <time>2013-05-06T10:27:43Z</time>
      </trkpt>
      <trkpt lat="42.67921" lon="-1.78915">
        <ele>416.956</ele>
        <time>2013-05-06T10:27:33Z</time>
      </trkpt>
      <trkpt lat="42.67908" lon="-1.78867">
        <ele>417.411</ele>
        <time>2013-05-06T10:27:23Z</time>
      </trkpt>
      <trkpt lat="42.67901" lon="-1.78821">
        <ele>417.808</ele>
        <time>2013-05-06T10:27:13Z</time>
      </trkpt>
      <trkpt lat="42.67895" lon="-1.78797">
        <ele>417.826</ele>
        <time>2013-05-06T10:27:05Z</time>
      </trkpt>
      <trkpt lat="42.67893" lon="-1.78794">
        <ele>417.827</ele>
        <time>2013-05-06T10:26:38Z</time>
      </trkpt>
      <trkpt lat="42.67895" lon="-1.78788">
        <ele>417.849</ele>
        <time>2013-05-06T10:26:30Z</time>
      </trkpt>
      <trkpt lat="42.67895" lon="-1.78781">
        <ele>417.864</ele>
        <time>2013-05-06T10:26:28Z</time>
      </trkpt>
      <trkpt lat="42.67898" lon="-1.7875">
        <ele>418.811</ele>
        <time>2013-05-06T10:26:19Z</time>
      </trkpt>
      <trkpt lat="42.67898" lon="-1.78747">
        <ele>418.858</ele>
        <time>2013-05-06T10:26:18Z</time>
      </trkpt>
      <trkpt lat="42.67898" lon="-1.78744">
        <ele>418.836</ele>
        <time>2013-05-06T10:26:17Z</time>
      </trkpt>
      <trkpt lat="42.67898" lon="-1.78741">
        <ele>418.839</ele>
        <time>2013-05-06T10:26:16Z</time>
      </trkpt>
      <trkpt lat="42.67897" lon="-1.78738">
        <ele>418.899</ele>
        <time>2013-05-06T10:26:15Z</time>
      </trkpt>
      <trkpt lat="42.67896" lon="-1.78735">
        <ele>418.807</ele>
        <time>2013-05-06T10:26:14Z</time>
      </trkpt>
      <trkpt lat="42.67896" lon="-1.78732">
        <ele>418.827</ele>
        <time>2013-05-06T10:26:13Z</time>
      </trkpt>
      <trkpt lat="42.67896" lon="-1.78728">
        <ele>418.808</ele>
        <time>2013-05-06T10:26:12Z</time>
      </trkpt>
      <trkpt lat="42.67911" lon="-1.78709">
        <ele>419.86</ele>
        <time>2013-05-06T10:26:04Z</time>
      </trkpt>
      <trkpt lat="42.67933" lon="-1.78694">
        <ele>420.271</ele>
        <time>2013-05-06T10:25:55Z</time>
      </trkpt>
      <trkpt lat="42.67934" lon="-1.78692">
        <ele>420.293</ele>
        <time>2013-05-06T10:25:54Z</time>
      </trkpt>
      <trkpt lat="42.67935" lon="-1.78689">
        <ele>420.248</ele>
        <time>2013-05-06T10:25:53Z</time>
      </trkpt>
      <trkpt lat="42.67937" lon="-1.78684">
        <ele>420.295</ele>
        <time>2013-05-06T10:25:51Z</time>
      </trkpt>
      <trkpt lat="42.67938" lon="-1.78681">
        <ele>420.792</ele>
        <time>2013-05-06T10:25:49Z</time>
      </trkpt>
      <trkpt lat="42.67934" lon="-1.78665">
        <ele>420.74</ele>
        <time>2013-05-06T10:25:44Z</time>
      </trkpt>
      <trkpt lat="42.67933" lon="-1.78635">
        <ele>421.213</ele>
        <time>2013-05-06T10:25:35Z</time>
      </trkpt>
      <trkpt lat="42.67947" lon="-1.7861">
        <ele>421.222</ele>
        <time>2013-05-06T10:25:24Z</time>
      </trkpt>
      <trkpt lat="42.67949" lon="-1.78606">
        <ele>421.262</ele>
        <time>2013-05-06T10:25:22Z</time>
      </trkpt>
      <trkpt lat="42.67951" lon="-1.78602">
        <ele>421.208</ele>
        <time>2013-05-06T10:25:20Z</time>
      </trkpt>
      <trkpt lat="42.67952" lon="-1.786">
        <ele>421.208</ele>
        <time>2013-05-06T10:25:18Z</time>
      </trkpt>
      <trkpt lat="42.67953" lon="-1.78597">
        <ele>421.223</ele>
        <time>2013-05-06T10:25:08Z</time>
      </trkpt>
      <trkpt lat="42.67955" lon="-1.78595">
        <ele>421.244</ele>
        <time>2013-05-06T10:25:06Z</time>
      </trkpt>
      <trkpt lat="42.67954" lon="-1.78591">
        <ele>421.786</ele>
        <time>2013-05-06T10:25:03Z</time>
      </trkpt>
      <trkpt lat="42.67953" lon="-1.78589">
        <ele>421.711</ele>
        <time>2013-05-06T10:25:01Z</time>
      </trkpt>
      <trkpt lat="42.67954" lon="-1.78587">
        <ele>421.798</ele>
        <time>2013-05-06T10:24:59Z</time>
      </trkpt>
      <trkpt lat="42.67956" lon="-1.78586">
        <ele>421.795</ele>
        <time>2013-05-06T10:23:37Z</time>
      </trkpt>
      <trkpt lat="42.67958" lon="-1.78587">
        <ele>421.793</ele>
        <time>2013-05-06T10:23:36Z</time>
      </trkpt>
      <trkpt lat="42.67974" lon="-1.78582">
        <ele>422.256</ele>
        <time>2013-05-06T10:23:30Z</time>
      </trkpt>
      <trkpt lat="42.68004" lon="-1.78567">
        <ele>422.653</ele>
        <time>2013-05-06T10:23:19Z</time>
      </trkpt>
      <trkpt lat="42.68044" lon="-1.78544">
        <ele>422.604</ele>
        <time>2013-05-06T10:23:07Z</time>
      </trkpt>
      <trkpt lat="42.68081" lon="-1.78527">
        <ele>423.114</ele>
        <time>2013-05-06T10:22:56Z</time>
      </trkpt>
      <trkpt lat="42.68084" lon="-1.78526">
        <ele>423.108</ele>
        <time>2013-05-06T10:22:55Z</time>
      </trkpt>
      <trkpt lat="42.68087" lon="-1.78524">
        <ele>423.176</ele>
        <time>2013-05-06T10:22:54Z</time>
      </trkpt>
      <trkpt lat="42.6809" lon="-1.78522">
        <ele>423.167</ele>
        <time>2013-05-06T10:22:53Z</time>
      </trkpt>
      <trkpt lat="42.68093" lon="-1.78519">
        <ele>423.199</ele>
        <time>2013-05-06T10:22:52Z</time>
      </trkpt>
      <trkpt lat="42.6809" lon="-1.78477">
        <ele>424.194</ele>
        <time>2013-05-06T10:22:43Z</time>
      </trkpt>
      <trkpt lat="42.68089" lon="-1.78472">
        <ele>424.131</ele>
        <time>2013-05-06T10:22:42Z</time>
      </trkpt>
      <trkpt lat="42.68088" lon="-1.78467">
        <ele>424.118</ele>
        <time>2013-05-06T10:22:41Z</time>
      </trkpt>
      <trkpt lat="42.68088" lon="-1.78462">
        <ele>424.136</ele>
        <time>2013-05-06T10:22:40Z</time>
      </trkpt>
      <trkpt lat="42.68089" lon="-1.78458">
        <ele>424.129</ele>
        <time>2013-05-06T10:22:39Z</time>
      </trkpt>
      <trkpt lat="42.68108" lon="-1.78444">
        <ele>424.668</ele>
        <time>2013-05-06T10:22:33Z</time>
      </trkpt>
      <trkpt lat="42.68132" lon="-1.78426">
        <ele>425.042</ele>
        <time>2013-05-06T10:22:26Z</time>
      </trkpt>
      <trkpt lat="42.68132" lon="-1.78368">
        <ele>425.526</ele>
        <time>2013-05-06T10:22:14Z</time>
      </trkpt>
      <trkpt lat="42.6813" lon="-1.78311">
        <ele>427.408</ele>
        <time>2013-05-06T10:22:02Z</time>
      </trkpt>
      <trkpt lat="42.68128" lon="-1.7827">
        <ele>427.447</ele>
        <time>2013-05-06T10:21:52Z</time>
      </trkpt>
      <trkpt lat="42.68127" lon="-1.78266">
        <ele>427.468</ele>
        <time>2013-05-06T10:21:51Z</time>
      </trkpt>
      <trkpt lat="42.68126" lon="-1.78262">
        <ele>427.48</ele>
        <time>2013-05-06T10:21:50Z</time>
      </trkpt>
      <trkpt lat="42.68126" lon="-1.78258">
        <ele>427.435</ele>
        <time>2013-05-06T10:21:49Z</time>
      </trkpt>
      <trkpt lat="42.68126" lon="-1.78255">
        <ele>427.412</ele>
        <time>2013-05-06T10:21:48Z</time>
      </trkpt>
      <trkpt lat="42.68127" lon="-1.78251">
        <ele>427.469</ele>
        <time>2013-05-06T10:21:47Z</time>
      </trkpt>
      <trkpt lat="42.6813" lon="-1.78209">
        <ele>427.057</ele>
        <time>2013-05-06T10:21:34Z</time>
      </trkpt>
      <trkpt lat="42.68134" lon="-1.78181">
        <ele>426.52</ele>
        <time>2013-05-06T10:21:20Z</time>
      </trkpt>
      <trkpt lat="42.68141" lon="-1.7816">
        <ele>424.143</ele>
        <time>2013-05-06T10:21:08Z</time>
      </trkpt>
      <trkpt lat="42.68144" lon="-1.78155">
        <ele>423.164</ele>
        <time>2013-05-06T10:21:04Z</time>
      </trkpt>
      <trkpt lat="42.68158" lon="-1.78142">
        <ele>421.21</ele>
        <time>2013-05-06T10:20:52Z</time>
      </trkpt>
      <trkpt lat="42.68176" lon="-1.78126">
        <ele>417.808</ele>
        <time>2013-05-06T10:20:37Z</time>
      </trkpt>
      <trkpt lat="42.68192" lon="-1.7811">
        <ele>415.955</ele>
        <time>2013-05-06T10:20:24Z</time>
      </trkpt>
      <trkpt lat="42.68206" lon="-1.78097">
        <ele>415.036</ele>
        <time>2013-05-06T10:20:13Z</time>
      </trkpt>
      <trkpt lat="42.68224" lon="-1.7808">
        <ele>414.048</ele>
        <time>2013-05-06T10:20:01Z</time>
      </trkpt>
      <trkpt lat="42.68243" lon="-1.78051">
        <ele>412.523</ele>
        <time>2013-05-06T10:19:46Z</time>
      </trkpt>
      <trkpt lat="42.6826" lon="-1.78026">
        <ele>411.69</ele>
        <time>2013-05-06T10:19:33Z</time>
      </trkpt>
      <trkpt lat="42.68274" lon="-1.78005">
        <ele>410.637</ele>
        <time>2013-05-06T10:19:21Z</time>
      </trkpt>
      <trkpt lat="42.6829" lon="-1.77981">
        <ele>408.775</ele>
        <time>2013-05-06T10:19:07Z</time>
      </trkpt>
      <trkpt lat="42.68301" lon="-1.7796">
        <ele>407.348</ele>
        <time>2013-05-06T10:18:55Z</time>
      </trkpt>
      <trkpt lat="42.68315" lon="-1.77933">
        <ele>405.824</ele>
        <time>2013-05-06T10:18:43Z</time>
      </trkpt>
      <trkpt lat="42.68335" lon="-1.77902">
        <ele>404.904</ele>
        <time>2013-05-06T10:18:30Z</time>
      </trkpt>
      <trkpt lat="42.68352" lon="-1.77869">
        <ele>403.414</ele>
        <time>2013-05-06T10:18:18Z</time>
      </trkpt>
      <trkpt lat="42.68378" lon="-1.77835">
        <ele>403.408</ele>
        <time>2013-05-06T10:18:07Z</time>
      </trkpt>
      <trkpt lat="42.68393" lon="-1.77815">
        <ele>403.443</ele>
        <time>2013-05-06T10:18:00Z</time>
      </trkpt>
      <trkpt lat="42.68407" lon="-1.77781">
        <ele>403.914</ele>
        <time>2013-05-06T10:17:51Z</time>
      </trkpt>
      <trkpt lat="42.68431" lon="-1.77726">
        <ele>404.416</ele>
        <time>2013-05-06T10:17:40Z</time>
      </trkpt>
      <trkpt lat="42.68439" lon="-1.77711">
        <ele>404.481</ele>
        <time>2013-05-06T10:17:37Z</time>
      </trkpt>
      <trkpt lat="42.68441" lon="-1.77705">
        <ele>404.418</ele>
        <time>2013-05-06T10:17:36Z</time>
      </trkpt>
      <trkpt lat="42.68442" lon="-1.77699">
        <ele>404.995</ele>
        <time>2013-05-06T10:17:35Z</time>
      </trkpt>
      <trkpt lat="42.68433" lon="-1.77663">
        <ele>405.323</ele>
        <time>2013-05-06T10:17:29Z</time>
      </trkpt>
      <trkpt lat="42.68425" lon="-1.7764">
        <ele>405.846</ele>
        <time>2013-05-06T10:17:24Z</time>
      </trkpt>
      <trkpt lat="42.68438" lon="-1.77623">
        <ele>406.894</ele>
        <time>2013-05-06T10:17:20Z</time>
      </trkpt>
      <trkpt lat="42.68474" lon="-1.77588">
        <ele>409.757</ele>
        <time>2013-05-06T10:17:15Z</time>
      </trkpt>
      <trkpt lat="42.68514" lon="-1.77545">
        <ele>413.522</ele>
        <time>2013-05-06T10:17:11Z</time>
      </trkpt>
      <trkpt lat="42.68548" lon="-1.7751">
        <ele>417.408</ele>
        <time>2013-05-06T10:17:08Z</time>
      </trkpt>
      <trkpt lat="42.6858" lon="-1.77475">
        <ele>420.79</ele>
        <time>2013-05-06T10:17:05Z</time>
      </trkpt>
      <trkpt lat="42.68612" lon="-1.77441">
        <ele>424.161</ele>
        <time>2013-05-06T10:17:02Z</time>
      </trkpt>
      <trkpt lat="42.68642" lon="-1.77408">
        <ele>427.033</ele>
        <time>2013-05-06T10:16:59Z</time>
      </trkpt>
      <trkpt lat="42.68671" lon="-1.77377">
        <ele>429.998</ele>
        <time>2013-05-06T10:16:56Z</time>
      </trkpt>
      <trkpt lat="42.68707" lon="-1.77338">
        <ele>433.755</ele>
        <time>2013-05-06T10:16:52Z</time>
      </trkpt>
      <trkpt lat="42.6874" lon="-1.77302">
        <ele>437.592</ele>
        <time>2013-05-06T10:16:48Z</time>
      </trkpt>
      <trkpt lat="42.68769" lon="-1.7727">
        <ele>440.49</ele>
        <time>2013-05-06T10:16:44Z</time>
      </trkpt>
      <trkpt lat="42.68807" lon="-1.77231">
        <ele>443.863</ele>
        <time>2013-05-06T10:16:38Z</time>
      </trkpt>
      <trkpt lat="42.68843" lon="-1.77208">
        <ele>447.235</ele>
        <time>2013-05-06T10:16:31Z</time>
      </trkpt>
      <trkpt lat="42.68862" lon="-1.77199">
        <ele>447.286</ele>
        <time>2013-05-06T10:16:26Z</time>
      </trkpt>
      <trkpt lat="42.68865" lon="-1.77197">
        <ele>447.214</ele>
        <time>2013-05-06T10:16:25Z</time>
      </trkpt>
      <trkpt lat="42.68868" lon="-1.77195">
        <ele>447.208</ele>
        <time>2013-05-06T10:16:24Z</time>
      </trkpt>
      <trkpt lat="42.68871" lon="-1.77194">
        <ele>447.264</ele>
        <time>2013-05-06T10:16:23Z</time>
      </trkpt>
      <trkpt lat="42.68874" lon="-1.77193">
        <ele>447.235</ele>
        <time>2013-05-06T10:16:22Z</time>
      </trkpt>
      <trkpt lat="42.68876" lon="-1.77192">
        <ele>447.227</ele>
        <time>2013-05-06T10:16:21Z</time>
      </trkpt>
      <trkpt lat="42.68878" lon="-1.77191">
        <ele>447.222</ele>
        <time>2013-05-06T10:16:20Z</time>
      </trkpt>
      <trkpt lat="42.68883" lon="-1.77197">
        <ele>447.259</ele>
        <time>2013-05-06T10:15:36Z</time>
      </trkpt>
      <trkpt lat="42.68881" lon="-1.772">
        <ele>447.286</ele>
        <time>2013-05-06T10:13:19Z</time>
      </trkpt>
      <trkpt lat="42.68881" lon="-1.77198">
        <ele>446.734</ele>
        <time>2013-05-06T10:12:42Z</time>
      </trkpt>
      <trkpt lat="42.6888" lon="-1.77191">
        <ele>446.747</ele>
        <time>2013-05-06T10:12:30Z</time>
      </trkpt>
      <trkpt lat="42.68878" lon="-1.77189">
        <ele>446.788</ele>
        <time>2013-05-06T10:12:28Z</time>
      </trkpt>
      <trkpt lat="42.68876" lon="-1.77189">
        <ele>446.724</ele>
        <time>2013-05-06T10:12:25Z</time>
      </trkpt>
      <trkpt lat="42.68876" lon="-1.77192">
        <ele>447.226</ele>
        <time>2013-05-06T10:11:56Z</time>
      </trkpt>
      <trkpt lat="42.6888" lon="-1.7719">
        <ele>447.208</ele>
        <time>2013-05-06T10:11:49Z</time>
      </trkpt>
      <trkpt lat="42.68905" lon="-1.77175">
        <ele>447.639</ele>
        <time>2013-05-06T10:11:41Z</time>
      </trkpt>
      <trkpt lat="42.68939" lon="-1.77143">
        <ele>448.62</ele>
        <time>2013-05-06T10:11:31Z</time>
      </trkpt>
      <trkpt lat="42.68974" lon="-1.77117">
        <ele>449.642</ele>
        <time>2013-05-06T10:11:21Z</time>
      </trkpt>
      <trkpt lat="42.68978" lon="-1.77115">
        <ele>449.667</ele>
        <time>2013-05-06T10:11:20Z</time>
      </trkpt>
      <trkpt lat="42.69031" lon="-1.77078">
        <ele>450.074</ele>
        <time>2013-05-06T10:11:06Z</time>
      </trkpt>
      <trkpt lat="42.69035" lon="-1.77076">
        <ele>450.051</ele>
        <time>2013-05-06T10:11:05Z</time>
      </trkpt>
      <trkpt lat="42.69039" lon="-1.77072">
        <ele>450.069</ele>
        <time>2013-05-06T10:11:04Z</time>
      </trkpt>
      <trkpt lat="42.69042" lon="-1.77068">
        <ele>450.012</ele>
        <time>2013-05-06T10:11:03Z</time>
      </trkpt>
      <trkpt lat="42.69045" lon="-1.77063">
        <ele>450.061</ele>
        <time>2013-05-06T10:11:02Z</time>
      </trkpt>
      <trkpt lat="42.6907" lon="-1.77028">
        <ele>452.021</ele>
        <time>2013-05-06T10:10:55Z</time>
      </trkpt>
      <trkpt lat="42.69132" lon="-1.76975">
        <ele>454.413</ele>
        <time>2013-05-06T10:10:42Z</time>
      </trkpt>
      <trkpt lat="42.6918" lon="-1.76927">
        <ele>455.308</ele>
        <time>2013-05-06T10:10:31Z</time>
      </trkpt>
      <trkpt lat="42.6923" lon="-1.76901">
        <ele>456.827</ele>
        <time>2013-05-06T10:10:20Z</time>
      </trkpt>
      <trkpt lat="42.69234" lon="-1.769">
        <ele>456.868</ele>
        <time>2013-05-06T10:10:19Z</time>
      </trkpt>
      <trkpt lat="42.69255" lon="-1.76892">
        <ele>457.26</ele>
        <time>2013-05-06T10:10:14Z</time>
      </trkpt>
      <trkpt lat="42.69263" lon="-1.76888">
        <ele>457.265</ele>
        <time>2013-05-06T10:10:12Z</time>
      </trkpt>
      <trkpt lat="42.69267" lon="-1.76886">
        <ele>457.252</ele>
        <time>2013-05-06T10:10:11Z</time>
      </trkpt>
      <trkpt lat="42.69275" lon="-1.76883">
        <ele>457.799</ele>
        <time>2013-05-06T10:10:09Z</time>
      </trkpt>
      <trkpt lat="42.69317" lon="-1.76858">
        <ele>458.227</ele>
        <time>2013-05-06T10:09:56Z</time>
      </trkpt>
      <trkpt lat="42.69354" lon="-1.76832">
        <ele>459.77</ele>
        <time>2013-05-06T10:09:45Z</time>
      </trkpt>
      <trkpt lat="42.69405" lon="-1.76806">
        <ele>461.185</ele>
        <time>2013-05-06T10:09:33Z</time>
      </trkpt>
      <trkpt lat="42.6941" lon="-1.76804">
        <ele>461.189</ele>
        <time>2013-05-06T10:09:32Z</time>
      </trkpt>
      <trkpt lat="42.69414" lon="-1.76803">
        <ele>461.117</ele>
        <time>2013-05-06T10:09:31Z</time>
      </trkpt>
      <trkpt lat="42.69446" lon="-1.76792">
        <ele>462.108</ele>
        <time>2013-05-06T10:09:24Z</time>
      </trkpt>
      <trkpt lat="42.69455" lon="-1.76788">
        <ele>462.119</ele>
        <time>2013-05-06T10:09:22Z</time>
      </trkpt>
      <trkpt lat="42.69464" lon="-1.76784">
        <ele>462.52</ele>
        <time>2013-05-06T10:09:20Z</time>
      </trkpt>
      <trkpt lat="42.69477" lon="-1.76778">
        <ele>462.552</ele>
        <time>2013-05-06T10:09:17Z</time>
      </trkpt>
      <trkpt lat="42.69481" lon="-1.76776">
        <ele>462.567</ele>
        <time>2013-05-06T10:09:16Z</time>
      </trkpt>
      <trkpt lat="42.695" lon="-1.76771">
        <ele>463.014</ele>
        <time>2013-05-06T10:09:12Z</time>
      </trkpt>
      <trkpt lat="42.69505" lon="-1.76769">
        <ele>463.011</ele>
        <time>2013-05-06T10:09:11Z</time>
      </trkpt>
      <trkpt lat="42.69514" lon="-1.76763">
        <ele>463.599</ele>
        <time>2013-05-06T10:09:09Z</time>
      </trkpt>
      <trkpt lat="42.69518" lon="-1.76759">
        <ele>463.562</ele>
        <time>2013-05-06T10:09:08Z</time>
      </trkpt>
      <trkpt lat="42.69563" lon="-1.76711">
        <ele>464.953</ele>
        <time>2013-05-06T10:08:56Z</time>
      </trkpt>
      <trkpt lat="42.69584" lon="-1.76687">
        <ele>465.904</ele>
        <time>2013-05-06T10:08:51Z</time>
      </trkpt>
      <trkpt lat="42.69624" lon="-1.76646">
        <ele>467.314</ele>
        <time>2013-05-06T10:08:41Z</time>
      </trkpt>
      <trkpt lat="42.69634" lon="-1.76633">
        <ele>467.308</ele>
        <time>2013-05-06T10:08:38Z</time>
      </trkpt>
      <trkpt lat="42.69656" lon="-1.76612">
        <ele>467.846</ele>
        <time>2013-05-06T10:08:32Z</time>
      </trkpt>
      <trkpt lat="42.69685" lon="-1.76584">
        <ele>468.317</ele>
        <time>2013-05-06T10:08:24Z</time>
      </trkpt>
      <trkpt lat="42.69702" lon="-1.76559">
        <ele>468.389</ele>
        <time>2013-05-06T10:08:19Z</time>
      </trkpt>
      <trkpt lat="42.69735" lon="-1.76515">
        <ele>469.374</ele>
        <time>2013-05-06T10:08:11Z</time>
      </trkpt>
      <trkpt lat="42.69774" lon="-1.76484">
        <ele>471.221</ele>
        <time>2013-05-06T10:08:03Z</time>
      </trkpt>
      <trkpt lat="42.69786" lon="-1.76469">
        <ele>471.228</ele>
        <time>2013-05-06T10:08:00Z</time>
      </trkpt>
      <trkpt lat="42.698" lon="-1.76448">
        <ele>472.616</ele>
        <time>2013-05-06T10:07:56Z</time>
      </trkpt>
      <trkpt lat="42.69809" lon="-1.76432">
        <ele>473.189</ele>
        <time>2013-05-06T10:07:53Z</time>
      </trkpt>
      <trkpt lat="42.69822" lon="-1.76415">
        <ele>473.149</ele>
        <time>2013-05-06T10:07:49Z</time>
      </trkpt>
      <trkpt lat="42.69836" lon="-1.76393">
        <ele>473.602</ele>
        <time>2013-05-06T10:07:44Z</time>
      </trkpt>
      <trkpt lat="42.69845" lon="-1.7638">
        <ele>474.122</ele>
        <time>2013-05-06T10:07:41Z</time>
      </trkpt>
      <trkpt lat="42.69858" lon="-1.76365">
        <ele>474.108</ele>
        <time>2013-05-06T10:07:37Z</time>
      </trkpt>
      <trkpt lat="42.69904" lon="-1.7633">
        <ele>474.625</ele>
        <time>2013-05-06T10:07:24Z</time>
      </trkpt>
      <trkpt lat="42.69925" lon="-1.7632">
        <ele>474.616</ele>
        <time>2013-05-06T10:07:15Z</time>
      </trkpt>
      <trkpt lat="42.69936" lon="-1.76317">
        <ele>474.688</ele>
        <time>2013-05-06T10:07:09Z</time>
      </trkpt>
      <trkpt lat="42.69949" lon="-1.76311">
        <ele>475.563</ele>
        <time>2013-05-06T10:06:58Z</time>
      </trkpt>
      <trkpt lat="42.69955" lon="-1.76309">
        <ele>475.56</ele>
        <time>2013-05-06T10:06:49Z</time>
      </trkpt>
      <trkpt lat="42.69959" lon="-1.76306">
        <ele>476.577</ele>
        <time>2013-05-06T10:06:39Z</time>
      </trkpt>
      <trkpt lat="42.69964" lon="-1.76305">
        <ele>477.025</ele>
        <time>2013-05-06T10:06:31Z</time>
      </trkpt>
      <trkpt lat="42.69993" lon="-1.76295">
        <ele>477.958</ele>
        <time>2013-05-06T10:06:21Z</time>
      </trkpt>
      <trkpt lat="42.70029" lon="-1.76282">
        <ele>478.988</ele>
        <time>2013-05-06T10:06:12Z</time>
      </trkpt>
      <trkpt lat="42.70046" lon="-1.76262">
        <ele>479.424</ele>
        <time>2013-05-06T10:06:08Z</time>
      </trkpt>
      <trkpt lat="42.70059" lon="-1.76234">
        <ele>479.826</ele>
        <time>2013-05-06T10:06:04Z</time>
      </trkpt>
      <trkpt lat="42.70091" lon="-1.76173">
        <ele>481.808</ele>
        <time>2013-05-06T10:05:55Z</time>
      </trkpt>
      <trkpt lat="42.7013" lon="-1.76141">
        <ele>484.259</ele>
        <time>2013-05-06T10:05:44Z</time>
      </trkpt>
      <trkpt lat="42.70164" lon="-1.76117">
        <ele>484.27</ele>
        <time>2013-05-06T10:05:33Z</time>
      </trkpt>
      <trkpt lat="42.70206" lon="-1.76113">
        <ele>483.742</ele>
        <time>2013-05-06T10:05:21Z</time>
      </trkpt>
      <trkpt lat="42.70237" lon="-1.76109">
        <ele>483.227</ele>
        <time>2013-05-06T10:05:08Z</time>
      </trkpt>
      <trkpt lat="42.70259" lon="-1.76097">
        <ele>480.364</ele>
        <time>2013-05-06T10:04:56Z</time>
      </trkpt>
      <trkpt lat="42.70283" lon="-1.76079">
        <ele>477.911</ele>
        <time>2013-05-06T10:04:41Z</time>
      </trkpt>
      <trkpt lat="42.70305" lon="-1.7606">
        <ele>477.459</ele>
        <time>2013-05-06T10:04:28Z</time>
      </trkpt>
      <trkpt lat="42.70325" lon="-1.76046">
        <ele>474.642</ele>
        <time>2013-05-06T10:04:16Z</time>
      </trkpt>
      <trkpt lat="42.70349" lon="-1.76041">
        <ele>472.682</ele>
        <time>2013-05-06T10:04:04Z</time>
      </trkpt>
      <trkpt lat="42.70378" lon="-1.76035">
        <ele>470.743</ele>
        <time>2013-05-06T10:03:52Z</time>
      </trkpt>
      <trkpt lat="42.70415" lon="-1.76033">
        <ele>470.717</ele>
        <time>2013-05-06T10:03:40Z</time>
      </trkpt>
      <trkpt lat="42.70463" lon="-1.76023">
        <ele>470.708</ele>
        <time>2013-05-06T10:03:27Z</time>
      </trkpt>
      <trkpt lat="42.70502" lon="-1.76">
        <ele>470.749</ele>
        <time>2013-05-06T10:03:16Z</time>
      </trkpt>
      <trkpt lat="42.70514" lon="-1.75984">
        <ele>471.22</ele>
        <time>2013-05-06T10:03:12Z</time>
      </trkpt>
      <trkpt lat="42.70526" lon="-1.75966">
        <ele>471.752</ele>
        <time>2013-05-06T10:03:08Z</time>
      </trkpt>
      <trkpt lat="42.70537" lon="-1.75956">
        <ele>472.117</ele>
        <time>2013-05-06T10:03:04Z</time>
      </trkpt>
      <trkpt lat="42.70554" lon="-1.75982">
        <ele>475.034</ele>
        <time>2013-05-06T10:02:58Z</time>
      </trkpt>
      <trkpt lat="42.7057" lon="-1.76016">
        <ele>478.411</ele>
        <time>2013-05-06T10:02:53Z</time>
      </trkpt>
      <trkpt lat="42.70574" lon="-1.76023">
        <ele>478.969</ele>
        <time>2013-05-06T10:02:52Z</time>
      </trkpt>
      <trkpt lat="42.70577" lon="-1.76029">
        <ele>479.852</ele>
        <time>2013-05-06T10:02:51Z</time>
      </trkpt>
      <trkpt lat="42.7058" lon="-1.76035">
        <ele>480.814</ele>
        <time>2013-05-06T10:02:50Z</time>
      </trkpt>
      <trkpt lat="42.70582" lon="-1.76042">
        <ele>481.354</ele>
        <time>2013-05-06T10:02:49Z</time>
      </trkpt>
      <trkpt lat="42.70583" lon="-1.76049">
        <ele>482.209</ele>
        <time>2013-05-06T10:02:48Z</time>
      </trkpt>
      <trkpt lat="42.70584" lon="-1.76056">
        <ele>483.208</ele>
        <time>2013-05-06T10:02:47Z</time>
      </trkpt>
      <trkpt lat="42.70584" lon="-1.76063">
        <ele>483.212</ele>
        <time>2013-05-06T10:02:46Z</time>
      </trkpt>
      <trkpt lat="42.70583" lon="-1.7607">
        <ele>484.233</ele>
        <time>2013-05-06T10:02:45Z</time>
      </trkpt>
      <trkpt lat="42.70584" lon="-1.76076">
        <ele>484.635</ele>
        <time>2013-05-06T10:02:44Z</time>
      </trkpt>
      <trkpt lat="42.70585" lon="-1.76081">
        <ele>485.15</ele>
        <time>2013-05-06T10:02:43Z</time>
      </trkpt>
      <trkpt lat="42.70587" lon="-1.76085">
        <ele>485.667</ele>
        <time>2013-05-06T10:02:42Z</time>
      </trkpt>
      <trkpt lat="42.7059" lon="-1.76089">
        <ele>486.134</ele>
        <time>2013-05-06T10:02:41Z</time>
      </trkpt>
      <trkpt lat="42.70594" lon="-1.76091">
        <ele>487.142</ele>
        <time>2013-05-06T10:02:40Z</time>
      </trkpt>
      <trkpt lat="42.70599" lon="-1.76093">
        <ele>487.165</ele>
        <time>2013-05-06T10:02:39Z</time>
      </trkpt>
      <trkpt lat="42.70633" lon="-1.76097">
        <ele>490.936</ele>
        <time>2013-05-06T10:02:33Z</time>
      </trkpt>
      <trkpt lat="42.70643" lon="-1.76098">
        <ele>491.417</ele>
        <time>2013-05-06T10:02:31Z</time>
      </trkpt>
      <trkpt lat="42.70679" lon="-1.7609">
        <ele>492.818</ele>
        <time>2013-05-06T10:02:22Z</time>
      </trkpt>
      <trkpt lat="42.70724" lon="-1.76081">
        <ele>493.308</ele>
        <time>2013-05-06T10:02:09Z</time>
      </trkpt>
      <trkpt lat="42.70768" lon="-1.76077">
        <ele>493.394</ele>
        <time>2013-05-06T10:01:58Z</time>
      </trkpt>
      <trkpt lat="42.70771" lon="-1.76077">
        <ele>493.365</ele>
        <time>2013-05-06T10:01:57Z</time>
      </trkpt>
      <trkpt lat="42.70775" lon="-1.76076">
        <ele>493.327</ele>
        <time>2013-05-06T10:01:56Z</time>
      </trkpt>
      <trkpt lat="42.70778" lon="-1.76075">
        <ele>493.382</ele>
        <time>2013-05-06T10:01:55Z</time>
      </trkpt>
      <trkpt lat="42.70781" lon="-1.76076">
        <ele>493.369</ele>
        <time>2013-05-06T10:01:54Z</time>
      </trkpt>
      <trkpt lat="42.70786" lon="-1.7608">
        <ele>493.326</ele>
        <time>2013-05-06T10:01:52Z</time>
      </trkpt>
      <trkpt lat="42.70818" lon="-1.76122">
        <ele>493.334</ele>
        <time>2013-05-06T10:01:41Z</time>
      </trkpt>
      <trkpt lat="42.70822" lon="-1.76125">
        <ele>493.867</ele>
        <time>2013-05-06T10:01:40Z</time>
      </trkpt>
      <trkpt lat="42.70826" lon="-1.76129">
        <ele>493.841</ele>
        <time>2013-05-06T10:01:39Z</time>
      </trkpt>
      <trkpt lat="42.70851" lon="-1.76138">
        <ele>494.381</ele>
        <time>2013-05-06T10:01:34Z</time>
      </trkpt>
      <trkpt lat="42.70856" lon="-1.7614">
        <ele>494.309</ele>
        <time>2013-05-06T10:01:33Z</time>
      </trkpt>
      <trkpt lat="42.70861" lon="-1.76141">
        <ele>494.308</ele>
        <time>2013-05-06T10:01:32Z</time>
      </trkpt>
      <trkpt lat="42.70866" lon="-1.76141">
        <ele>494.385</ele>
        <time>2013-05-06T10:01:31Z</time>
      </trkpt>
      <trkpt lat="42.70871" lon="-1.76139">
        <ele>494.346</ele>
        <time>2013-05-06T10:01:30Z</time>
      </trkpt>
      <trkpt lat="42.70876" lon="-1.76136">
        <ele>494.338</ele>
        <time>2013-05-06T10:01:29Z</time>
      </trkpt>
      <trkpt lat="42.70881" lon="-1.76133">
        <ele>494.343</ele>
        <time>2013-05-06T10:01:28Z</time>
      </trkpt>
      <trkpt lat="42.70913" lon="-1.7609">
        <ele>495.71</ele>
        <time>2013-05-06T10:01:19Z</time>
      </trkpt>
      <trkpt lat="42.70919" lon="-1.76082">
        <ele>495.737</ele>
        <time>2013-05-06T10:01:17Z</time>
      </trkpt>
      <trkpt lat="42.7093" lon="-1.76065">
        <ele>496.265</ele>
        <time>2013-05-06T10:01:13Z</time>
      </trkpt>
      <trkpt lat="42.70949" lon="-1.76031">
        <ele>496.728</ele>
        <time>2013-05-06T10:01:05Z</time>
      </trkpt>
      <trkpt lat="42.70953" lon="-1.76026">
        <ele>496.785</ele>
        <time>2013-05-06T10:01:04Z</time>
      </trkpt>
      <trkpt lat="42.7096" lon="-1.76017">
        <ele>497.689</ele>
        <time>2013-05-06T10:01:02Z</time>
      </trkpt>
      <trkpt lat="42.7099" lon="-1.75975">
        <ele>499.117</ele>
        <time>2013-05-06T10:00:51Z</time>
      </trkpt>
      <trkpt lat="42.71006" lon="-1.75945">
        <ele>500.508</ele>
        <time>2013-05-06T10:00:43Z</time>
      </trkpt>
      <trkpt lat="42.71021" lon="-1.7592">
        <ele>501.069</ele>
        <time>2013-05-06T10:00:38Z</time>
      </trkpt>
      <trkpt lat="42.71041" lon="-1.75887">
        <ele>502.04</ele>
        <time>2013-05-06T10:00:30Z</time>
      </trkpt>
      <trkpt lat="42.71064" lon="-1.75848">
        <ele>502.482</ele>
        <time>2013-05-06T10:00:18Z</time>
      </trkpt>
      <trkpt lat="42.71078" lon="-1.7582">
        <ele>502.997</ele>
        <time>2013-05-06T10:00:09Z</time>
      </trkpt>
      <trkpt lat="42.71081" lon="-1.75816">
        <ele>502.974</ele>
        <time>2013-05-06T10:00:07Z</time>
      </trkpt>
      <trkpt lat="42.71083" lon="-1.75815">
        <ele>502.941</ele>
        <time>2013-05-06T10:00:05Z</time>
      </trkpt>
      <trkpt lat="42.71086" lon="-1.75813">
        <ele>502.939</ele>
        <time>2013-05-06T09:59:57Z</time>
      </trkpt>
      <trkpt lat="42.71104" lon="-1.75801">
        <ele>503.962</ele>
        <time>2013-05-06T09:59:49Z</time>
      </trkpt>
      <trkpt lat="42.71142" lon="-1.75779">
        <ele>505.393</ele>
        <time>2013-05-06T09:59:39Z</time>
      </trkpt>
      <trkpt lat="42.71179" lon="-1.75762">
        <ele>506.365</ele>
        <time>2013-05-06T09:59:30Z</time>
      </trkpt>
      <trkpt lat="42.7119" lon="-1.75759">
        <ele>506.321</ele>
        <time>2013-05-06T09:59:28Z</time>
      </trkpt>
      <trkpt lat="42.71195" lon="-1.75757">
        <ele>506.308</ele>
        <time>2013-05-06T09:59:27Z</time>
      </trkpt>
      <trkpt lat="42.71216" lon="-1.75749">
        <ele>507.78</ele>
        <time>2013-05-06T09:59:23Z</time>
      </trkpt>
      <trkpt lat="42.71262" lon="-1.75735">
        <ele>509.291</ele>
        <time>2013-05-06T09:59:12Z</time>
      </trkpt>
      <trkpt lat="42.7129" lon="-1.75725">
        <ele>510.123</ele>
        <time>2013-05-06T09:59:02Z</time>
      </trkpt>
      <trkpt lat="42.71317" lon="-1.75715">
        <ele>511.128</ele>
        <time>2013-05-06T09:58:51Z</time>
      </trkpt>
      <trkpt lat="42.71343" lon="-1.75706">
        <ele>512.075</ele>
        <time>2013-05-06T09:58:39Z</time>
      </trkpt>
      <trkpt lat="42.71367" lon="-1.75691">
        <ele>512.092</ele>
        <time>2013-05-06T09:58:29Z</time>
      </trkpt>
      <trkpt lat="42.71396" lon="-1.75675">
        <ele>511.62</ele>
        <time>2013-05-06T09:58:16Z</time>
      </trkpt>
      <trkpt lat="42.71426" lon="-1.7565">
        <ele>511.163</ele>
        <time>2013-05-06T09:58:01Z</time>
      </trkpt>
      <trkpt lat="42.71436" lon="-1.75643">
        <ele>511.149</ele>
        <time>2013-05-06T09:57:56Z</time>
      </trkpt>
      <trkpt lat="42.71457" lon="-1.75623">
        <ele>511.102</ele>
        <time>2013-05-06T09:57:47Z</time>
      </trkpt>
      <trkpt lat="42.7148" lon="-1.75606">
        <ele>511.122</ele>
        <time>2013-05-06T09:57:38Z</time>
      </trkpt>
      <trkpt lat="42.71507" lon="-1.75584">
        <ele>510.608</ele>
        <time>2013-05-06T09:57:26Z</time>
      </trkpt>
      <trkpt lat="42.71525" lon="-1.75565">
        <ele>509.625</ele>
        <time>2013-05-06T09:57:15Z</time>
      </trkpt>
      <trkpt lat="42.7154" lon="-1.75539">
        <ele>507.726</ele>
        <time>2013-05-06T09:57:03Z</time>
      </trkpt>
      <trkpt lat="42.71552" lon="-1.75507">
        <ele>506.338</ele>
        <time>2013-05-06T09:56:49Z</time>
      </trkpt>
      <trkpt lat="42.71566" lon="-1.75471">
        <ele>504.493</ele>
        <time>2013-05-06T09:56:35Z</time>
      </trkpt>
      <trkpt lat="42.71589" lon="-1.75447">
        <ele>503.44</ele>
        <time>2013-05-06T09:56:22Z</time>
      </trkpt>
      <trkpt lat="42.71613" lon="-1.75428">
        <ele>502.017</ele>
        <time>2013-05-06T09:56:09Z</time>
      </trkpt>
      <trkpt lat="42.71636" lon="-1.75407">
        <ele>501.035</ele>
        <time>2013-05-06T09:55:56Z</time>
      </trkpt>
      <trkpt lat="42.71662" lon="-1.7539">
        <ele>500.028</ele>
        <time>2013-05-06T09:55:43Z</time>
      </trkpt>
      <trkpt lat="42.71666" lon="-1.75387">
        <ele>498.621</ele>
        <time>2013-05-06T09:55:41Z</time>
      </trkpt>
      <trkpt lat="42.7169" lon="-1.75373">
        <ele>498.641</ele>
        <time>2013-05-06T09:55:28Z</time>
      </trkpt>
      <trkpt lat="42.71705" lon="-1.75363">
        <ele>499.105</ele>
        <time>2013-05-06T09:55:20Z</time>
      </trkpt>
      <trkpt lat="42.71713" lon="-1.75358">
        <ele>500.008</ele>
        <time>2013-05-06T09:55:18Z</time>
      </trkpt>
      <trkpt lat="42.71731" lon="-1.75371">
        <ele>501.043</ele>
        <time>2013-05-06T09:55:12Z</time>
      </trkpt>
      <trkpt lat="42.71761" lon="-1.75367">
        <ele>502.084</ele>
        <time>2013-05-06T09:55:05Z</time>
      </trkpt>
      <trkpt lat="42.71794" lon="-1.75361">
        <ele>503.466</ele>
        <time>2013-05-06T09:55:00Z</time>
      </trkpt>
      <trkpt lat="42.71813" lon="-1.75362">
        <ele>503.481</ele>
        <time>2013-05-06T09:54:57Z</time>
      </trkpt>
      <trkpt lat="42.71847" lon="-1.75364">
        <ele>505.398</ele>
        <time>2013-05-06T09:54:52Z</time>
      </trkpt>
      <trkpt lat="42.71858" lon="-1.75362">
        <ele>506.335</ele>
        <time>2013-05-06T09:54:50Z</time>
      </trkpt>
      <trkpt lat="42.71888" lon="-1.75363">
        <ele>507.743</ele>
        <time>2013-05-06T09:54:45Z</time>
      </trkpt>
      <trkpt lat="42.71911" lon="-1.7536">
        <ele>508.256</ele>
        <time>2013-05-06T09:54:41Z</time>
      </trkpt>
      <trkpt lat="42.71965" lon="-1.75342">
        <ele>509.631</ele>
        <time>2013-05-06T09:54:32Z</time>
      </trkpt>
      <trkpt lat="42.71987" lon="-1.75327">
        <ele>510.661</ele>
        <time>2013-05-06T09:54:28Z</time>
      </trkpt>
      <trkpt lat="42.71993" lon="-1.75322">
        <ele>511.607</ele>
        <time>2013-05-06T09:54:27Z</time>
      </trkpt>
      <trkpt lat="42.72034" lon="-1.7529">
        <ele>514.908</ele>
        <time>2013-05-06T09:54:22Z</time>
      </trkpt>
      <trkpt lat="42.72043" lon="-1.75283">
        <ele>514.964</ele>
        <time>2013-05-06T09:54:21Z</time>
      </trkpt>
      <trkpt lat="42.72088" lon="-1.75232">
        <ele>518.335</ele>
        <time>2013-05-06T09:54:15Z</time>
      </trkpt>
      <trkpt lat="42.72116" lon="-1.75199">
        <ele>522.167</ele>
        <time>2013-05-06T09:54:11Z</time>
      </trkpt>
      <trkpt lat="42.72138" lon="-1.75168">
        <ele>526.022</ele>
        <time>2013-05-06T09:54:07Z</time>
      </trkpt>
      <trkpt lat="42.72154" lon="-1.75145">
        <ele>529.849</ele>
        <time>2013-05-06T09:54:03Z</time>
      </trkpt>
      <trkpt lat="42.72157" lon="-1.7514">
        <ele>531.316</ele>
        <time>2013-05-06T09:54:02Z</time>
      </trkpt>
      <trkpt lat="42.72171" lon="-1.75117">
        <ele>534.254</ele>
        <time>2013-05-06T09:53:57Z</time>
      </trkpt>
      <trkpt lat="42.72191" lon="-1.75087">
        <ele>537.517</ele>
        <time>2013-05-06T09:53:50Z</time>
      </trkpt>
      <trkpt lat="42.72215" lon="-1.7506">
        <ele>539.922</ele>
        <time>2013-05-06T09:53:45Z</time>
      </trkpt>
      <trkpt lat="42.7226" lon="-1.75018">
        <ele>541.862</ele>
        <time>2013-05-06T09:53:37Z</time>
      </trkpt>
      <trkpt lat="42.72316" lon="-1.74971">
        <ele>545.208</ele>
        <time>2013-05-06T09:53:28Z</time>
      </trkpt>
      <trkpt lat="42.72349" lon="-1.74956">
        <ele>548.108</ele>
        <time>2013-05-06T09:53:22Z</time>
      </trkpt>
      <trkpt lat="42.72359" lon="-1.74956">
        <ele>549.143</ele>
        <time>2013-05-06T09:53:20Z</time>
      </trkpt>
      <trkpt lat="42.72364" lon="-1.74955">
        <ele>549.594</ele>
        <time>2013-05-06T09:53:19Z</time>
      </trkpt>
      <trkpt lat="42.724" lon="-1.74948">
        <ele>552.466</ele>
        <time>2013-05-06T09:53:12Z</time>
      </trkpt>
      <trkpt lat="42.72406" lon="-1.74948">
        <ele>552.911</ele>
        <time>2013-05-06T09:53:11Z</time>
      </trkpt>
      <trkpt lat="42.72412" lon="-1.74948">
        <ele>552.938</ele>
        <time>2013-05-06T09:53:10Z</time>
      </trkpt>
      <trkpt lat="42.72445" lon="-1.74949">
        <ele>556.775</ele>
        <time>2013-05-06T09:53:05Z</time>
      </trkpt>
      <trkpt lat="42.72468" lon="-1.7495">
        <ele>558.773</ele>
        <time>2013-05-06T09:53:01Z</time>
      </trkpt>
      <trkpt lat="42.72474" lon="-1.7495">
        <ele>559.666</ele>
        <time>2013-05-06T09:53:00Z</time>
      </trkpt>
      <trkpt lat="42.72489" lon="-1.74954">
        <ele>561.111</ele>
        <time>2013-05-06T09:52:57Z</time>
      </trkpt>
      <trkpt lat="42.72513" lon="-1.74958">
        <ele>564.421</ele>
        <time>2013-05-06T09:52:53Z</time>
      </trkpt>
      <trkpt lat="42.72526" lon="-1.7496">
        <ele>564.903</ele>
        <time>2013-05-06T09:52:51Z</time>
      </trkpt>
      <trkpt lat="42.72558" lon="-1.74963">
        <ele>567.808</ele>
        <time>2013-05-06T09:52:46Z</time>
      </trkpt>
      <trkpt lat="42.72571" lon="-1.74965">
        <ele>568.882</ele>
        <time>2013-05-06T09:52:44Z</time>
      </trkpt>
      <trkpt lat="42.72604" lon="-1.7497">
        <ele>570.723</ele>
        <time>2013-05-06T09:52:38Z</time>
      </trkpt>
      <trkpt lat="42.7265" lon="-1.74962">
        <ele>572.185</ele>
        <time>2013-05-06T09:52:26Z</time>
      </trkpt>
      <trkpt lat="42.72681" lon="-1.74948">
        <ele>573.69</ele>
        <time>2013-05-06T09:52:17Z</time>
      </trkpt>
      <trkpt lat="42.72719" lon="-1.74935">
        <ele>576.587</ele>
        <time>2013-05-06T09:52:07Z</time>
      </trkpt>
      <trkpt lat="42.72753" lon="-1.74922">
        <ele>579.814</ele>
        <time>2013-05-06T09:51:54Z</time>
      </trkpt>
      <trkpt lat="42.72767" lon="-1.74919">
        <ele>581.372</ele>
        <time>2013-05-06T09:51:34Z</time>
      </trkpt>
      <trkpt lat="42.72788" lon="-1.74915">
        <ele>583.295</ele>
        <time>2013-05-06T09:51:21Z</time>
      </trkpt>
      <trkpt lat="42.72791" lon="-1.74914">
        <ele>584.183</ele>
        <time>2013-05-06T09:51:19Z</time>
      </trkpt>
      <trkpt lat="42.72794" lon="-1.74913">
        <ele>584.125</ele>
        <time>2013-05-06T09:51:16Z</time>
      </trkpt>
      <trkpt lat="42.72801" lon="-1.74915">
        <ele>584.117</ele>
        <time>2013-05-06T09:50:34Z</time>
      </trkpt>
      <trkpt lat="42.72838" lon="-1.74904">
        <ele>584.608</ele>
        <time>2013-05-06T09:50:22Z</time>
      </trkpt>
      <trkpt lat="42.72859" lon="-1.74897">
        <ele>584.669</ele>
        <time>2013-05-06T09:50:17Z</time>
      </trkpt>
      <trkpt lat="42.72869" lon="-1.74897">
        <ele>585.17</ele>
        <time>2013-05-06T09:50:15Z</time>
      </trkpt>
      <trkpt lat="42.72879" lon="-1.74896">
        <ele>585.132</ele>
        <time>2013-05-06T09:50:13Z</time>
      </trkpt>
      <trkpt lat="42.72896" lon="-1.74888">
        <ele>586.567</ele>
        <time>2013-05-06T09:50:09Z</time>
      </trkpt>
      <trkpt lat="42.7291" lon="-1.7488">
        <ele>589.014</ele>
        <time>2013-05-06T09:50:04Z</time>
      </trkpt>
      <trkpt lat="42.72928" lon="-1.74879">
        <ele>592.351</ele>
        <time>2013-05-06T09:49:56Z</time>
      </trkpt>
      <trkpt lat="42.72934" lon="-1.74879">
        <ele>593.369</ele>
        <time>2013-05-06T09:49:54Z</time>
      </trkpt>
      <trkpt lat="42.7295" lon="-1.74884">
        <ele>596.662</ele>
        <time>2013-05-06T09:49:46Z</time>
      </trkpt>
      <trkpt lat="42.72955" lon="-1.74881">
        <ele>597.187</ele>
        <time>2013-05-06T09:49:43Z</time>
      </trkpt>
      <trkpt lat="42.72963" lon="-1.74887">
        <ele>599.042</ele>
        <time>2013-05-06T09:49:39Z</time>
      </trkpt>
      <trkpt lat="42.72965" lon="-1.74888">
        <ele>599.526</ele>
        <time>2013-05-06T09:49:38Z</time>
      </trkpt>
      <trkpt lat="42.72981" lon="-1.74882">
        <ele>602.908</ele>
        <time>2013-05-06T09:49:29Z</time>
      </trkpt>
      <trkpt lat="42.72987" lon="-1.74881">
        <ele>603.979</ele>
        <time>2013-05-06T09:49:26Z</time>
      </trkpt>
      <trkpt lat="42.72992" lon="-1.74882">
        <ele>604.83</ele>
        <time>2013-05-06T09:49:24Z</time>
      </trkpt>
      <trkpt lat="42.73008" lon="-1.74889">
        <ele>607.722</ele>
        <time>2013-05-06T09:49:17Z</time>
      </trkpt>
      <trkpt lat="42.73026" lon="-1.74903">
        <ele>610.147</ele>
        <time>2013-05-06T09:49:09Z</time>
      </trkpt>
      <trkpt lat="42.73037" lon="-1.74907">
        <ele>611.574</ele>
        <time>2013-05-06T09:49:04Z</time>
      </trkpt>
      <trkpt lat="42.73056" lon="-1.74905">
        <ele>614.931</ele>
        <time>2013-05-06T09:48:56Z</time>
      </trkpt>
      <trkpt lat="42.73067" lon="-1.74913">
        <ele>617.369</ele>
        <time>2013-05-06T09:48:46Z</time>
      </trkpt>
      <trkpt lat="42.73083" lon="-1.74913">
        <ele>620.252</ele>
        <time>2013-05-06T09:48:38Z</time>
      </trkpt>
      <trkpt lat="42.73104" lon="-1.74913">
        <ele>623.639</ele>
        <time>2013-05-06T09:48:29Z</time>
      </trkpt>
      <trkpt lat="42.73106" lon="-1.74913">
        <ele>623.601</ele>
        <time>2013-05-06T09:48:28Z</time>
      </trkpt>
      <trkpt lat="42.73122" lon="-1.74915">
        <ele>626.921</ele>
        <time>2013-05-06T09:48:21Z</time>
      </trkpt>
      <trkpt lat="42.73139" lon="-1.7491">
        <ele>630.308</ele>
        <time>2013-05-06T09:48:13Z</time>
      </trkpt>
      <trkpt lat="42.73163" lon="-1.74899">
        <ele>633.764</ele>
        <time>2013-05-06T09:48:05Z</time>
      </trkpt>
      <trkpt lat="42.73182" lon="-1.74898">
        <ele>637.025</ele>
        <time>2013-05-06T09:47:57Z</time>
      </trkpt>
      <trkpt lat="42.73201" lon="-1.749">
        <ele>639.927</ele>
        <time>2013-05-06T09:47:48Z</time>
      </trkpt>
      <trkpt lat="42.7322" lon="-1.74899">
        <ele>643.732</ele>
        <time>2013-05-06T09:47:40Z</time>
      </trkpt>
      <trkpt lat="42.73231" lon="-1.74897">
        <ele>645.719</ele>
        <time>2013-05-06T09:47:34Z</time>
      </trkpt>
      <trkpt lat="42.73235" lon="-1.74899">
        <ele>646.696</ele>
        <time>2013-05-06T09:47:31Z</time>
      </trkpt>
      <trkpt lat="42.73241" lon="-1.74897">
        <ele>649.064</ele>
        <time>2013-05-06T09:47:26Z</time>
      </trkpt>
      <trkpt lat="42.73248" lon="-1.74894">
        <ele>651.477</ele>
        <time>2013-05-06T09:47:22Z</time>
      </trkpt>
      <trkpt lat="42.73254" lon="-1.74892">
        <ele>653.486</ele>
        <time>2013-05-06T09:47:15Z</time>
      </trkpt>
      <trkpt lat="42.73258" lon="-1.74888">
        <ele>654.86</ele>
        <time>2013-05-06T09:47:06Z</time>
      </trkpt>
      <trkpt lat="42.7326" lon="-1.74886">
        <ele>655.326</ele>
        <time>2013-05-06T09:47:00Z</time>
      </trkpt>
      <trkpt lat="42.73274" lon="-1.7488">
        <ele>659.108</ele>
        <time>2013-05-06T09:46:49Z</time>
      </trkpt>
      <trkpt lat="42.73277" lon="-1.74878">
        <ele>659.629</ele>
        <time>2013-05-06T09:46:46Z</time>
      </trkpt>
      <trkpt lat="42.7328" lon="-1.74876">
        <ele>660.18</ele>
        <time>2013-05-06T09:46:44Z</time>
      </trkpt>
      <trkpt lat="42.73291" lon="-1.74863">
        <ele>663.582</ele>
        <time>2013-05-06T09:46:37Z</time>
      </trkpt>
      <trkpt lat="42.73302" lon="-1.74849">
        <ele>666.327</ele>
        <time>2013-05-06T09:46:31Z</time>
      </trkpt>
      <trkpt lat="42.73312" lon="-1.74834">
        <ele>669.244</ele>
        <time>2013-05-06T09:46:25Z</time>
      </trkpt>
      <trkpt lat="42.7332" lon="-1.74832">
        <ele>670.291</ele>
        <time>2013-05-06T09:46:22Z</time>
      </trkpt>
      <trkpt lat="42.73324" lon="-1.74829">
        <ele>670.749</ele>
        <time>2013-05-06T09:46:20Z</time>
      </trkpt>
      <trkpt lat="42.73339" lon="-1.74814">
        <ele>674.062</ele>
        <time>2013-05-06T09:46:13Z</time>
      </trkpt>
      <trkpt lat="42.73349" lon="-1.74796">
        <ele>677.493</ele>
        <time>2013-05-06T09:46:06Z</time>
      </trkpt>
      <trkpt lat="42.73368" lon="-1.74778">
        <ele>680.865</ele>
        <time>2013-05-06T09:45:59Z</time>
      </trkpt>
      <trkpt lat="42.73387" lon="-1.74764">
        <ele>684.621</ele>
        <time>2013-05-06T09:45:51Z</time>
      </trkpt>
      <trkpt lat="42.73406" lon="-1.74749">
        <ele>688.008</ele>
        <time>2013-05-06T09:45:43Z</time>
      </trkpt>
      <trkpt lat="42.73418" lon="-1.74733">
        <ele>691.37</ele>
        <time>2013-05-06T09:45:36Z</time>
      </trkpt>
      <trkpt lat="42.73431" lon="-1.74718">
        <ele>694.281</ele>
        <time>2013-05-06T09:45:28Z</time>
      </trkpt>
      <trkpt lat="42.73439" lon="-1.74705">
        <ele>697.153</ele>
        <time>2013-05-06T09:45:22Z</time>
      </trkpt>
      <trkpt lat="42.73444" lon="-1.74699">
        <ele>698.148</ele>
        <time>2013-05-06T09:45:19Z</time>
      </trkpt>
      <trkpt lat="42.73452" lon="-1.74692">
        <ele>700.065</ele>
        <time>2013-05-06T09:45:13Z</time>
      </trkpt>
      <trkpt lat="42.73457" lon="-1.74682">
        <ele>701.962</ele>
        <time>2013-05-06T09:45:06Z</time>
      </trkpt>
      <trkpt lat="42.73462" lon="-1.74669">
        <ele>703.89</ele>
        <time>2013-05-06T09:44:58Z</time>
      </trkpt>
      <trkpt lat="42.73466" lon="-1.74653">
        <ele>706.243</ele>
        <time>2013-05-06T09:44:48Z</time>
      </trkpt>
      <trkpt lat="42.73474" lon="-1.74636">
        <ele>709.649</ele>
        <time>2013-05-06T09:44:38Z</time>
      </trkpt>
      <trkpt lat="42.73478" lon="-1.74625">
        <ele>711.502</ele>
        <time>2013-05-06T09:44:32Z</time>
      </trkpt>
      <trkpt lat="42.73484" lon="-1.74604">
        <ele>714.922</ele>
        <time>2013-05-06T09:44:21Z</time>
      </trkpt>
      <trkpt lat="42.7349" lon="-1.74583">
        <ele>718.708</ele>
        <time>2013-05-06T09:44:14Z</time>
      </trkpt>
      <trkpt lat="42.73497" lon="-1.74558">
        <ele>721.625</ele>
        <time>2013-05-06T09:44:04Z</time>
      </trkpt>
      <trkpt lat="42.73497" lon="-1.74552">
        <ele>721.646</ele>
        <time>2013-05-06T09:44:02Z</time>
      </trkpt>
      <trkpt lat="42.73503" lon="-1.74521">
        <ele>723.178</ele>
        <time>2013-05-06T09:43:53Z</time>
      </trkpt>
      <trkpt lat="42.73506" lon="-1.74504">
        <ele>725.073</ele>
        <time>2013-05-06T09:43:46Z</time>
      </trkpt>
      <trkpt lat="42.73508" lon="-1.7448">
        <ele>728.37</ele>
        <time>2013-05-06T09:43:37Z</time>
      </trkpt>
      <trkpt lat="42.73505" lon="-1.74452">
        <ele>731.777</ele>
        <time>2013-05-06T09:43:29Z</time>
      </trkpt>
      <trkpt lat="42.73507" lon="-1.74431">
        <ele>735.135</ele>
        <time>2013-05-06T09:43:21Z</time>
      </trkpt>
      <trkpt lat="42.73508" lon="-1.74406">
        <ele>738.478</ele>
        <time>2013-05-06T09:43:13Z</time>
      </trkpt>
      <trkpt lat="42.73511" lon="-1.74387">
        <ele>740.859</ele>
        <time>2013-05-06T09:43:05Z</time>
      </trkpt>
      <trkpt lat="42.73517" lon="-1.74365">
        <ele>743.703</ele>
        <time>2013-05-06T09:42:57Z</time>
      </trkpt>
      <trkpt lat="42.7352" lon="-1.74342">
        <ele>747.123</ele>
        <time>2013-05-06T09:42:49Z</time>
      </trkpt>
      <trkpt lat="42.73527" lon="-1.7432">
        <ele>750.908</ele>
        <time>2013-05-06T09:42:40Z</time>
      </trkpt>
      <trkpt lat="42.73534" lon="-1.74303">
        <ele>754.356</ele>
        <time>2013-05-06T09:42:32Z</time>
      </trkpt>
      <trkpt lat="42.73543" lon="-1.74286">
        <ele>757.767</ele>
        <time>2013-05-06T09:42:23Z</time>
      </trkpt>
      <trkpt lat="42.73556" lon="-1.74284">
        <ele>761.089</ele>
        <time>2013-05-06T09:42:16Z</time>
      </trkpt>
      <trkpt lat="42.73562" lon="-1.74284">
        <ele>762.564</ele>
        <time>2013-05-06T09:42:13Z</time>
      </trkpt>
      <trkpt lat="42.73573" lon="-1.74282">
        <ele>765.491</ele>
        <time>2013-05-06T09:42:05Z</time>
      </trkpt>
      <trkpt lat="42.73575" lon="-1.74279">
        <ele>765.448</ele>
        <time>2013-05-06T09:42:02Z</time>
      </trkpt>
      <trkpt lat="42.73574" lon="-1.74275">
        <ele>765.456</ele>
        <time>2013-05-06T09:42:00Z</time>
      </trkpt>
      <trkpt lat="42.73571" lon="-1.74263">
        <ele>766.349</ele>
        <time>2013-05-06T09:41:52Z</time>
      </trkpt>
      <trkpt lat="42.73573" lon="-1.74262">
        <ele>766.349</ele>
        <time>2013-05-06T09:41:49Z</time>
      </trkpt>
      <trkpt lat="42.73581" lon="-1.74259">
        <ele>766.302</ele>
        <time>2013-05-06T09:41:41Z</time>
      </trkpt>
      <trkpt lat="42.73585" lon="-1.74259">
        <ele>766.322</ele>
        <time>2013-05-06T09:41:37Z</time>
      </trkpt>
      <trkpt lat="42.73587" lon="-1.74258">
        <ele>766.308</ele>
        <time>2013-05-06T09:41:34Z</time>
      </trkpt>
      <trkpt lat="42.73589" lon="-1.74257">
        <ele>766.395</ele>
        <time>2013-05-06T09:40:53Z</time>
      </trkpt>
      <trkpt lat="42.73576" lon="-1.74254">
        <ele>766.386</ele>
        <time>2013-05-06T09:40:41Z</time>
      </trkpt>
      <trkpt lat="42.73573" lon="-1.74255">
        <ele>765.838</ele>
        <time>2013-05-06T09:34:37Z</time>
      </trkpt>
      <trkpt lat="42.73573" lon="-1.74252">
        <ele>765.823</ele>
        <time>2013-05-06T09:30:25Z</time>
      </trkpt>
      <trkpt lat="42.73575" lon="-1.74254">
        <ele>765.89</ele>
        <time>2013-05-06T09:27:56Z</time>
      </trkpt>
      <trkpt lat="42.73582" lon="-1.74249">
        <ele>765.457</ele>
        <time>2013-05-06T09:27:44Z</time>
      </trkpt>
      <trkpt lat="42.73585" lon="-1.74248">
        <ele>765.455</ele>
        <time>2013-05-06T09:27:41Z</time>
      </trkpt>
      <trkpt lat="42.73589" lon="-1.74243">
        <ele>765.448</ele>
        <time>2013-05-06T09:27:37Z</time>
      </trkpt>
      <trkpt lat="42.7359" lon="-1.74237">
        <ele>765.464</ele>
        <time>2013-05-06T09:27:33Z</time>
      </trkpt>
      <trkpt lat="42.73591" lon="-1.74206">
        <ele>763.406</ele>
        <time>2013-05-06T09:27:17Z</time>
      </trkpt>
      <trkpt lat="42.73593" lon="-1.74185">
        <ele>761.516</ele>
        <time>2013-05-06T09:27:04Z</time>
      </trkpt>
      <trkpt lat="42.73598" lon="-1.74154">
        <ele>759.108</ele>
        <time>2013-05-06T09:26:46Z</time>
      </trkpt>
      <trkpt lat="42.73603" lon="-1.74131">
        <ele>756.777</ele>
        <time>2013-05-06T09:26:32Z</time>
      </trkpt>
      <trkpt lat="42.73609" lon="-1.74105">
        <ele>753.368</ele>
        <time>2013-05-06T09:26:15Z</time>
      </trkpt>
      <trkpt lat="42.73614" lon="-1.74088">
        <ele>751.42</ele>
        <time>2013-05-06T09:26:03Z</time>
      </trkpt>
      <trkpt lat="42.7362" lon="-1.74068">
        <ele>749.515</ele>
        <time>2013-05-06T09:25:51Z</time>
      </trkpt>
      <trkpt lat="42.73627" lon="-1.74044">
        <ele>746.652</ele>
        <time>2013-05-06T09:25:37Z</time>
      </trkpt>
      <trkpt lat="42.73635" lon="-1.74018">
        <ele>744.729</ele>
        <time>2013-05-06T09:25:23Z</time>
      </trkpt>
      <trkpt lat="42.73643" lon="-1.73997">
        <ele>743.237</ele>
        <time>2013-05-06T09:25:12Z</time>
      </trkpt>
      <trkpt lat="42.73654" lon="-1.73974">
        <ele>742.33</ele>
        <time>2013-05-06T09:25:00Z</time>
      </trkpt>
      <trkpt lat="42.7367" lon="-1.73956">
        <ele>739.483</ele>
        <time>2013-05-06T09:24:45Z</time>
      </trkpt>
      <trkpt lat="42.73674" lon="-1.73951">
        <ele>738.925</ele>
        <time>2013-05-06T09:24:41Z</time>
      </trkpt>
      <trkpt lat="42.73687" lon="-1.7394">
        <ele>737.517</ele>
        <time>2013-05-06T09:24:30Z</time>
      </trkpt>
      <trkpt lat="42.73698" lon="-1.73929">
        <ele>736.008</ele>
        <time>2013-05-06T09:24:21Z</time>
      </trkpt>
      <trkpt lat="42.73712" lon="-1.73909">
        <ele>733.189</ele>
        <time>2013-05-06T09:24:08Z</time>
      </trkpt>
      <trkpt lat="42.73714" lon="-1.73882">
        <ele>732.72</ele>
        <time>2013-05-06T09:23:57Z</time>
      </trkpt>
      <trkpt lat="42.73719" lon="-1.73862">
        <ele>732.292</ele>
        <time>2013-05-06T09:23:49Z</time>
      </trkpt>
      <trkpt lat="42.73732" lon="-1.73843">
        <ele>731.277</ele>
        <time>2013-05-06T09:23:41Z</time>
      </trkpt>
      <trkpt lat="42.73746" lon="-1.73802">
        <ele>729.844</ele>
        <time>2013-05-06T09:23:28Z</time>
      </trkpt>
      <trkpt lat="42.73754" lon="-1.73765">
        <ele>728.871</ele>
        <time>2013-05-06T09:23:16Z</time>
      </trkpt>
      <trkpt lat="42.73764" lon="-1.7374">
        <ele>726.999</ele>
        <time>2013-05-06T09:23:05Z</time>
      </trkpt>
      <trkpt lat="42.73771" lon="-1.7371">
        <ele>725.072</ele>
        <time>2013-05-06T09:22:51Z</time>
      </trkpt>
      <trkpt lat="42.73775" lon="-1.73698">
        <ele>723.562</ele>
        <time>2013-05-06T09:22:45Z</time>
      </trkpt>
      <trkpt lat="42.73783" lon="-1.7367">
        <ele>721.683</ele>
        <time>2013-05-06T09:22:32Z</time>
      </trkpt>
      <trkpt lat="42.73787" lon="-1.73646">
        <ele>720.211</ele>
        <time>2013-05-06T09:22:21Z</time>
      </trkpt>
      <trkpt lat="42.73794" lon="-1.73626">
        <ele>717.808</ele>
        <time>2013-05-06T09:22:11Z</time>
      </trkpt>
      <trkpt lat="42.73803" lon="-1.736">
        <ele>717.847</ele>
        <time>2013-05-06T09:22:01Z</time>
      </trkpt>
      <trkpt lat="42.73806" lon="-1.73569">
        <ele>715.418</ele>
        <time>2013-05-06T09:21:52Z</time>
      </trkpt>
      <trkpt lat="42.73823" lon="-1.73529">
        <ele>715.43</ele>
        <time>2013-05-06T09:21:40Z</time>
      </trkpt>
      <trkpt lat="42.73836" lon="-1.73499">
        <ele>714.495</ele>
        <time>2013-05-06T09:21:30Z</time>
      </trkpt>
      <trkpt lat="42.73848" lon="-1.73459">
        <ele>713.022</ele>
        <time>2013-05-06T09:21:17Z</time>
      </trkpt>
      <trkpt lat="42.73864" lon="-1.73427">
        <ele>712.029</ele>
        <time>2013-05-06T09:21:05Z</time>
      </trkpt>
      <trkpt lat="42.73876" lon="-1.73401">
        <ele>711.057</ele>
        <time>2013-05-06T09:20:54Z</time>
      </trkpt>
      <trkpt lat="42.73889" lon="-1.73371">
        <ele>710.66</ele>
        <time>2013-05-06T09:20:42Z</time>
      </trkpt>
      <trkpt lat="42.73912" lon="-1.73344">
        <ele>709.614</ele>
        <time>2013-05-06T09:20:29Z</time>
      </trkpt>
      <trkpt lat="42.73926" lon="-1.7332">
        <ele>707.754</ele>
        <time>2013-05-06T09:20:19Z</time>
      </trkpt>
      <trkpt lat="42.73937" lon="-1.73298">
        <ele>705.809</ele>
        <time>2013-05-06T09:20:07Z</time>
      </trkpt>
      <trkpt lat="42.73945" lon="-1.73277">
        <ele>703.808</ele>
        <time>2013-05-06T09:19:56Z</time>
      </trkpt>
      <trkpt lat="42.73954" lon="-1.73253">
        <ele>702.492</ele>
        <time>2013-05-06T09:19:44Z</time>
      </trkpt>
      <trkpt lat="42.73961" lon="-1.73227">
        <ele>700.543</ele>
        <time>2013-05-06T09:19:33Z</time>
      </trkpt>
      <trkpt lat="42.73969" lon="-1.73203">
        <ele>698.525</ele>
        <time>2013-05-06T09:19:22Z</time>
      </trkpt>
      <trkpt lat="42.73981" lon="-1.73189">
        <ele>697.66</ele>
        <time>2013-05-06T09:19:10Z</time>
      </trkpt>
      <trkpt lat="42.73991" lon="-1.73182">
        <ele>696.147</ele>
        <time>2013-05-06T09:19:02Z</time>
      </trkpt>
      <trkpt lat="42.74002" lon="-1.73166">
        <ele>696.694</ele>
        <time>2013-05-06T09:18:53Z</time>
      </trkpt>
      <trkpt lat="42.74018" lon="-1.73139">
        <ele>697.172</ele>
        <time>2013-05-06T09:18:39Z</time>
      </trkpt>
      <trkpt lat="42.74028" lon="-1.73123">
        <ele>695.785</ele>
        <time>2013-05-06T09:18:28Z</time>
      </trkpt>
      <trkpt lat="42.74036" lon="-1.73114">
        <ele>693.334</ele>
        <time>2013-05-06T09:18:19Z</time>
      </trkpt>
      <trkpt lat="42.74041" lon="-1.73105">
        <ele>691.855</ele>
        <time>2013-05-06T09:18:12Z</time>
      </trkpt>
      <trkpt lat="42.74047" lon="-1.73096">
        <ele>690.41</ele>
        <time>2013-05-06T09:18:05Z</time>
      </trkpt>
      <trkpt lat="42.7405" lon="-1.73076">
        <ele>688.008</ele>
        <time>2013-05-06T09:17:53Z</time>
      </trkpt>
      <trkpt lat="42.7405" lon="-1.73065">
        <ele>688.034</ele>
        <time>2013-05-06T09:17:47Z</time>
      </trkpt>
      <trkpt lat="42.74052" lon="-1.73045">
        <ele>685.685</ele>
        <time>2013-05-06T09:17:36Z</time>
      </trkpt>
      <trkpt lat="42.74053" lon="-1.73027">
        <ele>683.297</ele>
        <time>2013-05-06T09:17:25Z</time>
      </trkpt>
      <trkpt lat="42.74056" lon="-1.73007">
        <ele>681.262</ele>
        <time>2013-05-06T09:17:13Z</time>
      </trkpt>
      <trkpt lat="42.74061" lon="-1.72994">
        <ele>678.839</ele>
        <time>2013-05-06T09:17:02Z</time>
      </trkpt>
      <trkpt lat="42.74062" lon="-1.72985">
        <ele>677.986</ele>
        <time>2013-05-06T09:16:52Z</time>
      </trkpt>
      <trkpt lat="42.74064" lon="-1.72981">
        <ele>678.884</ele>
        <time>2013-05-06T09:16:50Z</time>
      </trkpt>
      <trkpt lat="42.74071" lon="-1.72968">
        <ele>678.487</ele>
        <time>2013-05-06T09:16:30Z</time>
      </trkpt>
      <trkpt lat="42.74074" lon="-1.72966">
        <ele>676.945</ele>
        <time>2013-05-06T09:16:20Z</time>
      </trkpt>
      <trkpt lat="42.74077" lon="-1.72964">
        <ele>677.447</ele>
        <time>2013-05-06T09:16:16Z</time>
      </trkpt>
      <trkpt lat="42.74084" lon="-1.72959">
        <ele>678.411</ele>
        <time>2013-05-06T09:16:06Z</time>
      </trkpt>
      <trkpt lat="42.74082" lon="-1.72957">
        <ele>679.308</ele>
        <time>2013-05-06T09:15:58Z</time>
      </trkpt>
      <trkpt lat="42.74079" lon="-1.72959">
        <ele>679.385</ele>
        <time>2013-05-06T09:15:46Z</time>
      </trkpt>
      <trkpt lat="42.74081" lon="-1.72957">
        <ele>678.856</ele>
        <time>2013-05-06T09:15:35Z</time>
      </trkpt>
      <trkpt lat="42.7409" lon="-1.72955">
        <ele>676.928</ele>
        <time>2013-05-06T09:15:27Z</time>
      </trkpt>
      <trkpt lat="42.74097" lon="-1.72948">
        <ele>676.413</ele>
        <time>2013-05-06T09:15:21Z</time>
      </trkpt>
      <trkpt lat="42.74106" lon="-1.72944">
        <ele>675.99</ele>
        <time>2013-05-06T09:15:14Z</time>
      </trkpt>
      <trkpt lat="42.7412" lon="-1.72931">
        <ele>674.587</ele>
        <time>2013-05-06T09:15:02Z</time>
      </trkpt>
      <trkpt lat="42.74127" lon="-1.72928">
        <ele>674.085</ele>
        <time>2013-05-06T09:14:57Z</time>
      </trkpt>
      <trkpt lat="42.74131" lon="-1.72926">
        <ele>672.698</ele>
        <time>2013-05-06T09:14:53Z</time>
      </trkpt>
      <trkpt lat="42.74139" lon="-1.72909">
        <ele>672.131</ele>
        <time>2013-05-06T09:14:42Z</time>
      </trkpt>
      <trkpt lat="42.74147" lon="-1.72893">
        <ele>671.161</ele>
        <time>2013-05-06T09:14:32Z</time>
      </trkpt>
      <trkpt lat="42.74159" lon="-1.72877">
        <ele>669.707</ele>
        <time>2013-05-06T09:14:20Z</time>
      </trkpt>
      <trkpt lat="42.74177" lon="-1.72861">
        <ele>668.308</ele>
        <time>2013-05-06T09:14:06Z</time>
      </trkpt>
      <trkpt lat="42.74193" lon="-1.72848">
        <ele>667.864</ele>
        <time>2013-05-06T09:13:55Z</time>
      </trkpt>
      <trkpt lat="42.74198" lon="-1.72838">
        <ele>667.385</ele>
        <time>2013-05-06T09:13:48Z</time>
      </trkpt>
      <trkpt lat="42.74206" lon="-1.7282">
        <ele>666.847</ele>
        <time>2013-05-06T09:13:37Z</time>
      </trkpt>
      <trkpt lat="42.74212" lon="-1.72817">
        <ele>665.422</ele>
        <time>2013-05-06T09:13:31Z</time>
      </trkpt>
      <trkpt lat="42.74226" lon="-1.72808">
        <ele>663.979</ele>
        <time>2013-05-06T09:13:18Z</time>
      </trkpt>
      <trkpt lat="42.74238" lon="-1.72806">
        <ele>662.046</ele>
        <time>2013-05-06T09:13:07Z</time>
      </trkpt>
      <trkpt lat="42.7425" lon="-1.72819">
        <ele>659.164</ele>
        <time>2013-05-06T09:12:53Z</time>
      </trkpt>
      <trkpt lat="42.74255" lon="-1.72825">
        <ele>658.247</ele>
        <time>2013-05-06T09:12:48Z</time>
      </trkpt>
      <trkpt lat="42.74265" lon="-1.72835">
        <ele>656.227</ele>
        <time>2013-05-06T09:12:37Z</time>
      </trkpt>
      <trkpt lat="42.74279" lon="-1.7284">
        <ele>653.868</ele>
        <time>2013-05-06T09:12:24Z</time>
      </trkpt>
      <trkpt lat="42.74289" lon="-1.72838">
        <ele>652.414</ele>
        <time>2013-05-06T09:12:15Z</time>
      </trkpt>
      <trkpt lat="42.74307" lon="-1.72835">
        <ele>649.508</ele>
        <time>2013-05-06T09:12:00Z</time>
      </trkpt>
      <trkpt lat="42.74314" lon="-1.72817">
        <ele>646.693</ele>
        <time>2013-05-06T09:11:48Z</time>
      </trkpt>
      <trkpt lat="42.74314" lon="-1.728">
        <ele>645.774</ele>
        <time>2013-05-06T09:11:40Z</time>
      </trkpt>
      <trkpt lat="42.74305" lon="-1.72772">
        <ele>644.766</ele>
        <time>2013-05-06T09:11:26Z</time>
      </trkpt>
      <trkpt lat="42.74305" lon="-1.72747">
        <ele>641.861</ele>
        <time>2013-05-06T09:11:11Z</time>
      </trkpt>
      <trkpt lat="42.74309" lon="-1.72727">
        <ele>639.958</ele>
        <time>2013-05-06T09:10:59Z</time>
      </trkpt>
      <trkpt lat="42.74312" lon="-1.72704">
        <ele>637.545</ele>
        <time>2013-05-06T09:10:45Z</time>
      </trkpt>
      <trkpt lat="42.74314" lon="-1.72684">
        <ele>635.643</ele>
        <time>2013-05-06T09:10:34Z</time>
      </trkpt>
      <trkpt lat="42.74315" lon="-1.72664">
        <ele>633.256</ele>
        <time>2013-05-06T09:10:22Z</time>
      </trkpt>
      <trkpt lat="42.74318" lon="-1.72655">
        <ele>631.747</ele>
        <time>2013-05-06T09:10:16Z</time>
      </trkpt>
      <trkpt lat="42.74321" lon="-1.72643">
        <ele>630.829</ele>
        <time>2013-05-06T09:10:09Z</time>
      </trkpt>
      <trkpt lat="42.74328" lon="-1.7261">
        <ele>629.321</ele>
        <time>2013-05-06T09:09:58Z</time>
      </trkpt>
      <trkpt lat="42.74369" lon="-1.72572">
        <ele>629.808</ele>
        <time>2013-05-06T09:09:44Z</time>
      </trkpt>
      <trkpt lat="42.744" lon="-1.7255">
        <ele>630.385</ele>
        <time>2013-05-06T09:09:36Z</time>
      </trkpt>
      <trkpt lat="42.74421" lon="-1.72535">
        <ele>630.896</ele>
        <time>2013-05-06T09:09:30Z</time>
      </trkpt>
      <trkpt lat="42.74458" lon="-1.72506">
        <ele>630.888</ele>
        <time>2013-05-06T09:09:18Z</time>
      </trkpt>
      <trkpt lat="42.74493" lon="-1.7248">
        <ele>630.873</ele>
        <time>2013-05-06T09:09:06Z</time>
      </trkpt>
      <trkpt lat="42.74509" lon="-1.7247">
        <ele>630.89</ele>
        <time>2013-05-06T09:08:57Z</time>
      </trkpt>
      <trkpt lat="42.74532" lon="-1.7245">
        <ele>631.747</ele>
        <time>2013-05-06T09:08:46Z</time>
      </trkpt>
      <trkpt lat="42.74566" lon="-1.72414">
        <ele>632.725</ele>
        <time>2013-05-06T09:08:33Z</time>
      </trkpt>
      <trkpt lat="42.74585" lon="-1.72394">
        <ele>632.768</ele>
        <time>2013-05-06T09:08:24Z</time>
      </trkpt>
      <trkpt lat="42.74618" lon="-1.72362">
        <ele>632.738</ele>
        <time>2013-05-06T09:08:12Z</time>
      </trkpt>
      <trkpt lat="42.74648" lon="-1.72347">
        <ele>632.77</ele>
        <time>2013-05-06T09:08:01Z</time>
      </trkpt>
      <trkpt lat="42.74677" lon="-1.72343">
        <ele>632.217</ele>
        <time>2013-05-06T09:07:52Z</time>
      </trkpt>
      <trkpt lat="42.7471" lon="-1.72339">
        <ele>631.708</ele>
        <time>2013-05-06T09:07:40Z</time>
      </trkpt>
      <trkpt lat="42.74741" lon="-1.72332">
        <ele>630.334</ele>
        <time>2013-05-06T09:07:26Z</time>
      </trkpt>
      <trkpt lat="42.74765" lon="-1.72322">
        <ele>628.435</ele>
        <time>2013-05-06T09:07:12Z</time>
      </trkpt>
      <trkpt lat="42.7477" lon="-1.72319">
        <ele>627.977</ele>
        <time>2013-05-06T09:07:09Z</time>
      </trkpt>
      <trkpt lat="42.74789" lon="-1.7231">
        <ele>626.022</ele>
        <time>2013-05-06T09:06:57Z</time>
      </trkpt>
      <trkpt lat="42.74813" lon="-1.72285">
        <ele>624.569</ele>
        <time>2013-05-06T09:06:43Z</time>
      </trkpt>
      <trkpt lat="42.74833" lon="-1.72265">
        <ele>624.586</ele>
        <time>2013-05-06T09:06:33Z</time>
      </trkpt>
      <trkpt lat="42.74848" lon="-1.72239">
        <ele>624.064</ele>
        <time>2013-05-06T09:06:22Z</time>
      </trkpt>
      <trkpt lat="42.74862" lon="-1.72211">
        <ele>623.137</ele>
        <time>2013-05-06T09:06:09Z</time>
      </trkpt>
      <trkpt lat="42.74873" lon="-1.7219">
        <ele>621.275</ele>
        <time>2013-05-06T09:05:56Z</time>
      </trkpt>
      <trkpt lat="42.74888" lon="-1.72164">
        <ele>618.828</ele>
        <time>2013-05-06T09:05:41Z</time>
      </trkpt>
      <trkpt lat="42.74901" lon="-1.72139">
        <ele>616.82</ele>
        <time>2013-05-06T09:05:28Z</time>
      </trkpt>
      <trkpt lat="42.74914" lon="-1.72117">
        <ele>613.908</ele>
        <time>2013-05-06T09:05:15Z</time>
      </trkpt>
      <trkpt lat="42.7493" lon="-1.72089">
        <ele>611.548</ele>
        <time>2013-05-06T09:05:00Z</time>
      </trkpt>
      <trkpt lat="42.74945" lon="-1.72064">
        <ele>608.789</ele>
        <time>2013-05-06T09:04:47Z</time>
      </trkpt>
      <trkpt lat="42.7496" lon="-1.72038">
        <ele>606.321</ele>
        <time>2013-05-06T09:04:35Z</time>
      </trkpt>
      <trkpt lat="42.74979" lon="-1.72005">
        <ele>604.346</ele>
        <time>2013-05-06T09:04:22Z</time>
      </trkpt>
      <trkpt lat="42.75" lon="-1.71977">
        <ele>603.413</ele>
        <time>2013-05-06T09:04:11Z</time>
      </trkpt>
      <trkpt lat="42.75029" lon="-1.71975">
        <ele>601.94</ele>
        <time>2013-05-06T09:03:58Z</time>
      </trkpt>
      <trkpt lat="42.75047" lon="-1.71987">
        <ele>601.958</ele>
        <time>2013-05-06T09:03:48Z</time>
      </trkpt>
      <trkpt lat="42.75075" lon="-1.7198">
        <ele>602.941</ele>
        <time>2013-05-06T09:03:41Z</time>
      </trkpt>
      <trkpt lat="42.7509" lon="-1.71979">
        <ele>603.471</ele>
        <time>2013-05-06T09:03:38Z</time>
      </trkpt>
      <trkpt lat="42.75108" lon="-1.71975">
        <ele>603.941</ele>
        <time>2013-05-06T09:03:34Z</time>
      </trkpt>
      <trkpt lat="42.75124" lon="-1.71968">
        <ele>605.315</ele>
        <time>2013-05-06T09:03:29Z</time>
      </trkpt>
      <trkpt lat="42.75149" lon="-1.71951">
        <ele>607.708</ele>
        <time>2013-05-06T09:03:20Z</time>
      </trkpt>
      <trkpt lat="42.75181" lon="-1.71919">
        <ele>609.138</ele>
        <time>2013-05-06T09:03:08Z</time>
      </trkpt>
      <trkpt lat="42.75191" lon="-1.71911">
        <ele>609.149</ele>
        <time>2013-05-06T09:03:02Z</time>
      </trkpt>
      <trkpt lat="42.75194" lon="-1.71908">
        <ele>609.111</ele>
        <time>2013-05-06T09:02:59Z</time>
      </trkpt>
      <trkpt lat="42.75202" lon="-1.71896">
        <ele>608.246</ele>
        <time>2013-05-06T09:02:51Z</time>
      </trkpt>
      <trkpt lat="42.75208" lon="-1.71887">
        <ele>607.233</ele>
        <time>2013-05-06T09:02:44Z</time>
      </trkpt>
      <trkpt lat="42.7522" lon="-1.71872">
        <ele>604.83</ele>
        <time>2013-05-06T09:02:30Z</time>
      </trkpt>
      <trkpt lat="42.7523" lon="-1.71857">
        <ele>602.988</ele>
        <time>2013-05-06T09:02:17Z</time>
      </trkpt>
      <trkpt lat="42.75235" lon="-1.71853">
        <ele>601.441</ele>
        <time>2013-05-06T09:02:12Z</time>
      </trkpt>
      <trkpt lat="42.75252" lon="-1.71842">
        <ele>599.041</ele>
        <time>2013-05-06T09:01:56Z</time>
      </trkpt>
      <trkpt lat="42.75267" lon="-1.71834">
        <ele>596.681</ele>
        <time>2013-05-06T09:01:42Z</time>
      </trkpt>
      <trkpt lat="42.75281" lon="-1.71829">
        <ele>594.209</ele>
        <time>2013-05-06T09:01:28Z</time>
      </trkpt>
      <trkpt lat="42.75299" lon="-1.71823">
        <ele>591.808</ele>
        <time>2013-05-06T09:01:12Z</time>
      </trkpt>
      <trkpt lat="42.75315" lon="-1.71819">
        <ele>589.415</ele>
        <time>2013-05-06T09:00:58Z</time>
      </trkpt>
      <trkpt lat="42.7532" lon="-1.71818">
        <ele>589.086</ele>
        <time>2013-05-06T09:00:54Z</time>
      </trkpt>
      <trkpt lat="42.75332" lon="-1.71811">
        <ele>586.518</ele>
        <time>2013-05-06T09:00:42Z</time>
      </trkpt>
      <trkpt lat="42.75347" lon="-1.718">
        <ele>584.153</ele>
        <time>2013-05-06T09:00:27Z</time>
      </trkpt>
      <trkpt lat="42.75351" lon="-1.71795">
        <ele>583.23</ele>
        <time>2013-05-06T09:00:22Z</time>
      </trkpt>
      <trkpt lat="42.75361" lon="-1.71783">
        <ele>581.337</ele>
        <time>2013-05-06T09:00:10Z</time>
      </trkpt>
      <trkpt lat="42.75371" lon="-1.7177">
        <ele>579.395</ele>
        <time>2013-05-06T08:59:58Z</time>
      </trkpt>
      <trkpt lat="42.75378" lon="-1.71765">
        <ele>577.958</ele>
        <time>2013-05-06T08:59:51Z</time>
      </trkpt>
      <trkpt lat="42.7539" lon="-1.71757">
        <ele>576.586</ele>
        <time>2013-05-06T08:59:39Z</time>
      </trkpt>
      <trkpt lat="42.75403" lon="-1.7175">
        <ele>574.56</ele>
        <time>2013-05-06T08:59:26Z</time>
      </trkpt>
      <trkpt lat="42.75406" lon="-1.71747">
        <ele>573.626</ele>
        <time>2013-05-06T08:59:23Z</time>
      </trkpt>
      <trkpt lat="42.75423" lon="-1.71733">
        <ele>571.208</ele>
        <time>2013-05-06T08:59:07Z</time>
      </trkpt>
      <trkpt lat="42.75436" lon="-1.71722">
        <ele>568.889</ele>
        <time>2013-05-06T08:58:55Z</time>
      </trkpt>
      <trkpt lat="42.75451" lon="-1.71709">
        <ele>566.88</ele>
        <time>2013-05-06T08:58:42Z</time>
      </trkpt>
      <trkpt lat="42.75466" lon="-1.71695">
        <ele>564.952</ele>
        <time>2013-05-06T08:58:29Z</time>
      </trkpt>
      <trkpt lat="42.75485" lon="-1.71678">
        <ele>562.537</ele>
        <time>2013-05-06T08:58:14Z</time>
      </trkpt>
      <trkpt lat="42.75503" lon="-1.71662">
        <ele>561.114</ele>
        <time>2013-05-06T08:58:00Z</time>
      </trkpt>
      <trkpt lat="42.75522" lon="-1.71643">
        <ele>558.731</ele>
        <time>2013-05-06T08:57:45Z</time>
      </trkpt>
      <trkpt lat="42.75549" lon="-1.71617">
        <ele>557.299</ele>
        <time>2013-05-06T08:57:27Z</time>
      </trkpt>
      <trkpt lat="42.75571" lon="-1.71599">
        <ele>556.772</ele>
        <time>2013-05-06T08:57:14Z</time>
      </trkpt>
      <trkpt lat="42.75596" lon="-1.71581">
        <ele>555.851</ele>
        <time>2013-05-06T08:56:59Z</time>
      </trkpt>
      <trkpt lat="42.75619" lon="-1.71562">
        <ele>554.801</ele>
        <time>2013-05-06T08:56:44Z</time>
      </trkpt>
      <trkpt lat="42.75637" lon="-1.71546">
        <ele>553.911</ele>
        <time>2013-05-06T08:56:31Z</time>
      </trkpt>
      <trkpt lat="42.75657" lon="-1.71528">
        <ele>552.408</ele>
        <time>2013-05-06T08:56:15Z</time>
      </trkpt>
      <trkpt lat="42.75669" lon="-1.71521">
        <ele>551.536</ele>
        <time>2013-05-06T08:56:06Z</time>
      </trkpt>
      <trkpt lat="42.75685" lon="-1.71507">
        <ele>550.517</ele>
        <time>2013-05-06T08:55:52Z</time>
      </trkpt>
      <trkpt lat="42.75699" lon="-1.71496">
        <ele>550.029</ele>
        <time>2013-05-06T08:55:41Z</time>
      </trkpt>
      <trkpt lat="42.75715" lon="-1.71489">
        <ele>549.134</ele>
        <time>2013-05-06T08:55:28Z</time>
      </trkpt>
      <trkpt lat="42.75724" lon="-1.71483">
        <ele>548.141</ele>
        <time>2013-05-06T08:55:21Z</time>
      </trkpt>
      <trkpt lat="42.75738" lon="-1.71472">
        <ele>547.628</ele>
        <time>2013-05-06T08:55:10Z</time>
      </trkpt>
      <trkpt lat="42.75756" lon="-1.71463">
        <ele>546.276</ele>
        <time>2013-05-06T08:54:57Z</time>
      </trkpt>
      <trkpt lat="42.75771" lon="-1.71455">
        <ele>545.739</ele>
        <time>2013-05-06T08:54:45Z</time>
      </trkpt>
      <trkpt lat="42.75785" lon="-1.71449">
        <ele>544.786</ele>
        <time>2013-05-06T08:54:34Z</time>
      </trkpt>
      <trkpt lat="42.75801" lon="-1.71437">
        <ele>542.36</ele>
        <time>2013-05-06T08:54:22Z</time>
      </trkpt>
      <trkpt lat="42.75804" lon="-1.71434">
        <ele>542.326</ele>
        <time>2013-05-06T08:54:15Z</time>
      </trkpt>
      <trkpt lat="42.75802" lon="-1.71431">
        <ele>542.308</ele>
        <time>2013-05-06T08:46:43Z</time>
      </trkpt>
      <trkpt lat="42.75802" lon="-1.71434">
        <ele>542.859</ele>
        <time>2013-05-06T08:42:17Z</time>
      </trkpt>
      <trkpt lat="42.75806" lon="-1.71433">
        <ele>542.38</ele>
        <time>2013-05-06T08:42:08Z</time>
      </trkpt>
      <trkpt lat="42.75828" lon="-1.71424">
        <ele>540.482</ele>
        <time>2013-05-06T08:41:54Z</time>
      </trkpt>
      <trkpt lat="42.75834" lon="-1.71419">
        <ele>539.937</ele>
        <time>2013-05-06T08:41:50Z</time>
      </trkpt>
      <trkpt lat="42.75845" lon="-1.71411">
        <ele>539.054</ele>
        <time>2013-05-06T08:41:43Z</time>
      </trkpt>
      <trkpt lat="42.75865" lon="-1.714">
        <ele>537.031</ele>
        <time>2013-05-06T08:41:32Z</time>
      </trkpt>
      <trkpt lat="42.75891" lon="-1.71389">
        <ele>535.619</ele>
        <time>2013-05-06T08:41:18Z</time>
      </trkpt>
      <trkpt lat="42.75915" lon="-1.71377">
        <ele>534.632</ele>
        <time>2013-05-06T08:41:04Z</time>
      </trkpt>
      <trkpt lat="42.75934" lon="-1.71366">
        <ele>532.726</ele>
        <time>2013-05-06T08:40:52Z</time>
      </trkpt>
      <trkpt lat="42.75956" lon="-1.71354">
        <ele>531.347</ele>
        <time>2013-05-06T08:40:38Z</time>
      </trkpt>
      <trkpt lat="42.7598" lon="-1.71344">
        <ele>528.911</ele>
        <time>2013-05-06T08:40:23Z</time>
      </trkpt>
      <trkpt lat="42.75983" lon="-1.71342">
        <ele>528.408</ele>
        <time>2013-05-06T08:40:21Z</time>
      </trkpt>
      <trkpt lat="42.75998" lon="-1.71332">
        <ele>527.463</ele>
        <time>2013-05-06T08:40:11Z</time>
      </trkpt>
      <trkpt lat="42.76015" lon="-1.71323">
        <ele>526.024</ele>
        <time>2013-05-06T08:40:00Z</time>
      </trkpt>
      <trkpt lat="42.76027" lon="-1.71318">
        <ele>525.076</ele>
        <time>2013-05-06T08:39:53Z</time>
      </trkpt>
      <trkpt lat="42.76046" lon="-1.71311">
        <ele>523.111</ele>
        <time>2013-05-06T08:39:42Z</time>
      </trkpt>
      <trkpt lat="42.76072" lon="-1.71299">
        <ele>522.168</ele>
        <time>2013-05-06T08:39:28Z</time>
      </trkpt>
      <trkpt lat="42.76092" lon="-1.71286">
        <ele>520.285</ele>
        <time>2013-05-06T08:39:16Z</time>
      </trkpt>
      <trkpt lat="42.76116" lon="-1.71262">
        <ele>518.393</ele>
        <time>2013-05-06T08:39:04Z</time>
      </trkpt>
      <trkpt lat="42.76145" lon="-1.71241">
        <ele>518.386</ele>
        <time>2013-05-06T08:38:54Z</time>
      </trkpt>
      <trkpt lat="42.76164" lon="-1.71205">
        <ele>517.322</ele>
        <time>2013-05-06T08:38:42Z</time>
      </trkpt>
      <trkpt lat="42.76176" lon="-1.71175">
        <ele>515.962</ele>
        <time>2013-05-06T08:38:31Z</time>
      </trkpt>
      <trkpt lat="42.76189" lon="-1.71151">
        <ele>514.008</ele>
        <time>2013-05-06T08:38:18Z</time>
      </trkpt>
      <trkpt lat="42.76203" lon="-1.71126">
        <ele>513.008</ele>
        <time>2013-05-06T08:38:04Z</time>
      </trkpt>
      <trkpt lat="42.76218" lon="-1.71108">
        <ele>511.123</ele>
        <time>2013-05-06T08:37:52Z</time>
      </trkpt>
      <trkpt lat="42.76237" lon="-1.71091">
        <ele>509.684</ele>
        <time>2013-05-06T08:37:41Z</time>
      </trkpt>
      <trkpt lat="42.76253" lon="-1.71063">
        <ele>508.756</ele>
        <time>2013-05-06T08:37:29Z</time>
      </trkpt>
      <trkpt lat="42.76267" lon="-1.71038">
        <ele>506.321</ele>
        <time>2013-05-06T08:37:17Z</time>
      </trkpt>
      <trkpt lat="42.76275" lon="-1.71029">
        <ele>506.378</ele>
        <time>2013-05-06T08:37:12Z</time>
      </trkpt>
      <trkpt lat="42.76281" lon="-1.71028">
        <ele>506.355</ele>
        <time>2013-05-06T08:37:08Z</time>
      </trkpt>
      <trkpt lat="42.76291" lon="-1.71021">
        <ele>505.333</ele>
        <time>2013-05-06T08:37:02Z</time>
      </trkpt>
      <trkpt lat="42.76302" lon="-1.71003">
        <ele>503.466</ele>
        <time>2013-05-06T08:36:51Z</time>
      </trkpt>
      <trkpt lat="42.76309" lon="-1.70973">
        <ele>501.083</ele>
        <time>2013-05-06T08:36:39Z</time>
      </trkpt>
      <trkpt lat="42.76311" lon="-1.70957">
        <ele>500.025</ele>
        <time>2013-05-06T08:36:33Z</time>
      </trkpt>
      <trkpt lat="42.76312" lon="-1.70946">
        <ele>500.017</ele>
        <time>2013-05-06T08:36:29Z</time>
      </trkpt>
      <trkpt lat="42.76314" lon="-1.70922">
        <ele>500.008</ele>
        <time>2013-05-06T08:36:20Z</time>
      </trkpt>
      <trkpt lat="42.76317" lon="-1.70916">
        <ele>500.019</ele>
        <time>2013-05-06T08:36:16Z</time>
      </trkpt>
      <trkpt lat="42.76334" lon="-1.709">
        <ele>500.02</ele>
        <time>2013-05-06T08:36:07Z</time>
      </trkpt>
      <trkpt lat="42.76351" lon="-1.70881">
        <ele>499.532</ele>
        <time>2013-05-06T08:35:58Z</time>
      </trkpt>
      <trkpt lat="42.7637" lon="-1.70868">
        <ele>500.077</ele>
        <time>2013-05-06T08:35:51Z</time>
      </trkpt>
      <trkpt lat="42.76374" lon="-1.70864">
        <ele>500.044</ele>
        <time>2013-05-06T08:35:50Z</time>
      </trkpt>
      <trkpt lat="42.76401" lon="-1.70836">
        <ele>501.091</ele>
        <time>2013-05-06T08:35:40Z</time>
      </trkpt>
      <trkpt lat="42.76422" lon="-1.70818">
        <ele>500.559</ele>
        <time>2013-05-06T08:35:29Z</time>
      </trkpt>
      <trkpt lat="42.76424" lon="-1.70816">
        <ele>500.522</ele>
        <time>2013-05-06T08:35:28Z</time>
      </trkpt>
      <trkpt lat="42.76446" lon="-1.70789">
        <ele>499.133</ele>
        <time>2013-05-06T08:35:16Z</time>
      </trkpt>
      <trkpt lat="42.76456" lon="-1.70768">
        <ele>498.623</ele>
        <time>2013-05-06T08:35:07Z</time>
      </trkpt>
      <trkpt lat="42.76465" lon="-1.70752">
        <ele>497.615</ele>
        <time>2013-05-06T08:34:56Z</time>
      </trkpt>
      <trkpt lat="42.76476" lon="-1.70729">
        <ele>495.708</ele>
        <time>2013-05-06T08:34:45Z</time>
      </trkpt>
      <trkpt lat="42.76488" lon="-1.70701">
        <ele>494.394</ele>
        <time>2013-05-06T08:34:35Z</time>
      </trkpt>
      <trkpt lat="42.765" lon="-1.70648">
        <ele>493.835</ele>
        <time>2013-05-06T08:34:21Z</time>
      </trkpt>
      <trkpt lat="42.7651" lon="-1.70604">
        <ele>491.987</ele>
        <time>2013-05-06T08:34:10Z</time>
      </trkpt>
      <trkpt lat="42.7652" lon="-1.70559">
        <ele>490.912</ele>
        <time>2013-05-06T08:34:00Z</time>
      </trkpt>
      <trkpt lat="42.76534" lon="-1.70508">
        <ele>490.919</ele>
        <time>2013-05-06T08:33:49Z</time>
      </trkpt>
      <trkpt lat="42.76558" lon="-1.70468">
        <ele>490.976</ele>
        <time>2013-05-06T08:33:39Z</time>
      </trkpt>
      <trkpt lat="42.76597" lon="-1.70401">
        <ele>490.914</ele>
        <time>2013-05-06T08:33:25Z</time>
      </trkpt>
      <trkpt lat="42.76641" lon="-1.70305">
        <ele>491.457</ele>
        <time>2013-05-06T08:33:09Z</time>
      </trkpt>
      <trkpt lat="42.76695" lon="-1.70217">
        <ele>492.856</ele>
        <time>2013-05-06T08:32:53Z</time>
      </trkpt>
      <trkpt lat="42.76701" lon="-1.70208">
        <ele>493.859</ele>
        <time>2013-05-06T08:32:51Z</time>
      </trkpt>
      <trkpt lat="42.76734" lon="-1.70167">
        <ele>493.814</ele>
        <time>2013-05-06T08:32:40Z</time>
      </trkpt>
      <trkpt lat="42.76766" lon="-1.70142">
        <ele>493.308</ele>
        <time>2013-05-06T08:32:28Z</time>
      </trkpt>
      <trkpt lat="42.76803" lon="-1.70118">
        <ele>491.926</ele>
        <time>2013-05-06T08:32:16Z</time>
      </trkpt>
      <trkpt lat="42.76828" lon="-1.70105">
        <ele>490.917</ele>
        <time>2013-05-06T08:32:09Z</time>
      </trkpt>
      <trkpt lat="42.76879" lon="-1.70077">
        <ele>490.919</ele>
        <time>2013-05-06T08:31:56Z</time>
      </trkpt>
      <trkpt lat="42.76931" lon="-1.70033">
        <ele>489.964</ele>
        <time>2013-05-06T08:31:41Z</time>
      </trkpt>
      <trkpt lat="42.77002" lon="-1.69961">
        <ele>490.421</ele>
        <time>2013-05-06T08:31:26Z</time>
      </trkpt>
      <trkpt lat="42.77051" lon="-1.69908">
        <ele>493.358</ele>
        <time>2013-05-06T08:31:15Z</time>
      </trkpt>
      <trkpt lat="42.77094" lon="-1.69842">
        <ele>495.796</ele>
        <time>2013-05-06T08:31:00Z</time>
      </trkpt>
      <trkpt lat="42.77106" lon="-1.69823">
        <ele>497.689</ele>
        <time>2013-05-06T08:30:55Z</time>
      </trkpt>
      <trkpt lat="42.77124" lon="-1.69782">
        <ele>497.687</ele>
        <time>2013-05-06T08:30:44Z</time>
      </trkpt>
      <trkpt lat="42.77133" lon="-1.69744">
        <ele>497.642</ele>
        <time>2013-05-06T08:30:33Z</time>
      </trkpt>
      <trkpt lat="42.77137" lon="-1.69706">
        <ele>497.126</ele>
        <time>2013-05-06T08:30:22Z</time>
      </trkpt>
      <trkpt lat="42.77143" lon="-1.69672">
        <ele>494.708</ele>
        <time>2013-05-06T08:30:07Z</time>
      </trkpt>
      <trkpt lat="42.77154" lon="-1.69643">
        <ele>491.499</ele>
        <time>2013-05-06T08:29:53Z</time>
      </trkpt>
      <trkpt lat="42.77167" lon="-1.69616">
        <ele>489.58</ele>
        <time>2013-05-06T08:29:40Z</time>
      </trkpt>
      <trkpt lat="42.77172" lon="-1.69606">
        <ele>488.072</ele>
        <time>2013-05-06T08:29:35Z</time>
      </trkpt>
      <trkpt lat="42.77175" lon="-1.69599">
        <ele>488.027</ele>
        <time>2013-05-06T08:29:31Z</time>
      </trkpt>
      <trkpt lat="42.77177" lon="-1.69597">
        <ele>488.554</ele>
        <time>2013-05-06T08:26:55Z</time>
      </trkpt>
      <trkpt lat="42.77187" lon="-1.69569">
        <ele>488.041</ele>
        <time>2013-05-06T08:26:45Z</time>
      </trkpt>
      <trkpt lat="42.77201" lon="-1.69538">
        <ele>487.179</ele>
        <time>2013-05-06T08:26:32Z</time>
      </trkpt>
      <trkpt lat="42.77221" lon="-1.69505">
        <ele>484.612</ele>
        <time>2013-05-06T08:26:14Z</time>
      </trkpt>
      <trkpt lat="42.77237" lon="-1.69482">
        <ele>482.716</ele>
        <time>2013-05-06T08:26:00Z</time>
      </trkpt>
      <trkpt lat="42.77252" lon="-1.69462">
        <ele>480.876</ele>
        <time>2013-05-06T08:25:47Z</time>
      </trkpt>
      <trkpt lat="42.77268" lon="-1.69441">
        <ele>478.413</ele>
        <time>2013-05-06T08:25:33Z</time>
      </trkpt>
      <trkpt lat="42.77276" lon="-1.69419">
        <ele>477.008</ele>
        <time>2013-05-06T08:25:21Z</time>
      </trkpt>
      <trkpt lat="42.77291" lon="-1.69405">
        <ele>476.012</ele>
        <time>2013-05-06T08:25:10Z</time>
      </trkpt>
      <trkpt lat="42.77311" lon="-1.69392">
        <ele>474.653</ele>
        <time>2013-05-06T08:24:57Z</time>
      </trkpt>
      <trkpt lat="42.77324" lon="-1.69378">
        <ele>473.155</ele>
        <time>2013-05-06T08:24:46Z</time>
      </trkpt>
      <trkpt lat="42.7734" lon="-1.6936">
        <ele>471.78</ele>
        <time>2013-05-06T08:24:34Z</time>
      </trkpt>
      <trkpt lat="42.77355" lon="-1.69341">
        <ele>470.767</ele>
        <time>2013-05-06T08:24:23Z</time>
      </trkpt>
      <trkpt lat="42.77374" lon="-1.69315">
        <ele>469.334</ele>
        <time>2013-05-06T08:24:09Z</time>
      </trkpt>
      <trkpt lat="42.77394" lon="-1.6929">
        <ele>467.892</ele>
        <time>2013-05-06T08:23:55Z</time>
      </trkpt>
      <trkpt lat="42.77413" lon="-1.69266">
        <ele>467.825</ele>
        <time>2013-05-06T08:23:42Z</time>
      </trkpt>
      <trkpt lat="42.77429" lon="-1.69241">
        <ele>466.412</ele>
        <time>2013-05-06T08:23:29Z</time>
      </trkpt>
      <trkpt lat="42.77445" lon="-1.69224">
        <ele>466.432</ele>
        <time>2013-05-06T08:23:19Z</time>
      </trkpt>
      <trkpt lat="42.7746" lon="-1.69206">
        <ele>464.905</ele>
        <time>2013-05-06T08:23:08Z</time>
      </trkpt>
      <trkpt lat="42.77477" lon="-1.69183">
        <ele>464.508</ele>
        <time>2013-05-06T08:22:55Z</time>
      </trkpt>
      <trkpt lat="42.77497" lon="-1.69161">
        <ele>463.552</ele>
        <time>2013-05-06T08:22:42Z</time>
      </trkpt>
      <trkpt lat="42.77516" lon="-1.69144">
        <ele>463.013</ele>
        <time>2013-05-06T08:22:31Z</time>
      </trkpt>
      <trkpt lat="42.77529" lon="-1.69135">
        <ele>462.165</ele>
        <time>2013-05-06T08:22:22Z</time>
      </trkpt>
      <trkpt lat="42.77543" lon="-1.69119">
        <ele>461.16</ele>
        <time>2013-05-06T08:22:09Z</time>
      </trkpt>
      <trkpt lat="42.77552" lon="-1.69112">
        <ele>458.727</ele>
        <time>2013-05-06T08:21:58Z</time>
      </trkpt>
      <trkpt lat="42.77567" lon="-1.69105">
        <ele>455.384</ele>
        <time>2013-05-06T08:21:44Z</time>
      </trkpt>
      <trkpt lat="42.77577" lon="-1.69101">
        <ele>454.482</ele>
        <time>2013-05-06T08:21:36Z</time>
      </trkpt>
      <trkpt lat="42.77583" lon="-1.69098">
        <ele>453.475</ele>
        <time>2013-05-06T08:21:31Z</time>
      </trkpt>
      <trkpt lat="42.77597" lon="-1.69091">
        <ele>452.083</ele>
        <time>2013-05-06T08:21:22Z</time>
      </trkpt>
      <trkpt lat="42.77619" lon="-1.69081">
        <ele>450.025</ele>
        <time>2013-05-06T08:21:10Z</time>
      </trkpt>
      <trkpt lat="42.7765" lon="-1.69065">
        <ele>448.617</ele>
        <time>2013-05-06T08:20:56Z</time>
      </trkpt>
      <trkpt lat="42.77686" lon="-1.69046">
        <ele>447.208</ele>
        <time>2013-05-06T08:20:41Z</time>
      </trkpt>
      <trkpt lat="42.77721" lon="-1.69029">
        <ele>446.269</ele>
        <time>2013-05-06T08:20:27Z</time>
      </trkpt>
      <trkpt lat="42.77756" lon="-1.69011">
        <ele>444.87</ele>
        <time>2013-05-06T08:20:13Z</time>
      </trkpt>
      <trkpt lat="42.77785" lon="-1.68995">
        <ele>444.382</ele>
        <time>2013-05-06T08:20:01Z</time>
      </trkpt>
      <trkpt lat="42.7781" lon="-1.68979">
        <ele>444.397</ele>
        <time>2013-05-06T08:19:51Z</time>
      </trkpt>
      <trkpt lat="42.77819" lon="-1.68927">
        <ele>444.364</ele>
        <time>2013-05-06T08:19:38Z</time>
      </trkpt>
      <trkpt lat="42.77821" lon="-1.68864">
        <ele>444.381</ele>
        <time>2013-05-06T08:19:25Z</time>
      </trkpt>
      <trkpt lat="42.77849" lon="-1.68804">
        <ele>443.889</ele>
        <time>2013-05-06T08:19:08Z</time>
      </trkpt>
      <trkpt lat="42.77881" lon="-1.68758">
        <ele>443.352</ele>
        <time>2013-05-06T08:18:53Z</time>
      </trkpt>
      <trkpt lat="42.77906" lon="-1.68721">
        <ele>442.374</ele>
        <time>2013-05-06T08:18:38Z</time>
      </trkpt>
      <trkpt lat="42.7793" lon="-1.68688">
        <ele>441.456</ele>
        <time>2013-05-06T08:18:24Z</time>
      </trkpt>
      <trkpt lat="42.77956" lon="-1.68655">
        <ele>440.421</ele>
        <time>2013-05-06T08:18:09Z</time>
      </trkpt>
      <trkpt lat="42.77979" lon="-1.68622">
        <ele>439.008</ele>
        <time>2013-05-06T08:17:55Z</time>
      </trkpt>
      <trkpt lat="42.77996" lon="-1.686">
        <ele>438.098</ele>
        <time>2013-05-06T08:17:44Z</time>
      </trkpt>
      <trkpt lat="42.77998" lon="-1.68596">
        <ele>438.039</ele>
        <time>2013-05-06T08:17:42Z</time>
      </trkpt>
      <trkpt lat="42.78001" lon="-1.68596">
        <ele>437.561</ele>
        <time>2013-05-06T08:17:40Z</time>
      </trkpt>
      <trkpt lat="42.78021" lon="-1.68567">
        <ele>436.616</ele>
        <time>2013-05-06T08:17:29Z</time>
      </trkpt>
      <trkpt lat="42.78053" lon="-1.68512">
        <ele>435.673</ele>
        <time>2013-05-06T08:17:14Z</time>
      </trkpt>
      <trkpt lat="42.78091" lon="-1.6845">
        <ele>435.16</ele>
        <time>2013-05-06T08:16:59Z</time>
      </trkpt>
      <trkpt lat="42.7813" lon="-1.68384">
        <ele>435.198</ele>
        <time>2013-05-06T08:16:43Z</time>
      </trkpt>
      <trkpt lat="42.78143" lon="-1.68362">
        <ele>433.791</ele>
        <time>2013-05-06T08:16:38Z</time>
      </trkpt>
      <trkpt lat="42.78145" lon="-1.68358">
        <ele>433.787</ele>
        <time>2013-05-06T08:16:37Z</time>
      </trkpt>
      <trkpt lat="42.78163" lon="-1.68313">
        <ele>433.742</ele>
        <time>2013-05-06T08:16:27Z</time>
      </trkpt>
      <trkpt lat="42.78178" lon="-1.68281">
        <ele>433.726</ele>
        <time>2013-05-06T08:16:18Z</time>
      </trkpt>
      <trkpt lat="42.78184" lon="-1.68273">
        <ele>433.708</ele>
        <time>2013-05-06T08:16:05Z</time>
      </trkpt>
      <trkpt lat="42.78185" lon="-1.68271">
        <ele>433.749</ele>
        <time>2013-05-06T08:14:57Z</time>
      </trkpt>
      <trkpt lat="42.78187" lon="-1.68267">
        <ele>433.75</ele>
        <time>2013-05-06T08:14:48Z</time>
      </trkpt>
      <trkpt lat="42.78202" lon="-1.68248">
        <ele>433.712</ele>
        <time>2013-05-06T08:14:36Z</time>
      </trkpt>
      <trkpt lat="42.78227" lon="-1.68216">
        <ele>434.227</ele>
        <time>2013-05-06T08:14:23Z</time>
      </trkpt>
      <trkpt lat="42.7825" lon="-1.68177">
        <ele>435.144</ele>
        <time>2013-05-06T08:14:11Z</time>
      </trkpt>
      <trkpt lat="42.78271" lon="-1.68148">
        <ele>435.121</ele>
        <time>2013-05-06T08:14:01Z</time>
      </trkpt>
      <trkpt lat="42.78291" lon="-1.68129">
        <ele>435.689</ele>
        <time>2013-05-06T08:13:51Z</time>
      </trkpt>
      <trkpt lat="42.78307" lon="-1.68116">
        <ele>436.142</ele>
        <time>2013-05-06T08:13:40Z</time>
      </trkpt>
      <trkpt lat="42.78323" lon="-1.68104">
        <ele>436.665</ele>
        <time>2013-05-06T08:13:32Z</time>
      </trkpt>
      <trkpt lat="42.78365" lon="-1.6807">
        <ele>438.568</ele>
        <time>2013-05-06T08:13:21Z</time>
      </trkpt>
      <trkpt lat="42.78411" lon="-1.68037">
        <ele>440.914</ele>
        <time>2013-05-06T08:13:12Z</time>
      </trkpt>
      <trkpt lat="42.78417" lon="-1.68032">
        <ele>441.408</ele>
        <time>2013-05-06T08:13:11Z</time>
      </trkpt>
      <trkpt lat="42.78445" lon="-1.67999">
        <ele>444.327</ele>
        <time>2013-05-06T08:13:05Z</time>
      </trkpt>
      <trkpt lat="42.78451" lon="-1.67988">
        <ele>445.258</ele>
        <time>2013-05-06T08:13:02Z</time>
      </trkpt>
      <trkpt lat="42.78452" lon="-1.67986">
        <ele>445.28</ele>
        <time>2013-05-06T08:13:01Z</time>
      </trkpt>
      <trkpt lat="42.78453" lon="-1.67984">
        <ele>445.795</ele>
        <time>2013-05-06T08:13:00Z</time>
      </trkpt>
      <trkpt lat="42.78455" lon="-1.67983">
        <ele>445.722</ele>
        <time>2013-05-06T08:12:59Z</time>
      </trkpt>
      <trkpt lat="42.78457" lon="-1.67981">
        <ele>445.739</ele>
        <time>2013-05-06T08:12:58Z</time>
      </trkpt>
      <trkpt lat="42.78457" lon="-1.67979">
        <ele>445.297</ele>
        <time>2013-05-06T08:12:57Z</time>
      </trkpt>
      <trkpt lat="42.78458" lon="-1.67976">
        <ele>446.22</ele>
        <time>2013-05-06T08:12:56Z</time>
      </trkpt>
      <trkpt lat="42.78468" lon="-1.67964">
        <ele>447.252</ele>
        <time>2013-05-06T08:12:53Z</time>
      </trkpt>
      <trkpt lat="42.78519" lon="-1.67914">
        <ele>451.053</ele>
        <time>2013-05-06T08:12:45Z</time>
      </trkpt>
      <trkpt lat="42.78563" lon="-1.67869">
        <ele>454.408</ele>
        <time>2013-05-06T08:12:36Z</time>
      </trkpt>
      <trkpt lat="42.78582" lon="-1.67853">
        <ele>455.308</ele>
        <time>2013-05-06T08:10:14Z</time>
      </trkpt>
      <trkpt lat="42.78584" lon="-1.6785">
        <ele>455.366</ele>
        <time>2013-05-06T08:09:43Z</time>
      </trkpt>
      <trkpt lat="42.78585" lon="-1.67847">
        <ele>455.357</ele>
        <time>2013-05-06T08:09:41Z</time>
      </trkpt>
      <trkpt lat="42.78595" lon="-1.67834">
        <ele>455.879</ele>
        <time>2013-05-06T08:09:35Z</time>
      </trkpt>
      <trkpt lat="42.78609" lon="-1.67791">
        <ele>456.824</ele>
        <time>2013-05-06T08:09:23Z</time>
      </trkpt>
      <trkpt lat="42.78621" lon="-1.67747">
        <ele>456.881</ele>
        <time>2013-05-06T08:09:13Z</time>
      </trkpt>
      <trkpt lat="42.78634" lon="-1.67715">
        <ele>457.748</ele>
        <time>2013-05-06T08:09:05Z</time>
      </trkpt>
      <trkpt lat="42.78635" lon="-1.67713">
        <ele>457.726</ele>
        <time>2013-05-06T08:09:04Z</time>
      </trkpt>
      <trkpt lat="42.78657" lon="-1.67704">
        <ele>458.269</ele>
        <time>2013-05-06T08:08:57Z</time>
      </trkpt>
      <trkpt lat="42.7872" lon="-1.67663">
        <ele>461.693</ele>
        <time>2013-05-06T08:08:46Z</time>
      </trkpt>
      <trkpt lat="42.7876" lon="-1.67637">
        <ele>464.065</ele>
        <time>2013-05-06T08:08:36Z</time>
      </trkpt>
      <trkpt lat="42.78776" lon="-1.67628">
        <ele>464.921</ele>
        <time>2013-05-06T08:08:26Z</time>
      </trkpt>
      <trkpt lat="42.78788" lon="-1.67605">
        <ele>464.508</ele>
        <time>2013-05-06T08:08:16Z</time>
      </trkpt>
      <trkpt lat="42.78809" lon="-1.67565">
        <ele>462.11</ele>
        <time>2013-05-06T08:08:02Z</time>
      </trkpt>
      <trkpt lat="42.78833" lon="-1.67532">
        <ele>460.641</ele>
        <time>2013-05-06T08:07:49Z</time>
      </trkpt>
      <trkpt lat="42.78853" lon="-1.67516">
        <ele>459.763</ele>
        <time>2013-05-06T08:07:38Z</time>
      </trkpt>
      <trkpt lat="42.78857" lon="-1.67513">
        <ele>459.738</ele>
        <time>2013-05-06T08:06:41Z</time>
      </trkpt>
      <trkpt lat="42.7886" lon="-1.6752">
        <ele>459.775</ele>
        <time>2013-05-06T08:06:16Z</time>
      </trkpt>
      <trkpt lat="42.78859" lon="-1.67515">
        <ele>459.762</ele>
        <time>2013-05-06T08:05:27Z</time>
      </trkpt>
      <trkpt lat="42.78857" lon="-1.6752">
        <ele>459.74</ele>
        <time>2013-05-06T08:04:46Z</time>
      </trkpt>
      <trkpt lat="42.78861" lon="-1.67517">
        <ele>458.773</ele>
        <time>2013-05-06T08:04:36Z</time>
      </trkpt>
      <trkpt lat="42.78884" lon="-1.67513">
        <ele>456.898</ele>
        <time>2013-05-06T08:04:24Z</time>
      </trkpt>
      <trkpt lat="42.78907" lon="-1.6751">
        <ele>454.815</ele>
        <time>2013-05-06T08:04:12Z</time>
      </trkpt>
      <trkpt lat="42.7893" lon="-1.6751">
        <ele>452.926</ele>
        <time>2013-05-06T08:03:59Z</time>
      </trkpt>
      <trkpt lat="42.78957" lon="-1.67509">
        <ele>450.008</ele>
        <time>2013-05-06T08:03:45Z</time>
      </trkpt>
      <trkpt lat="42.78978" lon="-1.67506">
        <ele>448.12</ele>
        <time>2013-05-06T08:03:33Z</time>
      </trkpt>
      <trkpt lat="42.79006" lon="-1.67501">
        <ele>445.711</ele>
        <time>2013-05-06T08:03:18Z</time>
      </trkpt>
      <trkpt lat="42.79029" lon="-1.67494">
        <ele>443.883</ele>
        <time>2013-05-06T08:03:06Z</time>
      </trkpt>
      <trkpt lat="42.79058" lon="-1.67483">
        <ele>440.918</ele>
        <time>2013-05-06T08:02:50Z</time>
      </trkpt>
      <trkpt lat="42.79087" lon="-1.6747">
        <ele>439.065</ele>
        <time>2013-05-06T08:02:34Z</time>
      </trkpt>
      <trkpt lat="42.79111" lon="-1.67457">
        <ele>437.512</ele>
        <time>2013-05-06T08:02:21Z</time>
      </trkpt>
      <trkpt lat="42.79136" lon="-1.6744">
        <ele>435.15</ele>
        <time>2013-05-06T08:02:07Z</time>
      </trkpt>
      <trkpt lat="42.7916" lon="-1.67421">
        <ele>433.733</ele>
        <time>2013-05-06T08:01:53Z</time>
      </trkpt>
      <trkpt lat="42.79182" lon="-1.67406">
        <ele>432.758</ele>
        <time>2013-05-06T08:01:40Z</time>
      </trkpt>
      <trkpt lat="42.79209" lon="-1.67389">
        <ele>431.852</ele>
        <time>2013-05-06T08:01:25Z</time>
      </trkpt>
      <trkpt lat="42.79235" lon="-1.67376">
        <ele>429.917</ele>
        <time>2013-05-06T08:01:11Z</time>
      </trkpt>
      <trkpt lat="42.79266" lon="-1.67362">
        <ele>427.408</ele>
        <time>2013-05-06T08:00:55Z</time>
      </trkpt>
      <trkpt lat="42.79294" lon="-1.67348">
        <ele>425.086</ele>
        <time>2013-05-06T08:00:40Z</time>
      </trkpt>
      <trkpt lat="42.79325" lon="-1.67335">
        <ele>422.657</ele>
        <time>2013-05-06T08:00:25Z</time>
      </trkpt>
      <trkpt lat="42.79357" lon="-1.67316">
        <ele>421.259</ele>
        <time>2013-05-06T08:00:11Z</time>
      </trkpt>
      <trkpt lat="42.79387" lon="-1.67305">
        <ele>419.824</ele>
        <time>2013-05-06T08:00:00Z</time>
      </trkpt>
      <trkpt lat="42.7939" lon="-1.67305">
        <ele>419.861</ele>
        <time>2013-05-06T07:59:59Z</time>
      </trkpt>
      <trkpt lat="42.79401" lon="-1.67289">
        <ele>419.378</ele>
        <time>2013-05-06T07:59:53Z</time>
      </trkpt>
      <trkpt lat="42.79426" lon="-1.67262">
        <ele>418.816</ele>
        <time>2013-05-06T07:59:40Z</time>
      </trkpt>
      <trkpt lat="42.79429" lon="-1.67258">
        <ele>417.419</ele>
        <time>2013-05-06T07:59:38Z</time>
      </trkpt>
      <trkpt lat="42.79449" lon="-1.67231">
        <ele>417.443</ele>
        <time>2013-05-06T07:59:27Z</time>
      </trkpt>
      <trkpt lat="42.7948" lon="-1.67195">
        <ele>417.464</ele>
        <time>2013-05-06T07:59:14Z</time>
      </trkpt>
      <trkpt lat="42.79502" lon="-1.67167">
        <ele>417.81</ele>
        <time>2013-05-06T07:59:03Z</time>
      </trkpt>
      <trkpt lat="42.79535" lon="-1.67103">
        <ele>420.208</ele>
        <time>2013-05-06T07:58:51Z</time>
      </trkpt>
      <trkpt lat="42.79545" lon="-1.67075">
        <ele>421.755</ele>
        <time>2013-05-06T07:58:44Z</time>
      </trkpt>
      <trkpt lat="42.79555" lon="-1.67038">
        <ele>421.736</ele>
        <time>2013-05-06T07:58:31Z</time>
      </trkpt>
      <trkpt lat="42.79565" lon="-1.66999">
        <ele>419.878</ele>
        <time>2013-05-06T07:58:17Z</time>
      </trkpt>
      <trkpt lat="42.79584" lon="-1.66956">
        <ele>417.423</ele>
        <time>2013-05-06T07:58:00Z</time>
      </trkpt>
      <trkpt lat="42.79605" lon="-1.66925">
        <ele>415.01</ele>
        <time>2013-05-06T07:57:46Z</time>
      </trkpt>
      <trkpt lat="42.7963" lon="-1.66903">
        <ele>414.027</ele>
        <time>2013-05-06T07:57:35Z</time>
      </trkpt>
      <trkpt lat="42.79668" lon="-1.66876">
        <ele>413.545</ele>
        <time>2013-05-06T07:57:22Z</time>
      </trkpt>
      <trkpt lat="42.79673" lon="-1.66871">
        <ele>412.168</ele>
        <time>2013-05-06T07:57:20Z</time>
      </trkpt>
      <trkpt lat="42.79696" lon="-1.66851">
        <ele>412.188</ele>
        <time>2013-05-06T07:57:09Z</time>
      </trkpt>
      <trkpt lat="42.79698" lon="-1.66849">
        <ele>412.124</ele>
        <time>2013-05-06T07:57:08Z</time>
      </trkpt>
      <trkpt lat="42.79706" lon="-1.66825">
        <ele>412.126</ele>
        <time>2013-05-06T07:57:02Z</time>
      </trkpt>
      <trkpt lat="42.79694" lon="-1.66806">
        <ele>413.508</ele>
        <time>2013-05-06T07:56:57Z</time>
      </trkpt>
      <trkpt lat="42.797" lon="-1.66794">
        <ele>413.559</ele>
        <time>2013-05-06T07:56:53Z</time>
      </trkpt>
      <trkpt lat="42.79743" lon="-1.66738">
        <ele>412.52</ele>
        <time>2013-05-06T07:56:36Z</time>
      </trkpt>
      <trkpt lat="42.7979" lon="-1.66689">
        <ele>412.572</ele>
        <time>2013-05-06T07:56:21Z</time>
      </trkpt>
      <trkpt lat="42.79856" lon="-1.66648">
        <ele>411.127</ele>
        <time>2013-05-06T07:56:05Z</time>
      </trkpt>
      <trkpt lat="42.79927" lon="-1.66609">
        <ele>412.124</ele>
        <time>2013-05-06T07:55:49Z</time>
      </trkpt>
      <trkpt lat="42.79946" lon="-1.66598">
        <ele>413.511</ele>
        <time>2013-05-06T07:55:44Z</time>
      </trkpt>
      <trkpt lat="42.79995" lon="-1.6657">
        <ele>413.539</ele>
        <time>2013-05-06T07:55:30Z</time>
      </trkpt>
      <trkpt lat="42.80028" lon="-1.66553">
        <ele>413.592</ele>
        <time>2013-05-06T07:55:19Z</time>
      </trkpt>
      <trkpt lat="42.80066" lon="-1.66534">
        <ele>413.557</ele>
        <time>2013-05-06T07:55:07Z</time>
      </trkpt>
      <trkpt lat="42.80069" lon="-1.66533">
        <ele>413.5</ele>
        <time>2013-05-06T07:55:06Z</time>
      </trkpt>
      <trkpt lat="42.80072" lon="-1.66532">
        <ele>413.52</ele>
        <time>2013-05-06T07:55:05Z</time>
      </trkpt>
      <trkpt lat="42.80074" lon="-1.66531">
        <ele>413.508</ele>
        <time>2013-05-06T07:55:04Z</time>
      </trkpt>
      <trkpt lat="42.80077" lon="-1.6653">
        <ele>413.546</ele>
        <time>2013-05-06T07:55:03Z</time>
      </trkpt>
      <trkpt lat="42.80079" lon="-1.66528">
        <ele>413.567</ele>
        <time>2013-05-06T07:55:02Z</time>
      </trkpt>
      <trkpt lat="42.8008" lon="-1.66526">
        <ele>413.529</ele>
        <time>2013-05-06T07:55:01Z</time>
      </trkpt>
      <trkpt lat="42.80083" lon="-1.66524">
        <ele>413.554</ele>
        <time>2013-05-06T07:54:59Z</time>
      </trkpt>
      <trkpt lat="42.80085" lon="-1.66521">
        <ele>413.541</ele>
        <time>2013-05-06T07:54:57Z</time>
      </trkpt>
      <trkpt lat="42.80087" lon="-1.66518">
        <ele>413.518</ele>
        <time>2013-05-06T07:54:55Z</time>
      </trkpt>
      <trkpt lat="42.80091" lon="-1.66516">
        <ele>413.556</ele>
        <time>2013-05-06T07:54:51Z</time>
      </trkpt>
      <trkpt lat="42.80091" lon="-1.66513">
        <ele>413.519</ele>
        <time>2013-05-06T07:54:34Z</time>
      </trkpt>
      <trkpt lat="42.80089" lon="-1.66516">
        <ele>413.575</ele>
        <time>2013-05-06T07:54:24Z</time>
      </trkpt>
      <trkpt lat="42.80091" lon="-1.66517">
        <ele>413.528</ele>
        <time>2013-05-06T07:54:14Z</time>
      </trkpt>
      <trkpt lat="42.80108" lon="-1.66511">
        <ele>413.02</ele>
        <time>2013-05-06T07:54:05Z</time>
      </trkpt>
      <trkpt lat="42.8011" lon="-1.6651">
        <ele>413.008</ele>
        <time>2013-05-06T07:54:03Z</time>
      </trkpt>
      <trkpt lat="42.80112" lon="-1.6651">
        <ele>411.658</ele>
        <time>2013-05-06T07:54:01Z</time>
      </trkpt>
      <trkpt lat="42.80116" lon="-1.66509">
        <ele>411.639</ele>
        <time>2013-05-06T07:53:49Z</time>
      </trkpt>
      <trkpt lat="42.80119" lon="-1.66508">
        <ele>411.671</ele>
        <time>2013-05-06T07:53:08Z</time>
      </trkpt>
      <trkpt lat="42.80117" lon="-1.66512">
        <ele>411.666</ele>
        <time>2013-05-06T07:52:13Z</time>
      </trkpt>
      <trkpt lat="42.80119" lon="-1.66511">
        <ele>411.673</ele>
        <time>2013-05-06T07:52:12Z</time>
      </trkpt>
      <trkpt lat="42.80124" lon="-1.66506">
        <ele>411.67</ele>
        <time>2013-05-06T07:52:10Z</time>
      </trkpt>
      <trkpt lat="42.80126" lon="-1.66503">
        <ele>411.618</ele>
        <time>2013-05-06T07:52:09Z</time>
      </trkpt>
      <trkpt lat="42.80129" lon="-1.66499">
        <ele>411.641</ele>
        <time>2013-05-06T07:52:08Z</time>
      </trkpt>
      <trkpt lat="42.80131" lon="-1.66494">
        <ele>411.617</ele>
        <time>2013-05-06T07:52:07Z</time>
      </trkpt>
      <trkpt lat="42.80133" lon="-1.66489">
        <ele>411.687</ele>
        <time>2013-05-06T07:52:06Z</time>
      </trkpt>
      <trkpt lat="42.80135" lon="-1.66483">
        <ele>411.615</ele>
        <time>2013-05-06T07:52:05Z</time>
      </trkpt>
      <trkpt lat="42.80151" lon="-1.66401">
        <ele>412.108</ele>
        <time>2013-05-06T07:51:54Z</time>
      </trkpt>
      <trkpt lat="42.80153" lon="-1.66394">
        <ele>412.552</ele>
        <time>2013-05-06T07:51:53Z</time>
      </trkpt>
      <trkpt lat="42.80155" lon="-1.66386">
        <ele>412.523</ele>
        <time>2013-05-06T07:51:52Z</time>
      </trkpt>
      <trkpt lat="42.80157" lon="-1.66379">
        <ele>412.535</ele>
        <time>2013-05-06T07:51:51Z</time>
      </trkpt>
      <trkpt lat="42.8016" lon="-1.66372">
        <ele>413.58</ele>
        <time>2013-05-06T07:51:50Z</time>
      </trkpt>
      <trkpt lat="42.80164" lon="-1.66365">
        <ele>413.577</ele>
        <time>2013-05-06T07:51:49Z</time>
      </trkpt>
      <trkpt lat="42.80167" lon="-1.66358">
        <ele>413.524</ele>
        <time>2013-05-06T07:51:48Z</time>
      </trkpt>
      <trkpt lat="42.80175" lon="-1.66336">
        <ele>413.552</ele>
        <time>2013-05-06T07:51:45Z</time>
      </trkpt>
      <trkpt lat="42.80179" lon="-1.66327">
        <ele>414.045</ele>
        <time>2013-05-06T07:51:44Z</time>
      </trkpt>
      <trkpt lat="42.80211" lon="-1.66277">
        <ele>416.426</ele>
        <time>2013-05-06T07:51:38Z</time>
      </trkpt>
      <trkpt lat="42.8024" lon="-1.66238">
        <ele>420.247</ele>
        <time>2013-05-06T07:51:33Z</time>
      </trkpt>
      <trkpt lat="42.80247" lon="-1.66229">
        <ele>420.711</ele>
        <time>2013-05-06T07:51:32Z</time>
      </trkpt>
      <trkpt lat="42.80279" lon="-1.66194">
        <ele>424.608</ele>
        <time>2013-05-06T07:51:27Z</time>
      </trkpt>
      <trkpt lat="42.80354" lon="-1.66125">
        <ele>428.413</ele>
        <time>2013-05-06T07:51:13Z</time>
      </trkpt>
      <trkpt lat="42.80436" lon="-1.66058">
        <ele>429.974</ele>
        <time>2013-05-06T07:50:59Z</time>
      </trkpt>
      <trkpt lat="42.80442" lon="-1.66054">
        <ele>429.966</ele>
        <time>2013-05-06T07:50:58Z</time>
      </trkpt>
      <trkpt lat="42.80448" lon="-1.6605">
        <ele>430.351</ele>
        <time>2013-05-06T07:50:57Z</time>
      </trkpt>
      <trkpt lat="42.80454" lon="-1.66046">
        <ele>430.388</ele>
        <time>2013-05-06T07:50:56Z</time>
      </trkpt>
      <trkpt lat="42.8046" lon="-1.66043">
        <ele>430.315</ele>
        <time>2013-05-06T07:50:55Z</time>
      </trkpt>
      <trkpt lat="42.80465" lon="-1.66039">
        <ele>430.313</ele>
        <time>2013-05-06T07:50:54Z</time>
      </trkpt>
      <trkpt lat="42.8047" lon="-1.66032">
        <ele>430.366</ele>
        <time>2013-05-06T07:50:53Z</time>
      </trkpt>
      <trkpt lat="42.80475" lon="-1.66025">
        <ele>430.889</ele>
        <time>2013-05-06T07:50:52Z</time>
      </trkpt>
      <trkpt lat="42.80486" lon="-1.6601">
        <ele>431.306</ele>
        <time>2013-05-06T07:50:50Z</time>
      </trkpt>
      <trkpt lat="42.80514" lon="-1.65976">
        <ele>434.726</ele>
        <time>2013-05-06T07:50:46Z</time>
      </trkpt>
      <trkpt lat="42.80548" lon="-1.65933">
        <ele>438.508</ele>
        <time>2013-05-06T07:50:41Z</time>
      </trkpt>
      <trkpt lat="42.80582" lon="-1.65886">
        <ele>441.479</ele>
        <time>2013-05-06T07:50:35Z</time>
      </trkpt>
      <trkpt lat="42.80608" lon="-1.65849">
        <ele>443.81</ele>
        <time>2013-05-06T07:50:29Z</time>
      </trkpt>
      <trkpt lat="42.80612" lon="-1.65844">
        <ele>443.862</ele>
        <time>2013-05-06T07:50:28Z</time>
      </trkpt>
      <trkpt lat="42.80615" lon="-1.65839">
        <ele>443.887</ele>
        <time>2013-05-06T07:50:27Z</time>
      </trkpt>
      <trkpt lat="42.80619" lon="-1.65836">
        <ele>443.864</ele>
        <time>2013-05-06T07:50:26Z</time>
      </trkpt>
      <trkpt lat="42.80623" lon="-1.65833">
        <ele>443.871</ele>
        <time>2013-05-06T07:50:25Z</time>
      </trkpt>
      <trkpt lat="42.80627" lon="-1.6583">
        <ele>443.879</ele>
        <time>2013-05-06T07:50:24Z</time>
      </trkpt>
      <trkpt lat="42.8063" lon="-1.65826">
        <ele>444.342</ele>
        <time>2013-05-06T07:50:23Z</time>
      </trkpt>
      <trkpt lat="42.8064" lon="-1.65796">
        <ele>444.384</ele>
        <time>2013-05-06T07:50:18Z</time>
      </trkpt>
      <trkpt lat="42.80667" lon="-1.65738">
        <ele>445.707</ele>
        <time>2013-05-06T07:50:07Z</time>
      </trkpt>
      <trkpt lat="42.8067" lon="-1.65733">
        <ele>445.717</ele>
        <time>2013-05-06T07:50:06Z</time>
      </trkpt>
      <trkpt lat="42.80681" lon="-1.65714">
        <ele>445.708</ele>
        <time>2013-05-06T07:50:01Z</time>
      </trkpt>
      <trkpt lat="42.80689" lon="-1.65688">
        <ele>446.249</ele>
        <time>2013-05-06T07:49:53Z</time>
      </trkpt>
      <trkpt lat="42.80691" lon="-1.65684">
        <ele>446.22</ele>
        <time>2013-05-06T07:49:52Z</time>
      </trkpt>
      <trkpt lat="42.80694" lon="-1.65679">
        <ele>446.292</ele>
        <time>2013-05-06T07:49:51Z</time>
      </trkpt>
      <trkpt lat="42.80697" lon="-1.65675">
        <ele>446.267</ele>
        <time>2013-05-06T07:49:50Z</time>
      </trkpt>
      <trkpt lat="42.80701" lon="-1.65672">
        <ele>446.234</ele>
        <time>2013-05-06T07:49:49Z</time>
      </trkpt>
      <trkpt lat="42.80704" lon="-1.65667">
        <ele>446.791</ele>
        <time>2013-05-06T07:49:48Z</time>
      </trkpt>
      <trkpt lat="42.80717" lon="-1.65645">
        <ele>446.729</ele>
        <time>2013-05-06T07:49:44Z</time>
      </trkpt>
      <trkpt lat="42.80756" lon="-1.65577">
        <ele>447.272</ele>
        <time>2013-05-06T07:49:32Z</time>
      </trkpt>
      <trkpt lat="42.8076" lon="-1.65571">
        <ele>447.282</ele>
        <time>2013-05-06T07:49:31Z</time>
      </trkpt>
      <trkpt lat="42.80763" lon="-1.65566">
        <ele>447.243</ele>
        <time>2013-05-06T07:49:30Z</time>
      </trkpt>
      <trkpt lat="42.8077" lon="-1.65556">
        <ele>447.217</ele>
        <time>2013-05-06T07:49:28Z</time>
      </trkpt>
      <trkpt lat="42.80773" lon="-1.65552">
        <ele>447.208</ele>
        <time>2013-05-06T07:49:27Z</time>
      </trkpt>
      <trkpt lat="42.80776" lon="-1.65546">
        <ele>447.239</ele>
        <time>2013-05-06T07:49:26Z</time>
      </trkpt>
      <trkpt lat="42.80798" lon="-1.65513">
        <ele>447.61</ele>
        <time>2013-05-06T07:49:19Z</time>
      </trkpt>
      <trkpt lat="42.80801" lon="-1.65508">
        <ele>447.662</ele>
        <time>2013-05-06T07:49:18Z</time>
      </trkpt>
      <trkpt lat="42.80804" lon="-1.65504">
        <ele>447.617</ele>
        <time>2013-05-06T07:49:17Z</time>
      </trkpt>
      <trkpt lat="42.8081" lon="-1.65493">
        <ele>447.614</ele>
        <time>2013-05-06T07:49:15Z</time>
      </trkpt>
      <trkpt lat="42.80843" lon="-1.65434">
        <ele>448.671</ele>
        <time>2013-05-06T07:49:03Z</time>
      </trkpt>
      <trkpt lat="42.80862" lon="-1.65404">
        <ele>448.699</ele>
        <time>2013-05-06T07:48:56Z</time>
      </trkpt>
      <trkpt lat="42.8087" lon="-1.65392">
        <ele>448.632</ele>
        <time>2013-05-06T07:48:53Z</time>
      </trkpt>
      <trkpt lat="42.80879" lon="-1.65383">
        <ele>448.666</ele>
        <time>2013-05-06T07:48:50Z</time>
      </trkpt>
      <trkpt lat="42.80909" lon="-1.65353">
        <ele>448.629</ele>
        <time>2013-05-06T07:48:40Z</time>
      </trkpt>
      <trkpt lat="42.80911" lon="-1.6535">
        <ele>448.621</ele>
        <time>2013-05-06T07:48:39Z</time>
      </trkpt>
      <trkpt lat="42.80913" lon="-1.65347">
        <ele>448.608</ele>
        <time>2013-05-06T07:48:38Z</time>
      </trkpt>
      <trkpt lat="42.80915" lon="-1.65344">
        <ele>448.617</ele>
        <time>2013-05-06T07:48:37Z</time>
      </trkpt>
      <trkpt lat="42.80918" lon="-1.65343">
        <ele>448.658</ele>
        <time>2013-05-06T07:48:35Z</time>
      </trkpt>
      <trkpt lat="42.8092" lon="-1.65334">
        <ele>448.64</ele>
        <time>2013-05-06T07:48:08Z</time>
      </trkpt>
      <trkpt lat="42.80922" lon="-1.65334">
        <ele>448.675</ele>
        <time>2013-05-06T07:47:42Z</time>
      </trkpt>
      <trkpt lat="42.80927" lon="-1.65333">
        <ele>448.632</ele>
        <time>2013-05-06T07:47:32Z</time>
      </trkpt>
      <trkpt lat="42.80957" lon="-1.65313">
        <ele>448.629</ele>
        <time>2013-05-06T07:47:19Z</time>
      </trkpt>
    </trkseg>
  </trk>
</gpx>